﻿<?xml version="1.0" encoding="utf-8"?><gpx creator="Garmin Desktop App" version="1.1" xsi:schemaLocation="http://www.topografix.com/GPX/1/1 http://www.topografix.com/GPX/1/1/gpx.xsd http://www.garmin.com/xmlschemas/WaypointExtension/v1 http://www8.garmin.com/xmlschemas/WaypointExtensionv1.xsd http://www.garmin.com/xmlschemas/TrackPointExtension/v1 http://www.garmin.com/xmlschemas/TrackPointExtensionv1.xsd http://www.garmin.com/xmlschemas/GpxExtensions/v3 http://www8.garmin.com/xmlschemas/GpxExtensionsv3.xsd http://www.garmin.com/xmlschemas/ActivityExtension/v1 http://www8.garmin.com/xmlschemas/ActivityExtensionv1.xsd http://www.garmin.com/xmlschemas/AdventuresExtensions/v1 http://www8.garmin.com/xmlschemas/AdventuresExtensionv1.xsd" xmlns="http://www.topografix.com/GPX/1/1" xmlns:xsi="http://www.w3.org/2001/XMLSchema-instance" xmlns:wptx1="http://www.garmin.com/xmlschemas/WaypointExtension/v1" xmlns:gpxtrx="http://www.garmin.com/xmlschemas/GpxExtensions/v3" xmlns:gpxtpx="http://www.garmin.com/xmlschemas/TrackPointExtension/v1" xmlns:gpxx="http://www.garmin.com/xmlschemas/GpxExtensions/v3" xmlns:trp="http://www.garmin.com/xmlschemas/TripExtensions/v1" xmlns:adv="http://www.garmin.com/xmlschemas/AdventuresExtensions/v1">

  <metadata>
    <link href="http://www.garmin.com">
      <text>Garmin International</text>
    </link>
    <time>2012-03-24T11:04:32Z</time>
    <bounds maxlat="47.074058521538973" maxlon="6.867149854078889" minlat="47.041411511600018" minlon="6.832634182646871" />
  </metadata>

  <trk>
    <name>Tracé actuel: 24 MARS 2012 07:54</name>
    <extensions>
      <gpxx:TrackExtension>
        <gpxx:DisplayColor>DarkGray</gpxx:DisplayColor>
      </gpxx:TrackExtension>
    </extensions>
    <trkseg>
      <trkpt lat="47.074042512103915" lon="6.867127222940326">
        <ele>1282.0599999999999</ele>
        <time>2012-03-24T06:57:27Z</time>
      </trkpt>
      <trkpt lat="47.073871353641152" lon="6.867039632052183">
        <ele>1282.0599999999999</ele>
        <time>2012-03-24T06:57:35Z</time>
      </trkpt>
      <trkpt lat="47.073818547651172" lon="6.867015911266208">
        <ele>1281.5699999999999</ele>
        <time>2012-03-24T06:57:37Z</time>
      </trkpt>
      <trkpt lat="47.07377789542079" lon="6.866984562948346">
        <ele>1282.0599999999999</ele>
        <time>2012-03-24T06:57:39Z</time>
      </trkpt>
      <trkpt lat="47.073704386129975" lon="6.866941982880235">
        <ele>1283.5</ele>
        <time>2012-03-24T06:57:42Z</time>
      </trkpt>
      <trkpt lat="47.073590643703938" lon="6.86689680442214">
        <ele>1283.98</ele>
        <time>2012-03-24T06:57:46Z</time>
      </trkpt>
      <trkpt lat="47.07338503561914" lon="6.866733441129327">
        <ele>1283.5</ele>
        <time>2012-03-24T06:57:54Z</time>
      </trkpt>
      <trkpt lat="47.073205159977078" lon="6.866584494709969">
        <ele>1284.9400000000001</ele>
        <time>2012-03-24T06:58:01Z</time>
      </trkpt>
      <trkpt lat="47.073017572984099" lon="6.866462370380759">
        <ele>1286.8599999999999</ele>
        <time>2012-03-24T06:58:08Z</time>
      </trkpt>
      <trkpt lat="47.072907099500299" lon="6.866398165002465">
        <ele>1286.8599999999999</ele>
        <time>2012-03-24T06:58:12Z</time>
      </trkpt>
      <trkpt lat="47.072848509997129" lon="6.866365056484938">
        <ele>1286.8599999999999</ele>
        <time>2012-03-24T06:58:14Z</time>
      </trkpt>
      <trkpt lat="47.072700317949057" lon="6.866279728710651">
        <ele>1286.3800000000001</ele>
        <time>2012-03-24T06:58:19Z</time>
      </trkpt>
      <trkpt lat="47.072639213874936" lon="6.866239160299301">
        <ele>1287.3399999999999</ele>
        <time>2012-03-24T06:58:21Z</time>
      </trkpt>
      <trkpt lat="47.072519520297647" lon="6.86617168597877">
        <ele>1288.3</ele>
        <time>2012-03-24T06:58:25Z</time>
      </trkpt>
      <trkpt lat="47.07228465937078" lon="6.866035647690296">
        <ele>1288.3</ele>
        <time>2012-03-24T06:58:33Z</time>
      </trkpt>
      <trkpt lat="47.072144262492657" lon="6.86596549116075">
        <ele>1287.3399999999999</ele>
        <time>2012-03-24T06:58:38Z</time>
      </trkpt>
      <trkpt lat="47.072046864777803" lon="6.865914529189467">
        <ele>1288.3</ele>
        <time>2012-03-24T06:58:41Z</time>
      </trkpt>
      <trkpt lat="47.071896577253938" lon="6.865817634388804">
        <ele>1287.8199999999999</ele>
        <time>2012-03-24T06:58:45Z</time>
      </trkpt>
      <trkpt lat="47.071802951395512" lon="6.865731049329042">
        <ele>1287.3399999999999</ele>
        <time>2012-03-24T06:58:48Z</time>
      </trkpt>
      <trkpt lat="47.071582423523068" lon="6.865484034642577">
        <ele>1288.78</ele>
        <time>2012-03-24T06:58:57Z</time>
      </trkpt>
      <trkpt lat="47.071457533165812" lon="6.86532880179584">
        <ele>1289.75</ele>
        <time>2012-03-24T06:59:03Z</time>
      </trkpt>
      <trkpt lat="47.071419395506382" lon="6.865283539518714">
        <ele>1290.23</ele>
        <time>2012-03-24T06:59:05Z</time>
      </trkpt>
      <trkpt lat="47.071285201236606" lon="6.865108525380492">
        <ele>1291.6700000000001</ele>
        <time>2012-03-24T06:59:13Z</time>
      </trkpt>
      <trkpt lat="47.071181265637279" lon="6.864938624203205">
        <ele>1292.1500000000001</ele>
        <time>2012-03-24T06:59:20Z</time>
      </trkpt>
      <trkpt lat="47.071075486019254" lon="6.86478104442358">
        <ele>1293.1099999999999</ele>
        <time>2012-03-24T06:59:27Z</time>
      </trkpt>
      <trkpt lat="47.0710489153862" lon="6.864721868187189">
        <ele>1295.03</ele>
        <time>2012-03-24T06:59:29Z</time>
      </trkpt>
      <trkpt lat="47.070921175181866" lon="6.864506620913744">
        <ele>1295.51</ele>
        <time>2012-03-24T06:59:38Z</time>
      </trkpt>
      <trkpt lat="47.070827465504408" lon="6.864353902637959">
        <ele>1297.4400000000001</ele>
        <time>2012-03-24T06:59:45Z</time>
      </trkpt>
      <trkpt lat="47.070695953443646" lon="6.864200765267015">
        <ele>1297.4400000000001</ele>
        <time>2012-03-24T06:59:52Z</time>
      </trkpt>
      <trkpt lat="47.070596544072032" lon="6.8641272559762">
        <ele>1299.8399999999999</ele>
        <time>2012-03-24T06:59:56Z</time>
      </trkpt>
      <trkpt lat="47.070545749738812" lon="6.864092387259007">
        <ele>1298.4000000000001</ele>
        <time>2012-03-24T06:59:58Z</time>
      </trkpt>
      <trkpt lat="47.070379117503762" lon="6.863989289849997">
        <ele>1298.8800000000001</ele>
        <time>2012-03-24T07:00:03Z</time>
      </trkpt>
      <trkpt lat="47.069936553016305" lon="6.863787956535816">
        <ele>1295.03</ele>
        <time>2012-03-24T07:00:12Z</time>
      </trkpt>
      <trkpt lat="47.069298857823014" lon="6.86348419636488">
        <ele>1292.6300000000001</ele>
        <time>2012-03-24T07:00:23Z</time>
      </trkpt>
      <trkpt lat="47.068890323862433" lon="6.863270038738847">
        <ele>1292.1500000000001</ele>
        <time>2012-03-24T07:00:32Z</time>
      </trkpt>
      <trkpt lat="47.068547001108527" lon="6.863115392625332">
        <ele>1290.71</ele>
        <time>2012-03-24T07:00:40Z</time>
      </trkpt>
      <trkpt lat="47.068250449374318" lon="6.862983796745539">
        <ele>1292.6300000000001</ele>
        <time>2012-03-24T07:00:48Z</time>
      </trkpt>
      <trkpt lat="47.067932775244117" lon="6.86285144649446">
        <ele>1292.6300000000001</ele>
        <time>2012-03-24T07:00:57Z</time>
      </trkpt>
      <trkpt lat="47.067694561555982" lon="6.86273611150682">
        <ele>1293.1099999999999</ele>
        <time>2012-03-24T07:01:05Z</time>
      </trkpt>
      <trkpt lat="47.067590793594718" lon="6.862698560580611">
        <ele>1293.5899999999999</ele>
        <time>2012-03-24T07:01:09Z</time>
      </trkpt>
      <trkpt lat="47.067392477765679" lon="6.862623374909163">
        <ele>1295.51</ele>
        <time>2012-03-24T07:01:17Z</time>
      </trkpt>
      <trkpt lat="47.067258534952998" lon="6.862560175359249">
        <ele>1295.03</ele>
        <time>2012-03-24T07:01:22Z</time>
      </trkpt>
      <trkpt lat="47.067021494731307" lon="6.86244492419064">
        <ele>1296.48</ele>
        <time>2012-03-24T07:01:31Z</time>
      </trkpt>
      <trkpt lat="47.066898699849844" lon="6.862355824559927">
        <ele>1298.4000000000001</ele>
        <time>2012-03-24T07:01:36Z</time>
      </trkpt>
      <trkpt lat="47.066819826141" lon="6.862283069640398">
        <ele>1298.8800000000001</ele>
        <time>2012-03-24T07:01:39Z</time>
      </trkpt>
      <trkpt lat="47.066631484776735" lon="6.861971095204353">
        <ele>1299.3599999999999</ele>
        <time>2012-03-24T07:01:49Z</time>
      </trkpt>
      <trkpt lat="47.066536769270897" lon="6.861742520704866">
        <ele>1299.3599999999999</ele>
        <time>2012-03-24T07:01:56Z</time>
      </trkpt>
      <trkpt lat="47.066458314657211" lon="6.86153850518167">
        <ele>1302.72</ele>
        <time>2012-03-24T07:02:03Z</time>
      </trkpt>
      <trkpt lat="47.066388493403792" lon="6.861373130232096">
        <ele>1303.6900000000001</ele>
        <time>2012-03-24T07:02:10Z</time>
      </trkpt>
      <trkpt lat="47.066372903063893" lon="6.861350499093533">
        <ele>1304.6500000000001</ele>
        <time>2012-03-24T07:02:11Z</time>
      </trkpt>
      <trkpt lat="47.066329484805465" lon="6.861248323693872">
        <ele>1305.1300000000001</ele>
        <time>2012-03-24T07:02:15Z</time>
      </trkpt>
      <trkpt lat="47.066312804818153" lon="6.861215885728598">
        <ele>1305.6099999999999</ele>
        <time>2012-03-24T07:02:17Z</time>
      </trkpt>
      <trkpt lat="47.066266955807805" lon="6.861135335639119">
        <ele>1306.5699999999999</ele>
        <time>2012-03-24T07:02:21Z</time>
      </trkpt>
      <trkpt lat="47.066070986911654" lon="6.860906006768346">
        <ele>1307.53</ele>
        <time>2012-03-24T07:02:31Z</time>
      </trkpt>
      <trkpt lat="47.065939642488956" lon="6.860753204673529">
        <ele>1309.45</ele>
        <time>2012-03-24T07:02:38Z</time>
      </trkpt>
      <trkpt lat="47.065819781273603" lon="6.86060132458806">
        <ele>1309.45</ele>
        <time>2012-03-24T07:02:45Z</time>
      </trkpt>
      <trkpt lat="47.065762029960752" lon="6.860531335696578">
        <ele>1309.45</ele>
        <time>2012-03-24T07:02:48Z</time>
      </trkpt>
      <trkpt lat="47.065592966973782" lon="6.860345592722297">
        <ele>1311.3800000000001</ele>
        <time>2012-03-24T07:02:57Z</time>
      </trkpt>
      <trkpt lat="47.065480733290315" lon="6.860195053741336">
        <ele>1313.3</ele>
        <time>2012-03-24T07:03:04Z</time>
      </trkpt>
      <trkpt lat="47.065315442159772" lon="6.860003024339676">
        <ele>1315.22</ele>
        <time>2012-03-24T07:03:13Z</time>
      </trkpt>
      <trkpt lat="47.065283339470625" lon="6.859963880851865">
        <ele>1315.22</ele>
        <time>2012-03-24T07:03:15Z</time>
      </trkpt>
      <trkpt lat="47.065223241224885" lon="6.859901351854205">
        <ele>1314.26</ele>
        <time>2012-03-24T07:03:18Z</time>
      </trkpt>
      <trkpt lat="47.065204968675971" lon="6.859881822019815">
        <ele>1314.74</ele>
        <time>2012-03-24T07:03:19Z</time>
      </trkpt>
      <trkpt lat="47.065170770511031" lon="6.859847875311971">
        <ele>1315.7</ele>
        <time>2012-03-24T07:03:21Z</time>
      </trkpt>
      <trkpt lat="47.065156437456608" lon="6.859824238345027">
        <ele>1315.22</ele>
        <time>2012-03-24T07:03:22Z</time>
      </trkpt>
      <trkpt lat="47.065103128552437" lon="6.859766067937017">
        <ele>1316.6600000000001</ele>
        <time>2012-03-24T07:03:25Z</time>
      </trkpt>
      <trkpt lat="47.064915541559458" lon="6.859623659402132">
        <ele>1317.1400000000001</ele>
        <time>2012-03-24T07:03:34Z</time>
      </trkpt>
      <trkpt lat="47.064769864082336" lon="6.859515700489283">
        <ele>1318.5899999999999</ele>
        <time>2012-03-24T07:03:41Z</time>
      </trkpt>
      <trkpt lat="47.064724517986178" lon="6.859494997188449">
        <ele>1319.0699999999999</ele>
        <time>2012-03-24T07:03:43Z</time>
      </trkpt>
      <trkpt lat="47.064545229077339" lon="6.859353259205818">
        <ele>1320.03</ele>
        <time>2012-03-24T07:03:52Z</time>
      </trkpt>
      <trkpt lat="47.064368035644293" lon="6.859180675819516">
        <ele>1320.51</ele>
        <time>2012-03-24T07:04:00Z</time>
      </trkpt>
      <trkpt lat="47.064131833612919" lon="6.858929386362433">
        <ele>1320.99</ele>
        <time>2012-03-24T07:04:09Z</time>
      </trkpt>
      <trkpt lat="47.064106184989214" lon="6.858899630606175">
        <ele>1321.47</ele>
        <time>2012-03-24T07:04:10Z</time>
      </trkpt>
      <trkpt lat="47.063880879431963" lon="6.858640797436237">
        <ele>1322.4300000000001</ele>
        <time>2012-03-24T07:04:19Z</time>
      </trkpt>
      <trkpt lat="47.063833102583885" lon="6.85858279466629">
        <ele>1321.47</ele>
        <time>2012-03-24T07:04:21Z</time>
      </trkpt>
      <trkpt lat="47.063737297430634" lon="6.858459915965796">
        <ele>1321.95</ele>
        <time>2012-03-24T07:04:25Z</time>
      </trkpt>
      <trkpt lat="47.063645347952843" lon="6.858343239873648">
        <ele>1322.9100000000001</ele>
        <time>2012-03-24T07:04:29Z</time>
      </trkpt>
      <trkpt lat="47.063482236117125" lon="6.858169231563807">
        <ele>1323.3900000000001</ele>
        <time>2012-03-24T07:04:35Z</time>
      </trkpt>
      <trkpt lat="47.063433788716793" lon="6.858107037842274">
        <ele>1322.4300000000001</ele>
        <time>2012-03-24T07:04:37Z</time>
      </trkpt>
      <trkpt lat="47.063354831188917" lon="6.858037719503045">
        <ele>1324.3499999999999</ele>
        <time>2012-03-24T07:04:40Z</time>
      </trkpt>
      <trkpt lat="47.063256343826652" lon="6.857942584902048">
        <ele>1323.3900000000001</ele>
        <time>2012-03-24T07:04:44Z</time>
      </trkpt>
      <trkpt lat="47.063098093494773" lon="6.857776204124093">
        <ele>1324.3499999999999</ele>
        <time>2012-03-24T07:04:50Z</time>
      </trkpt>
      <trkpt lat="47.062844708561897" lon="6.857548383995891">
        <ele>1324.8299999999999</ele>
        <time>2012-03-24T07:04:59Z</time>
      </trkpt>
      <trkpt lat="47.062655109912157" lon="6.857446376234293">
        <ele>1325.8</ele>
        <time>2012-03-24T07:05:05Z</time>
      </trkpt>
      <trkpt lat="47.06240851432085" lon="6.857377896085382">
        <ele>1326.28</ele>
        <time>2012-03-24T07:05:13Z</time>
      </trkpt>
      <trkpt lat="47.062202990055084" lon="6.857390552759171">
        <ele>1325.8</ele>
        <time>2012-03-24T07:05:19Z</time>
      </trkpt>
      <trkpt lat="47.062094109132886" lon="6.857380662113428">
        <ele>1326.28</ele>
        <time>2012-03-24T07:05:22Z</time>
      </trkpt>
      <trkpt lat="47.06205764785409" lon="6.857381835579872">
        <ele>1325.3099999999999</ele>
        <time>2012-03-24T07:05:23Z</time>
      </trkpt>
      <trkpt lat="47.062019007280469" lon="6.857378985732794">
        <ele>1326.76</ele>
        <time>2012-03-24T07:05:24Z</time>
      </trkpt>
      <trkpt lat="47.061984222382307" lon="6.857377644628286">
        <ele>1327.24</ele>
        <time>2012-03-24T07:05:25Z</time>
      </trkpt>
      <trkpt lat="47.061951449140906" lon="6.857375213876367">
        <ele>1327.24</ele>
        <time>2012-03-24T07:05:26Z</time>
      </trkpt>
      <trkpt lat="47.061916831880808" lon="6.85736901126802">
        <ele>1326.28</ele>
        <time>2012-03-24T07:05:27Z</time>
      </trkpt>
      <trkpt lat="47.061843741685152" lon="6.857343278825283">
        <ele>1326.76</ele>
        <time>2012-03-24T07:05:29Z</time>
      </trkpt>
      <trkpt lat="47.061807615682483" lon="6.857320228591561">
        <ele>1326.28</ele>
        <time>2012-03-24T07:05:30Z</time>
      </trkpt>
      <trkpt lat="47.061771070584655" lon="6.857300195842981">
        <ele>1326.28</ele>
        <time>2012-03-24T07:05:31Z</time>
      </trkpt>
      <trkpt lat="47.061738800257444" lon="6.857270188629627">
        <ele>1326.76</ele>
        <time>2012-03-24T07:05:32Z</time>
      </trkpt>
      <trkpt lat="47.061708960682154" lon="6.857247054576874">
        <ele>1327.24</ele>
        <time>2012-03-24T07:05:33Z</time>
      </trkpt>
      <trkpt lat="47.061684988439083" lon="6.857224339619279">
        <ele>1325.8</ele>
        <time>2012-03-24T07:05:34Z</time>
      </trkpt>
      <trkpt lat="47.061667218804359" lon="6.857188045978546">
        <ele>1327.24</ele>
        <time>2012-03-24T07:05:35Z</time>
      </trkpt>
      <trkpt lat="47.061646683141589" lon="6.857157871127129">
        <ele>1327.24</ele>
        <time>2012-03-24T07:05:36Z</time>
      </trkpt>
      <trkpt lat="47.061628326773643" lon="6.857128785923123">
        <ele>1327.24</ele>
        <time>2012-03-24T07:05:37Z</time>
      </trkpt>
      <trkpt lat="47.061612904071808" lon="6.857092659920454">
        <ele>1327.72</ele>
        <time>2012-03-24T07:05:38Z</time>
      </trkpt>
      <trkpt lat="47.061577616259456" lon="6.857024012133479">
        <ele>1327.24</ele>
        <time>2012-03-24T07:05:40Z</time>
      </trkpt>
      <trkpt lat="47.061563283205032" lon="6.856981432065368">
        <ele>1328.2</ele>
        <time>2012-03-24T07:05:41Z</time>
      </trkpt>
      <trkpt lat="47.061543418094516" lon="6.856947988271713">
        <ele>1328.2</ele>
        <time>2012-03-24T07:05:42Z</time>
      </trkpt>
      <trkpt lat="47.061525983735919" lon="6.856908844783902">
        <ele>1327.24</ele>
        <time>2012-03-24T07:05:43Z</time>
      </trkpt>
      <trkpt lat="47.061507878825068" lon="6.856866348534823">
        <ele>1327.72</ele>
        <time>2012-03-24T07:05:44Z</time>
      </trkpt>
      <trkpt lat="47.061488684266806" lon="6.856829216703773">
        <ele>1328.2</ele>
        <time>2012-03-24T07:05:45Z</time>
      </trkpt>
      <trkpt lat="47.061474770307541" lon="6.856786049902439">
        <ele>1328.2</ele>
        <time>2012-03-24T07:05:46Z</time>
      </trkpt>
      <trkpt lat="47.061460521072149" lon="6.856745146214962">
        <ele>1329.1600000000001</ele>
        <time>2012-03-24T07:05:47Z</time>
      </trkpt>
      <trkpt lat="47.061443505808711" lon="6.8567069247365">
        <ele>1328.2</ele>
        <time>2012-03-24T07:05:48Z</time>
      </trkpt>
      <trkpt lat="47.061429508030415" lon="6.856660572811961">
        <ele>1328.2</ele>
        <time>2012-03-24T07:05:49Z</time>
      </trkpt>
      <trkpt lat="47.061412744224072" lon="6.856619920581579">
        <ele>1328.6800000000001</ele>
        <time>2012-03-24T07:05:50Z</time>
      </trkpt>
      <trkpt lat="47.061394723132253" lon="6.856578011065722">
        <ele>1328.2</ele>
        <time>2012-03-24T07:05:51Z</time>
      </trkpt>
      <trkpt lat="47.061377540230751" lon="6.856531575322151">
        <ele>1327.72</ele>
        <time>2012-03-24T07:05:52Z</time>
      </trkpt>
      <trkpt lat="47.061358178034425" lon="6.856488240882754">
        <ele>1327.72</ele>
        <time>2012-03-24T07:05:53Z</time>
      </trkpt>
      <trkpt lat="47.061342503875494" lon="6.856440380215645">
        <ele>1329.1600000000001</ele>
        <time>2012-03-24T07:05:54Z</time>
      </trkpt>
      <trkpt lat="47.061326829716563" lon="6.856393190100789">
        <ele>1328.2</ele>
        <time>2012-03-24T07:05:55Z</time>
      </trkpt>
      <trkpt lat="47.061309479176998" lon="6.856348346918821">
        <ele>1328.2</ele>
        <time>2012-03-24T07:05:56Z</time>
      </trkpt>
      <trkpt lat="47.061294978484511" lon="6.856297804042697">
        <ele>1329.1600000000001</ele>
        <time>2012-03-24T07:05:57Z</time>
      </trkpt>
      <trkpt lat="47.061254996806383" lon="6.856201328337193">
        <ele>1328.6800000000001</ele>
        <time>2012-03-24T07:05:59Z</time>
      </trkpt>
      <trkpt lat="47.061202945187688" lon="6.856044000014663">
        <ele>1328.6800000000001</ele>
        <time>2012-03-24T07:06:02Z</time>
      </trkpt>
      <trkpt lat="47.061187941581011" lon="6.85599111020565">
        <ele>1329.1600000000001</ele>
        <time>2012-03-24T07:06:03Z</time>
      </trkpt>
      <trkpt lat="47.061171932145953" lon="6.855939980596304">
        <ele>1328.2</ele>
        <time>2012-03-24T07:06:04Z</time>
      </trkpt>
      <trkpt lat="47.061141086742282" lon="6.855837050825357">
        <ele>1329.1600000000001</ele>
        <time>2012-03-24T07:06:06Z</time>
      </trkpt>
      <trkpt lat="47.061122227460146" lon="6.855789525434375">
        <ele>1327.24</ele>
        <time>2012-03-24T07:06:07Z</time>
      </trkpt>
      <trkpt lat="47.061111833900213" lon="6.855742838233709">
        <ele>1329.6400000000001</ele>
        <time>2012-03-24T07:06:08Z</time>
      </trkpt>
      <trkpt lat="47.061098841950297" lon="6.855698665603995">
        <ele>1328.6800000000001</ele>
        <time>2012-03-24T07:06:09Z</time>
      </trkpt>
      <trkpt lat="47.061085347086191" lon="6.855647955089808">
        <ele>1328.6800000000001</ele>
        <time>2012-03-24T07:06:10Z</time>
      </trkpt>
      <trkpt lat="47.061070343479514" lon="6.855603866279125">
        <ele>1328.6800000000001</ele>
        <time>2012-03-24T07:06:11Z</time>
      </trkpt>
      <trkpt lat="47.061049388721585" lon="6.85556011274457">
        <ele>1329.1600000000001</ele>
        <time>2012-03-24T07:06:12Z</time>
      </trkpt>
      <trkpt lat="47.061029188334942" lon="6.855515772476792">
        <ele>1328.6800000000001</ele>
        <time>2012-03-24T07:06:13Z</time>
      </trkpt>
      <trkpt lat="47.061006473377347" lon="6.85547512024641">
        <ele>1329.1600000000001</ele>
        <time>2012-03-24T07:06:14Z</time>
      </trkpt>
      <trkpt lat="47.060985434800386" lon="6.855427930131555">
        <ele>1328.6800000000001</ele>
        <time>2012-03-24T07:06:15Z</time>
      </trkpt>
      <trkpt lat="47.060962887480855" lon="6.855382081121206">
        <ele>1328.6800000000001</ele>
        <time>2012-03-24T07:06:16Z</time>
      </trkpt>
      <trkpt lat="47.060937071219087" lon="6.855341345071793">
        <ele>1329.6400000000001</ele>
        <time>2012-03-24T07:06:17Z</time>
      </trkpt>
      <trkpt lat="47.060911590233445" lon="6.855295579880476">
        <ele>1329.6400000000001</ele>
        <time>2012-03-24T07:06:18Z</time>
      </trkpt>
      <trkpt lat="47.060882421210408" lon="6.855257023125887">
        <ele>1328.6800000000001</ele>
        <time>2012-03-24T07:06:19Z</time>
      </trkpt>
      <trkpt lat="47.060851324349642" lon="6.855218382552266">
        <ele>1329.6400000000001</ele>
        <time>2012-03-24T07:06:20Z</time>
      </trkpt>
      <trkpt lat="47.060759458690882" lon="6.855093073099852">
        <ele>1329.1600000000001</ele>
        <time>2012-03-24T07:06:23Z</time>
      </trkpt>
      <trkpt lat="47.060729032382369" lon="6.855050576850772">
        <ele>1329.6400000000001</ele>
        <time>2012-03-24T07:06:24Z</time>
      </trkpt>
      <trkpt lat="47.060696259140968" lon="6.8550094217062">
        <ele>1329.6400000000001</ele>
        <time>2012-03-24T07:06:25Z</time>
      </trkpt>
      <trkpt lat="47.06066558137536" lon="6.854965500533581">
        <ele>1329.1600000000001</ele>
        <time>2012-03-24T07:06:26Z</time>
      </trkpt>
      <trkpt lat="47.060634652152658" lon="6.854923088103533">
        <ele>1330.1199999999999</ele>
        <time>2012-03-24T07:06:27Z</time>
      </trkpt>
      <trkpt lat="47.060602968558669" lon="6.854885453358293">
        <ele>1329.6400000000001</ele>
        <time>2012-03-24T07:06:28Z</time>
      </trkpt>
      <trkpt lat="47.060572123154998" lon="6.854843543842435">
        <ele>1330.1199999999999</ele>
        <time>2012-03-24T07:06:29Z</time>
      </trkpt>
      <trkpt lat="47.060512192547321" lon="6.854758048430085">
        <ele>1330.5999999999999</ele>
        <time>2012-03-24T07:06:31Z</time>
      </trkpt>
      <trkpt lat="47.060484113171697" lon="6.854714043438435">
        <ele>1329.6400000000001</ele>
        <time>2012-03-24T07:06:32Z</time>
      </trkpt>
      <trkpt lat="47.060454608872533" lon="6.85467473231256">
        <ele>1329.6400000000001</ele>
        <time>2012-03-24T07:06:33Z</time>
      </trkpt>
      <trkpt lat="47.060428373515606" lon="6.854628883302212">
        <ele>1330.5999999999999</ele>
        <time>2012-03-24T07:06:34Z</time>
      </trkpt>
      <trkpt lat="47.060399372130632" lon="6.854586806148291">
        <ele>1329.6400000000001</ele>
        <time>2012-03-24T07:06:35Z</time>
      </trkpt>
      <trkpt lat="47.060370706021786" lon="6.85454917140305">
        <ele>1329.1600000000001</ele>
        <time>2012-03-24T07:06:36Z</time>
      </trkpt>
      <trkpt lat="47.060344219207764" lon="6.854505920782685">
        <ele>1331.0799999999999</ele>
        <time>2012-03-24T07:06:37Z</time>
      </trkpt>
      <trkpt lat="47.060284623876214" lon="6.854429980739951">
        <ele>1329.6400000000001</ele>
        <time>2012-03-24T07:06:39Z</time>
      </trkpt>
      <trkpt lat="47.060210024937987" lon="6.854308107867837">
        <ele>1329.6400000000001</ele>
        <time>2012-03-24T07:06:42Z</time>
      </trkpt>
      <trkpt lat="47.060188483446836" lon="6.854266449809074">
        <ele>1329.6400000000001</ele>
        <time>2012-03-24T07:06:43Z</time>
      </trkpt>
      <trkpt lat="47.060167863965034" lon="6.854223366826773">
        <ele>1331.5599999999999</ele>
        <time>2012-03-24T07:06:44Z</time>
      </trkpt>
      <trkpt lat="47.060150764882565" lon="6.854171231389046">
        <ele>1330.5999999999999</ele>
        <time>2012-03-24T07:06:45Z</time>
      </trkpt>
      <trkpt lat="47.060129893943667" lon="6.854125801473856">
        <ele>1332.04</ele>
        <time>2012-03-24T07:06:46Z</time>
      </trkpt>
      <trkpt lat="47.060109442099929" lon="6.854085568338633">
        <ele>1331.5599999999999</ele>
        <time>2012-03-24T07:06:47Z</time>
      </trkpt>
      <trkpt lat="47.060090247541666" lon="6.854044245555997">
        <ele>1330.1199999999999</ele>
        <time>2012-03-24T07:06:48Z</time>
      </trkpt>
      <trkpt lat="47.060048673301935" lon="6.853968473151326">
        <ele>1332.04</ele>
        <time>2012-03-24T07:06:50Z</time>
      </trkpt>
      <trkpt lat="47.060031741857529" lon="6.853926563635469">
        <ele>1330.5999999999999</ele>
        <time>2012-03-24T07:06:51Z</time>
      </trkpt>
      <trkpt lat="47.060013385489583" lon="6.853888761252165">
        <ele>1330.5999999999999</ele>
        <time>2012-03-24T07:06:52Z</time>
      </trkpt>
      <trkpt lat="47.05999662168324" lon="6.853840900585055">
        <ele>1331.5599999999999</ele>
        <time>2012-03-24T07:06:53Z</time>
      </trkpt>
      <trkpt lat="47.059978852048516" lon="6.853794129565358">
        <ele>1331.5599999999999</ele>
        <time>2012-03-24T07:06:54Z</time>
      </trkpt>
      <trkpt lat="47.059958400204778" lon="6.853750459849834">
        <ele>1331.5599999999999</ele>
        <time>2012-03-24T07:06:55Z</time>
      </trkpt>
      <trkpt lat="47.059942642226815" lon="6.853700503706932">
        <ele>1332.04</ele>
        <time>2012-03-24T07:06:56Z</time>
      </trkpt>
      <trkpt lat="47.059927387163043" lon="6.853653732687235">
        <ele>1332.04</ele>
        <time>2012-03-24T07:06:57Z</time>
      </trkpt>
      <trkpt lat="47.059912048280239" lon="6.853608721867204">
        <ele>1331.5599999999999</ele>
        <time>2012-03-24T07:06:58Z</time>
      </trkpt>
      <trkpt lat="47.059898637235165" lon="6.853561447933316">
        <ele>1332.52</ele>
        <time>2012-03-24T07:06:59Z</time>
      </trkpt>
      <trkpt lat="47.059866199269891" lon="6.853482574224472">
        <ele>1331.5599999999999</ele>
        <time>2012-03-24T07:07:01Z</time>
      </trkpt>
      <trkpt lat="47.059855638071895" lon="6.853438401594758">
        <ele>1332.04</ele>
        <time>2012-03-24T07:07:02Z</time>
      </trkpt>
      <trkpt lat="47.059839963912964" lon="6.85339942574501">
        <ele>1333.01</ele>
        <time>2012-03-24T07:07:03Z</time>
      </trkpt>
      <trkpt lat="47.059827893972397" lon="6.853354414924979">
        <ele>1332.52</ele>
        <time>2012-03-24T07:07:04Z</time>
      </trkpt>
      <trkpt lat="47.059820517897606" lon="6.853306470438838">
        <ele>1332.52</ele>
        <time>2012-03-24T07:07:05Z</time>
      </trkpt>
      <trkpt lat="47.059805849567056" lon="6.853263722732663">
        <ele>1333.01</ele>
        <time>2012-03-24T07:07:06Z</time>
      </trkpt>
      <trkpt lat="47.05979285761714" lon="6.853214101865888">
        <ele>1333.97</ele>
        <time>2012-03-24T07:07:07Z</time>
      </trkpt>
      <trkpt lat="47.059783050790429" lon="6.853164229542017">
        <ele>1333.49</ele>
        <time>2012-03-24T07:07:08Z</time>
      </trkpt>
      <trkpt lat="47.059768969193101" lon="6.853119637817144">
        <ele>1333.01</ele>
        <time>2012-03-24T07:07:09Z</time>
      </trkpt>
      <trkpt lat="47.059760168194771" lon="6.853070268407464">
        <ele>1333.97</ele>
        <time>2012-03-24T07:07:10Z</time>
      </trkpt>
      <trkpt lat="47.059749774634838" lon="6.853023497387767">
        <ele>1333.97</ele>
        <time>2012-03-24T07:07:11Z</time>
      </trkpt>
      <trkpt lat="47.059736615046859" lon="6.85298066586256">
        <ele>1333.49</ele>
        <time>2012-03-24T07:07:12Z</time>
      </trkpt>
      <trkpt lat="47.05972789786756" lon="6.85293179936707">
        <ele>1334.9300000000001</ele>
        <time>2012-03-24T07:07:13Z</time>
      </trkpt>
      <trkpt lat="47.059718929231167" lon="6.852886704728007">
        <ele>1334.45</ele>
        <time>2012-03-24T07:07:14Z</time>
      </trkpt>
      <trkpt lat="47.059709206223488" lon="6.852841777727008">
        <ele>1333.97</ele>
        <time>2012-03-24T07:07:15Z</time>
      </trkpt>
      <trkpt lat="47.059702752158046" lon="6.852792659774423">
        <ele>1334.9300000000001</ele>
        <time>2012-03-24T07:07:16Z</time>
      </trkpt>
      <trkpt lat="47.059692358598113" lon="6.852746056392789">
        <ele>1334.9300000000001</ele>
        <time>2012-03-24T07:07:17Z</time>
      </trkpt>
      <trkpt lat="47.059684479609132" lon="6.85269970446825">
        <ele>1334.9300000000001</ele>
        <time>2012-03-24T07:07:18Z</time>
      </trkpt>
      <trkpt lat="47.059679869562387" lon="6.852648239582777">
        <ele>1334.9300000000001</ele>
        <time>2012-03-24T07:07:19Z</time>
      </trkpt>
      <trkpt lat="47.05966779962182" lon="6.852603983134031">
        <ele>1335.4100000000001</ele>
        <time>2012-03-24T07:07:20Z</time>
      </trkpt>
      <trkpt lat="47.059659333899617" lon="6.85255947522819">
        <ele>1334.9300000000001</ele>
        <time>2012-03-24T07:07:21Z</time>
      </trkpt>
      <trkpt lat="47.05965262837708" lon="6.852513374760747">
        <ele>1335.8900000000001</ele>
        <time>2012-03-24T07:07:22Z</time>
      </trkpt>
      <trkpt lat="47.059640139341354" lon="6.852474231272936">
        <ele>1335.8900000000001</ele>
        <time>2012-03-24T07:07:23Z</time>
      </trkpt>
      <trkpt lat="47.05963016487658" lon="6.852430645376444">
        <ele>1335.8900000000001</ele>
        <time>2012-03-24T07:07:24Z</time>
      </trkpt>
      <trkpt lat="47.059625135734677" lon="6.852383203804493">
        <ele>1335.8900000000001</ele>
        <time>2012-03-24T07:07:25Z</time>
      </trkpt>
      <trkpt lat="47.059613401070237" lon="6.852343725040555">
        <ele>1336.8499999999999</ele>
        <time>2012-03-24T07:07:26Z</time>
      </trkpt>
      <trkpt lat="47.059601666405797" lon="6.852297792211175">
        <ele>1335.8900000000001</ele>
        <time>2012-03-24T07:07:27Z</time>
      </trkpt>
      <trkpt lat="47.059594038873911" lon="6.85224917717278">
        <ele>1336.3699999999999</ele>
        <time>2012-03-24T07:07:28Z</time>
      </trkpt>
      <trkpt lat="47.059581214562058" lon="6.852205926552415">
        <ele>1336.8499999999999</ele>
        <time>2012-03-24T07:07:29Z</time>
      </trkpt>
      <trkpt lat="47.059568474069238" lon="6.85216267593205">
        <ele>1336.8499999999999</ele>
        <time>2012-03-24T07:07:30Z</time>
      </trkpt>
      <trkpt lat="47.059558080509305" lon="6.85211917385459">
        <ele>1336.8499999999999</ele>
        <time>2012-03-24T07:07:31Z</time>
      </trkpt>
      <trkpt lat="47.059542238712311" lon="6.85207910835743">
        <ele>1336.3699999999999</ele>
        <time>2012-03-24T07:07:32Z</time>
      </trkpt>
      <trkpt lat="47.05953000113368" lon="6.852035019546747">
        <ele>1337.8099999999999</ele>
        <time>2012-03-24T07:07:33Z</time>
      </trkpt>
      <trkpt lat="47.059519691392779" lon="6.85199361294508">
        <ele>1337.3299999999999</ele>
        <time>2012-03-24T07:07:34Z</time>
      </trkpt>
      <trkpt lat="47.059504771605134" lon="6.851955894380808">
        <ele>1336.8499999999999</ele>
        <time>2012-03-24T07:07:35Z</time>
      </trkpt>
      <trkpt lat="47.059493204578757" lon="6.851911302655935">
        <ele>1338.29</ele>
        <time>2012-03-24T07:07:36Z</time>
      </trkpt>
      <trkpt lat="47.059481637552381" lon="6.851872159168124">
        <ele>1337.3299999999999</ele>
        <time>2012-03-24T07:07:37Z</time>
      </trkpt>
      <trkpt lat="47.059465544298291" lon="6.85183284804225">
        <ele>1336.8499999999999</ele>
        <time>2012-03-24T07:07:38Z</time>
      </trkpt>
      <trkpt lat="47.059454312548041" lon="6.851791441440582">
        <ele>1338.77</ele>
        <time>2012-03-24T07:07:39Z</time>
      </trkpt>
      <trkpt lat="47.059441488236189" lon="6.851755566895008">
        <ele>1338.29</ele>
        <time>2012-03-24T07:07:40Z</time>
      </trkpt>
      <trkpt lat="47.059423383325338" lon="6.8517214525491">
        <ele>1337.8099999999999</ele>
        <time>2012-03-24T07:07:41Z</time>
      </trkpt>
      <trkpt lat="47.059408547356725" lon="6.851680716499686">
        <ele>1339.25</ele>
        <time>2012-03-24T07:07:42Z</time>
      </trkpt>
      <trkpt lat="47.059389604255557" lon="6.851648865267634">
        <ele>1338.77</ele>
        <time>2012-03-24T07:07:43Z</time>
      </trkpt>
      <trkpt lat="47.059370493516326" lon="6.851620450615883">
        <ele>1338.29</ele>
        <time>2012-03-24T07:07:44Z</time>
      </trkpt>
      <trkpt lat="47.059355741366744" lon="6.851583570241928">
        <ele>1339.73</ele>
        <time>2012-03-24T07:07:45Z</time>
      </trkpt>
      <trkpt lat="47.059336882084608" lon="6.851553898304701">
        <ele>1339.73</ele>
        <time>2012-03-24T07:07:46Z</time>
      </trkpt>
      <trkpt lat="47.059316765516996" lon="6.851524142548442">
        <ele>1338.77</ele>
        <time>2012-03-24T07:07:47Z</time>
      </trkpt>
      <trkpt lat="47.059277286753058" lon="6.851455327123404">
        <ele>1340.22</ele>
        <time>2012-03-24T07:07:49Z</time>
      </trkpt>
      <trkpt lat="47.059256918728352" lon="6.851425236091018">
        <ele>1339.73</ele>
        <time>2012-03-24T07:07:50Z</time>
      </trkpt>
      <trkpt lat="47.059240322560072" lon="6.851387768983841">
        <ele>1339.73</ele>
        <time>2012-03-24T07:07:51Z</time>
      </trkpt>
      <trkpt lat="47.059221463277936" lon="6.851357342675328">
        <ele>1340.7</ele>
        <time>2012-03-24T07:07:52Z</time>
      </trkpt>
      <trkpt lat="47.059202017262578" lon="6.851326916366816">
        <ele>1340.22</ele>
        <time>2012-03-24T07:07:53Z</time>
      </trkpt>
      <trkpt lat="47.059182990342379" lon="6.851288778707385">
        <ele>1339.73</ele>
        <time>2012-03-24T07:07:54Z</time>
      </trkpt>
      <trkpt lat="47.059160191565752" lon="6.851256676018238">
        <ele>1341.6600000000001</ele>
        <time>2012-03-24T07:07:55Z</time>
      </trkpt>
      <trkpt lat="47.059138230979443" lon="6.851227004081011">
        <ele>1341.1800000000001</ele>
        <time>2012-03-24T07:07:56Z</time>
      </trkpt>
      <trkpt lat="47.059120628982782" lon="6.851190207526088">
        <ele>1339.73</ele>
        <time>2012-03-24T07:07:57Z</time>
      </trkpt>
      <trkpt lat="47.059101182967424" lon="6.851160116493702">
        <ele>1339.73</ele>
        <time>2012-03-24T07:07:58Z</time>
      </trkpt>
      <trkpt lat="47.059077462181449" lon="6.851128349080682">
        <ele>1341.1800000000001</ele>
        <time>2012-03-24T07:07:59Z</time>
      </trkpt>
      <trkpt lat="47.05905550159514" lon="6.851090295240283">
        <ele>1341.6600000000001</ele>
        <time>2012-03-24T07:08:00Z</time>
      </trkpt>
      <trkpt lat="47.059032870456576" lon="6.85105886310339">
        <ele>1340.7</ele>
        <time>2012-03-24T07:08:01Z</time>
      </trkpt>
      <trkpt lat="47.059011496603489" lon="6.851026592776179">
        <ele>1341.6600000000001</ele>
        <time>2012-03-24T07:08:02Z</time>
      </trkpt>
      <trkpt lat="47.058989787474275" lon="6.850988371297717">
        <ele>1341.1800000000001</ele>
        <time>2012-03-24T07:08:03Z</time>
      </trkpt>
      <trkpt lat="47.058966737240553" lon="6.850959453731775">
        <ele>1340.7</ele>
        <time>2012-03-24T07:08:04Z</time>
      </trkpt>
      <trkpt lat="47.058925749734044" lon="6.85089030303061">
        <ele>1341.1800000000001</ele>
        <time>2012-03-24T07:08:06Z</time>
      </trkpt>
      <trkpt lat="47.058903789147735" lon="6.850859457626939">
        <ele>1342.1400000000001</ele>
        <time>2012-03-24T07:08:07Z</time>
      </trkpt>
      <trkpt lat="47.058882582932711" lon="6.850820817053318">
        <ele>1341.6600000000001</ele>
        <time>2012-03-24T07:08:08Z</time>
      </trkpt>
      <trkpt lat="47.058859867975116" lon="6.850788211449981">
        <ele>1341.6600000000001</ele>
        <time>2012-03-24T07:08:09Z</time>
      </trkpt>
      <trkpt lat="47.058836985379457" lon="6.850754432380199">
        <ele>1341.6600000000001</ele>
        <time>2012-03-24T07:08:10Z</time>
      </trkpt>
      <trkpt lat="47.058814102783799" lon="6.850720485672355">
        <ele>1342.1400000000001</ele>
        <time>2012-03-24T07:08:11Z</time>
      </trkpt>
      <trkpt lat="47.058787029236555" lon="6.850687880069017">
        <ele>1342.1400000000001</ele>
        <time>2012-03-24T07:08:12Z</time>
      </trkpt>
      <trkpt lat="47.058763140812516" lon="6.850652676075697">
        <ele>1341.1800000000001</ele>
        <time>2012-03-24T07:08:13Z</time>
      </trkpt>
      <trkpt lat="47.058739000931382" lon="6.850614286959171">
        <ele>1342.1400000000001</ele>
        <time>2012-03-24T07:08:14Z</time>
      </trkpt>
      <trkpt lat="47.058712262660265" lon="6.850584698840976">
        <ele>1342.6199999999999</ele>
        <time>2012-03-24T07:08:15Z</time>
      </trkpt>
      <trkpt lat="47.058685859665275" lon="6.850550416857004">
        <ele>1341.1800000000001</ele>
        <time>2012-03-24T07:08:16Z</time>
      </trkpt>
      <trkpt lat="47.058656439185143" lon="6.85051940381527">
        <ele>1343.0999999999999</ele>
        <time>2012-03-24T07:08:17Z</time>
      </trkpt>
      <trkpt lat="47.05862550996244" lon="6.850492497906089">
        <ele>1342.6199999999999</ele>
        <time>2012-03-24T07:08:18Z</time>
      </trkpt>
      <trkpt lat="47.058597849681973" lon="6.850460479035974">
        <ele>1342.1400000000001</ele>
        <time>2012-03-24T07:08:19Z</time>
      </trkpt>
      <trkpt lat="47.058568596839905" lon="6.850429633632302">
        <ele>1343.5799999999999</ele>
        <time>2012-03-24T07:08:20Z</time>
      </trkpt>
      <trkpt lat="47.058534901589155" lon="6.850404404103756">
        <ele>1343.0999999999999</ele>
        <time>2012-03-24T07:08:21Z</time>
      </trkpt>
      <trkpt lat="47.058499027043581" lon="6.850376408547163">
        <ele>1342.6199999999999</ele>
        <time>2012-03-24T07:08:22Z</time>
      </trkpt>
      <trkpt lat="47.05846281722188" lon="6.850350927561522">
        <ele>1342.6199999999999</ele>
        <time>2012-03-24T07:08:23Z</time>
      </trkpt>
      <trkpt lat="47.058426104485989" lon="6.850328799337149">
        <ele>1343.0999999999999</ele>
        <time>2012-03-24T07:08:24Z</time>
      </trkpt>
      <trkpt lat="47.058390146121383" lon="6.850303066894412">
        <ele>1343.0999999999999</ele>
        <time>2012-03-24T07:08:25Z</time>
      </trkpt>
      <trkpt lat="47.058353768661618" lon="6.850283453240991">
        <ele>1342.6199999999999</ele>
        <time>2012-03-24T07:08:26Z</time>
      </trkpt>
      <trkpt lat="47.058318816125393" lon="6.850263420492411">
        <ele>1342.1400000000001</ele>
        <time>2012-03-24T07:08:27Z</time>
      </trkpt>
      <trkpt lat="47.058283863589168" lon="6.850236346945167">
        <ele>1343.0999999999999</ele>
        <time>2012-03-24T07:08:28Z</time>
      </trkpt>
      <trkpt lat="47.058248659595847" lon="6.850216649472714">
        <ele>1342.6199999999999</ele>
        <time>2012-03-24T07:08:29Z</time>
      </trkpt>
      <trkpt lat="47.05821555107832" lon="6.850197454914451">
        <ele>1342.1400000000001</ele>
        <time>2012-03-24T07:08:30Z</time>
      </trkpt>
      <trkpt lat="47.05818235874176" lon="6.850168956443667">
        <ele>1343.5799999999999</ele>
        <time>2012-03-24T07:08:31Z</time>
      </trkpt>
      <trkpt lat="47.058150926604867" lon="6.850149845704436">
        <ele>1343.0999999999999</ele>
        <time>2012-03-24T07:08:32Z</time>
      </trkpt>
      <trkpt lat="47.058119159191847" lon="6.850130232051015">
        <ele>1343.0999999999999</ele>
        <time>2012-03-24T07:08:33Z</time>
      </trkpt>
      <trkpt lat="47.058088900521398" lon="6.850107433274388">
        <ele>1343.5799999999999</ele>
        <time>2012-03-24T07:08:34Z</time>
      </trkpt>
      <trkpt lat="47.058060402050614" lon="6.85009385459125">
        <ele>1343.0999999999999</ele>
        <time>2012-03-24T07:08:35Z</time>
      </trkpt>
      <trkpt lat="47.058032574132085" lon="6.850077090784907">
        <ele>1344.0599999999999</ele>
        <time>2012-03-24T07:08:36Z</time>
      </trkpt>
      <trkpt lat="47.058006087318063" lon="6.850059488788247">
        <ele>1344.54</ele>
        <time>2012-03-24T07:08:37Z</time>
      </trkpt>
      <trkpt lat="47.057977337390184" lon="6.850048759952188">
        <ele>1344.0599999999999</ele>
        <time>2012-03-24T07:08:38Z</time>
      </trkpt>
      <trkpt lat="47.057948252186179" lon="6.850031241774559">
        <ele>1343.0999999999999</ele>
        <time>2012-03-24T07:08:39Z</time>
      </trkpt>
      <trkpt lat="47.057922687381506" lon="6.85001271776855">
        <ele>1345.02</ele>
        <time>2012-03-24T07:08:40Z</time>
      </trkpt>
      <trkpt lat="47.057893685996532" lon="6.849997378885746">
        <ele>1344.54</ele>
        <time>2012-03-24T07:08:41Z</time>
      </trkpt>
      <trkpt lat="47.057864433154464" lon="6.849976172670722">
        <ele>1344.54</ele>
        <time>2012-03-24T07:08:42Z</time>
      </trkpt>
      <trkpt lat="47.057837108150125" lon="6.849957900121808">
        <ele>1345.02</ele>
        <time>2012-03-24T07:08:43Z</time>
      </trkpt>
      <trkpt lat="47.057807268574834" lon="6.849942812696099">
        <ele>1345.5</ele>
        <time>2012-03-24T07:08:44Z</time>
      </trkpt>
      <trkpt lat="47.057699309661984" lon="6.84986955486238">
        <ele>1345.5</ele>
        <time>2012-03-24T07:08:48Z</time>
      </trkpt>
      <trkpt lat="47.057675253599882" lon="6.849851533770561">
        <ele>1345.5</ele>
        <time>2012-03-24T07:08:49Z</time>
      </trkpt>
      <trkpt lat="47.057650191709399" lon="6.849845079705119">
        <ele>1345.5</ele>
        <time>2012-03-24T07:08:50Z</time>
      </trkpt>
      <trkpt lat="47.057624207809567" lon="6.849833512678742">
        <ele>1346.46</ele>
        <time>2012-03-24T07:08:51Z</time>
      </trkpt>
      <trkpt lat="47.05759939737618" lon="6.849810881540179">
        <ele>1346.9400000000001</ele>
        <time>2012-03-24T07:08:52Z</time>
      </trkpt>
      <trkpt lat="47.057576347142458" lon="6.849798811599612">
        <ele>1345.98</ele>
        <time>2012-03-24T07:08:53Z</time>
      </trkpt>
      <trkpt lat="47.057554889470339" lon="6.849787496030331">
        <ele>1347.4300000000001</ele>
        <time>2012-03-24T07:08:54Z</time>
      </trkpt>
      <trkpt lat="47.057531336322427" lon="6.849765200167894">
        <ele>1347.4300000000001</ele>
        <time>2012-03-24T07:08:55Z</time>
      </trkpt>
      <trkpt lat="47.057506861165166" lon="6.849746759980917">
        <ele>1346.9400000000001</ele>
        <time>2012-03-24T07:08:56Z</time>
      </trkpt>
      <trkpt lat="47.057482050731778" lon="6.849732343107462">
        <ele>1346.9400000000001</ele>
        <time>2012-03-24T07:08:57Z</time>
      </trkpt>
      <trkpt lat="47.0574567373842" lon="6.849707784131169">
        <ele>1347.9100000000001</ele>
        <time>2012-03-24T07:08:58Z</time>
      </trkpt>
      <trkpt lat="47.057431675493717" lon="6.849694708362222">
        <ele>1347.9100000000001</ele>
        <time>2012-03-24T07:08:59Z</time>
      </trkpt>
      <trkpt lat="47.057403931394219" lon="6.849687080830336">
        <ele>1347.4300000000001</ele>
        <time>2012-03-24T07:09:00Z</time>
      </trkpt>
      <trkpt lat="47.057377528399229" lon="6.849666712805629">
        <ele>1348.3900000000001</ele>
        <time>2012-03-24T07:09:01Z</time>
      </trkpt>
      <trkpt lat="47.057353556156158" lon="6.849649026989937">
        <ele>1348.3900000000001</ele>
        <time>2012-03-24T07:09:02Z</time>
      </trkpt>
      <trkpt lat="47.057329248636961" lon="6.849634861573577">
        <ele>1348.3900000000001</ele>
        <time>2012-03-24T07:09:03Z</time>
      </trkpt>
      <trkpt lat="47.057306366041303" lon="6.849612817168236">
        <ele>1347.9100000000001</ele>
        <time>2012-03-24T07:09:04Z</time>
      </trkpt>
      <trkpt lat="47.057285159826279" lon="6.849591694772244">
        <ele>1349.3499999999999</ele>
        <time>2012-03-24T07:09:05Z</time>
      </trkpt>
      <trkpt lat="47.057259511202574" lon="6.849585408344865">
        <ele>1349.3499999999999</ele>
        <time>2012-03-24T07:09:06Z</time>
      </trkpt>
      <trkpt lat="47.057233611121774" lon="6.849571578204632">
        <ele>1348.8699999999999</ele>
        <time>2012-03-24T07:09:07Z</time>
      </trkpt>
      <trkpt lat="47.057210979983211" lon="6.849561436101794">
        <ele>1348.8699999999999</ele>
        <time>2012-03-24T07:09:08Z</time>
      </trkpt>
      <trkpt lat="47.057187259197235" lon="6.849560514092445">
        <ele>1350.3099999999999</ele>
        <time>2012-03-24T07:09:09Z</time>
      </trkpt>
      <trkpt lat="47.057164292782545" lon="6.849550204351544">
        <ele>1349.8299999999999</ele>
        <time>2012-03-24T07:09:10Z</time>
      </trkpt>
      <trkpt lat="47.057143840938807" lon="6.849532099440694">
        <ele>1349.8299999999999</ele>
        <time>2012-03-24T07:09:11Z</time>
      </trkpt>
      <trkpt lat="47.057110061869025" lon="6.849476359784603">
        <ele>1349.8299999999999</ele>
        <time>2012-03-24T07:09:13Z</time>
      </trkpt>
      <trkpt lat="47.057082736864686" lon="6.849401844665408">
        <ele>1349.8299999999999</ele>
        <time>2012-03-24T07:09:15Z</time>
      </trkpt>
      <trkpt lat="47.057060189545155" lon="6.849374771118164">
        <ele>1350.3099999999999</ele>
        <time>2012-03-24T07:09:16Z</time>
      </trkpt>
      <trkpt lat="47.05704040825367" lon="6.849342165514827">
        <ele>1350.79</ele>
        <time>2012-03-24T07:09:17Z</time>
      </trkpt>
      <trkpt lat="47.05702037550509" lon="6.84931299649179">
        <ele>1350.79</ele>
        <time>2012-03-24T07:09:18Z</time>
      </trkpt>
      <trkpt lat="47.05699791200459" lon="6.849286090582609">
        <ele>1349.8299999999999</ele>
        <time>2012-03-24T07:09:19Z</time>
      </trkpt>
      <trkpt lat="47.056978717446327" lon="6.849250216037035">
        <ele>1351.27</ele>
        <time>2012-03-24T07:09:20Z</time>
      </trkpt>
      <trkpt lat="47.056958600878716" lon="6.849218364804983">
        <ele>1351.27</ele>
        <time>2012-03-24T07:09:21Z</time>
      </trkpt>
      <trkpt lat="47.056934293359518" lon="6.849193554371595">
        <ele>1350.79</ele>
        <time>2012-03-24T07:09:22Z</time>
      </trkpt>
      <trkpt lat="47.056915601715446" lon="6.84916203841567">
        <ele>1351.27</ele>
        <time>2012-03-24T07:09:23Z</time>
      </trkpt>
      <trkpt lat="47.056896155700088" lon="6.849133791401982">
        <ele>1351.75</ele>
        <time>2012-03-24T07:09:24Z</time>
      </trkpt>
      <trkpt lat="47.056870255619287" lon="6.849110070616007">
        <ele>1350.3099999999999</ele>
        <time>2012-03-24T07:09:25Z</time>
      </trkpt>
      <trkpt lat="47.056846870109439" lon="6.849078722298145">
        <ele>1351.27</ele>
        <time>2012-03-24T07:09:26Z</time>
      </trkpt>
      <trkpt lat="47.056823233142495" lon="6.849050056189299">
        <ele>1351.75</ele>
        <time>2012-03-24T07:09:27Z</time>
      </trkpt>
      <trkpt lat="47.056798422709107" lon="6.849024491384625">
        <ele>1351.75</ele>
        <time>2012-03-24T07:09:28Z</time>
      </trkpt>
      <trkpt lat="47.056778389960527" lon="6.848992640152574">
        <ele>1351.27</ele>
        <time>2012-03-24T07:09:29Z</time>
      </trkpt>
      <trkpt lat="47.056756429374218" lon="6.848964644595981">
        <ele>1352.71</ele>
        <time>2012-03-24T07:09:30Z</time>
      </trkpt>
      <trkpt lat="47.056731786578894" lon="6.848941007629037">
        <ele>1352.23</ele>
        <time>2012-03-24T07:09:31Z</time>
      </trkpt>
      <trkpt lat="47.056707981973886" lon="6.848908066749573">
        <ele>1351.75</ele>
        <time>2012-03-24T07:09:32Z</time>
      </trkpt>
      <trkpt lat="47.05668325535953" lon="6.848882837221026">
        <ele>1352.71</ele>
        <time>2012-03-24T07:09:33Z</time>
      </trkpt>
      <trkpt lat="47.056658696383238" lon="6.848861547186971">
        <ele>1352.71</ele>
        <time>2012-03-24T07:09:34Z</time>
      </trkpt>
      <trkpt lat="47.056635143235326" lon="6.848832964897156">
        <ele>1352.71</ele>
        <time>2012-03-24T07:09:35Z</time>
      </trkpt>
      <trkpt lat="47.056611506268382" lon="6.848812680691481">
        <ele>1352.71</ele>
        <time>2012-03-24T07:09:36Z</time>
      </trkpt>
      <trkpt lat="47.056588288396597" lon="6.848795162513852">
        <ele>1353.1900000000001</ele>
        <time>2012-03-24T07:09:37Z</time>
      </trkpt>
      <trkpt lat="47.056566579267383" lon="6.848760461434722">
        <ele>1353.1900000000001</ele>
        <time>2012-03-24T07:09:38Z</time>
      </trkpt>
      <trkpt lat="47.056541685014963" lon="6.848728694021702">
        <ele>1353.6700000000001</ele>
        <time>2012-03-24T07:09:39Z</time>
      </trkpt>
      <trkpt lat="47.056513102725148" lon="6.84870564378798">
        <ele>1352.71</ele>
        <time>2012-03-24T07:09:40Z</time>
      </trkpt>
      <trkpt lat="47.056297017261386" lon="6.848434153944254">
        <ele>1353.1900000000001</ele>
        <time>2012-03-24T07:09:48Z</time>
      </trkpt>
      <trkpt lat="47.056265585124493" lon="6.848396100103855">
        <ele>1352.71</ele>
        <time>2012-03-24T07:09:49Z</time>
      </trkpt>
      <trkpt lat="47.05623566173017" lon="6.848351927474141">
        <ele>1352.71</ele>
        <time>2012-03-24T07:09:50Z</time>
      </trkpt>
      <trkpt lat="47.05620389431715" lon="6.848308928310871">
        <ele>1353.6700000000001</ele>
        <time>2012-03-24T07:09:51Z</time>
      </trkpt>
      <trkpt lat="47.056174473837018" lon="6.848266432061791">
        <ele>1352.23</ele>
        <time>2012-03-24T07:09:52Z</time>
      </trkpt>
      <trkpt lat="47.056147735565901" lon="6.848220666870475">
        <ele>1352.71</ele>
        <time>2012-03-24T07:09:53Z</time>
      </trkpt>
      <trkpt lat="47.056118063628674" lon="6.848177583888173">
        <ele>1353.1900000000001</ele>
        <time>2012-03-24T07:09:54Z</time>
      </trkpt>
      <trkpt lat="47.056088475510478" lon="6.848126789554954">
        <ele>1352.23</ele>
        <time>2012-03-24T07:09:55Z</time>
      </trkpt>
      <trkpt lat="47.056029299274087" lon="6.848026039078832">
        <ele>1352.23</ele>
        <time>2012-03-24T07:09:57Z</time>
      </trkpt>
      <trkpt lat="47.05599669367075" lon="6.847976837307215">
        <ele>1352.23</ele>
        <time>2012-03-24T07:09:58Z</time>
      </trkpt>
      <trkpt lat="47.055965596809983" lon="6.847924031317234">
        <ele>1352.71</ele>
        <time>2012-03-24T07:09:59Z</time>
      </trkpt>
      <trkpt lat="47.055871719494462" lon="6.847771648317576">
        <ele>1351.27</ele>
        <time>2012-03-24T07:10:02Z</time>
      </trkpt>
      <trkpt lat="47.055710954591632" lon="6.847515497356653">
        <ele>1350.79</ele>
        <time>2012-03-24T07:10:07Z</time>
      </trkpt>
      <trkpt lat="47.055534431710839" lon="6.847209893167019">
        <ele>1349.3499999999999</ele>
        <time>2012-03-24T07:10:12Z</time>
      </trkpt>
      <trkpt lat="47.055458156391978" lon="6.847087014466524">
        <ele>1349.3499999999999</ele>
        <time>2012-03-24T07:10:14Z</time>
      </trkpt>
      <trkpt lat="47.055039899423718" lon="6.846334235742688">
        <ele>1345.98</ele>
        <time>2012-03-24T07:10:25Z</time>
      </trkpt>
      <trkpt lat="47.054831441491842" lon="6.845949171110988">
        <ele>1344.54</ele>
        <time>2012-03-24T07:10:30Z</time>
      </trkpt>
      <trkpt lat="47.054409747943282" lon="6.845153225585818">
        <ele>1340.7</ele>
        <time>2012-03-24T07:10:40Z</time>
      </trkpt>
      <trkpt lat="47.053762078285217" lon="6.84399283491075">
        <ele>1337.3299999999999</ele>
        <time>2012-03-24T07:10:54Z</time>
      </trkpt>
      <trkpt lat="47.053060596808791" lon="6.842794306576252">
        <ele>1334.9300000000001</ele>
        <time>2012-03-24T07:11:11Z</time>
      </trkpt>
      <trkpt lat="47.052976107224822" lon="6.842644941061735">
        <ele>1333.97</ele>
        <time>2012-03-24T07:11:13Z</time>
      </trkpt>
      <trkpt lat="47.052372861653566" lon="6.841698121279478">
        <ele>1331.0799999999999</ele>
        <time>2012-03-24T07:11:27Z</time>
      </trkpt>
      <trkpt lat="47.051745979115367" lon="6.840693382546306">
        <ele>1328.2</ele>
        <time>2012-03-24T07:11:42Z</time>
      </trkpt>
      <trkpt lat="47.051231749355793" lon="6.840265737846494">
        <ele>1327.72</ele>
        <time>2012-03-24T07:11:53Z</time>
      </trkpt>
      <trkpt lat="47.05119151622057" lon="6.840245621278882">
        <ele>1326.76</ele>
        <time>2012-03-24T07:11:54Z</time>
      </trkpt>
      <trkpt lat="47.051154132932425" lon="6.840219553560019">
        <ele>1326.76</ele>
        <time>2012-03-24T07:11:55Z</time>
      </trkpt>
      <trkpt lat="47.051120940595865" lon="6.840202454477549">
        <ele>1327.72</ele>
        <time>2012-03-24T07:11:56Z</time>
      </trkpt>
      <trkpt lat="47.051088586449623" lon="6.840189881622791">
        <ele>1328.2</ele>
        <time>2012-03-24T07:11:57Z</time>
      </trkpt>
      <trkpt lat="47.051058663055301" lon="6.84016976505518">
        <ele>1327.72</ele>
        <time>2012-03-24T07:11:58Z</time>
      </trkpt>
      <trkpt lat="47.051035361364484" lon="6.840145625174046">
        <ele>1328.6800000000001</ele>
        <time>2012-03-24T07:11:59Z</time>
      </trkpt>
      <trkpt lat="47.051016502082348" lon="6.840132717043161">
        <ele>1329.1600000000001</ele>
        <time>2012-03-24T07:12:00Z</time>
      </trkpt>
      <trkpt lat="47.050996636971831" lon="6.840121485292912">
        <ele>1329.1600000000001</ele>
        <time>2012-03-24T07:12:01Z</time>
      </trkpt>
      <trkpt lat="47.050977274775505" lon="6.840098518878222">
        <ele>1329.1600000000001</ele>
        <time>2012-03-24T07:12:02Z</time>
      </trkpt>
      <trkpt lat="47.050961181521416" lon="6.840074881911278">
        <ele>1329.6400000000001</ele>
        <time>2012-03-24T07:12:03Z</time>
      </trkpt>
      <trkpt lat="47.05094282515347" lon="6.840062141418457">
        <ele>1330.1199999999999</ele>
        <time>2012-03-24T07:12:04Z</time>
      </trkpt>
      <trkpt lat="47.050923043861985" lon="6.840050993487239">
        <ele>1329.6400000000001</ele>
        <time>2012-03-24T07:12:05Z</time>
      </trkpt>
      <trkpt lat="47.05090912990272" lon="6.840026099234819">
        <ele>1329.6400000000001</ele>
        <time>2012-03-24T07:12:06Z</time>
      </trkpt>
      <trkpt lat="47.050892869010568" lon="6.840004557743669">
        <ele>1330.1199999999999</ele>
        <time>2012-03-24T07:12:07Z</time>
      </trkpt>
      <trkpt lat="47.050870824605227" lon="6.839998019859195">
        <ele>1331.0799999999999</ele>
        <time>2012-03-24T07:12:08Z</time>
      </trkpt>
      <trkpt lat="47.050850875675678" lon="6.839991984888911">
        <ele>1330.5999999999999</ele>
        <time>2012-03-24T07:12:09Z</time>
      </trkpt>
      <trkpt lat="47.050837716087699" lon="6.839972119778395">
        <ele>1331.5599999999999</ele>
        <time>2012-03-24T07:12:10Z</time>
      </trkpt>
      <trkpt lat="47.050825310871005" lon="6.839955188333988">
        <ele>1331.5599999999999</ele>
        <time>2012-03-24T07:12:11Z</time>
      </trkpt>
      <trkpt lat="47.050812570378184" lon="6.839952589944005">
        <ele>1332.52</ele>
        <time>2012-03-24T07:12:12Z</time>
      </trkpt>
      <trkpt lat="47.050801841542125" lon="6.839946135878563">
        <ele>1332.04</ele>
        <time>2012-03-24T07:12:13Z</time>
      </trkpt>
      <trkpt lat="47.050796309486032" lon="6.839929623529315">
        <ele>1332.52</ele>
        <time>2012-03-24T07:12:14Z</time>
      </trkpt>
      <trkpt lat="47.050785245373845" lon="6.839905399829149">
        <ele>1333.01</ele>
        <time>2012-03-24T07:12:16Z</time>
      </trkpt>
      <trkpt lat="47.050773510709405" lon="6.839902047067881">
        <ele>1333.97</ele>
        <time>2012-03-24T07:12:17Z</time>
      </trkpt>
      <trkpt lat="47.050755992531776" lon="6.839875224977732">
        <ele>1333.97</ele>
        <time>2012-03-24T07:12:20Z</time>
      </trkpt>
      <trkpt lat="47.05074836499989" lon="6.839856198057532">
        <ele>1333.97</ele>
        <time>2012-03-24T07:12:21Z</time>
      </trkpt>
      <trkpt lat="47.050741827115417" lon="6.839832309633493">
        <ele>1334.9300000000001</ele>
        <time>2012-03-24T07:12:22Z</time>
      </trkpt>
      <trkpt lat="47.05073612742126" lon="6.839814875274897">
        <ele>1334.45</ele>
        <time>2012-03-24T07:12:23Z</time>
      </trkpt>
      <trkpt lat="47.050729338079691" lon="6.839802972972393">
        <ele>1334.9300000000001</ele>
        <time>2012-03-24T07:12:24Z</time>
      </trkpt>
      <trkpt lat="47.050708718597889" lon="6.83978863991797">
        <ele>1335.8900000000001</ele>
        <time>2012-03-24T07:12:27Z</time>
      </trkpt>
      <trkpt lat="47.050695810467005" lon="6.839785370975733">
        <ele>1336.8499999999999</ele>
        <time>2012-03-24T07:12:28Z</time>
      </trkpt>
      <trkpt lat="47.050684746354818" lon="6.839777743443847">
        <ele>1336.3699999999999</ele>
        <time>2012-03-24T07:12:29Z</time>
      </trkpt>
      <trkpt lat="47.050676448270679" lon="6.839752681553364">
        <ele>1336.3699999999999</ele>
        <time>2012-03-24T07:12:31Z</time>
      </trkpt>
      <trkpt lat="47.050662450492382" lon="6.839726949110627">
        <ele>1338.77</ele>
        <time>2012-03-24T07:12:33Z</time>
      </trkpt>
      <trkpt lat="47.050651051104069" lon="6.839720830321312">
        <ele>1337.8099999999999</ele>
        <time>2012-03-24T07:12:34Z</time>
      </trkpt>
      <trkpt lat="47.050650380551815" lon="6.839705910533667">
        <ele>1336.8499999999999</ele>
        <time>2012-03-24T07:12:35Z</time>
      </trkpt>
      <trkpt lat="47.050643088296056" lon="6.839686129242182">
        <ele>1338.29</ele>
        <time>2012-03-24T07:12:37Z</time>
      </trkpt>
      <trkpt lat="47.050629509612918" lon="6.839674143120647">
        <ele>1339.73</ele>
        <time>2012-03-24T07:12:38Z</time>
      </trkpt>
      <trkpt lat="47.050621630623937" lon="6.839648578315973">
        <ele>1339.73</ele>
        <time>2012-03-24T07:12:39Z</time>
      </trkpt>
      <trkpt lat="47.050614925101399" lon="6.839623181149364">
        <ele>1339.25</ele>
        <time>2012-03-24T07:12:40Z</time>
      </trkpt>
      <trkpt lat="47.050601849332452" lon="6.83961077593267">
        <ele>1339.25</ele>
        <time>2012-03-24T07:12:41Z</time>
      </trkpt>
      <trkpt lat="47.050586510449648" lon="6.839597029611468">
        <ele>1340.22</ele>
        <time>2012-03-24T07:12:42Z</time>
      </trkpt>
      <trkpt lat="47.050558598712087" lon="6.839558724313974">
        <ele>1341.1800000000001</ele>
        <time>2012-03-24T07:12:46Z</time>
      </trkpt>
      <trkpt lat="47.050546025857329" lon="6.839546235278249">
        <ele>1340.22</ele>
        <time>2012-03-24T07:12:47Z</time>
      </trkpt>
      <trkpt lat="47.050530016422272" lon="6.839534919708967">
        <ele>1340.7</ele>
        <time>2012-03-24T07:12:48Z</time>
      </trkpt>
      <trkpt lat="47.050517275929451" lon="6.839509857818484">
        <ele>1341.1800000000001</ele>
        <time>2012-03-24T07:12:49Z</time>
      </trkpt>
      <trkpt lat="47.050504703074694" lon="6.839492255821824">
        <ele>1340.7</ele>
        <time>2012-03-24T07:12:50Z</time>
      </trkpt>
      <trkpt lat="47.050490705296397" lon="6.839481359347701">
        <ele>1341.1800000000001</ele>
        <time>2012-03-24T07:12:51Z</time>
      </trkpt>
      <trkpt lat="47.050479473546147" lon="6.839457470923662">
        <ele>1340.7</ele>
        <time>2012-03-24T07:12:52Z</time>
      </trkpt>
      <trkpt lat="47.050465224310756" lon="6.839436767622829">
        <ele>1342.1400000000001</ele>
        <time>2012-03-24T07:12:53Z</time>
      </trkpt>
      <trkpt lat="47.050451897084713" lon="6.8394192494452">
        <ele>1342.1400000000001</ele>
        <time>2012-03-24T07:12:54Z</time>
      </trkpt>
      <trkpt lat="47.050437983125448" lon="6.839394355192781">
        <ele>1341.1800000000001</ele>
        <time>2012-03-24T07:12:55Z</time>
      </trkpt>
      <trkpt lat="47.050419794395566" lon="6.839377675205469">
        <ele>1342.6199999999999</ele>
        <time>2012-03-24T07:12:56Z</time>
      </trkpt>
      <trkpt lat="47.050398588180542" lon="6.83936208486557">
        <ele>1342.1400000000001</ele>
        <time>2012-03-24T07:12:57Z</time>
      </trkpt>
      <trkpt lat="47.050380231812596" lon="6.839341716840863">
        <ele>1342.1400000000001</ele>
        <time>2012-03-24T07:12:58Z</time>
      </trkpt>
      <trkpt lat="47.050364222377539" lon="6.839320091530681">
        <ele>1342.6199999999999</ele>
        <time>2012-03-24T07:12:59Z</time>
      </trkpt>
      <trkpt lat="47.050343854352832" lon="6.839306596666575">
        <ele>1343.0999999999999</ele>
        <time>2012-03-24T07:13:00Z</time>
      </trkpt>
      <trkpt lat="47.050322312861681" lon="6.83928488753736">
        <ele>1343.0999999999999</ele>
        <time>2012-03-24T07:13:01Z</time>
      </trkpt>
      <trkpt lat="47.050303956493735" lon="6.839258400723338">
        <ele>1343.0999999999999</ele>
        <time>2012-03-24T07:13:02Z</time>
      </trkpt>
      <trkpt lat="47.050284510478377" lon="6.83923895470798">
        <ele>1343.5799999999999</ele>
        <time>2012-03-24T07:13:03Z</time>
      </trkpt>
      <trkpt lat="47.050267076119781" lon="6.839218083769083">
        <ele>1342.6199999999999</ele>
        <time>2012-03-24T07:13:04Z</time>
      </trkpt>
      <trkpt lat="47.050251653417945" lon="6.839192183688283">
        <ele>1343.5799999999999</ele>
        <time>2012-03-24T07:13:05Z</time>
      </trkpt>
      <trkpt lat="47.050232291221619" lon="6.839178940281272">
        <ele>1344.0599999999999</ele>
        <time>2012-03-24T07:13:06Z</time>
      </trkpt>
      <trkpt lat="47.050208486616611" lon="6.839167540892959">
        <ele>1343.5799999999999</ele>
        <time>2012-03-24T07:13:07Z</time>
      </trkpt>
      <trkpt lat="47.050042608752847" lon="6.839094115421176">
        <ele>1344.54</ele>
        <time>2012-03-24T07:13:14Z</time>
      </trkpt>
      <trkpt lat="47.049909085035324" lon="6.839108364656568">
        <ele>1345.02</ele>
        <time>2012-03-24T07:13:19Z</time>
      </trkpt>
      <trkpt lat="47.049870612099767" lon="6.839151447638869">
        <ele>1346.9400000000001</ele>
        <time>2012-03-24T07:13:21Z</time>
      </trkpt>
      <trkpt lat="47.049824260175228" lon="6.839277846738696">
        <ele>1346.9400000000001</ele>
        <time>2012-03-24T07:13:25Z</time>
      </trkpt>
      <trkpt lat="47.049836330115795" lon="6.839397959411144">
        <ele>1346.9400000000001</ele>
        <time>2012-03-24T07:13:28Z</time>
      </trkpt>
      <trkpt lat="47.049872959032655" lon="6.839518072083592">
        <ele>1347.9100000000001</ele>
        <time>2012-03-24T07:13:32Z</time>
      </trkpt>
      <trkpt lat="47.050019558519125" lon="6.839752597734332">
        <ele>1348.3900000000001</ele>
        <time>2012-03-24T07:13:41Z</time>
      </trkpt>
      <trkpt lat="47.050139252096415" lon="6.839936748147011">
        <ele>1350.3099999999999</ele>
        <time>2012-03-24T07:13:47Z</time>
      </trkpt>
      <trkpt lat="47.050205050036311" lon="6.84006666764617">
        <ele>1352.23</ele>
        <time>2012-03-24T07:13:51Z</time>
      </trkpt>
      <trkpt lat="47.050269674509764" lon="6.84024796821177">
        <ele>1352.71</ele>
        <time>2012-03-24T07:13:56Z</time>
      </trkpt>
      <trkpt lat="47.050373442471027" lon="6.840569581836462">
        <ele>1351.27</ele>
        <time>2012-03-24T07:14:04Z</time>
      </trkpt>
      <trkpt lat="47.050396241247654" lon="6.840658765286207">
        <ele>1352.71</ele>
        <time>2012-03-24T07:14:06Z</time>
      </trkpt>
      <trkpt lat="47.050495399162173" lon="6.8410390522331">
        <ele>1352.23</ele>
        <time>2012-03-24T07:14:14Z</time>
      </trkpt>
      <trkpt lat="47.050526747480035" lon="6.841136952862144">
        <ele>1352.23</ele>
        <time>2012-03-24T07:14:16Z</time>
      </trkpt>
      <trkpt lat="47.050542086362839" lon="6.841189088299871">
        <ele>1353.1900000000001</ele>
        <time>2012-03-24T07:14:17Z</time>
      </trkpt>
      <trkpt lat="47.050561029464006" lon="6.841233847662807">
        <ele>1352.23</ele>
        <time>2012-03-24T07:14:18Z</time>
      </trkpt>
      <trkpt lat="47.050579050555825" lon="6.841284725815058">
        <ele>1351.27</ele>
        <time>2012-03-24T07:14:19Z</time>
      </trkpt>
      <trkpt lat="47.050596317276359" lon="6.84134054929018">
        <ele>1352.71</ele>
        <time>2012-03-24T07:14:20Z</time>
      </trkpt>
      <trkpt lat="47.050619618967175" lon="6.841386649757624">
        <ele>1351.75</ele>
        <time>2012-03-24T07:14:21Z</time>
      </trkpt>
      <trkpt lat="47.050646524876356" lon="6.841432163491845">
        <ele>1352.23</ele>
        <time>2012-03-24T07:14:22Z</time>
      </trkpt>
      <trkpt lat="47.050672508776188" lon="6.841480191797018">
        <ele>1352.23</ele>
        <time>2012-03-24T07:14:23Z</time>
      </trkpt>
      <trkpt lat="47.050727242603898" lon="6.841566693037748">
        <ele>1351.75</ele>
        <time>2012-03-24T07:14:25Z</time>
      </trkpt>
      <trkpt lat="47.050751550123096" lon="6.841613547876477">
        <ele>1351.75</ele>
        <time>2012-03-24T07:14:26Z</time>
      </trkpt>
      <trkpt lat="47.050775354728103" lon="6.841652020812035">
        <ele>1351.27</ele>
        <time>2012-03-24T07:14:27Z</time>
      </trkpt>
      <trkpt lat="47.050800919532776" lon="6.841685548424721">
        <ele>1350.79</ele>
        <time>2012-03-24T07:14:28Z</time>
      </trkpt>
      <trkpt lat="47.050822041928768" lon="6.841726787388325">
        <ele>1351.27</ele>
        <time>2012-03-24T07:14:29Z</time>
      </trkpt>
      <trkpt lat="47.05084316432476" lon="6.841769367456436">
        <ele>1351.27</ele>
        <time>2012-03-24T07:14:30Z</time>
      </trkpt>
      <trkpt lat="47.050870321691036" lon="6.841805996373296">
        <ele>1351.75</ele>
        <time>2012-03-24T07:14:31Z</time>
      </trkpt>
      <trkpt lat="47.050960259512067" lon="6.841958463191986">
        <ele>1351.27</ele>
        <time>2012-03-24T07:14:35Z</time>
      </trkpt>
      <trkpt lat="47.050978532060981" lon="6.841996349394321">
        <ele>1351.27</ele>
        <time>2012-03-24T07:14:36Z</time>
      </trkpt>
      <trkpt lat="47.051001247018576" lon="6.842028871178627">
        <ele>1351.75</ele>
        <time>2012-03-24T07:14:37Z</time>
      </trkpt>
      <trkpt lat="47.051024548709393" lon="6.842056699097157">
        <ele>1351.75</ele>
        <time>2012-03-24T07:14:38Z</time>
      </trkpt>
      <trkpt lat="47.051042234525084" lon="6.84209349565208">
        <ele>1352.23</ele>
        <time>2012-03-24T07:14:39Z</time>
      </trkpt>
      <trkpt lat="47.051060423254967" lon="6.842127023264766">
        <ele>1351.75</ele>
        <time>2012-03-24T07:14:40Z</time>
      </trkpt>
      <trkpt lat="47.051081797108054" lon="6.842152336612344">
        <ele>1352.71</ele>
        <time>2012-03-24T07:14:41Z</time>
      </trkpt>
      <trkpt lat="47.051095794886351" lon="6.842185612767935">
        <ele>1352.71</ele>
        <time>2012-03-24T07:14:42Z</time>
      </trkpt>
      <trkpt lat="47.051111971959472" lon="6.842220397666097">
        <ele>1353.1900000000001</ele>
        <time>2012-03-24T07:14:43Z</time>
      </trkpt>
      <trkpt lat="47.051134519279003" lon="6.842249566689134">
        <ele>1352.71</ele>
        <time>2012-03-24T07:14:44Z</time>
      </trkpt>
      <trkpt lat="47.051154635846615" lon="6.842279490083456">
        <ele>1352.71</ele>
        <time>2012-03-24T07:14:45Z</time>
      </trkpt>
      <trkpt lat="47.051167711615562" lon="6.842317041009665">
        <ele>1353.1900000000001</ele>
        <time>2012-03-24T07:14:46Z</time>
      </trkpt>
      <trkpt lat="47.051183637231588" lon="6.84234905987978">
        <ele>1353.6700000000001</ele>
        <time>2012-03-24T07:14:47Z</time>
      </trkpt>
      <trkpt lat="47.051205513998866" lon="6.842373115941882">
        <ele>1352.71</ele>
        <time>2012-03-24T07:14:48Z</time>
      </trkpt>
      <trkpt lat="47.051223702728748" lon="6.842403374612331">
        <ele>1353.6700000000001</ele>
        <time>2012-03-24T07:14:49Z</time>
      </trkpt>
      <trkpt lat="47.051240550354123" lon="6.842434722930193">
        <ele>1354.6300000000001</ele>
        <time>2012-03-24T07:14:50Z</time>
      </trkpt>
      <trkpt lat="47.051259409636259" lon="6.84245903044939">
        <ele>1354.6300000000001</ele>
        <time>2012-03-24T07:14:51Z</time>
      </trkpt>
      <trkpt lat="47.051276424899697" lon="6.84248392470181">
        <ele>1354.1500000000001</ele>
        <time>2012-03-24T07:14:52Z</time>
      </trkpt>
      <trkpt lat="47.051287405192852" lon="6.842513848096132">
        <ele>1355.1199999999999</ele>
        <time>2012-03-24T07:14:53Z</time>
      </trkpt>
      <trkpt lat="47.051300229504704" lon="6.842542765662074">
        <ele>1355.1199999999999</ele>
        <time>2012-03-24T07:14:54Z</time>
      </trkpt>
      <trkpt lat="47.051321770995855" lon="6.842568414285779">
        <ele>1355.1199999999999</ele>
        <time>2012-03-24T07:14:55Z</time>
      </trkpt>
      <trkpt lat="47.051341133192182" lon="6.842600433155894">
        <ele>1355.5999999999999</ele>
        <time>2012-03-24T07:14:56Z</time>
      </trkpt>
      <trkpt lat="47.051356891170144" lon="6.842631278559566">
        <ele>1356.0799999999999</ele>
        <time>2012-03-24T07:14:57Z</time>
      </trkpt>
      <trkpt lat="47.051374409347773" lon="6.842653742060065">
        <ele>1356.5599999999999</ele>
        <time>2012-03-24T07:14:58Z</time>
      </trkpt>
      <trkpt lat="47.051391256973147" lon="6.8426813185215">
        <ele>1356.5599999999999</ele>
        <time>2012-03-24T07:14:59Z</time>
      </trkpt>
      <trkpt lat="47.051404332742095" lon="6.842710990458727">
        <ele>1355.5999999999999</ele>
        <time>2012-03-24T07:15:00Z</time>
      </trkpt>
      <trkpt lat="47.051420928910375" lon="6.842734292149544">
        <ele>1357.04</ele>
        <time>2012-03-24T07:15:01Z</time>
      </trkpt>
      <trkpt lat="47.051442135125399" lon="6.842757174745202">
        <ele>1357.04</ele>
        <time>2012-03-24T07:15:02Z</time>
      </trkpt>
      <trkpt lat="47.051459150388837" lon="6.842787181958556">
        <ele>1357.04</ele>
        <time>2012-03-24T07:15:03Z</time>
      </trkpt>
      <trkpt lat="47.051471387967467" lon="6.842822302132845">
        <ele>1356.5599999999999</ele>
        <time>2012-03-24T07:15:04Z</time>
      </trkpt>
      <trkpt lat="47.051488738507032" lon="6.842847112566233">
        <ele>1357.04</ele>
        <time>2012-03-24T07:15:05Z</time>
      </trkpt>
      <trkpt lat="47.051508268341422" lon="6.842872425913811">
        <ele>1356.5599999999999</ele>
        <time>2012-03-24T07:15:06Z</time>
      </trkpt>
      <trkpt lat="47.051523104310036" lon="6.84290855191648">
        <ele>1357.52</ele>
        <time>2012-03-24T07:15:07Z</time>
      </trkpt>
      <trkpt lat="47.051540957763791" lon="6.842944342643023">
        <ele>1357.04</ele>
        <time>2012-03-24T07:15:08Z</time>
      </trkpt>
      <trkpt lat="47.051564007997513" lon="6.842973260208964">
        <ele>1357.04</ele>
        <time>2012-03-24T07:15:09Z</time>
      </trkpt>
      <trkpt lat="47.051677415147424" lon="6.843162607401609">
        <ele>1358.96</ele>
        <time>2012-03-24T07:15:15Z</time>
      </trkpt>
      <trkpt lat="47.051696190610528" lon="6.843191860243678">
        <ele>1358.48</ele>
        <time>2012-03-24T07:15:16Z</time>
      </trkpt>
      <trkpt lat="47.051710356026888" lon="6.843231339007616">
        <ele>1358</ele>
        <time>2012-03-24T07:15:17Z</time>
      </trkpt>
      <trkpt lat="47.051727371290326" lon="6.843270482495427">
        <ele>1358.96</ele>
        <time>2012-03-24T07:15:18Z</time>
      </trkpt>
      <trkpt lat="47.051748326048255" lon="6.843305183574557">
        <ele>1358.48</ele>
        <time>2012-03-24T07:15:19Z</time>
      </trkpt>
      <trkpt lat="47.051764838397503" lon="6.843345165252686">
        <ele>1358</ele>
        <time>2012-03-24T07:15:20Z</time>
      </trkpt>
      <trkpt lat="47.051782105118036" lon="6.843380369246006">
        <ele>1359.4400000000001</ele>
        <time>2012-03-24T07:15:21Z</time>
      </trkpt>
      <trkpt lat="47.051801551133394" lon="6.843410208821297">
        <ele>1359.4400000000001</ele>
        <time>2012-03-24T07:15:22Z</time>
      </trkpt>
      <trkpt lat="47.051817895844579" lon="6.843448514118791">
        <ele>1358.96</ele>
        <time>2012-03-24T07:15:23Z</time>
      </trkpt>
      <trkpt lat="47.051833486184478" lon="6.843488831073046">
        <ele>1358.96</ele>
        <time>2012-03-24T07:15:24Z</time>
      </trkpt>
      <trkpt lat="47.051853016018867" lon="6.843522693961859">
        <ele>1359.9200000000001</ele>
        <time>2012-03-24T07:15:25Z</time>
      </trkpt>
      <trkpt lat="47.051870450377464" lon="6.843565776944161">
        <ele>1359.9200000000001</ele>
        <time>2012-03-24T07:15:26Z</time>
      </trkpt>
      <trkpt lat="47.05188637599349" lon="6.843611458316445">
        <ele>1359.4400000000001</ele>
        <time>2012-03-24T07:15:27Z</time>
      </trkpt>
      <trkpt lat="47.051907666027546" lon="6.843649763613939">
        <ele>1358</ele>
        <time>2012-03-24T07:15:28Z</time>
      </trkpt>
      <trkpt lat="47.051928956061602" lon="6.84368790127337">
        <ele>1359.9200000000001</ele>
        <time>2012-03-24T07:15:29Z</time>
      </trkpt>
      <trkpt lat="47.051947982981801" lon="6.843731068074703">
        <ele>1359.4400000000001</ele>
        <time>2012-03-24T07:15:30Z</time>
      </trkpt>
      <trkpt lat="47.05212333239615" lon="6.844056621193886">
        <ele>1359.9200000000001</ele>
        <time>2012-03-24T07:15:38Z</time>
      </trkpt>
      <trkpt lat="47.052146466448903" lon="6.84409492649138">
        <ele>1358.96</ele>
        <time>2012-03-24T07:15:39Z</time>
      </trkpt>
      <trkpt lat="47.052171109244227" lon="6.844128454104066">
        <ele>1359.4400000000001</ele>
        <time>2012-03-24T07:15:40Z</time>
      </trkpt>
      <trkpt lat="47.052190471440554" lon="6.844167849048972">
        <ele>1359.9200000000001</ele>
        <time>2012-03-24T07:15:41Z</time>
      </trkpt>
      <trkpt lat="47.052212096750736" lon="6.844206070527434">
        <ele>1360.4000000000001</ele>
        <time>2012-03-24T07:15:42Z</time>
      </trkpt>
      <trkpt lat="47.05223523080349" lon="6.844241106882691">
        <ele>1359.9200000000001</ele>
        <time>2012-03-24T07:15:43Z</time>
      </trkpt>
      <trkpt lat="47.052256604656577" lon="6.84428159147501">
        <ele>1359.9200000000001</ele>
        <time>2012-03-24T07:15:44Z</time>
      </trkpt>
      <trkpt lat="47.052281918004155" lon="6.844316208735108">
        <ele>1359.4400000000001</ele>
        <time>2012-03-24T07:15:45Z</time>
      </trkpt>
      <trkpt lat="47.052306225523353" lon="6.844348479062319">
        <ele>1360.8800000000001</ele>
        <time>2012-03-24T07:15:46Z</time>
      </trkpt>
      <trkpt lat="47.052328772842884" lon="6.844384353607893">
        <ele>1361.3599999999999</ele>
        <time>2012-03-24T07:15:47Z</time>
      </trkpt>
      <trkpt lat="47.052351906895638" lon="6.844414696097374">
        <ele>1360.4000000000001</ele>
        <time>2012-03-24T07:15:48Z</time>
      </trkpt>
      <trkpt lat="47.052372945472598" lon="6.844450570642948">
        <ele>1361.3599999999999</ele>
        <time>2012-03-24T07:15:49Z</time>
      </trkpt>
      <trkpt lat="47.052392223849893" lon="6.844488205388188">
        <ele>1360.8800000000001</ele>
        <time>2012-03-24T07:15:50Z</time>
      </trkpt>
      <trkpt lat="47.05241359770298" lon="6.844518128782511">
        <ele>1361.3599999999999</ele>
        <time>2012-03-24T07:15:51Z</time>
      </trkpt>
      <trkpt lat="47.052429188042879" lon="6.844553835690022">
        <ele>1361.3599999999999</ele>
        <time>2012-03-24T07:15:52Z</time>
      </trkpt>
      <trkpt lat="47.052444526925683" lon="6.844590967521071">
        <ele>1361.8399999999999</ele>
        <time>2012-03-24T07:15:53Z</time>
      </trkpt>
      <trkpt lat="47.05246732570231" lon="6.844621226191521">
        <ele>1360.8800000000001</ele>
        <time>2012-03-24T07:15:54Z</time>
      </trkpt>
      <trkpt lat="47.052486520260572" lon="6.844656094908714">
        <ele>1361.3599999999999</ele>
        <time>2012-03-24T07:15:55Z</time>
      </trkpt>
      <trkpt lat="47.052505295723677" lon="6.844691298902035">
        <ele>1361.8399999999999</ele>
        <time>2012-03-24T07:15:56Z</time>
      </trkpt>
      <trkpt lat="47.052526921033859" lon="6.844722731038928">
        <ele>1361.3599999999999</ele>
        <time>2012-03-24T07:15:57Z</time>
      </trkpt>
      <trkpt lat="47.05254603177309" lon="6.844760617241263">
        <ele>1360.8800000000001</ele>
        <time>2012-03-24T07:15:58Z</time>
      </trkpt>
      <trkpt lat="47.052564388141036" lon="6.844796827062964">
        <ele>1361.8399999999999</ele>
        <time>2012-03-24T07:15:59Z</time>
      </trkpt>
      <trkpt lat="47.052670922130346" lon="6.844993634149432">
        <ele>1361.3599999999999</ele>
        <time>2012-03-24T07:16:04Z</time>
      </trkpt>
      <trkpt lat="47.052690619602799" lon="6.845041075721383">
        <ele>1361.3599999999999</ele>
        <time>2012-03-24T07:16:05Z</time>
      </trkpt>
      <trkpt lat="47.05271509476006" lon="6.845086170360446">
        <ele>1360.8800000000001</ele>
        <time>2012-03-24T07:16:06Z</time>
      </trkpt>
      <trkpt lat="47.052737977355719" lon="6.845137132331729">
        <ele>1361.3599999999999</ele>
        <time>2012-03-24T07:16:07Z</time>
      </trkpt>
      <trkpt lat="47.05276245251298" lon="6.845191530883312">
        <ele>1360.8800000000001</ele>
        <time>2012-03-24T07:16:08Z</time>
      </trkpt>
      <trkpt lat="47.05279128625989" lon="6.845243750140071">
        <ele>1360.8800000000001</ele>
        <time>2012-03-24T07:16:09Z</time>
      </trkpt>
      <trkpt lat="47.052821544930339" lon="6.845302004367113">
        <ele>1361.3599999999999</ele>
        <time>2012-03-24T07:16:10Z</time>
      </trkpt>
      <trkpt lat="47.052854066714644" lon="6.845363527536392">
        <ele>1360.8800000000001</ele>
        <time>2012-03-24T07:16:11Z</time>
      </trkpt>
      <trkpt lat="47.052888767793775" lon="6.845421781763434">
        <ele>1360.4000000000001</ele>
        <time>2012-03-24T07:16:12Z</time>
      </trkpt>
      <trkpt lat="47.052923468872905" lon="6.845486238598824">
        <ele>1359.9200000000001</ele>
        <time>2012-03-24T07:16:13Z</time>
      </trkpt>
      <trkpt lat="47.052957499399781" lon="6.845552958548069">
        <ele>1359.9200000000001</ele>
        <time>2012-03-24T07:16:14Z</time>
      </trkpt>
      <trkpt lat="47.05306202173233" lon="6.845735097303987">
        <ele>1358</ele>
        <time>2012-03-24T07:16:17Z</time>
      </trkpt>
      <trkpt lat="47.053197640925646" lon="6.84596979059279">
        <ele>1358.48</ele>
        <time>2012-03-24T07:16:22Z</time>
      </trkpt>
      <trkpt lat="47.05331951379776" lon="6.846180679276586">
        <ele>1360.8800000000001</ele>
        <time>2012-03-24T07:16:28Z</time>
      </trkpt>
      <trkpt lat="47.053358908742666" lon="6.846282100304961">
        <ele>1361.3599999999999</ele>
        <time>2012-03-24T07:16:31Z</time>
      </trkpt>
      <trkpt lat="47.053532414138317" lon="6.846581418067217">
        <ele>1360.8800000000001</ele>
        <time>2012-03-24T07:16:41Z</time>
      </trkpt>
      <trkpt lat="47.053646659478545" lon="6.846779566258192">
        <ele>1363.77</ele>
        <time>2012-03-24T07:16:48Z</time>
      </trkpt>
      <trkpt lat="47.053687144070864" lon="6.846839748322964">
        <ele>1363.77</ele>
        <time>2012-03-24T07:16:50Z</time>
      </trkpt>
      <trkpt lat="47.053800551220775" lon="6.847033454105258">
        <ele>1363.29</ele>
        <time>2012-03-24T07:16:56Z</time>
      </trkpt>
      <trkpt lat="47.053875150159001" lon="6.847179969772697">
        <ele>1364.73</ele>
        <time>2012-03-24T07:17:00Z</time>
      </trkpt>
      <trkpt lat="47.054002303630114" lon="6.847432432696223">
        <ele>1363.77</ele>
        <time>2012-03-24T07:17:07Z</time>
      </trkpt>
      <trkpt lat="47.054096600040793" lon="6.847582049667835">
        <ele>1364.25</ele>
        <time>2012-03-24T07:17:11Z</time>
      </trkpt>
      <trkpt lat="47.054212270304561" lon="6.847786987200379">
        <ele>1366.6500000000001</ele>
        <time>2012-03-24T07:17:17Z</time>
      </trkpt>
      <trkpt lat="47.054315870627761" lon="6.84793065302074">
        <ele>1366.6500000000001</ele>
        <time>2012-03-24T07:17:22Z</time>
      </trkpt>
      <trkpt lat="47.054484514519572" lon="6.848189067095518">
        <ele>1367.6099999999999</ele>
        <time>2012-03-24T07:17:29Z</time>
      </trkpt>
      <trkpt lat="47.054631030187011" lon="6.848394758999348">
        <ele>1366.6500000000001</ele>
        <time>2012-03-24T07:17:36Z</time>
      </trkpt>
      <trkpt lat="47.05481082201004" lon="6.848641186952591">
        <ele>1368.0899999999999</ele>
        <time>2012-03-24T07:17:44Z</time>
      </trkpt>
      <trkpt lat="47.055007880553603" lon="6.84892700985074">
        <ele>1369.05</ele>
        <time>2012-03-24T07:17:53Z</time>
      </trkpt>
      <trkpt lat="47.055175853893161" lon="6.849157009273768">
        <ele>1369.54</ele>
        <time>2012-03-24T07:18:00Z</time>
      </trkpt>
      <trkpt lat="47.055394453927875" lon="6.849405281245709">
        <ele>1369.05</ele>
        <time>2012-03-24T07:18:08Z</time>
      </trkpt>
      <trkpt lat="47.055567624047399" lon="6.849615667015314">
        <ele>1367.1300000000001</ele>
        <time>2012-03-24T07:18:13Z</time>
      </trkpt>
      <trkpt lat="47.055787481367588" lon="6.849925294518471">
        <ele>1366.1700000000001</ele>
        <time>2012-03-24T07:18:20Z</time>
      </trkpt>
      <trkpt lat="47.055946234613657" lon="6.850159903988242">
        <ele>1365.21</ele>
        <time>2012-03-24T07:18:25Z</time>
      </trkpt>
      <trkpt lat="47.05600306391716" lon="6.850244896486402">
        <ele>1363.77</ele>
        <time>2012-03-24T07:18:27Z</time>
      </trkpt>
      <trkpt lat="47.055999962612987" lon="6.850316058844328">
        <ele>1362.8099999999999</ele>
        <time>2012-03-24T07:18:29Z</time>
      </trkpt>
      <trkpt lat="47.055842131376266" lon="6.850260654464364">
        <ele>1362.8099999999999</ele>
        <time>2012-03-24T07:18:36Z</time>
      </trkpt>
      <trkpt lat="47.055656053125858" lon="6.850181864574552">
        <ele>1364.73</ele>
        <time>2012-03-24T07:18:43Z</time>
      </trkpt>
      <trkpt lat="47.055512722581625" lon="6.850106762722135">
        <ele>1364.73</ele>
        <time>2012-03-24T07:18:48Z</time>
      </trkpt>
      <trkpt lat="47.055198485031724" lon="6.849973574280739">
        <ele>1365.21</ele>
        <time>2012-03-24T07:18:57Z</time>
      </trkpt>
      <trkpt lat="47.055038809776306" lon="6.849906519055367">
        <ele>1364.25</ele>
        <time>2012-03-24T07:19:01Z</time>
      </trkpt>
      <trkpt lat="47.054992541670799" lon="6.849889839068055">
        <ele>1365.6900000000001</ele>
        <time>2012-03-24T07:19:02Z</time>
      </trkpt>
      <trkpt lat="47.054946692660451" lon="6.849866453558207">
        <ele>1365.6900000000001</ele>
        <time>2012-03-24T07:19:03Z</time>
      </trkpt>
      <trkpt lat="47.054900927469134" lon="6.849843738600612">
        <ele>1364.73</ele>
        <time>2012-03-24T07:19:04Z</time>
      </trkpt>
      <trkpt lat="47.054855078458786" lon="6.849815240129829">
        <ele>1365.21</ele>
        <time>2012-03-24T07:19:05Z</time>
      </trkpt>
      <trkpt lat="47.054808642715216" lon="6.849788250401616">
        <ele>1365.21</ele>
        <time>2012-03-24T07:19:06Z</time>
      </trkpt>
      <trkpt lat="47.054711747914553" lon="6.849731840193272">
        <ele>1364.73</ele>
        <time>2012-03-24T07:19:08Z</time>
      </trkpt>
      <trkpt lat="47.054662629961967" lon="6.849698815494776">
        <ele>1364.73</ele>
        <time>2012-03-24T07:19:09Z</time>
      </trkpt>
      <trkpt lat="47.054612170904875" lon="6.8496750947088">
        <ele>1364.25</ele>
        <time>2012-03-24T07:19:10Z</time>
      </trkpt>
      <trkpt lat="47.054561376571655" lon="6.849648607894778">
        <ele>1364.25</ele>
        <time>2012-03-24T07:19:11Z</time>
      </trkpt>
      <trkpt lat="47.054510833695531" lon="6.849621618166566">
        <ele>1364.25</ele>
        <time>2012-03-24T07:19:12Z</time>
      </trkpt>
      <trkpt lat="47.054456686601043" lon="6.849601753056049">
        <ele>1364.25</ele>
        <time>2012-03-24T07:19:13Z</time>
      </trkpt>
      <trkpt lat="47.05440279096365" lon="6.849578367546201">
        <ele>1363.77</ele>
        <time>2012-03-24T07:19:14Z</time>
      </trkpt>
      <trkpt lat="47.054349398240447" lon="6.849545761942864">
        <ele>1363.29</ele>
        <time>2012-03-24T07:19:15Z</time>
      </trkpt>
      <trkpt lat="47.054145885631442" lon="6.849409975111485">
        <ele>1362.8099999999999</ele>
        <time>2012-03-24T07:19:19Z</time>
      </trkpt>
      <trkpt lat="47.054095678031445" lon="6.849357252940536">
        <ele>1362.3299999999999</ele>
        <time>2012-03-24T07:19:20Z</time>
      </trkpt>
      <trkpt lat="47.054048655554652" lon="6.849296735599637">
        <ele>1361.3599999999999</ele>
        <time>2012-03-24T07:19:21Z</time>
      </trkpt>
      <trkpt lat="47.05400456674397" lon="6.849230099469423">
        <ele>1361.8399999999999</ele>
        <time>2012-03-24T07:19:22Z</time>
      </trkpt>
      <trkpt lat="47.053962573409081" lon="6.849158434197307">
        <ele>1361.3599999999999</ele>
        <time>2012-03-24T07:19:23Z</time>
      </trkpt>
      <trkpt lat="47.053922759369016" lon="6.849082661792636">
        <ele>1360.8800000000001</ele>
        <time>2012-03-24T07:19:24Z</time>
      </trkpt>
      <trkpt lat="47.053883699700236" lon="6.849007224664092">
        <ele>1361.3599999999999</ele>
        <time>2012-03-24T07:19:25Z</time>
      </trkpt>
      <trkpt lat="47.053424371406436" lon="6.848183535039425">
        <ele>1357.52</ele>
        <time>2012-03-24T07:19:35Z</time>
      </trkpt>
      <trkpt lat="47.053317921236157" lon="6.84801765717566">
        <ele>1356.5599999999999</ele>
        <time>2012-03-24T07:19:37Z</time>
      </trkpt>
      <trkpt lat="47.052882397547364" lon="6.847297651693225">
        <ele>1353.6700000000001</ele>
        <time>2012-03-24T07:19:45Z</time>
      </trkpt>
      <trkpt lat="47.052362719550729" lon="6.846507908776403">
        <ele>1350.79</ele>
        <time>2012-03-24T07:19:54Z</time>
      </trkpt>
      <trkpt lat="47.051946725696325" lon="6.846057213842869">
        <ele>1347.4300000000001</ele>
        <time>2012-03-24T07:20:00Z</time>
      </trkpt>
      <trkpt lat="47.051514806225896" lon="6.845543989911676">
        <ele>1344.54</ele>
        <time>2012-03-24T07:20:06Z</time>
      </trkpt>
      <trkpt lat="47.051142230629921" lon="6.845081057399511">
        <ele>1342.1400000000001</ele>
        <time>2012-03-24T07:20:11Z</time>
      </trkpt>
      <trkpt lat="47.050835704430938" lon="6.844701692461968">
        <ele>1338.77</ele>
        <time>2012-03-24T07:20:15Z</time>
      </trkpt>
      <trkpt lat="47.050578212365508" lon="6.844435315579176">
        <ele>1335.8900000000001</ele>
        <time>2012-03-24T07:20:18Z</time>
      </trkpt>
      <trkpt lat="47.050479389727116" lon="6.844363901764154">
        <ele>1335.8900000000001</ele>
        <time>2012-03-24T07:20:19Z</time>
      </trkpt>
      <trkpt lat="47.049878994002938" lon="6.843995098024607">
        <ele>1332.52</ele>
        <time>2012-03-24T07:20:25Z</time>
      </trkpt>
      <trkpt lat="47.049265941604972" lon="6.843526717275381">
        <ele>1328.6800000000001</ele>
        <time>2012-03-24T07:20:33Z</time>
      </trkpt>
      <trkpt lat="47.048606872558594" lon="6.842795312404633">
        <ele>1325.3099999999999</ele>
        <time>2012-03-24T07:20:45Z</time>
      </trkpt>
      <trkpt lat="47.047984348610044" lon="6.84191077016294">
        <ele>1323.8699999999999</ele>
        <time>2012-03-24T07:20:58Z</time>
      </trkpt>
      <trkpt lat="47.047614539042115" lon="6.841290006414056">
        <ele>1322.4300000000001</ele>
        <time>2012-03-24T07:21:09Z</time>
      </trkpt>
      <trkpt lat="47.047554943710566" lon="6.841159584000707">
        <ele>1323.3900000000001</ele>
        <time>2012-03-24T07:21:12Z</time>
      </trkpt>
      <trkpt lat="47.047538012266159" lon="6.841108789667487">
        <ele>1324.3499999999999</ele>
        <time>2012-03-24T07:21:13Z</time>
      </trkpt>
      <trkpt lat="47.04751462675631" lon="6.8410649523139">
        <ele>1323.3900000000001</ele>
        <time>2012-03-24T07:21:14Z</time>
      </trkpt>
      <trkpt lat="47.047492079436779" lon="6.841018600389361">
        <ele>1323.3900000000001</ele>
        <time>2012-03-24T07:21:15Z</time>
      </trkpt>
      <trkpt lat="47.047475399449468" lon="6.840964369475842">
        <ele>1323.3900000000001</ele>
        <time>2012-03-24T07:21:16Z</time>
      </trkpt>
      <trkpt lat="47.047459306195378" lon="6.8409164249897">
        <ele>1323.8699999999999</ele>
        <time>2012-03-24T07:21:17Z</time>
      </trkpt>
      <trkpt lat="47.047440866008401" lon="6.840875269845128">
        <ele>1324.3499999999999</ele>
        <time>2012-03-24T07:21:18Z</time>
      </trkpt>
      <trkpt lat="47.047399207949638" lon="6.840744009241462">
        <ele>1324.3499999999999</ele>
        <time>2012-03-24T07:21:21Z</time>
      </trkpt>
      <trkpt lat="47.047382947057486" lon="6.840707464143634">
        <ele>1324.3499999999999</ele>
        <time>2012-03-24T07:21:22Z</time>
      </trkpt>
      <trkpt lat="47.047372553497553" lon="6.840662537142634">
        <ele>1324.8299999999999</ele>
        <time>2012-03-24T07:21:23Z</time>
      </trkpt>
      <trkpt lat="47.047369284555316" lon="6.840619286522269">
        <ele>1323.8699999999999</ele>
        <time>2012-03-24T07:21:24Z</time>
      </trkpt>
      <trkpt lat="47.047361237928271" lon="6.840584166347981">
        <ele>1324.3499999999999</ele>
        <time>2012-03-24T07:21:25Z</time>
      </trkpt>
      <trkpt lat="47.047351934015751" lon="6.84054309502244">
        <ele>1325.8</ele>
        <time>2012-03-24T07:21:26Z</time>
      </trkpt>
      <trkpt lat="47.047348329797387" lon="6.840492216870189">
        <ele>1324.8299999999999</ele>
        <time>2012-03-24T07:21:27Z</time>
      </trkpt>
      <trkpt lat="47.047353107482195" lon="6.840443182736635">
        <ele>1325.8</ele>
        <time>2012-03-24T07:21:28Z</time>
      </trkpt>
      <trkpt lat="47.047354867681861" lon="6.840400602668524">
        <ele>1325.3099999999999</ele>
        <time>2012-03-24T07:21:29Z</time>
      </trkpt>
      <trkpt lat="47.047353694215417" lon="6.840355340391398">
        <ele>1325.3099999999999</ele>
        <time>2012-03-24T07:21:30Z</time>
      </trkpt>
      <trkpt lat="47.047356460243464" lon="6.840304294601083">
        <ele>1325.8</ele>
        <time>2012-03-24T07:21:31Z</time>
      </trkpt>
      <trkpt lat="47.04736165702343" lon="6.840251572430134">
        <ele>1325.8</ele>
        <time>2012-03-24T07:21:32Z</time>
      </trkpt>
      <trkpt lat="47.047392586246133" lon="6.83990933932364">
        <ele>1325.8</ele>
        <time>2012-03-24T07:21:39Z</time>
      </trkpt>
      <trkpt lat="47.047403231263161" lon="6.839872626587749">
        <ele>1326.28</ele>
        <time>2012-03-24T07:21:40Z</time>
      </trkpt>
      <trkpt lat="47.047407841309905" lon="6.839839434251189">
        <ele>1326.76</ele>
        <time>2012-03-24T07:21:41Z</time>
      </trkpt>
      <trkpt lat="47.047413876280189" lon="6.83980917558074">
        <ele>1326.76</ele>
        <time>2012-03-24T07:21:42Z</time>
      </trkpt>
      <trkpt lat="47.047439608722925" lon="6.839624857529998">
        <ele>1329.6400000000001</ele>
        <time>2012-03-24T07:21:50Z</time>
      </trkpt>
      <trkpt lat="47.047389652580023" lon="6.8394192494452">
        <ele>1330.5999999999999</ele>
        <time>2012-03-24T07:21:57Z</time>
      </trkpt>
      <trkpt lat="47.047329973429441" lon="6.839327048510313">
        <ele>1332.04</ele>
        <time>2012-03-24T07:22:01Z</time>
      </trkpt>
      <trkpt lat="47.047282867133617" lon="6.839263010770083">
        <ele>1332.52</ele>
        <time>2012-03-24T07:22:04Z</time>
      </trkpt>
      <trkpt lat="47.047145823016763" lon="6.839085062965751">
        <ele>1333.97</ele>
        <time>2012-03-24T07:22:12Z</time>
      </trkpt>
      <trkpt lat="47.047107685357332" lon="6.839053127914667">
        <ele>1334.45</ele>
        <time>2012-03-24T07:22:14Z</time>
      </trkpt>
      <trkpt lat="47.046978771686554" lon="6.8388890940696">
        <ele>1336.3699999999999</ele>
        <time>2012-03-24T07:22:22Z</time>
      </trkpt>
      <trkpt lat="47.046859581023455" lon="6.838760683313012">
        <ele>1337.3299999999999</ele>
        <time>2012-03-24T07:22:29Z</time>
      </trkpt>
      <trkpt lat="47.046761848032475" lon="6.838625147938728">
        <ele>1338.29</ele>
        <time>2012-03-24T07:22:35Z</time>
      </trkpt>
      <trkpt lat="47.046606112271547" lon="6.838452313095331">
        <ele>1340.22</ele>
        <time>2012-03-24T07:22:44Z</time>
      </trkpt>
      <trkpt lat="47.046518018469214" lon="6.838340163230896">
        <ele>1341.6600000000001</ele>
        <time>2012-03-24T07:22:49Z</time>
      </trkpt>
      <trkpt lat="47.046362366527319" lon="6.838184343650937">
        <ele>1343.5799999999999</ele>
        <time>2012-03-24T07:22:57Z</time>
      </trkpt>
      <trkpt lat="47.046184586361051" lon="6.83802274055779">
        <ele>1343.5799999999999</ele>
        <time>2012-03-24T07:23:05Z</time>
      </trkpt>
      <trkpt lat="47.046092553064227" lon="6.837933640927076">
        <ele>1344.0599999999999</ele>
        <time>2012-03-24T07:23:09Z</time>
      </trkpt>
      <trkpt lat="47.045974871143699" lon="6.837820569053292">
        <ele>1345.5</ele>
        <time>2012-03-24T07:23:14Z</time>
      </trkpt>
      <trkpt lat="47.045904463157058" lon="6.837746808305383">
        <ele>1345.5</ele>
        <time>2012-03-24T07:23:17Z</time>
      </trkpt>
      <trkpt lat="47.045832797884941" lon="6.837673969566822">
        <ele>1344.54</ele>
        <time>2012-03-24T07:23:20Z</time>
      </trkpt>
      <trkpt lat="47.045677565038204" lon="6.837521167472005">
        <ele>1345.98</ele>
        <time>2012-03-24T07:23:26Z</time>
      </trkpt>
      <trkpt lat="47.045501125976443" lon="6.837314888834953">
        <ele>1348.3900000000001</ele>
        <time>2012-03-24T07:23:35Z</time>
      </trkpt>
      <trkpt lat="47.045354107394814" lon="6.837179102003574">
        <ele>1349.3499999999999</ele>
        <time>2012-03-24T07:23:43Z</time>
      </trkpt>
      <trkpt lat="47.045223014429212" lon="6.83705915696919">
        <ele>1350.79</ele>
        <time>2012-03-24T07:23:50Z</time>
      </trkpt>
      <trkpt lat="47.045167777687311" lon="6.837013391777873">
        <ele>1352.23</ele>
        <time>2012-03-24T07:23:53Z</time>
      </trkpt>
      <trkpt lat="47.045012377202511" lon="6.836902163922787">
        <ele>1353.6700000000001</ele>
        <time>2012-03-24T07:24:01Z</time>
      </trkpt>
      <trkpt lat="47.044763853773475" lon="6.836757576093078">
        <ele>1354.1500000000001</ele>
        <time>2012-03-24T07:24:11Z</time>
      </trkpt>
      <trkpt lat="47.044538883492351" lon="6.836707200855017">
        <ele>1355.1199999999999</ele>
        <time>2012-03-24T07:24:18Z</time>
      </trkpt>
      <trkpt lat="47.044500494375825" lon="6.836705692112446">
        <ele>1354.6300000000001</ele>
        <time>2012-03-24T07:24:19Z</time>
      </trkpt>
      <trkpt lat="47.044461434707046" lon="6.836697896942496">
        <ele>1354.6300000000001</ele>
        <time>2012-03-24T07:24:20Z</time>
      </trkpt>
      <trkpt lat="47.04442254267633" lon="6.836696723476052">
        <ele>1354.6300000000001</ele>
        <time>2012-03-24T07:24:21Z</time>
      </trkpt>
      <trkpt lat="47.044383566826582" lon="6.83669907040894">
        <ele>1354.1500000000001</ele>
        <time>2012-03-24T07:24:22Z</time>
      </trkpt>
      <trkpt lat="47.04434241168201" lon="6.836692364886403">
        <ele>1354.6300000000001</ele>
        <time>2012-03-24T07:24:23Z</time>
      </trkpt>
      <trkpt lat="47.044304609298706" lon="6.836693035438657">
        <ele>1355.1199999999999</ele>
        <time>2012-03-24T07:24:24Z</time>
      </trkpt>
      <trkpt lat="47.044268315657973" lon="6.836697645485401">
        <ele>1354.6300000000001</ele>
        <time>2012-03-24T07:24:25Z</time>
      </trkpt>
      <trkpt lat="47.04423151910305" lon="6.836688760668039">
        <ele>1354.6300000000001</ele>
        <time>2012-03-24T07:24:26Z</time>
      </trkpt>
      <trkpt lat="47.044197823852301" lon="6.836687754839659">
        <ele>1355.1199999999999</ele>
        <time>2012-03-24T07:24:27Z</time>
      </trkpt>
      <trkpt lat="47.0441650506109" lon="6.836690939962864">
        <ele>1355.1199999999999</ele>
        <time>2012-03-24T07:24:28Z</time>
      </trkpt>
      <trkpt lat="47.044130433350801" lon="6.836685743182898">
        <ele>1355.1199999999999</ele>
        <time>2012-03-24T07:24:29Z</time>
      </trkpt>
      <trkpt lat="47.044069245457649" lon="6.836682306602597">
        <ele>1355.1199999999999</ele>
        <time>2012-03-24T07:24:31Z</time>
      </trkpt>
      <trkpt lat="47.044007051736116" lon="6.836666464805603">
        <ele>1355.5999999999999</ele>
        <time>2012-03-24T07:24:33Z</time>
      </trkpt>
      <trkpt lat="47.043977882713079" lon="6.83666436932981">
        <ele>1356.0799999999999</ele>
        <time>2012-03-24T07:24:34Z</time>
      </trkpt>
      <trkpt lat="47.043944858014584" lon="6.836650623008609">
        <ele>1355.5999999999999</ele>
        <time>2012-03-24T07:24:35Z</time>
      </trkpt>
      <trkpt lat="47.043915940448642" lon="6.836643414571881">
        <ele>1356.5599999999999</ele>
        <time>2012-03-24T07:24:36Z</time>
      </trkpt>
      <trkpt lat="47.043889202177525" lon="6.836638385429978">
        <ele>1357.04</ele>
        <time>2012-03-24T07:24:37Z</time>
      </trkpt>
      <trkpt lat="47.043862966820598" lon="6.836626818403602">
        <ele>1357.04</ele>
        <time>2012-03-24T07:24:38Z</time>
      </trkpt>
      <trkpt lat="47.043838407844305" lon="6.836608964949846">
        <ele>1356.5599999999999</ele>
        <time>2012-03-24T07:24:39Z</time>
      </trkpt>
      <trkpt lat="47.043816028162837" lon="6.836599744856358">
        <ele>1356.5599999999999</ele>
        <time>2012-03-24T07:24:40Z</time>
      </trkpt>
      <trkpt lat="47.043793564662337" lon="6.836595386266708">
        <ele>1357.52</ele>
        <time>2012-03-24T07:24:41Z</time>
      </trkpt>
      <trkpt lat="47.043769843876362" lon="6.836580298841">
        <ele>1358</ele>
        <time>2012-03-24T07:24:42Z</time>
      </trkpt>
      <trkpt lat="47.043748386204243" lon="6.836563870310783">
        <ele>1358.48</ele>
        <time>2012-03-24T07:24:43Z</time>
      </trkpt>
      <trkpt lat="47.043728353455663" lon="6.836558422073722">
        <ele>1357.52</ele>
        <time>2012-03-24T07:24:44Z</time>
      </trkpt>
      <trkpt lat="47.043704465031624" lon="6.836549369618297">
        <ele>1358.48</ele>
        <time>2012-03-24T07:24:45Z</time>
      </trkpt>
      <trkpt lat="47.043682588264346" lon="6.836527492851019">
        <ele>1359.4400000000001</ele>
        <time>2012-03-24T07:24:46Z</time>
      </trkpt>
      <trkpt lat="47.043661130592227" lon="6.836513578891754">
        <ele>1358.48</ele>
        <time>2012-03-24T07:24:47Z</time>
      </trkpt>
      <trkpt lat="47.043637661263347" lon="6.836513830348849">
        <ele>1359.9200000000001</ele>
        <time>2012-03-24T07:24:48Z</time>
      </trkpt>
      <trkpt lat="47.043614694848657" lon="6.836508382111788">
        <ele>1358.96</ele>
        <time>2012-03-24T07:24:49Z</time>
      </trkpt>
      <trkpt lat="47.043594075366855" lon="6.836490109562874">
        <ele>1358.48</ele>
        <time>2012-03-24T07:24:50Z</time>
      </trkpt>
      <trkpt lat="47.043575802817941" lon="6.836477452889085">
        <ele>1359.9200000000001</ele>
        <time>2012-03-24T07:24:51Z</time>
      </trkpt>
      <trkpt lat="47.043554596602917" lon="6.836475692689419">
        <ele>1358.96</ele>
        <time>2012-03-24T07:24:52Z</time>
      </trkpt>
      <trkpt lat="47.043531378731132" lon="6.836462114006281">
        <ele>1359.4400000000001</ele>
        <time>2012-03-24T07:24:53Z</time>
      </trkpt>
      <trkpt lat="47.043509501963854" lon="6.836444260552526">
        <ele>1359.9200000000001</ele>
        <time>2012-03-24T07:24:54Z</time>
      </trkpt>
      <trkpt lat="47.043485445901752" lon="6.836440488696098">
        <ele>1360.4000000000001</ele>
        <time>2012-03-24T07:24:55Z</time>
      </trkpt>
      <trkpt lat="47.043462814763188" lon="6.836432442069054">
        <ele>1359.4400000000001</ele>
        <time>2012-03-24T07:24:56Z</time>
      </trkpt>
      <trkpt lat="47.043443452566862" lon="6.836416684091091">
        <ele>1360.4000000000001</ele>
        <time>2012-03-24T07:24:57Z</time>
      </trkpt>
      <trkpt lat="47.043422497808933" lon="6.836412409320474">
        <ele>1360.4000000000001</ele>
        <time>2012-03-24T07:24:58Z</time>
      </trkpt>
      <trkpt lat="47.043400118127465" lon="6.836411571130157">
        <ele>1360.8800000000001</ele>
        <time>2012-03-24T07:24:59Z</time>
      </trkpt>
      <trkpt lat="47.043378241360188" lon="6.836400255560875">
        <ele>1360.8800000000001</ele>
        <time>2012-03-24T07:25:00Z</time>
      </trkpt>
      <trkpt lat="47.043359549716115" lon="6.836380306631327">
        <ele>1360.8800000000001</ele>
        <time>2012-03-24T07:25:01Z</time>
      </trkpt>
      <trkpt lat="47.043341863900423" lon="6.836370499804616">
        <ele>1361.3599999999999</ele>
        <time>2012-03-24T07:25:02Z</time>
      </trkpt>
      <trkpt lat="47.043322417885065" lon="6.83636630885303">
        <ele>1361.8399999999999</ele>
        <time>2012-03-24T07:25:03Z</time>
      </trkpt>
      <trkpt lat="47.043303558602929" lon="6.836352646350861">
        <ele>1361.8399999999999</ele>
        <time>2012-03-24T07:25:04Z</time>
      </trkpt>
      <trkpt lat="47.043286291882396" lon="6.836330853402615">
        <ele>1361.8399999999999</ele>
        <time>2012-03-24T07:25:05Z</time>
      </trkpt>
      <trkpt lat="47.043266762048006" lon="6.836320459842682">
        <ele>1362.3299999999999</ele>
        <time>2012-03-24T07:25:06Z</time>
      </trkpt>
      <trkpt lat="47.043246561661363" lon="6.836315933614969">
        <ele>1362.3299999999999</ele>
        <time>2012-03-24T07:25:07Z</time>
      </trkpt>
      <trkpt lat="47.043226528912783" lon="6.836295314133167">
        <ele>1363.29</ele>
        <time>2012-03-24T07:25:08Z</time>
      </trkpt>
      <trkpt lat="47.043209010735154" lon="6.83627201244235">
        <ele>1362.3299999999999</ele>
        <time>2012-03-24T07:25:09Z</time>
      </trkpt>
      <trkpt lat="47.043190486729145" lon="6.836260361596942">
        <ele>1362.8099999999999</ele>
        <time>2012-03-24T07:25:10Z</time>
      </trkpt>
      <trkpt lat="47.043171543627977" lon="6.836247118189931">
        <ele>1362.8099999999999</ele>
        <time>2012-03-24T07:25:11Z</time>
      </trkpt>
      <trkpt lat="47.043157378211617" lon="6.836220128461719">
        <ele>1363.77</ele>
        <time>2012-03-24T07:25:12Z</time>
      </trkpt>
      <trkpt lat="47.043142877519131" lon="6.836194815114141">
        <ele>1364.25</ele>
        <time>2012-03-24T07:25:13Z</time>
      </trkpt>
      <trkpt lat="47.043123682960868" lon="6.836178218945861">
        <ele>1364.25</ele>
        <time>2012-03-24T07:25:14Z</time>
      </trkpt>
      <trkpt lat="47.043106835335493" lon="6.836156509816647">
        <ele>1363.29</ele>
        <time>2012-03-24T07:25:15Z</time>
      </trkpt>
      <trkpt lat="47.043094681575894" lon="6.836123149842024">
        <ele>1364.73</ele>
        <time>2012-03-24T07:25:16Z</time>
      </trkpt>
      <trkpt lat="47.043077079579234" lon="6.836095238104463">
        <ele>1365.21</ele>
        <time>2012-03-24T07:25:17Z</time>
      </trkpt>
      <trkpt lat="47.043057382106781" lon="6.836071852594614">
        <ele>1364.73</ele>
        <time>2012-03-24T07:25:18Z</time>
      </trkpt>
      <trkpt lat="47.043042294681072" lon="6.836041174829006">
        <ele>1364.73</ele>
        <time>2012-03-24T07:25:19Z</time>
      </trkpt>
      <trkpt lat="47.043029135093093" lon="6.83600714430213">
        <ele>1365.6900000000001</ele>
        <time>2012-03-24T07:25:20Z</time>
      </trkpt>
      <trkpt lat="47.043012538924813" lon="6.835983255878091">
        <ele>1365.21</ele>
        <time>2012-03-24T07:25:21Z</time>
      </trkpt>
      <trkpt lat="47.042994936928153" lon="6.835958361625671">
        <ele>1365.6900000000001</ele>
        <time>2012-03-24T07:25:22Z</time>
      </trkpt>
      <trkpt lat="47.04298404045403" lon="6.835922403261066">
        <ele>1365.21</ele>
        <time>2012-03-24T07:25:23Z</time>
      </trkpt>
      <trkpt lat="47.042970964685082" lon="6.835889043286443">
        <ele>1365.6900000000001</ele>
        <time>2012-03-24T07:25:24Z</time>
      </trkpt>
      <trkpt lat="47.042955039069057" lon="6.835856437683106">
        <ele>1366.1700000000001</ele>
        <time>2012-03-24T07:25:25Z</time>
      </trkpt>
      <trkpt lat="47.042942214757204" lon="6.835818300023675">
        <ele>1366.1700000000001</ele>
        <time>2012-03-24T07:25:26Z</time>
      </trkpt>
      <trkpt lat="47.042932994663715" lon="6.835777731612325">
        <ele>1366.1700000000001</ele>
        <time>2012-03-24T07:25:27Z</time>
      </trkpt>
      <trkpt lat="47.042920840904117" lon="6.835748143494129">
        <ele>1366.6500000000001</ele>
        <time>2012-03-24T07:25:28Z</time>
      </trkpt>
      <trkpt lat="47.042905082926154" lon="6.835724757984281">
        <ele>1367.1300000000001</ele>
        <time>2012-03-24T07:25:29Z</time>
      </trkpt>
      <trkpt lat="47.042891336604953" lon="6.835689386352897">
        <ele>1366.6500000000001</ele>
        <time>2012-03-24T07:25:30Z</time>
      </trkpt>
      <trkpt lat="47.042881781235337" lon="6.835653260350227">
        <ele>1366.1700000000001</ele>
        <time>2012-03-24T07:25:31Z</time>
      </trkpt>
      <trkpt lat="47.04286870546639" lon="6.8356270249933">
        <ele>1367.1300000000001</ele>
        <time>2012-03-24T07:25:32Z</time>
      </trkpt>
      <trkpt lat="47.042855462059379" lon="6.835596850141883">
        <ele>1367.1300000000001</ele>
        <time>2012-03-24T07:25:33Z</time>
      </trkpt>
      <trkpt lat="47.042848588898778" lon="6.835561310872436">
        <ele>1366.1700000000001</ele>
        <time>2012-03-24T07:25:34Z</time>
      </trkpt>
      <trkpt lat="47.042834758758545" lon="6.835527867078781">
        <ele>1366.1700000000001</ele>
        <time>2012-03-24T07:25:35Z</time>
      </trkpt>
      <trkpt lat="47.04282134771347" lon="6.835493920370936">
        <ele>1367.1300000000001</ele>
        <time>2012-03-24T07:25:36Z</time>
      </trkpt>
      <trkpt lat="47.04281254671514" lon="6.835456788539887">
        <ele>1367.1300000000001</ele>
        <time>2012-03-24T07:25:37Z</time>
      </trkpt>
      <trkpt lat="47.042799387127161" lon="6.835421836003661">
        <ele>1366.6500000000001</ele>
        <time>2012-03-24T07:25:38Z</time>
      </trkpt>
      <trkpt lat="47.042789915576577" lon="6.835381099954248">
        <ele>1367.6099999999999</ele>
        <time>2012-03-24T07:25:39Z</time>
      </trkpt>
      <trkpt lat="47.042781868949533" lon="6.835337849333882">
        <ele>1367.1300000000001</ele>
        <time>2012-03-24T07:25:40Z</time>
      </trkpt>
      <trkpt lat="47.042766530066729" lon="6.835301723331213">
        <ele>1368.0899999999999</ele>
        <time>2012-03-24T07:25:41Z</time>
      </trkpt>
      <trkpt lat="47.04275093972683" lon="6.835265094414353">
        <ele>1367.6099999999999</ele>
        <time>2012-03-24T07:25:42Z</time>
      </trkpt>
      <trkpt lat="47.042744150385261" lon="6.835222765803337">
        <ele>1366.6500000000001</ele>
        <time>2012-03-24T07:25:43Z</time>
      </trkpt>
      <trkpt lat="47.042734678834677" lon="6.8351867236197">
        <ele>1368.0899999999999</ele>
        <time>2012-03-24T07:25:44Z</time>
      </trkpt>
      <trkpt lat="47.042720764875412" lon="6.835150178521872">
        <ele>1368.5699999999999</ele>
        <time>2012-03-24T07:25:45Z</time>
      </trkpt>
      <trkpt lat="47.042710790410638" lon="6.835106844082475">
        <ele>1368.0899999999999</ele>
        <time>2012-03-24T07:25:46Z</time>
      </trkpt>
      <trkpt lat="47.042702408507466" lon="6.835065353661776">
        <ele>1368.0899999999999</ele>
        <time>2012-03-24T07:25:47Z</time>
      </trkpt>
      <trkpt lat="47.042685812339187" lon="6.835026796907187">
        <ele>1368.5699999999999</ele>
        <time>2012-03-24T07:25:48Z</time>
      </trkpt>
      <trkpt lat="47.04267181456089" lon="6.834984049201012">
        <ele>1368.5699999999999</ele>
        <time>2012-03-24T07:25:49Z</time>
      </trkpt>
      <trkpt lat="47.042664103209972" lon="6.834939457476139">
        <ele>1368.0899999999999</ele>
        <time>2012-03-24T07:25:50Z</time>
      </trkpt>
      <trkpt lat="47.042652117088437" lon="6.834902912378311">
        <ele>1369.05</ele>
        <time>2012-03-24T07:25:51Z</time>
      </trkpt>
      <trkpt lat="47.042640801519156" lon="6.83486569672823">
        <ele>1369.05</ele>
        <time>2012-03-24T07:25:52Z</time>
      </trkpt>
      <trkpt lat="47.042636862024665" lon="6.834822446107864">
        <ele>1369.05</ele>
        <time>2012-03-24T07:25:53Z</time>
      </trkpt>
      <trkpt lat="47.042628563940525" lon="6.834784895181656">
        <ele>1369.54</ele>
        <time>2012-03-24T07:25:54Z</time>
      </trkpt>
      <trkpt lat="47.042617416009307" lon="6.83475430123508">
        <ele>1369.54</ele>
        <time>2012-03-24T07:25:55Z</time>
      </trkpt>
      <trkpt lat="47.042613308876753" lon="6.834717253223062">
        <ele>1370.02</ele>
        <time>2012-03-24T07:25:56Z</time>
      </trkpt>
      <trkpt lat="47.042608698830009" lon="6.83468003757298">
        <ele>1370.02</ele>
        <time>2012-03-24T07:25:57Z</time>
      </trkpt>
      <trkpt lat="47.042597886174917" lon="6.834647012874484">
        <ele>1369.54</ele>
        <time>2012-03-24T07:25:58Z</time>
      </trkpt>
      <trkpt lat="47.042589420452714" lon="6.834610300138593">
        <ele>1370.02</ele>
        <time>2012-03-24T07:25:59Z</time>
      </trkpt>
      <trkpt lat="47.042587408795953" lon="6.834572581574321">
        <ele>1370.98</ele>
        <time>2012-03-24T07:26:00Z</time>
      </trkpt>
      <trkpt lat="47.042574835941195" lon="6.834536204114556">
        <ele>1370.5</ele>
        <time>2012-03-24T07:26:01Z</time>
      </trkpt>
      <trkpt lat="47.042556731030345" lon="6.834507035091519">
        <ele>1370.02</ele>
        <time>2012-03-24T07:26:02Z</time>
      </trkpt>
      <trkpt lat="47.04253887757659" lon="6.83447283692658">
        <ele>1371.46</ele>
        <time>2012-03-24T07:26:03Z</time>
      </trkpt>
      <trkpt lat="47.042522700503469" lon="6.83444844558835">
        <ele>1370.98</ele>
        <time>2012-03-24T07:26:04Z</time>
      </trkpt>
      <trkpt lat="47.042503254488111" lon="6.834435118362308">
        <ele>1371.46</ele>
        <time>2012-03-24T07:26:05Z</time>
      </trkpt>
      <trkpt lat="47.042483305558562" lon="6.834426736459136">
        <ele>1370.98</ele>
        <time>2012-03-24T07:26:06Z</time>
      </trkpt>
      <trkpt lat="47.042464949190617" lon="6.834412990137935">
        <ele>1372.4200000000001</ele>
        <time>2012-03-24T07:26:07Z</time>
      </trkpt>
      <trkpt lat="47.042447933927178" lon="6.834400584921241">
        <ele>1371.9400000000001</ele>
        <time>2012-03-24T07:26:08Z</time>
      </trkpt>
      <trkpt lat="47.042432343587279" lon="6.834401171654463">
        <ele>1372.9000000000001</ele>
        <time>2012-03-24T07:26:09Z</time>
      </trkpt>
      <trkpt lat="47.042416837066412" lon="6.834402931854129">
        <ele>1373.3800000000001</ele>
        <time>2012-03-24T07:26:10Z</time>
      </trkpt>
      <trkpt lat="47.042398983612657" lon="6.834397232159972">
        <ele>1372.4200000000001</ele>
        <time>2012-03-24T07:26:11Z</time>
      </trkpt>
      <trkpt lat="47.042380208149552" lon="6.834389856085181">
        <ele>1373.3800000000001</ele>
        <time>2012-03-24T07:26:12Z</time>
      </trkpt>
      <trkpt lat="47.042363779619336" lon="6.834392119199038">
        <ele>1373.8599999999999</ele>
        <time>2012-03-24T07:26:13Z</time>
      </trkpt>
      <trkpt lat="47.042351290583611" lon="6.834404189139605">
        <ele>1373.8599999999999</ele>
        <time>2012-03-24T07:26:14Z</time>
      </trkpt>
      <trkpt lat="47.042339639738202" lon="6.834413660690188">
        <ele>1374.3399999999999</ele>
        <time>2012-03-24T07:26:15Z</time>
      </trkpt>
      <trkpt lat="47.042322205379605" lon="6.834411984309554">
        <ele>1374.3399999999999</ele>
        <time>2012-03-24T07:26:16Z</time>
      </trkpt>
      <trkpt lat="47.04230535775423" lon="6.834405865520239">
        <ele>1374.8199999999999</ele>
        <time>2012-03-24T07:26:17Z</time>
      </trkpt>
      <trkpt lat="47.042289767414331" lon="6.834410559386015">
        <ele>1375.78</ele>
        <time>2012-03-24T07:26:18Z</time>
      </trkpt>
      <trkpt lat="47.042274679988623" lon="6.834423635154963">
        <ele>1375.3</ele>
        <time>2012-03-24T07:26:19Z</time>
      </trkpt>
      <trkpt lat="47.042256910353899" lon="6.834431178867817">
        <ele>1375.78</ele>
        <time>2012-03-24T07:26:20Z</time>
      </trkpt>
      <trkpt lat="47.042234782129526" lon="6.834425227716565">
        <ele>1375.78</ele>
        <time>2012-03-24T07:26:21Z</time>
      </trkpt>
      <trkpt lat="47.042216341942549" lon="6.834427658468485">
        <ele>1376.26</ele>
        <time>2012-03-24T07:26:22Z</time>
      </trkpt>
      <trkpt lat="47.042200248688459" lon="6.834440398961306">
        <ele>1376.75</ele>
        <time>2012-03-24T07:26:23Z</time>
      </trkpt>
      <trkpt lat="47.042182479053736" lon="6.83444844558835">
        <ele>1377.23</ele>
        <time>2012-03-24T07:26:24Z</time>
      </trkpt>
      <trkpt lat="47.042159345000982" lon="6.834445260465145">
        <ele>1377.23</ele>
        <time>2012-03-24T07:26:25Z</time>
      </trkpt>
      <trkpt lat="47.042138306424022" lon="6.834446601569653">
        <ele>1377.23</ele>
        <time>2012-03-24T07:26:26Z</time>
      </trkpt>
      <trkpt lat="47.042122632265091" lon="6.834459928795695">
        <ele>1377.71</ele>
        <time>2012-03-24T07:26:27Z</time>
      </trkpt>
      <trkpt lat="47.042105617001653" lon="6.834472166374326">
        <ele>1377.71</ele>
        <time>2012-03-24T07:26:28Z</time>
      </trkpt>
      <trkpt lat="47.042083740234375" lon="6.834472501650453">
        <ele>1378.6700000000001</ele>
        <time>2012-03-24T07:26:29Z</time>
      </trkpt>
      <trkpt lat="47.042065048590302" lon="6.834477111697197">
        <ele>1378.6700000000001</ele>
        <time>2012-03-24T07:26:30Z</time>
      </trkpt>
      <trkpt lat="47.042049877345562" lon="6.834487589076161">
        <ele>1378.1900000000001</ele>
        <time>2012-03-24T07:26:31Z</time>
      </trkpt>
      <trkpt lat="47.042035544291139" lon="6.834486918523908">
        <ele>1378.1900000000001</ele>
        <time>2012-03-24T07:26:32Z</time>
      </trkpt>
      <trkpt lat="47.042024815455079" lon="6.83446847833693">
        <ele>1378.6700000000001</ele>
        <time>2012-03-24T07:26:33Z</time>
      </trkpt>
      <trkpt lat="47.042017439380288" lon="6.834442242980003">
        <ele>1378.6700000000001</ele>
        <time>2012-03-24T07:26:34Z</time>
      </trkpt>
      <trkpt lat="47.042010733857751" lon="6.83441324159503">
        <ele>1378.1900000000001</ele>
        <time>2012-03-24T07:26:35Z</time>
      </trkpt>
      <trkpt lat="47.042016936466098" lon="6.834333529695869">
        <ele>1378.1900000000001</ele>
        <time>2012-03-24T07:26:37Z</time>
      </trkpt>
      <trkpt lat="47.041984414681792" lon="6.83410445228219">
        <ele>1379.1500000000001</ele>
        <time>2012-03-24T07:26:43Z</time>
      </trkpt>
      <trkpt lat="47.041941247880459" lon="6.833835477009416">
        <ele>1380.1099999999999</ele>
        <time>2012-03-24T07:26:50Z</time>
      </trkpt>
      <trkpt lat="47.041911156848073" lon="6.833523167297244">
        <ele>1382.03</ele>
        <time>2012-03-24T07:26:59Z</time>
      </trkpt>
      <trkpt lat="47.041874025017023" lon="6.833286881446838">
        <ele>1383.96</ele>
        <time>2012-03-24T07:27:06Z</time>
      </trkpt>
      <trkpt lat="47.041833037510514" lon="6.83315260335803">
        <ele>1384.4400000000001</ele>
        <time>2012-03-24T07:27:10Z</time>
      </trkpt>
      <trkpt lat="47.041646037250757" lon="6.83290776796639">
        <ele>1385.8800000000001</ele>
        <time>2012-03-24T07:27:19Z</time>
      </trkpt>
      <trkpt lat="47.041452331468463" lon="6.832662681117654">
        <ele>1385.8800000000001</ele>
        <time>2012-03-24T07:27:30Z</time>
      </trkpt>
      <trkpt lat="47.041439088061452" lon="6.832642313092947">
        <ele>1385.4000000000001</ele>
        <time>2012-03-24T07:27:31Z</time>
      </trkpt>
      <trkpt lat="47.041414026170969" lon="6.832634182646871">
        <ele>1386.8399999999999</ele>
        <time>2012-03-24T07:27:34Z</time>
      </trkpt>
      <trkpt lat="47.041518464684486" lon="6.832776004448533">
        <ele>1387.8</ele>
        <time>2012-03-24T07:27:41Z</time>
      </trkpt>
      <trkpt lat="47.04171652905643" lon="6.83299669995904">
        <ele>1386.3599999999999</ele>
        <time>2012-03-24T07:27:50Z</time>
      </trkpt>
      <trkpt lat="47.041901769116521" lon="6.833413867279887">
        <ele>1384.9200000000001</ele>
        <time>2012-03-24T07:28:00Z</time>
      </trkpt>
      <trkpt lat="47.041950887069106" lon="6.833780407905579">
        <ele>1382.03</ele>
        <time>2012-03-24T07:28:06Z</time>
      </trkpt>
      <trkpt lat="47.041982486844063" lon="6.834082324057818">
        <ele>1381.55</ele>
        <time>2012-03-24T07:28:10Z</time>
      </trkpt>
      <trkpt lat="47.042020875960588" lon="6.834422126412392">
        <ele>1379.1500000000001</ele>
        <time>2012-03-24T07:28:14Z</time>
      </trkpt>
      <trkpt lat="47.042029844596982" lon="6.834569564089179">
        <ele>1380.5899999999999</ele>
        <time>2012-03-24T07:28:16Z</time>
      </trkpt>
      <trkpt lat="47.042040321975946" lon="6.834627315402031">
        <ele>1379.6300000000001</ele>
        <time>2012-03-24T07:28:17Z</time>
      </trkpt>
      <trkpt lat="47.042254563421011" lon="6.835372466593981">
        <ele>1378.1900000000001</ele>
        <time>2012-03-24T07:28:30Z</time>
      </trkpt>
      <trkpt lat="47.042358079925179" lon="6.835670946165919">
        <ele>1376.26</ele>
        <time>2012-03-24T07:28:34Z</time>
      </trkpt>
      <trkpt lat="47.042628731578588" lon="6.836230354383588">
        <ele>1372.9000000000001</ele>
        <time>2012-03-24T07:28:41Z</time>
      </trkpt>
      <trkpt lat="47.042970629408956" lon="6.836689850315452">
        <ele>1370.5</ele>
        <time>2012-03-24T07:28:47Z</time>
      </trkpt>
      <trkpt lat="47.043310180306435" lon="6.836992939934135">
        <ele>1367.1300000000001</ele>
        <time>2012-03-24T07:28:52Z</time>
      </trkpt>
      <trkpt lat="47.043644115328789" lon="6.837227800861001">
        <ele>1363.77</ele>
        <time>2012-03-24T07:28:56Z</time>
      </trkpt>
      <trkpt lat="47.043731119483709" lon="6.837271973490715">
        <ele>1363.29</ele>
        <time>2012-03-24T07:28:57Z</time>
      </trkpt>
      <trkpt lat="47.044093133881688" lon="6.83737138286233">
        <ele>1360.4000000000001</ele>
        <time>2012-03-24T07:29:01Z</time>
      </trkpt>
      <trkpt lat="47.044384907931089" lon="6.837367778643966">
        <ele>1358</ele>
        <time>2012-03-24T07:29:04Z</time>
      </trkpt>
      <trkpt lat="47.044683136045933" lon="6.837292425334454">
        <ele>1355.1199999999999</ele>
        <time>2012-03-24T07:29:07Z</time>
      </trkpt>
      <trkpt lat="47.044958984479308" lon="6.83721112087369">
        <ele>1353.1900000000001</ele>
        <time>2012-03-24T07:29:10Z</time>
      </trkpt>
      <trkpt lat="47.045044647529721" lon="6.837212713435292">
        <ele>1353.1900000000001</ele>
        <time>2012-03-24T07:29:11Z</time>
      </trkpt>
      <trkpt lat="47.045123605057597" lon="6.837226878851652">
        <ele>1353.1900000000001</ele>
        <time>2012-03-24T07:29:12Z</time>
      </trkpt>
      <trkpt lat="47.045199628919363" lon="6.837252946570516">
        <ele>1352.71</ele>
        <time>2012-03-24T07:29:13Z</time>
      </trkpt>
      <trkpt lat="47.045275820419192" lon="6.837290078401566">
        <ele>1351.75</ele>
        <time>2012-03-24T07:29:14Z</time>
      </trkpt>
      <trkpt lat="47.045355029404163" lon="6.837345231324434">
        <ele>1351.27</ele>
        <time>2012-03-24T07:29:15Z</time>
      </trkpt>
      <trkpt lat="47.045434741303325" lon="6.837412705644965">
        <ele>1350.79</ele>
        <time>2012-03-24T07:29:16Z</time>
      </trkpt>
      <trkpt lat="47.045511100441217" lon="6.837486466392875">
        <ele>1350.3099999999999</ele>
        <time>2012-03-24T07:29:17Z</time>
      </trkpt>
      <trkpt lat="47.045742021873593" lon="6.837716046720743">
        <ele>1347.9100000000001</ele>
        <time>2012-03-24T07:29:20Z</time>
      </trkpt>
      <trkpt lat="47.046268237754703" lon="6.838245447725058">
        <ele>1345.02</ele>
        <time>2012-03-24T07:29:28Z</time>
      </trkpt>
      <trkpt lat="47.046703426167369" lon="6.838716678321362">
        <ele>1341.1800000000001</ele>
        <time>2012-03-24T07:29:35Z</time>
      </trkpt>
      <trkpt lat="47.046867040917277" lon="6.839013313874602">
        <ele>1339.73</ele>
        <time>2012-03-24T07:29:38Z</time>
      </trkpt>
      <trkpt lat="47.046959744766355" lon="6.839258735999465">
        <ele>1338.29</ele>
        <time>2012-03-24T07:29:40Z</time>
      </trkpt>
      <trkpt lat="47.047090586274862" lon="6.839676490053535">
        <ele>1334.9300000000001</ele>
        <time>2012-03-24T07:29:43Z</time>
      </trkpt>
      <trkpt lat="47.047276999801397" lon="6.84025433845818">
        <ele>1331.0799999999999</ele>
        <time>2012-03-24T07:29:47Z</time>
      </trkpt>
      <trkpt lat="47.047476237639785" lon="6.840961519628763">
        <ele>1327.72</ele>
        <time>2012-03-24T07:29:52Z</time>
      </trkpt>
      <trkpt lat="47.047624513506889" lon="6.841298472136259">
        <ele>1326.28</ele>
        <time>2012-03-24T07:29:55Z</time>
      </trkpt>
      <trkpt lat="47.0477638207376" lon="6.841591838747263">
        <ele>1323.8699999999999</ele>
        <time>2012-03-24T07:29:58Z</time>
      </trkpt>
      <trkpt lat="47.048170510679483" lon="6.842252081260085">
        <ele>1322.4300000000001</ele>
        <time>2012-03-24T07:30:09Z</time>
      </trkpt>
      <trkpt lat="47.048223149031401" lon="6.842334475368261">
        <ele>1322.4300000000001</ele>
        <time>2012-03-24T07:30:11Z</time>
      </trkpt>
      <trkpt lat="47.048245863988996" lon="6.842377055436373">
        <ele>1321.95</ele>
        <time>2012-03-24T07:30:12Z</time>
      </trkpt>
      <trkpt lat="47.048275284469128" lon="6.842410834506154">
        <ele>1322.9100000000001</ele>
        <time>2012-03-24T07:30:13Z</time>
      </trkpt>
      <trkpt lat="47.048305124044418" lon="6.8424516543746">
        <ele>1323.3900000000001</ele>
        <time>2012-03-24T07:30:14Z</time>
      </trkpt>
      <trkpt lat="47.048332951962948" lon="6.842494066804647">
        <ele>1322.4300000000001</ele>
        <time>2012-03-24T07:30:15Z</time>
      </trkpt>
      <trkpt lat="47.048363545909524" lon="6.842529606074095">
        <ele>1323.3900000000001</ele>
        <time>2012-03-24T07:30:16Z</time>
      </trkpt>
      <trkpt lat="47.048394223675132" lon="6.84256112203002">
        <ele>1323.3900000000001</ele>
        <time>2012-03-24T07:30:17Z</time>
      </trkpt>
      <trkpt lat="47.048420123755932" lon="6.842600852251053">
        <ele>1323.8699999999999</ele>
        <time>2012-03-24T07:30:18Z</time>
      </trkpt>
      <trkpt lat="47.048448119312525" lon="6.842637481167913">
        <ele>1323.3900000000001</ele>
        <time>2012-03-24T07:30:19Z</time>
      </trkpt>
      <trkpt lat="47.048480808734894" lon="6.842670841142535">
        <ele>1323.3900000000001</ele>
        <time>2012-03-24T07:30:20Z</time>
      </trkpt>
      <trkpt lat="47.048515090718865" lon="6.842709733173251">
        <ele>1323.3900000000001</ele>
        <time>2012-03-24T07:30:21Z</time>
      </trkpt>
      <trkpt lat="47.048542918637395" lon="6.842755163088441">
        <ele>1324.3499999999999</ele>
        <time>2012-03-24T07:30:22Z</time>
      </trkpt>
      <trkpt lat="47.048570495098829" lon="6.842794474214315">
        <ele>1323.8699999999999</ele>
        <time>2012-03-24T07:30:23Z</time>
      </trkpt>
      <trkpt lat="47.048601843416691" lon="6.842827247455716">
        <ele>1324.3499999999999</ele>
        <time>2012-03-24T07:30:24Z</time>
      </trkpt>
      <trkpt lat="47.048634449020028" lon="6.842867145314813">
        <ele>1323.8699999999999</ele>
        <time>2012-03-24T07:30:25Z</time>
      </trkpt>
      <trkpt lat="47.048660265281796" lon="6.842908300459385">
        <ele>1324.3499999999999</ele>
        <time>2012-03-24T07:30:26Z</time>
      </trkpt>
      <trkpt lat="47.048682812601328" lon="6.842938056215644">
        <ele>1324.8299999999999</ele>
        <time>2012-03-24T07:30:27Z</time>
      </trkpt>
      <trkpt lat="47.048709383234382" lon="6.842962531372905">
        <ele>1324.3499999999999</ele>
        <time>2012-03-24T07:30:28Z</time>
      </trkpt>
      <trkpt lat="47.048733187839389" lon="6.842991868034005">
        <ele>1324.8299999999999</ele>
        <time>2012-03-24T07:30:29Z</time>
      </trkpt>
      <trkpt lat="47.048754142597318" lon="6.843025228008628">
        <ele>1325.3099999999999</ele>
        <time>2012-03-24T07:30:30Z</time>
      </trkpt>
      <trkpt lat="47.048776857554913" lon="6.843054564669728">
        <ele>1325.8</ele>
        <time>2012-03-24T07:30:31Z</time>
      </trkpt>
      <trkpt lat="47.048802673816681" lon="6.843077531084418">
        <ele>1325.8</ele>
        <time>2012-03-24T07:30:32Z</time>
      </trkpt>
      <trkpt lat="47.048824969679117" lon="6.843103431165218">
        <ele>1325.8</ele>
        <time>2012-03-24T07:30:33Z</time>
      </trkpt>
      <trkpt lat="47.04884173348546" lon="6.84313771314919">
        <ele>1326.28</ele>
        <time>2012-03-24T07:30:34Z</time>
      </trkpt>
      <trkpt lat="47.048863274976611" lon="6.843166211619973">
        <ele>1325.8</ele>
        <time>2012-03-24T07:30:35Z</time>
      </trkpt>
      <trkpt lat="47.048955727368593" lon="6.84327450580895">
        <ele>1326.28</ele>
        <time>2012-03-24T07:30:39Z</time>
      </trkpt>
      <trkpt lat="47.048983303830028" lon="6.84329504147172">
        <ele>1326.76</ele>
        <time>2012-03-24T07:30:40Z</time>
      </trkpt>
      <trkpt lat="47.049011299386621" lon="6.843322115018964">
        <ele>1326.76</ele>
        <time>2012-03-24T07:30:41Z</time>
      </trkpt>
      <trkpt lat="47.04903862439096" lon="6.84335807338357">
        <ele>1327.72</ele>
        <time>2012-03-24T07:30:42Z</time>
      </trkpt>
      <trkpt lat="47.049067709594965" lon="6.843389505520463">
        <ele>1326.76</ele>
        <time>2012-03-24T07:30:43Z</time>
      </trkpt>
      <trkpt lat="47.04910266213119" lon="6.843412052839994">
        <ele>1327.24</ele>
        <time>2012-03-24T07:30:44Z</time>
      </trkpt>
      <trkpt lat="47.049137782305479" lon="6.843445831909776">
        <ele>1327.24</ele>
        <time>2012-03-24T07:30:45Z</time>
      </trkpt>
      <trkpt lat="47.049173405393958" lon="6.843479527160525">
        <ele>1327.24</ele>
        <time>2012-03-24T07:30:46Z</time>
      </trkpt>
      <trkpt lat="47.0492057595402" lon="6.843500481918454">
        <ele>1326.28</ele>
        <time>2012-03-24T07:30:47Z</time>
      </trkpt>
      <trkpt lat="47.049237275496125" lon="6.843529064208269">
        <ele>1327.24</ele>
        <time>2012-03-24T07:30:48Z</time>
      </trkpt>
      <trkpt lat="47.049269210547209" lon="6.843555048108101">
        <ele>1327.72</ele>
        <time>2012-03-24T07:30:49Z</time>
      </trkpt>
      <trkpt lat="47.049300307407975" lon="6.843575416132808">
        <ele>1327.24</ele>
        <time>2012-03-24T07:30:50Z</time>
      </trkpt>
      <trkpt lat="47.049515135586262" lon="6.843758644536138">
        <ele>1328.2</ele>
        <time>2012-03-24T07:30:57Z</time>
      </trkpt>
      <trkpt lat="47.049548998475075" lon="6.843785550445318">
        <ele>1327.72</ele>
        <time>2012-03-24T07:30:58Z</time>
      </trkpt>
      <trkpt lat="47.049578754231334" lon="6.84381446801126">
        <ele>1327.72</ele>
        <time>2012-03-24T07:30:59Z</time>
      </trkpt>
      <trkpt lat="47.049608007073402" lon="6.843834081664681">
        <ele>1327.72</ele>
        <time>2012-03-24T07:31:00Z</time>
      </trkpt>
      <trkpt lat="47.049639103934169" lon="6.843855623155832">
        <ele>1328.6800000000001</ele>
        <time>2012-03-24T07:31:01Z</time>
      </trkpt>
      <trkpt lat="47.049669362604618" lon="6.843887306749821">
        <ele>1328.2</ele>
        <time>2012-03-24T07:31:02Z</time>
      </trkpt>
      <trkpt lat="47.049697106704116" lon="6.843915805220604">
        <ele>1328.2</ele>
        <time>2012-03-24T07:31:03Z</time>
      </trkpt>
      <trkpt lat="47.049726443365216" lon="6.843930054455996">
        <ele>1328.6800000000001</ele>
        <time>2012-03-24T07:31:04Z</time>
      </trkpt>
      <trkpt lat="47.049759887158871" lon="6.84394396841526">
        <ele>1329.1600000000001</ele>
        <time>2012-03-24T07:31:05Z</time>
      </trkpt>
      <trkpt lat="47.04979064874351" lon="6.843965761363506">
        <ele>1329.1600000000001</ele>
        <time>2012-03-24T07:31:06Z</time>
      </trkpt>
      <trkpt lat="47.049819147214293" lon="6.843984453007579">
        <ele>1329.1600000000001</ele>
        <time>2012-03-24T07:31:07Z</time>
      </trkpt>
      <trkpt lat="47.049846723675728" lon="6.843991745263338">
        <ele>1329.1600000000001</ele>
        <time>2012-03-24T07:31:08Z</time>
      </trkpt>
      <trkpt lat="47.049873629584908" lon="6.844011442735791">
        <ele>1329.1600000000001</ele>
        <time>2012-03-24T07:31:09Z</time>
      </trkpt>
      <trkpt lat="47.049899864941835" lon="6.844039270654321">
        <ele>1330.1199999999999</ele>
        <time>2012-03-24T07:31:10Z</time>
      </trkpt>
      <trkpt lat="47.049927525222301" lon="6.844056202098727">
        <ele>1329.6400000000001</ele>
        <time>2012-03-24T07:31:11Z</time>
      </trkpt>
      <trkpt lat="47.049957867711782" lon="6.844069864600897">
        <ele>1329.6400000000001</ele>
        <time>2012-03-24T07:31:12Z</time>
      </trkpt>
      <trkpt lat="47.049987204372883" lon="6.8440973572433">
        <ele>1330.1199999999999</ele>
        <time>2012-03-24T07:31:13Z</time>
      </trkpt>
      <trkpt lat="47.05001930706203" lon="6.844124095514417">
        <ele>1330.5999999999999</ele>
        <time>2012-03-24T07:31:14Z</time>
      </trkpt>
      <trkpt lat="47.050051912665367" lon="6.844138596206904">
        <ele>1329.6400000000001</ele>
        <time>2012-03-24T07:31:15Z</time>
      </trkpt>
      <trkpt lat="47.050084434449673" lon="6.844155276194215">
        <ele>1329.1600000000001</ele>
        <time>2012-03-24T07:31:16Z</time>
      </trkpt>
      <trkpt lat="47.050117123872042" lon="6.844178829342127">
        <ele>1330.1199999999999</ele>
        <time>2012-03-24T07:31:17Z</time>
      </trkpt>
      <trkpt lat="47.05014637671411" lon="6.844190564006567">
        <ele>1330.5999999999999</ele>
        <time>2012-03-24T07:31:18Z</time>
      </trkpt>
      <trkpt lat="47.050176551565528" lon="6.844201879575849">
        <ele>1330.1199999999999</ele>
        <time>2012-03-24T07:31:19Z</time>
      </trkpt>
      <trkpt lat="47.050204128026962" lon="6.844223504886031">
        <ele>1330.1199999999999</ele>
        <time>2012-03-24T07:31:20Z</time>
      </trkpt>
      <trkpt lat="47.05022944137454" lon="6.844244124367833">
        <ele>1329.6400000000001</ele>
        <time>2012-03-24T07:31:21Z</time>
      </trkpt>
      <trkpt lat="47.050255173817277" lon="6.844255942851305">
        <ele>1330.5999999999999</ele>
        <time>2012-03-24T07:31:22Z</time>
      </trkpt>
      <trkpt lat="47.050280151888728" lon="6.844276310876012">
        <ele>1331.0799999999999</ele>
        <time>2012-03-24T07:31:23Z</time>
      </trkpt>
      <trkpt lat="47.050304124131799" lon="6.844292487949133">
        <ele>1331.0799999999999</ele>
        <time>2012-03-24T07:31:24Z</time>
      </trkpt>
      <trkpt lat="47.050328264012933" lon="6.844300283119083">
        <ele>1331.5599999999999</ele>
        <time>2012-03-24T07:31:25Z</time>
      </trkpt>
      <trkpt lat="47.050354164093733" lon="6.84431629255414">
        <ele>1332.52</ele>
        <time>2012-03-24T07:31:26Z</time>
      </trkpt>
      <trkpt lat="47.050379812717438" lon="6.844332721084356">
        <ele>1331.5599999999999</ele>
        <time>2012-03-24T07:31:27Z</time>
      </trkpt>
      <trkpt lat="47.050405964255333" lon="6.844343282282352">
        <ele>1331.5599999999999</ele>
        <time>2012-03-24T07:31:28Z</time>
      </trkpt>
      <trkpt lat="47.050431529060006" lon="6.844356609508395">
        <ele>1332.04</ele>
        <time>2012-03-24T07:31:29Z</time>
      </trkpt>
      <trkpt lat="47.050453070551157" lon="6.844376642256975">
        <ele>1332.04</ele>
        <time>2012-03-24T07:31:30Z</time>
      </trkpt>
      <trkpt lat="47.050476036965847" lon="6.844381336122751">
        <ele>1332.04</ele>
        <time>2012-03-24T07:31:31Z</time>
      </trkpt>
      <trkpt lat="47.050501853227615" lon="6.844383599236608">
        <ele>1332.04</ele>
        <time>2012-03-24T07:31:32Z</time>
      </trkpt>
      <trkpt lat="47.050523813813925" lon="6.844407236203551">
        <ele>1332.52</ele>
        <time>2012-03-24T07:31:33Z</time>
      </trkpt>
      <trkpt lat="47.050542756915092" lon="6.844431962817907">
        <ele>1333.01</ele>
        <time>2012-03-24T07:31:34Z</time>
      </trkpt>
      <trkpt lat="47.050563208758831" lon="6.844448391348124">
        <ele>1333.01</ele>
        <time>2012-03-24T07:31:35Z</time>
      </trkpt>
      <trkpt lat="47.050583744421601" lon="6.844462808221579">
        <ele>1333.01</ele>
        <time>2012-03-24T07:31:36Z</time>
      </trkpt>
      <trkpt lat="47.05060369335115" lon="6.844484517350793">
        <ele>1333.01</ele>
        <time>2012-03-24T07:31:37Z</time>
      </trkpt>
      <trkpt lat="47.050621043890715" lon="6.844507232308388">
        <ele>1333.97</ele>
        <time>2012-03-24T07:31:38Z</time>
      </trkpt>
      <trkpt lat="47.050639484077692" lon="6.844518464058638">
        <ele>1334.45</ele>
        <time>2012-03-24T07:31:39Z</time>
      </trkpt>
      <trkpt lat="47.050660019740462" lon="6.844523660838604">
        <ele>1334.45</ele>
        <time>2012-03-24T07:31:40Z</time>
      </trkpt>
      <trkpt lat="47.050678711384535" lon="6.844546291977167">
        <ele>1333.49</ele>
        <time>2012-03-24T07:31:41Z</time>
      </trkpt>
      <trkpt lat="47.050696983933449" lon="6.844570431858301">
        <ele>1333.97</ele>
        <time>2012-03-24T07:31:42Z</time>
      </trkpt>
      <trkpt lat="47.050718273967505" lon="6.844583423808217">
        <ele>1334.9300000000001</ele>
        <time>2012-03-24T07:31:43Z</time>
      </trkpt>
      <trkpt lat="47.050737217068672" lon="6.844599433243275">
        <ele>1334.45</ele>
        <time>2012-03-24T07:31:44Z</time>
      </trkpt>
      <trkpt lat="47.050749370828271" lon="6.844625752419233">
        <ele>1334.45</ele>
        <time>2012-03-24T07:31:45Z</time>
      </trkpt>
      <trkpt lat="47.050765715539455" lon="6.844646288082004">
        <ele>1334.45</ele>
        <time>2012-03-24T07:31:46Z</time>
      </trkpt>
      <trkpt lat="47.05078499391675" lon="6.844662465155125">
        <ele>1334.9300000000001</ele>
        <time>2012-03-24T07:31:47Z</time>
      </trkpt>
      <trkpt lat="47.050803182646632" lon="6.844681659713388">
        <ele>1335.4100000000001</ele>
        <time>2012-03-24T07:31:48Z</time>
      </trkpt>
      <trkpt lat="47.050818940624595" lon="6.844702446833253">
        <ele>1335.4100000000001</ele>
        <time>2012-03-24T07:31:49Z</time>
      </trkpt>
      <trkpt lat="47.050835788249969" lon="6.84471988119185">
        <ele>1335.4100000000001</ele>
        <time>2012-03-24T07:31:50Z</time>
      </trkpt>
      <trkpt lat="47.050854731351137" lon="6.844735220074654">
        <ele>1335.4100000000001</ele>
        <time>2012-03-24T07:31:51Z</time>
      </trkpt>
      <trkpt lat="47.050870321691036" lon="6.844762628898025">
        <ele>1336.3699999999999</ele>
        <time>2012-03-24T07:31:52Z</time>
      </trkpt>
      <trkpt lat="47.050887085497379" lon="6.84478685259819">
        <ele>1335.8900000000001</ele>
        <time>2012-03-24T07:31:53Z</time>
      </trkpt>
      <trkpt lat="47.050906699150801" lon="6.844801940023899">
        <ele>1336.3699999999999</ele>
        <time>2012-03-24T07:31:54Z</time>
      </trkpt>
      <trkpt lat="47.050924049690366" lon="6.844827421009541">
        <ele>1336.8499999999999</ele>
        <time>2012-03-24T07:31:55Z</time>
      </trkpt>
      <trkpt lat="47.050938047468662" lon="6.844857009127736">
        <ele>1336.8499999999999</ele>
        <time>2012-03-24T07:31:56Z</time>
      </trkpt>
      <trkpt lat="47.050955649465322" lon="6.844874946400523">
        <ele>1336.3699999999999</ele>
        <time>2012-03-24T07:31:57Z</time>
      </trkpt>
      <trkpt lat="47.05097509548068" lon="6.844894140958786">
        <ele>1336.8499999999999</ele>
        <time>2012-03-24T07:31:58Z</time>
      </trkpt>
      <trkpt lat="47.050992362201214" lon="6.844917694106698">
        <ele>1337.3299999999999</ele>
        <time>2012-03-24T07:31:59Z</time>
      </trkpt>
      <trkpt lat="47.051009545102715" lon="6.844933619722724">
        <ele>1337.8099999999999</ele>
        <time>2012-03-24T07:32:00Z</time>
      </trkpt>
      <trkpt lat="47.051026979461312" lon="6.844949461519718">
        <ele>1337.3299999999999</ele>
        <time>2012-03-24T07:32:01Z</time>
      </trkpt>
      <trkpt lat="47.051042737439275" lon="6.844972847029567">
        <ele>1337.8099999999999</ele>
        <time>2012-03-24T07:32:02Z</time>
      </trkpt>
      <trkpt lat="47.051060674712062" lon="6.84499790892005">
        <ele>1338.29</ele>
        <time>2012-03-24T07:32:03Z</time>
      </trkpt>
      <trkpt lat="47.051082970574498" lon="6.845019953325391">
        <ele>1338.29</ele>
        <time>2012-03-24T07:32:04Z</time>
      </trkpt>
      <trkpt lat="47.05110258422792" lon="6.845049792900682">
        <ele>1338.29</ele>
        <time>2012-03-24T07:32:05Z</time>
      </trkpt>
      <trkpt lat="47.051121694967151" lon="6.84507854282856">
        <ele>1338.29</ele>
        <time>2012-03-24T07:32:06Z</time>
      </trkpt>
      <trkpt lat="47.051143404096365" lon="6.84509807266295">
        <ele>1339.25</ele>
        <time>2012-03-24T07:32:07Z</time>
      </trkpt>
      <trkpt lat="47.05116368830204" lon="6.845119781792164">
        <ele>1339.25</ele>
        <time>2012-03-24T07:32:08Z</time>
      </trkpt>
      <trkpt lat="47.051178440451622" lon="6.845145178958774">
        <ele>1338.29</ele>
        <time>2012-03-24T07:32:09Z</time>
      </trkpt>
      <trkpt lat="47.051196713000536" lon="6.84516403824091">
        <ele>1339.25</ele>
        <time>2012-03-24T07:32:10Z</time>
      </trkpt>
      <trkpt lat="47.051217332482338" lon="6.845184406265616">
        <ele>1339.25</ele>
        <time>2012-03-24T07:32:11Z</time>
      </trkpt>
      <trkpt lat="47.051234263926744" lon="6.845217179507017">
        <ele>1339.73</ele>
        <time>2012-03-24T07:32:12Z</time>
      </trkpt>
      <trkpt lat="47.051252536475658" lon="6.845243163406849">
        <ele>1339.73</ele>
        <time>2012-03-24T07:32:13Z</time>
      </trkpt>
      <trkpt lat="47.051274999976158" lon="6.845260346308351">
        <ele>1339.25</ele>
        <time>2012-03-24T07:32:14Z</time>
      </trkpt>
      <trkpt lat="47.051296373829246" lon="6.845284486189485">
        <ele>1340.7</ele>
        <time>2012-03-24T07:32:15Z</time>
      </trkpt>
      <trkpt lat="47.051313472911716" lon="6.8453199416399">
        <ele>1340.22</ele>
        <time>2012-03-24T07:32:16Z</time>
      </trkpt>
      <trkpt lat="47.051333505660295" lon="6.845348691567779">
        <ele>1339.73</ele>
        <time>2012-03-24T07:32:17Z</time>
      </trkpt>
      <trkpt lat="47.051356052979827" lon="6.845365958288312">
        <ele>1340.22</ele>
        <time>2012-03-24T07:32:18Z</time>
      </trkpt>
      <trkpt lat="47.051376421004534" lon="6.845391606912017">
        <ele>1341.1800000000001</ele>
        <time>2012-03-24T07:32:19Z</time>
      </trkpt>
      <trkpt lat="47.05139284953475" lon="6.845423625782132">
        <ele>1340.22</ele>
        <time>2012-03-24T07:32:20Z</time>
      </trkpt>
      <trkpt lat="47.051412044093013" lon="6.845441730692983">
        <ele>1340.7</ele>
        <time>2012-03-24T07:32:21Z</time>
      </trkpt>
      <trkpt lat="47.051432579755783" lon="6.845456482842565">
        <ele>1341.1800000000001</ele>
        <time>2012-03-24T07:32:22Z</time>
      </trkpt>
      <trkpt lat="47.051445487886667" lon="6.845485484227538">
        <ele>1341.6600000000001</ele>
        <time>2012-03-24T07:32:23Z</time>
      </trkpt>
      <trkpt lat="47.051458396017551" lon="6.845511132851243">
        <ele>1341.1800000000001</ele>
        <time>2012-03-24T07:32:24Z</time>
      </trkpt>
      <trkpt lat="47.051477674394846" lon="6.845528734847903">
        <ele>1341.1800000000001</ele>
        <time>2012-03-24T07:32:25Z</time>
      </trkpt>
      <trkpt lat="47.051497790962458" lon="6.845547510311008">
        <ele>1341.1800000000001</ele>
        <time>2012-03-24T07:32:26Z</time>
      </trkpt>
      <trkpt lat="47.051513129845262" lon="6.845577601343393">
        <ele>1343.0999999999999</ele>
        <time>2012-03-24T07:32:27Z</time>
      </trkpt>
      <trkpt lat="47.051529306918383" lon="6.84560333378613">
        <ele>1343.0999999999999</ele>
        <time>2012-03-24T07:32:28Z</time>
      </trkpt>
      <trkpt lat="47.051548585295677" lon="6.845615319907665">
        <ele>1342.1400000000001</ele>
        <time>2012-03-24T07:32:29Z</time>
      </trkpt>
      <trkpt lat="47.051565181463957" lon="6.845638956874609">
        <ele>1342.6199999999999</ele>
        <time>2012-03-24T07:32:30Z</time>
      </trkpt>
      <trkpt lat="47.051581609994173" lon="6.845663515850902">
        <ele>1343.0999999999999</ele>
        <time>2012-03-24T07:32:31Z</time>
      </trkpt>
      <trkpt lat="47.051600469276309" lon="6.845678268000484">
        <ele>1343.5799999999999</ele>
        <time>2012-03-24T07:32:32Z</time>
      </trkpt>
      <trkpt lat="47.051619831472635" lon="6.845695618540049">
        <ele>1343.0999999999999</ele>
        <time>2012-03-24T07:32:33Z</time>
      </trkpt>
      <trkpt lat="47.051635757088661" lon="6.845720009878278">
        <ele>1343.0999999999999</ele>
        <time>2012-03-24T07:32:34Z</time>
      </trkpt>
      <trkpt lat="47.051653023809195" lon="6.845740294083953">
        <ele>1343.5799999999999</ele>
        <time>2012-03-24T07:32:35Z</time>
      </trkpt>
      <trkpt lat="47.051673140376806" lon="6.845757644623518">
        <ele>1344.0599999999999</ele>
        <time>2012-03-24T07:32:36Z</time>
      </trkpt>
      <trkpt lat="47.051690993830562" lon="6.845783712342382">
        <ele>1344.0599999999999</ele>
        <time>2012-03-24T07:32:37Z</time>
      </trkpt>
      <trkpt lat="47.051707254722714" lon="6.845809780061245">
        <ele>1344.0599999999999</ele>
        <time>2012-03-24T07:32:38Z</time>
      </trkpt>
      <trkpt lat="47.051725778728724" lon="6.845823777839541">
        <ele>1344.0599999999999</ele>
        <time>2012-03-24T07:32:39Z</time>
      </trkpt>
      <trkpt lat="47.051741117611527" lon="6.84584422968328">
        <ele>1345.5</ele>
        <time>2012-03-24T07:32:40Z</time>
      </trkpt>
      <trkpt lat="47.051754361018538" lon="6.845869543030858">
        <ele>1344.54</ele>
        <time>2012-03-24T07:32:41Z</time>
      </trkpt>
      <trkpt lat="47.051773807033896" lon="6.845887480303645">
        <ele>1344.54</ele>
        <time>2012-03-24T07:32:42Z</time>
      </trkpt>
      <trkpt lat="47.051795516163111" lon="6.845901729539037">
        <ele>1344.54</ele>
        <time>2012-03-24T07:32:43Z</time>
      </trkpt>
      <trkpt lat="47.051812196150422" lon="6.845925450325012">
        <ele>1345.02</ele>
        <time>2012-03-24T07:32:44Z</time>
      </trkpt>
      <trkpt lat="47.051827032119036" lon="6.845948165282607">
        <ele>1345.5</ele>
        <time>2012-03-24T07:32:45Z</time>
      </trkpt>
      <trkpt lat="47.051846226677299" lon="6.845962246879935">
        <ele>1345.5</ele>
        <time>2012-03-24T07:32:46Z</time>
      </trkpt>
      <trkpt lat="47.051866846159101" lon="6.845973646268249">
        <ele>1345.02</ele>
        <time>2012-03-24T07:32:47Z</time>
      </trkpt>
      <trkpt lat="47.051887214183807" lon="6.845994181931019">
        <ele>1345.98</ele>
        <time>2012-03-24T07:32:48Z</time>
      </trkpt>
      <trkpt lat="47.051906073465943" lon="6.846018573269248">
        <ele>1346.46</ele>
        <time>2012-03-24T07:32:49Z</time>
      </trkpt>
      <trkpt lat="47.051926609128714" lon="6.846041707322002">
        <ele>1346.46</ele>
        <time>2012-03-24T07:32:50Z</time>
      </trkpt>
      <trkpt lat="47.051950581371784" lon="6.846061572432518">
        <ele>1346.46</ele>
        <time>2012-03-24T07:32:51Z</time>
      </trkpt>
      <trkpt lat="47.051972290500998" lon="6.846083868294954">
        <ele>1345.98</ele>
        <time>2012-03-24T07:32:52Z</time>
      </trkpt>
      <trkpt lat="47.051991485059261" lon="6.846106164157391">
        <ele>1346.9400000000001</ele>
        <time>2012-03-24T07:32:53Z</time>
      </trkpt>
      <trkpt lat="47.052013864740729" lon="6.846120832487941">
        <ele>1346.9400000000001</ele>
        <time>2012-03-24T07:32:54Z</time>
      </trkpt>
      <trkpt lat="47.052036076784134" lon="6.846141535788775">
        <ele>1346.9400000000001</ele>
        <time>2012-03-24T07:32:55Z</time>
      </trkpt>
      <trkpt lat="47.052055858075619" lon="6.846174644306302">
        <ele>1346.9400000000001</ele>
        <time>2012-03-24T07:32:56Z</time>
      </trkpt>
      <trkpt lat="47.052076812833548" lon="6.846201382577419">
        <ele>1347.4300000000001</ele>
        <time>2012-03-24T07:32:57Z</time>
      </trkpt>
      <trkpt lat="47.052101539447904" lon="6.846222337335348">
        <ele>1347.4300000000001</ele>
        <time>2012-03-24T07:32:58Z</time>
      </trkpt>
      <trkpt lat="47.052122745662928" lon="6.8462541885674">
        <ele>1347.4300000000001</ele>
        <time>2012-03-24T07:32:59Z</time>
      </trkpt>
      <trkpt lat="47.052142694592476" lon="6.846282687038183">
        <ele>1347.4300000000001</ele>
        <time>2012-03-24T07:33:00Z</time>
      </trkpt>
      <trkpt lat="47.052165325731039" lon="6.846301211044192">
        <ele>1347.9100000000001</ele>
        <time>2012-03-24T07:33:01Z</time>
      </trkpt>
      <trkpt lat="47.052187118679285" lon="6.846330380067229">
        <ele>1347.9100000000001</ele>
        <time>2012-03-24T07:33:02Z</time>
      </trkpt>
      <trkpt lat="47.052209079265594" lon="6.846355777233839">
        <ele>1347.9100000000001</ele>
        <time>2012-03-24T07:33:03Z</time>
      </trkpt>
      <trkpt lat="47.052254760637879" lon="6.846402967348695">
        <ele>1347.4300000000001</ele>
        <time>2012-03-24T07:33:05Z</time>
      </trkpt>
      <trkpt lat="47.052276218309999" lon="6.84643154963851">
        <ele>1348.3900000000001</ele>
        <time>2012-03-24T07:33:06Z</time>
      </trkpt>
      <trkpt lat="47.052300274372101" lon="6.846453174948692">
        <ele>1347.4300000000001</ele>
        <time>2012-03-24T07:33:07Z</time>
      </trkpt>
      <trkpt lat="47.05232223495841" lon="6.846481170505285">
        <ele>1349.8299999999999</ele>
        <time>2012-03-24T07:33:08Z</time>
      </trkpt>
      <trkpt lat="47.052342435345054" lon="6.846508411690593">
        <ele>1348.8699999999999</ele>
        <time>2012-03-24T07:33:09Z</time>
      </trkpt>
      <trkpt lat="47.052364144474268" lon="6.84652735479176">
        <ele>1349.3499999999999</ele>
        <time>2012-03-24T07:33:10Z</time>
      </trkpt>
      <trkpt lat="47.052384009584785" lon="6.846553338691592">
        <ele>1349.8299999999999</ele>
        <time>2012-03-24T07:33:11Z</time>
      </trkpt>
      <trkpt lat="47.052401527762413" lon="6.846583597362042">
        <ele>1349.8299999999999</ele>
        <time>2012-03-24T07:33:12Z</time>
      </trkpt>
      <trkpt lat="47.052421476691961" lon="6.846607150509954">
        <ele>1349.8299999999999</ele>
        <time>2012-03-24T07:33:13Z</time>
      </trkpt>
      <trkpt lat="47.052441844716668" lon="6.846628608182073">
        <ele>1349.3499999999999</ele>
        <time>2012-03-24T07:33:14Z</time>
      </trkpt>
      <trkpt lat="47.052458608523011" lon="6.8466582801193">
        <ele>1349.3499999999999</ele>
        <time>2012-03-24T07:33:15Z</time>
      </trkpt>
      <trkpt lat="47.052476545795798" lon="6.846684599295259">
        <ele>1349.8299999999999</ele>
        <time>2012-03-24T07:33:16Z</time>
      </trkpt>
      <trkpt lat="47.052498254925013" lon="6.846704799681902">
        <ele>1349.8299999999999</ele>
        <time>2012-03-24T07:33:17Z</time>
      </trkpt>
      <trkpt lat="47.052520047873259" lon="6.846737321466208">
        <ele>1349.8299999999999</ele>
        <time>2012-03-24T07:33:18Z</time>
      </trkpt>
      <trkpt lat="47.052539242431521" lon="6.846770094707608">
        <ele>1349.8299999999999</ele>
        <time>2012-03-24T07:33:19Z</time>
      </trkpt>
      <trkpt lat="47.052562879398465" lon="6.846794569864869">
        <ele>1350.3099999999999</ele>
        <time>2012-03-24T07:33:20Z</time>
      </trkpt>
      <trkpt lat="47.052584672346711" lon="6.846822146326304">
        <ele>1350.3099999999999</ele>
        <time>2012-03-24T07:33:21Z</time>
      </trkpt>
      <trkpt lat="47.052600933238864" lon="6.846856009215117">
        <ele>1350.3099999999999</ele>
        <time>2012-03-24T07:33:22Z</time>
      </trkpt>
      <trkpt lat="47.052620043978095" lon="6.846885932609439">
        <ele>1350.79</ele>
        <time>2012-03-24T07:33:23Z</time>
      </trkpt>
      <trkpt lat="47.052642675116658" lon="6.846913425251842">
        <ele>1351.27</ele>
        <time>2012-03-24T07:33:24Z</time>
      </trkpt>
      <trkpt lat="47.052660277113318" lon="6.846949215978384">
        <ele>1350.79</ele>
        <time>2012-03-24T07:33:25Z</time>
      </trkpt>
      <trkpt lat="47.052679136395454" lon="6.846984000876546">
        <ele>1350.79</ele>
        <time>2012-03-24T07:33:26Z</time>
      </trkpt>
      <trkpt lat="47.052700007334352" lon="6.847010236233473">
        <ele>1350.79</ele>
        <time>2012-03-24T07:33:27Z</time>
      </trkpt>
      <trkpt lat="47.052719620987773" lon="6.847040830180049">
        <ele>1351.27</ele>
        <time>2012-03-24T07:33:28Z</time>
      </trkpt>
      <trkpt lat="47.05273462459445" lon="6.847076034173369">
        <ele>1351.75</ele>
        <time>2012-03-24T07:33:29Z</time>
      </trkpt>
      <trkpt lat="47.052756166085601" lon="6.847104281187058">
        <ele>1351.27</ele>
        <time>2012-03-24T07:33:30Z</time>
      </trkpt>
      <trkpt lat="47.052780808880925" lon="6.84713227674365">
        <ele>1352.23</ele>
        <time>2012-03-24T07:33:31Z</time>
      </trkpt>
      <trkpt lat="47.052798746153712" lon="6.847170917317271">
        <ele>1352.23</ele>
        <time>2012-03-24T07:33:32Z</time>
      </trkpt>
      <trkpt lat="47.052815509960055" lon="6.847208719700575">
        <ele>1352.71</ele>
        <time>2012-03-24T07:33:33Z</time>
      </trkpt>
      <trkpt lat="47.052835877984762" lon="6.847234619781375">
        <ele>1352.23</ele>
        <time>2012-03-24T07:33:34Z</time>
      </trkpt>
      <trkpt lat="47.052854066714644" lon="6.847265297546983">
        <ele>1352.71</ele>
        <time>2012-03-24T07:33:35Z</time>
      </trkpt>
      <trkpt lat="47.052869405597448" lon="6.847297232598066">
        <ele>1352.71</ele>
        <time>2012-03-24T07:33:36Z</time>
      </trkpt>
      <trkpt lat="47.052889605984092" lon="6.847318690270186">
        <ele>1353.1900000000001</ele>
        <time>2012-03-24T07:33:37Z</time>
      </trkpt>
      <trkpt lat="47.052910812199116" lon="6.847342746332288">
        <ele>1353.1900000000001</ele>
        <time>2012-03-24T07:33:38Z</time>
      </trkpt>
      <trkpt lat="47.052926737815142" lon="6.847376357764006">
        <ele>1353.6700000000001</ele>
        <time>2012-03-24T07:33:39Z</time>
      </trkpt>
      <trkpt lat="47.052942076697946" lon="6.847404185682535">
        <ele>1352.71</ele>
        <time>2012-03-24T07:33:40Z</time>
      </trkpt>
      <trkpt lat="47.052960768342018" lon="6.847426816821098">
        <ele>1353.6700000000001</ele>
        <time>2012-03-24T07:33:41Z</time>
      </trkpt>
      <trkpt lat="47.052978118881583" lon="6.847460260614753">
        <ele>1353.6700000000001</ele>
        <time>2012-03-24T07:33:42Z</time>
      </trkpt>
      <trkpt lat="47.052995972335339" lon="6.847495464608073">
        <ele>1354.1500000000001</ele>
        <time>2012-03-24T07:33:43Z</time>
      </trkpt>
      <trkpt lat="47.053016591817141" lon="6.847520023584366">
        <ele>1353.1900000000001</ele>
        <time>2012-03-24T07:33:44Z</time>
      </trkpt>
      <trkpt lat="47.05303561873734" lon="6.847547516226769">
        <ele>1353.1900000000001</ele>
        <time>2012-03-24T07:33:45Z</time>
      </trkpt>
      <trkpt lat="47.053051292896271" lon="6.84757886454463">
        <ele>1353.6700000000001</ele>
        <time>2012-03-24T07:33:46Z</time>
      </trkpt>
      <trkpt lat="47.053070068359375" lon="6.847605518996716">
        <ele>1354.1500000000001</ele>
        <time>2012-03-24T07:33:47Z</time>
      </trkpt>
      <trkpt lat="47.053090771660209" lon="6.847630580887198">
        <ele>1353.6700000000001</ele>
        <time>2012-03-24T07:33:48Z</time>
      </trkpt>
      <trkpt lat="47.053107786923647" lon="6.847664527595043">
        <ele>1353.1900000000001</ele>
        <time>2012-03-24T07:33:49Z</time>
      </trkpt>
      <trkpt lat="47.053125472739339" lon="6.847699312493205">
        <ele>1353.6700000000001</ele>
        <time>2012-03-24T07:33:50Z</time>
      </trkpt>
      <trkpt lat="47.053146678954363" lon="6.847725799307227">
        <ele>1354.1500000000001</ele>
        <time>2012-03-24T07:33:51Z</time>
      </trkpt>
      <trkpt lat="47.053164029493928" lon="6.84775915928185">
        <ele>1354.1500000000001</ele>
        <time>2012-03-24T07:33:52Z</time>
      </trkpt>
      <trkpt lat="47.053176686167717" lon="6.847788915038109">
        <ele>1354.6300000000001</ele>
        <time>2012-03-24T07:33:53Z</time>
      </trkpt>
      <trkpt lat="47.05319537781179" lon="6.847814060747623">
        <ele>1354.1500000000001</ele>
        <time>2012-03-24T07:33:54Z</time>
      </trkpt>
      <trkpt lat="47.053214991465211" lon="6.847842475399375">
        <ele>1355.1199999999999</ele>
        <time>2012-03-24T07:33:55Z</time>
      </trkpt>
      <trkpt lat="47.053228821605444" lon="6.847874578088522">
        <ele>1355.1199999999999</ele>
        <time>2012-03-24T07:33:56Z</time>
      </trkpt>
      <trkpt lat="47.053245836868882" lon="6.847902657464147">
        <ele>1354.6300000000001</ele>
        <time>2012-03-24T07:33:57Z</time>
      </trkpt>
      <trkpt lat="47.053266204893589" lon="6.84792771935463">
        <ele>1354.6300000000001</ele>
        <time>2012-03-24T07:33:58Z</time>
      </trkpt>
      <trkpt lat="47.053281543776393" lon="6.847964767366648">
        <ele>1355.5999999999999</ele>
        <time>2012-03-24T07:33:59Z</time>
      </trkpt>
      <trkpt lat="47.053298475220799" lon="6.847999049350619">
        <ele>1355.5999999999999</ele>
        <time>2012-03-24T07:34:00Z</time>
      </trkpt>
      <trkpt lat="47.053321441635489" lon="6.848027044907212">
        <ele>1355.5999999999999</ele>
        <time>2012-03-24T07:34:01Z</time>
      </trkpt>
      <trkpt lat="47.053342228755355" lon="6.848057387396693">
        <ele>1355.5999999999999</ele>
        <time>2012-03-24T07:34:02Z</time>
      </trkpt>
      <trkpt lat="47.053358322009444" lon="6.848091334104538">
        <ele>1355.5999999999999</ele>
        <time>2012-03-24T07:34:03Z</time>
      </trkpt>
      <trkpt lat="47.05337424762547" lon="6.848117653280497">
        <ele>1356.0799999999999</ele>
        <time>2012-03-24T07:34:04Z</time>
      </trkpt>
      <trkpt lat="47.053393609821796" lon="6.848142463713884">
        <ele>1355.5999999999999</ele>
        <time>2012-03-24T07:34:05Z</time>
      </trkpt>
      <trkpt lat="47.053409116342664" lon="6.848175153136253">
        <ele>1355.1199999999999</ele>
        <time>2012-03-24T07:34:06Z</time>
      </trkpt>
      <trkpt lat="47.053427807986736" lon="6.848206333816052">
        <ele>1355.5999999999999</ele>
        <time>2012-03-24T07:34:07Z</time>
      </trkpt>
      <trkpt lat="47.053450355306268" lon="6.848230892792344">
        <ele>1357.04</ele>
        <time>2012-03-24T07:34:08Z</time>
      </trkpt>
      <trkpt lat="47.053470136597753" lon="6.848261989653111">
        <ele>1356.5599999999999</ele>
        <time>2012-03-24T07:34:09Z</time>
      </trkpt>
      <trkpt lat="47.053486313670874" lon="6.848293002694845">
        <ele>1356.0799999999999</ele>
        <time>2012-03-24T07:34:10Z</time>
      </trkpt>
      <trkpt lat="47.053507436066866" lon="6.848317896947265">
        <ele>1357.04</ele>
        <time>2012-03-24T07:34:11Z</time>
      </trkpt>
      <trkpt lat="47.0535281393677" lon="6.848346646875143">
        <ele>1357.04</ele>
        <time>2012-03-24T07:34:12Z</time>
      </trkpt>
      <trkpt lat="47.053541634231806" lon="6.848379839211702">
        <ele>1356.5599999999999</ele>
        <time>2012-03-24T07:34:13Z</time>
      </trkpt>
      <trkpt lat="47.053555632010102" lon="6.848406996577978">
        <ele>1357.04</ele>
        <time>2012-03-24T07:34:14Z</time>
      </trkpt>
      <trkpt lat="47.053574910387397" lon="6.848433148115873">
        <ele>1357.52</ele>
        <time>2012-03-24T07:34:15Z</time>
      </trkpt>
      <trkpt lat="47.053589494898915" lon="6.848468938842416">
        <ele>1357.04</ele>
        <time>2012-03-24T07:34:16Z</time>
      </trkpt>
      <trkpt lat="47.053601900115609" lon="6.848502717912197">
        <ele>1356.5599999999999</ele>
        <time>2012-03-24T07:34:17Z</time>
      </trkpt>
      <trkpt lat="47.053621429949999" lon="6.848529204726219">
        <ele>1356.5599999999999</ele>
        <time>2012-03-24T07:34:18Z</time>
      </trkpt>
      <trkpt lat="47.053642133250833" lon="6.848557367920876">
        <ele>1358</ele>
        <time>2012-03-24T07:34:19Z</time>
      </trkpt>
      <trkpt lat="47.053657975047827" lon="6.848595254123211">
        <ele>1357.52</ele>
        <time>2012-03-24T07:34:20Z</time>
      </trkpt>
      <trkpt lat="47.053675074130297" lon="6.848628781735897">
        <ele>1357.52</ele>
        <time>2012-03-24T07:34:21Z</time>
      </trkpt>
      <trkpt lat="47.053697369992733" lon="6.848654095083475">
        <ele>1357.52</ele>
        <time>2012-03-24T07:34:22Z</time>
      </trkpt>
      <trkpt lat="47.053716396912932" lon="6.848689969629049">
        <ele>1358</ele>
        <time>2012-03-24T07:34:23Z</time>
      </trkpt>
      <trkpt lat="47.053730981424451" lon="6.848729448392987">
        <ele>1358.48</ele>
        <time>2012-03-24T07:34:24Z</time>
      </trkpt>
      <trkpt lat="47.05374950543046" lon="6.848758617416024">
        <ele>1358.48</ele>
        <time>2012-03-24T07:34:25Z</time>
      </trkpt>
      <trkpt lat="47.053768699988723" lon="6.848789043724537">
        <ele>1358</ele>
        <time>2012-03-24T07:34:26Z</time>
      </trkpt>
      <trkpt lat="47.053780686110258" lon="6.848825169727206">
        <ele>1358.96</ele>
        <time>2012-03-24T07:34:27Z</time>
      </trkpt>
      <trkpt lat="47.053793678060174" lon="6.848855596035719">
        <ele>1358.96</ele>
        <time>2012-03-24T07:34:28Z</time>
      </trkpt>
      <trkpt lat="47.0538130402565" lon="6.848880657926202">
        <ele>1359.4400000000001</ele>
        <time>2012-03-24T07:34:29Z</time>
      </trkpt>
      <trkpt lat="47.053831564262509" lon="6.848916448652744">
        <ele>1359.4400000000001</ele>
        <time>2012-03-24T07:34:30Z</time>
      </trkpt>
      <trkpt lat="47.05384774133563" lon="6.848953831940889">
        <ele>1360.4000000000001</ele>
        <time>2012-03-24T07:34:31Z</time>
      </trkpt>
      <trkpt lat="47.05386970192194" lon="6.848981995135546">
        <ele>1360.4000000000001</ele>
        <time>2012-03-24T07:34:32Z</time>
      </trkpt>
      <trkpt lat="47.053890153765678" lon="6.849013594910502">
        <ele>1360.4000000000001</ele>
        <time>2012-03-24T07:34:33Z</time>
      </trkpt>
      <trkpt lat="47.05390490591526" lon="6.849054666236043">
        <ele>1361.3599999999999</ele>
        <time>2012-03-24T07:34:34Z</time>
      </trkpt>
      <trkpt lat="47.05392099916935" lon="6.849093306809664">
        <ele>1361.3599999999999</ele>
        <time>2012-03-24T07:34:35Z</time>
      </trkpt>
      <trkpt lat="47.053942456841469" lon="6.849122559651732">
        <ele>1361.3599999999999</ele>
        <time>2012-03-24T07:34:36Z</time>
      </trkpt>
      <trkpt lat="47.053961399942636" lon="6.849156338721514">
        <ele>1361.3599999999999</ele>
        <time>2012-03-24T07:34:37Z</time>
      </trkpt>
      <trkpt lat="47.053975062444806" lon="6.849196488037705">
        <ele>1360.8800000000001</ele>
        <time>2012-03-24T07:34:38Z</time>
      </trkpt>
      <trkpt lat="47.053991574794054" lon="6.849231272935867">
        <ele>1360.8800000000001</ele>
        <time>2012-03-24T07:34:39Z</time>
      </trkpt>
      <trkpt lat="47.054013703018427" lon="6.849259436130524">
        <ele>1361.3599999999999</ele>
        <time>2012-03-24T07:34:40Z</time>
      </trkpt>
      <trkpt lat="47.054054690524936" lon="6.849323809146881">
        <ele>1360.8800000000001</ele>
        <time>2012-03-24T07:34:42Z</time>
      </trkpt>
      <trkpt lat="47.05408176407218" lon="6.849343171343207">
        <ele>1361.8399999999999</ele>
        <time>2012-03-24T07:34:43Z</time>
      </trkpt>
      <trkpt lat="47.054109256714582" lon="6.8493677303195">
        <ele>1361.8399999999999</ele>
        <time>2012-03-24T07:34:44Z</time>
      </trkpt>
      <trkpt lat="47.054130798205733" lon="6.849397486075759">
        <ele>1362.3299999999999</ele>
        <time>2012-03-24T07:34:45Z</time>
      </trkpt>
      <trkpt lat="47.054153177887201" lon="6.849417183548212">
        <ele>1361.8399999999999</ele>
        <time>2012-03-24T07:34:46Z</time>
      </trkpt>
      <trkpt lat="47.054176982492208" lon="6.849432690069079">
        <ele>1361.8399999999999</ele>
        <time>2012-03-24T07:34:47Z</time>
      </trkpt>
      <trkpt lat="47.054198104888201" lon="6.849456494674087">
        <ele>1361.3599999999999</ele>
        <time>2012-03-24T07:34:48Z</time>
      </trkpt>
      <trkpt lat="47.05421905964613" lon="6.849470408633351">
        <ele>1361.8399999999999</ele>
        <time>2012-03-24T07:34:49Z</time>
      </trkpt>
      <trkpt lat="47.054243618622422" lon="6.849471498280764">
        <ele>1361.3599999999999</ele>
        <time>2012-03-24T07:34:50Z</time>
      </trkpt>
      <trkpt lat="47.054266836494207" lon="6.84948599897325">
        <ele>1360.4000000000001</ele>
        <time>2012-03-24T07:34:51Z</time>
      </trkpt>
      <trkpt lat="47.054288042709231" lon="6.849500499665737">
        <ele>1362.3299999999999</ele>
        <time>2012-03-24T07:34:52Z</time>
      </trkpt>
      <trkpt lat="47.054312685504556" lon="6.849506366997957">
        <ele>1361.8399999999999</ele>
        <time>2012-03-24T07:34:53Z</time>
      </trkpt>
      <trkpt lat="47.054339926689863" lon="6.849518604576588">
        <ele>1361.3599999999999</ele>
        <time>2012-03-24T07:34:54Z</time>
      </trkpt>
      <trkpt lat="47.054366245865822" lon="6.849531177431345">
        <ele>1361.8399999999999</ele>
        <time>2012-03-24T07:34:55Z</time>
      </trkpt>
      <trkpt lat="47.054394073784351" lon="6.849539056420326">
        <ele>1362.8099999999999</ele>
        <time>2012-03-24T07:34:56Z</time>
      </trkpt>
      <trkpt lat="47.054422656074166" lon="6.849554479122162">
        <ele>1361.3599999999999</ele>
        <time>2012-03-24T07:34:57Z</time>
      </trkpt>
      <trkpt lat="47.054449478164315" lon="6.849575769156218">
        <ele>1363.29</ele>
        <time>2012-03-24T07:34:58Z</time>
      </trkpt>
      <trkpt lat="47.054479317739606" lon="6.849588006734848">
        <ele>1362.3299999999999</ele>
        <time>2012-03-24T07:34:59Z</time>
      </trkpt>
      <trkpt lat="47.054508151486516" lon="6.84959982521832">
        <ele>1362.8099999999999</ele>
        <time>2012-03-24T07:35:00Z</time>
      </trkpt>
      <trkpt lat="47.05453522503376" lon="6.849620947614312">
        <ele>1363.77</ele>
        <time>2012-03-24T07:35:01Z</time>
      </trkpt>
      <trkpt lat="47.05456112511456" lon="6.849638298153877">
        <ele>1363.29</ele>
        <time>2012-03-24T07:35:02Z</time>
      </trkpt>
      <trkpt lat="47.054589288309216" lon="6.849648356437683">
        <ele>1363.29</ele>
        <time>2012-03-24T07:35:03Z</time>
      </trkpt>
      <trkpt lat="47.054671011865139" lon="6.849699737504125">
        <ele>1363.77</ele>
        <time>2012-03-24T07:35:06Z</time>
      </trkpt>
      <trkpt lat="47.05470135435462" lon="6.84971516020596">
        <ele>1363.77</ele>
        <time>2012-03-24T07:35:07Z</time>
      </trkpt>
      <trkpt lat="47.054756339639425" lon="6.849748184904456">
        <ele>1364.25</ele>
        <time>2012-03-24T07:35:09Z</time>
      </trkpt>
      <trkpt lat="47.054784251376987" lon="6.849758578464389">
        <ele>1365.21</ele>
        <time>2012-03-24T07:35:10Z</time>
      </trkpt>
      <trkpt lat="47.054810486733913" lon="6.84977768920362">
        <ele>1364.73</ele>
        <time>2012-03-24T07:35:11Z</time>
      </trkpt>
      <trkpt lat="47.054837057366967" lon="6.849790932610631">
        <ele>1364.73</ele>
        <time>2012-03-24T07:35:12Z</time>
      </trkpt>
      <trkpt lat="47.054865220561624" lon="6.849801996722817">
        <ele>1364.25</ele>
        <time>2012-03-24T07:35:13Z</time>
      </trkpt>
      <trkpt lat="47.054894221946597" lon="6.849820353090763">
        <ele>1364.73</ele>
        <time>2012-03-24T07:35:14Z</time>
      </trkpt>
      <trkpt lat="47.054923223331571" lon="6.849832674488425">
        <ele>1364.25</ele>
        <time>2012-03-24T07:35:15Z</time>
      </trkpt>
      <trkpt lat="47.054952895268798" lon="6.849840637296438">
        <ele>1364.25</ele>
        <time>2012-03-24T07:35:16Z</time>
      </trkpt>
      <trkpt lat="47.054981393739581" lon="6.84985782019794">
        <ele>1364.25</ele>
        <time>2012-03-24T07:35:17Z</time>
      </trkpt>
      <trkpt lat="47.055012490600348" lon="6.849874332547188">
        <ele>1363.77</ele>
        <time>2012-03-24T07:35:18Z</time>
      </trkpt>
      <trkpt lat="47.055042581632733" lon="6.84988615103066">
        <ele>1363.77</ele>
        <time>2012-03-24T07:35:19Z</time>
      </trkpt>
      <trkpt lat="47.055073007941246" lon="6.849899226799607">
        <ele>1363.29</ele>
        <time>2012-03-24T07:35:20Z</time>
      </trkpt>
      <trkpt lat="47.05510200932622" lon="6.849915068596602">
        <ele>1363.77</ele>
        <time>2012-03-24T07:35:21Z</time>
      </trkpt>
      <trkpt lat="47.055164035409689" lon="6.849936945363879">
        <ele>1364.73</ele>
        <time>2012-03-24T07:35:23Z</time>
      </trkpt>
      <trkpt lat="47.055229665711522" lon="6.849969299510121">
        <ele>1364.25</ele>
        <time>2012-03-24T07:35:25Z</time>
      </trkpt>
      <trkpt lat="47.055264031514525" lon="6.849977849051356">
        <ele>1364.73</ele>
        <time>2012-03-24T07:35:26Z</time>
      </trkpt>
      <trkpt lat="47.055295715108514" lon="6.849998636171222">
        <ele>1364.25</ele>
        <time>2012-03-24T07:35:27Z</time>
      </trkpt>
      <trkpt lat="47.055327817797661" lon="6.850018668919802">
        <ele>1365.21</ele>
        <time>2012-03-24T07:35:28Z</time>
      </trkpt>
      <trkpt lat="47.055589500814676" lon="6.850164597854018">
        <ele>1364.25</ele>
        <time>2012-03-24T07:35:35Z</time>
      </trkpt>
      <trkpt lat="47.055853363126516" lon="6.850286219269037">
        <ele>1363.77</ele>
        <time>2012-03-24T07:35:41Z</time>
      </trkpt>
      <trkpt lat="47.05619459040463" lon="6.850387640297413">
        <ele>1361.3599999999999</ele>
        <time>2012-03-24T07:35:47Z</time>
      </trkpt>
      <trkpt lat="47.056255107745528" lon="6.850393591448665">
        <ele>1360.8800000000001</ele>
        <time>2012-03-24T07:35:48Z</time>
      </trkpt>
      <trkpt lat="47.056315541267395" lon="6.850386215373874">
        <ele>1360.8800000000001</ele>
        <time>2012-03-24T07:35:49Z</time>
      </trkpt>
      <trkpt lat="47.056375220417976" lon="6.850371463224292">
        <ele>1360.4000000000001</ele>
        <time>2012-03-24T07:35:50Z</time>
      </trkpt>
      <trkpt lat="47.056434396654367" lon="6.850347658619285">
        <ele>1359.9200000000001</ele>
        <time>2012-03-24T07:35:51Z</time>
      </trkpt>
      <trkpt lat="47.056497093290091" lon="6.850319327786565">
        <ele>1359.9200000000001</ele>
        <time>2012-03-24T07:35:52Z</time>
      </trkpt>
      <trkpt lat="47.056640507653356" lon="6.850277837365866">
        <ele>1358</ele>
        <time>2012-03-24T07:35:54Z</time>
      </trkpt>
      <trkpt lat="47.056718710809946" lon="6.850268701091409">
        <ele>1358</ele>
        <time>2012-03-24T07:35:55Z</time>
      </trkpt>
      <trkpt lat="47.056794231757522" lon="6.85026484541595">
        <ele>1357.52</ele>
        <time>2012-03-24T07:35:56Z</time>
      </trkpt>
      <trkpt lat="47.057078462094069" lon="6.850382527336478">
        <ele>1355.1199999999999</ele>
        <time>2012-03-24T07:36:00Z</time>
      </trkpt>
      <trkpt lat="47.057227408513427" lon="6.850500628352165">
        <ele>1355.1199999999999</ele>
        <time>2012-03-24T07:36:02Z</time>
      </trkpt>
      <trkpt lat="47.057369397953153" lon="6.850648233667016">
        <ele>1352.71</ele>
        <time>2012-03-24T07:36:04Z</time>
      </trkpt>
      <trkpt lat="47.057508453726768" lon="6.850796760991216">
        <ele>1351.75</ele>
        <time>2012-03-24T07:36:06Z</time>
      </trkpt>
      <trkpt lat="47.057918412610888" lon="6.851313589140773">
        <ele>1347.4300000000001</ele>
        <time>2012-03-24T07:36:13Z</time>
      </trkpt>
      <trkpt lat="47.057969458401203" lon="6.851376704871655">
        <ele>1347.4300000000001</ele>
        <time>2012-03-24T07:36:14Z</time>
      </trkpt>
      <trkpt lat="47.05848578363657" lon="6.851840140298009">
        <ele>1345.5</ele>
        <time>2012-03-24T07:36:24Z</time>
      </trkpt>
      <trkpt lat="47.058683931827545" lon="6.851999815553427">
        <ele>1343.5799999999999</ele>
        <time>2012-03-24T07:36:28Z</time>
      </trkpt>
      <trkpt lat="47.058883337303996" lon="6.852190000936389">
        <ele>1342.1400000000001</ele>
        <time>2012-03-24T07:36:32Z</time>
      </trkpt>
      <trkpt lat="47.05898517742753" lon="6.85229561291635">
        <ele>1341.6600000000001</ele>
        <time>2012-03-24T07:36:34Z</time>
      </trkpt>
      <trkpt lat="47.059163711965084" lon="6.852553272619844">
        <ele>1342.1400000000001</ele>
        <time>2012-03-24T07:36:38Z</time>
      </trkpt>
      <trkpt lat="47.059292374178767" lon="6.852751336991787">
        <ele>1340.22</ele>
        <time>2012-03-24T07:36:41Z</time>
      </trkpt>
      <trkpt lat="47.05937996506691" lon="6.852898355573416">
        <ele>1338.77</ele>
        <time>2012-03-24T07:36:43Z</time>
      </trkpt>
      <trkpt lat="47.05954366363585" lon="6.853227764368057">
        <ele>1336.3699999999999</ele>
        <time>2012-03-24T07:36:47Z</time>
      </trkpt>
      <trkpt lat="47.059633769094944" lon="6.853394228965044">
        <ele>1335.4100000000001</ele>
        <time>2012-03-24T07:36:49Z</time>
      </trkpt>
      <trkpt lat="47.059720354154706" lon="6.853583576157689">
        <ele>1334.9300000000001</ele>
        <time>2012-03-24T07:36:51Z</time>
      </trkpt>
      <trkpt lat="47.059942558407784" lon="6.85409814119339">
        <ele>1331.0799999999999</ele>
        <time>2012-03-24T07:36:56Z</time>
      </trkpt>
      <trkpt lat="47.06001715734601" lon="6.854324787855148">
        <ele>1330.1199999999999</ele>
        <time>2012-03-24T07:36:58Z</time>
      </trkpt>
      <trkpt lat="47.060133749619126" lon="6.854759473353624">
        <ele>1329.6400000000001</ele>
        <time>2012-03-24T07:37:02Z</time>
      </trkpt>
      <trkpt lat="47.060172976925969" lon="6.854972541332245">
        <ele>1329.1600000000001</ele>
        <time>2012-03-24T07:37:04Z</time>
      </trkpt>
      <trkpt lat="47.060213377699256" lon="6.855171443894506">
        <ele>1328.6800000000001</ele>
        <time>2012-03-24T07:37:06Z</time>
      </trkpt>
      <trkpt lat="47.060291329398751" lon="6.855556676164269">
        <ele>1326.76</ele>
        <time>2012-03-24T07:37:10Z</time>
      </trkpt>
      <trkpt lat="47.060520322993398" lon="6.856373324990273">
        <ele>1324.8299999999999</ele>
        <time>2012-03-24T07:37:20Z</time>
      </trkpt>
      <trkpt lat="47.060624342411757" lon="6.856644060462713">
        <ele>1324.8299999999999</ele>
        <time>2012-03-24T07:37:24Z</time>
      </trkpt>
      <trkpt lat="47.060750154778361" lon="6.856901803985238">
        <ele>1324.3499999999999</ele>
        <time>2012-03-24T07:37:28Z</time>
      </trkpt>
      <trkpt lat="47.061006892472506" lon="6.857277229428291">
        <ele>1324.8299999999999</ele>
        <time>2012-03-24T07:37:35Z</time>
      </trkpt>
      <trkpt lat="47.061092304065824" lon="6.85735585168004">
        <ele>1324.3499999999999</ele>
        <time>2012-03-24T07:37:37Z</time>
      </trkpt>
      <trkpt lat="47.061341162770987" lon="6.857466576620936">
        <ele>1324.3499999999999</ele>
        <time>2012-03-24T07:37:42Z</time>
      </trkpt>
      <trkpt lat="47.061390280723572" lon="6.857480574399233">
        <ele>1324.3499999999999</ele>
        <time>2012-03-24T07:37:43Z</time>
      </trkpt>
      <trkpt lat="47.061491198837757" lon="6.857519214972854">
        <ele>1323.8699999999999</ele>
        <time>2012-03-24T07:37:45Z</time>
      </trkpt>
      <trkpt lat="47.061540065333247" lon="6.857526004314423">
        <ele>1323.3900000000001</ele>
        <time>2012-03-24T07:37:46Z</time>
      </trkpt>
      <trkpt lat="47.061587758362293" lon="6.857539582997561">
        <ele>1324.3499999999999</ele>
        <time>2012-03-24T07:37:47Z</time>
      </trkpt>
      <trkpt lat="47.061633775010705" lon="6.857545701786876">
        <ele>1323.8699999999999</ele>
        <time>2012-03-24T07:37:48Z</time>
      </trkpt>
      <trkpt lat="47.0616789534688" lon="6.857541929930449">
        <ele>1323.3900000000001</ele>
        <time>2012-03-24T07:37:49Z</time>
      </trkpt>
      <trkpt lat="47.061723126098514" lon="6.85753514058888">
        <ele>1323.8699999999999</ele>
        <time>2012-03-24T07:37:50Z</time>
      </trkpt>
      <trkpt lat="47.061766125261784" lon="6.857521813362837">
        <ele>1324.3499999999999</ele>
        <time>2012-03-24T07:37:51Z</time>
      </trkpt>
      <trkpt lat="47.06180552020669" lon="6.857497841119766">
        <ele>1323.8699999999999</ele>
        <time>2012-03-24T07:37:52Z</time>
      </trkpt>
      <trkpt lat="47.061846340075135" lon="6.857473785057664">
        <ele>1323.3900000000001</ele>
        <time>2012-03-24T07:37:53Z</time>
      </trkpt>
      <trkpt lat="47.061885567381978" lon="6.857450567185879">
        <ele>1323.3900000000001</ele>
        <time>2012-03-24T07:37:54Z</time>
      </trkpt>
      <trkpt lat="47.061961591243744" lon="6.857404299080372">
        <ele>1324.3499999999999</ele>
        <time>2012-03-24T07:37:56Z</time>
      </trkpt>
      <trkpt lat="47.062003333121538" lon="6.857398264110088">
        <ele>1323.3900000000001</ele>
        <time>2012-03-24T07:37:57Z</time>
      </trkpt>
      <trkpt lat="47.062044655904174" lon="6.857396503910422">
        <ele>1323.8699999999999</ele>
        <time>2012-03-24T07:37:58Z</time>
      </trkpt>
      <trkpt lat="47.062084972858429" lon="6.857398096472025">
        <ele>1324.3499999999999</ele>
        <time>2012-03-24T07:37:59Z</time>
      </trkpt>
      <trkpt lat="47.062130235135555" lon="6.857409328222275">
        <ele>1324.3499999999999</ele>
        <time>2012-03-24T07:38:00Z</time>
      </trkpt>
      <trkpt lat="47.062174491584301" lon="6.85741594992578">
        <ele>1323.3900000000001</ele>
        <time>2012-03-24T07:38:01Z</time>
      </trkpt>
      <trkpt lat="47.062221597880125" lon="6.8574149440974">
        <ele>1323.8699999999999</ele>
        <time>2012-03-24T07:38:02Z</time>
      </trkpt>
      <trkpt lat="47.062270632013679" lon="6.857413602992892">
        <ele>1323.8699999999999</ele>
        <time>2012-03-24T07:38:03Z</time>
      </trkpt>
      <trkpt lat="47.06232100725174" lon="6.857417123392224">
        <ele>1323.8699999999999</ele>
        <time>2012-03-24T07:38:04Z</time>
      </trkpt>
      <trkpt lat="47.062368197366595" lon="6.857415111735463">
        <ele>1323.8699999999999</ele>
        <time>2012-03-24T07:38:05Z</time>
      </trkpt>
      <trkpt lat="47.062414884567261" lon="6.857406897470355">
        <ele>1324.3499999999999</ele>
        <time>2012-03-24T07:38:06Z</time>
      </trkpt>
      <trkpt lat="47.062464840710163" lon="6.857409244403243">
        <ele>1323.8699999999999</ele>
        <time>2012-03-24T07:38:07Z</time>
      </trkpt>
      <trkpt lat="47.062513623386621" lon="6.857413183897734">
        <ele>1323.8699999999999</ele>
        <time>2012-03-24T07:38:08Z</time>
      </trkpt>
      <trkpt lat="47.062560226768255" lon="6.857416452839971">
        <ele>1323.3900000000001</ele>
        <time>2012-03-24T07:38:09Z</time>
      </trkpt>
      <trkpt lat="47.062608925625682" lon="6.857429696246982">
        <ele>1323.8699999999999</ele>
        <time>2012-03-24T07:38:10Z</time>
      </trkpt>
      <trkpt lat="47.062658546492457" lon="6.85744964517653">
        <ele>1324.3499999999999</ele>
        <time>2012-03-24T07:38:11Z</time>
      </trkpt>
      <trkpt lat="47.062707329168916" lon="6.857467917725444">
        <ele>1323.3900000000001</ele>
        <time>2012-03-24T07:38:12Z</time>
      </trkpt>
      <trkpt lat="47.06275787204504" lon="6.857494236901403">
        <ele>1323.8699999999999</ele>
        <time>2012-03-24T07:38:13Z</time>
      </trkpt>
      <trkpt lat="47.062807157635689" lon="6.85753220692277">
        <ele>1323.8699999999999</ele>
        <time>2012-03-24T07:38:14Z</time>
      </trkpt>
      <trkpt lat="47.062854934483767" lon="6.857565818354487">
        <ele>1323.8699999999999</ele>
        <time>2012-03-24T07:38:15Z</time>
      </trkpt>
      <trkpt lat="47.062904303893447" lon="6.857592724263668">
        <ele>1323.3900000000001</ele>
        <time>2012-03-24T07:38:16Z</time>
      </trkpt>
      <trkpt lat="47.062950571998954" lon="6.857630359008908">
        <ele>1323.3900000000001</ele>
        <time>2012-03-24T07:38:17Z</time>
      </trkpt>
      <trkpt lat="47.062994409352541" lon="6.857668412849307">
        <ele>1323.3900000000001</ele>
        <time>2012-03-24T07:38:18Z</time>
      </trkpt>
      <trkpt lat="47.063038079068065" lon="6.857705460861325">
        <ele>1323.3900000000001</ele>
        <time>2012-03-24T07:38:19Z</time>
      </trkpt>
      <trkpt lat="47.063078731298447" lon="6.85775407589972">
        <ele>1322.9100000000001</ele>
        <time>2012-03-24T07:38:20Z</time>
      </trkpt>
      <trkpt lat="47.063120054081082" lon="6.857801266014576">
        <ele>1323.3900000000001</ele>
        <time>2012-03-24T07:38:21Z</time>
      </trkpt>
      <trkpt lat="47.063163137063384" lon="6.857841163873673">
        <ele>1322.9100000000001</ele>
        <time>2012-03-24T07:38:22Z</time>
      </trkpt>
      <trkpt lat="47.063202615827322" lon="6.857888605445623">
        <ele>1322.4300000000001</ele>
        <time>2012-03-24T07:38:23Z</time>
      </trkpt>
      <trkpt lat="47.063243100419641" lon="6.857934286817908">
        <ele>1322.4300000000001</ele>
        <time>2012-03-24T07:38:24Z</time>
      </trkpt>
      <trkpt lat="47.063327925279737" lon="6.858016010373831">
        <ele>1321.95</ele>
        <time>2012-03-24T07:38:26Z</time>
      </trkpt>
      <trkpt lat="47.063370672985911" lon="6.858060769736767">
        <ele>1322.4300000000001</ele>
        <time>2012-03-24T07:38:27Z</time>
      </trkpt>
      <trkpt lat="47.063455833122134" lon="6.858149031177163">
        <ele>1321.95</ele>
        <time>2012-03-24T07:38:29Z</time>
      </trkpt>
      <trkpt lat="47.063499502837658" lon="6.858198987320066">
        <ele>1321.47</ele>
        <time>2012-03-24T07:38:30Z</time>
      </trkpt>
      <trkpt lat="47.063544513657689" lon="6.858245758339763">
        <ele>1320.99</ele>
        <time>2012-03-24T07:38:31Z</time>
      </trkpt>
      <trkpt lat="47.063672002404928" lon="6.858404343947768">
        <ele>1320.51</ele>
        <time>2012-03-24T07:38:34Z</time>
      </trkpt>
      <trkpt lat="47.063844837248325" lon="6.858607437461615">
        <ele>1320.03</ele>
        <time>2012-03-24T07:38:38Z</time>
      </trkpt>
      <trkpt lat="47.064023455604911" lon="6.85880365781486">
        <ele>1319.55</ele>
        <time>2012-03-24T07:38:42Z</time>
      </trkpt>
      <trkpt lat="47.064111633226275" lon="6.858910610899329">
        <ele>1319.55</ele>
        <time>2012-03-24T07:38:44Z</time>
      </trkpt>
      <trkpt lat="47.064404580742121" lon="6.859219819307327">
        <ele>1319.0699999999999</ele>
        <time>2012-03-24T07:38:51Z</time>
      </trkpt>
      <trkpt lat="47.064482113346457" lon="6.859294921159744">
        <ele>1319.0699999999999</ele>
        <time>2012-03-24T07:38:53Z</time>
      </trkpt>
      <trkpt lat="47.064657714217901" lon="6.859446298331022">
        <ele>1318.5899999999999</ele>
        <time>2012-03-24T07:38:57Z</time>
      </trkpt>
      <trkpt lat="47.065152581781149" lon="6.85982289724052">
        <ele>1314.74</ele>
        <time>2012-03-24T07:39:06Z</time>
      </trkpt>
      <trkpt lat="47.065267246216536" lon="6.859957510605454">
        <ele>1314.26</ele>
        <time>2012-03-24T07:39:08Z</time>
      </trkpt>
      <trkpt lat="47.065381910651922" lon="6.860098578035832">
        <ele>1312.8199999999999</ele>
        <time>2012-03-24T07:39:10Z</time>
      </trkpt>
      <trkpt lat="47.065560696646571" lon="6.860313657671213">
        <ele>1310.4100000000001</ele>
        <time>2012-03-24T07:39:13Z</time>
      </trkpt>
      <trkpt lat="47.065863786265254" lon="6.860682712867856">
        <ele>1308.49</ele>
        <time>2012-03-24T07:39:18Z</time>
      </trkpt>
      <trkpt lat="47.06604240462184" lon="6.860906174406409">
        <ele>1307.05</ele>
        <time>2012-03-24T07:39:21Z</time>
      </trkpt>
      <trkpt lat="47.06623200327158" lon="6.861116141080856">
        <ele>1306.5699999999999</ele>
        <time>2012-03-24T07:39:24Z</time>
      </trkpt>
      <trkpt lat="47.066339375451207" lon="6.861276067793369">
        <ele>1305.6099999999999</ele>
        <time>2012-03-24T07:39:26Z</time>
      </trkpt>
      <trkpt lat="47.066629808396101" lon="6.861969251185656">
        <ele>1301.28</ele>
        <time>2012-03-24T07:39:32Z</time>
      </trkpt>
      <trkpt lat="47.066692756488919" lon="6.862084837630391">
        <ele>1300.8</ele>
        <time>2012-03-24T07:39:33Z</time>
      </trkpt>
      <trkpt lat="47.066982183605433" lon="6.862431010231376">
        <ele>1297.9200000000001</ele>
        <time>2012-03-24T07:39:37Z</time>
      </trkpt>
      <trkpt lat="47.067066505551338" lon="6.862482558935881">
        <ele>1296.96</ele>
        <time>2012-03-24T07:39:38Z</time>
      </trkpt>
      <trkpt lat="47.067147893831134" lon="6.862525390461087">
        <ele>1296.48</ele>
        <time>2012-03-24T07:39:39Z</time>
      </trkpt>
      <trkpt lat="47.067610491067171" lon="6.862726639956236">
        <ele>1293.5899999999999</ele>
        <time>2012-03-24T07:39:45Z</time>
      </trkpt>
      <trkpt lat="47.06798080354929" lon="6.862895032390952">
        <ele>1290.71</ele>
        <time>2012-03-24T07:39:50Z</time>
      </trkpt>
      <trkpt lat="47.068618666380644" lon="6.863165684044361">
        <ele>1289.27</ele>
        <time>2012-03-24T07:40:01Z</time>
      </trkpt>
      <trkpt lat="47.068669209256768" lon="6.863184878602624">
        <ele>1289.75</ele>
        <time>2012-03-24T07:40:02Z</time>
      </trkpt>
      <trkpt lat="47.068763505667448" lon="6.863212455064058">
        <ele>1289.27</ele>
        <time>2012-03-24T07:40:04Z</time>
      </trkpt>
      <trkpt lat="47.068853694945574" lon="6.863257298246026">
        <ele>1289.75</ele>
        <time>2012-03-24T07:40:06Z</time>
      </trkpt>
      <trkpt lat="47.068898202851415" lon="6.863278253003955">
        <ele>1288.78</ele>
        <time>2012-03-24T07:40:07Z</time>
      </trkpt>
      <trkpt lat="47.06894195638597" lon="6.863309349864721">
        <ele>1288.78</ele>
        <time>2012-03-24T07:40:08Z</time>
      </trkpt>
      <trkpt lat="47.069071037694812" lon="6.863371459767222">
        <ele>1289.75</ele>
        <time>2012-03-24T07:40:11Z</time>
      </trkpt>
      <trkpt lat="47.06915158778429" lon="6.863401718437672">
        <ele>1289.27</ele>
        <time>2012-03-24T07:40:13Z</time>
      </trkpt>
      <trkpt lat="47.069309502840042" lon="6.863469528034329">
        <ele>1289.75</ele>
        <time>2012-03-24T07:40:17Z</time>
      </trkpt>
      <trkpt lat="47.069466495886445" lon="6.863562148064375">
        <ele>1289.27</ele>
        <time>2012-03-24T07:40:21Z</time>
      </trkpt>
      <trkpt lat="47.069771345704794" lon="6.863737748935819">
        <ele>1290.71</ele>
        <time>2012-03-24T07:40:30Z</time>
      </trkpt>
      <trkpt lat="47.069950299337506" lon="6.863817209377885">
        <ele>1292.6300000000001</ele>
        <time>2012-03-24T07:40:36Z</time>
      </trkpt>
      <trkpt lat="47.07011952996254" lon="6.863905470818281">
        <ele>1292.6300000000001</ele>
        <time>2012-03-24T07:40:42Z</time>
      </trkpt>
      <trkpt lat="47.070451788604259" lon="6.864048382267356">
        <ele>1295.51</ele>
        <time>2012-03-24T07:40:52Z</time>
      </trkpt>
      <trkpt lat="47.070559579879045" lon="6.864120131358504">
        <ele>1296.48</ele>
        <time>2012-03-24T07:40:56Z</time>
      </trkpt>
      <trkpt lat="47.070684637874365" lon="6.864211997017264">
        <ele>1296.48</ele>
        <time>2012-03-24T07:41:00Z</time>
      </trkpt>
      <trkpt lat="47.070829728618264" lon="6.864380221813917">
        <ele>1295.51</ele>
        <time>2012-03-24T07:41:04Z</time>
      </trkpt>
      <trkpt lat="47.071100380271673" lon="6.864836784079671">
        <ele>1292.6300000000001</ele>
        <time>2012-03-24T07:41:10Z</time>
      </trkpt>
      <trkpt lat="47.071153856813908" lon="6.864921944215894">
        <ele>1292.6300000000001</ele>
        <time>2012-03-24T07:41:11Z</time>
      </trkpt>
      <trkpt lat="47.07145837135613" lon="6.865329388529062">
        <ele>1290.23</ele>
        <time>2012-03-24T07:41:16Z</time>
      </trkpt>
      <trkpt lat="47.071715192869306" lon="6.865635076537728">
        <ele>1287.3399999999999</ele>
        <time>2012-03-24T07:41:20Z</time>
      </trkpt>
      <trkpt lat="47.071841508150101" lon="6.865756111219525">
        <ele>1285.9000000000001</ele>
        <time>2012-03-24T07:41:22Z</time>
      </trkpt>
      <trkpt lat="47.072073686867952" lon="6.865930119529367">
        <ele>1285.9000000000001</ele>
        <time>2012-03-24T07:41:26Z</time>
      </trkpt>
      <trkpt lat="47.072246018797159" lon="6.866037240251899">
        <ele>1286.3800000000001</ele>
        <time>2012-03-24T07:41:30Z</time>
      </trkpt>
      <trkpt lat="47.072325060144067" lon="6.866081580519676">
        <ele>1285.4200000000001</ele>
        <time>2012-03-24T07:41:32Z</time>
      </trkpt>
      <trkpt lat="47.072368729859591" lon="6.866113850846887">
        <ele>1285.9000000000001</ele>
        <time>2012-03-24T07:41:33Z</time>
      </trkpt>
      <trkpt lat="47.072456236928701" lon="6.866170344874263">
        <ele>1285.4200000000001</ele>
        <time>2012-03-24T07:41:35Z</time>
      </trkpt>
      <trkpt lat="47.072499068453908" lon="6.866199849173427">
        <ele>1285.4200000000001</ele>
        <time>2012-03-24T07:41:36Z</time>
      </trkpt>
      <trkpt lat="47.072541899979115" lon="6.866230526939035">
        <ele>1285.4200000000001</ele>
        <time>2012-03-24T07:41:37Z</time>
      </trkpt>
      <trkpt lat="47.072582384571433" lon="6.866251397877932">
        <ele>1285.9000000000001</ele>
        <time>2012-03-24T07:41:38Z</time>
      </trkpt>
      <trkpt lat="47.072622366249561" lon="6.866276375949383">
        <ele>1285.4200000000001</ele>
        <time>2012-03-24T07:41:39Z</time>
      </trkpt>
      <trkpt lat="47.072662264108658" lon="6.866308562457562">
        <ele>1286.3800000000001</ele>
        <time>2012-03-24T07:41:40Z</time>
      </trkpt>
      <trkpt lat="47.07270291633904" lon="6.866332702338696">
        <ele>1285.9000000000001</ele>
        <time>2012-03-24T07:41:41Z</time>
      </trkpt>
      <trkpt lat="47.072744490578771" lon="6.866356087848544">
        <ele>1285.9000000000001</ele>
        <time>2012-03-24T07:41:42Z</time>
      </trkpt>
      <trkpt lat="47.072785645723343" lon="6.866384753957391">
        <ele>1285.9000000000001</ele>
        <time>2012-03-24T07:41:43Z</time>
      </trkpt>
      <trkpt lat="47.072824370115995" lon="6.866408558562398">
        <ele>1286.3800000000001</ele>
        <time>2012-03-24T07:41:44Z</time>
      </trkpt>
      <trkpt lat="47.072865525260568" lon="6.8664257414639">
        <ele>1285.9000000000001</ele>
        <time>2012-03-24T07:41:45Z</time>
      </trkpt>
      <trkpt lat="47.072908272966743" lon="6.866449294611812">
        <ele>1284.9400000000001</ele>
        <time>2012-03-24T07:41:46Z</time>
      </trkpt>
      <trkpt lat="47.072950266301632" lon="6.866474105045199">
        <ele>1284.46</ele>
        <time>2012-03-24T07:41:47Z</time>
      </trkpt>
      <trkpt lat="47.072991756722331" lon="6.866497993469238">
        <ele>1283.98</ele>
        <time>2012-03-24T07:41:48Z</time>
      </trkpt>
      <trkpt lat="47.073034755885601" lon="6.866526827216148">
        <ele>1283.98</ele>
        <time>2012-03-24T07:41:49Z</time>
      </trkpt>
      <trkpt lat="47.073125615715981" lon="6.866591032594442">
        <ele>1283.02</ele>
        <time>2012-03-24T07:41:51Z</time>
      </trkpt>
      <trkpt lat="47.073172470554709" lon="6.866619866341353">
        <ele>1282.0599999999999</ele>
        <time>2012-03-24T07:41:52Z</time>
      </trkpt>
      <trkpt lat="47.073221588507295" lon="6.866658255457878">
        <ele>1283.02</ele>
        <time>2012-03-24T07:41:53Z</time>
      </trkpt>
      <trkpt lat="47.073271628469229" lon="6.866699745878577">
        <ele>1282.54</ele>
        <time>2012-03-24T07:41:54Z</time>
      </trkpt>
      <trkpt lat="47.073324685916305" lon="6.866735033690929">
        <ele>1281.0899999999999</ele>
        <time>2012-03-24T07:41:55Z</time>
      </trkpt>
      <trkpt lat="47.073377659544349" lon="6.86677023768425">
        <ele>1281.5699999999999</ele>
        <time>2012-03-24T07:41:56Z</time>
      </trkpt>
      <trkpt lat="47.07342803478241" lon="6.866810051724315">
        <ele>1280.6099999999999</ele>
        <time>2012-03-24T07:41:57Z</time>
      </trkpt>
      <trkpt lat="47.0734769012779" lon="6.866842322051525">
        <ele>1282.0599999999999</ele>
        <time>2012-03-24T07:41:58Z</time>
      </trkpt>
      <trkpt lat="47.073708828538656" lon="6.866962937638164">
        <ele>1280.1300000000001</ele>
        <time>2012-03-24T07:42:03Z</time>
      </trkpt>
      <trkpt lat="47.074058521538973" lon="6.86712839640677">
        <ele>1277.73</ele>
        <time>2012-03-24T07:42:13Z</time>
      </trkpt>
      <trkpt lat="47.07404812797904" lon="6.867138706147671">
        <ele>1277.73</ele>
        <time>2012-03-24T07:42:27Z</time>
      </trkpt>
      <trkpt lat="47.074043015018106" lon="6.867136359214783">
        <ele>1277.73</ele>
        <time>2012-03-24T07:42:39Z</time>
      </trkpt>
      <trkpt lat="47.074041422456503" lon="6.867133257910609">
        <ele>1275.3299999999999</ele>
        <time>2012-03-24T07:42:51Z</time>
      </trkpt>
      <trkpt lat="47.074041170999408" lon="6.867133677005768">
        <ele>1278.6900000000001</ele>
        <time>2012-03-24T07:42:52Z</time>
      </trkpt>
      <trkpt lat="47.074040668085217" lon="6.867134515196085">
        <ele>1277.73</ele>
        <time>2012-03-24T07:42:53Z</time>
      </trkpt>
      <trkpt lat="47.074033040553331" lon="6.867090845480561">
        <ele>1276.77</ele>
        <time>2012-03-24T07:43:25Z</time>
      </trkpt>
      <trkpt lat="47.074040416628122" lon="6.867119511589408">
        <ele>1278.21</ele>
        <time>2012-03-24T07:43:35Z</time>
      </trkpt>
      <trkpt lat="47.074048295617104" lon="6.867146920412779">
        <ele>1279.6500000000001</ele>
        <time>2012-03-24T07:43:52Z</time>
      </trkpt>
      <trkpt lat="47.0740329567343" lon="6.867149854078889">
        <ele>1277.25</ele>
        <time>2012-03-24T07:44:00Z</time>
      </trkpt>
      <trkpt lat="47.074016695842147" lon="6.86714549548924">
        <ele>1278.21</ele>
        <time>2012-03-24T07:44:01Z</time>
      </trkpt>
      <trkpt lat="47.074000183492899" lon="6.86714256182313">
        <ele>1277.73</ele>
        <time>2012-03-24T07:44:02Z</time>
      </trkpt>
      <trkpt lat="47.073979312554002" lon="6.867140466347337">
        <ele>1278.21</ele>
        <time>2012-03-24T07:44:03Z</time>
      </trkpt>
      <trkpt lat="47.073955927044153" lon="6.867129905149341">
        <ele>1278.6900000000001</ele>
        <time>2012-03-24T07:44:04Z</time>
      </trkpt>
      <trkpt lat="47.073928769677877" lon="6.867122612893581">
        <ele>1278.21</ele>
        <time>2012-03-24T07:44:05Z</time>
      </trkpt>
      <trkpt lat="47.073899684473872" lon="6.867104759439826">
        <ele>1279.1700000000001</ele>
        <time>2012-03-24T07:44:06Z</time>
      </trkpt>
      <trkpt lat="47.073872862383723" lon="6.867084223777056">
        <ele>1278.6900000000001</ele>
        <time>2012-03-24T07:44:07Z</time>
      </trkpt>
      <trkpt lat="47.073843777179718" lon="6.86707366257906">
        <ele>1278.6900000000001</ele>
        <time>2012-03-24T07:44:08Z</time>
      </trkpt>
      <trkpt lat="47.073814356699586" lon="6.867055473849177">
        <ele>1278.6900000000001</ele>
        <time>2012-03-24T07:44:09Z</time>
      </trkpt>
      <trkpt lat="47.073783092200756" lon="6.867040973156691">
        <ele>1279.1700000000001</ele>
        <time>2012-03-24T07:44:10Z</time>
      </trkpt>
      <trkpt lat="47.073749983683228" lon="6.867039212957025">
        <ele>1278.6900000000001</ele>
        <time>2012-03-24T07:44:11Z</time>
      </trkpt>
      <trkpt lat="47.073525516316295" lon="6.866902755573392">
        <ele>1280.1300000000001</ele>
        <time>2012-03-24T07:44:18Z</time>
      </trkpt>
      <trkpt lat="47.073267521336675" lon="6.866698069497943">
        <ele>1280.6099999999999</ele>
        <time>2012-03-24T07:44:26Z</time>
      </trkpt>
      <trkpt lat="47.072996450588107" lon="6.86652154661715">
        <ele>1283.02</ele>
        <time>2012-03-24T07:44:35Z</time>
      </trkpt>
      <trkpt lat="47.072818083688617" lon="6.86640034429729">
        <ele>1283.5</ele>
        <time>2012-03-24T07:44:41Z</time>
      </trkpt>
      <trkpt lat="47.072701910510659" lon="6.866327757015824">
        <ele>1283.98</ele>
        <time>2012-03-24T07:44:45Z</time>
      </trkpt>
      <trkpt lat="47.072446513921022" lon="6.866169422864914">
        <ele>1283.98</ele>
        <time>2012-03-24T07:44:56Z</time>
      </trkpt>
      <trkpt lat="47.072405777871609" lon="6.86614285223186">
        <ele>1283.5</ele>
        <time>2012-03-24T07:44:59Z</time>
      </trkpt>
      <trkpt lat="47.07233008928597" lon="6.866100272163749">
        <ele>1283.5</ele>
        <time>2012-03-24T07:45:03Z</time>
      </trkpt>
      <trkpt lat="47.072240989655256" lon="6.866048220545054">
        <ele>1283.98</ele>
        <time>2012-03-24T07:45:07Z</time>
      </trkpt>
      <trkpt lat="47.071950975805521" lon="6.865852335467935">
        <ele>1283.5</ele>
        <time>2012-03-24T07:45:18Z</time>
      </trkpt>
      <trkpt lat="47.071837317198515" lon="6.865751584991813">
        <ele>1284.46</ele>
        <time>2012-03-24T07:45:22Z</time>
      </trkpt>
      <trkpt lat="47.07162793725729" lon="6.865535331889987">
        <ele>1284.9400000000001</ele>
        <time>2012-03-24T07:45:31Z</time>
      </trkpt>
      <trkpt lat="47.071502460166812" lon="6.865387978032231">
        <ele>1285.9000000000001</ele>
        <time>2012-03-24T07:45:36Z</time>
      </trkpt>
      <trkpt lat="47.071376396343112" lon="6.865256214514375">
        <ele>1287.3399999999999</ele>
        <time>2012-03-24T07:45:41Z</time>
      </trkpt>
      <trkpt lat="47.071219487115741" lon="6.865012301132083">
        <ele>1288.78</ele>
        <time>2012-03-24T07:45:50Z</time>
      </trkpt>
      <trkpt lat="47.071139942854643" lon="6.864884393289685">
        <ele>1290.71</ele>
        <time>2012-03-24T07:45:55Z</time>
      </trkpt>
      <trkpt lat="47.071088645607233" lon="6.864794958382845">
        <ele>1290.71</ele>
        <time>2012-03-24T07:45:58Z</time>
      </trkpt>
      <trkpt lat="47.070968197658658" lon="6.86459974385798">
        <ele>1292.6300000000001</ele>
        <time>2012-03-24T07:46:05Z</time>
      </trkpt>
      <trkpt lat="47.070917570963502" lon="6.864524306729436">
        <ele>1293.5899999999999</ele>
        <time>2012-03-24T07:46:08Z</time>
      </trkpt>
      <trkpt lat="47.070764601230621" lon="6.864303275942802">
        <ele>1295.03</ele>
        <time>2012-03-24T07:46:17Z</time>
      </trkpt>
      <trkpt lat="47.070568716153502" lon="6.864120718091726">
        <ele>1295.51</ele>
        <time>2012-03-24T07:46:25Z</time>
      </trkpt>
      <trkpt lat="47.07050752826035" lon="6.864068247377873">
        <ele>1295.99</ele>
        <time>2012-03-24T07:46:27Z</time>
      </trkpt>
      <trkpt lat="47.070288425311446" lon="6.863965652883053">
        <ele>1295.51</ele>
        <time>2012-03-24T07:46:32Z</time>
      </trkpt>
      <trkpt lat="47.069894643500447" lon="6.8637715280056">
        <ele>1293.1099999999999</ele>
        <time>2012-03-24T07:46:39Z</time>
      </trkpt>
      <trkpt lat="47.069438332691789" lon="6.863561561331153">
        <ele>1289.75</ele>
        <time>2012-03-24T07:46:46Z</time>
      </trkpt>
      <trkpt lat="47.069209087640047" lon="6.863447902724147">
        <ele>1289.75</ele>
        <time>2012-03-24T07:46:50Z</time>
      </trkpt>
      <trkpt lat="47.068888982757926" lon="6.863288730382919">
        <ele>1289.27</ele>
        <time>2012-03-24T07:46:56Z</time>
      </trkpt>
      <trkpt lat="47.068730229511857" lon="6.863219914957881">
        <ele>1289.27</ele>
        <time>2012-03-24T07:46:59Z</time>
      </trkpt>
      <trkpt lat="47.068442897871137" lon="6.863074656575918">
        <ele>1289.27</ele>
        <time>2012-03-24T07:47:05Z</time>
      </trkpt>
      <trkpt lat="47.068206779658794" lon="6.862964183092117">
        <ele>1289.27</ele>
        <time>2012-03-24T07:47:10Z</time>
      </trkpt>
      <trkpt lat="47.068163361400366" lon="6.862948257476091">
        <ele>1289.27</ele>
        <time>2012-03-24T07:47:11Z</time>
      </trkpt>
      <trkpt lat="47.068120697513223" lon="6.862928308546543">
        <ele>1289.27</ele>
        <time>2012-03-24T07:47:12Z</time>
      </trkpt>
      <trkpt lat="47.067998824641109" lon="6.862876173108816">
        <ele>1289.27</ele>
        <time>2012-03-24T07:47:15Z</time>
      </trkpt>
      <trkpt lat="47.067959513515234" lon="6.862854044884443">
        <ele>1289.27</ele>
        <time>2012-03-24T07:47:16Z</time>
      </trkpt>
      <trkpt lat="47.067919867113233" lon="6.862839544191957">
        <ele>1288.78</ele>
        <time>2012-03-24T07:47:17Z</time>
      </trkpt>
      <trkpt lat="47.067882483825088" lon="6.862831246107817">
        <ele>1289.75</ele>
        <time>2012-03-24T07:47:18Z</time>
      </trkpt>
      <trkpt lat="47.067844849079847" lon="6.862809201702476">
        <ele>1289.75</ele>
        <time>2012-03-24T07:47:19Z</time>
      </trkpt>
      <trkpt lat="47.067807465791702" lon="6.862793024629355">
        <ele>1289.75</ele>
        <time>2012-03-24T07:47:20Z</time>
      </trkpt>
      <trkpt lat="47.067772261798382" lon="6.862785900011659">
        <ele>1289.27</ele>
        <time>2012-03-24T07:47:21Z</time>
      </trkpt>
      <trkpt lat="47.067638905718923" lon="6.862741559743881">
        <ele>1290.23</ele>
        <time>2012-03-24T07:47:25Z</time>
      </trkpt>
      <trkpt lat="47.067604120820761" lon="6.862726723775268">
        <ele>1290.71</ele>
        <time>2012-03-24T07:47:26Z</time>
      </trkpt>
      <trkpt lat="47.067575035616755" lon="6.862718006595969">
        <ele>1290.23</ele>
        <time>2012-03-24T07:47:27Z</time>
      </trkpt>
      <trkpt lat="47.067546034231782" lon="6.862709373235703">
        <ele>1290.71</ele>
        <time>2012-03-24T07:47:28Z</time>
      </trkpt>
      <trkpt lat="47.067517451941967" lon="6.862696213647723">
        <ele>1290.71</ele>
        <time>2012-03-24T07:47:29Z</time>
      </trkpt>
      <trkpt lat="47.067491803318262" lon="6.862676935270429">
        <ele>1291.6700000000001</ele>
        <time>2012-03-24T07:47:30Z</time>
      </trkpt>
      <trkpt lat="47.06746481359005" lon="6.862670313566923">
        <ele>1291.6700000000001</ele>
        <time>2012-03-24T07:47:31Z</time>
      </trkpt>
      <trkpt lat="47.067432794719934" lon="6.862661261111498">
        <ele>1291.6700000000001</ele>
        <time>2012-03-24T07:47:32Z</time>
      </trkpt>
      <trkpt lat="47.067399686202407" lon="6.862641228362918">
        <ele>1291.6700000000001</ele>
        <time>2012-03-24T07:47:33Z</time>
      </trkpt>
      <trkpt lat="47.067369176074862" lon="6.862631253898144">
        <ele>1292.6300000000001</ele>
        <time>2012-03-24T07:47:34Z</time>
      </trkpt>
      <trkpt lat="47.067336486652493" lon="6.862621111795306">
        <ele>1292.1500000000001</ele>
        <time>2012-03-24T07:47:35Z</time>
      </trkpt>
      <trkpt lat="47.067303797230124" lon="6.862600743770599">
        <ele>1291.6700000000001</ele>
        <time>2012-03-24T07:47:36Z</time>
      </trkpt>
      <trkpt lat="47.06727379001677" lon="6.862580794841051">
        <ele>1292.6300000000001</ele>
        <time>2012-03-24T07:47:37Z</time>
      </trkpt>
      <trkpt lat="47.067243866622448" lon="6.862571071833372">
        <ele>1292.6300000000001</ele>
        <time>2012-03-24T07:47:38Z</time>
      </trkpt>
      <trkpt lat="47.067212099209428" lon="6.862559840083122">
        <ele>1293.1099999999999</ele>
        <time>2012-03-24T07:47:39Z</time>
      </trkpt>
      <trkpt lat="47.067181086167693" lon="6.862540729343891">
        <ele>1292.6300000000001</ele>
        <time>2012-03-24T07:47:40Z</time>
      </trkpt>
      <trkpt lat="47.067149905487895" lon="6.862527066841722">
        <ele>1292.6300000000001</ele>
        <time>2012-03-24T07:47:41Z</time>
      </trkpt>
      <trkpt lat="47.067118305712938" lon="6.862516338005662">
        <ele>1292.6300000000001</ele>
        <time>2012-03-24T07:47:42Z</time>
      </trkpt>
      <trkpt lat="47.067089136689901" lon="6.862499574199319">
        <ele>1294.0699999999999</ele>
        <time>2012-03-24T07:47:43Z</time>
      </trkpt>
      <trkpt lat="47.067060638219118" lon="6.862478787079454">
        <ele>1293.1099999999999</ele>
        <time>2012-03-24T07:47:44Z</time>
      </trkpt>
      <trkpt lat="47.067032223567367" lon="6.862466549500823">
        <ele>1293.1099999999999</ele>
        <time>2012-03-24T07:47:45Z</time>
      </trkpt>
      <trkpt lat="47.067005485296249" lon="6.862447606399655">
        <ele>1294.0699999999999</ele>
        <time>2012-03-24T07:47:46Z</time>
      </trkpt>
      <trkpt lat="47.066978495568037" lon="6.862426986917853">
        <ele>1293.5899999999999</ele>
        <time>2012-03-24T07:47:47Z</time>
      </trkpt>
      <trkpt lat="47.066950500011444" lon="6.862413575872779">
        <ele>1293.5899999999999</ele>
        <time>2012-03-24T07:47:48Z</time>
      </trkpt>
      <trkpt lat="47.066923091188073" lon="6.862396476790309">
        <ele>1294.55</ele>
        <time>2012-03-24T07:47:49Z</time>
      </trkpt>
      <trkpt lat="47.066898448392749" lon="6.862362278625369">
        <ele>1294.55</ele>
        <time>2012-03-24T07:47:50Z</time>
      </trkpt>
      <trkpt lat="47.066874979063869" lon="6.862335791811347">
        <ele>1295.03</ele>
        <time>2012-03-24T07:47:51Z</time>
      </trkpt>
      <trkpt lat="47.066850000992417" lon="6.86231735162437">
        <ele>1295.03</ele>
        <time>2012-03-24T07:47:52Z</time>
      </trkpt>
      <trkpt lat="47.066824184730649" lon="6.862287428230047">
        <ele>1294.55</ele>
        <time>2012-03-24T07:47:53Z</time>
      </trkpt>
      <trkpt lat="47.066800212487578" lon="6.862253146246076">
        <ele>1295.03</ele>
        <time>2012-03-24T07:47:54Z</time>
      </trkpt>
      <trkpt lat="47.066775150597095" lon="6.862230179831386">
        <ele>1294.55</ele>
        <time>2012-03-24T07:47:55Z</time>
      </trkpt>
      <trkpt lat="47.06675193272531" lon="6.862199166789651">
        <ele>1295.51</ele>
        <time>2012-03-24T07:47:56Z</time>
      </trkpt>
      <trkpt lat="47.06673726439476" lon="6.862159436568618">
        <ele>1295.51</ele>
        <time>2012-03-24T07:47:57Z</time>
      </trkpt>
      <trkpt lat="47.066721506416798" lon="6.862124316394329">
        <ele>1295.99</ele>
        <time>2012-03-24T07:47:58Z</time>
      </trkpt>
      <trkpt lat="47.066697366535664" lon="6.862097159028053">
        <ele>1295.99</ele>
        <time>2012-03-24T07:47:59Z</time>
      </trkpt>
      <trkpt lat="47.066677920520306" lon="6.862061368301511">
        <ele>1295.51</ele>
        <time>2012-03-24T07:48:00Z</time>
      </trkpt>
      <trkpt lat="47.066661491990089" lon="6.862018536776304">
        <ele>1295.99</ele>
        <time>2012-03-24T07:48:01Z</time>
      </trkpt>
      <trkpt lat="47.066644979640841" lon="6.86198609881103">
        <ele>1296.48</ele>
        <time>2012-03-24T07:48:02Z</time>
      </trkpt>
      <trkpt lat="47.066626958549023" lon="6.861959947273135">
        <ele>1296.48</ele>
        <time>2012-03-24T07:48:03Z</time>
      </trkpt>
      <trkpt lat="47.066610949113965" lon="6.86192449182272">
        <ele>1296.48</ele>
        <time>2012-03-24T07:48:04Z</time>
      </trkpt>
      <trkpt lat="47.066595610231161" lon="6.86188836582005">
        <ele>1296.96</ele>
        <time>2012-03-24T07:48:05Z</time>
      </trkpt>
      <trkpt lat="47.066576834768057" lon="6.861859867349267">
        <ele>1296.48</ele>
        <time>2012-03-24T07:48:06Z</time>
      </trkpt>
      <trkpt lat="47.066489830613136" lon="6.861639255657792">
        <ele>1298.4000000000001</ele>
        <time>2012-03-24T07:48:13Z</time>
      </trkpt>
      <trkpt lat="47.066408526152372" lon="6.861412608996034">
        <ele>1300.8</ele>
        <time>2012-03-24T07:48:21Z</time>
      </trkpt>
      <trkpt lat="47.066319761797786" lon="6.861222926527262">
        <ele>1302.72</ele>
        <time>2012-03-24T07:48:28Z</time>
      </trkpt>
      <trkpt lat="47.066167127341032" lon="6.861045900732279">
        <ele>1304.6500000000001</ele>
        <time>2012-03-24T07:48:35Z</time>
      </trkpt>
      <trkpt lat="47.06612060777843" lon="6.860985886305571">
        <ele>1305.1300000000001</ele>
        <time>2012-03-24T07:48:37Z</time>
      </trkpt>
      <trkpt lat="47.066051540896297" lon="6.860903995111585">
        <ele>1305.6099999999999</ele>
        <time>2012-03-24T07:48:40Z</time>
      </trkpt>
      <trkpt lat="47.065826235339046" lon="6.860654717311263">
        <ele>1307.05</ele>
        <time>2012-03-24T07:48:49Z</time>
      </trkpt>
      <trkpt lat="47.065784493461251" lon="6.860580872744322">
        <ele>1307.53</ele>
        <time>2012-03-24T07:48:51Z</time>
      </trkpt>
      <trkpt lat="47.065735878422856" lon="6.860520439222455">
        <ele>1306.5699999999999</ele>
        <time>2012-03-24T07:48:53Z</time>
      </trkpt>
      <trkpt lat="47.065679468214512" lon="6.860473332926631">
        <ele>1307.53</ele>
        <time>2012-03-24T07:48:55Z</time>
      </trkpt>
      <trkpt lat="47.065524570643902" lon="6.860294882208109">
        <ele>1309.45</ele>
        <time>2012-03-24T07:49:02Z</time>
      </trkpt>
      <trkpt lat="47.065380737185478" lon="6.860131602734327">
        <ele>1310.4100000000001</ele>
        <time>2012-03-24T07:49:09Z</time>
      </trkpt>
      <trkpt lat="47.065254924818873" lon="6.859943009912968">
        <ele>1310.9000000000001</ele>
        <time>2012-03-24T07:49:16Z</time>
      </trkpt>
      <trkpt lat="47.065076557919383" lon="6.859751986339688">
        <ele>1313.3</ele>
        <time>2012-03-24T07:49:25Z</time>
      </trkpt>
      <trkpt lat="47.06492300145328" lon="6.859610499814153">
        <ele>1314.74</ele>
        <time>2012-03-24T07:49:32Z</time>
      </trkpt>
      <trkpt lat="47.064750250428915" lon="6.8594940751791">
        <ele>1316.6600000000001</ele>
        <time>2012-03-24T07:49:39Z</time>
      </trkpt>
      <trkpt lat="47.064702305942774" lon="6.859449818730354">
        <ele>1316.1800000000001</ele>
        <time>2012-03-24T07:49:41Z</time>
      </trkpt>
      <trkpt lat="47.06446560099721" lon="6.859239265322685">
        <ele>1317.6199999999999</ele>
        <time>2012-03-24T07:49:51Z</time>
      </trkpt>
      <trkpt lat="47.06427114084363" lon="6.8590640835464">
        <ele>1318.5899999999999</ele>
        <time>2012-03-24T07:49:58Z</time>
      </trkpt>
      <trkpt lat="47.064137868583202" lon="6.85893408022821">
        <ele>1319.0699999999999</ele>
        <time>2012-03-24T07:50:02Z</time>
      </trkpt>
      <trkpt lat="47.064045164734125" lon="6.858826037496328">
        <ele>1318.5899999999999</ele>
        <time>2012-03-24T07:50:05Z</time>
      </trkpt>
      <trkpt lat="47.06386411562562" lon="6.858633337542415">
        <ele>1319.0699999999999</ele>
        <time>2012-03-24T07:50:11Z</time>
      </trkpt>
      <trkpt lat="47.063780799508095" lon="6.858529653400183">
        <ele>1319.0699999999999</ele>
        <time>2012-03-24T07:50:14Z</time>
      </trkpt>
      <trkpt lat="47.063553985208273" lon="6.858259923756123">
        <ele>1320.51</ele>
        <time>2012-03-24T07:50:22Z</time>
      </trkpt>
      <trkpt lat="47.063411409035325" lon="6.858092034235597">
        <ele>1320.51</ele>
        <time>2012-03-24T07:50:27Z</time>
      </trkpt>
      <trkpt lat="47.063264641910791" lon="6.857947865501046">
        <ele>1321.47</ele>
        <time>2012-03-24T07:50:32Z</time>
      </trkpt>
      <trkpt lat="47.063162969425321" lon="6.857854910194874">
        <ele>1321.47</ele>
        <time>2012-03-24T07:50:35Z</time>
      </trkpt>
      <trkpt lat="47.063127430155873" lon="6.857817191630602">
        <ele>1321.47</ele>
        <time>2012-03-24T07:50:36Z</time>
      </trkpt>
      <trkpt lat="47.063021063804626" lon="6.857726080343127">
        <ele>1321.95</ele>
        <time>2012-03-24T07:50:39Z</time>
      </trkpt>
      <trkpt lat="47.062988374382257" lon="6.857687691226602">
        <ele>1321.47</ele>
        <time>2012-03-24T07:50:40Z</time>
      </trkpt>
      <trkpt lat="47.06295182928443" lon="6.857657851651311">
        <ele>1321.95</ele>
        <time>2012-03-24T07:50:41Z</time>
      </trkpt>
      <trkpt lat="47.062914781272411" lon="6.857627928256989">
        <ele>1322.4300000000001</ele>
        <time>2012-03-24T07:50:42Z</time>
      </trkpt>
      <trkpt lat="47.062835739925504" lon="6.857555592432618">
        <ele>1322.9100000000001</ele>
        <time>2012-03-24T07:50:44Z</time>
      </trkpt>
      <trkpt lat="47.06275544129312" lon="6.857505133375526">
        <ele>1322.9100000000001</ele>
        <time>2012-03-24T07:50:46Z</time>
      </trkpt>
      <trkpt lat="47.062719650566578" lon="6.857480406761169">
        <ele>1322.4300000000001</ele>
        <time>2012-03-24T07:50:47Z</time>
      </trkpt>
      <trkpt lat="47.062683356925845" lon="6.857460709288716">
        <ele>1322.4300000000001</ele>
        <time>2012-03-24T07:50:48Z</time>
      </trkpt>
      <trkpt lat="47.062644967809319" lon="6.857440005987883">
        <ele>1322.9100000000001</ele>
        <time>2012-03-24T07:50:49Z</time>
      </trkpt>
      <trkpt lat="47.062605991959572" lon="6.857420559972525">
        <ele>1322.9100000000001</ele>
        <time>2012-03-24T07:50:50Z</time>
      </trkpt>
      <trkpt lat="47.062565423548222" lon="6.857411675155163">
        <ele>1322.9100000000001</ele>
        <time>2012-03-24T07:50:51Z</time>
      </trkpt>
      <trkpt lat="47.062523933127522" lon="6.857406059280038">
        <ele>1322.9100000000001</ele>
        <time>2012-03-24T07:50:52Z</time>
      </trkpt>
      <trkpt lat="47.062480933964252" lon="6.85739834792912">
        <ele>1322.9100000000001</ele>
        <time>2012-03-24T07:50:53Z</time>
      </trkpt>
      <trkpt lat="47.062440197914839" lon="6.857399102300406">
        <ele>1323.3900000000001</ele>
        <time>2012-03-24T07:50:54Z</time>
      </trkpt>
      <trkpt lat="47.062400467693806" lon="6.85740471817553">
        <ele>1323.8699999999999</ele>
        <time>2012-03-24T07:50:55Z</time>
      </trkpt>
      <trkpt lat="47.062359061092138" lon="6.85740077868104">
        <ele>1323.3900000000001</ele>
        <time>2012-03-24T07:50:56Z</time>
      </trkpt>
      <trkpt lat="47.062319330871105" lon="6.857398767024279">
        <ele>1323.3900000000001</ele>
        <time>2012-03-24T07:50:57Z</time>
      </trkpt>
      <trkpt lat="47.06228144466877" lon="6.857406059280038">
        <ele>1322.9100000000001</ele>
        <time>2012-03-24T07:50:58Z</time>
      </trkpt>
      <trkpt lat="47.062243726104498" lon="6.85740614309907">
        <ele>1323.3900000000001</ele>
        <time>2012-03-24T07:50:59Z</time>
      </trkpt>
      <trkpt lat="47.062205839902163" lon="6.857403125613928">
        <ele>1323.8699999999999</ele>
        <time>2012-03-24T07:51:00Z</time>
      </trkpt>
      <trkpt lat="47.062168205156922" lon="6.857407568022609">
        <ele>1323.8699999999999</ele>
        <time>2012-03-24T07:51:01Z</time>
      </trkpt>
      <trkpt lat="47.06212998367846" lon="6.857408825308085">
        <ele>1324.3499999999999</ele>
        <time>2012-03-24T07:51:02Z</time>
      </trkpt>
      <trkpt lat="47.062085727229714" lon="6.857400191947818">
        <ele>1324.3499999999999</ele>
        <time>2012-03-24T07:51:03Z</time>
      </trkpt>
      <trkpt lat="47.062042895704508" lon="6.857396503910422">
        <ele>1322.9100000000001</ele>
        <time>2012-03-24T07:51:04Z</time>
      </trkpt>
      <trkpt lat="47.06200048327446" lon="6.857391893863678">
        <ele>1324.3499999999999</ele>
        <time>2012-03-24T07:51:05Z</time>
      </trkpt>
      <trkpt lat="47.061959076672792" lon="6.857378734275699">
        <ele>1323.8699999999999</ele>
        <time>2012-03-24T07:51:06Z</time>
      </trkpt>
      <trkpt lat="47.061918508261442" lon="6.857367670163512">
        <ele>1323.8699999999999</ele>
        <time>2012-03-24T07:51:07Z</time>
      </trkpt>
      <trkpt lat="47.061880119144917" lon="6.857360126450658">
        <ele>1323.8699999999999</ele>
        <time>2012-03-24T07:51:08Z</time>
      </trkpt>
      <trkpt lat="47.061839969828725" lon="6.857336489483714">
        <ele>1323.8699999999999</ele>
        <time>2012-03-24T07:51:09Z</time>
      </trkpt>
      <trkpt lat="47.061801748350263" lon="6.857312601059675">
        <ele>1323.8699999999999</ele>
        <time>2012-03-24T07:51:10Z</time>
      </trkpt>
      <trkpt lat="47.061763275414705" lon="6.857291394844651">
        <ele>1323.3900000000001</ele>
        <time>2012-03-24T07:51:11Z</time>
      </trkpt>
      <trkpt lat="47.061730669811368" lon="6.857255352661014">
        <ele>1323.8699999999999</ele>
        <time>2012-03-24T07:51:12Z</time>
      </trkpt>
      <trkpt lat="47.06170292571187" lon="6.857217215001583">
        <ele>1323.8699999999999</ele>
        <time>2012-03-24T07:51:13Z</time>
      </trkpt>
      <trkpt lat="47.061673505231738" lon="6.857185196131468">
        <ele>1322.9100000000001</ele>
        <time>2012-03-24T07:51:14Z</time>
      </trkpt>
      <trkpt lat="47.06164819188416" lon="6.857147645205259">
        <ele>1324.3499999999999</ele>
        <time>2012-03-24T07:51:15Z</time>
      </trkpt>
      <trkpt lat="47.061508130282164" lon="6.856858972460032">
        <ele>1324.8299999999999</ele>
        <time>2012-03-24T07:51:22Z</time>
      </trkpt>
      <trkpt lat="47.061491366475821" lon="6.856810189783573">
        <ele>1324.8299999999999</ele>
        <time>2012-03-24T07:51:23Z</time>
      </trkpt>
      <trkpt lat="47.061471249908209" lon="6.856765849515796">
        <ele>1324.8299999999999</ele>
        <time>2012-03-24T07:51:24Z</time>
      </trkpt>
      <trkpt lat="47.061452306807041" lon="6.85671916231513">
        <ele>1324.3499999999999</ele>
        <time>2012-03-24T07:51:25Z</time>
      </trkpt>
      <trkpt lat="47.061433866620064" lon="6.856666188687086">
        <ele>1325.3099999999999</ele>
        <time>2012-03-24T07:51:26Z</time>
      </trkpt>
      <trkpt lat="47.061413414776325" lon="6.856620255857706">
        <ele>1324.8299999999999</ele>
        <time>2012-03-24T07:51:27Z</time>
      </trkpt>
      <trkpt lat="47.061392376199365" lon="6.856571221724153">
        <ele>1325.3099999999999</ele>
        <time>2012-03-24T07:51:28Z</time>
      </trkpt>
      <trkpt lat="47.061377791687846" lon="6.856513051316142">
        <ele>1324.8299999999999</ele>
        <time>2012-03-24T07:51:29Z</time>
      </trkpt>
      <trkpt lat="47.06136186607182" lon="6.856458401307464">
        <ele>1324.8299999999999</ele>
        <time>2012-03-24T07:51:30Z</time>
      </trkpt>
      <trkpt lat="47.061340240761638" lon="6.856407104060054">
        <ele>1325.3099999999999</ele>
        <time>2012-03-24T07:51:31Z</time>
      </trkpt>
      <trkpt lat="47.061322638764977" lon="6.856347760185599">
        <ele>1325.3099999999999</ele>
        <time>2012-03-24T07:51:32Z</time>
      </trkpt>
      <trkpt lat="47.061304198578" lon="6.856288332492113">
        <ele>1325.3099999999999</ele>
        <time>2012-03-24T07:51:33Z</time>
      </trkpt>
      <trkpt lat="47.061282489448786" lon="6.856230832636356">
        <ele>1325.3099999999999</ele>
        <time>2012-03-24T07:51:34Z</time>
      </trkpt>
      <trkpt lat="47.061263713985682" lon="6.856165872886777">
        <ele>1325.8</ele>
        <time>2012-03-24T07:51:35Z</time>
      </trkpt>
      <trkpt lat="47.061246111989021" lon="6.856097979471088">
        <ele>1325.8</ele>
        <time>2012-03-24T07:51:36Z</time>
      </trkpt>
      <trkpt lat="47.061223983764648" lon="6.856040144339204">
        <ele>1325.8</ele>
        <time>2012-03-24T07:51:37Z</time>
      </trkpt>
      <trkpt lat="47.061204789206386" lon="6.855981051921845">
        <ele>1325.8</ele>
        <time>2012-03-24T07:51:38Z</time>
      </trkpt>
      <trkpt lat="47.061189785599709" lon="6.855919696390629">
        <ele>1325.8</ele>
        <time>2012-03-24T07:51:39Z</time>
      </trkpt>
      <trkpt lat="47.061172518879175" lon="6.855861358344555">
        <ele>1326.28</ele>
        <time>2012-03-24T07:51:40Z</time>
      </trkpt>
      <trkpt lat="47.061152821406722" lon="6.855807965621352">
        <ele>1325.8</ele>
        <time>2012-03-24T07:51:41Z</time>
      </trkpt>
      <trkpt lat="47.061135554686189" lon="6.8557502143085">
        <ele>1325.8</ele>
        <time>2012-03-24T07:51:42Z</time>
      </trkpt>
      <trkpt lat="47.061119209975004" lon="6.855697073042393">
        <ele>1325.8</ele>
        <time>2012-03-24T07:51:43Z</time>
      </trkpt>
      <trkpt lat="47.061095740646124" lon="6.855649296194315">
        <ele>1326.28</ele>
        <time>2012-03-24T07:51:44Z</time>
      </trkpt>
      <trkpt lat="47.06107403151691" lon="6.855598166584969">
        <ele>1325.8</ele>
        <time>2012-03-24T07:51:45Z</time>
      </trkpt>
      <trkpt lat="47.061053076758981" lon="6.855544187128544">
        <ele>1326.28</ele>
        <time>2012-03-24T07:51:46Z</time>
      </trkpt>
      <trkpt lat="47.0610261708498" lon="6.85549758374691">
        <ele>1326.76</ele>
        <time>2012-03-24T07:51:47Z</time>
      </trkpt>
      <trkpt lat="47.060999097302556" lon="6.8554462864995">
        <ele>1326.76</ele>
        <time>2012-03-24T07:51:48Z</time>
      </trkpt>
      <trkpt lat="47.060972359031439" lon="6.855393312871456">
        <ele>1326.76</ele>
        <time>2012-03-24T07:51:49Z</time>
      </trkpt>
      <trkpt lat="47.06094210036099" lon="6.855348218232393">
        <ele>1326.76</ele>
        <time>2012-03-24T07:51:50Z</time>
      </trkpt>
      <trkpt lat="47.060910165309906" lon="6.855305973440409">
        <ele>1327.24</ele>
        <time>2012-03-24T07:51:51Z</time>
      </trkpt>
      <trkpt lat="47.060880828648806" lon="6.855258699506521">
        <ele>1326.28</ele>
        <time>2012-03-24T07:51:52Z</time>
      </trkpt>
      <trkpt lat="47.060847971588373" lon="6.855216035619378">
        <ele>1326.28</ele>
        <time>2012-03-24T07:51:53Z</time>
      </trkpt>
      <trkpt lat="47.060814360156655" lon="6.85517705976963">
        <ele>1327.24</ele>
        <time>2012-03-24T07:51:54Z</time>
      </trkpt>
      <trkpt lat="47.06078284420073" lon="6.855130791664124">
        <ele>1327.24</ele>
        <time>2012-03-24T07:51:55Z</time>
      </trkpt>
      <trkpt lat="47.060751160606742" lon="6.855084104463458">
        <ele>1326.76</ele>
        <time>2012-03-24T07:51:56Z</time>
      </trkpt>
      <trkpt lat="47.060718387365341" lon="6.85504462569952">
        <ele>1327.24</ele>
        <time>2012-03-24T07:51:57Z</time>
      </trkpt>
      <trkpt lat="47.060685865581036" lon="6.854997184127569">
        <ele>1326.76</ele>
        <time>2012-03-24T07:51:58Z</time>
      </trkpt>
      <trkpt lat="47.060653595253825" lon="6.854947898536921">
        <ele>1327.24</ele>
        <time>2012-03-24T07:51:59Z</time>
      </trkpt>
      <trkpt lat="47.06061964854598" lon="6.854904564097524">
        <ele>1327.24</ele>
        <time>2012-03-24T07:52:00Z</time>
      </trkpt>
      <trkpt lat="47.060588048771024" lon="6.854857038706541">
        <ele>1327.72</ele>
        <time>2012-03-24T07:52:01Z</time>
      </trkpt>
      <trkpt lat="47.06055318005383" lon="6.854809848591685">
        <ele>1327.24</ele>
        <time>2012-03-24T07:52:02Z</time>
      </trkpt>
      <trkpt lat="47.060514623299241" lon="6.854768106713891">
        <ele>1327.72</ele>
        <time>2012-03-24T07:52:03Z</time>
      </trkpt>
      <trkpt lat="47.060482017695904" lon="6.854725610464811">
        <ele>1327.24</ele>
        <time>2012-03-24T07:52:04Z</time>
      </trkpt>
      <trkpt lat="47.060452764853835" lon="6.854678252711892">
        <ele>1327.24</ele>
        <time>2012-03-24T07:52:05Z</time>
      </trkpt>
      <trkpt lat="47.060394091531634" lon="6.854597451165319">
        <ele>1327.24</ele>
        <time>2012-03-24T07:52:07Z</time>
      </trkpt>
      <trkpt lat="47.060366766527295" lon="6.854548500850797">
        <ele>1327.72</ele>
        <time>2012-03-24T07:52:08Z</time>
      </trkpt>
      <trkpt lat="47.060338268056512" lon="6.854504244402051">
        <ele>1327.24</ele>
        <time>2012-03-24T07:52:09Z</time>
      </trkpt>
      <trkpt lat="47.060282863676548" lon="6.854416150599718">
        <ele>1327.24</ele>
        <time>2012-03-24T07:52:11Z</time>
      </trkpt>
      <trkpt lat="47.060260567814112" lon="6.854367954656482">
        <ele>1327.72</ele>
        <time>2012-03-24T07:52:12Z</time>
      </trkpt>
      <trkpt lat="47.060233661904931" lon="6.85432830825448">
        <ele>1327.72</ele>
        <time>2012-03-24T07:52:13Z</time>
      </trkpt>
      <trkpt lat="47.060209354385734" lon="6.854287069290876">
        <ele>1327.72</ele>
        <time>2012-03-24T07:52:14Z</time>
      </trkpt>
      <trkpt lat="47.060187226161361" lon="6.854241974651814">
        <ele>1328.2</ele>
        <time>2012-03-24T07:52:15Z</time>
      </trkpt>
      <trkpt lat="47.060162583366036" lon="6.854201322421432">
        <ele>1328.2</ele>
        <time>2012-03-24T07:52:16Z</time>
      </trkpt>
      <trkpt lat="47.060139700770378" lon="6.854157485067844">
        <ele>1327.72</ele>
        <time>2012-03-24T07:52:17Z</time>
      </trkpt>
      <trkpt lat="47.060120338574052" lon="6.854110127314925">
        <ele>1328.6800000000001</ele>
        <time>2012-03-24T07:52:18Z</time>
      </trkpt>
      <trkpt lat="47.060000728815794" lon="6.853822125121951">
        <ele>1329.1600000000001</ele>
        <time>2012-03-24T07:52:24Z</time>
      </trkpt>
      <trkpt lat="47.059985809028149" lon="6.85377367772162">
        <ele>1329.1600000000001</ele>
        <time>2012-03-24T07:52:25Z</time>
      </trkpt>
      <trkpt lat="47.059967704117298" lon="6.853732103481889">
        <ele>1330.1199999999999</ele>
        <time>2012-03-24T07:52:26Z</time>
      </trkpt>
      <trkpt lat="47.05995068885386" lon="6.853688601404429">
        <ele>1329.6400000000001</ele>
        <time>2012-03-24T07:52:27Z</time>
      </trkpt>
      <trkpt lat="47.059938115999103" lon="6.853638393804431">
        <ele>1329.6400000000001</ele>
        <time>2012-03-24T07:52:28Z</time>
      </trkpt>
      <trkpt lat="47.059892350807786" lon="6.853499002754688">
        <ele>1330.1199999999999</ele>
        <time>2012-03-24T07:52:31Z</time>
      </trkpt>
      <trkpt lat="47.059880699962378" lon="6.853448627516627">
        <ele>1330.5999999999999</ele>
        <time>2012-03-24T07:52:32Z</time>
      </trkpt>
      <trkpt lat="47.059863097965717" lon="6.853405209258199">
        <ele>1330.1199999999999</ele>
        <time>2012-03-24T07:52:33Z</time>
      </trkpt>
      <trkpt lat="47.059849016368389" lon="6.85336078517139">
        <ele>1330.1199999999999</ele>
        <time>2012-03-24T07:52:34Z</time>
      </trkpt>
      <trkpt lat="47.059838958084583" lon="6.853312337771058">
        <ele>1330.5999999999999</ele>
        <time>2012-03-24T07:52:35Z</time>
      </trkpt>
      <trkpt lat="47.059824038296938" lon="6.85326942242682">
        <ele>1330.5999999999999</ele>
        <time>2012-03-24T07:52:36Z</time>
      </trkpt>
      <trkpt lat="47.059807777404785" lon="6.853226255625486">
        <ele>1330.5999999999999</ele>
        <time>2012-03-24T07:52:37Z</time>
      </trkpt>
      <trkpt lat="47.059799479320645" lon="6.853176299482584">
        <ele>1330.5999999999999</ele>
        <time>2012-03-24T07:52:38Z</time>
      </trkpt>
      <trkpt lat="47.059789840131998" lon="6.853129612281919">
        <ele>1331.0799999999999</ele>
        <time>2012-03-24T07:52:39Z</time>
      </trkpt>
      <trkpt lat="47.059772657230496" lon="6.853086948394775">
        <ele>1331.0799999999999</ele>
        <time>2012-03-24T07:52:40Z</time>
      </trkpt>
      <trkpt lat="47.059758994728327" lon="6.853035818785429">
        <ele>1331.0799999999999</ele>
        <time>2012-03-24T07:52:41Z</time>
      </trkpt>
      <trkpt lat="47.059751031920314" lon="6.852983934804797">
        <ele>1331.0799999999999</ele>
        <time>2012-03-24T07:52:42Z</time>
      </trkpt>
      <trkpt lat="47.059737872332335" lon="6.852936577051878">
        <ele>1330.5999999999999</ele>
        <time>2012-03-24T07:52:43Z</time>
      </trkpt>
      <trkpt lat="47.059724796563387" lon="6.852886369451881">
        <ele>1332.04</ele>
        <time>2012-03-24T07:52:44Z</time>
      </trkpt>
      <trkpt lat="47.059717336669564" lon="6.852830881252885">
        <ele>1332.04</ele>
        <time>2012-03-24T07:52:45Z</time>
      </trkpt>
      <trkpt lat="47.059706775471568" lon="6.852782433852553">
        <ele>1332.04</ele>
        <time>2012-03-24T07:52:46Z</time>
      </trkpt>
      <trkpt lat="47.05969613045454" lon="6.852735076099634">
        <ele>1332.04</ele>
        <time>2012-03-24T07:52:47Z</time>
      </trkpt>
      <trkpt lat="47.059691436588764" lon="6.852685622870922">
        <ele>1332.04</ele>
        <time>2012-03-24T07:52:48Z</time>
      </trkpt>
      <trkpt lat="47.059683306142688" lon="6.852642204612494">
        <ele>1332.52</ele>
        <time>2012-03-24T07:52:49Z</time>
      </trkpt>
      <trkpt lat="47.059671571478248" lon="6.852599876001477">
        <ele>1332.52</ele>
        <time>2012-03-24T07:52:50Z</time>
      </trkpt>
      <trkpt lat="47.05966629087925" lon="6.852553859353066">
        <ele>1332.52</ele>
        <time>2012-03-24T07:52:51Z</time>
      </trkpt>
      <trkpt lat="47.059659166261554" lon="6.852508261799812">
        <ele>1333.01</ele>
        <time>2012-03-24T07:52:52Z</time>
      </trkpt>
      <trkpt lat="47.059646677225828" lon="6.852466855198145">
        <ele>1332.52</ele>
        <time>2012-03-24T07:52:53Z</time>
      </trkpt>
      <trkpt lat="47.05964089371264" lon="6.852417821064591">
        <ele>1333.01</ele>
        <time>2012-03-24T07:52:54Z</time>
      </trkpt>
      <trkpt lat="47.059631505981088" lon="6.852368032559753">
        <ele>1333.49</ele>
        <time>2012-03-24T07:52:55Z</time>
      </trkpt>
      <trkpt lat="47.059615245088935" lon="6.852322602644563">
        <ele>1332.52</ele>
        <time>2012-03-24T07:52:56Z</time>
      </trkpt>
      <trkpt lat="47.059561600908637" lon="6.852138536050916">
        <ele>1333.01</ele>
        <time>2012-03-24T07:53:00Z</time>
      </trkpt>
      <trkpt lat="47.059539891779423" lon="6.852046838030219">
        <ele>1333.97</ele>
        <time>2012-03-24T07:53:02Z</time>
      </trkpt>
      <trkpt lat="47.059524301439524" lon="6.852005934342742">
        <ele>1333.97</ele>
        <time>2012-03-24T07:53:03Z</time>
      </trkpt>
      <trkpt lat="47.059513488784432" lon="6.85195941478014">
        <ele>1334.45</ele>
        <time>2012-03-24T07:53:04Z</time>
      </trkpt>
      <trkpt lat="47.059502592310309" lon="6.851913733407855">
        <ele>1334.9300000000001</ele>
        <time>2012-03-24T07:53:05Z</time>
      </trkpt>
      <trkpt lat="47.059486331418157" lon="6.851873500272632">
        <ele>1335.4100000000001</ele>
        <time>2012-03-24T07:53:06Z</time>
      </trkpt>
      <trkpt lat="47.059471998363733" lon="6.851829662919045">
        <ele>1334.45</ele>
        <time>2012-03-24T07:53:07Z</time>
      </trkpt>
      <trkpt lat="47.059459425508976" lon="6.851785993203521">
        <ele>1334.9300000000001</ele>
        <time>2012-03-24T07:53:08Z</time>
      </trkpt>
      <trkpt lat="47.059440733864903" lon="6.851750956848264">
        <ele>1334.9300000000001</ele>
        <time>2012-03-24T07:53:09Z</time>
      </trkpt>
      <trkpt lat="47.059420198202133" lon="6.851714495569468">
        <ele>1335.4100000000001</ele>
        <time>2012-03-24T07:53:10Z</time>
      </trkpt>
      <trkpt lat="47.059401925653219" lon="6.851670071482658">
        <ele>1335.8900000000001</ele>
        <time>2012-03-24T07:53:11Z</time>
      </trkpt>
      <trkpt lat="47.059381641447544" lon="6.851629670709372">
        <ele>1335.8900000000001</ele>
        <time>2012-03-24T07:53:12Z</time>
      </trkpt>
      <trkpt lat="47.059358255937696" lon="6.851600334048271">
        <ele>1335.8900000000001</ele>
        <time>2012-03-24T07:53:13Z</time>
      </trkpt>
      <trkpt lat="47.059336379170418" lon="6.851564543321729">
        <ele>1336.3699999999999</ele>
        <time>2012-03-24T07:53:14Z</time>
      </trkpt>
      <trkpt lat="47.059317687526345" lon="6.851527160033584">
        <ele>1335.8900000000001</ele>
        <time>2012-03-24T07:53:15Z</time>
      </trkpt>
      <trkpt lat="47.059295140206814" lon="6.851496063172817">
        <ele>1336.3699999999999</ele>
        <time>2012-03-24T07:53:16Z</time>
      </trkpt>
      <trkpt lat="47.059272089973092" lon="6.851464044302702">
        <ele>1336.8499999999999</ele>
        <time>2012-03-24T07:53:17Z</time>
      </trkpt>
      <trkpt lat="47.059252476319671" lon="6.8514209613204">
        <ele>1336.8499999999999</ele>
        <time>2012-03-24T07:53:18Z</time>
      </trkpt>
      <trkpt lat="47.059234287589788" lon="6.851381734013557">
        <ele>1336.3699999999999</ele>
        <time>2012-03-24T07:53:19Z</time>
      </trkpt>
      <trkpt lat="47.059213165193796" lon="6.851352229714394">
        <ele>1337.3299999999999</ele>
        <time>2012-03-24T07:53:20Z</time>
      </trkpt>
      <trkpt lat="47.059190953150392" lon="6.85131442733109">
        <ele>1336.8499999999999</ele>
        <time>2012-03-24T07:53:21Z</time>
      </trkpt>
      <trkpt lat="47.05916890874505" lon="6.851272517815232">
        <ele>1337.8099999999999</ele>
        <time>2012-03-24T07:53:22Z</time>
      </trkpt>
      <trkpt lat="47.059078551828861" lon="6.85113019309938">
        <ele>1338.29</ele>
        <time>2012-03-24T07:53:26Z</time>
      </trkpt>
      <trkpt lat="47.058914517983794" lon="6.850869432091713">
        <ele>1338.77</ele>
        <time>2012-03-24T07:53:33Z</time>
      </trkpt>
      <trkpt lat="47.058890210464597" lon="6.850837413221598">
        <ele>1338.77</ele>
        <time>2012-03-24T07:53:34Z</time>
      </trkpt>
      <trkpt lat="47.058866992592812" lon="6.850794916972518">
        <ele>1339.25</ele>
        <time>2012-03-24T07:53:35Z</time>
      </trkpt>
      <trkpt lat="47.058841427788138" lon="6.850751833990216">
        <ele>1339.25</ele>
        <time>2012-03-24T07:53:36Z</time>
      </trkpt>
      <trkpt lat="47.058812594041228" lon="6.850719563663006">
        <ele>1338.77</ele>
        <time>2012-03-24T07:53:37Z</time>
      </trkpt>
      <trkpt lat="47.058784598484635" lon="6.850681090727449">
        <ele>1338.77</ele>
        <time>2012-03-24T07:53:38Z</time>
      </trkpt>
      <trkpt lat="47.058757105842233" lon="6.850637923926115">
        <ele>1339.73</ele>
        <time>2012-03-24T07:53:39Z</time>
      </trkpt>
      <trkpt lat="47.058663899078965" lon="6.850532395765185">
        <ele>1338.77</ele>
        <time>2012-03-24T07:53:42Z</time>
      </trkpt>
      <trkpt lat="47.058634478598833" lon="6.850499203428626">
        <ele>1339.25</ele>
        <time>2012-03-24T07:53:43Z</time>
      </trkpt>
      <trkpt lat="47.058566836640239" lon="6.850441200658679">
        <ele>1339.73</ele>
        <time>2012-03-24T07:53:45Z</time>
      </trkpt>
      <trkpt lat="47.058531381189823" lon="6.850414127111435">
        <ele>1339.25</ele>
        <time>2012-03-24T07:53:46Z</time>
      </trkpt>
      <trkpt lat="47.058492237702012" lon="6.850391328334808">
        <ele>1339.25</ele>
        <time>2012-03-24T07:53:47Z</time>
      </trkpt>
      <trkpt lat="47.058450747281313" lon="6.85036844573915">
        <ele>1339.73</ele>
        <time>2012-03-24T07:53:48Z</time>
      </trkpt>
      <trkpt lat="47.058409005403519" lon="6.85035184957087">
        <ele>1339.73</ele>
        <time>2012-03-24T07:53:49Z</time>
      </trkpt>
      <trkpt lat="47.058368688449264" lon="6.850334834307432">
        <ele>1340.22</ele>
        <time>2012-03-24T07:53:50Z</time>
      </trkpt>
      <trkpt lat="47.058330634608865" lon="6.850301893427968">
        <ele>1339.73</ele>
        <time>2012-03-24T07:53:51Z</time>
      </trkpt>
      <trkpt lat="47.058291742578149" lon="6.85026484541595">
        <ele>1340.7</ele>
        <time>2012-03-24T07:53:52Z</time>
      </trkpt>
      <trkpt lat="47.058249497786164" lon="6.850239196792245">
        <ele>1340.22</ele>
        <time>2012-03-24T07:53:53Z</time>
      </trkpt>
      <trkpt lat="47.058207672089338" lon="6.850215224549174">
        <ele>1340.22</ele>
        <time>2012-03-24T07:53:54Z</time>
      </trkpt>
      <trkpt lat="47.058170288801193" lon="6.850183205679059">
        <ele>1340.22</ele>
        <time>2012-03-24T07:53:55Z</time>
      </trkpt>
      <trkpt lat="47.058130642399192" lon="6.850150432437658">
        <ele>1340.22</ele>
        <time>2012-03-24T07:53:56Z</time>
      </trkpt>
      <trkpt lat="47.058090576902032" lon="6.850128639489412">
        <ele>1340.22</ele>
        <time>2012-03-24T07:53:57Z</time>
      </trkpt>
      <trkpt lat="47.058050679042935" lon="6.850107684731484">
        <ele>1340.22</ele>
        <time>2012-03-24T07:53:58Z</time>
      </trkpt>
      <trkpt lat="47.05800985917449" lon="6.85007524676621">
        <ele>1341.1800000000001</ele>
        <time>2012-03-24T07:53:59Z</time>
      </trkpt>
      <trkpt lat="47.057969374582171" lon="6.850049262866378">
        <ele>1341.1800000000001</ele>
        <time>2012-03-24T07:54:00Z</time>
      </trkpt>
      <trkpt lat="47.057932829484344" lon="6.85003275051713">
        <ele>1340.7</ele>
        <time>2012-03-24T07:54:01Z</time>
      </trkpt>
      <trkpt lat="47.05789846368134" lon="6.850009029731154">
        <ele>1341.1800000000001</ele>
        <time>2012-03-24T07:54:02Z</time>
      </trkpt>
      <trkpt lat="47.057865606620908" lon="6.84998631477356">
        <ele>1342.1400000000001</ele>
        <time>2012-03-24T07:54:03Z</time>
      </trkpt>
      <trkpt lat="47.057831408455968" lon="6.84996971860528">
        <ele>1341.6600000000001</ele>
        <time>2012-03-24T07:54:04Z</time>
      </trkpt>
      <trkpt lat="47.057796036824584" lon="6.849950607866049">
        <ele>1341.1800000000001</ele>
        <time>2012-03-24T07:54:05Z</time>
      </trkpt>
      <trkpt lat="47.057764772325754" lon="6.849919930100441">
        <ele>1342.1400000000001</ele>
        <time>2012-03-24T07:54:06Z</time>
      </trkpt>
      <trkpt lat="47.057737866416574" lon="6.849895371124148">
        <ele>1342.1400000000001</ele>
        <time>2012-03-24T07:54:07Z</time>
      </trkpt>
      <trkpt lat="47.057708697393537" lon="6.849882043898106">
        <ele>1342.6199999999999</ele>
        <time>2012-03-24T07:54:08Z</time>
      </trkpt>
      <trkpt lat="47.057618172839284" lon="6.849826304242015">
        <ele>1343.0999999999999</ele>
        <time>2012-03-24T07:54:11Z</time>
      </trkpt>
      <trkpt lat="47.057591853663325" lon="6.849816329777241">
        <ele>1343.0999999999999</ele>
        <time>2012-03-24T07:54:12Z</time>
      </trkpt>
      <trkpt lat="47.057564025744796" lon="6.849797386676073">
        <ele>1343.5799999999999</ele>
        <time>2012-03-24T07:54:13Z</time>
      </trkpt>
      <trkpt lat="47.057536030188203" lon="6.849776851013303">
        <ele>1344.0599999999999</ele>
        <time>2012-03-24T07:54:14Z</time>
      </trkpt>
      <trkpt lat="47.057508956640959" lon="6.849766289815307">
        <ele>1344.0599999999999</ele>
        <time>2012-03-24T07:54:15Z</time>
      </trkpt>
      <trkpt lat="47.05748314037919" lon="6.849750112742186">
        <ele>1344.54</ele>
        <time>2012-03-24T07:54:16Z</time>
      </trkpt>
      <trkpt lat="47.057458246126771" lon="6.849723039194942">
        <ele>1344.0599999999999</ele>
        <time>2012-03-24T07:54:17Z</time>
      </trkpt>
      <trkpt lat="47.05743326805532" lon="6.849701749160886">
        <ele>1344.54</ele>
        <time>2012-03-24T07:54:18Z</time>
      </trkpt>
      <trkpt lat="47.057402757927775" lon="6.849687164649367">
        <ele>1345.02</ele>
        <time>2012-03-24T07:54:19Z</time>
      </trkpt>
      <trkpt lat="47.057372583076358" lon="6.849663611501455">
        <ele>1345.02</ele>
        <time>2012-03-24T07:54:20Z</time>
      </trkpt>
      <trkpt lat="47.057347185909748" lon="6.849641483277082">
        <ele>1345.02</ele>
        <time>2012-03-24T07:54:21Z</time>
      </trkpt>
      <trkpt lat="47.057320112362504" lon="6.849631257355213">
        <ele>1344.54</ele>
        <time>2012-03-24T07:54:22Z</time>
      </trkpt>
      <trkpt lat="47.057294799014926" lon="6.849617259576917">
        <ele>1345.98</ele>
        <time>2012-03-24T07:54:23Z</time>
      </trkpt>
      <trkpt lat="47.057269150391221" lon="6.849593706429005">
        <ele>1345.98</ele>
        <time>2012-03-24T07:54:24Z</time>
      </trkpt>
      <trkpt lat="47.057242831215262" lon="6.849578283727169">
        <ele>1345.98</ele>
        <time>2012-03-24T07:54:25Z</time>
      </trkpt>
      <trkpt lat="47.057213662192225" lon="6.849576439708471">
        <ele>1345.98</ele>
        <time>2012-03-24T07:54:26Z</time>
      </trkpt>
      <trkpt lat="47.05718407407403" lon="6.849570823833346">
        <ele>1346.46</ele>
        <time>2012-03-24T07:54:27Z</time>
      </trkpt>
      <trkpt lat="47.057157251983881" lon="6.849554982036352">
        <ele>1346.9400000000001</ele>
        <time>2012-03-24T07:54:28Z</time>
      </trkpt>
      <trkpt lat="47.057135626673698" lon="6.849529249593616">
        <ele>1346.9400000000001</ele>
        <time>2012-03-24T07:54:29Z</time>
      </trkpt>
      <trkpt lat="47.057119617238641" lon="6.849492955952883">
        <ele>1346.9400000000001</ele>
        <time>2012-03-24T07:54:30Z</time>
      </trkpt>
      <trkpt lat="47.057105368003249" lon="6.849451381713152">
        <ele>1347.4300000000001</ele>
        <time>2012-03-24T07:54:31Z</time>
      </trkpt>
      <trkpt lat="47.057087682187557" lon="6.849412405863404">
        <ele>1347.4300000000001</ele>
        <time>2012-03-24T07:54:32Z</time>
      </trkpt>
      <trkpt lat="47.057064129039645" lon="6.849385583773255">
        <ele>1346.9400000000001</ele>
        <time>2012-03-24T07:54:33Z</time>
      </trkpt>
      <trkpt lat="47.057038312777877" lon="6.849362198263407">
        <ele>1346.9400000000001</ele>
        <time>2012-03-24T07:54:34Z</time>
      </trkpt>
      <trkpt lat="47.057015849277377" lon="6.849330430850387">
        <ele>1347.9100000000001</ele>
        <time>2012-03-24T07:54:35Z</time>
      </trkpt>
      <trkpt lat="47.056994391605258" lon="6.849294891580939">
        <ele>1347.4300000000001</ele>
        <time>2012-03-24T07:54:36Z</time>
      </trkpt>
      <trkpt lat="47.056970251724124" lon="6.849265890195966">
        <ele>1348.3900000000001</ele>
        <time>2012-03-24T07:54:37Z</time>
      </trkpt>
      <trkpt lat="47.056948123499751" lon="6.849232194945216">
        <ele>1347.9100000000001</ele>
        <time>2012-03-24T07:54:38Z</time>
      </trkpt>
      <trkpt lat="47.056924989446998" lon="6.849192380905151">
        <ele>1348.8699999999999</ele>
        <time>2012-03-24T07:54:39Z</time>
      </trkpt>
      <trkpt lat="47.056902106851339" lon="6.849156087264419">
        <ele>1347.9100000000001</ele>
        <time>2012-03-24T07:54:40Z</time>
      </trkpt>
      <trkpt lat="47.056875033304095" lon="6.849122559651732">
        <ele>1347.9100000000001</ele>
        <time>2012-03-24T07:54:41Z</time>
      </trkpt>
      <trkpt lat="47.056850474327803" lon="6.849083919078112">
        <ele>1348.8699999999999</ele>
        <time>2012-03-24T07:54:42Z</time>
      </trkpt>
      <trkpt lat="47.056827591732144" lon="6.849047709256411">
        <ele>1348.8699999999999</ele>
        <time>2012-03-24T07:54:43Z</time>
      </trkpt>
      <trkpt lat="47.056802529841661" lon="6.849021641537547">
        <ele>1348.8699999999999</ele>
        <time>2012-03-24T07:54:44Z</time>
      </trkpt>
      <trkpt lat="47.056778222322464" lon="6.84899440035224">
        <ele>1348.3900000000001</ele>
        <time>2012-03-24T07:54:45Z</time>
      </trkpt>
      <trkpt lat="47.056753663346171" lon="6.84896263293922">
        <ele>1348.8699999999999</ele>
        <time>2012-03-24T07:54:46Z</time>
      </trkpt>
      <trkpt lat="47.056729020550847" lon="6.848938660696149">
        <ele>1348.8699999999999</ele>
        <time>2012-03-24T07:54:47Z</time>
      </trkpt>
      <trkpt lat="47.056702869012952" lon="6.848912006244063">
        <ele>1349.3499999999999</ele>
        <time>2012-03-24T07:54:48Z</time>
      </trkpt>
      <trkpt lat="47.056678058579564" lon="6.848876969888806">
        <ele>1349.3499999999999</ele>
        <time>2012-03-24T07:54:49Z</time>
      </trkpt>
      <trkpt lat="47.056653331965208" lon="6.848849644884467">
        <ele>1349.8299999999999</ele>
        <time>2012-03-24T07:54:50Z</time>
      </trkpt>
      <trkpt lat="47.056627180427313" lon="6.848826007917523">
        <ele>1349.8299999999999</ele>
        <time>2012-03-24T07:54:51Z</time>
      </trkpt>
      <trkpt lat="47.056604046374559" lon="6.848793737590313">
        <ele>1349.8299999999999</ele>
        <time>2012-03-24T07:54:52Z</time>
      </trkpt>
      <trkpt lat="47.056582421064377" lon="6.848763143643737">
        <ele>1349.8299999999999</ele>
        <time>2012-03-24T07:54:53Z</time>
      </trkpt>
      <trkpt lat="47.056553000584245" lon="6.848738165572286">
        <ele>1349.8299999999999</ele>
        <time>2012-03-24T07:54:54Z</time>
      </trkpt>
      <trkpt lat="47.05652542412281" lon="6.848705979064107">
        <ele>1349.8299999999999</ele>
        <time>2012-03-24T07:54:55Z</time>
      </trkpt>
      <trkpt lat="47.056497428566217" lon="6.848676558583975">
        <ele>1349.8299999999999</ele>
        <time>2012-03-24T07:54:56Z</time>
      </trkpt>
      <trkpt lat="47.056467505171895" lon="6.848654262721539">
        <ele>1350.3099999999999</ele>
        <time>2012-03-24T07:54:57Z</time>
      </trkpt>
      <trkpt lat="47.056441772729158" lon="6.848621154204011">
        <ele>1350.3099999999999</ele>
        <time>2012-03-24T07:54:58Z</time>
      </trkpt>
      <trkpt lat="47.056419057771564" lon="6.848589386790991">
        <ele>1350.3099999999999</ele>
        <time>2012-03-24T07:54:59Z</time>
      </trkpt>
      <trkpt lat="47.056391313672066" lon="6.848559631034732">
        <ele>1350.3099999999999</ele>
        <time>2012-03-24T07:55:00Z</time>
      </trkpt>
      <trkpt lat="47.056363234296441" lon="6.848519649356604">
        <ele>1349.8299999999999</ele>
        <time>2012-03-24T07:55:01Z</time>
      </trkpt>
      <trkpt lat="47.056334316730499" lon="6.848477572202683">
        <ele>1349.8299999999999</ele>
        <time>2012-03-24T07:55:02Z</time>
      </trkpt>
      <trkpt lat="47.056299028918147" lon="6.848440691828728">
        <ele>1350.3099999999999</ele>
        <time>2012-03-24T07:55:03Z</time>
      </trkpt>
      <trkpt lat="47.056266255676746" lon="6.848394591361284">
        <ele>1349.8299999999999</ele>
        <time>2012-03-24T07:55:04Z</time>
      </trkpt>
      <trkpt lat="47.056235074996948" lon="6.848351759836078">
        <ele>1350.3099999999999</ele>
        <time>2012-03-24T07:55:05Z</time>
      </trkpt>
      <trkpt lat="47.056202301755548" lon="6.848309263586998">
        <ele>1349.8299999999999</ele>
        <time>2012-03-24T07:55:06Z</time>
      </trkpt>
      <trkpt lat="47.056172881275415" lon="6.848265593871474">
        <ele>1349.3499999999999</ele>
        <time>2012-03-24T07:55:07Z</time>
      </trkpt>
      <trkpt lat="47.05614279024303" lon="6.848221588879824">
        <ele>1349.8299999999999</ele>
        <time>2012-03-24T07:55:08Z</time>
      </trkpt>
      <trkpt lat="47.056112196296453" lon="6.848168950527906">
        <ele>1349.8299999999999</ele>
        <time>2012-03-24T07:55:09Z</time>
      </trkpt>
      <trkpt lat="47.056078501045704" lon="6.848118742927909">
        <ele>1350.3099999999999</ele>
        <time>2012-03-24T07:55:10Z</time>
      </trkpt>
      <trkpt lat="47.05600943416357" lon="6.848012544214726">
        <ele>1349.3499999999999</ele>
        <time>2012-03-24T07:55:12Z</time>
      </trkpt>
      <trkpt lat="47.055835761129856" lon="6.847718842327595">
        <ele>1348.8699999999999</ele>
        <time>2012-03-24T07:55:17Z</time>
      </trkpt>
      <trkpt lat="47.055656807497144" lon="6.847413154318929">
        <ele>1347.4300000000001</ele>
        <time>2012-03-24T07:55:22Z</time>
      </trkpt>
      <trkpt lat="47.055119443684816" lon="6.84645208530128">
        <ele>1343.5799999999999</ele>
        <time>2012-03-24T07:55:35Z</time>
      </trkpt>
      <trkpt lat="47.054932024329901" lon="6.846104906871915">
        <ele>1342.1400000000001</ele>
        <time>2012-03-24T07:55:39Z</time>
      </trkpt>
      <trkpt lat="47.054432798177004" lon="6.845200918614864">
        <ele>1338.77</ele>
        <time>2012-03-24T07:55:49Z</time>
      </trkpt>
      <trkpt lat="47.054232303053141" lon="6.844827923923731">
        <ele>1337.3299999999999</ele>
        <time>2012-03-24T07:55:53Z</time>
      </trkpt>
      <trkpt lat="47.053630817681551" lon="6.843790579587221">
        <ele>1333.97</ele>
        <time>2012-03-24T07:56:05Z</time>
      </trkpt>
      <trkpt lat="47.053047437220812" lon="6.842790367081761">
        <ele>1331.5599999999999</ele>
        <time>2012-03-24T07:56:19Z</time>
      </trkpt>
      <trkpt lat="47.052702605724335" lon="6.842235568910837">
        <ele>1330.1199999999999</ele>
        <time>2012-03-24T07:56:27Z</time>
      </trkpt>
      <trkpt lat="47.052147723734379" lon="6.841334849596024">
        <ele>1327.24</ele>
        <time>2012-03-24T07:56:39Z</time>
      </trkpt>
      <trkpt lat="47.051617987453938" lon="6.840570420026779">
        <ele>1324.8299999999999</ele>
        <time>2012-03-24T07:56:50Z</time>
      </trkpt>
      <trkpt lat="47.051300061866641" lon="6.840310161933303">
        <ele>1324.3499999999999</ele>
        <time>2012-03-24T07:56:56Z</time>
      </trkpt>
      <trkpt lat="47.051248764619231" lon="6.840280070900917">
        <ele>1324.8299999999999</ele>
        <time>2012-03-24T07:56:57Z</time>
      </trkpt>
      <trkpt lat="47.051198557019234" lon="6.840248890221119">
        <ele>1324.3499999999999</ele>
        <time>2012-03-24T07:56:58Z</time>
      </trkpt>
      <trkpt lat="47.051157066598535" lon="6.840227516368032">
        <ele>1324.3499999999999</ele>
        <time>2012-03-24T07:56:59Z</time>
      </trkpt>
      <trkpt lat="47.051119599491358" lon="6.840214524418116">
        <ele>1325.3099999999999</ele>
        <time>2012-03-24T07:57:00Z</time>
      </trkpt>
      <trkpt lat="47.050943747162819" lon="6.840048730373383">
        <ele>1327.24</ele>
        <time>2012-03-24T07:57:07Z</time>
      </trkpt>
      <trkpt lat="47.050911728292704" lon="6.840009754523635">
        <ele>1327.24</ele>
        <time>2012-03-24T07:57:09Z</time>
      </trkpt>
      <trkpt lat="47.050896473228931" lon="6.840000618249178">
        <ele>1328.2</ele>
        <time>2012-03-24T07:57:10Z</time>
      </trkpt>
      <trkpt lat="47.050880631431937" lon="6.839986788108945">
        <ele>1328.2</ele>
        <time>2012-03-24T07:57:11Z</time>
      </trkpt>
      <trkpt lat="47.050867890939116" lon="6.839969605207443">
        <ele>1328.6800000000001</ele>
        <time>2012-03-24T07:57:12Z</time>
      </trkpt>
      <trkpt lat="47.050858251750469" lon="6.839946135878563">
        <ele>1328.6800000000001</ele>
        <time>2012-03-24T07:57:13Z</time>
      </trkpt>
      <trkpt lat="47.050846600905061" lon="6.839928366243839">
        <ele>1328.6800000000001</ele>
        <time>2012-03-24T07:57:14Z</time>
      </trkpt>
      <trkpt lat="47.050834028050303" lon="6.839916044846177">
        <ele>1329.1600000000001</ele>
        <time>2012-03-24T07:57:15Z</time>
      </trkpt>
      <trkpt lat="47.050756243988872" lon="6.839812276884913">
        <ele>1332.52</ele>
        <time>2012-03-24T07:57:26Z</time>
      </trkpt>
      <trkpt lat="47.050743168219924" lon="6.83980573900044">
        <ele>1332.52</ele>
        <time>2012-03-24T07:57:27Z</time>
      </trkpt>
      <trkpt lat="47.050732607021928" lon="6.839796099811792">
        <ele>1333.01</ele>
        <time>2012-03-24T07:57:28Z</time>
      </trkpt>
      <trkpt lat="47.050716849043965" lon="6.839763829484582">
        <ele>1333.49</ele>
        <time>2012-03-24T07:57:31Z</time>
      </trkpt>
      <trkpt lat="47.050713328644633" lon="6.839755279943347">
        <ele>1333.49</ele>
        <time>2012-03-24T07:57:32Z</time>
      </trkpt>
      <trkpt lat="47.050620792433619" lon="6.839644722640514">
        <ele>1335.8900000000001</ele>
        <time>2012-03-24T07:57:40Z</time>
      </trkpt>
      <trkpt lat="47.050512749701738" lon="6.839511534199119">
        <ele>1338.29</ele>
        <time>2012-03-24T07:57:47Z</time>
      </trkpt>
      <trkpt lat="47.050429852679372" lon="6.839411789551377">
        <ele>1339.25</ele>
        <time>2012-03-24T07:57:52Z</time>
      </trkpt>
      <trkpt lat="47.050312589854002" lon="6.839275332167745">
        <ele>1340.22</ele>
        <time>2012-03-24T07:57:59Z</time>
      </trkpt>
      <trkpt lat="47.050071945413947" lon="6.839111214503646">
        <ele>1341.6600000000001</ele>
        <time>2012-03-24T07:58:09Z</time>
      </trkpt>
      <trkpt lat="47.050039591267705" lon="6.83910065330565">
        <ele>1342.1400000000001</ele>
        <time>2012-03-24T07:58:10Z</time>
      </trkpt>
      <trkpt lat="47.049937834963202" lon="6.839109621942043">
        <ele>1342.1400000000001</ele>
        <time>2012-03-24T07:58:13Z</time>
      </trkpt>
      <trkpt lat="47.049856949597597" lon="6.839150777086616">
        <ele>1342.1400000000001</ele>
        <time>2012-03-24T07:58:22Z</time>
      </trkpt>
      <trkpt lat="47.049842365086079" lon="6.839257562533021">
        <ele>1343.0999999999999</ele>
        <time>2012-03-24T07:58:27Z</time>
      </trkpt>
      <trkpt lat="47.049903469160199" lon="6.839587222784758">
        <ele>1345.02</ele>
        <time>2012-03-24T07:58:37Z</time>
      </trkpt>
      <trkpt lat="47.050019558519125" lon="6.839782102033496">
        <ele>1345.5</ele>
        <time>2012-03-24T07:58:44Z</time>
      </trkpt>
      <trkpt lat="47.050096588209271" lon="6.839899448677898">
        <ele>1346.46</ele>
        <time>2012-03-24T07:58:48Z</time>
      </trkpt>
      <trkpt lat="47.050261544063687" lon="6.840205136686564">
        <ele>1347.9100000000001</ele>
        <time>2012-03-24T07:58:57Z</time>
      </trkpt>
      <trkpt lat="47.050379142165184" lon="6.840598918497562">
        <ele>1348.8699999999999</ele>
        <time>2012-03-24T07:59:06Z</time>
      </trkpt>
      <trkpt lat="47.050440413877368" lon="6.840885579586029">
        <ele>1348.8699999999999</ele>
        <time>2012-03-24T07:59:12Z</time>
      </trkpt>
      <trkpt lat="47.050577457994223" lon="6.84130635112524">
        <ele>1347.4300000000001</ele>
        <time>2012-03-24T07:59:21Z</time>
      </trkpt>
      <trkpt lat="47.050600843504071" lon="6.841355720534921">
        <ele>1347.4300000000001</ele>
        <time>2012-03-24T07:59:22Z</time>
      </trkpt>
      <trkpt lat="47.05062766559422" lon="6.841404084116221">
        <ele>1347.9100000000001</ele>
        <time>2012-03-24T07:59:23Z</time>
      </trkpt>
      <trkpt lat="47.050651637837291" lon="6.841459404677153">
        <ele>1347.9100000000001</ele>
        <time>2012-03-24T07:59:24Z</time>
      </trkpt>
      <trkpt lat="47.050678292289376" lon="6.841507097706199">
        <ele>1347.9100000000001</ele>
        <time>2012-03-24T07:59:25Z</time>
      </trkpt>
      <trkpt lat="47.050707880407572" lon="6.841549761593342">
        <ele>1347.9100000000001</ele>
        <time>2012-03-24T07:59:26Z</time>
      </trkpt>
      <trkpt lat="47.05073612742126" lon="6.841600723564625">
        <ele>1347.4300000000001</ele>
        <time>2012-03-24T07:59:27Z</time>
      </trkpt>
      <trkpt lat="47.050764290615916" lon="6.841647997498512">
        <ele>1347.9100000000001</ele>
        <time>2012-03-24T07:59:28Z</time>
      </trkpt>
      <trkpt lat="47.050794214010239" lon="6.841684877872467">
        <ele>1347.9100000000001</ele>
        <time>2012-03-24T07:59:29Z</time>
      </trkpt>
      <trkpt lat="47.050821455195546" lon="6.841729721054435">
        <ele>1348.3900000000001</ele>
        <time>2012-03-24T07:59:30Z</time>
      </trkpt>
      <trkpt lat="47.050845175981522" lon="6.841778000816703">
        <ele>1347.4300000000001</ele>
        <time>2012-03-24T07:59:31Z</time>
      </trkpt>
      <trkpt lat="47.05087149515748" lon="6.841817647218704">
        <ele>1347.4300000000001</ele>
        <time>2012-03-24T07:59:32Z</time>
      </trkpt>
      <trkpt lat="47.050895886495709" lon="6.84185259975493">
        <ele>1347.9100000000001</ele>
        <time>2012-03-24T07:59:33Z</time>
      </trkpt>
      <trkpt lat="47.050916170701385" lon="6.84189660474658">
        <ele>1347.9100000000001</ele>
        <time>2012-03-24T07:59:34Z</time>
      </trkpt>
      <trkpt lat="47.05093938857317" lon="6.841931892558932">
        <ele>1348.3900000000001</ele>
        <time>2012-03-24T07:59:35Z</time>
      </trkpt>
      <trkpt lat="47.050966713577509" lon="6.841961648315191">
        <ele>1348.8699999999999</ele>
        <time>2012-03-24T07:59:36Z</time>
      </trkpt>
      <trkpt lat="47.050988590344787" lon="6.842000959441066">
        <ele>1349.3499999999999</ele>
        <time>2012-03-24T07:59:37Z</time>
      </trkpt>
      <trkpt lat="47.051007952541113" lon="6.84203683398664">
        <ele>1348.8699999999999</ele>
        <time>2012-03-24T07:59:38Z</time>
      </trkpt>
      <trkpt lat="47.051029242575169" lon="6.842061309143901">
        <ele>1348.3900000000001</ele>
        <time>2012-03-24T07:59:39Z</time>
      </trkpt>
      <trkpt lat="47.051049694418907" lon="6.84208762831986">
        <ele>1348.8699999999999</ele>
        <time>2012-03-24T07:59:40Z</time>
      </trkpt>
      <trkpt lat="47.051065200939775" lon="6.842124257236719">
        <ele>1349.3499999999999</ele>
        <time>2012-03-24T07:59:41Z</time>
      </trkpt>
      <trkpt lat="47.051081294193864" lon="6.842157868668437">
        <ele>1349.8299999999999</ele>
        <time>2012-03-24T07:59:42Z</time>
      </trkpt>
      <trkpt lat="47.051100321114063" lon="6.842185528948903">
        <ele>1350.3099999999999</ele>
        <time>2012-03-24T07:59:43Z</time>
      </trkpt>
      <trkpt lat="47.051115576177835" lon="6.842216290533543">
        <ele>1350.3099999999999</ele>
        <time>2012-03-24T07:59:44Z</time>
      </trkpt>
      <trkpt lat="47.051128400489688" lon="6.84225182980299">
        <ele>1350.3099999999999</ele>
        <time>2012-03-24T07:59:45Z</time>
      </trkpt>
      <trkpt lat="47.05114608630538" lon="6.842280579730868">
        <ele>1350.3099999999999</ele>
        <time>2012-03-24T07:59:46Z</time>
      </trkpt>
      <trkpt lat="47.051167292520404" lon="6.842305976897478">
        <ele>1350.3099999999999</ele>
        <time>2012-03-24T07:59:47Z</time>
      </trkpt>
      <trkpt lat="47.051186570897698" lon="6.842334978282452">
        <ele>1350.3099999999999</ele>
        <time>2012-03-24T07:59:48Z</time>
      </trkpt>
      <trkpt lat="47.051202664151788" lon="6.842367583885789">
        <ele>1350.79</ele>
        <time>2012-03-24T07:59:49Z</time>
      </trkpt>
      <trkpt lat="47.051217835396528" lon="6.842394908890128">
        <ele>1351.27</ele>
        <time>2012-03-24T07:59:50Z</time>
      </trkpt>
      <trkpt lat="47.051237784326077" lon="6.842419048771262">
        <ele>1351.27</ele>
        <time>2012-03-24T07:59:51Z</time>
      </trkpt>
      <trkpt lat="47.051279861479998" lon="6.842516865581274">
        <ele>1351.75</ele>
        <time>2012-03-24T07:59:54Z</time>
      </trkpt>
      <trkpt lat="47.051299139857292" lon="6.842538826167584">
        <ele>1351.75</ele>
        <time>2012-03-24T07:59:55Z</time>
      </trkpt>
      <trkpt lat="47.051318418234587" lon="6.842562882229686">
        <ele>1351.75</ele>
        <time>2012-03-24T07:59:56Z</time>
      </trkpt>
      <trkpt lat="47.051331158727407" lon="6.842593727633357">
        <ele>1352.23</ele>
        <time>2012-03-24T07:59:57Z</time>
      </trkpt>
      <trkpt lat="47.051343899220228" lon="6.842621639370918">
        <ele>1352.23</ele>
        <time>2012-03-24T07:59:58Z</time>
      </trkpt>
      <trkpt lat="47.051366697996855" lon="6.842641923576593">
        <ele>1353.1900000000001</ele>
        <time>2012-03-24T07:59:59Z</time>
      </trkpt>
      <trkpt lat="47.051388910040259" lon="6.842664051800966">
        <ele>1352.71</ele>
        <time>2012-03-24T08:00:00Z</time>
      </trkpt>
      <trkpt lat="47.051402740180492" lon="6.842693723738194">
        <ele>1353.1900000000001</ele>
        <time>2012-03-24T08:00:01Z</time>
      </trkpt>
      <trkpt lat="47.051417995244265" lon="6.842722138389945">
        <ele>1353.6700000000001</ele>
        <time>2012-03-24T08:00:02Z</time>
      </trkpt>
      <trkpt lat="47.05143584869802" lon="6.842745272442699">
        <ele>1353.6700000000001</ele>
        <time>2012-03-24T08:00:03Z</time>
      </trkpt>
      <trkpt lat="47.051450265571475" lon="6.842769579961896">
        <ele>1354.1500000000001</ele>
        <time>2012-03-24T08:00:04Z</time>
      </trkpt>
      <trkpt lat="47.051461497321725" lon="6.842802269384265">
        <ele>1353.6700000000001</ele>
        <time>2012-03-24T08:00:05Z</time>
      </trkpt>
      <trkpt lat="47.051474489271641" lon="6.842832360416651">
        <ele>1354.1500000000001</ele>
        <time>2012-03-24T08:00:06Z</time>
      </trkpt>
      <trkpt lat="47.05149251036346" lon="6.842854404821992">
        <ele>1354.1500000000001</ele>
        <time>2012-03-24T08:00:07Z</time>
      </trkpt>
      <trkpt lat="47.051506675779819" lon="6.842880304902792">
        <ele>1354.1500000000001</ele>
        <time>2012-03-24T08:00:08Z</time>
      </trkpt>
      <trkpt lat="47.051519248634577" lon="6.842909557744861">
        <ele>1354.6300000000001</ele>
        <time>2012-03-24T08:00:09Z</time>
      </trkpt>
      <trkpt lat="47.051536934450269" lon="6.842930428683758">
        <ele>1353.6700000000001</ele>
        <time>2012-03-24T08:00:10Z</time>
      </trkpt>
      <trkpt lat="47.051556129008532" lon="6.842951970174909">
        <ele>1354.6300000000001</ele>
        <time>2012-03-24T08:00:11Z</time>
      </trkpt>
      <trkpt lat="47.05157121643424" lon="6.842984994873405">
        <ele>1355.1199999999999</ele>
        <time>2012-03-24T08:00:12Z</time>
      </trkpt>
      <trkpt lat="47.051587980240583" lon="6.843016007915139">
        <ele>1355.5999999999999</ele>
        <time>2012-03-24T08:00:13Z</time>
      </trkpt>
      <trkpt lat="47.051609354093671" lon="6.843039728701115">
        <ele>1355.1199999999999</ele>
        <time>2012-03-24T08:00:14Z</time>
      </trkpt>
      <trkpt lat="47.051627039909363" lon="6.843070071190596">
        <ele>1355.1199999999999</ele>
        <time>2012-03-24T08:00:15Z</time>
      </trkpt>
      <trkpt lat="47.051641624420881" lon="6.843107035383582">
        <ele>1354.6300000000001</ele>
        <time>2012-03-24T08:00:16Z</time>
      </trkpt>
      <trkpt lat="47.051660399883986" lon="6.843137880787253">
        <ele>1355.5999999999999</ele>
        <time>2012-03-24T08:00:17Z</time>
      </trkpt>
      <trkpt lat="47.051678672432899" lon="6.843167552724481">
        <ele>1356.0799999999999</ele>
        <time>2012-03-24T08:00:18Z</time>
      </trkpt>
      <trkpt lat="47.051691580563784" lon="6.843207282945514">
        <ele>1356.0799999999999</ele>
        <time>2012-03-24T08:00:19Z</time>
      </trkpt>
      <trkpt lat="47.051707087084651" lon="6.843237290158868">
        <ele>1356.0799999999999</ele>
        <time>2012-03-24T08:00:20Z</time>
      </trkpt>
      <trkpt lat="47.051726700738072" lon="6.84326184913516">
        <ele>1356.0799999999999</ele>
        <time>2012-03-24T08:00:21Z</time>
      </trkpt>
      <trkpt lat="47.051741285249591" lon="6.843295628204942">
        <ele>1356.0799999999999</ele>
        <time>2012-03-24T08:00:22Z</time>
      </trkpt>
      <trkpt lat="47.051758216693997" lon="6.843328485265374">
        <ele>1355.5999999999999</ele>
        <time>2012-03-24T08:00:23Z</time>
      </trkpt>
      <trkpt lat="47.051781434565783" lon="6.843356816098094">
        <ele>1355.5999999999999</ele>
        <time>2012-03-24T08:00:24Z</time>
      </trkpt>
      <trkpt lat="47.051800461485982" lon="6.843394953757525">
        <ele>1356.5599999999999</ele>
        <time>2012-03-24T08:00:25Z</time>
      </trkpt>
      <trkpt lat="47.051816806197166" lon="6.843436444178224">
        <ele>1356.0799999999999</ele>
        <time>2012-03-24T08:00:26Z</time>
      </trkpt>
      <trkpt lat="47.051835665479302" lon="6.843473743647337">
        <ele>1356.5599999999999</ele>
        <time>2012-03-24T08:00:27Z</time>
      </trkpt>
      <trkpt lat="47.051854021847248" lon="6.843514563515782">
        <ele>1357.04</ele>
        <time>2012-03-24T08:00:28Z</time>
      </trkpt>
      <trkpt lat="47.051871037110686" lon="6.843559155240655">
        <ele>1356.5599999999999</ele>
        <time>2012-03-24T08:00:29Z</time>
      </trkpt>
      <trkpt lat="47.051891153678298" lon="6.843595867976546">
        <ele>1356.0799999999999</ele>
        <time>2012-03-24T08:00:30Z</time>
      </trkpt>
      <trkpt lat="47.051910432055593" lon="6.843631826341152">
        <ele>1356.5599999999999</ele>
        <time>2012-03-24T08:00:31Z</time>
      </trkpt>
      <trkpt lat="47.051926357671618" lon="6.843678848817945">
        <ele>1356.5599999999999</ele>
        <time>2012-03-24T08:00:32Z</time>
      </trkpt>
      <trkpt lat="47.051943959668279" lon="6.843722686171532">
        <ele>1356.5599999999999</ele>
        <time>2012-03-24T08:00:33Z</time>
      </trkpt>
      <trkpt lat="47.051966926082969" lon="6.84375780634582">
        <ele>1357.04</ele>
        <time>2012-03-24T08:00:34Z</time>
      </trkpt>
      <trkpt lat="47.051987713202834" lon="6.843798458576202">
        <ele>1357.52</ele>
        <time>2012-03-24T08:00:35Z</time>
      </trkpt>
      <trkpt lat="47.052008835598826" lon="6.84383936226368">
        <ele>1356.5599999999999</ele>
        <time>2012-03-24T08:00:36Z</time>
      </trkpt>
      <trkpt lat="47.052033059298992" lon="6.843873308971524">
        <ele>1356.0799999999999</ele>
        <time>2012-03-24T08:00:37Z</time>
      </trkpt>
      <trkpt lat="47.052055774256587" lon="6.843916727229953">
        <ele>1356.0799999999999</ele>
        <time>2012-03-24T08:00:38Z</time>
      </trkpt>
      <trkpt lat="47.052077651023865" lon="6.843964839354157">
        <ele>1356.0799999999999</ele>
        <time>2012-03-24T08:00:39Z</time>
      </trkpt>
      <trkpt lat="47.052102210000157" lon="6.844001887366176">
        <ele>1356.5599999999999</ele>
        <time>2012-03-24T08:00:40Z</time>
      </trkpt>
      <trkpt lat="47.052125427871943" lon="6.844040360301733">
        <ele>1357.04</ele>
        <time>2012-03-24T08:00:41Z</time>
      </trkpt>
      <trkpt lat="47.052146382629871" lon="6.844081180170178">
        <ele>1357.04</ele>
        <time>2012-03-24T08:00:42Z</time>
      </trkpt>
      <trkpt lat="47.05216976813972" lon="6.844116048887372">
        <ele>1356.5599999999999</ele>
        <time>2012-03-24T08:00:43Z</time>
      </trkpt>
      <trkpt lat="47.05219273455441" lon="6.844153767451644">
        <ele>1357.04</ele>
        <time>2012-03-24T08:00:44Z</time>
      </trkpt>
      <trkpt lat="47.052213689312339" lon="6.844195509329438">
        <ele>1357.04</ele>
        <time>2012-03-24T08:00:45Z</time>
      </trkpt>
      <trkpt lat="47.052304213866591" lon="6.844346886500716">
        <ele>1357.04</ele>
        <time>2012-03-24T08:00:49Z</time>
      </trkpt>
      <trkpt lat="47.052352158352733" lon="6.844421988353133">
        <ele>1358</ele>
        <time>2012-03-24T08:00:51Z</time>
      </trkpt>
      <trkpt lat="47.0523711014539" lon="6.844457527622581">
        <ele>1357.52</ele>
        <time>2012-03-24T08:00:52Z</time>
      </trkpt>
      <trkpt lat="47.052395325154066" lon="6.844483008608222">
        <ele>1357.04</ele>
        <time>2012-03-24T08:00:53Z</time>
      </trkpt>
      <trkpt lat="47.052416699007154" lon="6.844513099640608">
        <ele>1357.52</ele>
        <time>2012-03-24T08:00:54Z</time>
      </trkpt>
      <trkpt lat="47.052432205528021" lon="6.844548303633928">
        <ele>1357.52</ele>
        <time>2012-03-24T08:00:55Z</time>
      </trkpt>
      <trkpt lat="47.052451483905315" lon="6.844577556475997">
        <ele>1358</ele>
        <time>2012-03-24T08:00:56Z</time>
      </trkpt>
      <trkpt lat="47.052471935749054" lon="6.844605719670653">
        <ele>1358.48</ele>
        <time>2012-03-24T08:00:57Z</time>
      </trkpt>
      <trkpt lat="47.052490124478936" lon="6.844644527882338">
        <ele>1358.96</ele>
        <time>2012-03-24T08:00:58Z</time>
      </trkpt>
      <trkpt lat="47.052509067580104" lon="6.844679731875658">
        <ele>1359.4400000000001</ele>
        <time>2012-03-24T08:00:59Z</time>
      </trkpt>
      <trkpt lat="47.052535135298967" lon="6.84471501968801">
        <ele>1359.4400000000001</ele>
        <time>2012-03-24T08:01:00Z</time>
      </trkpt>
      <trkpt lat="47.052554497495294" lon="6.844758270308375">
        <ele>1359.4400000000001</ele>
        <time>2012-03-24T08:01:01Z</time>
      </trkpt>
      <trkpt lat="47.052571345120668" lon="6.844801269471645">
        <ele>1358.48</ele>
        <time>2012-03-24T08:01:02Z</time>
      </trkpt>
      <trkpt lat="47.052591545507312" lon="6.844836892560124">
        <ele>1358.48</ele>
        <time>2012-03-24T08:01:03Z</time>
      </trkpt>
      <trkpt lat="47.052614176645875" lon="6.844874024391174">
        <ele>1358.48</ele>
        <time>2012-03-24T08:01:04Z</time>
      </trkpt>
      <trkpt lat="47.052635550498962" lon="6.844916269183159">
        <ele>1358</ele>
        <time>2012-03-24T08:01:05Z</time>
      </trkpt>
      <trkpt lat="47.052656589075923" lon="6.844956502318382">
        <ele>1358.96</ele>
        <time>2012-03-24T08:01:06Z</time>
      </trkpt>
      <trkpt lat="47.052676118910313" lon="6.844996651634574">
        <ele>1358.96</ele>
        <time>2012-03-24T08:01:07Z</time>
      </trkpt>
      <trkpt lat="47.052692631259561" lon="6.845047697424889">
        <ele>1358.48</ele>
        <time>2012-03-24T08:01:08Z</time>
      </trkpt>
      <trkpt lat="47.05276588909328" lon="6.845189183950424">
        <ele>1358.48</ele>
        <time>2012-03-24T08:01:11Z</time>
      </trkpt>
      <trkpt lat="47.05279229208827" lon="6.845245342701674">
        <ele>1358</ele>
        <time>2012-03-24T08:01:12Z</time>
      </trkpt>
      <trkpt lat="47.052824227139354" lon="6.845297059044242">
        <ele>1358</ele>
        <time>2012-03-24T08:01:13Z</time>
      </trkpt>
      <trkpt lat="47.052854150533676" lon="6.845352798700333">
        <ele>1357.52</ele>
        <time>2012-03-24T08:01:14Z</time>
      </trkpt>
      <trkpt lat="47.052882732823491" lon="6.845415830612183">
        <ele>1356.5599999999999</ele>
        <time>2012-03-24T08:01:15Z</time>
      </trkpt>
      <trkpt lat="47.052917517721653" lon="6.845472827553749">
        <ele>1356.5599999999999</ele>
        <time>2012-03-24T08:01:16Z</time>
      </trkpt>
      <trkpt lat="47.053111139684916" lon="6.845820927992463">
        <ele>1355.5999999999999</ele>
        <time>2012-03-24T08:01:22Z</time>
      </trkpt>
      <trkpt lat="47.053308114409447" lon="6.846169866621494">
        <ele>1355.5999999999999</ele>
        <time>2012-03-24T08:01:31Z</time>
      </trkpt>
      <trkpt lat="47.053418839350343" lon="6.846375977620482">
        <ele>1357.52</ele>
        <time>2012-03-24T08:01:38Z</time>
      </trkpt>
      <trkpt lat="47.053547501564026" lon="6.846615532413125">
        <ele>1359.4400000000001</ele>
        <time>2012-03-24T08:01:46Z</time>
      </trkpt>
      <trkpt lat="47.053620759397745" lon="6.84674084186554">
        <ele>1360.8800000000001</ele>
        <time>2012-03-24T08:01:50Z</time>
      </trkpt>
      <trkpt lat="47.053640875965357" lon="6.846773531287909">
        <ele>1360.4000000000001</ele>
        <time>2012-03-24T08:01:51Z</time>
      </trkpt>
      <trkpt lat="47.05370114184916" lon="6.846862463280559">
        <ele>1360.8800000000001</ele>
        <time>2012-03-24T08:01:54Z</time>
      </trkpt>
      <trkpt lat="47.053846316412091" lon="6.847139149904251">
        <ele>1361.3599999999999</ele>
        <time>2012-03-24T08:02:02Z</time>
      </trkpt>
      <trkpt lat="47.054036753252149" lon="6.847481383010745">
        <ele>1362.8099999999999</ele>
        <time>2012-03-24T08:02:12Z</time>
      </trkpt>
      <trkpt lat="47.054179580882192" lon="6.847711801528931">
        <ele>1362.3299999999999</ele>
        <time>2012-03-24T08:02:19Z</time>
      </trkpt>
      <trkpt lat="47.054325258359313" lon="6.847955295816064">
        <ele>1363.77</ele>
        <time>2012-03-24T08:02:27Z</time>
      </trkpt>
      <trkpt lat="47.054459284991026" lon="6.848149336874485">
        <ele>1363.77</ele>
        <time>2012-03-24T08:02:33Z</time>
      </trkpt>
      <trkpt lat="47.054500775411725" lon="6.848203483968973">
        <ele>1363.77</ele>
        <time>2012-03-24T08:02:35Z</time>
      </trkpt>
      <trkpt lat="47.054563639685512" lon="6.848296858370304">
        <ele>1363.29</ele>
        <time>2012-03-24T08:02:38Z</time>
      </trkpt>
      <trkpt lat="47.054620888084173" lon="6.84838118031621">
        <ele>1363.29</ele>
        <time>2012-03-24T08:02:41Z</time>
      </trkpt>
      <trkpt lat="47.054680064320564" lon="6.84846717864275">
        <ele>1363.77</ele>
        <time>2012-03-24T08:02:44Z</time>
      </trkpt>
      <trkpt lat="47.054874943569303" lon="6.84875501319766">
        <ele>1365.6900000000001</ele>
        <time>2012-03-24T08:02:53Z</time>
      </trkpt>
      <trkpt lat="47.05499161966145" lon="6.848910665139556">
        <ele>1366.1700000000001</ele>
        <time>2012-03-24T08:02:58Z</time>
      </trkpt>
      <trkpt lat="47.05508348532021" lon="6.849036812782288">
        <ele>1366.6500000000001</ele>
        <time>2012-03-24T08:03:02Z</time>
      </trkpt>
      <trkpt lat="47.055182475596666" lon="6.849156422540546">
        <ele>1365.6900000000001</ele>
        <time>2012-03-24T08:03:06Z</time>
      </trkpt>
      <trkpt lat="47.055471818894148" lon="6.849508211016655">
        <ele>1365.6900000000001</ele>
        <time>2012-03-24T08:03:15Z</time>
      </trkpt>
      <trkpt lat="47.055549770593643" lon="6.849601333960891">
        <ele>1365.21</ele>
        <time>2012-03-24T08:03:17Z</time>
      </trkpt>
      <trkpt lat="47.055725790560246" lon="6.849838793277741">
        <ele>1364.25</ele>
        <time>2012-03-24T08:03:22Z</time>
      </trkpt>
      <trkpt lat="47.055791253224015" lon="6.849928479641676">
        <ele>1363.29</ele>
        <time>2012-03-24T08:03:24Z</time>
      </trkpt>
      <trkpt lat="47.055889992043376" lon="6.850080275908113">
        <ele>1362.8099999999999</ele>
        <time>2012-03-24T08:03:27Z</time>
      </trkpt>
      <trkpt lat="47.055990491062403" lon="6.850231569260359">
        <ele>1361.8399999999999</ele>
        <time>2012-03-24T08:03:30Z</time>
      </trkpt>
      <trkpt lat="47.055997448042035" lon="6.850282866507769">
        <ele>1360.8800000000001</ele>
        <time>2012-03-24T08:03:31Z</time>
      </trkpt>
      <trkpt lat="47.055989149957895" lon="6.850318070501089">
        <ele>1360.4000000000001</ele>
        <time>2012-03-24T08:03:32Z</time>
      </trkpt>
      <trkpt lat="47.055975822731853" lon="6.850335840135813">
        <ele>1360.4000000000001</ele>
        <time>2012-03-24T08:03:33Z</time>
      </trkpt>
      <trkpt lat="47.055957214906812" lon="6.850331565365195">
        <ele>1359.9200000000001</ele>
        <time>2012-03-24T08:03:34Z</time>
      </trkpt>
      <trkpt lat="47.055789493024349" lon="6.850244393572211">
        <ele>1360.8800000000001</ele>
        <time>2012-03-24T08:03:41Z</time>
      </trkpt>
      <trkpt lat="47.055678013712168" lon="6.850191922858357">
        <ele>1361.8399999999999</ele>
        <time>2012-03-24T08:03:45Z</time>
      </trkpt>
      <trkpt lat="47.055452037602663" lon="6.850086310878396">
        <ele>1362.8099999999999</ele>
        <time>2012-03-24T08:03:53Z</time>
      </trkpt>
      <trkpt lat="47.055321363732219" lon="6.850033756345511">
        <ele>1363.77</ele>
        <time>2012-03-24T08:03:57Z</time>
      </trkpt>
      <trkpt lat="47.055251123383641" lon="6.849998636171222">
        <ele>1363.29</ele>
        <time>2012-03-24T08:03:59Z</time>
      </trkpt>
      <trkpt lat="47.055066386237741" lon="6.849918337538838">
        <ele>1362.8099999999999</ele>
        <time>2012-03-24T08:04:04Z</time>
      </trkpt>
      <trkpt lat="47.055023973807693" lon="6.849903166294098">
        <ele>1362.3299999999999</ele>
        <time>2012-03-24T08:04:05Z</time>
      </trkpt>
      <trkpt lat="47.05497887916863" lon="6.849888581782579">
        <ele>1362.3299999999999</ele>
        <time>2012-03-24T08:04:06Z</time>
      </trkpt>
      <trkpt lat="47.054934287443757" lon="6.84986419044435">
        <ele>1362.3299999999999</ele>
        <time>2012-03-24T08:04:07Z</time>
      </trkpt>
      <trkpt lat="47.054889528080821" lon="6.849841140210629">
        <ele>1362.3299999999999</ele>
        <time>2012-03-24T08:04:08Z</time>
      </trkpt>
      <trkpt lat="47.054844601079822" lon="6.849823454394937">
        <ele>1361.8399999999999</ele>
        <time>2012-03-24T08:04:09Z</time>
      </trkpt>
      <trkpt lat="47.054801685735583" lon="6.849798727780581">
        <ele>1361.8399999999999</ele>
        <time>2012-03-24T08:04:10Z</time>
      </trkpt>
      <trkpt lat="47.054760446771979" lon="6.849773246794939">
        <ele>1362.3299999999999</ele>
        <time>2012-03-24T08:04:11Z</time>
      </trkpt>
      <trkpt lat="47.054717699065804" lon="6.849750615656376">
        <ele>1361.8399999999999</ele>
        <time>2012-03-24T08:04:12Z</time>
      </trkpt>
      <trkpt lat="47.054673191159964" lon="6.849719267338514">
        <ele>1361.3599999999999</ele>
        <time>2012-03-24T08:04:13Z</time>
      </trkpt>
      <trkpt lat="47.05462759360671" lon="6.849690265953541">
        <ele>1361.3599999999999</ele>
        <time>2012-03-24T08:04:14Z</time>
      </trkpt>
      <trkpt lat="47.054581576958299" lon="6.849661516025662">
        <ele>1360.8800000000001</ele>
        <time>2012-03-24T08:04:15Z</time>
      </trkpt>
      <trkpt lat="47.054534470662475" lon="6.849632347002626">
        <ele>1360.8800000000001</ele>
        <time>2012-03-24T08:04:16Z</time>
      </trkpt>
      <trkpt lat="47.054483173415065" lon="6.849611392244697">
        <ele>1360.8800000000001</ele>
        <time>2012-03-24T08:04:17Z</time>
      </trkpt>
      <trkpt lat="47.054431457072496" lon="6.849584905430675">
        <ele>1360.8800000000001</ele>
        <time>2012-03-24T08:04:18Z</time>
      </trkpt>
      <trkpt lat="47.054381584748626" lon="6.849556406959891">
        <ele>1359.9200000000001</ele>
        <time>2012-03-24T08:04:19Z</time>
      </trkpt>
      <trkpt lat="47.054330119863153" lon="6.849531177431345">
        <ele>1360.4000000000001</ele>
        <time>2012-03-24T08:04:20Z</time>
      </trkpt>
      <trkpt lat="47.054279493167996" lon="6.849501002579927">
        <ele>1359.9200000000001</ele>
        <time>2012-03-24T08:04:21Z</time>
      </trkpt>
      <trkpt lat="47.054228615015745" lon="6.849469654262066">
        <ele>1359.9200000000001</ele>
        <time>2012-03-24T08:04:22Z</time>
      </trkpt>
      <trkpt lat="47.054178575053811" lon="6.849436545744538">
        <ele>1359.9200000000001</ele>
        <time>2012-03-24T08:04:23Z</time>
      </trkpt>
      <trkpt lat="47.054079752415419" lon="6.849343171343207">
        <ele>1359.4400000000001</ele>
        <time>2012-03-24T08:04:25Z</time>
      </trkpt>
      <trkpt lat="47.054033735767007" lon="6.84928416274488">
        <ele>1358.48</ele>
        <time>2012-03-24T08:04:26Z</time>
      </trkpt>
      <trkpt lat="47.053992161527276" lon="6.849217442795634">
        <ele>1358.96</ele>
        <time>2012-03-24T08:04:27Z</time>
      </trkpt>
      <trkpt lat="47.053568121045828" lon="6.848434656858444">
        <ele>1355.5999999999999</ele>
        <time>2012-03-24T08:04:37Z</time>
      </trkpt>
      <trkpt lat="47.05331314355135" lon="6.848019417375326">
        <ele>1354.1500000000001</ele>
        <time>2012-03-24T08:04:42Z</time>
      </trkpt>
      <trkpt lat="47.052824562415481" lon="6.847224393859506">
        <ele>1350.79</ele>
        <time>2012-03-24T08:04:51Z</time>
      </trkpt>
      <trkpt lat="47.052306812256575" lon="6.846462897956371">
        <ele>1346.9400000000001</ele>
        <time>2012-03-24T08:05:00Z</time>
      </trkpt>
      <trkpt lat="47.051753103733063" lon="6.845856131985784">
        <ele>1343.5799999999999</ele>
        <time>2012-03-24T08:05:08Z</time>
      </trkpt>
      <trkpt lat="47.051610108464956" lon="6.845683800056577">
        <ele>1343.0999999999999</ele>
        <time>2012-03-24T08:05:10Z</time>
      </trkpt>
      <trkpt lat="47.051394442096353" lon="6.845412980765104">
        <ele>1341.1800000000001</ele>
        <time>2012-03-24T08:05:13Z</time>
      </trkpt>
      <trkpt lat="47.05109478905797" lon="6.845039734616876">
        <ele>1337.8099999999999</ele>
        <time>2012-03-24T08:05:17Z</time>
      </trkpt>
      <trkpt lat="47.051018932834268" lon="6.844946192577481">
        <ele>1337.8099999999999</ele>
        <time>2012-03-24T08:05:18Z</time>
      </trkpt>
      <trkpt lat="47.050697486847639" lon="6.844571605324745">
        <ele>1334.9300000000001</ele>
        <time>2012-03-24T08:05:22Z</time>
      </trkpt>
      <trkpt lat="47.050513923168182" lon="6.844407990574837">
        <ele>1333.01</ele>
        <time>2012-03-24T08:05:24Z</time>
      </trkpt>
      <trkpt lat="47.050014361739159" lon="6.844091825187206">
        <ele>1329.6400000000001</ele>
        <time>2012-03-24T08:05:29Z</time>
      </trkpt>
      <trkpt lat="47.049435339868069" lon="6.843685805797577">
        <ele>1326.28</ele>
        <time>2012-03-24T08:05:36Z</time>
      </trkpt>
      <trkpt lat="47.048763362690806" lon="6.843004776164889">
        <ele>1324.8299999999999</ele>
        <time>2012-03-24T08:05:48Z</time>
      </trkpt>
      <trkpt lat="47.048120889812708" lon="6.842133058235049">
        <ele>1322.4300000000001</ele>
        <time>2012-03-24T08:06:01Z</time>
      </trkpt>
      <trkpt lat="47.047726269811392" lon="6.841490250080824">
        <ele>1320.03</ele>
        <time>2012-03-24T08:06:11Z</time>
      </trkpt>
      <trkpt lat="47.047666003927588" lon="6.841377094388008">
        <ele>1319.55</ele>
        <time>2012-03-24T08:06:13Z</time>
      </trkpt>
      <trkpt lat="47.047639098018408" lon="6.841330658644438">
        <ele>1320.51</ele>
        <time>2012-03-24T08:06:14Z</time>
      </trkpt>
      <trkpt lat="47.047618394717574" lon="6.841279109939933">
        <ele>1320.51</ele>
        <time>2012-03-24T08:06:15Z</time>
      </trkpt>
      <trkpt lat="47.047595260664821" lon="6.84123057872057">
        <ele>1320.03</ele>
        <time>2012-03-24T08:06:16Z</time>
      </trkpt>
      <trkpt lat="47.047571120783687" lon="6.84118464589119">
        <ele>1320.51</ele>
        <time>2012-03-24T08:06:17Z</time>
      </trkpt>
      <trkpt lat="47.047550166025758" lon="6.841133181005716">
        <ele>1320.51</ele>
        <time>2012-03-24T08:06:18Z</time>
      </trkpt>
      <trkpt lat="47.047459222376347" lon="6.840900080278516">
        <ele>1320.51</ele>
        <time>2012-03-24T08:06:23Z</time>
      </trkpt>
      <trkpt lat="47.047426030039787" lon="6.840820787474513">
        <ele>1320.99</ele>
        <time>2012-03-24T08:06:25Z</time>
      </trkpt>
      <trkpt lat="47.047415217384696" lon="6.840780386701226">
        <ele>1320.99</ele>
        <time>2012-03-24T08:06:26Z</time>
      </trkpt>
      <trkpt lat="47.047397783026099" lon="6.84074442833662">
        <ele>1320.99</ele>
        <time>2012-03-24T08:06:27Z</time>
      </trkpt>
      <trkpt lat="47.047383617609739" lon="6.840704614296556">
        <ele>1321.47</ele>
        <time>2012-03-24T08:06:28Z</time>
      </trkpt>
      <trkpt lat="47.047379929572344" lon="6.840658178552985">
        <ele>1320.99</ele>
        <time>2012-03-24T08:06:29Z</time>
      </trkpt>
      <trkpt lat="47.047374313697219" lon="6.840617107227445">
        <ele>1321.95</ele>
        <time>2012-03-24T08:06:30Z</time>
      </trkpt>
      <trkpt lat="47.047363333404064" lon="6.840579975396395">
        <ele>1321.47</ele>
        <time>2012-03-24T08:06:31Z</time>
      </trkpt>
      <trkpt lat="47.047358304262161" lon="6.840538484975696">
        <ele>1321.95</ele>
        <time>2012-03-24T08:06:32Z</time>
      </trkpt>
      <trkpt lat="47.047361573204398" lon="6.840493809431791">
        <ele>1322.4300000000001</ele>
        <time>2012-03-24T08:06:33Z</time>
      </trkpt>
      <trkpt lat="47.047362076118588" lon="6.840453073382378">
        <ele>1321.95</ele>
        <time>2012-03-24T08:06:34Z</time>
      </trkpt>
      <trkpt lat="47.0473528560251" lon="6.840415606275201">
        <ele>1322.9100000000001</ele>
        <time>2012-03-24T08:06:35Z</time>
      </trkpt>
      <trkpt lat="47.04734992235899" lon="6.84037403203547">
        <ele>1322.9100000000001</ele>
        <time>2012-03-24T08:06:36Z</time>
      </trkpt>
      <trkpt lat="47.047356711700559" lon="6.840326339006424">
        <ele>1322.9100000000001</ele>
        <time>2012-03-24T08:06:37Z</time>
      </trkpt>
      <trkpt lat="47.047364171594381" lon="6.840275628492236">
        <ele>1322.9100000000001</ele>
        <time>2012-03-24T08:06:38Z</time>
      </trkpt>
      <trkpt lat="47.047365261241794" lon="6.840224582701922">
        <ele>1322.9100000000001</ele>
        <time>2012-03-24T08:06:39Z</time>
      </trkpt>
      <trkpt lat="47.047366350889206" lon="6.840170854702592">
        <ele>1322.4300000000001</ele>
        <time>2012-03-24T08:06:40Z</time>
      </trkpt>
      <trkpt lat="47.047372553497553" lon="6.840117378160358">
        <ele>1322.9100000000001</ele>
        <time>2012-03-24T08:06:41Z</time>
      </trkpt>
      <trkpt lat="47.047379678115249" lon="6.840067841112614">
        <ele>1322.9100000000001</ele>
        <time>2012-03-24T08:06:42Z</time>
      </trkpt>
      <trkpt lat="47.047381354495883" lon="6.840017130598426">
        <ele>1322.9100000000001</ele>
        <time>2012-03-24T08:06:43Z</time>
      </trkpt>
      <trkpt lat="47.047388730570674" lon="6.839969269931316">
        <ele>1322.9100000000001</ele>
        <time>2012-03-24T08:06:44Z</time>
      </trkpt>
      <trkpt lat="47.047402309253812" lon="6.839926019310951">
        <ele>1323.8699999999999</ele>
        <time>2012-03-24T08:06:45Z</time>
      </trkpt>
      <trkpt lat="47.047410439699888" lon="6.839889390394092">
        <ele>1323.8699999999999</ele>
        <time>2012-03-24T08:06:46Z</time>
      </trkpt>
      <trkpt lat="47.047419575974345" lon="6.839825604110956">
        <ele>1323.8699999999999</ele>
        <time>2012-03-24T08:06:48Z</time>
      </trkpt>
      <trkpt lat="47.047440363094211" lon="6.839686464518309">
        <ele>1325.8</ele>
        <time>2012-03-24T08:06:55Z</time>
      </trkpt>
      <trkpt lat="47.047423599287868" lon="6.839563501998782">
        <ele>1327.72</ele>
        <time>2012-03-24T08:07:00Z</time>
      </trkpt>
      <trkpt lat="47.047310108318925" lon="6.839304082095623">
        <ele>1329.6400000000001</ele>
        <time>2012-03-24T08:07:10Z</time>
      </trkpt>
      <trkpt lat="47.047199802473187" lon="6.839149855077267">
        <ele>1330.1199999999999</ele>
        <time>2012-03-24T08:07:17Z</time>
      </trkpt>
      <trkpt lat="47.047112714499235" lon="6.839035274460912">
        <ele>1331.5599999999999</ele>
        <time>2012-03-24T08:07:22Z</time>
      </trkpt>
      <trkpt lat="47.04694633372128" lon="6.838859422132373">
        <ele>1333.49</ele>
        <time>2012-03-24T08:07:31Z</time>
      </trkpt>
      <trkpt lat="47.046842649579048" lon="6.838723802939057">
        <ele>1334.9300000000001</ele>
        <time>2012-03-24T08:07:38Z</time>
      </trkpt>
      <trkpt lat="47.0467259734869" lon="6.838577454909682">
        <ele>1336.8499999999999</ele>
        <time>2012-03-24T08:07:45Z</time>
      </trkpt>
      <trkpt lat="47.04665707424283" lon="6.838500173762441">
        <ele>1337.8099999999999</ele>
        <time>2012-03-24T08:07:49Z</time>
      </trkpt>
      <trkpt lat="47.046604687348008" lon="6.838439404964447">
        <ele>1337.8099999999999</ele>
        <time>2012-03-24T08:07:52Z</time>
      </trkpt>
      <trkpt lat="47.046564621850848" lon="6.838408811017871">
        <ele>1338.77</ele>
        <time>2012-03-24T08:07:54Z</time>
      </trkpt>
      <trkpt lat="47.046451382339001" lon="6.838285345584154">
        <ele>1339.73</ele>
        <time>2012-03-24T08:08:00Z</time>
      </trkpt>
      <trkpt lat="47.046272428706288" lon="6.838102200999856">
        <ele>1340.7</ele>
        <time>2012-03-24T08:08:09Z</time>
      </trkpt>
      <trkpt lat="47.046111077070236" lon="6.837949231266975">
        <ele>1341.6600000000001</ele>
        <time>2012-03-24T08:08:16Z</time>
      </trkpt>
      <trkpt lat="47.045933967456222" lon="6.837782431393862">
        <ele>1342.1400000000001</ele>
        <time>2012-03-24T08:08:24Z</time>
      </trkpt>
      <trkpt lat="47.045758198946714" lon="6.83761521242559">
        <ele>1342.1400000000001</ele>
        <time>2012-03-24T08:08:31Z</time>
      </trkpt>
      <trkpt lat="47.045593746006489" lon="6.837423434481025">
        <ele>1343.0999999999999</ele>
        <time>2012-03-24T08:08:38Z</time>
      </trkpt>
      <trkpt lat="47.04546382650733" lon="6.837286809459329">
        <ele>1345.02</ele>
        <time>2012-03-24T08:08:45Z</time>
      </trkpt>
      <trkpt lat="47.045318316668272" lon="6.837163930758834">
        <ele>1346.46</ele>
        <time>2012-03-24T08:08:52Z</time>
      </trkpt>
      <trkpt lat="47.045173645019531" lon="6.8370361905545">
        <ele>1347.9100000000001</ele>
        <time>2012-03-24T08:08:59Z</time>
      </trkpt>
      <trkpt lat="47.045045485720038" lon="6.836930578574538">
        <ele>1349.8299999999999</ele>
        <time>2012-03-24T08:09:06Z</time>
      </trkpt>
      <trkpt lat="47.044890839606524" lon="6.836827648803592">
        <ele>1351.27</ele>
        <time>2012-03-24T08:09:13Z</time>
      </trkpt>
      <trkpt lat="47.044712891802192" lon="6.836755480617285">
        <ele>1350.79</ele>
        <time>2012-03-24T08:09:20Z</time>
      </trkpt>
      <trkpt lat="47.044449029490352" lon="6.836718684062362">
        <ele>1351.75</ele>
        <time>2012-03-24T08:09:28Z</time>
      </trkpt>
      <trkpt lat="47.044411227107048" lon="6.836716588586569">
        <ele>1352.23</ele>
        <time>2012-03-24T08:09:29Z</time>
      </trkpt>
      <trkpt lat="47.044373927637935" lon="6.836718851700425">
        <ele>1351.75</ele>
        <time>2012-03-24T08:09:30Z</time>
      </trkpt>
      <trkpt lat="47.044334365054965" lon="6.836709463968873">
        <ele>1351.27</ele>
        <time>2012-03-24T08:09:31Z</time>
      </trkpt>
      <trkpt lat="47.044297065585852" lon="6.836702506989241">
        <ele>1351.27</ele>
        <time>2012-03-24T08:09:32Z</time>
      </trkpt>
      <trkpt lat="47.04426278360188" lon="6.836706111207604">
        <ele>1351.75</ele>
        <time>2012-03-24T08:09:33Z</time>
      </trkpt>
      <trkpt lat="47.044227160513401" lon="6.836701668798924">
        <ele>1351.75</ele>
        <time>2012-03-24T08:09:34Z</time>
      </trkpt>
      <trkpt lat="47.044194471091032" lon="6.836698232218623">
        <ele>1350.79</ele>
        <time>2012-03-24T08:09:35Z</time>
      </trkpt>
      <trkpt lat="47.044164044782519" lon="6.836702842265368">
        <ele>1351.27</ele>
        <time>2012-03-24T08:09:36Z</time>
      </trkpt>
      <trkpt lat="47.044132612645626" lon="6.836698399856687">
        <ele>1351.27</ele>
        <time>2012-03-24T08:09:37Z</time>
      </trkpt>
      <trkpt lat="47.044102437794209" lon="6.836689934134483">
        <ele>1351.75</ele>
        <time>2012-03-24T08:09:38Z</time>
      </trkpt>
      <trkpt lat="47.044073855504394" lon="6.836688593029976">
        <ele>1352.23</ele>
        <time>2012-03-24T08:09:39Z</time>
      </trkpt>
      <trkpt lat="47.044045021757483" lon="6.836684569716454">
        <ele>1352.23</ele>
        <time>2012-03-24T08:09:40Z</time>
      </trkpt>
      <trkpt lat="47.044016271829605" lon="6.836674176156521">
        <ele>1351.75</ele>
        <time>2012-03-24T08:09:41Z</time>
      </trkpt>
      <trkpt lat="47.043989785015583" lon="6.836669314652681">
        <ele>1352.23</ele>
        <time>2012-03-24T08:09:42Z</time>
      </trkpt>
      <trkpt lat="47.043963298201561" lon="6.836662357673049">
        <ele>1352.71</ele>
        <time>2012-03-24T08:09:43Z</time>
      </trkpt>
      <trkpt lat="47.043936979025602" lon="6.836644839495421">
        <ele>1352.71</ele>
        <time>2012-03-24T08:09:44Z</time>
      </trkpt>
      <trkpt lat="47.043911749497056" lon="6.836633859202266">
        <ele>1353.1900000000001</ele>
        <time>2012-03-24T08:09:45Z</time>
      </trkpt>
      <trkpt lat="47.043886939063668" lon="6.836631344631314">
        <ele>1353.6700000000001</ele>
        <time>2012-03-24T08:09:46Z</time>
      </trkpt>
      <trkpt lat="47.043863218277693" lon="6.836620531976223">
        <ele>1353.6700000000001</ele>
        <time>2012-03-24T08:09:47Z</time>
      </trkpt>
      <trkpt lat="47.043839665129781" lon="6.83660670183599">
        <ele>1354.1500000000001</ele>
        <time>2012-03-24T08:09:48Z</time>
      </trkpt>
      <trkpt lat="47.043817453086376" lon="6.836603097617626">
        <ele>1353.6700000000001</ele>
        <time>2012-03-24T08:09:49Z</time>
      </trkpt>
      <trkpt lat="47.043795324862003" lon="6.836598739027977">
        <ele>1354.6300000000001</ele>
        <time>2012-03-24T08:09:50Z</time>
      </trkpt>
      <trkpt lat="47.04377168789506" lon="6.836583064869046">
        <ele>1354.6300000000001</ele>
        <time>2012-03-24T08:09:51Z</time>
      </trkpt>
      <trkpt lat="47.043748134747148" lon="6.836570324376226">
        <ele>1355.5999999999999</ele>
        <time>2012-03-24T08:09:52Z</time>
      </trkpt>
      <trkpt lat="47.043725922703743" lon="6.836568647995591">
        <ele>1355.1199999999999</ele>
        <time>2012-03-24T08:09:53Z</time>
      </trkpt>
      <trkpt lat="47.0437057223171" lon="6.836557667702436">
        <ele>1355.5999999999999</ele>
        <time>2012-03-24T08:09:54Z</time>
      </trkpt>
      <trkpt lat="47.043685941025615" lon="6.836540149524808">
        <ele>1355.5999999999999</ele>
        <time>2012-03-24T08:09:55Z</time>
      </trkpt>
      <trkpt lat="47.043665321543813" lon="6.836531683802605">
        <ele>1356.0799999999999</ele>
        <time>2012-03-24T08:09:56Z</time>
      </trkpt>
      <trkpt lat="47.043643863871694" lon="6.836527660489082">
        <ele>1356.0799999999999</ele>
        <time>2012-03-24T08:09:57Z</time>
      </trkpt>
      <trkpt lat="47.043623579666018" lon="6.836515087634325">
        <ele>1356.5599999999999</ele>
        <time>2012-03-24T08:09:58Z</time>
      </trkpt>
      <trkpt lat="47.043605390936136" lon="6.836502011865377">
        <ele>1356.5599999999999</ele>
        <time>2012-03-24T08:09:59Z</time>
      </trkpt>
      <trkpt lat="47.043585944920778" lon="6.836500922217965">
        <ele>1357.04</ele>
        <time>2012-03-24T08:10:00Z</time>
      </trkpt>
      <trkpt lat="47.043564738705754" lon="6.836495222523809">
        <ele>1357.04</ele>
        <time>2012-03-24T08:10:01Z</time>
      </trkpt>
      <trkpt lat="47.04354546032846" lon="6.836475944146514">
        <ele>1357.04</ele>
        <time>2012-03-24T08:10:02Z</time>
      </trkpt>
      <trkpt lat="47.04352836124599" lon="6.836465802043676">
        <ele>1357.04</ele>
        <time>2012-03-24T08:10:03Z</time>
      </trkpt>
      <trkpt lat="47.043507993221283" lon="6.836465550586581">
        <ele>1357.52</ele>
        <time>2012-03-24T08:10:04Z</time>
      </trkpt>
      <trkpt lat="47.043484523892403" lon="6.836456581950188">
        <ele>1357.04</ele>
        <time>2012-03-24T08:10:05Z</time>
      </trkpt>
      <trkpt lat="47.043461725115776" lon="6.836436297744513">
        <ele>1357.52</ele>
        <time>2012-03-24T08:10:06Z</time>
      </trkpt>
      <trkpt lat="47.043442782014608" lon="6.836423808708787">
        <ele>1358</ele>
        <time>2012-03-24T08:10:07Z</time>
      </trkpt>
      <trkpt lat="47.043423838913441" lon="6.836424563080072">
        <ele>1358</ele>
        <time>2012-03-24T08:10:08Z</time>
      </trkpt>
      <trkpt lat="47.043402967974544" lon="6.836419114843011">
        <ele>1358</ele>
        <time>2012-03-24T08:10:09Z</time>
      </trkpt>
      <trkpt lat="47.04338469542563" lon="6.836407212540507">
        <ele>1358</ele>
        <time>2012-03-24T08:10:10Z</time>
      </trkpt>
      <trkpt lat="47.04336759634316" lon="6.836404865607619">
        <ele>1358.48</ele>
        <time>2012-03-24T08:10:11Z</time>
      </trkpt>
      <trkpt lat="47.043348820880055" lon="6.836399082094431">
        <ele>1358.96</ele>
        <time>2012-03-24T08:10:12Z</time>
      </trkpt>
      <trkpt lat="47.0433309674263" lon="6.83638097718358">
        <ele>1358.96</ele>
        <time>2012-03-24T08:10:13Z</time>
      </trkpt>
      <trkpt lat="47.043312611058354" lon="6.836363794282079">
        <ele>1359.4400000000001</ele>
        <time>2012-03-24T08:10:14Z</time>
      </trkpt>
      <trkpt lat="47.043294589966536" lon="6.836355915293098">
        <ele>1359.4400000000001</ele>
        <time>2012-03-24T08:10:15Z</time>
      </trkpt>
      <trkpt lat="47.043275814503431" lon="6.836348790675402">
        <ele>1359.9200000000001</ele>
        <time>2012-03-24T08:10:16Z</time>
      </trkpt>
      <trkpt lat="47.043256871402264" lon="6.836332613602281">
        <ele>1359.4400000000001</ele>
        <time>2012-03-24T08:10:17Z</time>
      </trkpt>
      <trkpt lat="47.043239353224635" lon="6.836309060454369">
        <ele>1360.4000000000001</ele>
        <time>2012-03-24T08:10:18Z</time>
      </trkpt>
      <trkpt lat="47.043222757056355" lon="6.836293805390596">
        <ele>1359.9200000000001</ele>
        <time>2012-03-24T08:10:19Z</time>
      </trkpt>
      <trkpt lat="47.043204484507442" lon="6.836284920573235">
        <ele>1359.9200000000001</ele>
        <time>2012-03-24T08:10:20Z</time>
      </trkpt>
      <trkpt lat="47.043187972158194" lon="6.836264720186591">
        <ele>1359.9200000000001</ele>
        <time>2012-03-24T08:10:21Z</time>
      </trkpt>
      <trkpt lat="47.043173220008612" lon="6.836240161210299">
        <ele>1360.4000000000001</ele>
        <time>2012-03-24T08:10:22Z</time>
      </trkpt>
      <trkpt lat="47.043156623840332" lon="6.836222894489765">
        <ele>1360.8800000000001</ele>
        <time>2012-03-24T08:10:23Z</time>
      </trkpt>
      <trkpt lat="47.043137848377228" lon="6.836204119026661">
        <ele>1360.8800000000001</ele>
        <time>2012-03-24T08:10:24Z</time>
      </trkpt>
      <trkpt lat="47.043122174218297" lon="6.83617671020329">
        <ele>1360.8800000000001</ele>
        <time>2012-03-24T08:10:25Z</time>
      </trkpt>
      <trkpt lat="47.043107841163874" lon="6.836147708818317">
        <ele>1361.3599999999999</ele>
        <time>2012-03-24T08:10:26Z</time>
      </trkpt>
      <trkpt lat="47.043090155348182" lon="6.836124826222658">
        <ele>1361.8399999999999</ele>
        <time>2012-03-24T08:10:27Z</time>
      </trkpt>
      <trkpt lat="47.043073810636997" lon="6.836100267246366">
        <ele>1361.8399999999999</ele>
        <time>2012-03-24T08:10:28Z</time>
      </trkpt>
      <trkpt lat="47.043062411248684" lon="6.836067074909806">
        <ele>1361.3599999999999</ele>
        <time>2012-03-24T08:10:29Z</time>
      </trkpt>
      <trkpt lat="47.043049084022641" lon="6.836039246991277">
        <ele>1361.8399999999999</ele>
        <time>2012-03-24T08:10:30Z</time>
      </trkpt>
      <trkpt lat="47.043029302731156" lon="6.836017956957221">
        <ele>1361.3599999999999</ele>
        <time>2012-03-24T08:10:31Z</time>
      </trkpt>
      <trkpt lat="47.043011784553528" lon="6.835989207029343">
        <ele>1361.8399999999999</ele>
        <time>2012-03-24T08:10:32Z</time>
      </trkpt>
      <trkpt lat="47.043001558631659" lon="6.835950734093785">
        <ele>1361.8399999999999</ele>
        <time>2012-03-24T08:10:33Z</time>
      </trkpt>
      <trkpt lat="47.042988315224648" lon="6.835919553413987">
        <ele>1361.8399999999999</ele>
        <time>2012-03-24T08:10:34Z</time>
      </trkpt>
      <trkpt lat="47.042967947199941" lon="6.835892647504807">
        <ele>1362.3299999999999</ele>
        <time>2012-03-24T08:10:35Z</time>
      </trkpt>
      <trkpt lat="47.042954452335835" lon="6.835855264216662">
        <ele>1362.3299999999999</ele>
        <time>2012-03-24T08:10:36Z</time>
      </trkpt>
      <trkpt lat="47.04294347204268" lon="6.835820646956563">
        <ele>1362.3299999999999</ele>
        <time>2012-03-24T08:10:37Z</time>
      </trkpt>
      <trkpt lat="47.042930396273732" lon="6.835788711905479">
        <ele>1362.3299999999999</ele>
        <time>2012-03-24T08:10:38Z</time>
      </trkpt>
      <trkpt lat="47.042922182008624" lon="6.835749233141542">
        <ele>1362.8099999999999</ele>
        <time>2012-03-24T08:10:39Z</time>
      </trkpt>
      <trkpt lat="47.042912039905787" lon="6.835713358595967">
        <ele>1363.29</ele>
        <time>2012-03-24T08:10:40Z</time>
      </trkpt>
      <trkpt lat="47.042896952480078" lon="6.835685363039374">
        <ele>1362.8099999999999</ele>
        <time>2012-03-24T08:10:41Z</time>
      </trkpt>
      <trkpt lat="47.042883289977908" lon="6.835652170702815">
        <ele>1363.29</ele>
        <time>2012-03-24T08:10:42Z</time>
      </trkpt>
      <trkpt lat="47.042875746265054" lon="6.835612691938877">
        <ele>1363.77</ele>
        <time>2012-03-24T08:10:43Z</time>
      </trkpt>
      <trkpt lat="47.042863676324487" lon="6.835582014173269">
        <ele>1363.77</ele>
        <time>2012-03-24T08:10:44Z</time>
      </trkpt>
      <trkpt lat="47.042849594727159" lon="6.835551839321852">
        <ele>1363.29</ele>
        <time>2012-03-24T08:10:45Z</time>
      </trkpt>
      <trkpt lat="47.042842302471399" lon="6.835515797138214">
        <ele>1363.29</ele>
        <time>2012-03-24T08:10:46Z</time>
      </trkpt>
      <trkpt lat="47.042831070721149" lon="6.835485370829701">
        <ele>1364.25</ele>
        <time>2012-03-24T08:10:47Z</time>
      </trkpt>
      <trkpt lat="47.042818833142519" lon="6.835453938692808">
        <ele>1363.77</ele>
        <time>2012-03-24T08:10:48Z</time>
      </trkpt>
      <trkpt lat="47.042814390733838" lon="6.835412783548236">
        <ele>1364.73</ele>
        <time>2012-03-24T08:10:49Z</time>
      </trkpt>
      <trkpt lat="47.042806511744857" lon="6.835375735536218">
        <ele>1364.25</ele>
        <time>2012-03-24T08:10:50Z</time>
      </trkpt>
      <trkpt lat="47.042790586128831" lon="6.835344219580293">
        <ele>1364.73</ele>
        <time>2012-03-24T08:10:51Z</time>
      </trkpt>
      <trkpt lat="47.042778683826327" lon="6.835306417196989">
        <ele>1364.73</ele>
        <time>2012-03-24T08:10:52Z</time>
      </trkpt>
      <trkpt lat="47.042766781523824" lon="6.835271045565605">
        <ele>1364.73</ele>
        <time>2012-03-24T08:10:53Z</time>
      </trkpt>
      <trkpt lat="47.042752029374242" lon="6.835236679762602">
        <ele>1365.21</ele>
        <time>2012-03-24T08:10:54Z</time>
      </trkpt>
      <trkpt lat="47.04274264164269" lon="6.835198625922203">
        <ele>1365.21</ele>
        <time>2012-03-24T08:10:55Z</time>
      </trkpt>
      <trkpt lat="47.04273384064436" lon="6.835160572081804">
        <ele>1365.21</ele>
        <time>2012-03-24T08:10:56Z</time>
      </trkpt>
      <trkpt lat="47.042720261961222" lon="6.835125535726547">
        <ele>1365.6900000000001</ele>
        <time>2012-03-24T08:10:57Z</time>
      </trkpt>
      <trkpt lat="47.042707353830338" lon="6.835091253742576">
        <ele>1365.6900000000001</ele>
        <time>2012-03-24T08:10:58Z</time>
      </trkpt>
      <trkpt lat="47.042700732126832" lon="6.83505286462605">
        <ele>1365.6900000000001</ele>
        <time>2012-03-24T08:10:59Z</time>
      </trkpt>
      <trkpt lat="47.042690757662058" lon="6.835016738623381">
        <ele>1365.6900000000001</ele>
        <time>2012-03-24T08:11:00Z</time>
      </trkpt>
      <trkpt lat="47.042678436264396" lon="6.834979774430394">
        <ele>1365.6900000000001</ele>
        <time>2012-03-24T08:11:01Z</time>
      </trkpt>
      <trkpt lat="47.042672736570239" lon="6.834942391142249">
        <ele>1366.6500000000001</ele>
        <time>2012-03-24T08:11:02Z</time>
      </trkpt>
      <trkpt lat="47.04264935106039" lon="6.834828732535243">
        <ele>1366.6500000000001</ele>
        <time>2012-03-24T08:11:05Z</time>
      </trkpt>
      <trkpt lat="47.042642896994948" lon="6.834793863818049">
        <ele>1367.1300000000001</ele>
        <time>2012-03-24T08:11:06Z</time>
      </trkpt>
      <trkpt lat="47.042616242542863" lon="6.834724126383662">
        <ele>1367.1300000000001</ele>
        <time>2012-03-24T08:11:08Z</time>
      </trkpt>
      <trkpt lat="47.042608531191945" lon="6.834685653448105">
        <ele>1366.6500000000001</ele>
        <time>2012-03-24T08:11:09Z</time>
      </trkpt>
      <trkpt lat="47.042598221451044" lon="6.834655813872814">
        <ele>1367.6099999999999</ele>
        <time>2012-03-24T08:11:10Z</time>
      </trkpt>
      <trkpt lat="47.042587324976921" lon="6.834624130278826">
        <ele>1367.1300000000001</ele>
        <time>2012-03-24T08:11:11Z</time>
      </trkpt>
      <trkpt lat="47.042584391310811" lon="6.834588339552283">
        <ele>1367.1300000000001</ele>
        <time>2012-03-24T08:11:12Z</time>
      </trkpt>
      <trkpt lat="47.042578104883432" lon="6.834557913243771">
        <ele>1367.6099999999999</ele>
        <time>2012-03-24T08:11:13Z</time>
      </trkpt>
      <trkpt lat="47.042567292228341" lon="6.83452757075429">
        <ele>1367.6099999999999</ele>
        <time>2012-03-24T08:11:14Z</time>
      </trkpt>
      <trkpt lat="47.042557233944535" lon="6.83449337258935">
        <ele>1368.5699999999999</ele>
        <time>2012-03-24T08:11:15Z</time>
      </trkpt>
      <trkpt lat="47.042546169832349" lon="6.834466718137264">
        <ele>1368.0899999999999</ele>
        <time>2012-03-24T08:11:16Z</time>
      </trkpt>
      <trkpt lat="47.042529070749879" lon="6.834454815834761">
        <ele>1368.5699999999999</ele>
        <time>2012-03-24T08:11:17Z</time>
      </trkpt>
      <trkpt lat="47.042511217296124" lon="6.834445092827082">
        <ele>1369.05</ele>
        <time>2012-03-24T08:11:18Z</time>
      </trkpt>
      <trkpt lat="47.04249587841332" lon="6.834424138069153">
        <ele>1368.5699999999999</ele>
        <time>2012-03-24T08:11:19Z</time>
      </trkpt>
      <trkpt lat="47.042481545358896" lon="6.834405781701207">
        <ele>1369.54</ele>
        <time>2012-03-24T08:11:20Z</time>
      </trkpt>
      <trkpt lat="47.042465871199965" lon="6.834403434768319">
        <ele>1370.02</ele>
        <time>2012-03-24T08:11:21Z</time>
      </trkpt>
      <trkpt lat="47.042449526488781" lon="6.834403183311224">
        <ele>1370.02</ele>
        <time>2012-03-24T08:11:22Z</time>
      </trkpt>
      <trkpt lat="47.042433936148882" lon="6.834397483617067">
        <ele>1370.5</ele>
        <time>2012-03-24T08:11:23Z</time>
      </trkpt>
      <trkpt lat="47.042417507618666" lon="6.834387509152293">
        <ele>1370.5</ele>
        <time>2012-03-24T08:11:24Z</time>
      </trkpt>
      <trkpt lat="47.042402755469084" lon="6.834381641820073">
        <ele>1370.5</ele>
        <time>2012-03-24T08:11:25Z</time>
      </trkpt>
      <trkpt lat="47.042390266433358" lon="6.834391532465816">
        <ele>1370.98</ele>
        <time>2012-03-24T08:11:26Z</time>
      </trkpt>
      <trkpt lat="47.042375598102808" lon="6.834402596578002">
        <ele>1371.46</ele>
        <time>2012-03-24T08:11:27Z</time>
      </trkpt>
      <trkpt lat="47.042358750477433" lon="6.834403099492192">
        <ele>1370.98</ele>
        <time>2012-03-24T08:11:28Z</time>
      </trkpt>
      <trkpt lat="47.042341399937868" lon="6.834396058693528">
        <ele>1371.9400000000001</ele>
        <time>2012-03-24T08:11:29Z</time>
      </trkpt>
      <trkpt lat="47.042324552312493" lon="6.834393292665482">
        <ele>1371.46</ele>
        <time>2012-03-24T08:11:30Z</time>
      </trkpt>
      <trkpt lat="47.042312063276768" lon="6.834403518587351">
        <ele>1371.9400000000001</ele>
        <time>2012-03-24T08:11:31Z</time>
      </trkpt>
      <trkpt lat="47.04229848459363" lon="6.834412319585681">
        <ele>1372.4200000000001</ele>
        <time>2012-03-24T08:11:32Z</time>
      </trkpt>
      <trkpt lat="47.042282223701477" lon="6.834410559386015">
        <ele>1372.9000000000001</ele>
        <time>2012-03-24T08:11:33Z</time>
      </trkpt>
      <trkpt lat="47.042266633361578" lon="6.834407206624746">
        <ele>1372.9000000000001</ele>
        <time>2012-03-24T08:11:34Z</time>
      </trkpt>
      <trkpt lat="47.042253892868757" lon="6.834415169432759">
        <ele>1373.3800000000001</ele>
        <time>2012-03-24T08:11:35Z</time>
      </trkpt>
      <trkpt lat="47.042242242023349" lon="6.834431262686849">
        <ele>1373.8599999999999</ele>
        <time>2012-03-24T08:11:36Z</time>
      </trkpt>
      <trkpt lat="47.042225059121847" lon="6.834439309313893">
        <ele>1373.8599999999999</ele>
        <time>2012-03-24T08:11:37Z</time>
      </trkpt>
      <trkpt lat="47.042205864563584" lon="6.834435956552625">
        <ele>1373.8599999999999</ele>
        <time>2012-03-24T08:11:38Z</time>
      </trkpt>
      <trkpt lat="47.042190777137876" lon="6.834440566599369">
        <ele>1374.3399999999999</ele>
        <time>2012-03-24T08:11:39Z</time>
      </trkpt>
      <trkpt lat="47.042177701368928" lon="6.834455151110888">
        <ele>1374.8199999999999</ele>
        <time>2012-03-24T08:11:40Z</time>
      </trkpt>
      <trkpt lat="47.042158925905824" lon="6.834460096433759">
        <ele>1374.8199999999999</ele>
        <time>2012-03-24T08:11:41Z</time>
      </trkpt>
      <trkpt lat="47.042139898985624" lon="6.834457833319902">
        <ele>1374.8199999999999</ele>
        <time>2012-03-24T08:11:42Z</time>
      </trkpt>
      <trkpt lat="47.042124811559916" lon="6.834466215223074">
        <ele>1374.8199999999999</ele>
        <time>2012-03-24T08:11:43Z</time>
      </trkpt>
      <trkpt lat="47.042110813781619" lon="6.834480129182339">
        <ele>1375.3</ele>
        <time>2012-03-24T08:11:44Z</time>
      </trkpt>
      <trkpt lat="47.042094301432371" lon="6.834486583247781">
        <ele>1375.78</ele>
        <time>2012-03-24T08:11:45Z</time>
      </trkpt>
      <trkpt lat="47.042076028883457" lon="6.834485745057464">
        <ele>1375.3</ele>
        <time>2012-03-24T08:11:46Z</time>
      </trkpt>
      <trkpt lat="47.042060941457748" lon="6.834491360932589">
        <ele>1375.78</ele>
        <time>2012-03-24T08:11:47Z</time>
      </trkpt>
      <trkpt lat="47.042047781869769" lon="6.834495384246111">
        <ele>1375.78</ele>
        <time>2012-03-24T08:11:48Z</time>
      </trkpt>
      <trkpt lat="47.04204048961401" lon="6.834481218829751">
        <ele>1375.78</ele>
        <time>2012-03-24T08:11:49Z</time>
      </trkpt>
      <trkpt lat="47.042038226500154" lon="6.834457749500871">
        <ele>1375.3</ele>
        <time>2012-03-24T08:11:50Z</time>
      </trkpt>
      <trkpt lat="47.042033448815346" lon="6.834435453638434">
        <ele>1375.78</ele>
        <time>2012-03-24T08:11:51Z</time>
      </trkpt>
      <trkpt lat="47.042031940072775" lon="6.834406452253461">
        <ele>1375.78</ele>
        <time>2012-03-24T08:11:52Z</time>
      </trkpt>
      <trkpt lat="47.04199212603271" lon="6.834081066772342">
        <ele>1376.75</ele>
        <time>2012-03-24T08:12:02Z</time>
      </trkpt>
      <trkpt lat="47.041970919817686" lon="6.833836399018765">
        <ele>1378.1900000000001</ele>
        <time>2012-03-24T08:12:10Z</time>
      </trkpt>
      <trkpt lat="47.041942086070776" lon="6.833686446771026">
        <ele>1379.1500000000001</ele>
        <time>2012-03-24T08:12:15Z</time>
      </trkpt>
      <trkpt lat="47.041924484074116" lon="6.833571111783385">
        <ele>1380.1099999999999</ele>
        <time>2012-03-24T08:12:19Z</time>
      </trkpt>
      <trkpt lat="47.041897075250745" lon="6.833354188129306">
        <ele>1381.0699999999999</ele>
        <time>2012-03-24T08:12:26Z</time>
      </trkpt>
      <trkpt lat="47.041770424693823" lon="6.833036011084914">
        <ele>1382.51</ele>
        <time>2012-03-24T08:12:37Z</time>
      </trkpt>
      <trkpt lat="47.041639164090157" lon="6.832899218425155">
        <ele>1383.47</ele>
        <time>2012-03-24T08:12:45Z</time>
      </trkpt>
      <trkpt lat="47.041533635929227" lon="6.832795282825828">
        <ele>1384.4400000000001</ele>
        <time>2012-03-24T08:12:51Z</time>
      </trkpt>
      <trkpt lat="47.04143799841404" lon="6.83264734223485">
        <ele>1383.47</ele>
        <time>2012-03-24T08:12:58Z</time>
      </trkpt>
      <trkpt lat="47.041411511600018" lon="6.832637703046203">
        <ele>1384.9200000000001</ele>
        <time>2012-03-24T08:13:02Z</time>
      </trkpt>
      <trkpt lat="47.041536485776305" lon="6.832771310582757">
        <ele>1385.4000000000001</ele>
        <time>2012-03-24T08:13:10Z</time>
      </trkpt>
      <trkpt lat="47.041602870449424" lon="6.832877341657877">
        <ele>1385.4000000000001</ele>
        <time>2012-03-24T08:13:14Z</time>
      </trkpt>
      <trkpt lat="47.041884837672114" lon="6.833306076005101">
        <ele>1383.96</ele>
        <time>2012-03-24T08:13:28Z</time>
      </trkpt>
      <trkpt lat="47.041909899562597" lon="6.833438845351338">
        <ele>1382.51</ele>
        <time>2012-03-24T08:13:31Z</time>
      </trkpt>
      <trkpt lat="47.041920963674784" lon="6.833537667989731">
        <ele>1381.55</ele>
        <time>2012-03-24T08:13:33Z</time>
      </trkpt>
      <trkpt lat="47.041990114375949" lon="6.834142673760653">
        <ele>1378.1900000000001</ele>
        <time>2012-03-24T08:13:43Z</time>
      </trkpt>
      <trkpt lat="47.042088685557246" lon="6.834800066426396">
        <ele>1377.71</ele>
        <time>2012-03-24T08:13:55Z</time>
      </trkpt>
      <trkpt lat="47.04227652400732" lon="6.83543742634356">
        <ele>1375.3</ele>
        <time>2012-03-24T08:14:06Z</time>
      </trkpt>
      <trkpt lat="47.042299574241042" lon="6.835510348901153">
        <ele>1375.3</ele>
        <time>2012-03-24T08:14:07Z</time>
      </trkpt>
      <trkpt lat="47.042569471523166" lon="6.836109906435013">
        <ele>1372.4200000000001</ele>
        <time>2012-03-24T08:14:15Z</time>
      </trkpt>
      <trkpt lat="47.042815815657377" lon="6.836494216695428">
        <ele>1369.05</ele>
        <time>2012-03-24T08:14:20Z</time>
      </trkpt>
      <trkpt lat="47.043050676584244" lon="6.836766125634313">
        <ele>1367.1300000000001</ele>
        <time>2012-03-24T08:14:24Z</time>
      </trkpt>
      <trkpt lat="47.043341612443328" lon="6.837010206654668">
        <ele>1364.73</ele>
        <time>2012-03-24T08:14:28Z</time>
      </trkpt>
      <trkpt lat="47.043681582435966" lon="6.837235260754824">
        <ele>1360.8800000000001</ele>
        <time>2012-03-24T08:14:32Z</time>
      </trkpt>
      <trkpt lat="47.044236045330763" lon="6.837368365377188">
        <ele>1356.5599999999999</ele>
        <time>2012-03-24T08:14:38Z</time>
      </trkpt>
      <trkpt lat="47.044537290930748" lon="6.837317068129778">
        <ele>1353.6700000000001</ele>
        <time>2012-03-24T08:14:41Z</time>
      </trkpt>
      <trkpt lat="47.044633096083999" lon="6.837282283231616">
        <ele>1353.1900000000001</ele>
        <time>2012-03-24T08:14:42Z</time>
      </trkpt>
      <trkpt lat="47.044820012524724" lon="6.837213719263673">
        <ele>1352.23</ele>
        <time>2012-03-24T08:14:44Z</time>
      </trkpt>
      <trkpt lat="47.044993517920375" lon="6.83718379586935">
        <ele>1351.27</ele>
        <time>2012-03-24T08:14:46Z</time>
      </trkpt>
      <trkpt lat="47.045142967253923" lon="6.837207600474358">
        <ele>1350.3099999999999</ele>
        <time>2012-03-24T08:14:48Z</time>
      </trkpt>
      <trkpt lat="47.045216141268611" lon="6.837238194420934">
        <ele>1349.8299999999999</ele>
        <time>2012-03-24T08:14:49Z</time>
      </trkpt>
      <trkpt lat="47.045290404930711" lon="6.837278679013252">
        <ele>1349.3499999999999</ele>
        <time>2012-03-24T08:14:50Z</time>
      </trkpt>
      <trkpt lat="47.045365925878286" lon="6.837335340678692">
        <ele>1348.8699999999999</ele>
        <time>2012-03-24T08:14:51Z</time>
      </trkpt>
      <trkpt lat="47.045439938083291" lon="6.83740365318954">
        <ele>1347.4300000000001</ele>
        <time>2012-03-24T08:14:52Z</time>
      </trkpt>
      <trkpt lat="47.045512609183788" lon="6.83747841976583">
        <ele>1347.4300000000001</ele>
        <time>2012-03-24T08:14:53Z</time>
      </trkpt>
      <trkpt lat="47.045736908912659" lon="6.837704898789525">
        <ele>1345.5</ele>
        <time>2012-03-24T08:14:56Z</time>
      </trkpt>
      <trkpt lat="47.046338561922312" lon="6.838306216523051">
        <ele>1342.6199999999999</ele>
        <time>2012-03-24T08:15:06Z</time>
      </trkpt>
      <trkpt lat="47.046742485836148" lon="6.838765041902661">
        <ele>1338.77</ele>
        <time>2012-03-24T08:15:13Z</time>
      </trkpt>
      <trkpt lat="47.046795040369034" lon="6.838854728266597">
        <ele>1338.77</ele>
        <time>2012-03-24T08:15:14Z</time>
      </trkpt>
      <trkpt lat="47.046972988173366" lon="6.839291928336024">
        <ele>1335.4100000000001</ele>
        <time>2012-03-24T08:15:18Z</time>
      </trkpt>
      <trkpt lat="47.047097543254495" lon="6.839693421497941">
        <ele>1332.04</ele>
        <time>2012-03-24T08:15:21Z</time>
      </trkpt>
      <trkpt lat="47.047283286228776" lon="6.84025433845818">
        <ele>1328.6800000000001</ele>
        <time>2012-03-24T08:15:25Z</time>
      </trkpt>
      <trkpt lat="47.047481182962656" lon="6.840953808277845">
        <ele>1325.3099999999999</ele>
        <time>2012-03-24T08:15:30Z</time>
      </trkpt>
      <trkpt lat="47.047714870423079" lon="6.841494692489505">
        <ele>1322.4300000000001</ele>
        <time>2012-03-24T08:15:35Z</time>
      </trkpt>
      <trkpt lat="47.048060875386" lon="6.84206809848547">
        <ele>1320.51</ele>
        <time>2012-03-24T08:15:43Z</time>
      </trkpt>
      <trkpt lat="47.048096749931574" lon="6.842119228094816">
        <ele>1320.99</ele>
        <time>2012-03-24T08:15:44Z</time>
      </trkpt>
      <trkpt lat="47.048186436295509" lon="6.842252500355244">
        <ele>1321.47</ele>
        <time>2012-03-24T08:15:47Z</time>
      </trkpt>
      <trkpt lat="47.048211414366961" lon="6.842299187555909">
        <ele>1321.47</ele>
        <time>2012-03-24T08:15:48Z</time>
      </trkpt>
      <trkpt lat="47.04823681153357" lon="6.842339253053069">
        <ele>1320.99</ele>
        <time>2012-03-24T08:15:49Z</time>
      </trkpt>
      <trkpt lat="47.048260364681482" lon="6.842377306893468">
        <ele>1321.47</ele>
        <time>2012-03-24T08:15:50Z</time>
      </trkpt>
      <trkpt lat="47.048282492905855" lon="6.842419803142548">
        <ele>1321.47</ele>
        <time>2012-03-24T08:15:51Z</time>
      </trkpt>
      <trkpt lat="47.04830713570118" lon="6.842457102611661">
        <ele>1321.47</ele>
        <time>2012-03-24T08:15:52Z</time>
      </trkpt>
      <trkpt lat="47.048335885629058" lon="6.842485433444381">
        <ele>1321.47</ele>
        <time>2012-03-24T08:15:53Z</time>
      </trkpt>
      <trkpt lat="47.048363210633397" lon="6.842522313818336">
        <ele>1321.95</ele>
        <time>2012-03-24T08:15:54Z</time>
      </trkpt>
      <trkpt lat="47.0483907032758" lon="6.8425621278584">
        <ele>1320.99</ele>
        <time>2012-03-24T08:15:55Z</time>
      </trkpt>
      <trkpt lat="47.048421129584312" lon="6.842592637985945">
        <ele>1321.95</ele>
        <time>2012-03-24T08:15:56Z</time>
      </trkpt>
      <trkpt lat="47.048452310264111" lon="6.842622058466077">
        <ele>1321.95</ele>
        <time>2012-03-24T08:15:57Z</time>
      </trkpt>
      <trkpt lat="47.048481060191989" lon="6.842658771201968">
        <ele>1321.95</ele>
        <time>2012-03-24T08:15:58Z</time>
      </trkpt>
      <trkpt lat="47.048509810119867" lon="6.842690790072084">
        <ele>1321.95</ele>
        <time>2012-03-24T08:15:59Z</time>
      </trkpt>
      <trkpt lat="47.048535877838731" lon="6.842720126733184">
        <ele>1321.47</ele>
        <time>2012-03-24T08:16:00Z</time>
      </trkpt>
      <trkpt lat="47.048556329682469" lon="6.842762287706137">
        <ele>1321.95</ele>
        <time>2012-03-24T08:16:01Z</time>
      </trkpt>
      <trkpt lat="47.04858030192554" lon="6.842792043462396">
        <ele>1321.95</ele>
        <time>2012-03-24T08:16:02Z</time>
      </trkpt>
      <trkpt lat="47.048608884215355" lon="6.842817524448037">
        <ele>1322.4300000000001</ele>
        <time>2012-03-24T08:16:03Z</time>
      </trkpt>
      <trkpt lat="47.048635203391314" lon="6.842853985726833">
        <ele>1321.95</ele>
        <time>2012-03-24T08:16:04Z</time>
      </trkpt>
      <trkpt lat="47.048661019653082" lon="6.842881813645363">
        <ele>1321.95</ele>
        <time>2012-03-24T08:16:05Z</time>
      </trkpt>
      <trkpt lat="47.048687925562263" lon="6.842898409813643">
        <ele>1322.4300000000001</ele>
        <time>2012-03-24T08:16:06Z</time>
      </trkpt>
      <trkpt lat="47.048711311072111" lon="6.842921292409301">
        <ele>1322.9100000000001</ele>
        <time>2012-03-24T08:16:07Z</time>
      </trkpt>
      <trkpt lat="47.048730170354247" lon="6.842955239117146">
        <ele>1323.3900000000001</ele>
        <time>2012-03-24T08:16:08Z</time>
      </trkpt>
      <trkpt lat="47.048750957474113" lon="6.842984491959214">
        <ele>1322.9100000000001</ele>
        <time>2012-03-24T08:16:09Z</time>
      </trkpt>
      <trkpt lat="47.048774929717183" lon="6.843012319877744">
        <ele>1323.8699999999999</ele>
        <time>2012-03-24T08:16:10Z</time>
      </trkpt>
      <trkpt lat="47.048793956637383" lon="6.843047523871064">
        <ele>1323.3900000000001</ele>
        <time>2012-03-24T08:16:11Z</time>
      </trkpt>
      <trkpt lat="47.048809546977282" lon="6.843077363446355">
        <ele>1323.3900000000001</ele>
        <time>2012-03-24T08:16:12Z</time>
      </trkpt>
      <trkpt lat="47.048828909173608" lon="6.843093959614635">
        <ele>1323.8699999999999</ele>
        <time>2012-03-24T08:16:13Z</time>
      </trkpt>
      <trkpt lat="47.048851875588298" lon="6.843112651258707">
        <ele>1324.3499999999999</ele>
        <time>2012-03-24T08:16:14Z</time>
      </trkpt>
      <trkpt lat="47.048871740698814" lon="6.843146933242679">
        <ele>1324.8299999999999</ele>
        <time>2012-03-24T08:16:15Z</time>
      </trkpt>
      <trkpt lat="47.048890935257077" lon="6.843176018446684">
        <ele>1324.3499999999999</ele>
        <time>2012-03-24T08:16:16Z</time>
      </trkpt>
      <trkpt lat="47.04891356639564" lon="6.843198062852025">
        <ele>1324.8299999999999</ele>
        <time>2012-03-24T08:16:17Z</time>
      </trkpt>
      <trkpt lat="47.048938209190965" lon="6.843223376199603">
        <ele>1325.3099999999999</ele>
        <time>2012-03-24T08:16:18Z</time>
      </trkpt>
      <trkpt lat="47.04896436072886" lon="6.843259586021304">
        <ele>1325.8</ele>
        <time>2012-03-24T08:16:19Z</time>
      </trkpt>
      <trkpt lat="47.048991937190294" lon="6.843286491930485">
        <ele>1325.3099999999999</ele>
        <time>2012-03-24T08:16:20Z</time>
      </trkpt>
      <trkpt lat="47.049020687118173" lon="6.843311889097095">
        <ele>1325.3099999999999</ele>
        <time>2012-03-24T08:16:21Z</time>
      </trkpt>
      <trkpt lat="47.049046587198973" lon="6.84334491379559">
        <ele>1325.8</ele>
        <time>2012-03-24T08:16:22Z</time>
      </trkpt>
      <trkpt lat="47.049071649089456" lon="6.843373160809279">
        <ele>1325.8</ele>
        <time>2012-03-24T08:16:23Z</time>
      </trkpt>
      <trkpt lat="47.049100063741207" lon="6.843393361195922">
        <ele>1325.3099999999999</ele>
        <time>2012-03-24T08:16:24Z</time>
      </trkpt>
      <trkpt lat="47.049131412059069" lon="6.84342110529542">
        <ele>1325.3099999999999</ele>
        <time>2012-03-24T08:16:25Z</time>
      </trkpt>
      <trkpt lat="47.049163011834025" lon="6.843451028689742">
        <ele>1325.8</ele>
        <time>2012-03-24T08:16:26Z</time>
      </trkpt>
      <trkpt lat="47.049195365980268" lon="6.843470893800259">
        <ele>1325.8</ele>
        <time>2012-03-24T08:16:27Z</time>
      </trkpt>
      <trkpt lat="47.049228390678763" lon="6.843493022024632">
        <ele>1325.8</ele>
        <time>2012-03-24T08:16:28Z</time>
      </trkpt>
      <trkpt lat="47.049259655177593" lon="6.843522693961859">
        <ele>1325.3099999999999</ele>
        <time>2012-03-24T08:16:29Z</time>
      </trkpt>
      <trkpt lat="47.049292512238026" lon="6.843551192432642">
        <ele>1326.28</ele>
        <time>2012-03-24T08:16:30Z</time>
      </trkpt>
      <trkpt lat="47.049324698746204" lon="6.843577679246664">
        <ele>1325.8</ele>
        <time>2012-03-24T08:16:31Z</time>
      </trkpt>
      <trkpt lat="47.049354622140527" lon="6.843610117211938">
        <ele>1325.8</ele>
        <time>2012-03-24T08:16:32Z</time>
      </trkpt>
      <trkpt lat="47.049467107281089" lon="6.843715393915772">
        <ele>1325.8</ele>
        <time>2012-03-24T08:16:36Z</time>
      </trkpt>
      <trkpt lat="47.049499964341521" lon="6.843729391694069">
        <ele>1326.28</ele>
        <time>2012-03-24T08:16:37Z</time>
      </trkpt>
      <trkpt lat="47.049530474469066" lon="6.843755878508091">
        <ele>1326.28</ele>
        <time>2012-03-24T08:16:38Z</time>
      </trkpt>
      <trkpt lat="47.049557715654373" lon="6.843780102208257">
        <ele>1325.8</ele>
        <time>2012-03-24T08:16:39Z</time>
      </trkpt>
      <trkpt lat="47.049584705382586" lon="6.843794770538807">
        <ele>1326.28</ele>
        <time>2012-03-24T08:16:40Z</time>
      </trkpt>
      <trkpt lat="47.049611611291766" lon="6.843818491324782">
        <ele>1326.28</ele>
        <time>2012-03-24T08:16:41Z</time>
      </trkpt>
      <trkpt lat="47.049640361219645" lon="6.843845648691058">
        <ele>1326.28</ele>
        <time>2012-03-24T08:16:42Z</time>
      </trkpt>
      <trkpt lat="47.049670871347189" lon="6.843863669782877">
        <ele>1325.8</ele>
        <time>2012-03-24T08:16:43Z</time>
      </trkpt>
      <trkpt lat="47.049699453637004" lon="6.843886049464345">
        <ele>1326.28</ele>
        <time>2012-03-24T08:16:44Z</time>
      </trkpt>
      <trkpt lat="47.049725940451026" lon="6.843912117183209">
        <ele>1326.76</ele>
        <time>2012-03-24T08:16:45Z</time>
      </trkpt>
      <trkpt lat="47.049753349274397" lon="6.843927539885044">
        <ele>1326.28</ele>
        <time>2012-03-24T08:16:46Z</time>
      </trkpt>
      <trkpt lat="47.049779836088419" lon="6.843941789120436">
        <ele>1326.76</ele>
        <time>2012-03-24T08:16:47Z</time>
      </trkpt>
      <trkpt lat="47.049805568531156" lon="6.843967186287046">
        <ele>1326.76</ele>
        <time>2012-03-24T08:16:48Z</time>
      </trkpt>
      <trkpt lat="47.049830546602607" lon="6.843984620645642">
        <ele>1326.76</ele>
        <time>2012-03-24T08:16:49Z</time>
      </trkpt>
      <trkpt lat="47.049856195226312" lon="6.843999456614256">
        <ele>1326.76</ele>
        <time>2012-03-24T08:16:50Z</time>
      </trkpt>
      <trkpt lat="47.049885615706444" lon="6.844025943428278">
        <ele>1327.24</ele>
        <time>2012-03-24T08:16:51Z</time>
      </trkpt>
      <trkpt lat="47.049918053671718" lon="6.844047820195556">
        <ele>1327.24</ele>
        <time>2012-03-24T08:16:52Z</time>
      </trkpt>
      <trkpt lat="47.049950575456023" lon="6.84406072832644">
        <ele>1327.72</ele>
        <time>2012-03-24T08:16:53Z</time>
      </trkpt>
      <trkpt lat="47.049982259050012" lon="6.844086879864335">
        <ele>1327.72</ele>
        <time>2012-03-24T08:16:54Z</time>
      </trkpt>
      <trkpt lat="47.050012350082397" lon="6.844108840450645">
        <ele>1327.72</ele>
        <time>2012-03-24T08:16:55Z</time>
      </trkpt>
      <trkpt lat="47.050044368952513" lon="6.844119234010577">
        <ele>1327.72</ele>
        <time>2012-03-24T08:16:56Z</time>
      </trkpt>
      <trkpt lat="47.050074124708772" lon="6.844139099121094">
        <ele>1328.2</ele>
        <time>2012-03-24T08:16:57Z</time>
      </trkpt>
      <trkpt lat="47.050101449713111" lon="6.84416089206934">
        <ele>1327.72</ele>
        <time>2012-03-24T08:16:58Z</time>
      </trkpt>
      <trkpt lat="47.050129109993577" lon="6.844170698896051">
        <ele>1327.72</ele>
        <time>2012-03-24T08:16:59Z</time>
      </trkpt>
      <trkpt lat="47.050158111378551" lon="6.844184696674347">
        <ele>1328.2</ele>
        <time>2012-03-24T08:17:00Z</time>
      </trkpt>
      <trkpt lat="47.050185352563858" lon="6.844203304499388">
        <ele>1327.72</ele>
        <time>2012-03-24T08:17:01Z</time>
      </trkpt>
      <trkpt lat="47.050210079178214" lon="6.844214787706733">
        <ele>1328.2</ele>
        <time>2012-03-24T08:17:02Z</time>
      </trkpt>
      <trkpt lat="47.05023430287838" lon="6.844228701665998">
        <ele>1328.6800000000001</ele>
        <time>2012-03-24T08:17:03Z</time>
      </trkpt>
      <trkpt lat="47.050256514921784" lon="6.844252673909068">
        <ele>1329.1600000000001</ele>
        <time>2012-03-24T08:17:04Z</time>
      </trkpt>
      <trkpt lat="47.050278140231967" lon="6.844271533191204">
        <ele>1328.6800000000001</ele>
        <time>2012-03-24T08:17:05Z</time>
      </trkpt>
      <trkpt lat="47.050304627045989" lon="6.844279831275344">
        <ele>1330.1199999999999</ele>
        <time>2012-03-24T08:17:06Z</time>
      </trkpt>
      <trkpt lat="47.050330108031631" lon="6.844291482120752">
        <ele>1330.1199999999999</ele>
        <time>2012-03-24T08:17:07Z</time>
      </trkpt>
      <trkpt lat="47.050355337560177" lon="6.844306569546461">
        <ele>1330.5999999999999</ele>
        <time>2012-03-24T08:17:08Z</time>
      </trkpt>
      <trkpt lat="47.050381572917104" lon="6.844315622001886">
        <ele>1329.6400000000001</ele>
        <time>2012-03-24T08:17:09Z</time>
      </trkpt>
      <trkpt lat="47.050406550988555" lon="6.84432509355247">
        <ele>1329.6400000000001</ele>
        <time>2012-03-24T08:17:10Z</time>
      </trkpt>
      <trkpt lat="47.050429433584213" lon="6.844346970319748">
        <ele>1330.1199999999999</ele>
        <time>2012-03-24T08:17:11Z</time>
      </trkpt>
      <trkpt lat="47.050446951761842" lon="6.844371613115072">
        <ele>1330.1199999999999</ele>
        <time>2012-03-24T08:17:12Z</time>
      </trkpt>
      <trkpt lat="47.050466062501073" lon="6.844384521245956">
        <ele>1330.5999999999999</ele>
        <time>2012-03-24T08:17:13Z</time>
      </trkpt>
      <trkpt lat="47.050484754145145" lon="6.844388879835606">
        <ele>1330.5999999999999</ele>
        <time>2012-03-24T08:17:14Z</time>
      </trkpt>
      <trkpt lat="47.05050352960825" lon="6.844402877613902">
        <ele>1330.1199999999999</ele>
        <time>2012-03-24T08:17:15Z</time>
      </trkpt>
      <trkpt lat="47.050522807985544" lon="6.84442182071507">
        <ele>1330.5999999999999</ele>
        <time>2012-03-24T08:17:16Z</time>
      </trkpt>
      <trkpt lat="47.050543678924441" lon="6.844431040808559">
        <ele>1330.5999999999999</ele>
        <time>2012-03-24T08:17:17Z</time>
      </trkpt>
      <trkpt lat="47.050567651167512" lon="6.84443648904562">
        <ele>1331.0799999999999</ele>
        <time>2012-03-24T08:17:18Z</time>
      </trkpt>
      <trkpt lat="47.050589360296726" lon="6.844450486823916">
        <ele>1331.0799999999999</ele>
        <time>2012-03-24T08:17:19Z</time>
      </trkpt>
      <trkpt lat="47.050607716664672" lon="6.844472363591194">
        <ele>1331.0799999999999</ele>
        <time>2012-03-24T08:17:20Z</time>
      </trkpt>
      <trkpt lat="47.050626575946808" lon="6.844487534835935">
        <ele>1331.5599999999999</ele>
        <time>2012-03-24T08:17:21Z</time>
      </trkpt>
      <trkpt lat="47.050646860152483" lon="6.844499604776502">
        <ele>1332.04</ele>
        <time>2012-03-24T08:17:22Z</time>
      </trkpt>
      <trkpt lat="47.050663288682699" lon="6.844522152096033">
        <ele>1331.5599999999999</ele>
        <time>2012-03-24T08:17:23Z</time>
      </trkpt>
      <trkpt lat="47.050680387765169" lon="6.844542939215899">
        <ele>1332.04</ele>
        <time>2012-03-24T08:17:24Z</time>
      </trkpt>
      <trkpt lat="47.050699833780527" lon="6.844555344432592">
        <ele>1332.52</ele>
        <time>2012-03-24T08:17:25Z</time>
      </trkpt>
      <trkpt lat="47.050717687234282" lon="6.84457479044795">
        <ele>1332.04</ele>
        <time>2012-03-24T08:17:26Z</time>
      </trkpt>
      <trkpt lat="47.050733612850308" lon="6.844602031633258">
        <ele>1333.01</ele>
        <time>2012-03-24T08:17:27Z</time>
      </trkpt>
      <trkpt lat="47.050751298666" lon="6.844620136544108">
        <ele>1332.52</ele>
        <time>2012-03-24T08:17:28Z</time>
      </trkpt>
      <trkpt lat="47.050771582871675" lon="6.844631619751453">
        <ele>1333.01</ele>
        <time>2012-03-24T08:17:29Z</time>
      </trkpt>
      <trkpt lat="47.050790106877685" lon="6.844656262546778">
        <ele>1333.01</ele>
        <time>2012-03-24T08:17:30Z</time>
      </trkpt>
      <trkpt lat="47.050806283950806" lon="6.844686940312386">
        <ele>1333.49</ele>
        <time>2012-03-24T08:17:31Z</time>
      </trkpt>
      <trkpt lat="47.050825646147132" lon="6.844706051051617">
        <ele>1333.97</ele>
        <time>2012-03-24T08:17:32Z</time>
      </trkpt>
      <trkpt lat="47.050844505429268" lon="6.844721222296357">
        <ele>1333.49</ele>
        <time>2012-03-24T08:17:33Z</time>
      </trkpt>
      <trkpt lat="47.050860011950135" lon="6.844747457653284">
        <ele>1334.45</ele>
        <time>2012-03-24T08:17:34Z</time>
      </trkpt>
      <trkpt lat="47.050876105204225" lon="6.844768328592181">
        <ele>1334.9300000000001</ele>
        <time>2012-03-24T08:17:35Z</time>
      </trkpt>
      <trkpt lat="47.050895132124424" lon="6.844782829284668">
        <ele>1334.45</ele>
        <time>2012-03-24T08:17:36Z</time>
      </trkpt>
      <trkpt lat="47.050911812111735" lon="6.844808980822563">
        <ele>1334.9300000000001</ele>
        <time>2012-03-24T08:17:37Z</time>
      </trkpt>
      <trkpt lat="47.050928324460983" lon="6.844830857589841">
        <ele>1334.9300000000001</ele>
        <time>2012-03-24T08:17:38Z</time>
      </trkpt>
      <trkpt lat="47.050947016105056" lon="6.844848375767469">
        <ele>1334.9300000000001</ele>
        <time>2012-03-24T08:17:39Z</time>
      </trkpt>
      <trkpt lat="47.050961768254638" lon="6.844872599467635">
        <ele>1335.4100000000001</ele>
        <time>2012-03-24T08:17:40Z</time>
      </trkpt>
      <trkpt lat="47.050976604223251" lon="6.844895984977484">
        <ele>1335.8900000000001</ele>
        <time>2012-03-24T08:17:41Z</time>
      </trkpt>
      <trkpt lat="47.050995798781514" lon="6.844910150393844">
        <ele>1335.4100000000001</ele>
        <time>2012-03-24T08:17:42Z</time>
      </trkpt>
      <trkpt lat="47.051012646406889" lon="6.844936218112707">
        <ele>1335.4100000000001</ele>
        <time>2012-03-24T08:17:43Z</time>
      </trkpt>
      <trkpt lat="47.051029913127422" lon="6.844961363822222">
        <ele>1336.3699999999999</ele>
        <time>2012-03-24T08:17:44Z</time>
      </trkpt>
      <trkpt lat="47.051052125170827" lon="6.844975277781487">
        <ele>1336.8499999999999</ele>
        <time>2012-03-24T08:17:45Z</time>
      </trkpt>
      <trkpt lat="47.051071068271995" lon="6.844998076558113">
        <ele>1336.3699999999999</ele>
        <time>2012-03-24T08:17:46Z</time>
      </trkpt>
      <trkpt lat="47.051089508458972" lon="6.845026323571801">
        <ele>1336.3699999999999</ele>
        <time>2012-03-24T08:17:47Z</time>
      </trkpt>
      <trkpt lat="47.051110798493028" lon="6.845043338835239">
        <ele>1336.8499999999999</ele>
        <time>2012-03-24T08:17:48Z</time>
      </trkpt>
      <trkpt lat="47.051131585612893" lon="6.845062114298344">
        <ele>1336.8499999999999</ele>
        <time>2012-03-24T08:17:49Z</time>
      </trkpt>
      <trkpt lat="47.051150193437934" lon="6.845089690759778">
        <ele>1336.8499999999999</ele>
        <time>2012-03-24T08:17:50Z</time>
      </trkpt>
      <trkpt lat="47.051170393824577" lon="6.845110645517707">
        <ele>1336.8499999999999</ele>
        <time>2012-03-24T08:17:51Z</time>
      </trkpt>
      <trkpt lat="47.051188750192523" lon="6.845128918066621">
        <ele>1336.8499999999999</ele>
        <time>2012-03-24T08:17:52Z</time>
      </trkpt>
      <trkpt lat="47.051204591989517" lon="6.845159092918038">
        <ele>1337.8099999999999</ele>
        <time>2012-03-24T08:17:53Z</time>
      </trkpt>
      <trkpt lat="47.05122135579586" lon="6.845183148980141">
        <ele>1337.8099999999999</ele>
        <time>2012-03-24T08:17:54Z</time>
      </trkpt>
      <trkpt lat="47.05124038271606" lon="6.845201086252928">
        <ele>1337.8099999999999</ele>
        <time>2012-03-24T08:17:55Z</time>
      </trkpt>
      <trkpt lat="47.051256224513054" lon="6.845230422914028">
        <ele>1337.8099999999999</ele>
        <time>2012-03-24T08:17:56Z</time>
      </trkpt>
      <trkpt lat="47.051273239776492" lon="6.84525690972805">
        <ele>1338.29</ele>
        <time>2012-03-24T08:17:57Z</time>
      </trkpt>
      <trkpt lat="47.051294026896358" lon="6.845273673534393">
        <ele>1338.29</ele>
        <time>2012-03-24T08:17:58Z</time>
      </trkpt>
      <trkpt lat="47.051312467083335" lon="6.845296137034893">
        <ele>1338.77</ele>
        <time>2012-03-24T08:17:59Z</time>
      </trkpt>
      <trkpt lat="47.051329230889678" lon="6.845316672697663">
        <ele>1339.25</ele>
        <time>2012-03-24T08:18:00Z</time>
      </trkpt>
      <trkpt lat="47.051348593086004" lon="6.845330586656928">
        <ele>1339.25</ele>
        <time>2012-03-24T08:18:01Z</time>
      </trkpt>
      <trkpt lat="47.051366362720728" lon="6.845354475080967">
        <ele>1339.25</ele>
        <time>2012-03-24T08:18:02Z</time>
      </trkpt>
      <trkpt lat="47.051382791250944" lon="6.845384817570448">
        <ele>1338.77</ele>
        <time>2012-03-24T08:18:03Z</time>
      </trkpt>
      <trkpt lat="47.051398968324065" lon="6.845405772328377">
        <ele>1339.25</ele>
        <time>2012-03-24T08:18:04Z</time>
      </trkpt>
      <trkpt lat="47.051417995244265" lon="6.845423625782132">
        <ele>1339.73</ele>
        <time>2012-03-24T08:18:05Z</time>
      </trkpt>
      <trkpt lat="47.051434088498354" lon="6.845452291890979">
        <ele>1339.73</ele>
        <time>2012-03-24T08:18:06Z</time>
      </trkpt>
      <trkpt lat="47.051449930295348" lon="6.845478275790811">
        <ele>1339.73</ele>
        <time>2012-03-24T08:18:07Z</time>
      </trkpt>
      <trkpt lat="47.051468789577484" lon="6.845493698492646">
        <ele>1340.22</ele>
        <time>2012-03-24T08:18:08Z</time>
      </trkpt>
      <trkpt lat="47.051488654688001" lon="6.845513312146068">
        <ele>1340.22</ele>
        <time>2012-03-24T08:18:09Z</time>
      </trkpt>
      <trkpt lat="47.051506340503693" lon="6.845537703484297">
        <ele>1340.7</ele>
        <time>2012-03-24T08:18:10Z</time>
      </trkpt>
      <trkpt lat="47.051525032147765" lon="6.845554718747735">
        <ele>1341.1800000000001</ele>
        <time>2012-03-24T08:18:11Z</time>
      </trkpt>
      <trkpt lat="47.051545064896345" lon="6.845572739839554">
        <ele>1340.7</ele>
        <time>2012-03-24T08:18:12Z</time>
      </trkpt>
      <trkpt lat="47.051560068503022" lon="6.845602663233876">
        <ele>1341.1800000000001</ele>
        <time>2012-03-24T08:18:13Z</time>
      </trkpt>
      <trkpt lat="47.051576413214207" lon="6.84562873095274">
        <ele>1341.1800000000001</ele>
        <time>2012-03-24T08:18:14Z</time>
      </trkpt>
      <trkpt lat="47.051594434306026" lon="6.84564683586359">
        <ele>1341.1800000000001</ele>
        <time>2012-03-24T08:18:15Z</time>
      </trkpt>
      <trkpt lat="47.051611365750432" lon="6.845671646296978">
        <ele>1341.1800000000001</ele>
        <time>2012-03-24T08:18:16Z</time>
      </trkpt>
      <trkpt lat="47.051627459004521" lon="6.845701402053237">
        <ele>1341.1800000000001</ele>
        <time>2012-03-24T08:18:17Z</time>
      </trkpt>
      <trkpt lat="47.051645899191499" lon="6.8457240331918">
        <ele>1341.6600000000001</ele>
        <time>2012-03-24T08:18:18Z</time>
      </trkpt>
      <trkpt lat="47.051667273044586" lon="6.845740461722016">
        <ele>1341.6600000000001</ele>
        <time>2012-03-24T08:18:19Z</time>
      </trkpt>
      <trkpt lat="47.051687641069293" lon="6.845764350146055">
        <ele>1342.1400000000001</ele>
        <time>2012-03-24T08:18:20Z</time>
      </trkpt>
      <trkpt lat="47.051706248894334" lon="6.845791172236204">
        <ele>1342.6199999999999</ele>
        <time>2012-03-24T08:18:21Z</time>
      </trkpt>
      <trkpt lat="47.051725778728724" lon="6.84581003151834">
        <ele>1343.0999999999999</ele>
        <time>2012-03-24T08:18:22Z</time>
      </trkpt>
      <trkpt lat="47.051746565848589" lon="6.845825957134366">
        <ele>1342.6199999999999</ele>
        <time>2012-03-24T08:18:23Z</time>
      </trkpt>
      <trkpt lat="47.051764586940408" lon="6.845852863043547">
        <ele>1342.6199999999999</ele>
        <time>2012-03-24T08:18:24Z</time>
      </trkpt>
      <trkpt lat="47.051781350746751" lon="6.845881612971425">
        <ele>1343.0999999999999</ele>
        <time>2012-03-24T08:18:25Z</time>
      </trkpt>
      <trkpt lat="47.051799455657601" lon="6.84589795768261">
        <ele>1342.6199999999999</ele>
        <time>2012-03-24T08:18:26Z</time>
      </trkpt>
      <trkpt lat="47.051814794540405" lon="6.845914470031858">
        <ele>1343.0999999999999</ele>
        <time>2012-03-24T08:18:27Z</time>
      </trkpt>
      <trkpt lat="47.051829295232892" lon="6.845943722873926">
        <ele>1343.0999999999999</ele>
        <time>2012-03-24T08:18:28Z</time>
      </trkpt>
      <trkpt lat="47.051845472306013" lon="6.845971047878265">
        <ele>1343.5799999999999</ele>
        <time>2012-03-24T08:18:29Z</time>
      </trkpt>
      <trkpt lat="47.051868438720703" lon="6.845984626561403">
        <ele>1344.0599999999999</ele>
        <time>2012-03-24T08:18:30Z</time>
      </trkpt>
      <trkpt lat="47.051889225840569" lon="6.846002312377095">
        <ele>1344.54</ele>
        <time>2012-03-24T08:18:31Z</time>
      </trkpt>
      <trkpt lat="47.051907163113356" lon="6.846031313762069">
        <ele>1344.54</ele>
        <time>2012-03-24T08:18:32Z</time>
      </trkpt>
      <trkpt lat="47.051926525309682" lon="6.846053022891283">
        <ele>1344.54</ele>
        <time>2012-03-24T08:18:33Z</time>
      </trkpt>
      <trkpt lat="47.051949324086308" lon="6.846068948507309">
        <ele>1344.54</ele>
        <time>2012-03-24T08:18:34Z</time>
      </trkpt>
      <trkpt lat="47.051969608291984" lon="6.846098285168409">
        <ele>1345.02</ele>
        <time>2012-03-24T08:18:35Z</time>
      </trkpt>
      <trkpt lat="47.051989892497659" lon="6.846125274896622">
        <ele>1345.02</ele>
        <time>2012-03-24T08:18:36Z</time>
      </trkpt>
      <trkpt lat="47.052013445645571" lon="6.846138769760728">
        <ele>1345.5</ele>
        <time>2012-03-24T08:18:37Z</time>
      </trkpt>
      <trkpt lat="47.052032137289643" lon="6.846160646528006">
        <ele>1345.02</ele>
        <time>2012-03-24T08:18:38Z</time>
      </trkpt>
      <trkpt lat="47.05204906873405" lon="6.846184954047203">
        <ele>1345.02</ele>
        <time>2012-03-24T08:18:39Z</time>
      </trkpt>
      <trkpt lat="47.052071113139391" lon="6.846198448911309">
        <ele>1345.5</ele>
        <time>2012-03-24T08:18:40Z</time>
      </trkpt>
      <trkpt lat="47.052094582468271" lon="6.846219236031175">
        <ele>1345.5</ele>
        <time>2012-03-24T08:18:41Z</time>
      </trkpt>
      <trkpt lat="47.052116207778454" lon="6.846247063949704">
        <ele>1345.02</ele>
        <time>2012-03-24T08:18:42Z</time>
      </trkpt>
      <trkpt lat="47.052139928564429" lon="6.84626642614603">
        <ele>1345.5</ele>
        <time>2012-03-24T08:18:43Z</time>
      </trkpt>
      <trkpt lat="47.052163565531373" lon="6.846285117790103">
        <ele>1345.5</ele>
        <time>2012-03-24T08:18:44Z</time>
      </trkpt>
      <trkpt lat="47.052184268832207" lon="6.846315711736679">
        <ele>1346.46</ele>
        <time>2012-03-24T08:18:45Z</time>
      </trkpt>
      <trkpt lat="47.052205307409167" lon="6.84634068980813">
        <ele>1346.46</ele>
        <time>2012-03-24T08:18:46Z</time>
      </trkpt>
      <trkpt lat="47.052229531109333" lon="6.846361896023154">
        <ele>1346.9400000000001</ele>
        <time>2012-03-24T08:18:47Z</time>
      </trkpt>
      <trkpt lat="47.052248893305659" lon="6.846394333988428">
        <ele>1346.46</ele>
        <time>2012-03-24T08:18:48Z</time>
      </trkpt>
      <trkpt lat="47.052267752587795" lon="6.846419731155038">
        <ele>1346.46</ele>
        <time>2012-03-24T08:18:49Z</time>
      </trkpt>
      <trkpt lat="47.052290048450232" lon="6.846439177170396">
        <ele>1346.9400000000001</ele>
        <time>2012-03-24T08:18:50Z</time>
      </trkpt>
      <trkpt lat="47.052311170846224" lon="6.846469519659877">
        <ele>1346.9400000000001</ele>
        <time>2012-03-24T08:18:51Z</time>
      </trkpt>
      <trkpt lat="47.052331706508994" lon="6.846497934311628">
        <ele>1346.46</ele>
        <time>2012-03-24T08:18:52Z</time>
      </trkpt>
      <trkpt lat="47.052356684580445" lon="6.846515368670225">
        <ele>1346.46</ele>
        <time>2012-03-24T08:18:53Z</time>
      </trkpt>
      <trkpt lat="47.052379064261913" lon="6.846540598198772">
        <ele>1346.46</ele>
        <time>2012-03-24T08:18:54Z</time>
      </trkpt>
      <trkpt lat="47.052400438115001" lon="6.84657035395503">
        <ele>1346.9400000000001</ele>
        <time>2012-03-24T08:18:55Z</time>
      </trkpt>
      <trkpt lat="47.052424494177103" lon="6.846590302884579">
        <ele>1347.4300000000001</ele>
        <time>2012-03-24T08:18:56Z</time>
      </trkpt>
      <trkpt lat="47.05244586803019" lon="6.846613101661205">
        <ele>1347.4300000000001</ele>
        <time>2012-03-24T08:18:57Z</time>
      </trkpt>
      <trkpt lat="47.052463470026851" lon="6.846648389473558">
        <ele>1347.9100000000001</ele>
        <time>2012-03-24T08:18:58Z</time>
      </trkpt>
      <trkpt lat="47.052481826394796" lon="6.846675714477897">
        <ele>1347.9100000000001</ele>
        <time>2012-03-24T08:18:59Z</time>
      </trkpt>
      <trkpt lat="47.052503200247884" lon="6.846696753054857">
        <ele>1348.3900000000001</ele>
        <time>2012-03-24T08:19:00Z</time>
      </trkpt>
      <trkpt lat="47.052522394806147" lon="6.846728269010782">
        <ele>1348.3900000000001</ele>
        <time>2012-03-24T08:19:01Z</time>
      </trkpt>
      <trkpt lat="47.05253966152668" lon="6.846760455518961">
        <ele>1348.8699999999999</ele>
        <time>2012-03-24T08:19:02Z</time>
      </trkpt>
      <trkpt lat="47.052559778094292" lon="6.846782919019461">
        <ele>1348.8699999999999</ele>
        <time>2012-03-24T08:19:03Z</time>
      </trkpt>
      <trkpt lat="47.052578888833523" lon="6.846808400005102">
        <ele>1348.8699999999999</ele>
        <time>2012-03-24T08:19:04Z</time>
      </trkpt>
      <trkpt lat="47.052595568820834" lon="6.8468395806849">
        <ele>1349.3499999999999</ele>
        <time>2012-03-24T08:19:05Z</time>
      </trkpt>
      <trkpt lat="47.05261392518878" lon="6.846863888204098">
        <ele>1349.3499999999999</ele>
        <time>2012-03-24T08:19:06Z</time>
      </trkpt>
      <trkpt lat="47.05263345502317" lon="6.84689037501812">
        <ele>1348.8699999999999</ele>
        <time>2012-03-24T08:19:07Z</time>
      </trkpt>
      <trkpt lat="47.052649213001132" lon="6.846923315897584">
        <ele>1349.8299999999999</ele>
        <time>2012-03-24T08:19:08Z</time>
      </trkpt>
      <trkpt lat="47.052667485550046" lon="6.846952401101589">
        <ele>1349.3499999999999</ele>
        <time>2012-03-24T08:19:09Z</time>
      </trkpt>
      <trkpt lat="47.05268626101315" lon="6.846982827410102">
        <ele>1349.3499999999999</ele>
        <time>2012-03-24T08:19:10Z</time>
      </trkpt>
      <trkpt lat="47.052704030647874" lon="6.847017696127296">
        <ele>1349.8299999999999</ele>
        <time>2012-03-24T08:19:11Z</time>
      </trkpt>
      <trkpt lat="47.052724901586771" lon="6.847047116607428">
        <ele>1349.8299999999999</ele>
        <time>2012-03-24T08:19:12Z</time>
      </trkpt>
      <trkpt lat="47.05274635925889" lon="6.84707167558372">
        <ele>1350.3099999999999</ele>
        <time>2012-03-24T08:19:13Z</time>
      </trkpt>
      <trkpt lat="47.052761781960726" lon="6.84710637666285">
        <ele>1350.79</ele>
        <time>2012-03-24T08:19:14Z</time>
      </trkpt>
      <trkpt lat="47.052776617929339" lon="6.847135629504919">
        <ele>1350.79</ele>
        <time>2012-03-24T08:19:15Z</time>
      </trkpt>
      <trkpt lat="47.052794387564063" lon="6.847159769386053">
        <ele>1350.79</ele>
        <time>2012-03-24T08:19:16Z</time>
      </trkpt>
      <trkpt lat="47.052810983732343" lon="6.847190698608756">
        <ele>1351.75</ele>
        <time>2012-03-24T08:19:17Z</time>
      </trkpt>
      <trkpt lat="47.052826741710305" lon="6.847220454365015">
        <ele>1351.27</ele>
        <time>2012-03-24T08:19:18Z</time>
      </trkpt>
      <trkpt lat="47.052847361192107" lon="6.847242582589388">
        <ele>1350.79</ele>
        <time>2012-03-24T08:19:19Z</time>
      </trkpt>
      <trkpt lat="47.05286362208426" lon="6.847277451306582">
        <ele>1351.75</ele>
        <time>2012-03-24T08:19:20Z</time>
      </trkpt>
      <trkpt lat="47.052877703681588" lon="6.84731156565249">
        <ele>1351.75</ele>
        <time>2012-03-24T08:19:21Z</time>
      </trkpt>
      <trkpt lat="47.052912069484591" lon="6.847365293651819">
        <ele>1351.27</ele>
        <time>2012-03-24T08:19:23Z</time>
      </trkpt>
      <trkpt lat="47.052927492186427" lon="6.847394378855825">
        <ele>1351.75</ele>
        <time>2012-03-24T08:19:24Z</time>
      </trkpt>
      <trkpt lat="47.052946351468563" lon="6.847415752708912">
        <ele>1351.27</ele>
        <time>2012-03-24T08:19:25Z</time>
      </trkpt>
      <trkpt lat="47.052963115274906" lon="6.847443412989378">
        <ele>1351.27</ele>
        <time>2012-03-24T08:19:26Z</time>
      </trkpt>
      <trkpt lat="47.052977029234171" lon="6.847475180402398">
        <ele>1351.75</ele>
        <time>2012-03-24T08:19:27Z</time>
      </trkpt>
      <trkpt lat="47.05299605615437" lon="6.847498985007405">
        <ele>1351.75</ele>
        <time>2012-03-24T08:19:28Z</time>
      </trkpt>
      <trkpt lat="47.053015837445855" lon="6.84752463363111">
        <ele>1351.75</ele>
        <time>2012-03-24T08:19:29Z</time>
      </trkpt>
      <trkpt lat="47.053033607080579" lon="6.847554221749306">
        <ele>1352.23</ele>
        <time>2012-03-24T08:19:30Z</time>
      </trkpt>
      <trkpt lat="47.053052298724651" lon="6.847578529268503">
        <ele>1352.23</ele>
        <time>2012-03-24T08:19:31Z</time>
      </trkpt>
      <trkpt lat="47.053070068359375" lon="6.847605518996716">
        <ele>1353.1900000000001</ele>
        <time>2012-03-24T08:19:32Z</time>
      </trkpt>
      <trkpt lat="47.053083898499608" lon="6.847644075751305">
        <ele>1352.71</ele>
        <time>2012-03-24T08:19:33Z</time>
      </trkpt>
      <trkpt lat="47.053100494667888" lon="6.847673244774342">
        <ele>1352.71</ele>
        <time>2012-03-24T08:19:34Z</time>
      </trkpt>
      <trkpt lat="47.053118599578738" lon="6.847698474302888">
        <ele>1352.71</ele>
        <time>2012-03-24T08:19:35Z</time>
      </trkpt>
      <trkpt lat="47.053130501881242" lon="6.847732840105891">
        <ele>1353.1900000000001</ele>
        <time>2012-03-24T08:19:36Z</time>
      </trkpt>
      <trkpt lat="47.053144164383411" lon="6.84776452369988">
        <ele>1353.1900000000001</ele>
        <time>2012-03-24T08:19:37Z</time>
      </trkpt>
      <trkpt lat="47.053164280951023" lon="6.847787154838443">
        <ele>1353.6700000000001</ele>
        <time>2012-03-24T08:19:38Z</time>
      </trkpt>
      <trkpt lat="47.053182637318969" lon="6.847815150395036">
        <ele>1353.1900000000001</ele>
        <time>2012-03-24T08:19:39Z</time>
      </trkpt>
      <trkpt lat="47.05319881439209" lon="6.847847839817405">
        <ele>1353.6700000000001</ele>
        <time>2012-03-24T08:19:40Z</time>
      </trkpt>
      <trkpt lat="47.053217757493258" lon="6.847871895879507">
        <ele>1353.6700000000001</ele>
        <time>2012-03-24T08:19:41Z</time>
      </trkpt>
      <trkpt lat="47.053237203508615" lon="6.847898382693529">
        <ele>1353.6700000000001</ele>
        <time>2012-03-24T08:19:42Z</time>
      </trkpt>
      <trkpt lat="47.05325304530561" lon="6.847936855629087">
        <ele>1353.1900000000001</ele>
        <time>2012-03-24T08:19:43Z</time>
      </trkpt>
      <trkpt lat="47.053270982578397" lon="6.847968706861138">
        <ele>1353.1900000000001</ele>
        <time>2012-03-24T08:19:44Z</time>
      </trkpt>
      <trkpt lat="47.053293362259865" lon="6.84799075126648">
        <ele>1353.6700000000001</ele>
        <time>2012-03-24T08:19:45Z</time>
      </trkpt>
      <trkpt lat="47.05331071279943" lon="6.848022183403373">
        <ele>1353.6700000000001</ele>
        <time>2012-03-24T08:19:46Z</time>
      </trkpt>
      <trkpt lat="47.053324542939663" lon="6.84804892167449">
        <ele>1354.1500000000001</ele>
        <time>2012-03-24T08:19:47Z</time>
      </trkpt>
      <trkpt lat="47.053393106907606" lon="6.848153444007039">
        <ele>1354.1500000000001</ele>
        <time>2012-03-24T08:19:51Z</time>
      </trkpt>
      <trkpt lat="47.053412050008774" lon="6.848179176449776">
        <ele>1354.6300000000001</ele>
        <time>2012-03-24T08:19:52Z</time>
      </trkpt>
      <trkpt lat="47.053428813815117" lon="6.848215386271477">
        <ele>1354.1500000000001</ele>
        <time>2012-03-24T08:19:53Z</time>
      </trkpt>
      <trkpt lat="47.053446415811777" lon="6.848248913884163">
        <ele>1354.6300000000001</ele>
        <time>2012-03-24T08:19:54Z</time>
      </trkpt>
      <trkpt lat="47.053470052778721" lon="6.848277328535914">
        <ele>1354.6300000000001</ele>
        <time>2012-03-24T08:19:55Z</time>
      </trkpt>
      <trkpt lat="47.053491594269872" lon="6.848308006301522">
        <ele>1354.6300000000001</ele>
        <time>2012-03-24T08:19:56Z</time>
      </trkpt>
      <trkpt lat="47.053507771342993" lon="6.848341282457113">
        <ele>1354.6300000000001</ele>
        <time>2012-03-24T08:19:57Z</time>
      </trkpt>
      <trkpt lat="47.053525540977716" lon="6.848363159224391">
        <ele>1355.1199999999999</ele>
        <time>2012-03-24T08:19:58Z</time>
      </trkpt>
      <trkpt lat="47.053540712222457" lon="6.848386880010366">
        <ele>1354.6300000000001</ele>
        <time>2012-03-24T08:19:59Z</time>
      </trkpt>
      <trkpt lat="47.053551943972707" lon="6.848415797576308">
        <ele>1355.1199999999999</ele>
        <time>2012-03-24T08:20:00Z</time>
      </trkpt>
      <trkpt lat="47.053566444665194" lon="6.848440440371633">
        <ele>1355.5999999999999</ele>
        <time>2012-03-24T08:20:01Z</time>
      </trkpt>
      <trkpt lat="47.053582789376378" lon="6.848465753719211">
        <ele>1355.5999999999999</ele>
        <time>2012-03-24T08:20:02Z</time>
      </trkpt>
      <trkpt lat="47.053597792983055" lon="6.848498191684485">
        <ele>1356.0799999999999</ele>
        <time>2012-03-24T08:20:03Z</time>
      </trkpt>
      <trkpt lat="47.05361514352262" lon="6.848522918298841">
        <ele>1356.0799999999999</ele>
        <time>2012-03-24T08:20:04Z</time>
      </trkpt>
      <trkpt lat="47.053636433556676" lon="6.848545549437404">
        <ele>1356.0799999999999</ele>
        <time>2012-03-24T08:20:05Z</time>
      </trkpt>
      <trkpt lat="47.05365277826786" lon="6.848580334335566">
        <ele>1356.5599999999999</ele>
        <time>2012-03-24T08:20:06Z</time>
      </trkpt>
      <trkpt lat="47.053666859865189" lon="6.84861620888114">
        <ele>1357.04</ele>
        <time>2012-03-24T08:20:07Z</time>
      </trkpt>
      <trkpt lat="47.053683958947659" lon="6.848644036799669">
        <ele>1357.04</ele>
        <time>2012-03-24T08:20:08Z</time>
      </trkpt>
      <trkpt lat="47.053726203739643" lon="6.848733220249414">
        <ele>1357.04</ele>
        <time>2012-03-24T08:20:11Z</time>
      </trkpt>
      <trkpt lat="47.053744308650494" lon="6.848755935207009">
        <ele>1357.04</ele>
        <time>2012-03-24T08:20:12Z</time>
      </trkpt>
      <trkpt lat="47.053757132962346" lon="6.84879063628614">
        <ele>1357.04</ele>
        <time>2012-03-24T08:20:13Z</time>
      </trkpt>
      <trkpt lat="47.053770124912262" lon="6.84882047586143">
        <ele>1357.04</ele>
        <time>2012-03-24T08:20:14Z</time>
      </trkpt>
      <trkpt lat="47.053787475451827" lon="6.848843274638057">
        <ele>1357.04</ele>
        <time>2012-03-24T08:20:15Z</time>
      </trkpt>
      <trkpt lat="47.053802227601409" lon="6.848877305164933">
        <ele>1357.52</ele>
        <time>2012-03-24T08:20:16Z</time>
      </trkpt>
      <trkpt lat="47.053816225379705" lon="6.848913598805666">
        <ele>1357.04</ele>
        <time>2012-03-24T08:20:17Z</time>
      </trkpt>
      <trkpt lat="47.053836258128285" lon="6.84894067235291">
        <ele>1358</ele>
        <time>2012-03-24T08:20:18Z</time>
      </trkpt>
      <trkpt lat="47.053852183744311" lon="6.848972104489803">
        <ele>1358.48</ele>
        <time>2012-03-24T08:20:19Z</time>
      </trkpt>
      <trkpt lat="47.053866935893893" lon="6.849002363160253">
        <ele>1358</ele>
        <time>2012-03-24T08:20:20Z</time>
      </trkpt>
      <trkpt lat="47.053887136280537" lon="6.849027676507831">
        <ele>1358.48</ele>
        <time>2012-03-24T08:20:21Z</time>
      </trkpt>
      <trkpt lat="47.053905744105577" lon="6.849060952663422">
        <ele>1358.96</ele>
        <time>2012-03-24T08:20:22Z</time>
      </trkpt>
      <trkpt lat="47.053921250626445" lon="6.849099844694138">
        <ele>1358.96</ele>
        <time>2012-03-24T08:20:23Z</time>
      </trkpt>
      <trkpt lat="47.053940361365676" lon="6.849128175526857">
        <ele>1358.96</ele>
        <time>2012-03-24T08:20:24Z</time>
      </trkpt>
      <trkpt lat="47.053959975019097" lon="6.849154494702816">
        <ele>1358.96</ele>
        <time>2012-03-24T08:20:25Z</time>
      </trkpt>
      <trkpt lat="47.053998867049813" lon="6.849213670939207">
        <ele>1358.96</ele>
        <time>2012-03-24T08:20:27Z</time>
      </trkpt>
      <trkpt lat="47.054021079093218" lon="6.849243761971593">
        <ele>1359.4400000000001</ele>
        <time>2012-03-24T08:20:28Z</time>
      </trkpt>
      <trkpt lat="47.054039603099227" lon="6.84928173199296">
        <ele>1359.9200000000001</ele>
        <time>2012-03-24T08:20:29Z</time>
      </trkpt>
      <trkpt lat="47.054058043286204" lon="6.849308218806982">
        <ele>1358.96</ele>
        <time>2012-03-24T08:20:30Z</time>
      </trkpt>
      <trkpt lat="47.054078914225101" lon="6.849330347031355">
        <ele>1358.96</ele>
        <time>2012-03-24T08:20:31Z</time>
      </trkpt>
      <trkpt lat="47.054099701344967" lon="6.84935842640698">
        <ele>1359.9200000000001</ele>
        <time>2012-03-24T08:20:32Z</time>
      </trkpt>
      <trkpt lat="47.054120572283864" lon="6.849382314831018">
        <ele>1359.4400000000001</ele>
        <time>2012-03-24T08:20:33Z</time>
      </trkpt>
      <trkpt lat="47.054141443222761" lon="6.849405281245709">
        <ele>1359.4400000000001</ele>
        <time>2012-03-24T08:20:34Z</time>
      </trkpt>
      <trkpt lat="47.054167091846466" lon="6.849429924041033">
        <ele>1359.9200000000001</ele>
        <time>2012-03-24T08:20:35Z</time>
      </trkpt>
      <trkpt lat="47.054193075746298" lon="6.849442748352885">
        <ele>1359.9200000000001</ele>
        <time>2012-03-24T08:20:36Z</time>
      </trkpt>
      <trkpt lat="47.054218221455812" lon="6.849449872970581">
        <ele>1360.4000000000001</ele>
        <time>2012-03-24T08:20:37Z</time>
      </trkpt>
      <trkpt lat="47.054264908656478" lon="6.849472755566239">
        <ele>1360.4000000000001</ele>
        <time>2012-03-24T08:20:39Z</time>
      </trkpt>
      <trkpt lat="47.054288629442453" lon="6.849488094449043">
        <ele>1360.8800000000001</ele>
        <time>2012-03-24T08:20:40Z</time>
      </trkpt>
      <trkpt lat="47.054309332743287" lon="6.849504606798291">
        <ele>1360.8800000000001</ele>
        <time>2012-03-24T08:20:41Z</time>
      </trkpt>
      <trkpt lat="47.054333304986358" lon="6.849512234330177">
        <ele>1361.3599999999999</ele>
        <time>2012-03-24T08:20:42Z</time>
      </trkpt>
      <trkpt lat="47.054359037429094" lon="6.849524639546871">
        <ele>1360.8800000000001</ele>
        <time>2012-03-24T08:20:43Z</time>
      </trkpt>
      <trkpt lat="47.054384099319577" lon="6.849543834105134">
        <ele>1362.3299999999999</ele>
        <time>2012-03-24T08:20:44Z</time>
      </trkpt>
      <trkpt lat="47.054411675781012" lon="6.849555233493447">
        <ele>1361.8399999999999</ele>
        <time>2012-03-24T08:20:45Z</time>
      </trkpt>
      <trkpt lat="47.0544399227947" lon="6.849570069462061">
        <ele>1362.3299999999999</ele>
        <time>2012-03-24T08:20:46Z</time>
      </trkpt>
      <trkpt lat="47.054467583075166" lon="6.849594376981258">
        <ele>1361.8399999999999</ele>
        <time>2012-03-24T08:20:47Z</time>
      </trkpt>
      <trkpt lat="47.054495997726917" lon="6.84961105696857">
        <ele>1362.3299999999999</ele>
        <time>2012-03-24T08:20:48Z</time>
      </trkpt>
      <trkpt lat="47.054526256397367" lon="6.849616756662726">
        <ele>1361.3599999999999</ele>
        <time>2012-03-24T08:20:49Z</time>
      </trkpt>
      <trkpt lat="47.054556850343943" lon="6.849629497155547">
        <ele>1361.3599999999999</ele>
        <time>2012-03-24T08:20:50Z</time>
      </trkpt>
      <trkpt lat="47.054584259167314" lon="6.849647518247366">
        <ele>1361.8399999999999</ele>
        <time>2012-03-24T08:20:51Z</time>
      </trkpt>
      <trkpt lat="47.054611751809716" lon="6.849655648693442">
        <ele>1362.3299999999999</ele>
        <time>2012-03-24T08:20:52Z</time>
      </trkpt>
      <trkpt lat="47.054639747366309" lon="6.849664868786931">
        <ele>1362.3299999999999</ele>
        <time>2012-03-24T08:20:53Z</time>
      </trkpt>
      <trkpt lat="47.054666988551617" lon="6.849686577916145">
        <ele>1362.3299999999999</ele>
        <time>2012-03-24T08:20:54Z</time>
      </trkpt>
      <trkpt lat="47.054695067927241" lon="6.849705101922154">
        <ele>1361.8399999999999</ele>
        <time>2012-03-24T08:20:55Z</time>
      </trkpt>
      <trkpt lat="47.054724488407373" lon="6.849714238196611">
        <ele>1361.8399999999999</ele>
        <time>2012-03-24T08:20:56Z</time>
      </trkpt>
      <trkpt lat="47.054809648543596" lon="6.849765870720148">
        <ele>1361.8399999999999</ele>
        <time>2012-03-24T08:20:59Z</time>
      </trkpt>
      <trkpt lat="47.054837476462126" lon="6.849776012822986">
        <ele>1362.3299999999999</ele>
        <time>2012-03-24T08:21:00Z</time>
      </trkpt>
      <trkpt lat="47.054865304380655" lon="6.849797889590263">
        <ele>1362.3299999999999</ele>
        <time>2012-03-24T08:21:01Z</time>
      </trkpt>
      <trkpt lat="47.054893048480153" lon="6.84981775470078">
        <ele>1362.8099999999999</ele>
        <time>2012-03-24T08:21:02Z</time>
      </trkpt>
      <trkpt lat="47.054922804236412" lon="6.849826388061047">
        <ele>1361.8399999999999</ele>
        <time>2012-03-24T08:21:03Z</time>
      </trkpt>
      <trkpt lat="47.054953733459115" lon="6.849839966744185">
        <ele>1361.8399999999999</ele>
        <time>2012-03-24T08:21:04Z</time>
      </trkpt>
      <trkpt lat="47.054983824491501" lon="6.849859580397606">
        <ele>1362.3299999999999</ele>
        <time>2012-03-24T08:21:05Z</time>
      </trkpt>
      <trkpt lat="47.05501307733357" lon="6.849871398881078">
        <ele>1362.3299999999999</ele>
        <time>2012-03-24T08:21:06Z</time>
      </trkpt>
      <trkpt lat="47.055043838918209" lon="6.849878942593932">
        <ele>1361.8399999999999</ele>
        <time>2012-03-24T08:21:07Z</time>
      </trkpt>
      <trkpt lat="47.055074768140912" lon="6.849896376952529">
        <ele>1362.3299999999999</ele>
        <time>2012-03-24T08:21:08Z</time>
      </trkpt>
      <trkpt lat="47.055103685706854" lon="6.849911632016301">
        <ele>1362.8099999999999</ele>
        <time>2012-03-24T08:21:09Z</time>
      </trkpt>
      <trkpt lat="47.055133525282145" lon="6.849919511005282">
        <ele>1362.8099999999999</ele>
        <time>2012-03-24T08:21:10Z</time>
      </trkpt>
      <trkpt lat="47.055164538323879" lon="6.849928479641676">
        <ele>1361.8399999999999</ele>
        <time>2012-03-24T08:21:11Z</time>
      </trkpt>
      <trkpt lat="47.055194796994328" lon="6.849942645058036">
        <ele>1362.8099999999999</ele>
        <time>2012-03-24T08:21:12Z</time>
      </trkpt>
      <trkpt lat="47.055317675694823" lon="6.849992098286748">
        <ele>1363.77</ele>
        <time>2012-03-24T08:21:16Z</time>
      </trkpt>
      <trkpt lat="47.055447176098824" lon="6.850044233724475">
        <ele>1363.29</ele>
        <time>2012-03-24T08:21:20Z</time>
      </trkpt>
      <trkpt lat="47.055770382285118" lon="6.850221427157521">
        <ele>1362.3299999999999</ele>
        <time>2012-03-24T08:21:30Z</time>
      </trkpt>
      <trkpt lat="47.055927040055394" lon="6.850291583687067">
        <ele>1361.3599999999999</ele>
        <time>2012-03-24T08:21:34Z</time>
      </trkpt>
      <trkpt lat="47.055993843823671" lon="6.850294936448336">
        <ele>1359.9200000000001</ele>
        <time>2012-03-24T08:21:36Z</time>
      </trkpt>
      <trkpt lat="47.056006332859397" lon="6.850267024710774">
        <ele>1359.4400000000001</ele>
        <time>2012-03-24T08:21:37Z</time>
      </trkpt>
      <trkpt lat="47.056007171049714" lon="6.850229222327471">
        <ele>1359.9200000000001</ele>
        <time>2012-03-24T08:21:38Z</time>
      </trkpt>
      <trkpt lat="47.055909438058734" lon="6.850094608962536">
        <ele>1360.4000000000001</ele>
        <time>2012-03-24T08:21:44Z</time>
      </trkpt>
      <trkpt lat="47.055819164961576" lon="6.849948931485415">
        <ele>1361.3599999999999</ele>
        <time>2012-03-24T08:21:49Z</time>
      </trkpt>
      <trkpt lat="47.05577733926475" lon="6.849893275648356">
        <ele>1361.3599999999999</ele>
        <time>2012-03-24T08:21:51Z</time>
      </trkpt>
      <trkpt lat="47.055735010653734" lon="6.849838374182582">
        <ele>1361.8399999999999</ele>
        <time>2012-03-24T08:21:53Z</time>
      </trkpt>
      <trkpt lat="47.055626884102821" lon="6.849680626764894">
        <ele>1362.3299999999999</ele>
        <time>2012-03-24T08:21:58Z</time>
      </trkpt>
      <trkpt lat="47.055406104773283" lon="6.849409975111485">
        <ele>1363.77</ele>
        <time>2012-03-24T08:22:07Z</time>
      </trkpt>
      <trkpt lat="47.055383892729878" lon="6.849383823573589">
        <ele>1364.25</ele>
        <time>2012-03-24T08:22:08Z</time>
      </trkpt>
      <trkpt lat="47.055168310180306" lon="6.849137060344219">
        <ele>1364.25</ele>
        <time>2012-03-24T08:22:17Z</time>
      </trkpt>
      <trkpt lat="47.055087508633733" lon="6.849036812782288">
        <ele>1364.25</ele>
        <time>2012-03-24T08:22:20Z</time>
      </trkpt>
      <trkpt lat="47.05480445176363" lon="6.848641522228718">
        <ele>1363.77</ele>
        <time>2012-03-24T08:22:29Z</time>
      </trkpt>
      <trkpt lat="47.054768828675151" lon="6.848588213324547">
        <ele>1363.77</ele>
        <time>2012-03-24T08:22:30Z</time>
      </trkpt>
      <trkpt lat="47.054584762081504" lon="6.848324267193675">
        <ele>1363.77</ele>
        <time>2012-03-24T08:22:35Z</time>
      </trkpt>
      <trkpt lat="47.054258454591036" lon="6.847861334681511">
        <ele>1362.3299999999999</ele>
        <time>2012-03-24T08:22:43Z</time>
      </trkpt>
      <trkpt lat="47.05418586730957" lon="6.847755890339613">
        <ele>1362.3299999999999</ele>
        <time>2012-03-24T08:22:45Z</time>
      </trkpt>
      <trkpt lat="47.053970033302903" lon="6.847371915355325">
        <ele>1360.8800000000001</ele>
        <time>2012-03-24T08:22:51Z</time>
      </trkpt>
      <trkpt lat="47.053726371377707" lon="6.846943013370037">
        <ele>1359.9200000000001</ele>
        <time>2012-03-24T08:22:58Z</time>
      </trkpt>
      <trkpt lat="47.053388580679893" lon="6.846328871324658">
        <ele>1357.52</ele>
        <time>2012-03-24T08:23:07Z</time>
      </trkpt>
      <trkpt lat="47.053299229592085" lon="6.846167184412479">
        <ele>1357.52</ele>
        <time>2012-03-24T08:23:09Z</time>
      </trkpt>
      <trkpt lat="47.053110636770725" lon="6.845826543867588">
        <ele>1356.0799999999999</ele>
        <time>2012-03-24T08:23:13Z</time>
      </trkpt>
      <trkpt lat="47.052954481914639" lon="6.845523118972778">
        <ele>1353.6700000000001</ele>
        <time>2012-03-24T08:23:17Z</time>
      </trkpt>
      <trkpt lat="47.052919361740351" lon="6.845466122031212">
        <ele>1353.6700000000001</ele>
        <time>2012-03-24T08:23:18Z</time>
      </trkpt>
      <trkpt lat="47.052888432517648" lon="6.845406778156757">
        <ele>1354.1500000000001</ele>
        <time>2012-03-24T08:23:19Z</time>
      </trkpt>
      <trkpt lat="47.052856581285596" lon="6.845356905832887">
        <ele>1354.1500000000001</ele>
        <time>2012-03-24T08:23:20Z</time>
      </trkpt>
      <trkpt lat="47.052830429747701" lon="6.845314661040902">
        <ele>1354.1500000000001</ele>
        <time>2012-03-24T08:23:21Z</time>
      </trkpt>
      <trkpt lat="47.052810229361057" lon="6.845269231125712">
        <ele>1355.1199999999999</ele>
        <time>2012-03-24T08:23:22Z</time>
      </trkpt>
      <trkpt lat="47.052681567147374" lon="6.845015678554773">
        <ele>1356.0799999999999</ele>
        <time>2012-03-24T08:23:29Z</time>
      </trkpt>
      <trkpt lat="47.052663546055555" lon="6.8449832405895">
        <ele>1355.5999999999999</ele>
        <time>2012-03-24T08:23:30Z</time>
      </trkpt>
      <trkpt lat="47.05251719802618" lon="6.844674367457628">
        <ele>1356.5599999999999</ele>
        <time>2012-03-24T08:23:37Z</time>
      </trkpt>
      <trkpt lat="47.052490459755063" lon="6.844625920057297">
        <ele>1356.5599999999999</ele>
        <time>2012-03-24T08:23:38Z</time>
      </trkpt>
      <trkpt lat="47.052461206912994" lon="6.844583675265312">
        <ele>1356.5599999999999</ele>
        <time>2012-03-24T08:23:39Z</time>
      </trkpt>
      <trkpt lat="47.052435977384448" lon="6.844534473493695">
        <ele>1357.04</ele>
        <time>2012-03-24T08:23:40Z</time>
      </trkpt>
      <trkpt lat="47.052408065646887" lon="6.844488456845284">
        <ele>1357.04</ele>
        <time>2012-03-24T08:23:41Z</time>
      </trkpt>
      <trkpt lat="47.052374286577106" lon="6.844444619491696">
        <ele>1356.5599999999999</ele>
        <time>2012-03-24T08:23:42Z</time>
      </trkpt>
      <trkpt lat="47.052341513335705" lon="6.844389885663986">
        <ele>1356.5599999999999</ele>
        <time>2012-03-24T08:23:43Z</time>
      </trkpt>
      <trkpt lat="47.052306309342384" lon="6.844335151836276">
        <ele>1356.0799999999999</ele>
        <time>2012-03-24T08:23:44Z</time>
      </trkpt>
      <trkpt lat="47.052272446453571" lon="6.844283938407898">
        <ele>1355.5999999999999</ele>
        <time>2012-03-24T08:23:45Z</time>
      </trkpt>
      <trkpt lat="47.052239757031202" lon="6.844226606190205">
        <ele>1356.0799999999999</ele>
        <time>2012-03-24T08:23:46Z</time>
      </trkpt>
      <trkpt lat="47.052204888314009" lon="6.844169944524765">
        <ele>1355.5999999999999</ele>
        <time>2012-03-24T08:23:47Z</time>
      </trkpt>
      <trkpt lat="47.052173288539052" lon="6.844113366678357">
        <ele>1354.6300000000001</ele>
        <time>2012-03-24T08:23:48Z</time>
      </trkpt>
      <trkpt lat="47.052142275497317" lon="6.844060644507408">
        <ele>1355.5999999999999</ele>
        <time>2012-03-24T08:23:49Z</time>
      </trkpt>
      <trkpt lat="47.052111513912678" lon="6.844013119116426">
        <ele>1355.5999999999999</ele>
        <time>2012-03-24T08:23:50Z</time>
      </trkpt>
      <trkpt lat="47.05208376981318" lon="6.843956373631954">
        <ele>1354.6300000000001</ele>
        <time>2012-03-24T08:23:51Z</time>
      </trkpt>
      <trkpt lat="47.052054768428206" lon="6.843902729451656">
        <ele>1355.5999999999999</ele>
        <time>2012-03-24T08:23:52Z</time>
      </trkpt>
      <trkpt lat="47.052024677395821" lon="6.843853276222944">
        <ele>1355.5999999999999</ele>
        <time>2012-03-24T08:23:53Z</time>
      </trkpt>
      <trkpt lat="47.051999028772116" lon="6.843800051137805">
        <ele>1355.1199999999999</ele>
        <time>2012-03-24T08:23:54Z</time>
      </trkpt>
      <trkpt lat="47.05197430215776" lon="6.843747496604919">
        <ele>1355.5999999999999</ele>
        <time>2012-03-24T08:23:55Z</time>
      </trkpt>
      <trkpt lat="47.051951251924038" lon="6.843695277348161">
        <ele>1355.1199999999999</ele>
        <time>2012-03-24T08:23:56Z</time>
      </trkpt>
      <trkpt lat="47.05192836932838" lon="6.84364247135818">
        <ele>1355.5999999999999</ele>
        <time>2012-03-24T08:23:57Z</time>
      </trkpt>
      <trkpt lat="47.051903055980802" lon="6.843592682853341">
        <ele>1355.5999999999999</ele>
        <time>2012-03-24T08:23:58Z</time>
      </trkpt>
      <trkpt lat="47.051881095394492" lon="6.843542139977217">
        <ele>1356.0799999999999</ele>
        <time>2012-03-24T08:23:59Z</time>
      </trkpt>
      <trkpt lat="47.051857374608517" lon="6.84348707087338">
        <ele>1355.1199999999999</ele>
        <time>2012-03-24T08:24:00Z</time>
      </trkpt>
      <trkpt lat="47.051831977441907" lon="6.843440718948841">
        <ele>1355.5999999999999</ele>
        <time>2012-03-24T08:24:01Z</time>
      </trkpt>
      <trkpt lat="47.051810100674629" lon="6.843389002606273">
        <ele>1355.5999999999999</ele>
        <time>2012-03-24T08:24:02Z</time>
      </trkpt>
      <trkpt lat="47.051788894459605" lon="6.843333598226309">
        <ele>1355.1199999999999</ele>
        <time>2012-03-24T08:24:03Z</time>
      </trkpt>
      <trkpt lat="47.051762826740742" lon="6.843282971531153">
        <ele>1354.6300000000001</ele>
        <time>2012-03-24T08:24:04Z</time>
      </trkpt>
      <trkpt lat="47.051734663546085" lon="6.843228321522474">
        <ele>1354.6300000000001</ele>
        <time>2012-03-24T08:24:05Z</time>
      </trkpt>
      <trkpt lat="47.051703399047256" lon="6.843171995133162">
        <ele>1354.6300000000001</ele>
        <time>2012-03-24T08:24:06Z</time>
      </trkpt>
      <trkpt lat="47.051671547815204" lon="6.843117009848356">
        <ele>1354.1500000000001</ele>
        <time>2012-03-24T08:24:07Z</time>
      </trkpt>
      <trkpt lat="47.051640786230564" lon="6.843058923259378">
        <ele>1354.1500000000001</ele>
        <time>2012-03-24T08:24:08Z</time>
      </trkpt>
      <trkpt lat="47.051607258617878" lon="6.843003686517477">
        <ele>1354.1500000000001</ele>
        <time>2012-03-24T08:24:09Z</time>
      </trkpt>
      <trkpt lat="47.051572557538748" lon="6.842948449775577">
        <ele>1353.6700000000001</ele>
        <time>2012-03-24T08:24:10Z</time>
      </trkpt>
      <trkpt lat="47.05153894610703" lon="6.842890698462725">
        <ele>1353.6700000000001</ele>
        <time>2012-03-24T08:24:11Z</time>
      </trkpt>
      <trkpt lat="47.051502233371139" lon="6.842834874987602">
        <ele>1353.1900000000001</ele>
        <time>2012-03-24T08:24:12Z</time>
      </trkpt>
      <trkpt lat="47.051467448472977" lon="6.842769831418991">
        <ele>1352.71</ele>
        <time>2012-03-24T08:24:13Z</time>
      </trkpt>
      <trkpt lat="47.051429310813546" lon="6.842708140611649">
        <ele>1352.23</ele>
        <time>2012-03-24T08:24:14Z</time>
      </trkpt>
      <trkpt lat="47.051385892555118" lon="6.842647958546877">
        <ele>1352.23</ele>
        <time>2012-03-24T08:24:15Z</time>
      </trkpt>
      <trkpt lat="47.051345743238926" lon="6.842574030160904">
        <ele>1352.23</ele>
        <time>2012-03-24T08:24:16Z</time>
      </trkpt>
      <trkpt lat="47.0513039175421" lon="6.842499598860741">
        <ele>1351.27</ele>
        <time>2012-03-24T08:24:17Z</time>
      </trkpt>
      <trkpt lat="47.051258822903037" lon="6.842424832284451">
        <ele>1351.27</ele>
        <time>2012-03-24T08:24:18Z</time>
      </trkpt>
      <trkpt lat="47.051213141530752" lon="6.842341935262084">
        <ele>1350.79</ele>
        <time>2012-03-24T08:24:19Z</time>
      </trkpt>
      <trkpt lat="47.051114235073328" lon="6.842175638303161">
        <ele>1349.3499999999999</ele>
        <time>2012-03-24T08:24:21Z</time>
      </trkpt>
      <trkpt lat="47.05106352455914" lon="6.842087209224701">
        <ele>1348.8699999999999</ele>
        <time>2012-03-24T08:24:22Z</time>
      </trkpt>
      <trkpt lat="47.051008706912398" lon="6.842006994411349">
        <ele>1348.3900000000001</ele>
        <time>2012-03-24T08:24:23Z</time>
      </trkpt>
      <trkpt lat="47.050955481827259" lon="6.841927617788315">
        <ele>1348.3900000000001</ele>
        <time>2012-03-24T08:24:24Z</time>
      </trkpt>
      <trkpt lat="47.050904436036944" lon="6.841844469308853">
        <ele>1347.9100000000001</ele>
        <time>2012-03-24T08:24:25Z</time>
      </trkpt>
      <trkpt lat="47.050851713865995" lon="6.841765427961946">
        <ele>1347.4300000000001</ele>
        <time>2012-03-24T08:24:26Z</time>
      </trkpt>
      <trkpt lat="47.050800081342459" lon="6.841686889529228">
        <ele>1347.9100000000001</ele>
        <time>2012-03-24T08:24:27Z</time>
      </trkpt>
      <trkpt lat="47.050754567608237" lon="6.841601058840752">
        <ele>1346.9400000000001</ele>
        <time>2012-03-24T08:24:28Z</time>
      </trkpt>
      <trkpt lat="47.050712406635284" lon="6.841520089656115">
        <ele>1346.46</ele>
        <time>2012-03-24T08:24:29Z</time>
      </trkpt>
      <trkpt lat="47.050668317824602" lon="6.841449346393347">
        <ele>1346.46</ele>
        <time>2012-03-24T08:24:30Z</time>
      </trkpt>
      <trkpt lat="47.05062959343195" lon="6.841374579817057">
        <ele>1346.46</ele>
        <time>2012-03-24T08:24:31Z</time>
      </trkpt>
      <trkpt lat="47.050597742199898" lon="6.841304590925574">
        <ele>1346.46</ele>
        <time>2012-03-24T08:24:32Z</time>
      </trkpt>
      <trkpt lat="47.050567902624607" lon="6.841240804642439">
        <ele>1345.98</ele>
        <time>2012-03-24T08:24:33Z</time>
      </trkpt>
      <trkpt lat="47.050543092191219" lon="6.841172575950623">
        <ele>1346.46</ele>
        <time>2012-03-24T08:24:34Z</time>
      </trkpt>
      <trkpt lat="47.050519874319434" lon="6.841107616201043">
        <ele>1345.98</ele>
        <time>2012-03-24T08:24:35Z</time>
      </trkpt>
      <trkpt lat="47.050499087199569" lon="6.841043746098876">
        <ele>1346.46</ele>
        <time>2012-03-24T08:24:36Z</time>
      </trkpt>
      <trkpt lat="47.050481149926782" lon="6.840979037806392">
        <ele>1346.46</ele>
        <time>2012-03-24T08:24:37Z</time>
      </trkpt>
      <trkpt lat="47.050462374463677" lon="6.840917011722922">
        <ele>1345.98</ele>
        <time>2012-03-24T08:24:38Z</time>
      </trkpt>
      <trkpt lat="47.050447370857" lon="6.840852219611406">
        <ele>1346.46</ele>
        <time>2012-03-24T08:24:39Z</time>
      </trkpt>
      <trkpt lat="47.050433373078704" lon="6.840784745290875">
        <ele>1346.46</ele>
        <time>2012-03-24T08:24:40Z</time>
      </trkpt>
      <trkpt lat="47.050415435805917" lon="6.840724060311914">
        <ele>1346.46</ele>
        <time>2012-03-24T08:24:41Z</time>
      </trkpt>
      <trkpt lat="47.050399091094732" lon="6.840661447495222">
        <ele>1345.98</ele>
        <time>2012-03-24T08:24:42Z</time>
      </trkpt>
      <trkpt lat="47.050386350601912" lon="6.840594811365008">
        <ele>1346.46</ele>
        <time>2012-03-24T08:24:43Z</time>
      </trkpt>
      <trkpt lat="47.050371179357171" lon="6.840529851615429">
        <ele>1345.98</ele>
        <time>2012-03-24T08:24:44Z</time>
      </trkpt>
      <trkpt lat="47.05035743303597" lon="6.840463383123279">
        <ele>1345.98</ele>
        <time>2012-03-24T08:24:45Z</time>
      </trkpt>
      <trkpt lat="47.050341255962849" lon="6.84039892628789">
        <ele>1345.98</ele>
        <time>2012-03-24T08:24:46Z</time>
      </trkpt>
      <trkpt lat="47.050296999514103" lon="6.840271269902587">
        <ele>1345.98</ele>
        <time>2012-03-24T08:24:48Z</time>
      </trkpt>
      <trkpt lat="47.050275709480047" lon="6.840203292667866">
        <ele>1345.98</ele>
        <time>2012-03-24T08:24:49Z</time>
      </trkpt>
      <trkpt lat="47.050160709768534" lon="6.839944794774056">
        <ele>1345.5</ele>
        <time>2012-03-24T08:24:53Z</time>
      </trkpt>
      <trkpt lat="47.049912689253688" lon="6.839570123702288">
        <ele>1344.0599999999999</ele>
        <time>2012-03-24T08:24:59Z</time>
      </trkpt>
      <trkpt lat="47.049876479431987" lon="6.839496279135346">
        <ele>1343.0999999999999</ele>
        <time>2012-03-24T08:25:00Z</time>
      </trkpt>
      <trkpt lat="47.049836330115795" lon="6.839330736547709">
        <ele>1342.6199999999999</ele>
        <time>2012-03-24T08:25:02Z</time>
      </trkpt>
      <trkpt lat="47.049837587401271" lon="6.839250857010484">
        <ele>1342.6199999999999</ele>
        <time>2012-03-24T08:25:03Z</time>
      </trkpt>
      <trkpt lat="47.049854435026646" lon="6.839181119576097">
        <ele>1342.1400000000001</ele>
        <time>2012-03-24T08:25:04Z</time>
      </trkpt>
      <trkpt lat="47.049886537715793" lon="6.839131331071258">
        <ele>1342.6199999999999</ele>
        <time>2012-03-24T08:25:05Z</time>
      </trkpt>
      <trkpt lat="47.049928195774555" lon="6.839104425162077">
        <ele>1342.6199999999999</ele>
        <time>2012-03-24T08:25:06Z</time>
      </trkpt>
      <trkpt lat="47.049975888803601" lon="6.839097552001476">
        <ele>1342.6199999999999</ele>
        <time>2012-03-24T08:25:07Z</time>
      </trkpt>
      <trkpt lat="47.050025425851345" lon="6.839102497324348">
        <ele>1342.1400000000001</ele>
        <time>2012-03-24T08:25:08Z</time>
      </trkpt>
      <trkpt lat="47.050072196871042" lon="6.839112555608153">
        <ele>1342.1400000000001</ele>
        <time>2012-03-24T08:25:09Z</time>
      </trkpt>
      <trkpt lat="47.050115782767534" lon="6.839123368263245">
        <ele>1342.1400000000001</ele>
        <time>2012-03-24T08:25:10Z</time>
      </trkpt>
      <trkpt lat="47.050157357007265" lon="6.839137114584446">
        <ele>1341.6600000000001</ele>
        <time>2012-03-24T08:25:11Z</time>
      </trkpt>
      <trkpt lat="47.050198763608932" lon="6.839158739894629">
        <ele>1341.1800000000001</ele>
        <time>2012-03-24T08:25:12Z</time>
      </trkpt>
      <trkpt lat="47.050240589305758" lon="6.839188914746046">
        <ele>1341.1800000000001</ele>
        <time>2012-03-24T08:25:13Z</time>
      </trkpt>
      <trkpt lat="47.050281744450331" lon="6.83922722004354">
        <ele>1340.7</ele>
        <time>2012-03-24T08:25:14Z</time>
      </trkpt>
      <trkpt lat="47.0503213070333" lon="6.839271560311317">
        <ele>1340.22</ele>
        <time>2012-03-24T08:25:15Z</time>
      </trkpt>
      <trkpt lat="47.050475114956498" lon="6.839449675753713">
        <ele>1339.73</ele>
        <time>2012-03-24T08:25:19Z</time>
      </trkpt>
      <trkpt lat="47.050622133538127" lon="6.83965478092432">
        <ele>1335.8900000000001</ele>
        <time>2012-03-24T08:25:24Z</time>
      </trkpt>
      <trkpt lat="47.050740486010909" lon="6.839815797284246">
        <ele>1333.01</ele>
        <time>2012-03-24T08:25:28Z</time>
      </trkpt>
      <trkpt lat="47.050897311419249" lon="6.840020148083568">
        <ele>1330.1199999999999</ele>
        <time>2012-03-24T08:25:31Z</time>
      </trkpt>
      <trkpt lat="47.050970150157809" lon="6.840090220794082">
        <ele>1328.6800000000001</ele>
        <time>2012-03-24T08:25:32Z</time>
      </trkpt>
      <trkpt lat="47.051051203161478" lon="6.840151576325297">
        <ele>1328.2</ele>
        <time>2012-03-24T08:25:33Z</time>
      </trkpt>
      <trkpt lat="47.051136363297701" lon="6.84020446613431">
        <ele>1327.24</ele>
        <time>2012-03-24T08:25:34Z</time>
      </trkpt>
      <trkpt lat="47.051224876195192" lon="6.840251572430134">
        <ele>1326.28</ele>
        <time>2012-03-24T08:25:35Z</time>
      </trkpt>
      <trkpt lat="47.051307270303369" lon="6.840304126963019">
        <ele>1326.28</ele>
        <time>2012-03-24T08:25:36Z</time>
      </trkpt>
      <trkpt lat="47.05157121643424" lon="6.840525828301907">
        <ele>1324.8299999999999</ele>
        <time>2012-03-24T08:25:40Z</time>
      </trkpt>
      <trkpt lat="47.051622848957777" lon="6.840576203539968">
        <ele>1324.8299999999999</ele>
        <time>2012-03-24T08:25:41Z</time>
      </trkpt>
      <trkpt lat="47.051667021587491" lon="6.840627752244473">
        <ele>1324.3499999999999</ele>
        <time>2012-03-24T08:25:42Z</time>
      </trkpt>
      <trkpt lat="47.051741788163781" lon="6.840728921815753">
        <ele>1324.3499999999999</ele>
        <time>2012-03-24T08:25:44Z</time>
      </trkpt>
      <trkpt lat="47.05181110650301" lon="6.840817602351308">
        <ele>1324.3499999999999</ele>
        <time>2012-03-24T08:25:46Z</time>
      </trkpt>
      <trkpt lat="47.051841281354427" lon="6.840869067236781">
        <ele>1324.3499999999999</ele>
        <time>2012-03-24T08:25:47Z</time>
      </trkpt>
      <trkpt lat="47.051872462034225" lon="6.840911228209734">
        <ele>1323.8699999999999</ele>
        <time>2012-03-24T08:25:48Z</time>
      </trkpt>
      <trkpt lat="47.051903139799833" lon="6.840952048078179">
        <ele>1324.3499999999999</ele>
        <time>2012-03-24T08:25:49Z</time>
      </trkpt>
      <trkpt lat="47.051929710432887" lon="6.84099948965013">
        <ele>1324.8299999999999</ele>
        <time>2012-03-24T08:25:50Z</time>
      </trkpt>
      <trkpt lat="47.051955526694655" lon="6.8410424888134">
        <ele>1324.3499999999999</ele>
        <time>2012-03-24T08:25:51Z</time>
      </trkpt>
      <trkpt lat="47.051983438432217" lon="6.841078363358975">
        <ele>1324.8299999999999</ele>
        <time>2012-03-24T08:25:52Z</time>
      </trkpt>
      <trkpt lat="47.052166750654578" lon="6.841386398300529">
        <ele>1326.28</ele>
        <time>2012-03-24T08:26:00Z</time>
      </trkpt>
      <trkpt lat="47.052327934652567" lon="6.841661324724555">
        <ele>1326.76</ele>
        <time>2012-03-24T08:26:07Z</time>
      </trkpt>
      <trkpt lat="47.052400941029191" lon="6.841771211475134">
        <ele>1327.24</ele>
        <time>2012-03-24T08:26:10Z</time>
      </trkpt>
      <trkpt lat="47.052418626844883" lon="6.841816306114197">
        <ele>1326.76</ele>
        <time>2012-03-24T08:26:11Z</time>
      </trkpt>
      <trkpt lat="47.052440335974097" lon="6.841849833726883">
        <ele>1327.72</ele>
        <time>2012-03-24T08:26:12Z</time>
      </trkpt>
      <trkpt lat="47.05246296711266" lon="6.84187849983573">
        <ele>1327.72</ele>
        <time>2012-03-24T08:26:13Z</time>
      </trkpt>
      <trkpt lat="47.052483167499304" lon="6.841916469857097">
        <ele>1328.2</ele>
        <time>2012-03-24T08:26:14Z</time>
      </trkpt>
      <trkpt lat="47.05250303260982" lon="6.841954188421369">
        <ele>1327.72</ele>
        <time>2012-03-24T08:26:15Z</time>
      </trkpt>
      <trkpt lat="47.052549468353391" lon="6.842017723247409">
        <ele>1328.6800000000001</ele>
        <time>2012-03-24T08:26:17Z</time>
      </trkpt>
      <trkpt lat="47.052699001505971" lon="6.842233221977949">
        <ele>1329.1600000000001</ele>
        <time>2012-03-24T08:26:24Z</time>
      </trkpt>
      <trkpt lat="47.052849037572742" lon="6.84244729578495">
        <ele>1329.6400000000001</ele>
        <time>2012-03-24T08:26:31Z</time>
      </trkpt>
      <trkpt lat="47.052974682301283" lon="6.842663129791617">
        <ele>1330.1199999999999</ele>
        <time>2012-03-24T08:26:37Z</time>
      </trkpt>
      <trkpt lat="47.053153552114964" lon="6.842958759516478">
        <ele>1332.52</ele>
        <time>2012-03-24T08:26:46Z</time>
      </trkpt>
      <trkpt lat="47.053191103041172" lon="6.843011984601617">
        <ele>1332.04</ele>
        <time>2012-03-24T08:26:48Z</time>
      </trkpt>
      <trkpt lat="47.053303923457861" lon="6.843216335400939">
        <ele>1332.04</ele>
        <time>2012-03-24T08:26:54Z</time>
      </trkpt>
      <trkpt lat="47.053445242345333" lon="6.843465613201261">
        <ele>1332.52</ele>
        <time>2012-03-24T08:27:01Z</time>
      </trkpt>
      <trkpt lat="47.053611958399415" lon="6.843746155500412">
        <ele>1334.45</ele>
        <time>2012-03-24T08:27:09Z</time>
      </trkpt>
      <trkpt lat="47.053750175982714" lon="6.843999540433288">
        <ele>1334.45</ele>
        <time>2012-03-24T08:27:16Z</time>
      </trkpt>
      <trkpt lat="47.053854111582041" lon="6.844180505722761">
        <ele>1334.45</ele>
        <time>2012-03-24T08:27:21Z</time>
      </trkpt>
      <trkpt lat="47.053897613659501" lon="6.844253595918417">
        <ele>1334.9300000000001</ele>
        <time>2012-03-24T08:27:23Z</time>
      </trkpt>
      <trkpt lat="47.054051337763667" lon="6.844529444351792">
        <ele>1334.9300000000001</ele>
        <time>2012-03-24T08:27:31Z</time>
      </trkpt>
      <trkpt lat="47.054081931710243" lon="6.844601025804877">
        <ele>1334.9300000000001</ele>
        <time>2012-03-24T08:27:33Z</time>
      </trkpt>
      <trkpt lat="47.054199194535613" lon="6.844791378825903">
        <ele>1335.8900000000001</ele>
        <time>2012-03-24T08:27:39Z</time>
      </trkpt>
      <trkpt lat="47.054359540343285" lon="6.845077034085989">
        <ele>1336.8499999999999</ele>
        <time>2012-03-24T08:27:48Z</time>
      </trkpt>
      <trkpt lat="47.054397258907557" lon="6.845136126503348">
        <ele>1337.3299999999999</ele>
        <time>2012-03-24T08:27:50Z</time>
      </trkpt>
      <trkpt lat="47.054568668827415" lon="6.845452794805169">
        <ele>1338.77</ele>
        <time>2012-03-24T08:28:00Z</time>
      </trkpt>
      <trkpt lat="47.05471501685679" lon="6.8456946965307">
        <ele>1339.25</ele>
        <time>2012-03-24T08:28:08Z</time>
      </trkpt>
      <trkpt lat="47.054853904992342" lon="6.845966521650553">
        <ele>1340.7</ele>
        <time>2012-03-24T08:28:16Z</time>
      </trkpt>
      <trkpt lat="47.054970664903522" lon="6.846174225211144">
        <ele>1341.1800000000001</ele>
        <time>2012-03-24T08:28:23Z</time>
      </trkpt>
      <trkpt lat="47.055081473663449" lon="6.84637245722115">
        <ele>1342.1400000000001</ele>
        <time>2012-03-24T08:28:30Z</time>
      </trkpt>
      <trkpt lat="47.055204939097166" lon="6.846585106104612">
        <ele>1342.6199999999999</ele>
        <time>2012-03-24T08:28:38Z</time>
      </trkpt>
      <trkpt lat="47.055320022627711" lon="6.846792306751013">
        <ele>1345.02</ele>
        <time>2012-03-24T08:28:45Z</time>
      </trkpt>
      <trkpt lat="47.05546754412353" lon="6.84706530533731">
        <ele>1344.54</ele>
        <time>2012-03-24T08:28:54Z</time>
      </trkpt>
      <trkpt lat="47.055572066456079" lon="6.847238140180707">
        <ele>1345.98</ele>
        <time>2012-03-24T08:29:00Z</time>
      </trkpt>
      <trkpt lat="47.055603666231036" lon="6.847301004454494">
        <ele>1346.46</ele>
        <time>2012-03-24T08:29:02Z</time>
      </trkpt>
      <trkpt lat="47.055758060887456" lon="6.847566878423095">
        <ele>1347.4300000000001</ele>
        <time>2012-03-24T08:29:11Z</time>
      </trkpt>
      <trkpt lat="47.055916646495461" lon="6.847837697714567">
        <ele>1347.4300000000001</ele>
        <time>2012-03-24T08:29:20Z</time>
      </trkpt>
      <trkpt lat="47.056050505489111" lon="6.848064931109548">
        <ele>1348.3900000000001</ele>
        <time>2012-03-24T08:29:27Z</time>
      </trkpt>
      <trkpt lat="47.056181849911809" lon="6.84828101657331">
        <ele>1348.8699999999999</ele>
        <time>2012-03-24T08:29:34Z</time>
      </trkpt>
      <trkpt lat="47.056335490196943" lon="6.848499365150929">
        <ele>1349.8299999999999</ele>
        <time>2012-03-24T08:29:41Z</time>
      </trkpt>
      <trkpt lat="47.056404557079077" lon="6.848592152819037">
        <ele>1349.3499999999999</ele>
        <time>2012-03-24T08:29:44Z</time>
      </trkpt>
      <trkpt lat="47.056587869301438" lon="6.848779488354921">
        <ele>1349.3499999999999</ele>
        <time>2012-03-24T08:29:51Z</time>
      </trkpt>
      <trkpt lat="47.056677974760532" lon="6.848871354013681">
        <ele>1349.8299999999999</ele>
        <time>2012-03-24T08:29:54Z</time>
      </trkpt>
      <trkpt lat="47.056711921468377" lon="6.84890303760767">
        <ele>1349.8299999999999</ele>
        <time>2012-03-24T08:29:55Z</time>
      </trkpt>
      <trkpt lat="47.056744610890746" lon="6.84894410893321">
        <ele>1349.8299999999999</ele>
        <time>2012-03-24T08:29:56Z</time>
      </trkpt>
      <trkpt lat="47.056777803227305" lon="6.848985934630036">
        <ele>1349.3499999999999</ele>
        <time>2012-03-24T08:29:57Z</time>
      </trkpt>
      <trkpt lat="47.056811666116118" lon="6.849024156108499">
        <ele>1349.3499999999999</ele>
        <time>2012-03-24T08:29:58Z</time>
      </trkpt>
      <trkpt lat="47.05684594810009" lon="6.849058689549565">
        <ele>1349.3499999999999</ele>
        <time>2012-03-24T08:29:59Z</time>
      </trkpt>
      <trkpt lat="47.056874949485064" lon="6.849102443084121">
        <ele>1349.3499999999999</ele>
        <time>2012-03-24T08:30:00Z</time>
      </trkpt>
      <trkpt lat="47.056903950870037" lon="6.849145609885454">
        <ele>1349.3499999999999</ele>
        <time>2012-03-24T08:30:01Z</time>
      </trkpt>
      <trkpt lat="47.056935215368867" lon="6.849181819707155">
        <ele>1348.8699999999999</ele>
        <time>2012-03-24T08:30:02Z</time>
      </trkpt>
      <trkpt lat="47.056965725496411" lon="6.849219119176269">
        <ele>1348.8699999999999</ele>
        <time>2012-03-24T08:30:03Z</time>
      </trkpt>
      <trkpt lat="47.056992715224624" lon="6.849261866882443">
        <ele>1348.3900000000001</ele>
        <time>2012-03-24T08:30:04Z</time>
      </trkpt>
      <trkpt lat="47.057019369676709" lon="6.849305368959904">
        <ele>1348.3900000000001</ele>
        <time>2012-03-24T08:30:05Z</time>
      </trkpt>
      <trkpt lat="47.057047532871366" lon="6.84934476390481">
        <ele>1347.9100000000001</ele>
        <time>2012-03-24T08:30:06Z</time>
      </trkpt>
      <trkpt lat="47.05707804299891" lon="6.849382147192955">
        <ele>1347.4300000000001</ele>
        <time>2012-03-24T08:30:07Z</time>
      </trkpt>
      <trkpt lat="47.057123053818941" lon="6.849470157176256">
        <ele>1346.46</ele>
        <time>2012-03-24T08:30:09Z</time>
      </trkpt>
      <trkpt lat="47.057120455428958" lon="6.849518939852715">
        <ele>1346.46</ele>
        <time>2012-03-24T08:30:10Z</time>
      </trkpt>
      <trkpt lat="47.057112827897072" lon="6.849564621224999">
        <ele>1346.9400000000001</ele>
        <time>2012-03-24T08:30:11Z</time>
      </trkpt>
      <trkpt lat="47.0571044459939" lon="6.849601836875081">
        <ele>1346.46</ele>
        <time>2012-03-24T08:30:12Z</time>
      </trkpt>
      <trkpt lat="47.056978046894073" lon="6.849619690328836">
        <ele>1346.9400000000001</ele>
        <time>2012-03-24T08:30:18Z</time>
      </trkpt>
      <trkpt lat="47.056853072717786" lon="6.849692864343524">
        <ele>1349.8299999999999</ele>
        <time>2012-03-24T08:30:25Z</time>
      </trkpt>
      <trkpt lat="47.056734971702099" lon="6.849893527105451">
        <ele>1351.75</ele>
        <time>2012-03-24T08:30:34Z</time>
      </trkpt>
      <trkpt lat="47.056688452139497" lon="6.850010622292757">
        <ele>1352.71</ele>
        <time>2012-03-24T08:30:39Z</time>
      </trkpt>
      <trkpt lat="47.056604297831655" lon="6.850186306983233">
        <ele>1354.1500000000001</ele>
        <time>2012-03-24T08:30:47Z</time>
      </trkpt>
      <trkpt lat="47.056567668914795" lon="6.850245064124465">
        <ele>1355.5999999999999</ele>
        <time>2012-03-24T08:30:50Z</time>
      </trkpt>
      <trkpt lat="47.056501703336835" lon="6.850292002782226">
        <ele>1356.5599999999999</ele>
        <time>2012-03-24T08:30:54Z</time>
      </trkpt>
      <trkpt lat="47.056424338370562" lon="6.850325278937817">
        <ele>1358</ele>
        <time>2012-03-24T08:30:58Z</time>
      </trkpt>
      <trkpt lat="47.05635191872716" lon="6.850352436304092">
        <ele>1358.96</ele>
        <time>2012-03-24T08:31:02Z</time>
      </trkpt>
      <trkpt lat="47.056170199066401" lon="6.850366769358516">
        <ele>1358</ele>
        <time>2012-03-24T08:31:10Z</time>
      </trkpt>
      <trkpt lat="47.056040279567242" lon="6.850329972803593">
        <ele>1358.96</ele>
        <time>2012-03-24T08:31:16Z</time>
      </trkpt>
      <trkpt lat="47.055899798870087" lon="6.85024724341929">
        <ele>1359.4400000000001</ele>
        <time>2012-03-24T08:31:23Z</time>
      </trkpt>
      <trkpt lat="47.05581296235323" lon="6.8502052500844">
        <ele>1360.4000000000001</ele>
        <time>2012-03-24T08:31:27Z</time>
      </trkpt>
      <trkpt lat="47.055611880496144" lon="6.850118413567543">
        <ele>1361.3599999999999</ele>
        <time>2012-03-24T08:31:36Z</time>
      </trkpt>
      <trkpt lat="47.055485062301159" lon="6.850072480738163">
        <ele>1361.3599999999999</ele>
        <time>2012-03-24T08:31:41Z</time>
      </trkpt>
      <trkpt lat="47.055429825559258" lon="6.850046664476395">
        <ele>1361.8399999999999</ele>
        <time>2012-03-24T08:31:43Z</time>
      </trkpt>
      <trkpt lat="47.055319268256426" lon="6.85001322068274">
        <ele>1362.3299999999999</ele>
        <time>2012-03-24T08:31:47Z</time>
      </trkpt>
      <trkpt lat="47.055259505286813" lon="6.849999641999602">
        <ele>1361.3599999999999</ele>
        <time>2012-03-24T08:31:49Z</time>
      </trkpt>
      <trkpt lat="47.054981477558613" lon="6.849876260384917">
        <ele>1361.3599999999999</ele>
        <time>2012-03-24T08:31:58Z</time>
      </trkpt>
      <trkpt lat="47.054945267736912" lon="6.849856982007623">
        <ele>1360.8800000000001</ele>
        <time>2012-03-24T08:31:59Z</time>
      </trkpt>
      <trkpt lat="47.054908219724894" lon="6.849836278706789">
        <ele>1360.8800000000001</ele>
        <time>2012-03-24T08:32:00Z</time>
      </trkpt>
      <trkpt lat="47.054871004074812" lon="6.84981431812048">
        <ele>1360.8800000000001</ele>
        <time>2012-03-24T08:32:01Z</time>
      </trkpt>
      <trkpt lat="47.054833956062794" lon="6.849796380847693">
        <ele>1361.3599999999999</ele>
        <time>2012-03-24T08:32:02Z</time>
      </trkpt>
      <trkpt lat="47.0547956507653" lon="6.84978112578392">
        <ele>1360.8800000000001</ele>
        <time>2012-03-24T08:32:03Z</time>
      </trkpt>
      <trkpt lat="47.054759273305535" lon="6.849760422483087">
        <ele>1360.8800000000001</ele>
        <time>2012-03-24T08:32:04Z</time>
      </trkpt>
      <trkpt lat="47.054722392931581" lon="6.849740641191602">
        <ele>1360.8800000000001</ele>
        <time>2012-03-24T08:32:05Z</time>
      </trkpt>
      <trkpt lat="47.054684422910213" lon="6.849718848243356">
        <ele>1360.8800000000001</ele>
        <time>2012-03-24T08:32:06Z</time>
      </trkpt>
      <trkpt lat="47.054645614698529" lon="6.84969705529511">
        <ele>1360.4000000000001</ele>
        <time>2012-03-24T08:32:07Z</time>
      </trkpt>
      <trkpt lat="47.054609321057796" lon="6.84967702254653">
        <ele>1360.4000000000001</ele>
        <time>2012-03-24T08:32:08Z</time>
      </trkpt>
      <trkpt lat="47.054571770131588" lon="6.849651541560888">
        <ele>1360.4000000000001</ele>
        <time>2012-03-24T08:32:09Z</time>
      </trkpt>
      <trkpt lat="47.054531956091523" lon="6.849631341174245">
        <ele>1359.9200000000001</ele>
        <time>2012-03-24T08:32:10Z</time>
      </trkpt>
      <trkpt lat="47.05448979511857" lon="6.849611643701792">
        <ele>1360.4000000000001</ele>
        <time>2012-03-24T08:32:11Z</time>
      </trkpt>
      <trkpt lat="47.054446544498205" lon="6.849591191858053">
        <ele>1359.9200000000001</ele>
        <time>2012-03-24T08:32:12Z</time>
      </trkpt>
      <trkpt lat="47.054402707144618" lon="6.849571075290442">
        <ele>1359.4400000000001</ele>
        <time>2012-03-24T08:32:13Z</time>
      </trkpt>
      <trkpt lat="47.054358283057809" lon="6.849542744457722">
        <ele>1359.9200000000001</ele>
        <time>2012-03-24T08:32:14Z</time>
      </trkpt>
      <trkpt lat="47.054316708818078" lon="6.849514497444034">
        <ele>1359.4400000000001</ele>
        <time>2012-03-24T08:32:15Z</time>
      </trkpt>
      <trkpt lat="47.05427479930222" lon="6.849497063085437">
        <ele>1359.4400000000001</ele>
        <time>2012-03-24T08:32:16Z</time>
      </trkpt>
      <trkpt lat="47.054232638329268" lon="6.849477533251047">
        <ele>1358.96</ele>
        <time>2012-03-24T08:32:17Z</time>
      </trkpt>
      <trkpt lat="47.054191147908568" lon="6.849446604028344">
        <ele>1358.48</ele>
        <time>2012-03-24T08:32:18Z</time>
      </trkpt>
      <trkpt lat="47.054107496514916" lon="6.84937016107142">
        <ele>1358.48</ele>
        <time>2012-03-24T08:32:20Z</time>
      </trkpt>
      <trkpt lat="47.054069777950644" lon="6.849317941814661">
        <ele>1358</ele>
        <time>2012-03-24T08:32:21Z</time>
      </trkpt>
      <trkpt lat="47.054032478481531" lon="6.849264381453395">
        <ele>1357.52</ele>
        <time>2012-03-24T08:32:22Z</time>
      </trkpt>
      <trkpt lat="47.053995430469513" lon="6.849210904911161">
        <ele>1357.52</ele>
        <time>2012-03-24T08:32:23Z</time>
      </trkpt>
      <trkpt lat="47.053960058838129" lon="6.849151980131865">
        <ele>1357.04</ele>
        <time>2012-03-24T08:32:24Z</time>
      </trkpt>
      <trkpt lat="47.053928459063172" lon="6.849091127514839">
        <ele>1357.52</ele>
        <time>2012-03-24T08:32:25Z</time>
      </trkpt>
      <trkpt lat="47.053897110745311" lon="6.849029352888465">
        <ele>1357.04</ele>
        <time>2012-03-24T08:32:26Z</time>
      </trkpt>
      <trkpt lat="47.053404590114951" lon="6.848163334652782">
        <ele>1353.6700000000001</ele>
        <time>2012-03-24T08:32:39Z</time>
      </trkpt>
      <trkpt lat="47.052942244336009" lon="6.847410891205072">
        <ele>1349.8299999999999</ele>
        <time>2012-03-24T08:32:49Z</time>
      </trkpt>
      <trkpt lat="47.052379315719008" lon="6.846548225730658">
        <ele>1346.46</ele>
        <time>2012-03-24T08:33:00Z</time>
      </trkpt>
      <trkpt lat="47.052004560828209" lon="6.846135668456554">
        <ele>1344.0599999999999</ele>
        <time>2012-03-24T08:33:06Z</time>
      </trkpt>
      <trkpt lat="47.051616394892335" lon="6.845693523064256">
        <ele>1342.1400000000001</ele>
        <time>2012-03-24T08:33:12Z</time>
      </trkpt>
      <trkpt lat="47.051145918667316" lon="6.845103017985821">
        <ele>1338.77</ele>
        <time>2012-03-24T08:33:19Z</time>
      </trkpt>
      <trkpt lat="47.050868142396212" lon="6.844761120155454">
        <ele>1334.9300000000001</ele>
        <time>2012-03-24T08:33:23Z</time>
      </trkpt>
      <trkpt lat="47.050629677250981" lon="6.844499101862311">
        <ele>1333.49</ele>
        <time>2012-03-24T08:33:26Z</time>
      </trkpt>
      <trkpt lat="47.050538314506412" lon="6.844422910362482">
        <ele>1333.01</ele>
        <time>2012-03-24T08:33:27Z</time>
      </trkpt>
      <trkpt lat="47.050344608724117" lon="6.844285866245627">
        <ele>1330.1199999999999</ele>
        <time>2012-03-24T08:33:29Z</time>
      </trkpt>
      <trkpt lat="47.05024553462863" lon="6.844222079962492">
        <ele>1329.6400000000001</ele>
        <time>2012-03-24T08:33:30Z</time>
      </trkpt>
      <trkpt lat="47.049865331500769" lon="6.843992583453655">
        <ele>1327.72</ele>
        <time>2012-03-24T08:33:34Z</time>
      </trkpt>
      <trkpt lat="47.049187403172255" lon="6.84347290545702">
        <ele>1324.3499999999999</ele>
        <time>2012-03-24T08:33:43Z</time>
      </trkpt>
      <trkpt lat="47.048552809283137" lon="6.842748206108809">
        <ele>1321.95</ele>
        <time>2012-03-24T08:33:55Z</time>
      </trkpt>
      <trkpt lat="47.048026425763965" lon="6.841983860358596">
        <ele>1320.03</ele>
        <time>2012-03-24T08:34:07Z</time>
      </trkpt>
      <trkpt lat="47.047681678086519" lon="6.841415986418724">
        <ele>1319.0699999999999</ele>
        <time>2012-03-24T08:34:17Z</time>
      </trkpt>
      <trkpt lat="47.047567432746291" lon="6.841170229017735">
        <ele>1320.51</ele>
        <time>2012-03-24T08:34:23Z</time>
      </trkpt>
      <trkpt lat="47.047549244016409" lon="6.841129828244448">
        <ele>1320.03</ele>
        <time>2012-03-24T08:34:24Z</time>
      </trkpt>
      <trkpt lat="47.047536503523588" lon="6.841083392500877">
        <ele>1320.03</ele>
        <time>2012-03-24T08:34:25Z</time>
      </trkpt>
      <trkpt lat="47.047521835193038" lon="6.841043829917908">
        <ele>1319.55</ele>
        <time>2012-03-24T08:34:26Z</time>
      </trkpt>
      <trkpt lat="47.047500126063824" lon="6.841009547933936">
        <ele>1319.55</ele>
        <time>2012-03-24T08:34:27Z</time>
      </trkpt>
      <trkpt lat="47.047405410557985" lon="6.840757168829441">
        <ele>1320.51</ele>
        <time>2012-03-24T08:34:33Z</time>
      </trkpt>
      <trkpt lat="47.047393005341291" lon="6.840717857703567">
        <ele>1320.99</ele>
        <time>2012-03-24T08:34:34Z</time>
      </trkpt>
      <trkpt lat="47.047386383637786" lon="6.840671505779028">
        <ele>1320.99</ele>
        <time>2012-03-24T08:34:35Z</time>
      </trkpt>
      <trkpt lat="47.047378420829773" lon="6.840632278472185">
        <ele>1320.51</ele>
        <time>2012-03-24T08:34:36Z</time>
      </trkpt>
      <trkpt lat="47.047371547669172" lon="6.840597577393055">
        <ele>1320.99</ele>
        <time>2012-03-24T08:34:37Z</time>
      </trkpt>
      <trkpt lat="47.04736702144146" lon="6.840557595714927">
        <ele>1321.47</ele>
        <time>2012-03-24T08:34:38Z</time>
      </trkpt>
      <trkpt lat="47.047368111088872" lon="6.840512081980705">
        <ele>1321.47</ele>
        <time>2012-03-24T08:34:39Z</time>
      </trkpt>
      <trkpt lat="47.047366099432111" lon="6.840470507740974">
        <ele>1320.99</ele>
        <time>2012-03-24T08:34:40Z</time>
      </trkpt>
      <trkpt lat="47.047361405566335" lon="6.840431280434132">
        <ele>1321.95</ele>
        <time>2012-03-24T08:34:41Z</time>
      </trkpt>
      <trkpt lat="47.047387976199389" lon="6.840007156133652">
        <ele>1321.95</ele>
        <time>2012-03-24T08:34:50Z</time>
      </trkpt>
      <trkpt lat="47.047396693378687" lon="6.839919565245509">
        <ele>1322.4300000000001</ele>
        <time>2012-03-24T08:34:52Z</time>
      </trkpt>
      <trkpt lat="47.047405829653144" lon="6.839887043461204">
        <ele>1322.4300000000001</ele>
        <time>2012-03-24T08:34:53Z</time>
      </trkpt>
      <trkpt lat="47.047406416386366" lon="6.839858712628484">
        <ele>1322.4300000000001</ele>
        <time>2012-03-24T08:34:54Z</time>
      </trkpt>
      <trkpt lat="47.047407338395715" lon="6.839833986014128">
        <ele>1323.3900000000001</ele>
        <time>2012-03-24T08:34:55Z</time>
      </trkpt>
      <trkpt lat="47.047420665621758" lon="6.839665425941348">
        <ele>1325.3099999999999</ele>
        <time>2012-03-24T08:35:03Z</time>
      </trkpt>
      <trkpt lat="47.047396274283528" lon="6.839480269700289">
        <ele>1326.28</ele>
        <time>2012-03-24T08:35:10Z</time>
      </trkpt>
      <trkpt lat="47.047318071126938" lon="6.839320426806808">
        <ele>1327.72</ele>
        <time>2012-03-24T08:35:17Z</time>
      </trkpt>
      <trkpt lat="47.047265851870179" lon="6.839238367974758">
        <ele>1328.6800000000001</ele>
        <time>2012-03-24T08:35:21Z</time>
      </trkpt>
      <trkpt lat="47.047219416126609" lon="6.839179107919335">
        <ele>1329.1600000000001</ele>
        <time>2012-03-24T08:35:24Z</time>
      </trkpt>
      <trkpt lat="47.047070721164346" lon="6.839004345238209">
        <ele>1331.0799999999999</ele>
        <time>2012-03-24T08:35:33Z</time>
      </trkpt>
      <trkpt lat="47.04695999622345" lon="6.838875599205494">
        <ele>1332.52</ele>
        <time>2012-03-24T08:35:40Z</time>
      </trkpt>
      <trkpt lat="47.046849774196744" lon="6.838743081316352">
        <ele>1333.97</ele>
        <time>2012-03-24T08:35:47Z</time>
      </trkpt>
      <trkpt lat="47.046832172200084" lon="6.838719276711345">
        <ele>1333.97</ele>
        <time>2012-03-24T08:35:48Z</time>
      </trkpt>
      <trkpt lat="47.046717507764697" lon="6.838585752993822">
        <ele>1335.8900000000001</ele>
        <time>2012-03-24T08:35:55Z</time>
      </trkpt>
      <trkpt lat="47.046567555516958" lon="6.838412834331393">
        <ele>1336.8499999999999</ele>
        <time>2012-03-24T08:36:04Z</time>
      </trkpt>
      <trkpt lat="47.046438474208117" lon="6.83828366920352">
        <ele>1338.29</ele>
        <time>2012-03-24T08:36:11Z</time>
      </trkpt>
      <trkpt lat="47.046416094526649" lon="6.838262295350432">
        <ele>1338.29</ele>
        <time>2012-03-24T08:36:12Z</time>
      </trkpt>
      <trkpt lat="47.046260107308626" lon="6.838092897087336">
        <ele>1339.25</ele>
        <time>2012-03-24T08:36:20Z</time>
      </trkpt>
      <trkpt lat="47.04604678787291" lon="6.837894497439265">
        <ele>1340.7</ele>
        <time>2012-03-24T08:36:30Z</time>
      </trkpt>
      <trkpt lat="47.045859703794122" lon="6.837715208530426">
        <ele>1341.1800000000001</ele>
        <time>2012-03-24T08:36:38Z</time>
      </trkpt>
      <trkpt lat="47.045662477612495" lon="6.837512031197548">
        <ele>1341.1800000000001</ele>
        <time>2012-03-24T08:36:46Z</time>
      </trkpt>
      <trkpt lat="47.045509843155742" lon="6.83733718469739">
        <ele>1343.5799999999999</ele>
        <time>2012-03-24T08:36:54Z</time>
      </trkpt>
      <trkpt lat="47.045436669141054" lon="6.837257388979197">
        <ele>1344.0599999999999</ele>
        <time>2012-03-24T08:36:58Z</time>
      </trkpt>
      <trkpt lat="47.045364836230874" lon="6.837191926315427">
        <ele>1345.5</ele>
        <time>2012-03-24T08:37:01Z</time>
      </trkpt>
      <trkpt lat="47.045197952538729" lon="6.837046835571528">
        <ele>1347.4300000000001</ele>
        <time>2012-03-24T08:37:09Z</time>
      </trkpt>
      <trkpt lat="47.045078091323376" lon="6.836969135329127">
        <ele>1347.9100000000001</ele>
        <time>2012-03-24T08:37:15Z</time>
      </trkpt>
      <trkpt lat="47.044890755787492" lon="6.836828151717782">
        <ele>1350.3099999999999</ele>
        <time>2012-03-24T08:37:24Z</time>
      </trkpt>
      <trkpt lat="47.044767122715712" lon="6.836776100099087">
        <ele>1350.3099999999999</ele>
        <time>2012-03-24T08:37:29Z</time>
      </trkpt>
      <trkpt lat="47.044621277600527" lon="6.836729245260358">
        <ele>1350.3099999999999</ele>
        <time>2012-03-24T08:37:34Z</time>
      </trkpt>
      <trkpt lat="47.044446431100368" lon="6.836728742346168">
        <ele>1350.3099999999999</ele>
        <time>2012-03-24T08:37:39Z</time>
      </trkpt>
      <trkpt lat="47.04440644942224" lon="6.836722372099757">
        <ele>1350.3099999999999</ele>
        <time>2012-03-24T08:37:40Z</time>
      </trkpt>
      <trkpt lat="47.044367976486683" lon="6.83672103099525">
        <ele>1350.3099999999999</ele>
        <time>2012-03-24T08:37:41Z</time>
      </trkpt>
      <trkpt lat="47.044330090284348" lon="6.836721198633313">
        <ele>1350.3099999999999</ele>
        <time>2012-03-24T08:37:42Z</time>
      </trkpt>
      <trkpt lat="47.044291030615568" lon="6.836710637435317">
        <ele>1350.3099999999999</ele>
        <time>2012-03-24T08:37:43Z</time>
      </trkpt>
      <trkpt lat="47.044254569336772" lon="6.83670493774116">
        <ele>1350.3099999999999</ele>
        <time>2012-03-24T08:37:44Z</time>
      </trkpt>
      <trkpt lat="47.044218694791198" lon="6.836709380149841">
        <ele>1350.3099999999999</ele>
        <time>2012-03-24T08:37:45Z</time>
      </trkpt>
      <trkpt lat="47.044182233512402" lon="6.836704518646002">
        <ele>1350.79</ele>
        <time>2012-03-24T08:37:46Z</time>
      </trkpt>
      <trkpt lat="47.044148538261652" lon="6.836697477847338">
        <ele>1350.79</ele>
        <time>2012-03-24T08:37:47Z</time>
      </trkpt>
      <trkpt lat="47.044118279591203" lon="6.836698483675718">
        <ele>1350.3099999999999</ele>
        <time>2012-03-24T08:37:48Z</time>
      </trkpt>
      <trkpt lat="47.044088859111071" lon="6.836694628000259">
        <ele>1351.27</ele>
        <time>2012-03-24T08:37:49Z</time>
      </trkpt>
      <trkpt lat="47.044058935716748" lon="6.836681133136153">
        <ele>1351.27</ele>
        <time>2012-03-24T08:37:50Z</time>
      </trkpt>
      <trkpt lat="47.044032029807568" lon="6.836675433441997">
        <ele>1351.27</ele>
        <time>2012-03-24T08:37:51Z</time>
      </trkpt>
      <trkpt lat="47.044003531336784" lon="6.836675684899092">
        <ele>1351.27</ele>
        <time>2012-03-24T08:37:52Z</time>
      </trkpt>
      <trkpt lat="47.043973440304399" lon="6.836660094559193">
        <ele>1351.75</ele>
        <time>2012-03-24T08:37:53Z</time>
      </trkpt>
      <trkpt lat="47.043946115300059" lon="6.836646851152182">
        <ele>1352.23</ele>
        <time>2012-03-24T08:37:54Z</time>
      </trkpt>
      <trkpt lat="47.043919125571847" lon="6.836644671857357">
        <ele>1351.75</ele>
        <time>2012-03-24T08:37:55Z</time>
      </trkpt>
      <trkpt lat="47.043892806395888" lon="6.836633607745171">
        <ele>1352.23</ele>
        <time>2012-03-24T08:37:56Z</time>
      </trkpt>
      <trkpt lat="47.043868917971849" lon="6.836617849767208">
        <ele>1352.71</ele>
        <time>2012-03-24T08:37:57Z</time>
      </trkpt>
      <trkpt lat="47.043845113366842" lon="6.836612820625305">
        <ele>1353.1900000000001</ele>
        <time>2012-03-24T08:37:58Z</time>
      </trkpt>
      <trkpt lat="47.04382055439055" lon="6.836609048768878">
        <ele>1352.71</ele>
        <time>2012-03-24T08:37:59Z</time>
      </trkpt>
      <trkpt lat="47.043798509985209" lon="6.836591698229313">
        <ele>1353.1900000000001</ele>
        <time>2012-03-24T08:38:00Z</time>
      </trkpt>
      <trkpt lat="47.043776884675026" lon="6.836579712107778">
        <ele>1353.1900000000001</ele>
        <time>2012-03-24T08:38:01Z</time>
      </trkpt>
      <trkpt lat="47.043753750622272" lon="6.836580885574222">
        <ele>1353.6700000000001</ele>
        <time>2012-03-24T08:38:02Z</time>
      </trkpt>
      <trkpt lat="47.043727347627282" lon="6.836568815633655">
        <ele>1353.6700000000001</ele>
        <time>2012-03-24T08:38:03Z</time>
      </trkpt>
      <trkpt lat="47.043702369555831" lon="6.836551129817963">
        <ele>1354.1500000000001</ele>
        <time>2012-03-24T08:38:04Z</time>
      </trkpt>
      <trkpt lat="47.043678062036633" lon="6.836544927209616">
        <ele>1353.6700000000001</ele>
        <time>2012-03-24T08:38:05Z</time>
      </trkpt>
      <trkpt lat="47.043655682355165" lon="6.836540400981903">
        <ele>1354.6300000000001</ele>
        <time>2012-03-24T08:38:06Z</time>
      </trkpt>
      <trkpt lat="47.043634308502078" lon="6.836525732651353">
        <ele>1354.6300000000001</ele>
        <time>2012-03-24T08:38:07Z</time>
      </trkpt>
      <trkpt lat="47.043612347915769" lon="6.836512824520469">
        <ele>1354.1500000000001</ele>
        <time>2012-03-24T08:38:08Z</time>
      </trkpt>
      <trkpt lat="47.043587453663349" lon="6.836510309949517">
        <ele>1354.6300000000001</ele>
        <time>2012-03-24T08:38:09Z</time>
      </trkpt>
      <trkpt lat="47.043564151972532" lon="6.836500838398933">
        <ele>1355.1199999999999</ele>
        <time>2012-03-24T08:38:10Z</time>
      </trkpt>
      <trkpt lat="47.043523332104087" lon="6.836477369070053">
        <ele>1355.1199999999999</ele>
        <time>2012-03-24T08:38:12Z</time>
      </trkpt>
      <trkpt lat="47.043502544984221" lon="6.83647233992815">
        <ele>1355.5999999999999</ele>
        <time>2012-03-24T08:38:13Z</time>
      </trkpt>
      <trkpt lat="47.043481171131134" lon="6.836452893912792">
        <ele>1356.0799999999999</ele>
        <time>2012-03-24T08:38:14Z</time>
      </trkpt>
      <trkpt lat="47.043462144210935" lon="6.836440656334162">
        <ele>1356.0799999999999</ele>
        <time>2012-03-24T08:38:15Z</time>
      </trkpt>
      <trkpt lat="47.043442446738482" lon="6.836440237239003">
        <ele>1356.0799999999999</ele>
        <time>2012-03-24T08:38:16Z</time>
      </trkpt>
      <trkpt lat="47.04342233017087" lon="6.836429759860039">
        <ele>1356.5599999999999</ele>
        <time>2012-03-24T08:38:17Z</time>
      </trkpt>
      <trkpt lat="47.043403387069702" lon="6.836413498967886">
        <ele>1356.5599999999999</ele>
        <time>2012-03-24T08:38:18Z</time>
      </trkpt>
      <trkpt lat="47.04338469542563" lon="6.836410146206617">
        <ele>1357.04</ele>
        <time>2012-03-24T08:38:19Z</time>
      </trkpt>
      <trkpt lat="47.043364746496081" lon="6.836407212540507">
        <ele>1357.04</ele>
        <time>2012-03-24T08:38:20Z</time>
      </trkpt>
      <trkpt lat="47.043346557766199" lon="6.836389778181911">
        <ele>1357.04</ele>
        <time>2012-03-24T08:38:21Z</time>
      </trkpt>
      <trkpt lat="47.043329626321793" lon="6.836372511461377">
        <ele>1357.52</ele>
        <time>2012-03-24T08:38:22Z</time>
      </trkpt>
      <trkpt lat="47.043312778696418" lon="6.836368488147855">
        <ele>1358</ele>
        <time>2012-03-24T08:38:23Z</time>
      </trkpt>
      <trkpt lat="47.043294170871377" lon="6.836363123729825">
        <ele>1358</ele>
        <time>2012-03-24T08:38:24Z</time>
      </trkpt>
      <trkpt lat="47.043275898322463" lon="6.836343677714467">
        <ele>1358.48</ele>
        <time>2012-03-24T08:38:25Z</time>
      </trkpt>
      <trkpt lat="47.043258547782898" lon="6.836327668279409">
        <ele>1358.48</ele>
        <time>2012-03-24T08:38:26Z</time>
      </trkpt>
      <trkpt lat="47.043238012120128" lon="6.83631987310946">
        <ele>1359.4400000000001</ele>
        <time>2012-03-24T08:38:27Z</time>
      </trkpt>
      <trkpt lat="47.043217057362199" lon="6.836303863674402">
        <ele>1358.96</ele>
        <time>2012-03-24T08:38:28Z</time>
      </trkpt>
      <trkpt lat="47.043199706822634" lon="6.836278047412634">
        <ele>1359.4400000000001</ele>
        <time>2012-03-24T08:38:29Z</time>
      </trkpt>
      <trkpt lat="47.043182021006942" lon="6.836259020492435">
        <ele>1359.4400000000001</ele>
        <time>2012-03-24T08:38:30Z</time>
      </trkpt>
      <trkpt lat="47.043161820620298" lon="6.836246196180582">
        <ele>1359.9200000000001</ele>
        <time>2012-03-24T08:38:31Z</time>
      </trkpt>
      <trkpt lat="47.043143464252353" lon="6.836224654689431">
        <ele>1359.9200000000001</ele>
        <time>2012-03-24T08:38:32Z</time>
      </trkpt>
      <trkpt lat="47.043129801750183" lon="6.836197329685092">
        <ele>1359.9200000000001</ele>
        <time>2012-03-24T08:38:33Z</time>
      </trkpt>
      <trkpt lat="47.043114714324474" lon="6.836179308593273">
        <ele>1359.9200000000001</ele>
        <time>2012-03-24T08:38:34Z</time>
      </trkpt>
      <trkpt lat="47.043099040165544" lon="6.836160784587264">
        <ele>1360.4000000000001</ele>
        <time>2012-03-24T08:38:35Z</time>
      </trkpt>
      <trkpt lat="47.04308713786304" lon="6.836131028831005">
        <ele>1359.9200000000001</ele>
        <time>2012-03-24T08:38:36Z</time>
      </trkpt>
      <trkpt lat="47.043074816465378" lon="6.836104542016983">
        <ele>1360.4000000000001</ele>
        <time>2012-03-24T08:38:37Z</time>
      </trkpt>
      <trkpt lat="47.043058555573225" lon="6.836082497611642">
        <ele>1360.8800000000001</ele>
        <time>2012-03-24T08:38:38Z</time>
      </trkpt>
      <trkpt lat="47.043045060709119" lon="6.836054334416986">
        <ele>1360.8800000000001</ele>
        <time>2012-03-24T08:38:39Z</time>
      </trkpt>
      <trkpt lat="47.043034080415964" lon="6.83602524921298">
        <ele>1360.8800000000001</ele>
        <time>2012-03-24T08:38:40Z</time>
      </trkpt>
      <trkpt lat="47.043017819523811" lon="6.836003875359893">
        <ele>1360.4000000000001</ele>
        <time>2012-03-24T08:38:41Z</time>
      </trkpt>
      <trkpt lat="47.043002815917134" lon="6.835978645831347">
        <ele>1361.3599999999999</ele>
        <time>2012-03-24T08:38:42Z</time>
      </trkpt>
      <trkpt lat="47.042992757633328" lon="6.835946040228009">
        <ele>1361.8399999999999</ele>
        <time>2012-03-24T08:38:43Z</time>
      </trkpt>
      <trkpt lat="47.042980436235666" lon="6.835919972509146">
        <ele>1361.8399999999999</ele>
        <time>2012-03-24T08:38:44Z</time>
      </trkpt>
      <trkpt lat="47.042963420972228" lon="6.835895413532853">
        <ele>1361.8399999999999</ele>
        <time>2012-03-24T08:38:45Z</time>
      </trkpt>
      <trkpt lat="47.042953865602612" lon="6.835860377177596">
        <ele>1361.8399999999999</ele>
        <time>2012-03-24T08:38:46Z</time>
      </trkpt>
      <trkpt lat="47.042946992442012" lon="6.835828525945544">
        <ele>1362.3299999999999</ele>
        <time>2012-03-24T08:38:47Z</time>
      </trkpt>
      <trkpt lat="47.042931402102113" lon="6.835801117122173">
        <ele>1362.3299999999999</ele>
        <time>2012-03-24T08:38:48Z</time>
      </trkpt>
      <trkpt lat="47.042918745428324" lon="6.835767170414329">
        <ele>1362.3299999999999</ele>
        <time>2012-03-24T08:38:49Z</time>
      </trkpt>
      <trkpt lat="47.042908854782581" lon="6.835732469335198">
        <ele>1362.3299999999999</ele>
        <time>2012-03-24T08:38:50Z</time>
      </trkpt>
      <trkpt lat="47.042894689366221" lon="6.835702378302813">
        <ele>1362.8099999999999</ele>
        <time>2012-03-24T08:38:51Z</time>
      </trkpt>
      <trkpt lat="47.042883960530162" lon="6.835666336119175">
        <ele>1363.29</ele>
        <time>2012-03-24T08:38:52Z</time>
      </trkpt>
      <trkpt lat="47.042875746265054" lon="6.835627947002649">
        <ele>1362.8099999999999</ele>
        <time>2012-03-24T08:38:53Z</time>
      </trkpt>
      <trkpt lat="47.042861748486757" lon="6.835596431046724">
        <ele>1362.8099999999999</ele>
        <time>2012-03-24T08:38:54Z</time>
      </trkpt>
      <trkpt lat="47.04284867271781" lon="6.83556298725307">
        <ele>1362.8099999999999</ele>
        <time>2012-03-24T08:38:55Z</time>
      </trkpt>
      <trkpt lat="47.042841799557209" lon="6.835523089393973">
        <ele>1362.8099999999999</ele>
        <time>2012-03-24T08:38:56Z</time>
      </trkpt>
      <trkpt lat="47.042830903083086" lon="6.83548922650516">
        <ele>1363.29</ele>
        <time>2012-03-24T08:38:57Z</time>
      </trkpt>
      <trkpt lat="47.042816318571568" lon="6.835456537082791">
        <ele>1363.29</ele>
        <time>2012-03-24T08:38:58Z</time>
      </trkpt>
      <trkpt lat="47.042805422097445" lon="6.835415717214346">
        <ele>1363.29</ele>
        <time>2012-03-24T08:38:59Z</time>
      </trkpt>
      <trkpt lat="47.042793603613973" lon="6.835379088297486">
        <ele>1362.8099999999999</ele>
        <time>2012-03-24T08:39:00Z</time>
      </trkpt>
      <trkpt lat="47.042779605835676" lon="6.835342459380627">
        <ele>1364.25</ele>
        <time>2012-03-24T08:39:01Z</time>
      </trkpt>
      <trkpt lat="47.042771307751536" lon="6.835300717502832">
        <ele>1363.77</ele>
        <time>2012-03-24T08:39:02Z</time>
      </trkpt>
      <trkpt lat="47.042763596400619" lon="6.835267189890146">
        <ele>1363.77</ele>
        <time>2012-03-24T08:39:03Z</time>
      </trkpt>
      <trkpt lat="47.04274951480329" lon="6.835238775238395">
        <ele>1363.77</ele>
        <time>2012-03-24T08:39:04Z</time>
      </trkpt>
      <trkpt lat="47.042741049081087" lon="6.835203319787979">
        <ele>1363.77</ele>
        <time>2012-03-24T08:39:05Z</time>
      </trkpt>
      <trkpt lat="47.042732248082757" lon="6.8351676966995">
        <ele>1364.25</ele>
        <time>2012-03-24T08:39:06Z</time>
      </trkpt>
      <trkpt lat="47.042717076838017" lon="6.835137270390987">
        <ele>1364.25</ele>
        <time>2012-03-24T08:39:07Z</time>
      </trkpt>
      <trkpt lat="47.042705342173576" lon="6.835101144388318">
        <ele>1364.25</ele>
        <time>2012-03-24T08:39:08Z</time>
      </trkpt>
      <trkpt lat="47.042696960270405" lon="6.835064264014363">
        <ele>1364.73</ele>
        <time>2012-03-24T08:39:09Z</time>
      </trkpt>
      <trkpt lat="47.042683884501457" lon="6.83503283187747">
        <ele>1364.73</ele>
        <time>2012-03-24T08:39:10Z</time>
      </trkpt>
      <trkpt lat="47.042673910036683" lon="6.83499863371253">
        <ele>1364.73</ele>
        <time>2012-03-24T08:39:11Z</time>
      </trkpt>
      <trkpt lat="47.042669216170907" lon="6.834959741681814">
        <ele>1365.21</ele>
        <time>2012-03-24T08:39:12Z</time>
      </trkpt>
      <trkpt lat="47.042657732963562" lon="6.834927722811699">
        <ele>1364.73</ele>
        <time>2012-03-24T08:39:13Z</time>
      </trkpt>
      <trkpt lat="47.042648680508137" lon="6.834895201027393">
        <ele>1365.6900000000001</ele>
        <time>2012-03-24T08:39:14Z</time>
      </trkpt>
      <trkpt lat="47.042645663022995" lon="6.834857650101185">
        <ele>1365.21</ele>
        <time>2012-03-24T08:39:15Z</time>
      </trkpt>
      <trkpt lat="47.042638119310141" lon="6.834826804697514">
        <ele>1365.21</ele>
        <time>2012-03-24T08:39:16Z</time>
      </trkpt>
      <trkpt lat="47.042629066854715" lon="6.834794702008367">
        <ele>1365.6900000000001</ele>
        <time>2012-03-24T08:39:17Z</time>
      </trkpt>
      <trkpt lat="47.042626133188605" lon="6.834756145253778">
        <ele>1366.1700000000001</ele>
        <time>2012-03-24T08:39:18Z</time>
      </trkpt>
      <trkpt lat="47.042621020227671" lon="6.834722785279155">
        <ele>1365.6900000000001</ele>
        <time>2012-03-24T08:39:19Z</time>
      </trkpt>
      <trkpt lat="47.042608112096786" lon="6.834695292636752">
        <ele>1365.6900000000001</ele>
        <time>2012-03-24T08:39:20Z</time>
      </trkpt>
      <trkpt lat="47.042599394917488" lon="6.834658579900861">
        <ele>1366.1700000000001</ele>
        <time>2012-03-24T08:39:21Z</time>
      </trkpt>
      <trkpt lat="47.042593359947205" lon="6.834621531888843">
        <ele>1366.1700000000001</ele>
        <time>2012-03-24T08:39:22Z</time>
      </trkpt>
      <trkpt lat="47.042580284178257" lon="6.834590854123235">
        <ele>1366.6500000000001</ele>
        <time>2012-03-24T08:39:23Z</time>
      </trkpt>
      <trkpt lat="47.042567376047373" lon="6.834558416157961">
        <ele>1366.6500000000001</ele>
        <time>2012-03-24T08:39:24Z</time>
      </trkpt>
      <trkpt lat="47.042562514543533" lon="6.83451927267015">
        <ele>1366.6500000000001</ele>
        <time>2012-03-24T08:39:25Z</time>
      </trkpt>
      <trkpt lat="47.042551534250379" lon="6.834490187466145">
        <ele>1367.1300000000001</ele>
        <time>2012-03-24T08:39:26Z</time>
      </trkpt>
      <trkpt lat="47.042531752958894" lon="6.834470741450787">
        <ele>1367.6099999999999</ele>
        <time>2012-03-24T08:39:27Z</time>
      </trkpt>
      <trkpt lat="47.04251155257225" lon="6.834449032321572">
        <ele>1367.6099999999999</ele>
        <time>2012-03-24T08:39:28Z</time>
      </trkpt>
      <trkpt lat="47.042494872584939" lon="6.834423635154963">
        <ele>1368.0899999999999</ele>
        <time>2012-03-24T08:39:29Z</time>
      </trkpt>
      <trkpt lat="47.04247978515923" lon="6.834415504708886">
        <ele>1368.0899999999999</ele>
        <time>2012-03-24T08:39:30Z</time>
      </trkpt>
      <trkpt lat="47.042460003867745" lon="6.834415169432759">
        <ele>1368.0899999999999</ele>
        <time>2012-03-24T08:39:31Z</time>
      </trkpt>
      <trkpt lat="47.042441144585609" lon="6.834404356777668">
        <ele>1368.5699999999999</ele>
        <time>2012-03-24T08:39:32Z</time>
      </trkpt>
      <trkpt lat="47.042424967512488" lon="6.834388598799706">
        <ele>1369.05</ele>
        <time>2012-03-24T08:39:33Z</time>
      </trkpt>
      <trkpt lat="47.042410215362906" lon="6.834386084228754">
        <ele>1368.5699999999999</ele>
        <time>2012-03-24T08:39:34Z</time>
      </trkpt>
      <trkpt lat="47.042395547032356" lon="6.834397986531258">
        <ele>1369.05</ele>
        <time>2012-03-24T08:39:35Z</time>
      </trkpt>
      <trkpt lat="47.042379369959235" lon="6.834405027329922">
        <ele>1369.54</ele>
        <time>2012-03-24T08:39:36Z</time>
      </trkpt>
      <trkpt lat="47.042362270876765" lon="6.834400836378336">
        <ele>1370.02</ele>
        <time>2012-03-24T08:39:37Z</time>
      </trkpt>
      <trkpt lat="47.042346261441708" lon="6.834393460303545">
        <ele>1370.5</ele>
        <time>2012-03-24T08:39:38Z</time>
      </trkpt>
      <trkpt lat="47.042331844568253" lon="6.834397315979004">
        <ele>1370.5</ele>
        <time>2012-03-24T08:39:39Z</time>
      </trkpt>
      <trkpt lat="47.042318098247051" lon="6.834411397576332">
        <ele>1370.98</ele>
        <time>2012-03-24T08:39:40Z</time>
      </trkpt>
      <trkpt lat="47.042301334440708" lon="6.834419528022409">
        <ele>1370.98</ele>
        <time>2012-03-24T08:39:41Z</time>
      </trkpt>
      <trkpt lat="47.042281636968255" lon="6.834417181089521">
        <ele>1371.46</ele>
        <time>2012-03-24T08:39:42Z</time>
      </trkpt>
      <trkpt lat="47.042263532057405" lon="6.834415085613728">
        <ele>1371.46</ele>
        <time>2012-03-24T08:39:43Z</time>
      </trkpt>
      <trkpt lat="47.042250791564584" lon="6.834423383697867">
        <ele>1371.9400000000001</ele>
        <time>2012-03-24T08:39:44Z</time>
      </trkpt>
      <trkpt lat="47.042237715795636" lon="6.834432017058134">
        <ele>1371.9400000000001</ele>
        <time>2012-03-24T08:39:45Z</time>
      </trkpt>
      <trkpt lat="47.042218940332532" lon="6.834427155554295">
        <ele>1371.9400000000001</ele>
        <time>2012-03-24T08:39:46Z</time>
      </trkpt>
      <trkpt lat="47.04220125451684" lon="6.834427071735263">
        <ele>1372.9000000000001</ele>
        <time>2012-03-24T08:39:47Z</time>
      </trkpt>
      <trkpt lat="47.042188597843051" lon="6.834441153332591">
        <ele>1372.9000000000001</ele>
        <time>2012-03-24T08:39:48Z</time>
      </trkpt>
      <trkpt lat="47.042172169312835" lon="6.834451798349619">
        <ele>1372.9000000000001</ele>
        <time>2012-03-24T08:39:49Z</time>
      </trkpt>
      <trkpt lat="47.04214945435524" lon="6.834450624883175">
        <ele>1372.9000000000001</ele>
        <time>2012-03-24T08:39:50Z</time>
      </trkpt>
      <trkpt lat="47.042128667235374" lon="6.834451630711556">
        <ele>1373.3800000000001</ele>
        <time>2012-03-24T08:39:51Z</time>
      </trkpt>
      <trkpt lat="47.042113160714507" lon="6.834466382861137">
        <ele>1374.3399999999999</ele>
        <time>2012-03-24T08:39:52Z</time>
      </trkpt>
      <trkpt lat="47.042095307260752" lon="6.834478620439768">
        <ele>1374.3399999999999</ele>
        <time>2012-03-24T08:39:53Z</time>
      </trkpt>
      <trkpt lat="47.042072005569935" lon="6.834475183859468">
        <ele>1374.8199999999999</ele>
        <time>2012-03-24T08:39:54Z</time>
      </trkpt>
      <trkpt lat="47.042049877345562" lon="6.834464706480503">
        <ele>1374.8199999999999</ele>
        <time>2012-03-24T08:39:55Z</time>
      </trkpt>
      <trkpt lat="47.042031856253743" lon="6.834452971816063">
        <ele>1374.8199999999999</ele>
        <time>2012-03-24T08:39:56Z</time>
      </trkpt>
      <trkpt lat="47.042021630331874" lon="6.834423048421741">
        <ele>1374.3399999999999</ele>
        <time>2012-03-24T08:39:57Z</time>
      </trkpt>
      <trkpt lat="47.042019534856081" lon="6.834378791972995">
        <ele>1374.8199999999999</ele>
        <time>2012-03-24T08:39:58Z</time>
      </trkpt>
      <trkpt lat="47.042001094669104" lon="6.83423881419003">
        <ele>1374.8199999999999</ele>
        <time>2012-03-24T08:40:01Z</time>
      </trkpt>
      <trkpt lat="47.04198625870049" lon="6.834161281585693">
        <ele>1374.8199999999999</ele>
        <time>2012-03-24T08:40:03Z</time>
      </trkpt>
      <trkpt lat="47.041957508772612" lon="6.833917871117592">
        <ele>1377.23</ele>
        <time>2012-03-24T08:40:10Z</time>
      </trkpt>
      <trkpt lat="47.041929010301828" lon="6.833648644387722">
        <ele>1378.1900000000001</ele>
        <time>2012-03-24T08:40:18Z</time>
      </trkpt>
      <trkpt lat="47.041925322264433" lon="6.833614530041814">
        <ele>1378.1900000000001</ele>
        <time>2012-03-24T08:40:19Z</time>
      </trkpt>
      <trkpt lat="47.041873186826706" lon="6.833303142338991">
        <ele>1380.1099999999999</ele>
        <time>2012-03-24T08:40:29Z</time>
      </trkpt>
      <trkpt lat="47.04179766587913" lon="6.833101054653525">
        <ele>1381.0699999999999</ele>
        <time>2012-03-24T08:40:36Z</time>
      </trkpt>
      <trkpt lat="47.041765227913857" lon="6.833051266148686">
        <ele>1380.5899999999999</ele>
        <time>2012-03-24T08:40:38Z</time>
      </trkpt>
      <trkpt lat="47.04160513356328" lon="6.832884717732668">
        <ele>1382.99</ele>
        <time>2012-03-24T08:40:49Z</time>
      </trkpt>
      <trkpt lat="47.041521733626723" lon="6.832818584516645">
        <ele>1382.51</ele>
        <time>2012-03-24T08:40:56Z</time>
      </trkpt>
      <trkpt lat="47.041509496048093" lon="6.832824954763055">
        <ele>1381.55</ele>
        <time>2012-03-24T08:41:06Z</time>
      </trkpt>
      <trkpt lat="47.041508406400681" lon="6.832826295867562">
        <ele>1380.5899999999999</ele>
        <time>2012-03-24T08:41:20Z</time>
      </trkpt>
      <trkpt lat="47.04150790348649" lon="6.832826547324657">
        <ele>1383.47</ele>
        <time>2012-03-24T08:41:43Z</time>
      </trkpt>
      <trkpt lat="47.041508071124554" lon="6.832826295867562">
        <ele>1382.99</ele>
        <time>2012-03-24T08:41:44Z</time>
      </trkpt>
      <trkpt lat="47.041506394743919" lon="6.832823781296611">
        <ele>1377.71</ele>
        <time>2012-03-24T08:41:46Z</time>
      </trkpt>
      <trkpt lat="47.041508071124554" lon="6.832826295867562">
        <ele>1382.03</ele>
        <time>2012-03-24T08:41:47Z</time>
      </trkpt>
      <trkpt lat="47.041507652029395" lon="6.832821266725659">
        <ele>1381.55</ele>
        <time>2012-03-24T08:41:56Z</time>
      </trkpt>
      <trkpt lat="47.041510920971632" lon="6.832817159593105">
        <ele>1382.03</ele>
        <time>2012-03-24T08:42:10Z</time>
      </trkpt>
      <trkpt lat="47.041514860466123" lon="6.832817075774074">
        <ele>1381.0699999999999</ele>
        <time>2012-03-24T08:42:22Z</time>
      </trkpt>
      <trkpt lat="47.041528522968292" lon="6.832835348322988">
        <ele>1382.03</ele>
        <time>2012-03-24T08:42:25Z</time>
      </trkpt>
      <trkpt lat="47.041663052514195" lon="6.832959400489926">
        <ele>1382.03</ele>
        <time>2012-03-24T08:42:32Z</time>
      </trkpt>
      <trkpt lat="47.041891543194652" lon="6.833424344658852">
        <ele>1381.0699999999999</ele>
        <time>2012-03-24T08:42:45Z</time>
      </trkpt>
      <trkpt lat="47.041960945352912" lon="6.833958020433784">
        <ele>1377.71</ele>
        <time>2012-03-24T08:42:53Z</time>
      </trkpt>
      <trkpt lat="47.042019451037049" lon="6.834457414224744">
        <ele>1375.78</ele>
        <time>2012-03-24T08:43:00Z</time>
      </trkpt>
      <trkpt lat="47.042028838768601" lon="6.834518518298864">
        <ele>1375.78</ele>
        <time>2012-03-24T08:43:01Z</time>
      </trkpt>
      <trkpt lat="47.042038729414344" lon="6.834577359259129">
        <ele>1375.3</ele>
        <time>2012-03-24T08:43:02Z</time>
      </trkpt>
      <trkpt lat="47.042059851810336" lon="6.834690850228071">
        <ele>1375.78</ele>
        <time>2012-03-24T08:43:04Z</time>
      </trkpt>
      <trkpt lat="47.042072340846062" lon="6.834747260436416">
        <ele>1375.78</ele>
        <time>2012-03-24T08:43:05Z</time>
      </trkpt>
      <trkpt lat="47.042105700820684" lon="6.834857314825058">
        <ele>1375.78</ele>
        <time>2012-03-24T08:43:07Z</time>
      </trkpt>
      <trkpt lat="47.04212162643671" lon="6.834913892671466">
        <ele>1375.78</ele>
        <time>2012-03-24T08:43:08Z</time>
      </trkpt>
      <trkpt lat="47.042152723297477" lon="6.835032664239407">
        <ele>1374.8199999999999</ele>
        <time>2012-03-24T08:43:10Z</time>
      </trkpt>
      <trkpt lat="47.042343327775598" lon="6.835662815719843">
        <ele>1371.46</ele>
        <time>2012-03-24T08:43:19Z</time>
      </trkpt>
      <trkpt lat="47.042373334988952" lon="6.835741689428687">
        <ele>1371.9400000000001</ele>
        <time>2012-03-24T08:43:20Z</time>
      </trkpt>
      <trkpt lat="47.04240552149713" lon="6.835824921727181">
        <ele>1371.46</ele>
        <time>2012-03-24T08:43:21Z</time>
      </trkpt>
      <trkpt lat="47.042676005512476" lon="6.83631450869143">
        <ele>1369.05</ele>
        <time>2012-03-24T08:43:27Z</time>
      </trkpt>
      <trkpt lat="47.042784215882421" lon="6.836471501737833">
        <ele>1368.0899999999999</ele>
        <time>2012-03-24T08:43:29Z</time>
      </trkpt>
      <trkpt lat="47.043018825352192" lon="6.836751038208604">
        <ele>1365.21</ele>
        <time>2012-03-24T08:43:33Z</time>
      </trkpt>
      <trkpt lat="47.043156791478395" lon="6.836874419823289">
        <ele>1364.25</ele>
        <time>2012-03-24T08:43:35Z</time>
      </trkpt>
      <trkpt lat="47.043560799211264" lon="6.837177174165845">
        <ele>1360.8800000000001</ele>
        <time>2012-03-24T08:43:40Z</time>
      </trkpt>
      <trkpt lat="47.043910576030612" lon="6.837332407012582">
        <ele>1358</ele>
        <time>2012-03-24T08:43:44Z</time>
      </trkpt>
      <trkpt lat="47.044190783053637" lon="6.837367862462997">
        <ele>1354.6300000000001</ele>
        <time>2012-03-24T08:43:47Z</time>
      </trkpt>
      <trkpt lat="47.044579619541764" lon="6.837303908541799">
        <ele>1351.75</ele>
        <time>2012-03-24T08:43:51Z</time>
      </trkpt>
      <trkpt lat="47.044847505167127" lon="6.837206594645977">
        <ele>1349.8299999999999</ele>
        <time>2012-03-24T08:43:54Z</time>
      </trkpt>
      <trkpt lat="47.045002235099673" lon="6.837181784212589">
        <ele>1349.8299999999999</ele>
        <time>2012-03-24T08:43:56Z</time>
      </trkpt>
      <trkpt lat="47.045065183192492" lon="6.837187316268683">
        <ele>1349.3499999999999</ele>
        <time>2012-03-24T08:43:57Z</time>
      </trkpt>
      <trkpt lat="47.045124946162105" lon="6.837201062589884">
        <ele>1349.3499999999999</ele>
        <time>2012-03-24T08:43:58Z</time>
      </trkpt>
      <trkpt lat="47.045185379683971" lon="6.837223693728447">
        <ele>1348.3900000000001</ele>
        <time>2012-03-24T08:43:59Z</time>
      </trkpt>
      <trkpt lat="47.045249920338392" lon="6.83725998736918">
        <ele>1348.3900000000001</ele>
        <time>2012-03-24T08:44:00Z</time>
      </trkpt>
      <trkpt lat="47.045316640287638" lon="6.837304159998894">
        <ele>1347.4300000000001</ele>
        <time>2012-03-24T08:44:01Z</time>
      </trkpt>
      <trkpt lat="47.045383276417851" lon="6.83735822327435">
        <ele>1346.9400000000001</ele>
        <time>2012-03-24T08:44:02Z</time>
      </trkpt>
      <trkpt lat="47.045448068529367" lon="6.837416812777519">
        <ele>1345.98</ele>
        <time>2012-03-24T08:44:03Z</time>
      </trkpt>
      <trkpt lat="47.045577904209495" lon="6.837548827752471">
        <ele>1345.02</ele>
        <time>2012-03-24T08:44:05Z</time>
      </trkpt>
      <trkpt lat="47.046051984652877" lon="6.838028440251946">
        <ele>1341.1800000000001</ele>
        <time>2012-03-24T08:44:13Z</time>
      </trkpt>
      <trkpt lat="47.04658574424684" lon="6.83857929892838">
        <ele>1338.29</ele>
        <time>2012-03-24T08:44:23Z</time>
      </trkpt>
      <trkpt lat="47.04675329849124" lon="6.838797982782126">
        <ele>1336.3699999999999</ele>
        <time>2012-03-24T08:44:26Z</time>
      </trkpt>
      <trkpt lat="47.046803422272205" lon="6.838884400203824">
        <ele>1335.8900000000001</ele>
        <time>2012-03-24T08:44:27Z</time>
      </trkpt>
      <trkpt lat="47.04700643196702" lon="6.839429391548038">
        <ele>1332.04</ele>
        <time>2012-03-24T08:44:32Z</time>
      </trkpt>
      <trkpt lat="47.04716719686985" lon="6.839945046231151">
        <ele>1329.1600000000001</ele>
        <time>2012-03-24T08:44:36Z</time>
      </trkpt>
      <trkpt lat="47.047320920974016" lon="6.840459946542978">
        <ele>1325.8</ele>
        <time>2012-03-24T08:44:40Z</time>
      </trkpt>
      <trkpt lat="47.047470537945628" lon="6.840959927067161">
        <ele>1322.4300000000001</ele>
        <time>2012-03-24T08:44:44Z</time>
      </trkpt>
      <trkpt lat="47.047774214297533" lon="6.841628300026059">
        <ele>1319.0699999999999</ele>
        <time>2012-03-24T08:44:51Z</time>
      </trkpt>
      <trkpt lat="47.047895835712552" lon="6.841819994151592">
        <ele>1318.5899999999999</ele>
        <time>2012-03-24T08:44:54Z</time>
      </trkpt>
      <trkpt lat="47.047974960878491" lon="6.841930048540235">
        <ele>1318.5899999999999</ele>
        <time>2012-03-24T08:44:56Z</time>
      </trkpt>
      <trkpt lat="47.048162631690502" lon="6.84223473072052">
        <ele>1319.0699999999999</ele>
        <time>2012-03-24T08:45:03Z</time>
      </trkpt>
      <trkpt lat="47.048190208151937" lon="6.842268258333206">
        <ele>1318.5899999999999</ele>
        <time>2012-03-24T08:45:04Z</time>
      </trkpt>
      <trkpt lat="47.0482162758708" lon="6.842304468154907">
        <ele>1320.03</ele>
        <time>2012-03-24T08:45:05Z</time>
      </trkpt>
      <trkpt lat="47.048241421580315" lon="6.84234319254756">
        <ele>1319.0699999999999</ele>
        <time>2012-03-24T08:45:06Z</time>
      </trkpt>
      <trkpt lat="47.048270087689161" lon="6.842375714331865">
        <ele>1319.0699999999999</ele>
        <time>2012-03-24T08:45:07Z</time>
      </trkpt>
      <trkpt lat="47.048298083245754" lon="6.842411421239376">
        <ele>1319.55</ele>
        <time>2012-03-24T08:45:08Z</time>
      </trkpt>
      <trkpt lat="47.048322893679142" lon="6.842453414574266">
        <ele>1320.03</ele>
        <time>2012-03-24T08:45:09Z</time>
      </trkpt>
      <trkpt lat="47.048428589478135" lon="6.842605378478766">
        <ele>1320.03</ele>
        <time>2012-03-24T08:45:13Z</time>
      </trkpt>
      <trkpt lat="47.048668898642063" lon="6.842891871929169">
        <ele>1320.99</ele>
        <time>2012-03-24T08:45:22Z</time>
      </trkpt>
      <trkpt lat="47.048686919733882" lon="6.84292615391314">
        <ele>1320.51</ele>
        <time>2012-03-24T08:45:23Z</time>
      </trkpt>
      <trkpt lat="47.048707874491811" lon="6.842946521937847">
        <ele>1320.99</ele>
        <time>2012-03-24T08:45:24Z</time>
      </trkpt>
      <trkpt lat="47.048731427639723" lon="6.842967895790935">
        <ele>1321.47</ele>
        <time>2012-03-24T08:45:25Z</time>
      </trkpt>
      <trkpt lat="47.048752885311842" lon="6.842998238280416">
        <ele>1321.95</ele>
        <time>2012-03-24T08:45:26Z</time>
      </trkpt>
      <trkpt lat="47.048772582784295" lon="6.843021539971232">
        <ele>1321.95</ele>
        <time>2012-03-24T08:45:27Z</time>
      </trkpt>
      <trkpt lat="47.048792950809002" lon="6.843035873025656">
        <ele>1321.95</ele>
        <time>2012-03-24T08:45:28Z</time>
      </trkpt>
      <trkpt lat="47.0488465949893" lon="6.843116926029325">
        <ele>1323.3900000000001</ele>
        <time>2012-03-24T08:45:31Z</time>
      </trkpt>
      <trkpt lat="47.048867801204324" lon="6.843134695664048">
        <ele>1322.9100000000001</ele>
        <time>2012-03-24T08:45:32Z</time>
      </trkpt>
      <trkpt lat="47.048886409029365" lon="6.843158500269055">
        <ele>1323.3900000000001</ele>
        <time>2012-03-24T08:45:33Z</time>
      </trkpt>
      <trkpt lat="47.048903340473771" lon="6.843189261853695">
        <ele>1323.3900000000001</ele>
        <time>2012-03-24T08:45:34Z</time>
      </trkpt>
      <trkpt lat="47.048924462869763" lon="6.843210132792592">
        <ele>1322.9100000000001</ele>
        <time>2012-03-24T08:45:35Z</time>
      </trkpt>
      <trkpt lat="47.048945920541883" lon="6.843237625434995">
        <ele>1322.9100000000001</ele>
        <time>2012-03-24T08:45:36Z</time>
      </trkpt>
      <trkpt lat="47.048969389870763" lon="6.843269560486078">
        <ele>1323.8699999999999</ele>
        <time>2012-03-24T08:45:37Z</time>
      </trkpt>
      <trkpt lat="47.048994619399309" lon="6.843295209109783">
        <ele>1322.9100000000001</ele>
        <time>2012-03-24T08:45:38Z</time>
      </trkpt>
      <trkpt lat="47.04902253113687" lon="6.843318175524473">
        <ele>1323.3900000000001</ele>
        <time>2012-03-24T08:45:39Z</time>
      </trkpt>
      <trkpt lat="47.049050526693463" lon="6.843348853290081">
        <ele>1323.8699999999999</ele>
        <time>2012-03-24T08:45:40Z</time>
      </trkpt>
      <trkpt lat="47.049077935516834" lon="6.843378944322467">
        <ele>1323.8699999999999</ele>
        <time>2012-03-24T08:45:41Z</time>
      </trkpt>
      <trkpt lat="47.049141051247716" lon="6.84343577362597">
        <ele>1323.3900000000001</ele>
        <time>2012-03-24T08:45:43Z</time>
      </trkpt>
      <trkpt lat="47.049171477556229" lon="6.843464355915785">
        <ele>1323.3900000000001</ele>
        <time>2012-03-24T08:45:44Z</time>
      </trkpt>
      <trkpt lat="47.049230569973588" lon="6.843512551859021">
        <ele>1323.8699999999999</ele>
        <time>2012-03-24T08:45:46Z</time>
      </trkpt>
      <trkpt lat="47.049258397892118" lon="6.843543732538819">
        <ele>1323.8699999999999</ele>
        <time>2012-03-24T08:45:47Z</time>
      </trkpt>
      <trkpt lat="47.049288908019662" lon="6.843563597649336">
        <ele>1323.3900000000001</ele>
        <time>2012-03-24T08:45:48Z</time>
      </trkpt>
      <trkpt lat="47.049317825585604" lon="6.84358824044466">
        <ele>1324.3499999999999</ele>
        <time>2012-03-24T08:45:49Z</time>
      </trkpt>
      <trkpt lat="47.049345318228006" lon="6.843616906553507">
        <ele>1323.8699999999999</ele>
        <time>2012-03-24T08:45:50Z</time>
      </trkpt>
      <trkpt lat="47.049375241622329" lon="6.843635262921453">
        <ele>1323.8699999999999</ele>
        <time>2012-03-24T08:45:51Z</time>
      </trkpt>
      <trkpt lat="47.049403991550207" lon="6.843659318983555">
        <ele>1324.8299999999999</ele>
        <time>2012-03-24T08:45:52Z</time>
      </trkpt>
      <trkpt lat="47.049430143088102" lon="6.843691002577543">
        <ele>1324.3499999999999</ele>
        <time>2012-03-24T08:45:53Z</time>
      </trkpt>
      <trkpt lat="47.049456294625998" lon="6.843714723363519">
        <ele>1324.3499999999999</ele>
        <time>2012-03-24T08:45:54Z</time>
      </trkpt>
      <trkpt lat="47.049485212191939" lon="6.843733247369528">
        <ele>1323.8699999999999</ele>
        <time>2012-03-24T08:45:55Z</time>
      </trkpt>
      <trkpt lat="47.049605492502451" lon="6.843816982582212">
        <ele>1324.8299999999999</ele>
        <time>2012-03-24T08:45:59Z</time>
      </trkpt>
      <trkpt lat="47.049661064520478" lon="6.843863921239972">
        <ele>1324.8299999999999</ele>
        <time>2012-03-24T08:46:01Z</time>
      </trkpt>
      <trkpt lat="47.049687802791595" lon="6.843883786350489">
        <ele>1324.3499999999999</ele>
        <time>2012-03-24T08:46:02Z</time>
      </trkpt>
      <trkpt lat="47.049715211614966" lon="6.84390876442194">
        <ele>1324.8299999999999</ele>
        <time>2012-03-24T08:46:03Z</time>
      </trkpt>
      <trkpt lat="47.049743290990591" lon="6.843923768028617">
        <ele>1325.3099999999999</ele>
        <time>2012-03-24T08:46:04Z</time>
      </trkpt>
      <trkpt lat="47.049770951271057" lon="6.84394002892077">
        <ele>1325.3099999999999</ele>
        <time>2012-03-24T08:46:05Z</time>
      </trkpt>
      <trkpt lat="47.049797438085079" lon="6.843965090811253">
        <ele>1325.3099999999999</ele>
        <time>2012-03-24T08:46:06Z</time>
      </trkpt>
      <trkpt lat="47.049821829423308" lon="6.843980429694057">
        <ele>1325.8</ele>
        <time>2012-03-24T08:46:07Z</time>
      </trkpt>
      <trkpt lat="47.049846053123474" lon="6.843991661444306">
        <ele>1326.28</ele>
        <time>2012-03-24T08:46:08Z</time>
      </trkpt>
      <trkpt lat="47.049873126670718" lon="6.844012448564172">
        <ele>1325.8</ele>
        <time>2012-03-24T08:46:09Z</time>
      </trkpt>
      <trkpt lat="47.04990154132247" lon="6.844032565131784">
        <ele>1325.8</ele>
        <time>2012-03-24T08:46:10Z</time>
      </trkpt>
      <trkpt lat="47.049932889640331" lon="6.84404605999589">
        <ele>1325.8</ele>
        <time>2012-03-24T08:46:11Z</time>
      </trkpt>
      <trkpt lat="47.049962980672717" lon="6.844071540981531">
        <ele>1325.8</ele>
        <time>2012-03-24T08:46:12Z</time>
      </trkpt>
      <trkpt lat="47.049992820248008" lon="6.844098698347807">
        <ele>1325.8</ele>
        <time>2012-03-24T08:46:13Z</time>
      </trkpt>
      <trkpt lat="47.05002567730844" lon="6.844111438840628">
        <ele>1325.8</ele>
        <time>2012-03-24T08:46:14Z</time>
      </trkpt>
      <trkpt lat="47.050057947635651" lon="6.844127783551812">
        <ele>1326.76</ele>
        <time>2012-03-24T08:46:15Z</time>
      </trkpt>
      <trkpt lat="47.050088038668036" lon="6.844147061929107">
        <ele>1326.28</ele>
        <time>2012-03-24T08:46:16Z</time>
      </trkpt>
      <trkpt lat="47.050116201862693" lon="6.844159550964832">
        <ele>1326.28</ele>
        <time>2012-03-24T08:46:17Z</time>
      </trkpt>
      <trkpt lat="47.050141599029303" lon="6.844174638390541">
        <ele>1326.76</ele>
        <time>2012-03-24T08:46:18Z</time>
      </trkpt>
      <trkpt lat="47.050166828557849" lon="6.844196515157819">
        <ele>1326.76</ele>
        <time>2012-03-24T08:46:19Z</time>
      </trkpt>
      <trkpt lat="47.050191638991237" lon="6.844212524592876">
        <ele>1326.76</ele>
        <time>2012-03-24T08:46:20Z</time>
      </trkpt>
      <trkpt lat="47.050217371433973" lon="6.844223588705063">
        <ele>1326.76</ele>
        <time>2012-03-24T08:46:21Z</time>
      </trkpt>
      <trkpt lat="47.050241511315107" lon="6.844244794920087">
        <ele>1327.24</ele>
        <time>2012-03-24T08:46:22Z</time>
      </trkpt>
      <trkpt lat="47.05026313662529" lon="6.844265833497047">
        <ele>1327.24</ele>
        <time>2012-03-24T08:46:23Z</time>
      </trkpt>
      <trkpt lat="47.050287276506424" lon="6.844271114096046">
        <ele>1327.24</ele>
        <time>2012-03-24T08:46:24Z</time>
      </trkpt>
      <trkpt lat="47.050313679501414" lon="6.844283267855644">
        <ele>1328.2</ele>
        <time>2012-03-24T08:46:25Z</time>
      </trkpt>
      <trkpt lat="47.050337567925453" lon="6.844308665022254">
        <ele>1327.72</ele>
        <time>2012-03-24T08:46:26Z</time>
      </trkpt>
      <trkpt lat="47.05036137253046" lon="6.844326518476009">
        <ele>1328.2</ele>
        <time>2012-03-24T08:46:27Z</time>
      </trkpt>
      <trkpt lat="47.050384255126119" lon="6.844338336959481">
        <ele>1328.2</ele>
        <time>2012-03-24T08:46:28Z</time>
      </trkpt>
      <trkpt lat="47.050407053902745" lon="6.844359878450632">
        <ele>1328.6800000000001</ele>
        <time>2012-03-24T08:46:29Z</time>
      </trkpt>
      <trkpt lat="47.050426080822945" lon="6.844377396628261">
        <ele>1329.1600000000001</ele>
        <time>2012-03-24T08:46:30Z</time>
      </trkpt>
      <trkpt lat="47.050445359200239" lon="6.844383766874671">
        <ele>1328.6800000000001</ele>
        <time>2012-03-24T08:46:31Z</time>
      </trkpt>
      <trkpt lat="47.050465811043978" lon="6.844389969483018">
        <ele>1329.1600000000001</ele>
        <time>2012-03-24T08:46:32Z</time>
      </trkpt>
      <trkpt lat="47.050484418869019" lon="6.844410169869661">
        <ele>1329.1600000000001</ele>
        <time>2012-03-24T08:46:33Z</time>
      </trkpt>
      <trkpt lat="47.050502439960837" lon="6.844429029151797">
        <ele>1329.1600000000001</ele>
        <time>2012-03-24T08:46:34Z</time>
      </trkpt>
      <trkpt lat="47.050522807985544" lon="6.844435315579176">
        <ele>1329.1600000000001</ele>
        <time>2012-03-24T08:46:35Z</time>
      </trkpt>
      <trkpt lat="47.050544265657663" lon="6.844449732452631">
        <ele>1329.1600000000001</ele>
        <time>2012-03-24T08:46:36Z</time>
      </trkpt>
      <trkpt lat="47.050562119111419" lon="6.844472279772162">
        <ele>1329.1600000000001</ele>
        <time>2012-03-24T08:46:37Z</time>
      </trkpt>
      <trkpt lat="47.050578882917762" lon="6.844485020264983">
        <ele>1329.1600000000001</ele>
        <time>2012-03-24T08:46:38Z</time>
      </trkpt>
      <trkpt lat="47.050596065819263" lon="6.844492396339774">
        <ele>1329.6400000000001</ele>
        <time>2012-03-24T08:46:39Z</time>
      </trkpt>
      <trkpt lat="47.050613332539797" lon="6.844513267278671">
        <ele>1330.1199999999999</ele>
        <time>2012-03-24T08:46:40Z</time>
      </trkpt>
      <trkpt lat="47.05062959343195" lon="6.844534808769822">
        <ele>1330.1199999999999</ele>
        <time>2012-03-24T08:46:41Z</time>
      </trkpt>
      <trkpt lat="47.050646608695388" lon="6.844545705243945">
        <ele>1330.1199999999999</ele>
        <time>2012-03-24T08:46:42Z</time>
      </trkpt>
      <trkpt lat="47.050664378330112" lon="6.844557942822576">
        <ele>1330.5999999999999</ele>
        <time>2012-03-24T08:46:43Z</time>
      </trkpt>
      <trkpt lat="47.050679633393884" lon="6.844582837074995">
        <ele>1331.0799999999999</ele>
        <time>2012-03-24T08:46:44Z</time>
      </trkpt>
      <trkpt lat="47.050695139914751" lon="6.84460555203259">
        <ele>1331.0799999999999</ele>
        <time>2012-03-24T08:46:45Z</time>
      </trkpt>
      <trkpt lat="47.050713496282697" lon="6.844617119058967">
        <ele>1331.0799999999999</ele>
        <time>2012-03-24T08:46:46Z</time>
      </trkpt>
      <trkpt lat="47.05073126591742" lon="6.844633463770151">
        <ele>1331.5599999999999</ele>
        <time>2012-03-24T08:46:47Z</time>
      </trkpt>
      <trkpt lat="47.050745766609907" lon="6.844659447669983">
        <ele>1331.5599999999999</ele>
        <time>2012-03-24T08:46:48Z</time>
      </trkpt>
      <trkpt lat="47.050761273130774" lon="6.844675876200199">
        <ele>1332.04</ele>
        <time>2012-03-24T08:46:49Z</time>
      </trkpt>
      <trkpt lat="47.050778288394213" lon="6.844687946140766">
        <ele>1333.01</ele>
        <time>2012-03-24T08:46:50Z</time>
      </trkpt>
      <trkpt lat="47.050795303657651" lon="6.844707392156124">
        <ele>1333.01</ele>
        <time>2012-03-24T08:46:51Z</time>
      </trkpt>
      <trkpt lat="47.050809971988201" lon="6.844733124598861">
        <ele>1333.01</ele>
        <time>2012-03-24T08:46:52Z</time>
      </trkpt>
      <trkpt lat="47.050825310871005" lon="6.844749804586172">
        <ele>1333.01</ele>
        <time>2012-03-24T08:46:53Z</time>
      </trkpt>
      <trkpt lat="47.050843248143792" lon="6.844760198146105">
        <ele>1332.52</ele>
        <time>2012-03-24T08:46:54Z</time>
      </trkpt>
      <trkpt lat="47.050861185416579" lon="6.844777967780829">
        <ele>1332.04</ele>
        <time>2012-03-24T08:46:55Z</time>
      </trkpt>
      <trkpt lat="47.050874177366495" lon="6.844801269471645">
        <ele>1333.01</ele>
        <time>2012-03-24T08:46:56Z</time>
      </trkpt>
      <trkpt lat="47.050892114639282" lon="6.844816692173481">
        <ele>1333.01</ele>
        <time>2012-03-24T08:46:57Z</time>
      </trkpt>
      <trkpt lat="47.050910471007228" lon="6.844831528142095">
        <ele>1333.49</ele>
        <time>2012-03-24T08:46:58Z</time>
      </trkpt>
      <trkpt lat="47.05092815682292" lon="6.844856841489673">
        <ele>1333.49</ele>
        <time>2012-03-24T08:46:59Z</time>
      </trkpt>
      <trkpt lat="47.050944752991199" lon="6.844878802075982">
        <ele>1333.49</ele>
        <time>2012-03-24T08:47:00Z</time>
      </trkpt>
      <trkpt lat="47.05096336081624" lon="6.844890033826232">
        <ele>1333.01</ele>
        <time>2012-03-24T08:47:01Z</time>
      </trkpt>
      <trkpt lat="47.050980292260647" lon="6.844909815117717">
        <ele>1333.97</ele>
        <time>2012-03-24T08:47:02Z</time>
      </trkpt>
      <trkpt lat="47.050995547324419" lon="6.844937391579151">
        <ele>1333.49</ele>
        <time>2012-03-24T08:47:03Z</time>
      </trkpt>
      <trkpt lat="47.051013736054301" lon="6.844955077394843">
        <ele>1333.49</ele>
        <time>2012-03-24T08:47:04Z</time>
      </trkpt>
      <trkpt lat="47.051031338050961" lon="6.844976367428899">
        <ele>1334.45</ele>
        <time>2012-03-24T08:47:05Z</time>
      </trkpt>
      <trkpt lat="47.051048018038273" lon="6.845004111528397">
        <ele>1334.9300000000001</ele>
        <time>2012-03-24T08:47:06Z</time>
      </trkpt>
      <trkpt lat="47.051064949482679" lon="6.845021462067962">
        <ele>1335.4100000000001</ele>
        <time>2012-03-24T08:47:07Z</time>
      </trkpt>
      <trkpt lat="47.05108355730772" lon="6.845037806779146">
        <ele>1334.9300000000001</ele>
        <time>2012-03-24T08:47:08Z</time>
      </trkpt>
      <trkpt lat="47.05110065639019" lon="6.845067227259278">
        <ele>1335.4100000000001</ele>
        <time>2012-03-24T08:47:09Z</time>
      </trkpt>
      <trkpt lat="47.051116498187184" lon="6.845094803720713">
        <ele>1335.4100000000001</ele>
        <time>2012-03-24T08:47:10Z</time>
      </trkpt>
      <trkpt lat="47.051133681088686" lon="6.845109472051263">
        <ele>1335.4100000000001</ele>
        <time>2012-03-24T08:47:11Z</time>
      </trkpt>
      <trkpt lat="47.05115002579987" lon="6.845128834247589">
        <ele>1335.4100000000001</ele>
        <time>2012-03-24T08:47:12Z</time>
      </trkpt>
      <trkpt lat="47.051165280863643" lon="6.845152890309691">
        <ele>1335.8900000000001</ele>
        <time>2012-03-24T08:47:13Z</time>
      </trkpt>
      <trkpt lat="47.051182463765144" lon="6.845167558640242">
        <ele>1336.3699999999999</ele>
        <time>2012-03-24T08:47:14Z</time>
      </trkpt>
      <trkpt lat="47.051198808476329" lon="6.84518264606595">
        <ele>1336.3699999999999</ele>
        <time>2012-03-24T08:47:15Z</time>
      </trkpt>
      <trkpt lat="47.051214734092355" lon="6.845206869766116">
        <ele>1336.8499999999999</ele>
        <time>2012-03-24T08:47:16Z</time>
      </trkpt>
      <trkpt lat="47.051233677193522" lon="6.845228243619204">
        <ele>1336.3699999999999</ele>
        <time>2012-03-24T08:47:17Z</time>
      </trkpt>
      <trkpt lat="47.0512521173805" lon="6.84525053948164">
        <ele>1336.3699999999999</ele>
        <time>2012-03-24T08:47:18Z</time>
      </trkpt>
      <trkpt lat="47.051267791539431" lon="6.845283061265945">
        <ele>1336.3699999999999</ele>
        <time>2012-03-24T08:47:19Z</time>
      </trkpt>
      <trkpt lat="47.051285225898027" lon="6.845307117328048">
        <ele>1336.8499999999999</ele>
        <time>2012-03-24T08:47:20Z</time>
      </trkpt>
      <trkpt lat="47.051304755732417" lon="6.845323545858264">
        <ele>1337.3299999999999</ele>
        <time>2012-03-24T08:47:21Z</time>
      </trkpt>
      <trkpt lat="47.051321938633919" lon="6.845350619405508">
        <ele>1337.3299999999999</ele>
        <time>2012-03-24T08:47:22Z</time>
      </trkpt>
      <trkpt lat="47.05133761279285" lon="6.845377860590816">
        <ele>1337.3299999999999</ele>
        <time>2012-03-24T08:47:23Z</time>
      </trkpt>
      <trkpt lat="47.05135622061789" lon="6.84539370238781">
        <ele>1337.3299999999999</ele>
        <time>2012-03-24T08:47:24Z</time>
      </trkpt>
      <trkpt lat="47.051376001909375" lon="6.845414321869612">
        <ele>1337.8099999999999</ele>
        <time>2012-03-24T08:47:25Z</time>
      </trkpt>
      <trkpt lat="47.051393436267972" lon="6.845443658530712">
        <ele>1337.8099999999999</ele>
        <time>2012-03-24T08:47:26Z</time>
      </trkpt>
      <trkpt lat="47.05141045153141" lon="6.845464445650578">
        <ele>1337.8099999999999</ele>
        <time>2012-03-24T08:47:27Z</time>
      </trkpt>
      <trkpt lat="47.051429059356451" lon="6.845478946343064">
        <ele>1337.8099999999999</ele>
        <time>2012-03-24T08:47:28Z</time>
      </trkpt>
      <trkpt lat="47.051443895325065" lon="6.845506858080626">
        <ele>1338.29</ele>
        <time>2012-03-24T08:47:29Z</time>
      </trkpt>
      <trkpt lat="47.051457557827234" lon="6.845531836152077">
        <ele>1338.29</ele>
        <time>2012-03-24T08:47:30Z</time>
      </trkpt>
      <trkpt lat="47.051474405452609" lon="6.845545247197151">
        <ele>1338.29</ele>
        <time>2012-03-24T08:47:31Z</time>
      </trkpt>
      <trkpt lat="47.051491001620889" lon="6.845564609393477">
        <ele>1338.29</ele>
        <time>2012-03-24T08:47:32Z</time>
      </trkpt>
      <trkpt lat="47.051507094874978" lon="6.845590928569436">
        <ele>1338.77</ele>
        <time>2012-03-24T08:47:33Z</time>
      </trkpt>
      <trkpt lat="47.051524110138416" lon="6.845609033480287">
        <ele>1338.77</ele>
        <time>2012-03-24T08:47:34Z</time>
      </trkpt>
      <trkpt lat="47.051541628316045" lon="6.845626719295979">
        <ele>1338.77</ele>
        <time>2012-03-24T08:47:35Z</time>
      </trkpt>
      <trkpt lat="47.051556631922722" lon="6.845653625205159">
        <ele>1339.25</ele>
        <time>2012-03-24T08:47:36Z</time>
      </trkpt>
      <trkpt lat="47.051571803167462" lon="6.845677345991135">
        <ele>1339.25</ele>
        <time>2012-03-24T08:47:37Z</time>
      </trkpt>
      <trkpt lat="47.051592925563455" lon="6.845691008493304">
        <ele>1339.25</ele>
        <time>2012-03-24T08:47:38Z</time>
      </trkpt>
      <trkpt lat="47.051609857007861" lon="6.845711711794138">
        <ele>1338.77</ele>
        <time>2012-03-24T08:47:39Z</time>
      </trkpt>
      <trkpt lat="47.051624776795506" lon="6.845736941322684">
        <ele>1339.73</ele>
        <time>2012-03-24T08:47:40Z</time>
      </trkpt>
      <trkpt lat="47.05163961276412" lon="6.845752028748393">
        <ele>1339.73</ele>
        <time>2012-03-24T08:47:41Z</time>
      </trkpt>
      <trkpt lat="47.051656125113368" lon="6.845765188336372">
        <ele>1339.25</ele>
        <time>2012-03-24T08:47:42Z</time>
      </trkpt>
      <trkpt lat="47.051671463996172" lon="6.845791339874268">
        <ele>1339.73</ele>
        <time>2012-03-24T08:47:43Z</time>
      </trkpt>
      <trkpt lat="47.051688814535737" lon="6.845812294632196">
        <ele>1339.73</ele>
        <time>2012-03-24T08:47:44Z</time>
      </trkpt>
      <trkpt lat="47.051708428189158" lon="6.845824951305986">
        <ele>1340.22</ele>
        <time>2012-03-24T08:47:45Z</time>
      </trkpt>
      <trkpt lat="47.051725694909692" lon="6.845843307673931">
        <ele>1340.22</ele>
        <time>2012-03-24T08:47:46Z</time>
      </trkpt>
      <trkpt lat="47.051742793992162" lon="6.845868788659573">
        <ele>1340.22</ele>
        <time>2012-03-24T08:47:47Z</time>
      </trkpt>
      <trkpt lat="47.05176031216979" lon="6.84588722884655">
        <ele>1340.22</ele>
        <time>2012-03-24T08:47:48Z</time>
      </trkpt>
      <trkpt lat="47.051778249442577" lon="6.845905417576432">
        <ele>1340.7</ele>
        <time>2012-03-24T08:47:49Z</time>
      </trkpt>
      <trkpt lat="47.051793588325381" lon="6.845931401476264">
        <ele>1341.1800000000001</ele>
        <time>2012-03-24T08:47:50Z</time>
      </trkpt>
      <trkpt lat="47.051807921379805" lon="6.845951518043876">
        <ele>1340.7</ele>
        <time>2012-03-24T08:47:51Z</time>
      </trkpt>
      <trkpt lat="47.051824601367116" lon="6.845963168889284">
        <ele>1341.1800000000001</ele>
        <time>2012-03-24T08:47:52Z</time>
      </trkpt>
      <trkpt lat="47.051841113716364" lon="6.845984291285276">
        <ele>1341.6600000000001</ele>
        <time>2012-03-24T08:47:53Z</time>
      </trkpt>
      <trkpt lat="47.051855027675629" lon="6.846011448651552">
        <ele>1341.6600000000001</ele>
        <time>2012-03-24T08:47:54Z</time>
      </trkpt>
      <trkpt lat="47.051873970776796" lon="6.846024356782436">
        <ele>1341.6600000000001</ele>
        <time>2012-03-24T08:47:55Z</time>
      </trkpt>
      <trkpt lat="47.051893752068281" lon="6.846037851646543">
        <ele>1341.6600000000001</ele>
        <time>2012-03-24T08:47:56Z</time>
      </trkpt>
      <trkpt lat="47.051911521703005" lon="6.84606408700347">
        <ele>1342.6199999999999</ele>
        <time>2012-03-24T08:47:57Z</time>
      </trkpt>
      <trkpt lat="47.051929291337729" lon="6.846089484170079">
        <ele>1342.1400000000001</ele>
        <time>2012-03-24T08:47:58Z</time>
      </trkpt>
      <trkpt lat="47.05194840207696" lon="6.846102140843868">
        <ele>1342.1400000000001</ele>
        <time>2012-03-24T08:47:59Z</time>
      </trkpt>
      <trkpt lat="47.051965920254588" lon="6.84611932374537">
        <ele>1342.6199999999999</ele>
        <time>2012-03-24T08:48:00Z</time>
      </trkpt>
      <trkpt lat="47.051982264965773" lon="6.846146397292614">
        <ele>1342.6199999999999</ele>
        <time>2012-03-24T08:48:01Z</time>
      </trkpt>
      <trkpt lat="47.051997687667608" lon="6.846170453354716">
        <ele>1343.0999999999999</ele>
        <time>2012-03-24T08:48:02Z</time>
      </trkpt>
      <trkpt lat="47.052017133682966" lon="6.846187300980091">
        <ele>1343.0999999999999</ele>
        <time>2012-03-24T08:48:03Z</time>
      </trkpt>
      <trkpt lat="47.052034568041563" lon="6.846210937947035">
        <ele>1343.0999999999999</ele>
        <time>2012-03-24T08:48:04Z</time>
      </trkpt>
      <trkpt lat="47.052051918581128" lon="6.846231389790773">
        <ele>1343.5799999999999</ele>
        <time>2012-03-24T08:48:05Z</time>
      </trkpt>
      <trkpt lat="47.052072705700994" lon="6.846242872998118">
        <ele>1343.0999999999999</ele>
        <time>2012-03-24T08:48:06Z</time>
      </trkpt>
      <trkpt lat="47.052094750106335" lon="6.846257960423827">
        <ele>1343.0999999999999</ele>
        <time>2012-03-24T08:48:07Z</time>
      </trkpt>
      <trkpt lat="47.05211503431201" lon="6.846285201609135">
        <ele>1343.0999999999999</ele>
        <time>2012-03-24T08:48:08Z</time>
      </trkpt>
      <trkpt lat="47.052135402336717" lon="6.846307665109634">
        <ele>1343.5799999999999</ele>
        <time>2012-03-24T08:48:09Z</time>
      </trkpt>
      <trkpt lat="47.052155267447233" lon="6.846325350925326">
        <ele>1343.0999999999999</ele>
        <time>2012-03-24T08:48:10Z</time>
      </trkpt>
      <trkpt lat="47.052172031253576" lon="6.846357202157378">
        <ele>1343.0999999999999</ele>
        <time>2012-03-24T08:48:11Z</time>
      </trkpt>
      <trkpt lat="47.052188459783792" lon="6.846380587667227">
        <ele>1344.0599999999999</ele>
        <time>2012-03-24T08:48:12Z</time>
      </trkpt>
      <trkpt lat="47.052208995446563" lon="6.846392573788762">
        <ele>1343.5799999999999</ele>
        <time>2012-03-24T08:48:13Z</time>
      </trkpt>
      <trkpt lat="47.052227267995477" lon="6.846416378393769">
        <ele>1343.5799999999999</ele>
        <time>2012-03-24T08:48:14Z</time>
      </trkpt>
      <trkpt lat="47.052243277430534" lon="6.846439093351364">
        <ele>1344.0599999999999</ele>
        <time>2012-03-24T08:48:15Z</time>
      </trkpt>
      <trkpt lat="47.052263477817178" lon="6.846451163291931">
        <ele>1344.54</ele>
        <time>2012-03-24T08:48:16Z</time>
      </trkpt>
      <trkpt lat="47.05228166654706" lon="6.846474381163716">
        <ele>1344.54</ele>
        <time>2012-03-24T08:48:17Z</time>
      </trkpt>
      <trkpt lat="47.052296921610832" lon="6.846500867977738">
        <ele>1344.0599999999999</ele>
        <time>2012-03-24T08:48:18Z</time>
      </trkpt>
      <trkpt lat="47.052317457273602" lon="6.846515955403447">
        <ele>1344.54</ele>
        <time>2012-03-24T08:48:19Z</time>
      </trkpt>
      <trkpt lat="47.052336987107992" lon="6.846539340913296">
        <ele>1344.54</ele>
        <time>2012-03-24T08:48:20Z</time>
      </trkpt>
      <trkpt lat="47.052353164181113" lon="6.84656297788024">
        <ele>1344.54</ele>
        <time>2012-03-24T08:48:21Z</time>
      </trkpt>
      <trkpt lat="47.052371604368091" lon="6.846577813848853">
        <ele>1345.02</ele>
        <time>2012-03-24T08:48:22Z</time>
      </trkpt>
      <trkpt lat="47.052389374002814" lon="6.84659575112164">
        <ele>1345.5</ele>
        <time>2012-03-24T08:48:23Z</time>
      </trkpt>
      <trkpt lat="47.052405131980777" lon="6.846623662859201">
        <ele>1345.98</ele>
        <time>2012-03-24T08:48:24Z</time>
      </trkpt>
      <trkpt lat="47.052420806139708" lon="6.846646964550018">
        <ele>1345.98</ele>
        <time>2012-03-24T08:48:25Z</time>
      </trkpt>
      <trkpt lat="47.052441006526351" lon="6.846667332574725">
        <ele>1345.5</ele>
        <time>2012-03-24T08:48:26Z</time>
      </trkpt>
      <trkpt lat="47.052456680685282" lon="6.846699099987745">
        <ele>1345.98</ele>
        <time>2012-03-24T08:48:27Z</time>
      </trkpt>
      <trkpt lat="47.052473528310657" lon="6.84672667644918">
        <ele>1345.98</ele>
        <time>2012-03-24T08:48:28Z</time>
      </trkpt>
      <trkpt lat="47.052492471411824" lon="6.846745871007443">
        <ele>1345.5</ele>
        <time>2012-03-24T08:48:29Z</time>
      </trkpt>
      <trkpt lat="47.052508145570755" lon="6.846775626763701">
        <ele>1345.98</ele>
        <time>2012-03-24T08:48:30Z</time>
      </trkpt>
      <trkpt lat="47.0525230653584" lon="6.846803203225136">
        <ele>1345.98</ele>
        <time>2012-03-24T08:48:31Z</time>
      </trkpt>
      <trkpt lat="47.052543014287949" lon="6.846823822706938">
        <ele>1345.98</ele>
        <time>2012-03-24T08:48:32Z</time>
      </trkpt>
      <trkpt lat="47.052558520808816" lon="6.846852907910943">
        <ele>1346.46</ele>
        <time>2012-03-24T08:48:33Z</time>
      </trkpt>
      <trkpt lat="47.052572937682271" lon="6.846884172409773">
        <ele>1346.46</ele>
        <time>2012-03-24T08:48:34Z</time>
      </trkpt>
      <trkpt lat="47.052608979865909" lon="6.846935385838151">
        <ele>1346.46</ele>
        <time>2012-03-24T08:48:36Z</time>
      </trkpt>
      <trkpt lat="47.052624989300966" lon="6.846962962299585">
        <ele>1346.46</ele>
        <time>2012-03-24T08:48:37Z</time>
      </trkpt>
      <trkpt lat="47.052646446973085" lon="6.846982659772039">
        <ele>1346.9400000000001</ele>
        <time>2012-03-24T08:48:38Z</time>
      </trkpt>
      <trkpt lat="47.052667485550046" lon="6.847006632015109">
        <ele>1346.9400000000001</ele>
        <time>2012-03-24T08:48:39Z</time>
      </trkpt>
      <trkpt lat="47.052686428651214" lon="6.847035298123956">
        <ele>1346.9400000000001</ele>
        <time>2012-03-24T08:48:40Z</time>
      </trkpt>
      <trkpt lat="47.052707802504301" lon="6.84705650433898">
        <ele>1346.9400000000001</ele>
        <time>2012-03-24T08:48:41Z</time>
      </trkpt>
      <trkpt lat="47.052724482491612" lon="6.847086511552334">
        <ele>1346.9400000000001</ele>
        <time>2012-03-24T08:48:42Z</time>
      </trkpt>
      <trkpt lat="47.052738312631845" lon="6.847120458260179">
        <ele>1347.4300000000001</ele>
        <time>2012-03-24T08:48:43Z</time>
      </trkpt>
      <trkpt lat="47.052757842466235" lon="6.847144179046154">
        <ele>1347.4300000000001</ele>
        <time>2012-03-24T08:48:44Z</time>
      </trkpt>
      <trkpt lat="47.052774857729673" lon="6.847171587869525">
        <ele>1347.4300000000001</ele>
        <time>2012-03-24T08:48:45Z</time>
      </trkpt>
      <trkpt lat="47.052787179127336" lon="6.847202936187387">
        <ele>1347.4300000000001</ele>
        <time>2012-03-24T08:48:46Z</time>
      </trkpt>
      <trkpt lat="47.05280402675271" lon="6.847225902602077">
        <ele>1348.3900000000001</ele>
        <time>2012-03-24T08:48:47Z</time>
      </trkpt>
      <trkpt lat="47.052821461111307" lon="6.847252557054162">
        <ele>1348.8699999999999</ele>
        <time>2012-03-24T08:48:48Z</time>
      </trkpt>
      <trkpt lat="47.052834872156382" lon="6.847281474620104">
        <ele>1349.3499999999999</ele>
        <time>2012-03-24T08:48:49Z</time>
      </trkpt>
      <trkpt lat="47.052853060886264" lon="6.847303183749318">
        <ele>1348.8699999999999</ele>
        <time>2012-03-24T08:48:50Z</time>
      </trkpt>
      <trkpt lat="47.052870495244861" lon="6.847327742725611">
        <ele>1348.8699999999999</ele>
        <time>2012-03-24T08:48:51Z</time>
      </trkpt>
      <trkpt lat="47.052885666489601" lon="6.847356576472521">
        <ele>1349.3499999999999</ele>
        <time>2012-03-24T08:48:52Z</time>
      </trkpt>
      <trkpt lat="47.052904693409801" lon="6.847377950325608">
        <ele>1349.3499999999999</ele>
        <time>2012-03-24T08:48:53Z</time>
      </trkpt>
      <trkpt lat="47.052922127768397" lon="6.847406616434455">
        <ele>1348.8699999999999</ele>
        <time>2012-03-24T08:48:54Z</time>
      </trkpt>
      <trkpt lat="47.052935874089599" lon="6.84744106605649">
        <ele>1349.8299999999999</ele>
        <time>2012-03-24T08:48:55Z</time>
      </trkpt>
      <trkpt lat="47.052952386438847" lon="6.847469061613083">
        <ele>1349.3499999999999</ele>
        <time>2012-03-24T08:48:56Z</time>
      </trkpt>
      <trkpt lat="47.052970491349697" lon="6.847496721893549">
        <ele>1349.3499999999999</ele>
        <time>2012-03-24T08:48:57Z</time>
      </trkpt>
      <trkpt lat="47.052985494956374" lon="6.847530165687203">
        <ele>1348.8699999999999</ele>
        <time>2012-03-24T08:48:58Z</time>
      </trkpt>
      <trkpt lat="47.053004018962383" lon="6.847552042454481">
        <ele>1349.3499999999999</ele>
        <time>2012-03-24T08:48:59Z</time>
      </trkpt>
      <trkpt lat="47.053023297339678" lon="6.847574757412076">
        <ele>1349.3499999999999</ele>
        <time>2012-03-24T08:49:00Z</time>
      </trkpt>
      <trkpt lat="47.053038803860545" lon="6.847606189548969">
        <ele>1349.3499999999999</ele>
        <time>2012-03-24T08:49:01Z</time>
      </trkpt>
      <trkpt lat="47.053055483847857" lon="6.847631670534611">
        <ele>1349.8299999999999</ele>
        <time>2012-03-24T08:49:02Z</time>
      </trkpt>
      <trkpt lat="47.053072080016136" lon="6.847656648606062">
        <ele>1349.8299999999999</ele>
        <time>2012-03-24T08:49:03Z</time>
      </trkpt>
      <trkpt lat="47.053086664527655" lon="6.847689673304558">
        <ele>1349.8299999999999</ele>
        <time>2012-03-24T08:49:04Z</time>
      </trkpt>
      <trkpt lat="47.053103931248188" lon="6.847717333585024">
        <ele>1349.3499999999999</ele>
        <time>2012-03-24T08:49:05Z</time>
      </trkpt>
      <trkpt lat="47.0531240478158" lon="6.847744323313236">
        <ele>1350.3099999999999</ele>
        <time>2012-03-24T08:49:06Z</time>
      </trkpt>
      <trkpt lat="47.053138380870223" lon="6.847783047705889">
        <ele>1349.8299999999999</ele>
        <time>2012-03-24T08:49:07Z</time>
      </trkpt>
      <trkpt lat="47.053153971210122" lon="6.847813557833433">
        <ele>1350.3099999999999</ele>
        <time>2012-03-24T08:49:08Z</time>
      </trkpt>
      <trkpt lat="47.053171992301941" lon="6.847835686057806">
        <ele>1349.8299999999999</ele>
        <time>2012-03-24T08:49:09Z</time>
      </trkpt>
      <trkpt lat="47.053187834098935" lon="6.847866363823414">
        <ele>1350.3099999999999</ele>
        <time>2012-03-24T08:49:10Z</time>
      </trkpt>
      <trkpt lat="47.05320417881012" lon="6.84788916260004">
        <ele>1350.3099999999999</ele>
        <time>2012-03-24T08:49:11Z</time>
      </trkpt>
      <trkpt lat="47.053220858797431" lon="6.847912464290857">
        <ele>1350.3099999999999</ele>
        <time>2012-03-24T08:49:12Z</time>
      </trkpt>
      <trkpt lat="47.053235527127981" lon="6.847943896427751">
        <ele>1350.79</ele>
        <time>2012-03-24T08:49:13Z</time>
      </trkpt>
      <trkpt lat="47.053249189630151" lon="6.847974406555295">
        <ele>1351.27</ele>
        <time>2012-03-24T08:49:14Z</time>
      </trkpt>
      <trkpt lat="47.053269725292921" lon="6.847995361313224">
        <ele>1350.79</ele>
        <time>2012-03-24T08:49:15Z</time>
      </trkpt>
      <trkpt lat="47.053286656737328" lon="6.848023440688849">
        <ele>1351.27</ele>
        <time>2012-03-24T08:49:16Z</time>
      </trkpt>
      <trkpt lat="47.053300989791751" lon="6.848054202273488">
        <ele>1351.27</ele>
        <time>2012-03-24T08:49:17Z</time>
      </trkpt>
      <trkpt lat="47.053320519626141" lon="6.848075659945607">
        <ele>1351.27</ele>
        <time>2012-03-24T08:49:18Z</time>
      </trkpt>
      <trkpt lat="47.053337702527642" lon="6.848104242235422">
        <ele>1351.27</ele>
        <time>2012-03-24T08:49:19Z</time>
      </trkpt>
      <trkpt lat="47.053350945934653" lon="6.848131734877825">
        <ele>1351.75</ele>
        <time>2012-03-24T08:49:20Z</time>
      </trkpt>
      <trkpt lat="47.053370056673884" lon="6.848153695464134">
        <ele>1352.71</ele>
        <time>2012-03-24T08:49:21Z</time>
      </trkpt>
      <trkpt lat="47.053386149927974" lon="6.848181942477822">
        <ele>1352.23</ele>
        <time>2012-03-24T08:49:22Z</time>
      </trkpt>
      <trkpt lat="47.053400482982397" lon="6.848212452605367">
        <ele>1352.71</ele>
        <time>2012-03-24T08:49:23Z</time>
      </trkpt>
      <trkpt lat="47.053419342264533" lon="6.848233407363296">
        <ele>1352.71</ele>
        <time>2012-03-24T08:49:24Z</time>
      </trkpt>
      <trkpt lat="47.053436525166035" lon="6.84825805015862">
        <ele>1353.1900000000001</ele>
        <time>2012-03-24T08:49:25Z</time>
      </trkpt>
      <trkpt lat="47.053450187668204" lon="6.848289901390672">
        <ele>1353.1900000000001</ele>
        <time>2012-03-24T08:49:26Z</time>
      </trkpt>
      <trkpt lat="47.05346854403615" lon="6.848310772329569">
        <ele>1353.1900000000001</ele>
        <time>2012-03-24T08:49:27Z</time>
      </trkpt>
      <trkpt lat="47.053487151861191" lon="6.848331224173307">
        <ele>1353.6700000000001</ele>
        <time>2012-03-24T08:49:28Z</time>
      </trkpt>
      <trkpt lat="47.053502406924963" lon="6.848366763442755">
        <ele>1353.6700000000001</ele>
        <time>2012-03-24T08:49:29Z</time>
      </trkpt>
      <trkpt lat="47.053517829626799" lon="6.848399871960282">
        <ele>1353.6700000000001</ele>
        <time>2012-03-24T08:49:30Z</time>
      </trkpt>
      <trkpt lat="47.053535850718617" lon="6.848424850031734">
        <ele>1353.6700000000001</ele>
        <time>2012-03-24T08:49:31Z</time>
      </trkpt>
      <trkpt lat="47.05355110578239" lon="6.848455779254437">
        <ele>1354.1500000000001</ele>
        <time>2012-03-24T08:49:32Z</time>
      </trkpt>
      <trkpt lat="47.053565606474876" lon="6.848487798124552">
        <ele>1353.6700000000001</ele>
        <time>2012-03-24T08:49:33Z</time>
      </trkpt>
      <trkpt lat="47.053584884852171" lon="6.848508920520544">
        <ele>1354.6300000000001</ele>
        <time>2012-03-24T08:49:34Z</time>
      </trkpt>
      <trkpt lat="47.053602151572704" lon="6.848530881106854">
        <ele>1355.5999999999999</ele>
        <time>2012-03-24T08:49:35Z</time>
      </trkpt>
      <trkpt lat="47.05361464060843" lon="6.848559211939573">
        <ele>1355.5999999999999</ele>
        <time>2012-03-24T08:49:36Z</time>
      </trkpt>
      <trkpt lat="47.053630147129297" lon="6.848579663783312">
        <ele>1356.5599999999999</ele>
        <time>2012-03-24T08:49:37Z</time>
      </trkpt>
      <trkpt lat="47.053643641993403" lon="6.8486044742167">
        <ele>1356.5599999999999</ele>
        <time>2012-03-24T08:49:38Z</time>
      </trkpt>
      <trkpt lat="47.053656801581383" lon="6.848640767857432">
        <ele>1356.0799999999999</ele>
        <time>2012-03-24T08:49:39Z</time>
      </trkpt>
      <trkpt lat="47.053670715540648" lon="6.848675552755594">
        <ele>1355.1199999999999</ele>
        <time>2012-03-24T08:49:40Z</time>
      </trkpt>
      <trkpt lat="47.053687563166022" lon="6.848697429522872">
        <ele>1354.6300000000001</ele>
        <time>2012-03-24T08:49:41Z</time>
      </trkpt>
      <trkpt lat="47.053702650591731" lon="6.848725844174624">
        <ele>1354.1500000000001</ele>
        <time>2012-03-24T08:49:42Z</time>
      </trkpt>
      <trkpt lat="47.053714469075203" lon="6.8487598747015">
        <ele>1354.6300000000001</ele>
        <time>2012-03-24T08:49:43Z</time>
      </trkpt>
      <trkpt lat="47.053730729967356" lon="6.848783176392317">
        <ele>1354.6300000000001</ele>
        <time>2012-03-24T08:49:44Z</time>
      </trkpt>
      <trkpt lat="47.053749086335301" lon="6.848807986825705">
        <ele>1354.1500000000001</ele>
        <time>2012-03-24T08:49:45Z</time>
      </trkpt>
      <trkpt lat="47.053762245923281" lon="6.848838245496154">
        <ele>1355.1199999999999</ele>
        <time>2012-03-24T08:49:46Z</time>
      </trkpt>
      <trkpt lat="47.053775992244482" lon="6.84886297211051">
        <ele>1355.5999999999999</ele>
        <time>2012-03-24T08:49:47Z</time>
      </trkpt>
      <trkpt lat="47.053790157660842" lon="6.848887028172612">
        <ele>1356.0799999999999</ele>
        <time>2012-03-24T08:49:48Z</time>
      </trkpt>
      <trkpt lat="47.053799713030457" lon="6.848917370662093">
        <ele>1355.5999999999999</ele>
        <time>2012-03-24T08:49:49Z</time>
      </trkpt>
      <trkpt lat="47.053809687495232" lon="6.848943522199988">
        <ele>1356.5599999999999</ele>
        <time>2012-03-24T08:49:50Z</time>
      </trkpt>
      <trkpt lat="47.053827624768019" lon="6.848964896053076">
        <ele>1355.5999999999999</ele>
        <time>2012-03-24T08:49:51Z</time>
      </trkpt>
      <trkpt lat="47.053844556212425" lon="6.848991718143225">
        <ele>1356.0799999999999</ele>
        <time>2012-03-24T08:49:52Z</time>
      </trkpt>
      <trkpt lat="47.053857296705246" lon="6.849021390080452">
        <ele>1355.5999999999999</ele>
        <time>2012-03-24T08:49:53Z</time>
      </trkpt>
      <trkpt lat="47.053874982520938" lon="6.849042261019349">
        <ele>1355.5999999999999</ele>
        <time>2012-03-24T08:49:54Z</time>
      </trkpt>
      <trkpt lat="47.053892752155662" lon="6.849064808338881">
        <ele>1356.0799999999999</ele>
        <time>2012-03-24T08:49:55Z</time>
      </trkpt>
      <trkpt lat="47.053905157372355" lon="6.84909749776125">
        <ele>1355.5999999999999</ele>
        <time>2012-03-24T08:49:56Z</time>
      </trkpt>
      <trkpt lat="47.05392200499773" lon="6.849124236032367">
        <ele>1355.5999999999999</ele>
        <time>2012-03-24T08:49:57Z</time>
      </trkpt>
      <trkpt lat="47.053940026089549" lon="6.849151393398643">
        <ele>1355.5999999999999</ele>
        <time>2012-03-24T08:49:58Z</time>
      </trkpt>
      <trkpt lat="47.05395276658237" lon="6.849191626533866">
        <ele>1355.5999999999999</ele>
        <time>2012-03-24T08:49:59Z</time>
      </trkpt>
      <trkpt lat="47.053968524560332" lon="6.849224148318172">
        <ele>1355.5999999999999</ele>
        <time>2012-03-24T08:50:00Z</time>
      </trkpt>
      <trkpt lat="47.053987300023437" lon="6.849250048398972">
        <ele>1356.0799999999999</ele>
        <time>2012-03-24T08:50:01Z</time>
      </trkpt>
      <trkpt lat="47.054003225639462" lon="6.849284246563911">
        <ele>1356.5599999999999</ele>
        <time>2012-03-24T08:50:02Z</time>
      </trkpt>
      <trkpt lat="47.054021833464503" lon="6.849311823025346">
        <ele>1357.04</ele>
        <time>2012-03-24T08:50:03Z</time>
      </trkpt>
      <trkpt lat="47.054043877869844" lon="6.849330766126514">
        <ele>1357.04</ele>
        <time>2012-03-24T08:50:04Z</time>
      </trkpt>
      <trkpt lat="47.054065586999059" lon="6.849357336759567">
        <ele>1357.52</ele>
        <time>2012-03-24T08:50:05Z</time>
      </trkpt>
      <trkpt lat="47.054087212309241" lon="6.849384997040033">
        <ele>1358</ele>
        <time>2012-03-24T08:50:06Z</time>
      </trkpt>
      <trkpt lat="47.054112441837788" lon="6.849400084465742">
        <ele>1358</ele>
        <time>2012-03-24T08:50:07Z</time>
      </trkpt>
      <trkpt lat="47.054138090461493" lon="6.849420368671417">
        <ele>1357.04</ele>
        <time>2012-03-24T08:50:08Z</time>
      </trkpt>
      <trkpt lat="47.054160889238119" lon="6.849440233781934">
        <ele>1357.52</ele>
        <time>2012-03-24T08:50:09Z</time>
      </trkpt>
      <trkpt lat="47.054184274747968" lon="6.84944735839963">
        <ele>1357.52</ele>
        <time>2012-03-24T08:50:10Z</time>
      </trkpt>
      <trkpt lat="47.054206654429436" lon="6.849457835778594">
        <ele>1357.52</ele>
        <time>2012-03-24T08:50:11Z</time>
      </trkpt>
      <trkpt lat="47.054229620844126" lon="6.849472587928176">
        <ele>1357.52</ele>
        <time>2012-03-24T08:50:12Z</time>
      </trkpt>
      <trkpt lat="47.054252922534943" lon="6.849478958174586">
        <ele>1357.52</ele>
        <time>2012-03-24T08:50:13Z</time>
      </trkpt>
      <trkpt lat="47.054275721311569" lon="6.849487340077758">
        <ele>1358</ele>
        <time>2012-03-24T08:50:14Z</time>
      </trkpt>
      <trkpt lat="47.054298352450132" lon="6.849505277350545">
        <ele>1357.52</ele>
        <time>2012-03-24T08:50:15Z</time>
      </trkpt>
      <trkpt lat="47.054321989417076" lon="6.849514497444034">
        <ele>1358.48</ele>
        <time>2012-03-24T08:50:16Z</time>
      </trkpt>
      <trkpt lat="47.054345207288861" lon="6.849524471908808">
        <ele>1358.48</ele>
        <time>2012-03-24T08:50:17Z</time>
      </trkpt>
      <trkpt lat="47.054369263350964" lon="6.84954509139061">
        <ele>1358</ele>
        <time>2012-03-24T08:50:18Z</time>
      </trkpt>
      <trkpt lat="47.054393319413066" lon="6.849557915702462">
        <ele>1358</ele>
        <time>2012-03-24T08:50:19Z</time>
      </trkpt>
      <trkpt lat="47.05442039296031" lon="6.849565375596285">
        <ele>1358.48</ele>
        <time>2012-03-24T08:50:20Z</time>
      </trkpt>
      <trkpt lat="47.05444285646081" lon="6.849588258191943">
        <ele>1358.48</ele>
        <time>2012-03-24T08:50:21Z</time>
      </trkpt>
      <trkpt lat="47.054463140666485" lon="6.849604183807969">
        <ele>1359.4400000000001</ele>
        <time>2012-03-24T08:50:22Z</time>
      </trkpt>
      <trkpt lat="47.054488873109221" lon="6.849611224606633">
        <ele>1358.96</ele>
        <time>2012-03-24T08:50:23Z</time>
      </trkpt>
      <trkpt lat="47.0545141864568" lon="6.849630502983928">
        <ele>1358.96</ele>
        <time>2012-03-24T08:50:24Z</time>
      </trkpt>
      <trkpt lat="47.054536230862141" lon="6.849648607894778">
        <ele>1359.4400000000001</ele>
        <time>2012-03-24T08:50:25Z</time>
      </trkpt>
      <trkpt lat="47.054561963304877" lon="6.849656151607633">
        <ele>1359.4400000000001</ele>
        <time>2012-03-24T08:50:26Z</time>
      </trkpt>
      <trkpt lat="47.054589036852121" lon="6.849671322852373">
        <ele>1358.96</ele>
        <time>2012-03-24T08:50:27Z</time>
      </trkpt>
      <trkpt lat="47.05461485311389" lon="6.849690349772573">
        <ele>1359.4400000000001</ele>
        <time>2012-03-24T08:50:28Z</time>
      </trkpt>
      <trkpt lat="47.054641339927912" lon="6.849696887657046">
        <ele>1359.4400000000001</ele>
        <time>2012-03-24T08:50:29Z</time>
      </trkpt>
      <trkpt lat="47.054668162018061" lon="6.849709879606962">
        <ele>1359.4400000000001</ele>
        <time>2012-03-24T08:50:30Z</time>
      </trkpt>
      <trkpt lat="47.054693307727575" lon="6.849733935669065">
        <ele>1358.96</ele>
        <time>2012-03-24T08:50:31Z</time>
      </trkpt>
      <trkpt lat="47.054718118160963" lon="6.849744748324156">
        <ele>1359.9200000000001</ele>
        <time>2012-03-24T08:50:32Z</time>
      </trkpt>
      <trkpt lat="47.054745946079493" lon="6.849751370027661">
        <ele>1359.4400000000001</ele>
        <time>2012-03-24T08:50:33Z</time>
      </trkpt>
      <trkpt lat="47.054773354902864" lon="6.849769055843353">
        <ele>1359.9200000000001</ele>
        <time>2012-03-24T08:50:34Z</time>
      </trkpt>
      <trkpt lat="47.054798668250442" lon="6.849784562364221">
        <ele>1359.4400000000001</ele>
        <time>2012-03-24T08:50:35Z</time>
      </trkpt>
      <trkpt lat="47.054822389036417" lon="6.8497977219522">
        <ele>1359.9200000000001</ele>
        <time>2012-03-24T08:50:36Z</time>
      </trkpt>
      <trkpt lat="47.054849546402693" lon="6.849819347262383">
        <ele>1358.96</ele>
        <time>2012-03-24T08:50:37Z</time>
      </trkpt>
      <trkpt lat="47.054874608293176" lon="6.84983242303133">
        <ele>1359.4400000000001</ele>
        <time>2012-03-24T08:50:38Z</time>
      </trkpt>
      <trkpt lat="47.054901933297515" lon="6.849843487143517">
        <ele>1359.9200000000001</ele>
        <time>2012-03-24T08:50:39Z</time>
      </trkpt>
      <trkpt lat="47.054932359606028" lon="6.849862514063716">
        <ele>1359.4400000000001</ele>
        <time>2012-03-24T08:50:40Z</time>
      </trkpt>
      <trkpt lat="47.054959516972303" lon="6.849877182394266">
        <ele>1359.9200000000001</ele>
        <time>2012-03-24T08:50:41Z</time>
      </trkpt>
      <trkpt lat="47.054986590519547" lon="6.849885564297438">
        <ele>1360.8800000000001</ele>
        <time>2012-03-24T08:50:42Z</time>
      </trkpt>
      <trkpt lat="47.055013915523887" lon="6.849900064989924">
        <ele>1360.8800000000001</ele>
        <time>2012-03-24T08:50:43Z</time>
      </trkpt>
      <trkpt lat="47.055040402337909" lon="6.849909787997603">
        <ele>1360.4000000000001</ele>
        <time>2012-03-24T08:50:44Z</time>
      </trkpt>
      <trkpt lat="47.055068062618375" lon="6.849910374730825">
        <ele>1360.4000000000001</ele>
        <time>2012-03-24T08:50:45Z</time>
      </trkpt>
      <trkpt lat="47.05509471707046" lon="6.849920433014631">
        <ele>1360.4000000000001</ele>
        <time>2012-03-24T08:50:46Z</time>
      </trkpt>
      <trkpt lat="47.055119443684816" lon="6.849933927878737">
        <ele>1360.4000000000001</ele>
        <time>2012-03-24T08:50:47Z</time>
      </trkpt>
      <trkpt lat="47.055144170299172" lon="6.849936945363879">
        <ele>1360.4000000000001</ele>
        <time>2012-03-24T08:50:48Z</time>
      </trkpt>
      <trkpt lat="47.055168729275465" lon="6.849947087466717">
        <ele>1360.4000000000001</ele>
        <time>2012-03-24T08:50:49Z</time>
      </trkpt>
      <trkpt lat="47.055194964632392" lon="6.849962593987584">
        <ele>1360.8800000000001</ele>
        <time>2012-03-24T08:50:50Z</time>
      </trkpt>
      <trkpt lat="47.055221786722541" lon="6.849968880414963">
        <ele>1360.4000000000001</ele>
        <time>2012-03-24T08:50:51Z</time>
      </trkpt>
      <trkpt lat="47.05525103956461" lon="6.849979860708118">
        <ele>1360.8800000000001</ele>
        <time>2012-03-24T08:50:52Z</time>
      </trkpt>
      <trkpt lat="47.055279957130551" lon="6.849994193762541">
        <ele>1360.8800000000001</ele>
        <time>2012-03-24T08:50:53Z</time>
      </trkpt>
      <trkpt lat="47.055488415062428" lon="6.850084969773889">
        <ele>1360.8800000000001</ele>
        <time>2012-03-24T08:51:00Z</time>
      </trkpt>
      <trkpt lat="47.055812375620008" lon="6.850235424935818">
        <ele>1359.9200000000001</ele>
        <time>2012-03-24T08:51:09Z</time>
      </trkpt>
      <trkpt lat="47.055925698950887" lon="6.850289991125464">
        <ele>1359.4400000000001</ele>
        <time>2012-03-24T08:51:12Z</time>
      </trkpt>
      <trkpt lat="47.055995352566242" lon="6.850234754383564">
        <ele>1357.04</ele>
        <time>2012-03-24T08:51:16Z</time>
      </trkpt>
      <trkpt lat="47.055943552404642" lon="6.850166860967875">
        <ele>1358</ele>
        <time>2012-03-24T08:51:19Z</time>
      </trkpt>
      <trkpt lat="47.055805251002312" lon="6.849958403035998">
        <ele>1358.96</ele>
        <time>2012-03-24T08:51:27Z</time>
      </trkpt>
      <trkpt lat="47.055670553818345" lon="6.84976109303534">
        <ele>1359.9200000000001</ele>
        <time>2012-03-24T08:51:34Z</time>
      </trkpt>
      <trkpt lat="47.055503502488136" lon="6.84955095872283">
        <ele>1360.4000000000001</ele>
        <time>2012-03-24T08:51:41Z</time>
      </trkpt>
      <trkpt lat="47.055463101714849" lon="6.849492453038693">
        <ele>1359.9200000000001</ele>
        <time>2012-03-24T08:51:43Z</time>
      </trkpt>
      <trkpt lat="47.055249949917197" lon="6.84925633482635">
        <ele>1362.3299999999999</ele>
        <time>2012-03-24T08:51:52Z</time>
      </trkpt>
      <trkpt lat="47.055200831964612" lon="6.849205708131194">
        <ele>1362.3299999999999</ele>
        <time>2012-03-24T08:51:54Z</time>
      </trkpt>
      <trkpt lat="47.055152636021376" lon="6.849151393398643">
        <ele>1362.3299999999999</ele>
        <time>2012-03-24T08:51:56Z</time>
      </trkpt>
      <trkpt lat="47.054955158382654" lon="6.848875796422362">
        <ele>1361.8399999999999</ele>
        <time>2012-03-24T08:52:04Z</time>
      </trkpt>
      <trkpt lat="47.054718872532248" lon="6.848536999896169">
        <ele>1361.3599999999999</ele>
        <time>2012-03-24T08:52:12Z</time>
      </trkpt>
      <trkpt lat="47.054459620267153" lon="6.848164675757289">
        <ele>1360.4000000000001</ele>
        <time>2012-03-24T08:52:20Z</time>
      </trkpt>
      <trkpt lat="47.054423158988357" lon="6.848114971071482">
        <ele>1359.9200000000001</ele>
        <time>2012-03-24T08:52:21Z</time>
      </trkpt>
      <trkpt lat="47.054261723533273" lon="6.8478774279356">
        <ele>1359.4400000000001</ele>
        <time>2012-03-24T08:52:26Z</time>
      </trkpt>
      <trkpt lat="47.05402166582644" lon="6.847483227029443">
        <ele>1358.48</ele>
        <time>2012-03-24T08:52:34Z</time>
      </trkpt>
      <trkpt lat="47.053963830694556" lon="6.847377866506577">
        <ele>1358</ele>
        <time>2012-03-24T08:52:36Z</time>
      </trkpt>
      <trkpt lat="47.053688317537308" lon="6.846868162974715">
        <ele>1356.5599999999999</ele>
        <time>2012-03-24T08:52:46Z</time>
      </trkpt>
      <trkpt lat="47.053408026695251" lon="6.846362985670567">
        <ele>1355.1199999999999</ele>
        <time>2012-03-24T08:52:55Z</time>
      </trkpt>
      <trkpt lat="47.053370224311948" lon="6.846294589340687">
        <ele>1354.6300000000001</ele>
        <time>2012-03-24T08:52:56Z</time>
      </trkpt>
      <trkpt lat="47.053080545738339" lon="6.845783041790128">
        <ele>1351.27</ele>
        <time>2012-03-24T08:53:03Z</time>
      </trkpt>
      <trkpt lat="47.052939645946026" lon="6.845523621886969">
        <ele>1350.79</ele>
        <time>2012-03-24T08:53:07Z</time>
      </trkpt>
      <trkpt lat="47.052910225465894" lon="6.845475425943732">
        <ele>1350.79</ele>
        <time>2012-03-24T08:53:08Z</time>
      </trkpt>
      <trkpt lat="47.052884828299284" lon="6.845424212515354">
        <ele>1351.75</ele>
        <time>2012-03-24T08:53:09Z</time>
      </trkpt>
      <trkpt lat="47.052861526608467" lon="6.845385991036892">
        <ele>1351.27</ele>
        <time>2012-03-24T08:53:10Z</time>
      </trkpt>
      <trkpt lat="47.052838727831841" lon="6.845353301614523">
        <ele>1351.27</ele>
        <time>2012-03-24T08:53:11Z</time>
      </trkpt>
      <trkpt lat="47.052821964025497" lon="6.845316756516695">
        <ele>1352.23</ele>
        <time>2012-03-24T08:53:12Z</time>
      </trkpt>
      <trkpt lat="47.052788939327002" lon="6.845258502289653">
        <ele>1351.75</ele>
        <time>2012-03-24T08:53:14Z</time>
      </trkpt>
      <trkpt lat="47.052775360643864" lon="6.84521927498281">
        <ele>1352.23</ele>
        <time>2012-03-24T08:53:15Z</time>
      </trkpt>
      <trkpt lat="47.052760692313313" lon="6.845188932493329">
        <ele>1352.71</ele>
        <time>2012-03-24T08:53:16Z</time>
      </trkpt>
      <trkpt lat="47.052741749212146" lon="6.845160182565451">
        <ele>1353.1900000000001</ele>
        <time>2012-03-24T08:53:17Z</time>
      </trkpt>
      <trkpt lat="47.052726494148374" lon="6.845121290534735">
        <ele>1352.71</ele>
        <time>2012-03-24T08:53:18Z</time>
      </trkpt>
      <trkpt lat="47.052713083103299" lon="6.845086505636573">
        <ele>1353.1900000000001</ele>
        <time>2012-03-24T08:53:19Z</time>
      </trkpt>
      <trkpt lat="47.052692715078592" lon="6.845060857012868">
        <ele>1353.6700000000001</ele>
        <time>2012-03-24T08:53:20Z</time>
      </trkpt>
      <trkpt lat="47.052675699815154" lon="6.845028335228562">
        <ele>1354.1500000000001</ele>
        <time>2012-03-24T08:53:21Z</time>
      </trkpt>
      <trkpt lat="47.05266036093235" lon="6.844993801787496">
        <ele>1353.6700000000001</ele>
        <time>2012-03-24T08:53:22Z</time>
      </trkpt>
      <trkpt lat="47.052640412002802" lon="6.844963459298015">
        <ele>1354.1500000000001</ele>
        <time>2012-03-24T08:53:23Z</time>
      </trkpt>
      <trkpt lat="47.052623732015491" lon="6.844923812896013">
        <ele>1354.1500000000001</ele>
        <time>2012-03-24T08:53:24Z</time>
      </trkpt>
      <trkpt lat="47.052607638761401" lon="6.844888022169471">
        <ele>1354.1500000000001</ele>
        <time>2012-03-24T08:53:25Z</time>
      </trkpt>
      <trkpt lat="47.052589198574424" lon="6.844855081290007">
        <ele>1354.1500000000001</ele>
        <time>2012-03-24T08:53:26Z</time>
      </trkpt>
      <trkpt lat="47.052573105320334" lon="6.844813004136086">
        <ele>1354.1500000000001</ele>
        <time>2012-03-24T08:53:27Z</time>
      </trkpt>
      <trkpt lat="47.052555419504642" lon="6.844770340248942">
        <ele>1354.1500000000001</ele>
        <time>2012-03-24T08:53:28Z</time>
      </trkpt>
      <trkpt lat="47.052533123642206" lon="6.844733040779829">
        <ele>1354.1500000000001</ele>
        <time>2012-03-24T08:53:29Z</time>
      </trkpt>
      <trkpt lat="47.052436228841543" lon="6.844571772962809">
        <ele>1354.1500000000001</ele>
        <time>2012-03-24T08:53:33Z</time>
      </trkpt>
      <trkpt lat="47.05241309478879" lon="6.844528438523412">
        <ele>1354.1500000000001</ele>
        <time>2012-03-24T08:53:34Z</time>
      </trkpt>
      <trkpt lat="47.052386272698641" lon="6.844485606998205">
        <ele>1353.6700000000001</ele>
        <time>2012-03-24T08:53:35Z</time>
      </trkpt>
      <trkpt lat="47.052360540255904" lon="6.844434393569827">
        <ele>1353.6700000000001</ele>
        <time>2012-03-24T08:53:36Z</time>
      </trkpt>
      <trkpt lat="47.05233246088028" lon="6.844386532902718">
        <ele>1353.6700000000001</ele>
        <time>2012-03-24T08:53:37Z</time>
      </trkpt>
      <trkpt lat="47.052302034571767" lon="6.844343617558479">
        <ele>1353.1900000000001</ele>
        <time>2012-03-24T08:53:38Z</time>
      </trkpt>
      <trkpt lat="47.052273787558079" lon="6.844296846538782">
        <ele>1353.1900000000001</ele>
        <time>2012-03-24T08:53:39Z</time>
      </trkpt>
      <trkpt lat="47.052244702354074" lon="6.844252003356814">
        <ele>1353.1900000000001</ele>
        <time>2012-03-24T08:53:40Z</time>
      </trkpt>
      <trkpt lat="47.052215868607163" lon="6.844206489622593">
        <ele>1352.71</ele>
        <time>2012-03-24T08:53:41Z</time>
      </trkpt>
      <trkpt lat="47.052187956869602" lon="6.844160975888372">
        <ele>1353.1900000000001</ele>
        <time>2012-03-24T08:53:42Z</time>
      </trkpt>
      <trkpt lat="47.052156860008836" lon="6.844119988381863">
        <ele>1352.71</ele>
        <time>2012-03-24T08:53:43Z</time>
      </trkpt>
      <trkpt lat="47.052129618823528" lon="6.844072211533785">
        <ele>1352.71</ele>
        <time>2012-03-24T08:53:44Z</time>
      </trkpt>
      <trkpt lat="47.052103383466601" lon="6.844027619808912">
        <ele>1353.1900000000001</ele>
        <time>2012-03-24T08:53:45Z</time>
      </trkpt>
      <trkpt lat="47.05207790248096" lon="6.843984704464674">
        <ele>1352.71</ele>
        <time>2012-03-24T08:53:46Z</time>
      </trkpt>
      <trkpt lat="47.052054181694984" lon="6.843939190730453">
        <ele>1352.71</ele>
        <time>2012-03-24T08:53:47Z</time>
      </trkpt>
      <trkpt lat="47.052029371261597" lon="6.843898370862007">
        <ele>1352.71</ele>
        <time>2012-03-24T08:53:48Z</time>
      </trkpt>
      <trkpt lat="47.052007662132382" lon="6.843855539336801">
        <ele>1352.71</ele>
        <time>2012-03-24T08:53:49Z</time>
      </trkpt>
      <trkpt lat="47.051987964659929" lon="6.843812707811594">
        <ele>1352.71</ele>
        <time>2012-03-24T08:53:50Z</time>
      </trkpt>
      <trkpt lat="47.051964914426208" lon="6.843773731961846">
        <ele>1352.71</ele>
        <time>2012-03-24T08:53:51Z</time>
      </trkpt>
      <trkpt lat="47.051945803686976" lon="6.843729391694069">
        <ele>1352.71</ele>
        <time>2012-03-24T08:53:52Z</time>
      </trkpt>
      <trkpt lat="47.05192593857646" lon="6.843688655644655">
        <ele>1352.71</ele>
        <time>2012-03-24T08:53:53Z</time>
      </trkpt>
      <trkpt lat="47.051905151456594" lon="6.843648254871368">
        <ele>1352.71</ele>
        <time>2012-03-24T08:53:54Z</time>
      </trkpt>
      <trkpt lat="47.051886040717363" lon="6.843605171889067">
        <ele>1352.71</ele>
        <time>2012-03-24T08:53:55Z</time>
      </trkpt>
      <trkpt lat="47.051865924149752" lon="6.843562256544828">
        <ele>1352.23</ele>
        <time>2012-03-24T08:53:56Z</time>
      </trkpt>
      <trkpt lat="47.051848070695996" lon="6.843514647334814">
        <ele>1352.23</ele>
        <time>2012-03-24T08:53:57Z</time>
      </trkpt>
      <trkpt lat="47.051827535033226" lon="6.84347340837121">
        <ele>1352.71</ele>
        <time>2012-03-24T08:53:58Z</time>
      </trkpt>
      <trkpt lat="47.051805909723043" lon="6.843432588502765">
        <ele>1352.71</ele>
        <time>2012-03-24T08:53:59Z</time>
      </trkpt>
      <trkpt lat="47.051787050440907" lon="6.843389170244336">
        <ele>1352.71</ele>
        <time>2012-03-24T08:54:00Z</time>
      </trkpt>
      <trkpt lat="47.051763748750091" lon="6.843347428366542">
        <ele>1352.23</ele>
        <time>2012-03-24T08:54:01Z</time>
      </trkpt>
      <trkpt lat="47.051741704344749" lon="6.843299986794591">
        <ele>1352.23</ele>
        <time>2012-03-24T08:54:02Z</time>
      </trkpt>
      <trkpt lat="47.051718570291996" lon="6.843253802508116">
        <ele>1352.23</ele>
        <time>2012-03-24T08:54:03Z</time>
      </trkpt>
      <trkpt lat="47.051692167297006" lon="6.843207534402609">
        <ele>1352.23</ele>
        <time>2012-03-24T08:54:04Z</time>
      </trkpt>
      <trkpt lat="47.051664842292666" lon="6.843155566602945">
        <ele>1352.23</ele>
        <time>2012-03-24T08:54:05Z</time>
      </trkpt>
      <trkpt lat="47.051635589450598" lon="6.843104269355536">
        <ele>1351.27</ele>
        <time>2012-03-24T08:54:06Z</time>
      </trkpt>
      <trkpt lat="47.051606168970466" lon="6.843049954622984">
        <ele>1351.75</ele>
        <time>2012-03-24T08:54:07Z</time>
      </trkpt>
      <trkpt lat="47.051576329395175" lon="6.842998322099447">
        <ele>1351.27</ele>
        <time>2012-03-24T08:54:08Z</time>
      </trkpt>
      <trkpt lat="47.051545651629567" lon="6.842946019023657">
        <ele>1351.27</ele>
        <time>2012-03-24T08:54:09Z</time>
      </trkpt>
      <trkpt lat="47.051515728235245" lon="6.842893213033676">
        <ele>1350.79</ele>
        <time>2012-03-24T08:54:10Z</time>
      </trkpt>
      <trkpt lat="47.051483877003193" lon="6.842840407043695">
        <ele>1350.79</ele>
        <time>2012-03-24T08:54:11Z</time>
      </trkpt>
      <trkpt lat="47.051450265571475" lon="6.842786846682429">
        <ele>1350.3099999999999</ele>
        <time>2012-03-24T08:54:12Z</time>
      </trkpt>
      <trkpt lat="47.051416151225567" lon="6.842731358483434">
        <ele>1350.3099999999999</ele>
        <time>2012-03-24T08:54:13Z</time>
      </trkpt>
      <trkpt lat="47.051380528137088" lon="6.84267109259963">
        <ele>1349.8299999999999</ele>
        <time>2012-03-24T08:54:14Z</time>
      </trkpt>
      <trkpt lat="47.051341217011213" lon="6.842610742896795">
        <ele>1349.3499999999999</ele>
        <time>2012-03-24T08:54:15Z</time>
      </trkpt>
      <trkpt lat="47.051302576437593" lon="6.842542514204979">
        <ele>1348.8699999999999</ele>
        <time>2012-03-24T08:54:16Z</time>
      </trkpt>
      <trkpt lat="47.05126041546464" lon="6.842470681294799">
        <ele>1348.8699999999999</ele>
        <time>2012-03-24T08:54:17Z</time>
      </trkpt>
      <trkpt lat="47.051215237006545" lon="6.842397088184953">
        <ele>1347.9100000000001</ele>
        <time>2012-03-24T08:54:18Z</time>
      </trkpt>
      <trkpt lat="47.051125969737768" lon="6.842240262776613">
        <ele>1347.4300000000001</ele>
        <time>2012-03-24T08:54:20Z</time>
      </trkpt>
      <trkpt lat="47.051034439355135" lon="6.842080671340227">
        <ele>1345.98</ele>
        <time>2012-03-24T08:54:22Z</time>
      </trkpt>
      <trkpt lat="47.050985656678677" lon="6.842006994411349">
        <ele>1345.98</ele>
        <time>2012-03-24T08:54:23Z</time>
      </trkpt>
      <trkpt lat="47.050844840705395" lon="6.841785795986652">
        <ele>1345.02</ele>
        <time>2012-03-24T08:54:26Z</time>
      </trkpt>
      <trkpt lat="47.050800919532776" lon="6.84171237051487">
        <ele>1344.54</ele>
        <time>2012-03-24T08:54:27Z</time>
      </trkpt>
      <trkpt lat="47.050718860700727" lon="6.841569626703858">
        <ele>1344.0599999999999</ele>
        <time>2012-03-24T08:54:29Z</time>
      </trkpt>
      <trkpt lat="47.050681142136455" lon="6.841501398012042">
        <ele>1344.0599999999999</ele>
        <time>2012-03-24T08:54:30Z</time>
      </trkpt>
      <trkpt lat="47.05061056651175" lon="6.84138304553926">
        <ele>1344.0599999999999</ele>
        <time>2012-03-24T08:54:32Z</time>
      </trkpt>
      <trkpt lat="47.050585420802236" lon="6.841325461864471">
        <ele>1344.0599999999999</ele>
        <time>2012-03-24T08:54:33Z</time>
      </trkpt>
      <trkpt lat="47.05053873360157" lon="6.841223957017064">
        <ele>1344.0599999999999</ele>
        <time>2012-03-24T08:54:35Z</time>
      </trkpt>
      <trkpt lat="47.05052062869072" lon="6.841174252331257">
        <ele>1344.0599999999999</ele>
        <time>2012-03-24T08:54:36Z</time>
      </trkpt>
      <trkpt lat="47.050503110513091" lon="6.841125218197703">
        <ele>1344.54</ele>
        <time>2012-03-24T08:54:37Z</time>
      </trkpt>
      <trkpt lat="47.050387104973197" lon="6.840671505779028">
        <ele>1345.02</ele>
        <time>2012-03-24T08:54:46Z</time>
      </trkpt>
      <trkpt lat="47.050376124680042" lon="6.840618280693889">
        <ele>1344.54</ele>
        <time>2012-03-24T08:54:47Z</time>
      </trkpt>
      <trkpt lat="47.050363887101412" lon="6.84056555852294">
        <ele>1344.54</ele>
        <time>2012-03-24T08:54:48Z</time>
      </trkpt>
      <trkpt lat="47.050320049747825" lon="6.840398004278541">
        <ele>1344.54</ele>
        <time>2012-03-24T08:54:51Z</time>
      </trkpt>
      <trkpt lat="47.050302950665355" lon="6.840341845527291">
        <ele>1344.0599999999999</ele>
        <time>2012-03-24T08:54:52Z</time>
      </trkpt>
      <trkpt lat="47.050266992300749" lon="6.840231707319617">
        <ele>1344.0599999999999</ele>
        <time>2012-03-24T08:54:54Z</time>
      </trkpt>
      <trkpt lat="47.050248216837645" lon="6.840175548568368">
        <ele>1344.0599999999999</ele>
        <time>2012-03-24T08:54:55Z</time>
      </trkpt>
      <trkpt lat="47.05017420463264" lon="6.840022495016456">
        <ele>1344.0599999999999</ele>
        <time>2012-03-24T08:54:58Z</time>
      </trkpt>
      <trkpt lat="47.050143275409937" lon="6.839966839179397">
        <ele>1344.0599999999999</ele>
        <time>2012-03-24T08:54:59Z</time>
      </trkpt>
      <trkpt lat="47.050079824402928" lon="6.839848151430488">
        <ele>1343.0999999999999</ele>
        <time>2012-03-24T08:55:01Z</time>
      </trkpt>
      <trkpt lat="47.050042022019625" lon="6.839796015992761">
        <ele>1343.0999999999999</ele>
        <time>2012-03-24T08:55:02Z</time>
      </trkpt>
      <trkpt lat="47.049904307350516" lon="6.839593509212136">
        <ele>1341.6600000000001</ele>
        <time>2012-03-24T08:55:06Z</time>
      </trkpt>
      <trkpt lat="47.049875389784575" lon="6.839537685737014">
        <ele>1341.6600000000001</ele>
        <time>2012-03-24T08:55:07Z</time>
      </trkpt>
      <trkpt lat="47.049826942384243" lon="6.83933668769896">
        <ele>1340.22</ele>
        <time>2012-03-24T08:55:10Z</time>
      </trkpt>
      <trkpt lat="47.049831468611956" lon="6.839271811768413">
        <ele>1339.73</ele>
        <time>2012-03-24T08:55:11Z</time>
      </trkpt>
      <trkpt lat="47.049845298752189" lon="6.839215401560068">
        <ele>1339.73</ele>
        <time>2012-03-24T08:55:12Z</time>
      </trkpt>
      <trkpt lat="47.04986491240561" lon="6.839169133454561">
        <ele>1340.22</ele>
        <time>2012-03-24T08:55:13Z</time>
      </trkpt>
      <trkpt lat="47.049892405048013" lon="6.839134013280273">
        <ele>1339.73</ele>
        <time>2012-03-24T08:55:14Z</time>
      </trkpt>
      <trkpt lat="47.049928698688745" lon="6.839110711589456">
        <ele>1339.73</ele>
        <time>2012-03-24T08:55:15Z</time>
      </trkpt>
      <trkpt lat="47.04997144639492" lon="6.839097216725349">
        <ele>1339.73</ele>
        <time>2012-03-24T08:55:16Z</time>
      </trkpt>
      <trkpt lat="47.050016792491078" lon="6.839094283059239">
        <ele>1339.25</ele>
        <time>2012-03-24T08:55:17Z</time>
      </trkpt>
      <trkpt lat="47.050059037283063" lon="6.839095205068588">
        <ele>1339.25</ele>
        <time>2012-03-24T08:55:18Z</time>
      </trkpt>
      <trkpt lat="47.050099018961191" lon="6.839104257524014">
        <ele>1339.25</ele>
        <time>2012-03-24T08:55:19Z</time>
      </trkpt>
      <trkpt lat="47.050134474411607" lon="6.839122110977769">
        <ele>1339.25</ele>
        <time>2012-03-24T08:55:20Z</time>
      </trkpt>
      <trkpt lat="47.050270093604922" lon="6.839221101254225">
        <ele>1338.77</ele>
        <time>2012-03-24T08:55:24Z</time>
      </trkpt>
      <trkpt lat="47.050303956493735" lon="6.83925798162818">
        <ele>1338.29</ele>
        <time>2012-03-24T08:55:25Z</time>
      </trkpt>
      <trkpt lat="47.050336813554168" lon="6.839290168136358">
        <ele>1338.29</ele>
        <time>2012-03-24T08:55:26Z</time>
      </trkpt>
      <trkpt lat="47.05036673694849" lon="6.839324617758393">
        <ele>1337.3299999999999</ele>
        <time>2012-03-24T08:55:27Z</time>
      </trkpt>
      <trkpt lat="47.050395738333464" lon="6.839359318837524">
        <ele>1337.3299999999999</ele>
        <time>2012-03-24T08:55:28Z</time>
      </trkpt>
      <trkpt lat="47.050604363903403" lon="6.83962594717741">
        <ele>1333.97</ele>
        <time>2012-03-24T08:55:36Z</time>
      </trkpt>
      <trkpt lat="47.050716262310743" lon="6.839759470894933">
        <ele>1331.0799999999999</ele>
        <time>2012-03-24T08:55:41Z</time>
      </trkpt>
      <trkpt lat="47.050934359431267" lon="6.840053759515286">
        <ele>1326.76</ele>
        <time>2012-03-24T08:55:46Z</time>
      </trkpt>
      <trkpt lat="47.050997307524085" lon="6.840118886902928">
        <ele>1325.8</ele>
        <time>2012-03-24T08:55:47Z</time>
      </trkpt>
      <trkpt lat="47.051071571186185" lon="6.840175297111273">
        <ele>1324.8299999999999</ele>
        <time>2012-03-24T08:55:48Z</time>
      </trkpt>
      <trkpt lat="47.051237113773823" lon="6.84027437120676">
        <ele>1323.3900000000001</ele>
        <time>2012-03-24T08:55:50Z</time>
      </trkpt>
      <trkpt lat="47.051311964169145" lon="6.840330865234137">
        <ele>1323.3900000000001</ele>
        <time>2012-03-24T08:55:51Z</time>
      </trkpt>
      <trkpt lat="47.051707170903683" lon="6.840683659538627">
        <ele>1322.9100000000001</ele>
        <time>2012-03-24T08:55:59Z</time>
      </trkpt>
      <trkpt lat="47.051737681031227" lon="6.840722216293216">
        <ele>1324.3499999999999</ele>
        <time>2012-03-24T08:56:00Z</time>
      </trkpt>
      <trkpt lat="47.051822505891323" lon="6.840831767767668">
        <ele>1323.3900000000001</ele>
        <time>2012-03-24T08:56:03Z</time>
      </trkpt>
      <trkpt lat="47.051845137029886" lon="6.840876443311572">
        <ele>1323.3900000000001</ele>
        <time>2012-03-24T08:56:04Z</time>
      </trkpt>
      <trkpt lat="47.052039681002498" lon="6.841197134926915">
        <ele>1323.8699999999999</ele>
        <time>2012-03-24T08:56:13Z</time>
      </trkpt>
      <trkpt lat="47.052057115361094" lon="6.84123108163476">
        <ele>1323.3900000000001</ele>
        <time>2012-03-24T08:56:14Z</time>
      </trkpt>
      <trkpt lat="47.052078237757087" lon="6.841259161010385">
        <ele>1323.8699999999999</ele>
        <time>2012-03-24T08:56:15Z</time>
      </trkpt>
      <trkpt lat="47.052096761763096" lon="6.841292437165976">
        <ele>1324.3499999999999</ele>
        <time>2012-03-24T08:56:16Z</time>
      </trkpt>
      <trkpt lat="47.052115118131042" lon="6.84133124537766">
        <ele>1323.8699999999999</ele>
        <time>2012-03-24T08:56:17Z</time>
      </trkpt>
      <trkpt lat="47.052137916907668" lon="6.841361587867141">
        <ele>1324.3499999999999</ele>
        <time>2012-03-24T08:56:18Z</time>
      </trkpt>
      <trkpt lat="47.052177060395479" lon="6.841433756053448">
        <ele>1323.8699999999999</ele>
        <time>2012-03-24T08:56:20Z</time>
      </trkpt>
      <trkpt lat="47.052224082872272" lon="6.841500140726566">
        <ele>1324.8299999999999</ele>
        <time>2012-03-24T08:56:22Z</time>
      </trkpt>
      <trkpt lat="47.052245205268264" lon="6.841538362205029">
        <ele>1324.3499999999999</ele>
        <time>2012-03-24T08:56:23Z</time>
      </trkpt>
      <trkpt lat="47.052268842235208" lon="6.841564765200019">
        <ele>1324.8299999999999</ele>
        <time>2012-03-24T08:56:24Z</time>
      </trkpt>
      <trkpt lat="47.052291724830866" lon="6.841598795726895">
        <ele>1325.3099999999999</ele>
        <time>2012-03-24T08:56:25Z</time>
      </trkpt>
      <trkpt lat="47.052311170846224" lon="6.841636514291167">
        <ele>1325.3099999999999</ele>
        <time>2012-03-24T08:56:26Z</time>
      </trkpt>
      <trkpt lat="47.052332628518343" lon="6.841667694970965">
        <ele>1324.8299999999999</ele>
        <time>2012-03-24T08:56:27Z</time>
      </trkpt>
      <trkpt lat="47.052354170009494" lon="6.841703401878476">
        <ele>1325.3099999999999</ele>
        <time>2012-03-24T08:56:28Z</time>
      </trkpt>
      <trkpt lat="47.052373364567757" lon="6.841739527881146">
        <ele>1325.3099999999999</ele>
        <time>2012-03-24T08:56:29Z</time>
      </trkpt>
      <trkpt lat="47.052395828068256" lon="6.841768361628056">
        <ele>1325.3099999999999</ele>
        <time>2012-03-24T08:56:30Z</time>
      </trkpt>
      <trkpt lat="47.052414938807487" lon="6.841805661097169">
        <ele>1325.8</ele>
        <time>2012-03-24T08:56:31Z</time>
      </trkpt>
      <trkpt lat="47.052432456985116" lon="6.841842038556933">
        <ele>1326.28</ele>
        <time>2012-03-24T08:56:32Z</time>
      </trkpt>
      <trkpt lat="47.052453998476267" lon="6.841863663867116">
        <ele>1325.3099999999999</ele>
        <time>2012-03-24T08:56:33Z</time>
      </trkpt>
      <trkpt lat="47.052476797252893" lon="6.841892413794994">
        <ele>1326.28</ele>
        <time>2012-03-24T08:56:34Z</time>
      </trkpt>
      <trkpt lat="47.052496578544378" lon="6.841928204521537">
        <ele>1326.76</ele>
        <time>2012-03-24T08:56:35Z</time>
      </trkpt>
      <trkpt lat="47.052514934912324" lon="6.841962151229382">
        <ele>1326.76</ele>
        <time>2012-03-24T08:56:36Z</time>
      </trkpt>
      <trkpt lat="47.052608141675591" lon="6.842115623876452">
        <ele>1327.24</ele>
        <time>2012-03-24T08:56:41Z</time>
      </trkpt>
      <trkpt lat="47.052673101425171" lon="6.842194413766265">
        <ele>1327.72</ele>
        <time>2012-03-24T08:56:44Z</time>
      </trkpt>
      <trkpt lat="47.052734037861228" lon="6.842272281646729">
        <ele>1327.72</ele>
        <time>2012-03-24T08:56:47Z</time>
      </trkpt>
      <trkpt lat="47.05281819216907" lon="6.842378145083785">
        <ele>1328.2</ele>
        <time>2012-03-24T08:56:51Z</time>
      </trkpt>
      <trkpt lat="47.052853563800454" lon="6.842437824234366">
        <ele>1327.72</ele>
        <time>2012-03-24T08:56:53Z</time>
      </trkpt>
      <trkpt lat="47.052995469421148" lon="6.842707805335522">
        <ele>1328.2</ele>
        <time>2012-03-24T08:57:01Z</time>
      </trkpt>
      <trkpt lat="47.053128154948354" lon="6.84293981641531">
        <ele>1330.1199999999999</ele>
        <time>2012-03-24T08:57:09Z</time>
      </trkpt>
      <trkpt lat="47.053259750828147" lon="6.843159254640341">
        <ele>1330.1199999999999</ele>
        <time>2012-03-24T08:57:17Z</time>
      </trkpt>
      <trkpt lat="47.053331332281232" lon="6.843286072835326">
        <ele>1330.5999999999999</ele>
        <time>2012-03-24T08:57:21Z</time>
      </trkpt>
      <trkpt lat="47.053367961198092" lon="6.843354636803269">
        <ele>1330.5999999999999</ele>
        <time>2012-03-24T08:57:23Z</time>
      </trkpt>
      <trkpt lat="47.053532414138317" lon="6.843637609854341">
        <ele>1331.0799999999999</ele>
        <time>2012-03-24T08:57:32Z</time>
      </trkpt>
      <trkpt lat="47.053565438836813" lon="6.843712795525789">
        <ele>1331.0799999999999</ele>
        <time>2012-03-24T08:57:34Z</time>
      </trkpt>
      <trkpt lat="47.053705584257841" lon="6.843943297863007">
        <ele>1331.5599999999999</ele>
        <time>2012-03-24T08:57:41Z</time>
      </trkpt>
      <trkpt lat="47.053846484050155" lon="6.844176817685366">
        <ele>1331.5599999999999</ele>
        <time>2012-03-24T08:57:48Z</time>
      </trkpt>
      <trkpt lat="47.054014122113585" lon="6.844461048021913">
        <ele>1332.52</ele>
        <time>2012-03-24T08:57:57Z</time>
      </trkpt>
      <trkpt lat="47.054152842611074" lon="6.844702446833253">
        <ele>1333.49</ele>
        <time>2012-03-24T08:58:05Z</time>
      </trkpt>
      <trkpt lat="47.05420196056366" lon="6.844800096005201">
        <ele>1333.49</ele>
        <time>2012-03-24T08:58:08Z</time>
      </trkpt>
      <trkpt lat="47.054235655814409" lon="6.844865139573813">
        <ele>1334.45</ele>
        <time>2012-03-24T08:58:10Z</time>
      </trkpt>
      <trkpt lat="47.054317547008395" lon="6.845019701868296">
        <ele>1335.4100000000001</ele>
        <time>2012-03-24T08:58:15Z</time>
      </trkpt>
      <trkpt lat="47.05444629304111" lon="6.84525883756578">
        <ele>1335.4100000000001</ele>
        <time>2012-03-24T08:58:23Z</time>
      </trkpt>
      <trkpt lat="47.05455819144845" lon="6.845470229163766">
        <ele>1336.3699999999999</ele>
        <time>2012-03-24T08:58:30Z</time>
      </trkpt>
      <trkpt lat="47.054673694074154" lon="6.845660582184792">
        <ele>1337.3299999999999</ele>
        <time>2012-03-24T08:58:37Z</time>
      </trkpt>
      <trkpt lat="47.054802188649774" lon="6.845890749245882">
        <ele>1338.29</ele>
        <time>2012-03-24T08:58:45Z</time>
      </trkpt>
      <trkpt lat="47.054917355999351" lon="6.84607582166791">
        <ele>1338.77</ele>
        <time>2012-03-24T08:58:52Z</time>
      </trkpt>
      <trkpt lat="47.05503118224442" lon="6.846296181902289">
        <ele>1339.25</ele>
        <time>2012-03-24T08:59:00Z</time>
      </trkpt>
      <trkpt lat="47.055128999054432" lon="6.846476392820478">
        <ele>1340.22</ele>
        <time>2012-03-24T08:59:07Z</time>
      </trkpt>
      <trkpt lat="47.055229414254427" lon="6.846674960106611">
        <ele>1341.1800000000001</ele>
        <time>2012-03-24T08:59:14Z</time>
      </trkpt>
      <trkpt lat="47.05533167347312" lon="6.846860954537988">
        <ele>1342.1400000000001</ele>
        <time>2012-03-24T08:59:21Z</time>
      </trkpt>
      <trkpt lat="47.055444493889809" lon="6.847046026960015">
        <ele>1343.0999999999999</ele>
        <time>2012-03-24T08:59:28Z</time>
      </trkpt>
      <trkpt lat="47.055565528571606" lon="6.847266806289554">
        <ele>1344.0599999999999</ele>
        <time>2012-03-24T08:59:36Z</time>
      </trkpt>
      <trkpt lat="47.05558086745441" lon="6.847290946170688">
        <ele>1344.54</ele>
        <time>2012-03-24T08:59:37Z</time>
      </trkpt>
      <trkpt lat="47.055730652064085" lon="6.847549695521593">
        <ele>1345.02</ele>
        <time>2012-03-24T08:59:46Z</time>
      </trkpt>
      <trkpt lat="47.055799718946218" lon="6.847656229510903">
        <ele>1345.5</ele>
        <time>2012-03-24T08:59:50Z</time>
      </trkpt>
      <trkpt lat="47.055864175781608" lon="6.847771732136607">
        <ele>1345.5</ele>
        <time>2012-03-24T08:59:54Z</time>
      </trkpt>
      <trkpt lat="47.056028041988611" lon="6.848038779571652">
        <ele>1346.9400000000001</ele>
        <time>2012-03-24T09:00:03Z</time>
      </trkpt>
      <trkpt lat="47.056150166317821" lon="6.848255032673478">
        <ele>1347.4300000000001</ele>
        <time>2012-03-24T09:00:10Z</time>
      </trkpt>
      <trkpt lat="47.056350158527493" lon="6.848518056795001">
        <ele>1347.9100000000001</ele>
        <time>2012-03-24T09:00:19Z</time>
      </trkpt>
      <trkpt lat="47.056577894836664" lon="6.848772363737226">
        <ele>1347.9100000000001</ele>
        <time>2012-03-24T09:00:28Z</time>
      </trkpt>
      <trkpt lat="47.056734384968877" lon="6.848930446431041">
        <ele>1347.4300000000001</ele>
        <time>2012-03-24T09:00:33Z</time>
      </trkpt>
      <trkpt lat="47.056766906753182" lon="6.848964979872108">
        <ele>1347.9100000000001</ele>
        <time>2012-03-24T09:00:34Z</time>
      </trkpt>
      <trkpt lat="47.056799260899425" lon="6.848997501656413">
        <ele>1347.4300000000001</ele>
        <time>2012-03-24T09:00:35Z</time>
      </trkpt>
      <trkpt lat="47.056826669722795" lon="6.849037567153573">
        <ele>1347.4300000000001</ele>
        <time>2012-03-24T09:00:36Z</time>
      </trkpt>
      <trkpt lat="47.056852988898754" lon="6.849076375365257">
        <ele>1347.4300000000001</ele>
        <time>2012-03-24T09:00:37Z</time>
      </trkpt>
      <trkpt lat="47.056882074102759" lon="6.849111244082451">
        <ele>1347.4300000000001</ele>
        <time>2012-03-24T09:00:38Z</time>
      </trkpt>
      <trkpt lat="47.056910824030638" lon="6.849149381741881">
        <ele>1347.4300000000001</ele>
        <time>2012-03-24T09:00:39Z</time>
      </trkpt>
      <trkpt lat="47.057103859260678" lon="6.849426152184606">
        <ele>1345.02</ele>
        <time>2012-03-24T09:00:46Z</time>
      </trkpt>
      <trkpt lat="47.057117354124784" lon="6.849479712545872">
        <ele>1345.02</ele>
        <time>2012-03-24T09:00:47Z</time>
      </trkpt>
      <trkpt lat="47.057122131809592" lon="6.849531596526504">
        <ele>1345.5</ele>
        <time>2012-03-24T09:00:48Z</time>
      </trkpt>
      <trkpt lat="47.057116515934467" lon="6.849577110260725">
        <ele>1345.02</ele>
        <time>2012-03-24T09:00:49Z</time>
      </trkpt>
      <trkpt lat="47.057070834562182" lon="6.849626898765564">
        <ele>1345.5</ele>
        <time>2012-03-24T09:00:51Z</time>
      </trkpt>
      <trkpt lat="47.056874949485064" lon="6.849666126072407">
        <ele>1347.9100000000001</ele>
        <time>2012-03-24T09:01:01Z</time>
      </trkpt>
      <trkpt lat="47.056826669722795" lon="6.849712561815977">
        <ele>1347.4300000000001</ele>
        <time>2012-03-24T09:01:04Z</time>
      </trkpt>
      <trkpt lat="47.056719800457358" lon="6.849938873201609">
        <ele>1348.8699999999999</ele>
        <time>2012-03-24T09:01:13Z</time>
      </trkpt>
      <trkpt lat="47.056690379977226" lon="6.849971897900105">
        <ele>1350.79</ele>
        <time>2012-03-24T09:01:15Z</time>
      </trkpt>
      <trkpt lat="47.056630784645677" lon="6.850157473236322">
        <ele>1352.71</ele>
        <time>2012-03-24T09:01:23Z</time>
      </trkpt>
      <trkpt lat="47.056538332253695" lon="6.850262666121125">
        <ele>1354.1500000000001</ele>
        <time>2012-03-24T09:01:31Z</time>
      </trkpt>
      <trkpt lat="47.056398103013635" lon="6.850313628092408">
        <ele>1356.5599999999999</ele>
        <time>2012-03-24T09:01:39Z</time>
      </trkpt>
      <trkpt lat="47.056312188506126" lon="6.850349586457014">
        <ele>1357.04</ele>
        <time>2012-03-24T09:01:43Z</time>
      </trkpt>
      <trkpt lat="47.056204900145531" lon="6.85035134665668">
        <ele>1357.52</ele>
        <time>2012-03-24T09:01:47Z</time>
      </trkpt>
      <trkpt lat="47.056154441088438" lon="6.850353861227632">
        <ele>1356.5599999999999</ele>
        <time>2012-03-24T09:01:49Z</time>
      </trkpt>
      <trkpt lat="47.056011110544205" lon="6.850397111847997">
        <ele>1358</ele>
        <time>2012-03-24T09:01:56Z</time>
      </trkpt>
      <trkpt lat="47.05597230233252" lon="6.850656531751156">
        <ele>1358.48</ele>
        <time>2012-03-24T09:02:03Z</time>
      </trkpt>
      <trkpt lat="47.055906588211656" lon="6.85099390335381">
        <ele>1358.96</ele>
        <time>2012-03-24T09:02:12Z</time>
      </trkpt>
      <trkpt lat="47.055858559906483" lon="6.851291544735432">
        <ele>1360.8800000000001</ele>
        <time>2012-03-24T09:02:20Z</time>
      </trkpt>
      <trkpt lat="47.055812794715166" lon="6.851529087871313">
        <ele>1359.9200000000001</ele>
        <time>2012-03-24T09:02:26Z</time>
      </trkpt>
      <trkpt lat="47.055789325386286" lon="6.851615337654948">
        <ele>1359.4400000000001</ele>
        <time>2012-03-24T09:02:28Z</time>
      </trkpt>
      <trkpt lat="47.055749427527189" lon="6.851770738139749">
        <ele>1358.48</ele>
        <time>2012-03-24T09:02:31Z</time>
      </trkpt>
      <trkpt lat="47.055734004825354" lon="6.851836619898677">
        <ele>1358</ele>
        <time>2012-03-24T09:02:32Z</time>
      </trkpt>
      <trkpt lat="47.055721431970596" lon="6.851906944066286">
        <ele>1357.52</ele>
        <time>2012-03-24T09:02:33Z</time>
      </trkpt>
      <trkpt lat="47.055706260725856" lon="6.851978693157435">
        <ele>1357.04</ele>
        <time>2012-03-24T09:02:34Z</time>
      </trkpt>
      <trkpt lat="47.055688658729196" lon="6.852053459733725">
        <ele>1356.0799999999999</ele>
        <time>2012-03-24T09:02:35Z</time>
      </trkpt>
      <trkpt lat="47.05567273311317" lon="6.852128645405173">
        <ele>1355.5999999999999</ele>
        <time>2012-03-24T09:02:36Z</time>
      </trkpt>
      <trkpt lat="47.055611293762922" lon="6.852791486307979">
        <ele>1354.1500000000001</ele>
        <time>2012-03-24T09:02:45Z</time>
      </trkpt>
      <trkpt lat="47.055624034255743" lon="6.852845717221499">
        <ele>1353.1900000000001</ele>
        <time>2012-03-24T09:02:46Z</time>
      </trkpt>
      <trkpt lat="47.055634176358581" lon="6.852898104116321">
        <ele>1353.1900000000001</ele>
        <time>2012-03-24T09:02:47Z</time>
      </trkpt>
      <trkpt lat="47.055643144994974" lon="6.852947641164064">
        <ele>1353.6700000000001</ele>
        <time>2012-03-24T09:02:48Z</time>
      </trkpt>
      <trkpt lat="47.055655047297478" lon="6.852996256202459">
        <ele>1353.6700000000001</ele>
        <time>2012-03-24T09:02:49Z</time>
      </trkpt>
      <trkpt lat="47.055665021762252" lon="6.853050906211138">
        <ele>1353.6700000000001</ele>
        <time>2012-03-24T09:02:50Z</time>
      </trkpt>
      <trkpt lat="47.05567667260766" lon="6.853105137124658">
        <ele>1354.1500000000001</ele>
        <time>2012-03-24T09:02:51Z</time>
      </trkpt>
      <trkpt lat="47.055694526061416" lon="6.853154422715306">
        <ele>1353.6700000000001</ele>
        <time>2012-03-24T09:02:52Z</time>
      </trkpt>
      <trkpt lat="47.05571036785841" lon="6.853209240362048">
        <ele>1353.6700000000001</ele>
        <time>2012-03-24T09:02:53Z</time>
      </trkpt>
      <trkpt lat="47.055725706741214" lon="6.853266237303615">
        <ele>1353.1900000000001</ele>
        <time>2012-03-24T09:02:54Z</time>
      </trkpt>
      <trkpt lat="47.055742470547557" lon="6.853322144597769">
        <ele>1353.1900000000001</ele>
        <time>2012-03-24T09:02:55Z</time>
      </trkpt>
      <trkpt lat="47.055757138878107" lon="6.853386014699936">
        <ele>1352.71</ele>
        <time>2012-03-24T09:02:56Z</time>
      </trkpt>
      <trkpt lat="47.055773315951228" lon="6.853445861488581">
        <ele>1352.23</ele>
        <time>2012-03-24T09:02:57Z</time>
      </trkpt>
      <trkpt lat="47.05579049885273" lon="6.853499421849847">
        <ele>1352.71</ele>
        <time>2012-03-24T09:02:58Z</time>
      </trkpt>
      <trkpt lat="47.055805083364248" lon="6.85355432331562">
        <ele>1352.71</ele>
        <time>2012-03-24T09:02:59Z</time>
      </trkpt>
      <trkpt lat="47.05583936534822" lon="6.853654319420457">
        <ele>1353.1900000000001</ele>
        <time>2012-03-24T09:03:01Z</time>
      </trkpt>
      <trkpt lat="47.055850764736533" lon="6.853714501485229">
        <ele>1353.1900000000001</ele>
        <time>2012-03-24T09:03:02Z</time>
      </trkpt>
      <trkpt lat="47.055863086134195" lon="6.853771079331636">
        <ele>1352.71</ele>
        <time>2012-03-24T09:03:03Z</time>
      </trkpt>
      <trkpt lat="47.055888064205647" lon="6.853876691311598">
        <ele>1353.1900000000001</ele>
        <time>2012-03-24T09:03:05Z</time>
      </trkpt>
      <trkpt lat="47.055897368118167" lon="6.853930084034801">
        <ele>1352.71</ele>
        <time>2012-03-24T09:03:06Z</time>
      </trkpt>
      <trkpt lat="47.05590876750648" lon="6.853981800377369">
        <ele>1352.71</ele>
        <time>2012-03-24T09:03:07Z</time>
      </trkpt>
      <trkpt lat="47.055918490514159" lon="6.854036031290889">
        <ele>1353.1900000000001</ele>
        <time>2012-03-24T09:03:08Z</time>
      </trkpt>
      <trkpt lat="47.055926872417331" lon="6.854084562510252">
        <ele>1352.71</ele>
        <time>2012-03-24T09:03:09Z</time>
      </trkpt>
      <trkpt lat="47.055932572111487" lon="6.854131501168013">
        <ele>1353.1900000000001</ele>
        <time>2012-03-24T09:03:10Z</time>
      </trkpt>
      <trkpt lat="47.055936008691788" lon="6.854179697111249">
        <ele>1352.71</ele>
        <time>2012-03-24T09:03:11Z</time>
      </trkpt>
      <trkpt lat="47.055943300947547" lon="6.854226300492883">
        <ele>1352.71</ele>
        <time>2012-03-24T09:03:12Z</time>
      </trkpt>
      <trkpt lat="47.055950844660401" lon="6.854275921359658">
        <ele>1352.23</ele>
        <time>2012-03-24T09:03:13Z</time>
      </trkpt>
      <trkpt lat="47.055954532697797" lon="6.854327889159322">
        <ele>1353.1900000000001</ele>
        <time>2012-03-24T09:03:14Z</time>
      </trkpt>
      <trkpt lat="47.055971547961235" lon="6.854473650455475">
        <ele>1352.23</ele>
        <time>2012-03-24T09:03:17Z</time>
      </trkpt>
      <trkpt lat="47.055974397808313" lon="6.85452469624579">
        <ele>1352.23</ele>
        <time>2012-03-24T09:03:18Z</time>
      </trkpt>
      <trkpt lat="47.05598252825439" lon="6.854572640731931">
        <ele>1353.1900000000001</ele>
        <time>2012-03-24T09:03:19Z</time>
      </trkpt>
      <trkpt lat="47.055985629558563" lon="6.854620836675167">
        <ele>1352.71</ele>
        <time>2012-03-24T09:03:20Z</time>
      </trkpt>
      <trkpt lat="47.05598789267242" lon="6.854664841666818">
        <ele>1353.1900000000001</ele>
        <time>2012-03-24T09:03:21Z</time>
      </trkpt>
      <trkpt lat="47.05599476583302" lon="6.854706835001707">
        <ele>1353.1900000000001</ele>
        <time>2012-03-24T09:03:22Z</time>
      </trkpt>
      <trkpt lat="47.055998621508479" lon="6.854752600193024">
        <ele>1353.1900000000001</ele>
        <time>2012-03-24T09:03:23Z</time>
      </trkpt>
      <trkpt lat="47.056001052260399" lon="6.854794593527913">
        <ele>1352.71</ele>
        <time>2012-03-24T09:03:24Z</time>
      </trkpt>
      <trkpt lat="47.056004907935858" lon="6.85483256354928">
        <ele>1354.1500000000001</ele>
        <time>2012-03-24T09:03:25Z</time>
      </trkpt>
      <trkpt lat="47.056002896279097" lon="6.854875311255455">
        <ele>1353.6700000000001</ele>
        <time>2012-03-24T09:03:26Z</time>
      </trkpt>
      <trkpt lat="47.055998956784606" lon="6.854918813332915">
        <ele>1353.6700000000001</ele>
        <time>2012-03-24T09:03:27Z</time>
      </trkpt>
      <trkpt lat="47.056000465527177" lon="6.854959549382329">
        <ele>1353.6700000000001</ele>
        <time>2012-03-24T09:03:28Z</time>
      </trkpt>
      <trkpt lat="47.055999543517828" lon="6.855004308745265">
        <ele>1354.1500000000001</ele>
        <time>2012-03-24T09:03:29Z</time>
      </trkpt>
      <trkpt lat="47.055995520204306" lon="6.855048816651106">
        <ele>1353.6700000000001</ele>
        <time>2012-03-24T09:03:30Z</time>
      </trkpt>
      <trkpt lat="47.055994179099798" lon="6.855094246566296">
        <ele>1352.71</ele>
        <time>2012-03-24T09:03:31Z</time>
      </trkpt>
      <trkpt lat="47.055989820510149" lon="6.85514185577631">
        <ele>1353.1900000000001</ele>
        <time>2012-03-24T09:03:32Z</time>
      </trkpt>
      <trkpt lat="47.05597959458828" lon="6.855191392824054">
        <ele>1353.1900000000001</ele>
        <time>2012-03-24T09:03:33Z</time>
      </trkpt>
      <trkpt lat="47.055971045047045" lon="6.855241432785988">
        <ele>1352.71</ele>
        <time>2012-03-24T09:03:34Z</time>
      </trkpt>
      <trkpt lat="47.055970458313823" lon="6.855291808024049">
        <ele>1352.71</ele>
        <time>2012-03-24T09:03:35Z</time>
      </trkpt>
      <trkpt lat="47.055964590981603" lon="6.85534218326211">
        <ele>1352.71</ele>
        <time>2012-03-24T09:03:36Z</time>
      </trkpt>
      <trkpt lat="47.055954113602638" lon="6.855391385033727">
        <ele>1353.6700000000001</ele>
        <time>2012-03-24T09:03:37Z</time>
      </trkpt>
      <trkpt lat="47.055946486070752" lon="6.855438826605678">
        <ele>1352.71</ele>
        <time>2012-03-24T09:03:38Z</time>
      </trkpt>
      <trkpt lat="47.055932991206646" lon="6.855484340339899">
        <ele>1352.23</ele>
        <time>2012-03-24T09:03:39Z</time>
      </trkpt>
      <trkpt lat="47.055915640667081" lon="6.855527758598328">
        <ele>1352.71</ele>
        <time>2012-03-24T09:03:40Z</time>
      </trkpt>
      <trkpt lat="47.055880185216665" lon="6.855607470497489">
        <ele>1352.71</ele>
        <time>2012-03-24T09:03:42Z</time>
      </trkpt>
      <trkpt lat="47.055857637897134" lon="6.855640076100826">
        <ele>1352.71</ele>
        <time>2012-03-24T09:03:43Z</time>
      </trkpt>
      <trkpt lat="47.055803993716836" lon="6.855708556249738">
        <ele>1352.23</ele>
        <time>2012-03-24T09:03:45Z</time>
      </trkpt>
      <trkpt lat="47.055453462526202" lon="6.855939980596304">
        <ele>1350.79</ele>
        <time>2012-03-24T09:03:57Z</time>
      </trkpt>
      <trkpt lat="47.055419851094484" lon="6.855956576764584">
        <ele>1349.3499999999999</ele>
        <time>2012-03-24T09:04:08Z</time>
      </trkpt>
      <trkpt lat="47.055421778932214" lon="6.855956492945552">
        <ele>1350.3099999999999</ele>
        <time>2012-03-24T09:04:10Z</time>
      </trkpt>
      <trkpt lat="47.05542161129415" lon="6.855960097163916">
        <ele>1349.8299999999999</ele>
        <time>2012-03-24T09:04:12Z</time>
      </trkpt>
      <trkpt lat="47.055427730083466" lon="6.855962025001645">
        <ele>1347.9100000000001</ele>
        <time>2012-03-24T09:04:24Z</time>
      </trkpt>
      <trkpt lat="47.055429071187973" lon="6.855948362499476">
        <ele>1348.8699999999999</ele>
        <time>2012-03-24T09:04:36Z</time>
      </trkpt>
      <trkpt lat="47.055425634607673" lon="6.855944590643048">
        <ele>1349.8299999999999</ele>
        <time>2012-03-24T09:04:38Z</time>
      </trkpt>
      <trkpt lat="47.055421192198992" lon="6.855960432440043">
        <ele>1349.8299999999999</ele>
        <time>2012-03-24T09:04:39Z</time>
      </trkpt>
      <trkpt lat="47.05541867762804" lon="6.855975100770593">
        <ele>1349.8299999999999</ele>
        <time>2012-03-24T09:04:40Z</time>
      </trkpt>
      <trkpt lat="47.055420018732548" lon="6.855989685282111">
        <ele>1349.8299999999999</ele>
        <time>2012-03-24T09:04:41Z</time>
      </trkpt>
      <trkpt lat="47.055427981540561" lon="6.856008712202311">
        <ele>1349.3499999999999</ele>
        <time>2012-03-24T09:04:42Z</time>
      </trkpt>
      <trkpt lat="47.055438375100493" lon="6.856026649475098">
        <ele>1348.8699999999999</ele>
        <time>2012-03-24T09:04:43Z</time>
      </trkpt>
      <trkpt lat="47.055446086451411" lon="6.856040814891458">
        <ele>1348.8699999999999</ele>
        <time>2012-03-24T09:04:44Z</time>
      </trkpt>
      <trkpt lat="47.055449774488807" lon="6.856058081611991">
        <ele>1348.8699999999999</ele>
        <time>2012-03-24T09:04:45Z</time>
      </trkpt>
      <trkpt lat="47.055450025945902" lon="6.856074593961239">
        <ele>1349.3499999999999</ele>
        <time>2012-03-24T09:04:46Z</time>
      </trkpt>
      <trkpt lat="47.055454468354583" lon="6.856133015826345">
        <ele>1349.3499999999999</ele>
        <time>2012-03-24T09:04:49Z</time>
      </trkpt>
      <trkpt lat="47.055450025945902" lon="6.856149109080434">
        <ele>1349.3499999999999</ele>
        <time>2012-03-24T09:04:50Z</time>
      </trkpt>
      <trkpt lat="47.055426388978958" lon="6.856299983337522">
        <ele>1349.3499999999999</ele>
        <time>2012-03-24T09:04:57Z</time>
      </trkpt>
      <trkpt lat="47.055431166663766" lon="6.856322279199958">
        <ele>1349.3499999999999</ele>
        <time>2012-03-24T09:04:58Z</time>
      </trkpt>
      <trkpt lat="47.055438878014684" lon="6.856340887024999">
        <ele>1348.8699999999999</ele>
        <time>2012-03-24T09:04:59Z</time>
      </trkpt>
      <trkpt lat="47.055457066744566" lon="6.856449013575912">
        <ele>1348.3900000000001</ele>
        <time>2012-03-24T09:05:05Z</time>
      </trkpt>
      <trkpt lat="47.055467627942562" lon="6.856461502611637">
        <ele>1347.9100000000001</ele>
        <time>2012-03-24T09:05:06Z</time>
      </trkpt>
      <trkpt lat="47.055490175262094" lon="6.856486899778247">
        <ele>1347.9100000000001</ele>
        <time>2012-03-24T09:05:09Z</time>
      </trkpt>
      <trkpt lat="47.055499143898487" lon="6.856497377157211">
        <ele>1348.3900000000001</ele>
        <time>2012-03-24T09:05:10Z</time>
      </trkpt>
      <trkpt lat="47.055509286001325" lon="6.856502238661051">
        <ele>1347.9100000000001</ele>
        <time>2012-03-24T09:05:11Z</time>
      </trkpt>
      <trkpt lat="47.055520517751575" lon="6.856499724090099">
        <ele>1348.3900000000001</ele>
        <time>2012-03-24T09:05:12Z</time>
      </trkpt>
      <trkpt lat="47.055555721744895" lon="6.856536688283086">
        <ele>1348.3900000000001</ele>
        <time>2012-03-24T09:05:24Z</time>
      </trkpt>
      <trkpt lat="47.055434519425035" lon="6.856610029935837">
        <ele>1347.9100000000001</ele>
        <time>2012-03-24T09:05:54Z</time>
      </trkpt>
      <trkpt lat="47.055434519425035" lon="6.856610029935837">
        <ele>1345.98</ele>
        <time>2012-03-24T09:05:57Z</time>
      </trkpt>
      <trkpt lat="47.055434519425035" lon="6.856610029935837">
        <ele>1349.8299999999999</ele>
        <time>2012-03-24T09:05:58Z</time>
      </trkpt>
      <trkpt lat="47.055597798898816" lon="6.85648656450212">
        <ele>1347.9100000000001</ele>
        <time>2012-03-24T09:21:00Z</time>
      </trkpt>
      <trkpt lat="47.055537533015013" lon="6.856458401307464">
        <ele>1347.9100000000001</ele>
        <time>2012-03-24T09:21:01Z</time>
      </trkpt>
      <trkpt lat="47.055578269064426" lon="6.856527384370565">
        <ele>1348.8699999999999</ele>
        <time>2012-03-24T09:21:15Z</time>
      </trkpt>
      <trkpt lat="47.055494366213679" lon="6.856465358287096">
        <ele>1348.3900000000001</ele>
        <time>2012-03-24T09:21:25Z</time>
      </trkpt>
      <trkpt lat="47.055497048422694" lon="6.856413139030337">
        <ele>1348.8699999999999</ele>
        <time>2012-03-24T09:21:29Z</time>
      </trkpt>
      <trkpt lat="47.055477937683463" lon="6.856325715780258">
        <ele>1349.3499999999999</ele>
        <time>2012-03-24T09:21:34Z</time>
      </trkpt>
      <trkpt lat="47.055482128635049" lon="6.856127986684442">
        <ele>1349.3499999999999</ele>
        <time>2012-03-24T09:21:44Z</time>
      </trkpt>
      <trkpt lat="47.055486403405666" lon="6.856026230379939">
        <ele>1349.3499999999999</ele>
        <time>2012-03-24T09:21:49Z</time>
      </trkpt>
      <trkpt lat="47.055494198575616" lon="6.85599940828979">
        <ele>1348.3900000000001</ele>
        <time>2012-03-24T09:21:51Z</time>
      </trkpt>
      <trkpt lat="47.055534180253744" lon="6.855984656140208">
        <ele>1348.8699999999999</ele>
        <time>2012-03-24T09:21:55Z</time>
      </trkpt>
      <trkpt lat="47.055628141388297" lon="6.855935957282782">
        <ele>1349.8299999999999</ele>
        <time>2012-03-24T09:22:06Z</time>
      </trkpt>
      <trkpt lat="47.055608863011003" lon="6.85585867613554">
        <ele>1350.79</ele>
        <time>2012-03-24T09:22:12Z</time>
      </trkpt>
      <trkpt lat="47.055610539391637" lon="6.855852892622352">
        <ele>1351.27</ele>
        <time>2012-03-24T09:22:13Z</time>
      </trkpt>
      <trkpt lat="47.055634511634707" lon="6.855836547911167">
        <ele>1351.75</ele>
        <time>2012-03-24T09:22:27Z</time>
      </trkpt>
      <trkpt lat="47.055646078661084" lon="6.8558244779706">
        <ele>1350.3099999999999</ele>
        <time>2012-03-24T09:22:46Z</time>
      </trkpt>
      <trkpt lat="47.055678097531199" lon="6.855806456878781">
        <ele>1350.79</ele>
        <time>2012-03-24T09:22:56Z</time>
      </trkpt>
      <trkpt lat="47.055761832743883" lon="6.855753650888801">
        <ele>1351.27</ele>
        <time>2012-03-24T09:23:02Z</time>
      </trkpt>
      <trkpt lat="47.055923854932189" lon="6.855565309524536">
        <ele>1352.23</ele>
        <time>2012-03-24T09:23:12Z</time>
      </trkpt>
      <trkpt lat="47.055948162451386" lon="6.855496913194656">
        <ele>1352.71</ele>
        <time>2012-03-24T09:23:14Z</time>
      </trkpt>
      <trkpt lat="47.056013038381934" lon="6.85514772310853">
        <ele>1353.1900000000001</ele>
        <time>2012-03-24T09:23:23Z</time>
      </trkpt>
      <trkpt lat="47.05601429566741" lon="6.855035573244095">
        <ele>1353.1900000000001</ele>
        <time>2012-03-24T09:23:26Z</time>
      </trkpt>
      <trkpt lat="47.056019408628345" lon="6.854780092835426">
        <ele>1352.71</ele>
        <time>2012-03-24T09:23:32Z</time>
      </trkpt>
      <trkpt lat="47.055952772498131" lon="6.854292098432779">
        <ele>1352.23</ele>
        <time>2012-03-24T09:23:42Z</time>
      </trkpt>
      <trkpt lat="47.055943971499801" lon="6.854244321584702">
        <ele>1352.71</ele>
        <time>2012-03-24T09:23:43Z</time>
      </trkpt>
      <trkpt lat="47.055861242115498" lon="6.853770576417446">
        <ele>1352.71</ele>
        <time>2012-03-24T09:23:53Z</time>
      </trkpt>
      <trkpt lat="47.055827295407653" lon="6.85363587923348">
        <ele>1352.71</ele>
        <time>2012-03-24T09:23:56Z</time>
      </trkpt>
      <trkpt lat="47.055726042017341" lon="6.853252071887255">
        <ele>1353.1900000000001</ele>
        <time>2012-03-24T09:24:05Z</time>
      </trkpt>
      <trkpt lat="47.055631410330534" lon="6.852918639779091">
        <ele>1353.6700000000001</ele>
        <time>2012-03-24T09:24:13Z</time>
      </trkpt>
      <trkpt lat="47.055615317076445" lon="6.852616723626852">
        <ele>1353.6700000000001</ele>
        <time>2012-03-24T09:24:19Z</time>
      </trkpt>
      <trkpt lat="47.055619591847062" lon="6.852562827989459">
        <ele>1353.1900000000001</ele>
        <time>2012-03-24T09:24:20Z</time>
      </trkpt>
      <trkpt lat="47.055621016770601" lon="6.85251303948462">
        <ele>1354.1500000000001</ele>
        <time>2012-03-24T09:24:21Z</time>
      </trkpt>
      <trkpt lat="47.055629231035709" lon="6.852465514093638">
        <ele>1354.1500000000001</ele>
        <time>2012-03-24T09:24:22Z</time>
      </trkpt>
      <trkpt lat="47.055634176358581" lon="6.852424694225192">
        <ele>1353.6700000000001</ele>
        <time>2012-03-24T09:24:23Z</time>
      </trkpt>
      <trkpt lat="47.055637277662754" lon="6.85238303616643">
        <ele>1354.1500000000001</ele>
        <time>2012-03-24T09:24:24Z</time>
      </trkpt>
      <trkpt lat="47.055647084489465" lon="6.852342886850238">
        <ele>1354.6300000000001</ele>
        <time>2012-03-24T09:24:25Z</time>
      </trkpt>
      <trkpt lat="47.055653370916843" lon="6.852305168285966">
        <ele>1354.1500000000001</ele>
        <time>2012-03-24T09:24:26Z</time>
      </trkpt>
      <trkpt lat="47.055653622373939" lon="6.852271053940058">
        <ele>1354.6300000000001</ele>
        <time>2012-03-24T09:24:27Z</time>
      </trkpt>
      <trkpt lat="47.055659405887127" lon="6.852234844118357">
        <ele>1355.1199999999999</ele>
        <time>2012-03-24T09:24:28Z</time>
      </trkpt>
      <trkpt lat="47.055666027590632" lon="6.852196957916021">
        <ele>1354.6300000000001</ele>
        <time>2012-03-24T09:24:29Z</time>
      </trkpt>
      <trkpt lat="47.05566787160933" lon="6.852159574627876">
        <ele>1354.6300000000001</ele>
        <time>2012-03-24T09:24:30Z</time>
      </trkpt>
      <trkpt lat="47.055674325674772" lon="6.852124538272619">
        <ele>1355.1199999999999</ele>
        <time>2012-03-24T09:24:31Z</time>
      </trkpt>
      <trkpt lat="47.055686814710498" lon="6.85209184885025">
        <ele>1356.0799999999999</ele>
        <time>2012-03-24T09:24:32Z</time>
      </trkpt>
      <trkpt lat="47.055691927671432" lon="6.852057734504342">
        <ele>1355.5999999999999</ele>
        <time>2012-03-24T09:24:33Z</time>
      </trkpt>
      <trkpt lat="47.055694861337543" lon="6.852023117244244">
        <ele>1356.0799999999999</ele>
        <time>2012-03-24T09:24:34Z</time>
      </trkpt>
      <trkpt lat="47.055706344544888" lon="6.851989589631558">
        <ele>1355.5999999999999</ele>
        <time>2012-03-24T09:24:35Z</time>
      </trkpt>
      <trkpt lat="47.055717660114169" lon="6.851957151666284">
        <ele>1356.5599999999999</ele>
        <time>2012-03-24T09:24:36Z</time>
      </trkpt>
      <trkpt lat="47.05571967177093" lon="6.851925551891327">
        <ele>1355.5999999999999</ele>
        <time>2012-03-24T09:24:37Z</time>
      </trkpt>
      <trkpt lat="47.055723527446389" lon="6.851892191916704">
        <ele>1356.5599999999999</ele>
        <time>2012-03-24T09:24:38Z</time>
      </trkpt>
      <trkpt lat="47.055737106129527" lon="6.851855562999845">
        <ele>1356.5599999999999</ele>
        <time>2012-03-24T09:24:39Z</time>
      </trkpt>
      <trkpt lat="47.055745320394635" lon="6.851821197196841">
        <ele>1356.5599999999999</ele>
        <time>2012-03-24T09:24:40Z</time>
      </trkpt>
      <trkpt lat="47.055744985118508" lon="6.851787334308028">
        <ele>1357.04</ele>
        <time>2012-03-24T09:24:41Z</time>
      </trkpt>
      <trkpt lat="47.055750600993633" lon="6.851753890514374">
        <ele>1357.52</ele>
        <time>2012-03-24T09:24:42Z</time>
      </trkpt>
      <trkpt lat="47.05576459877193" lon="6.851726062595844">
        <ele>1358</ele>
        <time>2012-03-24T09:24:43Z</time>
      </trkpt>
      <trkpt lat="47.055774489417672" lon="6.851701084524393">
        <ele>1357.52</ele>
        <time>2012-03-24T09:24:44Z</time>
      </trkpt>
      <trkpt lat="47.055775998160243" lon="6.851673340424895">
        <ele>1358.48</ele>
        <time>2012-03-24T09:24:45Z</time>
      </trkpt>
      <trkpt lat="47.055780356749892" lon="6.851645512506366">
        <ele>1358.96</ele>
        <time>2012-03-24T09:24:46Z</time>
      </trkpt>
      <trkpt lat="47.055792007595301" lon="6.851616594940424">
        <ele>1358.48</ele>
        <time>2012-03-24T09:24:47Z</time>
      </trkpt>
      <trkpt lat="47.055799718946218" lon="6.851590443402529">
        <ele>1358.96</ele>
        <time>2012-03-24T09:24:48Z</time>
      </trkpt>
      <trkpt lat="47.055803155526519" lon="6.851561861112714">
        <ele>1358.96</ele>
        <time>2012-03-24T09:24:49Z</time>
      </trkpt>
      <trkpt lat="47.055811621248722" lon="6.851529758423567">
        <ele>1359.9200000000001</ele>
        <time>2012-03-24T09:24:50Z</time>
      </trkpt>
      <trkpt lat="47.055819751694798" lon="6.851497320458293">
        <ele>1359.4400000000001</ele>
        <time>2012-03-24T09:24:51Z</time>
      </trkpt>
      <trkpt lat="47.055823439732194" lon="6.851461362093687">
        <ele>1359.4400000000001</ele>
        <time>2012-03-24T09:24:52Z</time>
      </trkpt>
      <trkpt lat="47.055831737816334" lon="6.851425571367145">
        <ele>1359.4400000000001</ele>
        <time>2012-03-24T09:24:53Z</time>
      </trkpt>
      <trkpt lat="47.055840119719505" lon="6.851390032097697">
        <ele>1358.96</ele>
        <time>2012-03-24T09:24:54Z</time>
      </trkpt>
      <trkpt lat="47.055845400318503" lon="6.851351140066981">
        <ele>1359.4400000000001</ele>
        <time>2012-03-24T09:24:55Z</time>
      </trkpt>
      <trkpt lat="47.055853446945548" lon="6.851309733465314">
        <ele>1359.4400000000001</ele>
        <time>2012-03-24T09:24:56Z</time>
      </trkpt>
      <trkpt lat="47.055860487744212" lon="6.851267404854298">
        <ele>1359.4400000000001</ele>
        <time>2012-03-24T09:24:57Z</time>
      </trkpt>
      <trkpt lat="47.055866941809654" lon="6.851223986595869">
        <ele>1359.4400000000001</ele>
        <time>2012-03-24T09:24:58Z</time>
      </trkpt>
      <trkpt lat="47.055879011750221" lon="6.851177299395204">
        <ele>1359.4400000000001</ele>
        <time>2012-03-24T09:24:59Z</time>
      </trkpt>
      <trkpt lat="47.055886220186949" lon="6.851132456213236">
        <ele>1359.4400000000001</ele>
        <time>2012-03-24T09:25:00Z</time>
      </trkpt>
      <trkpt lat="47.055891500785947" lon="6.851086188107729">
        <ele>1359.4400000000001</ele>
        <time>2012-03-24T09:25:01Z</time>
      </trkpt>
      <trkpt lat="47.055900888517499" lon="6.851039920002222">
        <ele>1358.96</ele>
        <time>2012-03-24T09:25:02Z</time>
      </trkpt>
      <trkpt lat="47.05590826459229" lon="6.850994070991874">
        <ele>1358.96</ele>
        <time>2012-03-24T09:25:03Z</time>
      </trkpt>
      <trkpt lat="47.055921172723174" lon="6.850947719067335">
        <ele>1358</ele>
        <time>2012-03-24T09:25:04Z</time>
      </trkpt>
      <trkpt lat="47.055929889902472" lon="6.850897008553147">
        <ele>1358</ele>
        <time>2012-03-24T09:25:05Z</time>
      </trkpt>
      <trkpt lat="47.055938942357898" lon="6.850848309695721">
        <ele>1358.48</ele>
        <time>2012-03-24T09:25:06Z</time>
      </trkpt>
      <trkpt lat="47.055951431393623" lon="6.850799443200231">
        <ele>1358.48</ele>
        <time>2012-03-24T09:25:07Z</time>
      </trkpt>
      <trkpt lat="47.055961070582271" lon="6.850749738514423">
        <ele>1358</ele>
        <time>2012-03-24T09:25:08Z</time>
      </trkpt>
      <trkpt lat="47.055968530476093" lon="6.850699866190553">
        <ele>1358.48</ele>
        <time>2012-03-24T09:25:09Z</time>
      </trkpt>
      <trkpt lat="47.055975738912821" lon="6.850649574771524">
        <ele>1357.52</ele>
        <time>2012-03-24T09:25:10Z</time>
      </trkpt>
      <trkpt lat="47.055986970663071" lon="6.850602887570858">
        <ele>1357.04</ele>
        <time>2012-03-24T09:25:11Z</time>
      </trkpt>
      <trkpt lat="47.055995017290115" lon="6.850555529817939">
        <ele>1358</ele>
        <time>2012-03-24T09:25:12Z</time>
      </trkpt>
      <trkpt lat="47.056000716984272" lon="6.850507836788893">
        <ele>1357.52</ele>
        <time>2012-03-24T09:25:13Z</time>
      </trkpt>
      <trkpt lat="47.056007171049714" lon="6.850458970293403">
        <ele>1357.52</ele>
        <time>2012-03-24T09:25:14Z</time>
      </trkpt>
      <trkpt lat="47.056007087230682" lon="6.850410774350166">
        <ele>1357.04</ele>
        <time>2012-03-24T09:25:15Z</time>
      </trkpt>
      <trkpt lat="47.056004572659731" lon="6.850360231474042">
        <ele>1358</ele>
        <time>2012-03-24T09:25:16Z</time>
      </trkpt>
      <trkpt lat="47.056004572659731" lon="6.850313795730472">
        <ele>1357.52</ele>
        <time>2012-03-24T09:25:17Z</time>
      </trkpt>
      <trkpt lat="47.056001471355557" lon="6.850273897871375">
        <ele>1358</ele>
        <time>2012-03-24T09:25:18Z</time>
      </trkpt>
      <trkpt lat="47.055990071967244" lon="6.850235592573881">
        <ele>1358</ele>
        <time>2012-03-24T09:25:19Z</time>
      </trkpt>
      <trkpt lat="47.05597666092217" lon="6.850202735513449">
        <ele>1358</ele>
        <time>2012-03-24T09:25:20Z</time>
      </trkpt>
      <trkpt lat="47.055905498564243" lon="6.850109780207276">
        <ele>1359.4400000000001</ele>
        <time>2012-03-24T09:25:24Z</time>
      </trkpt>
      <trkpt lat="47.055759150534868" lon="6.849892186000943">
        <ele>1359.4400000000001</ele>
        <time>2012-03-24T09:25:32Z</time>
      </trkpt>
      <trkpt lat="47.055599559098482" lon="6.84969462454319">
        <ele>1360.4000000000001</ele>
        <time>2012-03-24T09:25:39Z</time>
      </trkpt>
      <trkpt lat="47.055467292666435" lon="6.849525477737188">
        <ele>1360.8800000000001</ele>
        <time>2012-03-24T09:25:45Z</time>
      </trkpt>
      <trkpt lat="47.055386323481798" lon="6.849411986768246">
        <ele>1362.3299999999999</ele>
        <time>2012-03-24T09:25:49Z</time>
      </trkpt>
      <trkpt lat="47.05529261380434" lon="6.849316768348217">
        <ele>1362.8099999999999</ele>
        <time>2012-03-24T09:25:53Z</time>
      </trkpt>
      <trkpt lat="47.055179625749588" lon="6.849194644019008">
        <ele>1363.77</ele>
        <time>2012-03-24T09:25:58Z</time>
      </trkpt>
      <trkpt lat="47.054964210838079" lon="6.848907144740224">
        <ele>1363.29</ele>
        <time>2012-03-24T09:26:07Z</time>
      </trkpt>
      <trkpt lat="47.054801937192678" lon="6.848670607432723">
        <ele>1363.29</ele>
        <time>2012-03-24T09:26:13Z</time>
      </trkpt>
      <trkpt lat="47.054609823971987" lon="6.848391154780984">
        <ele>1362.8099999999999</ele>
        <time>2012-03-24T09:26:20Z</time>
      </trkpt>
      <trkpt lat="47.054550144821405" lon="6.848305491730571">
        <ele>1361.8399999999999</ele>
        <time>2012-03-24T09:26:22Z</time>
      </trkpt>
      <trkpt lat="47.054454926401377" lon="6.848174482584">
        <ele>1361.8399999999999</ele>
        <time>2012-03-24T09:26:25Z</time>
      </trkpt>
      <trkpt lat="47.05426499247551" lon="6.847913134843111">
        <ele>1360.8800000000001</ele>
        <time>2012-03-24T09:26:31Z</time>
      </trkpt>
      <trkpt lat="47.054212270304561" lon="6.847836272791028">
        <ele>1360.4000000000001</ele>
        <time>2012-03-24T09:26:33Z</time>
      </trkpt>
      <trkpt lat="47.054044716060162" lon="6.847564531490207">
        <ele>1359.4400000000001</ele>
        <time>2012-03-24T09:26:39Z</time>
      </trkpt>
      <trkpt lat="47.053863666951656" lon="6.847210144624114">
        <ele>1359.4400000000001</ele>
        <time>2012-03-24T09:26:46Z</time>
      </trkpt>
      <trkpt lat="47.053696867078543" lon="6.846890039741993">
        <ele>1359.4400000000001</ele>
        <time>2012-03-24T09:26:53Z</time>
      </trkpt>
      <trkpt lat="47.053645486012101" lon="6.846805717796087">
        <ele>1358.48</ele>
        <time>2012-03-24T09:26:55Z</time>
      </trkpt>
      <trkpt lat="47.053539035841823" lon="6.846615616232157">
        <ele>1358</ele>
        <time>2012-03-24T09:26:59Z</time>
      </trkpt>
      <trkpt lat="47.05327115021646" lon="6.846152599900961">
        <ele>1355.1199999999999</ele>
        <time>2012-03-24T09:27:07Z</time>
      </trkpt>
      <trkpt lat="47.053081300109625" lon="6.845832578837872">
        <ele>1353.6700000000001</ele>
        <time>2012-03-24T09:27:12Z</time>
      </trkpt>
      <trkpt lat="47.05298189073801" lon="6.845652619376779">
        <ele>1352.71</ele>
        <time>2012-03-24T09:27:15Z</time>
      </trkpt>
      <trkpt lat="47.052882229909301" lon="6.845471486449242">
        <ele>1353.6700000000001</ele>
        <time>2012-03-24T09:27:19Z</time>
      </trkpt>
      <trkpt lat="47.052861526608467" lon="6.845428571105003">
        <ele>1352.71</ele>
        <time>2012-03-24T09:27:20Z</time>
      </trkpt>
      <trkpt lat="47.052841912955046" lon="6.845397222787142">
        <ele>1352.71</ele>
        <time>2012-03-24T09:27:21Z</time>
      </trkpt>
      <trkpt lat="47.052824813872576" lon="6.84536537155509">
        <ele>1353.1900000000001</ele>
        <time>2012-03-24T09:27:22Z</time>
      </trkpt>
      <trkpt lat="47.052814839407802" lon="6.845321618020535">
        <ele>1354.1500000000001</ele>
        <time>2012-03-24T09:27:23Z</time>
      </trkpt>
      <trkpt lat="47.052801512181759" lon="6.845286414027214">
        <ele>1353.6700000000001</ele>
        <time>2012-03-24T09:27:24Z</time>
      </trkpt>
      <trkpt lat="47.052784161642194" lon="6.845262860879302">
        <ele>1353.6700000000001</ele>
        <time>2012-03-24T09:27:25Z</time>
      </trkpt>
      <trkpt lat="47.052766140550375" lon="6.845233524218202">
        <ele>1354.1500000000001</ele>
        <time>2012-03-24T09:27:26Z</time>
      </trkpt>
      <trkpt lat="47.052754322066903" lon="6.845194296911359">
        <ele>1354.6300000000001</ele>
        <time>2012-03-24T09:27:27Z</time>
      </trkpt>
      <trkpt lat="47.052742587402463" lon="6.845156159251928">
        <ele>1355.1199999999999</ele>
        <time>2012-03-24T09:27:28Z</time>
      </trkpt>
      <trkpt lat="47.052725907415152" lon="6.845127660781145">
        <ele>1355.1199999999999</ele>
        <time>2012-03-24T09:27:29Z</time>
      </trkpt>
      <trkpt lat="47.052707718685269" lon="6.845097485929728">
        <ele>1354.6300000000001</ele>
        <time>2012-03-24T09:27:30Z</time>
      </trkpt>
      <trkpt lat="47.052692631259561" lon="6.845055995509028">
        <ele>1355.5999999999999</ele>
        <time>2012-03-24T09:27:31Z</time>
      </trkpt>
      <trkpt lat="47.052677543833852" lon="6.845014840364456">
        <ele>1356.0799999999999</ele>
        <time>2012-03-24T09:27:32Z</time>
      </trkpt>
      <trkpt lat="47.052657008171082" lon="6.844981564208865">
        <ele>1355.5999999999999</ele>
        <time>2012-03-24T09:27:33Z</time>
      </trkpt>
      <trkpt lat="47.052637310698628" lon="6.844945605844259">
        <ele>1355.5999999999999</ele>
        <time>2012-03-24T09:27:34Z</time>
      </trkpt>
      <trkpt lat="47.052620714530349" lon="6.844902690500021">
        <ele>1355.5999999999999</ele>
        <time>2012-03-24T09:27:35Z</time>
      </trkpt>
      <trkpt lat="47.052602022886276" lon="6.84486597776413">
        <ele>1356.5599999999999</ele>
        <time>2012-03-24T09:27:36Z</time>
      </trkpt>
      <trkpt lat="47.052582828328013" lon="6.844832533970475">
        <ele>1357.04</ele>
        <time>2012-03-24T09:27:37Z</time>
      </trkpt>
      <trkpt lat="47.052566148340702" lon="6.844793222844601">
        <ele>1356.5599999999999</ele>
        <time>2012-03-24T09:27:38Z</time>
      </trkpt>
      <trkpt lat="47.052545947954059" lon="6.844759359955788">
        <ele>1356.5599999999999</ele>
        <time>2012-03-24T09:27:39Z</time>
      </trkpt>
      <trkpt lat="47.052523987367749" lon="6.844724575057626">
        <ele>1356.5599999999999</ele>
        <time>2012-03-24T09:27:40Z</time>
      </trkpt>
      <trkpt lat="47.052503284066916" lon="6.844681240618229">
        <ele>1356.5599999999999</ele>
        <time>2012-03-24T09:27:41Z</time>
      </trkpt>
      <trkpt lat="47.052480904385448" lon="6.844642851501703">
        <ele>1356.0799999999999</ele>
        <time>2012-03-24T09:27:42Z</time>
      </trkpt>
      <trkpt lat="47.052456429228187" lon="6.844605803489685">
        <ele>1356.5599999999999</ele>
        <time>2012-03-24T09:27:43Z</time>
      </trkpt>
      <trkpt lat="47.052435642108321" lon="6.844559870660305">
        <ele>1356.0799999999999</ele>
        <time>2012-03-24T09:27:44Z</time>
      </trkpt>
      <trkpt lat="47.052413262426853" lon="6.844520475715399">
        <ele>1355.5999999999999</ele>
        <time>2012-03-24T09:27:45Z</time>
      </trkpt>
      <trkpt lat="47.052387110888958" lon="6.844483176246285">
        <ele>1356.0799999999999</ele>
        <time>2012-03-24T09:27:46Z</time>
      </trkpt>
      <trkpt lat="47.052360624074936" lon="6.844436405226588">
        <ele>1356.0799999999999</ele>
        <time>2012-03-24T09:27:47Z</time>
      </trkpt>
      <trkpt lat="47.052331287413836" lon="6.84439348988235">
        <ele>1355.5999999999999</ele>
        <time>2012-03-24T09:27:48Z</time>
      </trkpt>
      <trkpt lat="47.052299771457911" lon="6.844351748004556">
        <ele>1355.5999999999999</ele>
        <time>2012-03-24T09:27:49Z</time>
      </trkpt>
      <trkpt lat="47.05226942896843" lon="6.844304976984859">
        <ele>1355.5999999999999</ele>
        <time>2012-03-24T09:27:50Z</time>
      </trkpt>
      <trkpt lat="47.052238415926695" lon="6.844263151288033">
        <ele>1355.1199999999999</ele>
        <time>2012-03-24T09:27:51Z</time>
      </trkpt>
      <trkpt lat="47.052207486703992" lon="6.844218894839287">
        <ele>1354.6300000000001</ele>
        <time>2012-03-24T09:27:52Z</time>
      </trkpt>
      <trkpt lat="47.052181251347065" lon="6.844165837392211">
        <ele>1354.6300000000001</ele>
        <time>2012-03-24T09:27:53Z</time>
      </trkpt>
      <trkpt lat="47.052154093980789" lon="6.844119569286704">
        <ele>1355.1199999999999</ele>
        <time>2012-03-24T09:27:54Z</time>
      </trkpt>
      <trkpt lat="47.052125763148069" lon="6.844073636457324">
        <ele>1354.6300000000001</ele>
        <time>2012-03-24T09:27:55Z</time>
      </trkpt>
      <trkpt lat="47.052101287990808" lon="6.844019573181868">
        <ele>1354.6300000000001</ele>
        <time>2012-03-24T09:27:56Z</time>
      </trkpt>
      <trkpt lat="47.052074717357755" lon="6.843971041962504">
        <ele>1354.6300000000001</ele>
        <time>2012-03-24T09:27:57Z</time>
      </trkpt>
      <trkpt lat="47.05204856581986" lon="6.84392930008471">
        <ele>1354.6300000000001</ele>
        <time>2012-03-24T09:27:58Z</time>
      </trkpt>
      <trkpt lat="47.052027359604836" lon="6.843881942331791">
        <ele>1354.1500000000001</ele>
        <time>2012-03-24T09:27:59Z</time>
      </trkpt>
      <trkpt lat="47.052005231380463" lon="6.843837769702077">
        <ele>1354.1500000000001</ele>
        <time>2012-03-24T09:28:00Z</time>
      </trkpt>
      <trkpt lat="47.051983270794153" lon="6.843796614557505">
        <ele>1355.1199999999999</ele>
        <time>2012-03-24T09:28:01Z</time>
      </trkpt>
      <trkpt lat="47.051963321864605" lon="6.843752609565854">
        <ele>1355.1199999999999</ele>
        <time>2012-03-24T09:28:02Z</time>
      </trkpt>
      <trkpt lat="47.051940942183137" lon="6.843714555725455">
        <ele>1354.6300000000001</ele>
        <time>2012-03-24T09:28:03Z</time>
      </trkpt>
      <trkpt lat="47.051919149234891" lon="6.843677423894405">
        <ele>1354.6300000000001</ele>
        <time>2012-03-24T09:28:04Z</time>
      </trkpt>
      <trkpt lat="47.051898194476962" lon="6.843633502721787">
        <ele>1355.1199999999999</ele>
        <time>2012-03-24T09:28:05Z</time>
      </trkpt>
      <trkpt lat="47.051874389871955" lon="6.843592766672373">
        <ele>1354.1500000000001</ele>
        <time>2012-03-24T09:28:06Z</time>
      </trkpt>
      <trkpt lat="47.051852848380804" lon="6.843544989824295">
        <ele>1354.1500000000001</ele>
        <time>2012-03-24T09:28:07Z</time>
      </trkpt>
      <trkpt lat="47.05183214507997" lon="6.843493860214949">
        <ele>1354.6300000000001</ele>
        <time>2012-03-24T09:28:08Z</time>
      </trkpt>
      <trkpt lat="47.051807669922709" lon="6.84344943612814">
        <ele>1354.1500000000001</ele>
        <time>2012-03-24T09:28:09Z</time>
      </trkpt>
      <trkpt lat="47.051786379888654" lon="6.843399815261364">
        <ele>1354.6300000000001</ele>
        <time>2012-03-24T09:28:10Z</time>
      </trkpt>
      <trkpt lat="47.051764670759439" lon="6.84334977529943">
        <ele>1354.1500000000001</ele>
        <time>2012-03-24T09:28:11Z</time>
      </trkpt>
      <trkpt lat="47.051740363240242" lon="6.843301830813289">
        <ele>1354.1500000000001</ele>
        <time>2012-03-24T09:28:12Z</time>
      </trkpt>
      <trkpt lat="47.051685629412532" lon="6.843200409784913">
        <ele>1354.1500000000001</ele>
        <time>2012-03-24T09:28:14Z</time>
      </trkpt>
      <trkpt lat="47.051627123728395" lon="6.843093708157539">
        <ele>1353.1900000000001</ele>
        <time>2012-03-24T09:28:16Z</time>
      </trkpt>
      <trkpt lat="47.05159854143858" lon="6.843035537749529">
        <ele>1353.1900000000001</ele>
        <time>2012-03-24T09:28:17Z</time>
      </trkpt>
      <trkpt lat="47.051568701863289" lon="6.842981893569231">
        <ele>1352.71</ele>
        <time>2012-03-24T09:28:18Z</time>
      </trkpt>
      <trkpt lat="47.051539281383157" lon="6.842921962961555">
        <ele>1352.71</ele>
        <time>2012-03-24T09:28:19Z</time>
      </trkpt>
      <trkpt lat="47.051505669951439" lon="6.84286454692483">
        <ele>1352.23</ele>
        <time>2012-03-24T09:28:20Z</time>
      </trkpt>
      <trkpt lat="47.051468538120389" lon="6.842811070382595">
        <ele>1352.23</ele>
        <time>2012-03-24T09:28:21Z</time>
      </trkpt>
      <trkpt lat="47.051435681059957" lon="6.84275122359395">
        <ele>1351.75</ele>
        <time>2012-03-24T09:28:22Z</time>
      </trkpt>
      <trkpt lat="47.05139821395278" lon="6.842690873891115">
        <ele>1351.75</ele>
        <time>2012-03-24T09:28:23Z</time>
      </trkpt>
      <trkpt lat="47.05135814845562" lon="6.842630691826344">
        <ele>1351.27</ele>
        <time>2012-03-24T09:28:24Z</time>
      </trkpt>
      <trkpt lat="47.051318418234587" lon="6.842562295496464">
        <ele>1350.3099999999999</ele>
        <time>2012-03-24T09:28:25Z</time>
      </trkpt>
      <trkpt lat="47.051274497061968" lon="6.842496497556567">
        <ele>1350.3099999999999</ele>
        <time>2012-03-24T09:28:26Z</time>
      </trkpt>
      <trkpt lat="47.051229234784842" lon="6.842426341027021">
        <ele>1350.3099999999999</ele>
        <time>2012-03-24T09:28:27Z</time>
      </trkpt>
      <trkpt lat="47.051187744364142" lon="6.842347467318177">
        <ele>1350.3099999999999</ele>
        <time>2012-03-24T09:28:28Z</time>
      </trkpt>
      <trkpt lat="47.051144242286682" lon="6.842270353808999">
        <ele>1349.3499999999999</ele>
        <time>2012-03-24T09:28:29Z</time>
      </trkpt>
      <trkpt lat="47.051098477095366" lon="6.842199359089136">
        <ele>1348.3900000000001</ele>
        <time>2012-03-24T09:28:30Z</time>
      </trkpt>
      <trkpt lat="47.050935868173838" lon="6.841928875073791">
        <ele>1346.9400000000001</ele>
        <time>2012-03-24T09:28:34Z</time>
      </trkpt>
      <trkpt lat="47.050894629210234" lon="6.841869112104178">
        <ele>1345.5</ele>
        <time>2012-03-24T09:28:35Z</time>
      </trkpt>
      <trkpt lat="47.050827573984861" lon="6.841751430183649">
        <ele>1345.02</ele>
        <time>2012-03-24T09:28:37Z</time>
      </trkpt>
      <trkpt lat="47.05079379491508" lon="6.841695103794336">
        <ele>1345.02</ele>
        <time>2012-03-24T09:28:38Z</time>
      </trkpt>
      <trkpt lat="47.050733780488372" lon="6.841586222872138">
        <ele>1344.54</ele>
        <time>2012-03-24T09:28:40Z</time>
      </trkpt>
      <trkpt lat="47.050701593980193" lon="6.841537272557616">
        <ele>1344.0599999999999</ele>
        <time>2012-03-24T09:28:41Z</time>
      </trkpt>
      <trkpt lat="47.050621546804905" lon="6.841392014175654">
        <ele>1344.54</ele>
        <time>2012-03-24T09:28:44Z</time>
      </trkpt>
      <trkpt lat="47.050551138818264" lon="6.841264525428414">
        <ele>1344.54</ele>
        <time>2012-03-24T09:28:47Z</time>
      </trkpt>
      <trkpt lat="47.050498919561505" lon="6.841125134378672">
        <ele>1345.02</ele>
        <time>2012-03-24T09:28:50Z</time>
      </trkpt>
      <trkpt lat="47.050490118563175" lon="6.841068556532264">
        <ele>1345.5</ele>
        <time>2012-03-24T09:28:51Z</time>
      </trkpt>
      <trkpt lat="47.050477461889386" lon="6.841018432751298">
        <ele>1345.5</ele>
        <time>2012-03-24T09:28:52Z</time>
      </trkpt>
      <trkpt lat="47.050464218482375" lon="6.840970907360315">
        <ele>1345.5</ele>
        <time>2012-03-24T09:28:53Z</time>
      </trkpt>
      <trkpt lat="47.050455585122108" lon="6.840920280665159">
        <ele>1345.5</ele>
        <time>2012-03-24T09:28:54Z</time>
      </trkpt>
      <trkpt lat="47.050443179905415" lon="6.84087342582643">
        <ele>1345.02</ele>
        <time>2012-03-24T09:28:55Z</time>
      </trkpt>
      <trkpt lat="47.050428260117769" lon="6.840825648978353">
        <ele>1345.5</ele>
        <time>2012-03-24T09:28:56Z</time>
      </trkpt>
      <trkpt lat="47.050417615100741" lon="6.840772088617086">
        <ele>1345.5</ele>
        <time>2012-03-24T09:28:57Z</time>
      </trkpt>
      <trkpt lat="47.050404623150826" lon="6.840722551569343">
        <ele>1345.02</ele>
        <time>2012-03-24T09:28:58Z</time>
      </trkpt>
      <trkpt lat="47.050391128286719" lon="6.840673936530948">
        <ele>1345.5</ele>
        <time>2012-03-24T09:28:59Z</time>
      </trkpt>
      <trkpt lat="47.050379896536469" lon="6.840622387826443">
        <ele>1345.5</ele>
        <time>2012-03-24T09:29:00Z</time>
      </trkpt>
      <trkpt lat="47.05036573112011" lon="6.84057192876935">
        <ele>1345.5</ele>
        <time>2012-03-24T09:29:01Z</time>
      </trkpt>
      <trkpt lat="47.050354247912765" lon="6.840520212426782">
        <ele>1345.5</ele>
        <time>2012-03-24T09:29:02Z</time>
      </trkpt>
      <trkpt lat="47.050342177972198" lon="6.84046640060842">
        <ele>1345.5</ele>
        <time>2012-03-24T09:29:03Z</time>
      </trkpt>
      <trkpt lat="47.050326000899076" lon="6.840418037027121">
        <ele>1345.02</ele>
        <time>2012-03-24T09:29:04Z</time>
      </trkpt>
      <trkpt lat="47.050313260406256" lon="6.840361710637808">
        <ele>1345.5</ele>
        <time>2012-03-24T09:29:05Z</time>
      </trkpt>
      <trkpt lat="47.050298843532801" lon="6.840306390076876">
        <ele>1345.02</ele>
        <time>2012-03-24T09:29:06Z</time>
      </trkpt>
      <trkpt lat="47.05028023570776" lon="6.840255428105593">
        <ele>1345.5</ele>
        <time>2012-03-24T09:29:07Z</time>
      </trkpt>
      <trkpt lat="47.050262549892068" lon="6.8402015324682">
        <ele>1345.5</ele>
        <time>2012-03-24T09:29:08Z</time>
      </trkpt>
      <trkpt lat="47.050218377262354" lon="6.840097513049841">
        <ele>1345.5</ele>
        <time>2012-03-24T09:29:10Z</time>
      </trkpt>
      <trkpt lat="47.050196584314108" lon="6.840044036507607">
        <ele>1345.02</ele>
        <time>2012-03-24T09:29:11Z</time>
      </trkpt>
      <trkpt lat="47.0501693431288" lon="6.839992487803102">
        <ele>1345.02</ele>
        <time>2012-03-24T09:29:12Z</time>
      </trkpt>
      <trkpt lat="47.050141012296081" lon="6.839938508346677">
        <ele>1345.02</ele>
        <time>2012-03-24T09:29:13Z</time>
      </trkpt>
      <trkpt lat="47.050112346187234" lon="6.839887211099267">
        <ele>1345.5</ele>
        <time>2012-03-24T09:29:14Z</time>
      </trkpt>
      <trkpt lat="47.050082422792912" lon="6.839840104803443">
        <ele>1345.5</ele>
        <time>2012-03-24T09:29:15Z</time>
      </trkpt>
      <trkpt lat="47.050053086131811" lon="6.83979257941246">
        <ele>1344.54</ele>
        <time>2012-03-24T09:29:16Z</time>
      </trkpt>
      <trkpt lat="47.05001980997622" lon="6.839748993515968">
        <ele>1345.02</ele>
        <time>2012-03-24T09:29:17Z</time>
      </trkpt>
      <trkpt lat="47.049985947087407" lon="6.839704234153032">
        <ele>1344.54</ele>
        <time>2012-03-24T09:29:18Z</time>
      </trkpt>
      <trkpt lat="47.049954514950514" lon="6.839657127857208">
        <ele>1344.0599999999999</ele>
        <time>2012-03-24T09:29:19Z</time>
      </trkpt>
      <trkpt lat="47.049921909347177" lon="6.839606836438179">
        <ele>1343.5799999999999</ele>
        <time>2012-03-24T09:29:20Z</time>
      </trkpt>
      <trkpt lat="47.049892069771886" lon="6.839551348239183">
        <ele>1342.6199999999999</ele>
        <time>2012-03-24T09:29:21Z</time>
      </trkpt>
      <trkpt lat="47.049865666776896" lon="6.839491920545697">
        <ele>1342.6199999999999</ele>
        <time>2012-03-24T09:29:22Z</time>
      </trkpt>
      <trkpt lat="47.049832139164209" lon="6.839281870052218">
        <ele>1341.6600000000001</ele>
        <time>2012-03-24T09:29:25Z</time>
      </trkpt>
      <trkpt lat="47.049841610714793" lon="6.839216994121671">
        <ele>1341.1800000000001</ele>
        <time>2012-03-24T09:29:26Z</time>
      </trkpt>
      <trkpt lat="47.049858961254358" lon="6.839161589741707">
        <ele>1340.7</ele>
        <time>2012-03-24T09:29:27Z</time>
      </trkpt>
      <trkpt lat="47.049885531887412" lon="6.839122194796801">
        <ele>1341.1800000000001</ele>
        <time>2012-03-24T09:29:28Z</time>
      </trkpt>
      <trkpt lat="47.049922915175557" lon="6.839102413505316">
        <ele>1341.6600000000001</ele>
        <time>2012-03-24T09:29:29Z</time>
      </trkpt>
      <trkpt lat="47.049963651224971" lon="6.839093444868922">
        <ele>1341.1800000000001</ele>
        <time>2012-03-24T09:29:30Z</time>
      </trkpt>
      <trkpt lat="47.050004387274384" lon="6.839090175926685">
        <ele>1340.7</ele>
        <time>2012-03-24T09:29:31Z</time>
      </trkpt>
      <trkpt lat="47.050042022019625" lon="6.839092522859573">
        <ele>1340.22</ele>
        <time>2012-03-24T09:29:32Z</time>
      </trkpt>
      <trkpt lat="47.050196751952171" lon="6.839158907532692">
        <ele>1340.22</ele>
        <time>2012-03-24T09:29:36Z</time>
      </trkpt>
      <trkpt lat="47.050232291221619" lon="6.839191177859902">
        <ele>1340.22</ele>
        <time>2012-03-24T09:29:37Z</time>
      </trkpt>
      <trkpt lat="47.050532279536128" lon="6.839554030448198">
        <ele>1337.3299999999999</ele>
        <time>2012-03-24T09:29:46Z</time>
      </trkpt>
      <trkpt lat="47.05064233392477" lon="6.839698953554034">
        <ele>1334.9300000000001</ele>
        <time>2012-03-24T09:29:50Z</time>
      </trkpt>
      <trkpt lat="47.050737719982862" lon="6.839815964922309">
        <ele>1331.0799999999999</ele>
        <time>2012-03-24T09:29:54Z</time>
      </trkpt>
      <trkpt lat="47.050764709711075" lon="6.839851755648851">
        <ele>1330.5999999999999</ele>
        <time>2012-03-24T09:29:55Z</time>
      </trkpt>
      <trkpt lat="47.050796393305063" lon="6.839899532496929">
        <ele>1330.5999999999999</ele>
        <time>2012-03-24T09:29:56Z</time>
      </trkpt>
      <trkpt lat="47.050940562039614" lon="6.840063231065869">
        <ele>1327.24</ele>
        <time>2012-03-24T09:29:59Z</time>
      </trkpt>
      <trkpt lat="47.051222780719399" lon="6.840265654027462">
        <ele>1324.3499999999999</ele>
        <time>2012-03-24T09:30:03Z</time>
      </trkpt>
      <trkpt lat="47.051550596952438" lon="6.840534545481205">
        <ele>1323.3900000000001</ele>
        <time>2012-03-24T09:30:09Z</time>
      </trkpt>
      <trkpt lat="47.051593763753772" lon="6.840571844950318">
        <ele>1324.8299999999999</ele>
        <time>2012-03-24T09:30:10Z</time>
      </trkpt>
      <trkpt lat="47.051631147041917" lon="6.840610988438129">
        <ele>1325.3099999999999</ele>
        <time>2012-03-24T09:30:11Z</time>
      </trkpt>
      <trkpt lat="47.05166601575911" lon="6.840649209916592">
        <ele>1324.3499999999999</ele>
        <time>2012-03-24T09:30:12Z</time>
      </trkpt>
      <trkpt lat="47.051699794828892" lon="6.840680139139295">
        <ele>1323.8699999999999</ele>
        <time>2012-03-24T09:30:13Z</time>
      </trkpt>
      <trkpt lat="47.051730556413531" lon="6.840717857703567">
        <ele>1324.8299999999999</ele>
        <time>2012-03-24T09:30:14Z</time>
      </trkpt>
      <trkpt lat="47.051756959408522" lon="6.840765802189708">
        <ele>1324.3499999999999</ele>
        <time>2012-03-24T09:30:15Z</time>
      </trkpt>
      <trkpt lat="47.0517857093364" lon="6.840807124972343">
        <ele>1324.3499999999999</ele>
        <time>2012-03-24T09:30:16Z</time>
      </trkpt>
      <trkpt lat="47.051815548911691" lon="6.84084702283144">
        <ele>1324.8299999999999</ele>
        <time>2012-03-24T09:30:17Z</time>
      </trkpt>
      <trkpt lat="47.051840191707015" lon="6.840891866013408">
        <ele>1325.3099999999999</ele>
        <time>2012-03-24T09:30:18Z</time>
      </trkpt>
      <trkpt lat="47.051921160891652" lon="6.841017846018076">
        <ele>1325.8</ele>
        <time>2012-03-24T09:30:21Z</time>
      </trkpt>
      <trkpt lat="47.05194546841085" lon="6.841059504076839">
        <ele>1325.8</ele>
        <time>2012-03-24T09:30:22Z</time>
      </trkpt>
      <trkpt lat="47.051974134519696" lon="6.841091187670827">
        <ele>1325.3099999999999</ele>
        <time>2012-03-24T09:30:23Z</time>
      </trkpt>
      <trkpt lat="47.051999783143401" lon="6.841130079701543">
        <ele>1324.8299999999999</ele>
        <time>2012-03-24T09:30:24Z</time>
      </trkpt>
      <trkpt lat="47.052020654082298" lon="6.841174252331257">
        <ele>1326.28</ele>
        <time>2012-03-24T09:30:25Z</time>
      </trkpt>
      <trkpt lat="47.052087625488639" lon="6.841294197365642">
        <ele>1324.8299999999999</ele>
        <time>2012-03-24T09:30:28Z</time>
      </trkpt>
      <trkpt lat="47.052108747884631" lon="6.841336274519563">
        <ele>1325.8</ele>
        <time>2012-03-24T09:30:29Z</time>
      </trkpt>
      <trkpt lat="47.052159374579787" lon="6.841414058580995">
        <ele>1325.8</ele>
        <time>2012-03-24T09:30:31Z</time>
      </trkpt>
      <trkpt lat="47.052180664613843" lon="6.841455800458789">
        <ele>1325.8</ele>
        <time>2012-03-24T09:30:32Z</time>
      </trkpt>
      <trkpt lat="47.052204217761755" lon="6.841489747166634">
        <ele>1326.76</ele>
        <time>2012-03-24T09:30:33Z</time>
      </trkpt>
      <trkpt lat="47.052225759252906" lon="6.84152914211154">
        <ele>1327.24</ele>
        <time>2012-03-24T09:30:34Z</time>
      </trkpt>
      <trkpt lat="47.05224797129631" lon="6.84156677685678">
        <ele>1325.8</ele>
        <time>2012-03-24T09:30:35Z</time>
      </trkpt>
      <trkpt lat="47.052273200824857" lon="6.841594772413373">
        <ele>1326.76</ele>
        <time>2012-03-24T09:30:36Z</time>
      </trkpt>
      <trkpt lat="47.052296418696642" lon="6.841632323339582">
        <ele>1327.72</ele>
        <time>2012-03-24T09:30:37Z</time>
      </trkpt>
      <trkpt lat="47.052319049835205" lon="6.841672472655773">
        <ele>1326.28</ele>
        <time>2012-03-24T09:30:38Z</time>
      </trkpt>
      <trkpt lat="47.052343524992466" lon="6.841704994440079">
        <ele>1327.24</ele>
        <time>2012-03-24T09:30:39Z</time>
      </trkpt>
      <trkpt lat="47.052365569397807" lon="6.84174514375627">
        <ele>1327.24</ele>
        <time>2012-03-24T09:30:40Z</time>
      </trkpt>
      <trkpt lat="47.052385099232197" lon="6.841787975281477">
        <ele>1326.76</ele>
        <time>2012-03-24T09:30:41Z</time>
      </trkpt>
      <trkpt lat="47.052406221628189" lon="6.84182234108448">
        <ele>1326.76</ele>
        <time>2012-03-24T09:30:42Z</time>
      </trkpt>
      <trkpt lat="47.052429439499974" lon="6.841852348297834">
        <ele>1327.24</ele>
        <time>2012-03-24T09:30:43Z</time>
      </trkpt>
      <trkpt lat="47.052447460591793" lon="6.841890402138233">
        <ele>1327.72</ele>
        <time>2012-03-24T09:30:44Z</time>
      </trkpt>
      <trkpt lat="47.052466236054897" lon="6.841920157894492">
        <ele>1327.24</ele>
        <time>2012-03-24T09:30:45Z</time>
      </trkpt>
      <trkpt lat="47.052485179156065" lon="6.841948069632053">
        <ele>1327.24</ele>
        <time>2012-03-24T09:30:46Z</time>
      </trkpt>
      <trkpt lat="47.052520634606481" lon="6.84201437048614">
        <ele>1329.1600000000001</ele>
        <time>2012-03-24T09:30:48Z</time>
      </trkpt>
      <trkpt lat="47.052686596289277" lon="6.842240346595645">
        <ele>1329.1600000000001</ele>
        <time>2012-03-24T09:30:56Z</time>
      </trkpt>
      <trkpt lat="47.052861358970404" lon="6.842491384595633">
        <ele>1329.6400000000001</ele>
        <time>2012-03-24T09:31:05Z</time>
      </trkpt>
      <trkpt lat="47.052958672866225" lon="6.842654161155224">
        <ele>1329.1600000000001</ele>
        <time>2012-03-24T09:31:10Z</time>
      </trkpt>
      <trkpt lat="47.053101668134332" lon="6.842917939648032">
        <ele>1330.1199999999999</ele>
        <time>2012-03-24T09:31:18Z</time>
      </trkpt>
      <trkpt lat="47.053209962323308" lon="6.843087589368224">
        <ele>1332.52</ele>
        <time>2012-03-24T09:31:24Z</time>
      </trkpt>
      <trkpt lat="47.053226893767715" lon="6.843119021505117">
        <ele>1331.5599999999999</ele>
        <time>2012-03-24T09:31:25Z</time>
      </trkpt>
      <trkpt lat="47.053259834647179" lon="6.843175264075398">
        <ele>1332.04</ele>
        <time>2012-03-24T09:31:27Z</time>
      </trkpt>
      <trkpt lat="47.053369218483567" lon="6.843365700915456">
        <ele>1332.04</ele>
        <time>2012-03-24T09:31:33Z</time>
      </trkpt>
      <trkpt lat="47.053487235680223" lon="6.843565693125129">
        <ele>1332.04</ele>
        <time>2012-03-24T09:31:39Z</time>
      </trkpt>
      <trkpt lat="47.053540125489235" lon="6.843660660088062">
        <ele>1332.52</ele>
        <time>2012-03-24T09:31:42Z</time>
      </trkpt>
      <trkpt lat="47.053636685013771" lon="6.843831986188889">
        <ele>1331.5599999999999</ele>
        <time>2012-03-24T09:31:47Z</time>
      </trkpt>
      <trkpt lat="47.053750930353999" lon="6.844025356695056">
        <ele>1333.01</ele>
        <time>2012-03-24T09:31:53Z</time>
      </trkpt>
      <trkpt lat="47.05378906801343" lon="6.844090484082699">
        <ele>1333.01</ele>
        <time>2012-03-24T09:31:55Z</time>
      </trkpt>
      <trkpt lat="47.053962824866176" lon="6.844375301152468">
        <ele>1333.49</ele>
        <time>2012-03-24T09:32:04Z</time>
      </trkpt>
      <trkpt lat="47.054078578948975" lon="6.844592224806547">
        <ele>1335.8900000000001</ele>
        <time>2012-03-24T09:32:11Z</time>
      </trkpt>
      <trkpt lat="47.054189722985029" lon="6.844787271693349">
        <ele>1335.4100000000001</ele>
        <time>2012-03-24T09:32:18Z</time>
      </trkpt>
      <trkpt lat="47.054297849535942" lon="6.844993717968464">
        <ele>1336.3699999999999</ele>
        <time>2012-03-24T09:32:25Z</time>
      </trkpt>
      <trkpt lat="47.054388877004385" lon="6.845174683257937">
        <ele>1336.8499999999999</ele>
        <time>2012-03-24T09:32:31Z</time>
      </trkpt>
      <trkpt lat="47.054532375186682" lon="6.84543427079916">
        <ele>1337.8099999999999</ele>
        <time>2012-03-24T09:32:40Z</time>
      </trkpt>
      <trkpt lat="47.05464905127883" lon="6.845616828650236">
        <ele>1337.8099999999999</ele>
        <time>2012-03-24T09:32:47Z</time>
      </trkpt>
      <trkpt lat="47.054735384881496" lon="6.845776671543717">
        <ele>1339.25</ele>
        <time>2012-03-24T09:32:52Z</time>
      </trkpt>
      <trkpt lat="47.054866058751941" lon="6.846003821119666">
        <ele>1339.73</ele>
        <time>2012-03-24T09:33:00Z</time>
      </trkpt>
      <trkpt lat="47.0549700781703" lon="6.846189647912979">
        <ele>1340.7</ele>
        <time>2012-03-24T09:33:07Z</time>
      </trkpt>
      <trkpt lat="47.05502824857831" lon="6.846301965415478">
        <ele>1341.1800000000001</ele>
        <time>2012-03-24T09:33:11Z</time>
      </trkpt>
      <trkpt lat="47.055115671828389" lon="6.84646574780345">
        <ele>1341.6600000000001</ele>
        <time>2012-03-24T09:33:17Z</time>
      </trkpt>
      <trkpt lat="47.055234275758266" lon="6.846683258190751">
        <ele>1343.0999999999999</ele>
        <time>2012-03-24T09:33:25Z</time>
      </trkpt>
      <trkpt lat="47.055280627682805" lon="6.84676137752831">
        <ele>1343.0999999999999</ele>
        <time>2012-03-24T09:33:28Z</time>
      </trkpt>
      <trkpt lat="47.055313903838396" lon="6.846815440803766">
        <ele>1343.0999999999999</ele>
        <time>2012-03-24T09:33:30Z</time>
      </trkpt>
      <trkpt lat="47.05543234013021" lon="6.847028089687228">
        <ele>1344.0599999999999</ele>
        <time>2012-03-24T09:33:38Z</time>
      </trkpt>
      <trkpt lat="47.05549000762403" lon="6.847139149904251">
        <ele>1344.0599999999999</ele>
        <time>2012-03-24T09:33:42Z</time>
      </trkpt>
      <trkpt lat="47.055587572976947" lon="6.847296142950654">
        <ele>1344.54</ele>
        <time>2012-03-24T09:33:48Z</time>
      </trkpt>
      <trkpt lat="47.055645491927862" lon="6.847414076328278">
        <ele>1345.5</ele>
        <time>2012-03-24T09:33:52Z</time>
      </trkpt>
      <trkpt lat="47.055740375071764" lon="6.847568135708571">
        <ele>1346.46</ele>
        <time>2012-03-24T09:33:58Z</time>
      </trkpt>
      <trkpt lat="47.0558852981776" lon="6.847811043262482">
        <ele>1347.4300000000001</ele>
        <time>2012-03-24T09:34:07Z</time>
      </trkpt>
      <trkpt lat="47.05590340308845" lon="6.84783685952425">
        <ele>1347.4300000000001</ele>
        <time>2012-03-24T09:34:08Z</time>
      </trkpt>
      <trkpt lat="47.056064251810312" lon="6.848096447065473">
        <ele>1347.4300000000001</ele>
        <time>2012-03-24T09:34:17Z</time>
      </trkpt>
      <trkpt lat="47.056079925969243" lon="6.848128214478493">
        <ele>1347.4300000000001</ele>
        <time>2012-03-24T09:34:18Z</time>
      </trkpt>
      <trkpt lat="47.056252174079418" lon="6.848394842818379">
        <ele>1348.3900000000001</ele>
        <time>2012-03-24T09:34:27Z</time>
      </trkpt>
      <trkpt lat="47.056296598166227" lon="6.848456701263785">
        <ele>1348.8699999999999</ele>
        <time>2012-03-24T09:34:29Z</time>
      </trkpt>
      <trkpt lat="47.0563411898911" lon="6.848515039309859">
        <ele>1348.8699999999999</ele>
        <time>2012-03-24T09:34:31Z</time>
      </trkpt>
      <trkpt lat="47.056553335860372" lon="6.84875744394958">
        <ele>1348.3900000000001</ele>
        <time>2012-03-24T09:34:40Z</time>
      </trkpt>
      <trkpt lat="47.056628102436662" lon="6.848845202475786">
        <ele>1348.8699999999999</ele>
        <time>2012-03-24T09:34:43Z</time>
      </trkpt>
      <trkpt lat="47.056689206510782" lon="6.848905887454748">
        <ele>1348.8699999999999</ele>
        <time>2012-03-24T09:34:45Z</time>
      </trkpt>
      <trkpt lat="47.056720973923802" lon="6.848939498886466">
        <ele>1348.8699999999999</ele>
        <time>2012-03-24T09:34:46Z</time>
      </trkpt>
      <trkpt lat="47.056751903146505" lon="6.848970511928201">
        <ele>1349.3499999999999</ele>
        <time>2012-03-24T09:34:47Z</time>
      </trkpt>
      <trkpt lat="47.056995816528797" lon="6.849295310676098">
        <ele>1347.4300000000001</ele>
        <time>2012-03-24T09:34:56Z</time>
      </trkpt>
      <trkpt lat="47.057108134031296" lon="6.849531345069408">
        <ele>1346.46</ele>
        <time>2012-03-24T09:35:02Z</time>
      </trkpt>
      <trkpt lat="47.057097237557173" lon="6.849576523527503">
        <ele>1346.46</ele>
        <time>2012-03-24T09:35:03Z</time>
      </trkpt>
      <trkpt lat="47.057086508721113" lon="6.849609380587935">
        <ele>1345.98</ele>
        <time>2012-03-24T09:35:04Z</time>
      </trkpt>
      <trkpt lat="47.056944770738482" lon="6.84963989071548">
        <ele>1347.4300000000001</ele>
        <time>2012-03-24T09:35:11Z</time>
      </trkpt>
      <trkpt lat="47.056808564811945" lon="6.8497424852103">
        <ele>1349.8299999999999</ele>
        <time>2012-03-24T09:35:19Z</time>
      </trkpt>
      <trkpt lat="47.056717872619629" lon="6.849891599267721">
        <ele>1350.79</ele>
        <time>2012-03-24T09:35:26Z</time>
      </trkpt>
      <trkpt lat="47.056685853749514" lon="6.849978771060705">
        <ele>1351.75</ele>
        <time>2012-03-24T09:35:30Z</time>
      </trkpt>
      <trkpt lat="47.056606560945511" lon="6.850171471014619">
        <ele>1354.1500000000001</ele>
        <time>2012-03-24T09:35:39Z</time>
      </trkpt>
      <trkpt lat="47.056519640609622" lon="6.850259900093079">
        <ele>1355.5999999999999</ele>
        <time>2012-03-24T09:35:46Z</time>
      </trkpt>
      <trkpt lat="47.056548558175564" lon="6.850279849022627">
        <ele>1355.1199999999999</ele>
        <time>2012-03-24T09:35:49Z</time>
      </trkpt>
      <trkpt lat="47.056805212050676" lon="6.850250344723463">
        <ele>1354.1500000000001</ele>
        <time>2012-03-24T09:35:56Z</time>
      </trkpt>
      <trkpt lat="47.057048203423619" lon="6.850365428254008">
        <ele>1351.75</ele>
        <time>2012-03-24T09:36:01Z</time>
      </trkpt>
      <trkpt lat="47.057165633887053" lon="6.850467771291733">
        <ele>1350.79</ele>
        <time>2012-03-24T09:36:03Z</time>
      </trkpt>
      <trkpt lat="47.05727937631309" lon="6.850585537031293">
        <ele>1349.8299999999999</ele>
        <time>2012-03-24T09:36:05Z</time>
      </trkpt>
      <trkpt lat="47.057498814538121" lon="6.850827019661665">
        <ele>1346.9400000000001</ele>
        <time>2012-03-24T09:36:09Z</time>
      </trkpt>
      <trkpt lat="47.057549608871341" lon="6.850890386849642">
        <ele>1346.46</ele>
        <time>2012-03-24T09:36:10Z</time>
      </trkpt>
      <trkpt lat="47.057643150910735" lon="6.851012259721756">
        <ele>1345.98</ele>
        <time>2012-03-24T09:36:12Z</time>
      </trkpt>
      <trkpt lat="47.058014888316393" lon="6.851462032645941">
        <ele>1343.0999999999999</ele>
        <time>2012-03-24T09:36:21Z</time>
      </trkpt>
      <trkpt lat="47.058054618537426" lon="6.851507043465972">
        <ele>1343.0999999999999</ele>
        <time>2012-03-24T09:36:22Z</time>
      </trkpt>
      <trkpt lat="47.058187304064631" lon="6.851624390110374">
        <ele>1342.1400000000001</ele>
        <time>2012-03-24T09:36:25Z</time>
      </trkpt>
      <trkpt lat="47.058632802218199" lon="6.851980956271291">
        <ele>1340.7</ele>
        <time>2012-03-24T09:36:35Z</time>
      </trkpt>
      <trkpt lat="47.058810498565435" lon="6.852135518565774">
        <ele>1340.22</ele>
        <time>2012-03-24T09:36:39Z</time>
      </trkpt>
      <trkpt lat="47.059057177975774" lon="6.852401979267597">
        <ele>1338.77</ele>
        <time>2012-03-24T09:36:45Z</time>
      </trkpt>
      <trkpt lat="47.059172177687287" lon="6.852565342560411">
        <ele>1337.3299999999999</ele>
        <time>2012-03-24T09:36:48Z</time>
      </trkpt>
      <trkpt lat="47.059284746646881" lon="6.852751756086946">
        <ele>1336.8499999999999</ele>
        <time>2012-03-24T09:36:51Z</time>
      </trkpt>
      <trkpt lat="47.059432016685605" lon="6.853027101606131">
        <ele>1334.9300000000001</ele>
        <time>2012-03-24T09:36:55Z</time>
      </trkpt>
      <trkpt lat="47.059543831273913" lon="6.853251066058874">
        <ele>1334.45</ele>
        <time>2012-03-24T09:36:58Z</time>
      </trkpt>
      <trkpt lat="47.05966092646122" lon="6.85348148457706">
        <ele>1332.52</ele>
        <time>2012-03-24T09:37:01Z</time>
      </trkpt>
      <trkpt lat="47.059742482379079" lon="6.85364468023181">
        <ele>1330.5999999999999</ele>
        <time>2012-03-24T09:37:03Z</time>
      </trkpt>
      <trkpt lat="47.059927973896265" lon="6.854094620794058">
        <ele>1328.2</ele>
        <time>2012-03-24T09:37:08Z</time>
      </trkpt>
      <trkpt lat="47.060127547010779" lon="6.854824516922236">
        <ele>1326.28</ele>
        <time>2012-03-24T09:37:17Z</time>
      </trkpt>
      <trkpt lat="47.060172222554684" lon="6.855033226311207">
        <ele>1324.8299999999999</ele>
        <time>2012-03-24T09:37:20Z</time>
      </trkpt>
      <trkpt lat="47.060186304152012" lon="6.855103634297848">
        <ele>1324.3499999999999</ele>
        <time>2012-03-24T09:37:21Z</time>
      </trkpt>
      <trkpt lat="47.060264926403761" lon="6.855510743334889">
        <ele>1324.3499999999999</ele>
        <time>2012-03-24T09:37:27Z</time>
      </trkpt>
      <trkpt lat="47.060303734615445" lon="6.855701934546232">
        <ele>1322.9100000000001</ele>
        <time>2012-03-24T09:37:30Z</time>
      </trkpt>
      <trkpt lat="47.060322929173708" lon="6.855759937316179">
        <ele>1322.9100000000001</ele>
        <time>2012-03-24T09:37:31Z</time>
      </trkpt>
      <trkpt lat="47.060386715456843" lon="6.856004185974598">
        <ele>1321.95</ele>
        <time>2012-03-24T09:37:35Z</time>
      </trkpt>
      <trkpt lat="47.060399623587728" lon="6.856062859296799">
        <ele>1322.4300000000001</ele>
        <time>2012-03-24T09:37:36Z</time>
      </trkpt>
      <trkpt lat="47.0605184789747" lon="6.856408277526498">
        <ele>1321.95</ele>
        <time>2012-03-24T09:37:43Z</time>
      </trkpt>
      <trkpt lat="47.060717381536961" lon="6.856851261109114">
        <ele>1321.95</ele>
        <time>2012-03-24T09:37:52Z</time>
      </trkpt>
      <trkpt lat="47.060866830870509" lon="6.857117637991905">
        <ele>1320.99</ele>
        <time>2012-03-24T09:37:58Z</time>
      </trkpt>
      <trkpt lat="47.06098803319037" lon="6.857273625209928">
        <ele>1320.99</ele>
        <time>2012-03-24T09:38:02Z</time>
      </trkpt>
      <trkpt lat="47.061322638764977" lon="6.857466492801905">
        <ele>1321.47</ele>
        <time>2012-03-24T09:38:11Z</time>
      </trkpt>
      <trkpt lat="47.061395226046443" lon="6.85749214142561">
        <ele>1321.47</ele>
        <time>2012-03-24T09:38:13Z</time>
      </trkpt>
      <trkpt lat="47.061543501913548" lon="6.857530111446977">
        <ele>1321.47</ele>
        <time>2012-03-24T09:38:17Z</time>
      </trkpt>
      <trkpt lat="47.061619022861123" lon="6.857541762292385">
        <ele>1321.47</ele>
        <time>2012-03-24T09:38:19Z</time>
      </trkpt>
      <trkpt lat="47.061721533536911" lon="6.857525333762169">
        <ele>1321.47</ele>
        <time>2012-03-24T09:38:22Z</time>
      </trkpt>
      <trkpt lat="47.061979528516531" lon="6.857388708740473">
        <ele>1321.47</ele>
        <time>2012-03-24T09:38:30Z</time>
      </trkpt>
      <trkpt lat="47.062071645632386" lon="6.857382589951158">
        <ele>1320.99</ele>
        <time>2012-03-24T09:38:33Z</time>
      </trkpt>
      <trkpt lat="47.062118668109179" lon="6.857567997649312">
        <ele>1320.99</ele>
        <time>2012-03-24T09:38:37Z</time>
      </trkpt>
      <trkpt lat="47.06212948076427" lon="6.857627760618925">
        <ele>1320.51</ele>
        <time>2012-03-24T09:38:38Z</time>
      </trkpt>
      <trkpt lat="47.062141383066773" lon="6.857685260474682">
        <ele>1320.51</ele>
        <time>2012-03-24T09:38:39Z</time>
      </trkpt>
      <trkpt lat="47.062159320339561" lon="6.857733372598887">
        <ele>1320.03</ele>
        <time>2012-03-24T09:38:40Z</time>
      </trkpt>
      <trkpt lat="47.062182286754251" lon="6.857771091163158">
        <ele>1321.47</ele>
        <time>2012-03-24T09:38:41Z</time>
      </trkpt>
      <trkpt lat="47.062220592051744" lon="6.857842840254307">
        <ele>1321.47</ele>
        <time>2012-03-24T09:38:43Z</time>
      </trkpt>
      <trkpt lat="47.062244480475783" lon="6.857864633202553">
        <ele>1320.99</ele>
        <time>2012-03-24T09:38:44Z</time>
      </trkpt>
      <trkpt lat="47.062264429405332" lon="6.8578932993114">
        <ele>1321.95</ele>
        <time>2012-03-24T09:38:45Z</time>
      </trkpt>
      <trkpt lat="47.062280606478453" lon="6.857924899086356">
        <ele>1322.4300000000001</ele>
        <time>2012-03-24T09:38:46Z</time>
      </trkpt>
      <trkpt lat="47.062297537922859" lon="6.857950296252966">
        <ele>1321.95</ele>
        <time>2012-03-24T09:38:47Z</time>
      </trkpt>
      <trkpt lat="47.062313379719853" lon="6.857976783066988">
        <ele>1322.4300000000001</ele>
        <time>2012-03-24T09:38:48Z</time>
      </trkpt>
      <trkpt lat="47.06232201308012" lon="6.858017686754465">
        <ele>1322.4300000000001</ele>
        <time>2012-03-24T09:38:49Z</time>
      </trkpt>
      <trkpt lat="47.062331819906831" lon="6.858057249337435">
        <ele>1323.3900000000001</ele>
        <time>2012-03-24T09:38:50Z</time>
      </trkpt>
      <trkpt lat="47.062342464923859" lon="6.858092956244946">
        <ele>1322.9100000000001</ele>
        <time>2012-03-24T09:38:51Z</time>
      </trkpt>
      <trkpt lat="47.062347242608666" lon="6.858133943751454">
        <ele>1322.9100000000001</ele>
        <time>2012-03-24T09:38:52Z</time>
      </trkpt>
      <trkpt lat="47.062350427731872" lon="6.858173841610551">
        <ele>1322.9100000000001</ele>
        <time>2012-03-24T09:38:53Z</time>
      </trkpt>
      <trkpt lat="47.062355792149901" lon="6.858214074745774">
        <ele>1322.9100000000001</ele>
        <time>2012-03-24T09:38:54Z</time>
      </trkpt>
      <trkpt lat="47.062243642285466" lon="6.858445750549436">
        <ele>1324.3499999999999</ele>
        <time>2012-03-24T09:39:01Z</time>
      </trkpt>
      <trkpt lat="47.062205420807004" lon="6.858464945107698">
        <ele>1323.3900000000001</ele>
        <time>2012-03-24T09:39:02Z</time>
      </trkpt>
      <trkpt lat="47.062167031690478" lon="6.858484391123056">
        <ele>1323.3900000000001</ele>
        <time>2012-03-24T09:39:03Z</time>
      </trkpt>
      <trkpt lat="47.062117327004671" lon="6.858491180464625">
        <ele>1323.3900000000001</ele>
        <time>2012-03-24T09:39:04Z</time>
      </trkpt>
      <trkpt lat="47.062063850462437" lon="6.858495874330401">
        <ele>1322.9100000000001</ele>
        <time>2012-03-24T09:39:05Z</time>
      </trkpt>
      <trkpt lat="47.062005428597331" lon="6.85849629342556">
        <ele>1322.4300000000001</ele>
        <time>2012-03-24T09:39:06Z</time>
      </trkpt>
      <trkpt lat="47.061938792467117" lon="6.85848799534142">
        <ele>1321.47</ele>
        <time>2012-03-24T09:39:07Z</time>
      </trkpt>
      <trkpt lat="47.06186855211854" lon="6.858467375859618">
        <ele>1321.47</ele>
        <time>2012-03-24T09:39:08Z</time>
      </trkpt>
      <trkpt lat="47.061753971502185" lon="6.858411552384496">
        <ele>1321.47</ele>
        <time>2012-03-24T09:39:10Z</time>
      </trkpt>
      <trkpt lat="47.061669649556279" lon="6.858359249308705">
        <ele>1320.51</ele>
        <time>2012-03-24T09:39:12Z</time>
      </trkpt>
      <trkpt lat="47.061632350087166" lon="6.858330918475986">
        <ele>1321.47</ele>
        <time>2012-03-24T09:39:13Z</time>
      </trkpt>
      <trkpt lat="47.061593374237418" lon="6.858305269852281">
        <ele>1321.47</ele>
        <time>2012-03-24T09:39:14Z</time>
      </trkpt>
      <trkpt lat="47.061556410044432" lon="6.858271658420563">
        <ele>1320.99</ele>
        <time>2012-03-24T09:39:15Z</time>
      </trkpt>
      <trkpt lat="47.061523720622063" lon="6.858236538246274">
        <ele>1320.99</ele>
        <time>2012-03-24T09:39:16Z</time>
      </trkpt>
      <trkpt lat="47.061491198837757" lon="6.858206111937761">
        <ele>1320.99</ele>
        <time>2012-03-24T09:39:17Z</time>
      </trkpt>
      <trkpt lat="47.061458844691515" lon="6.858169734477997">
        <ele>1321.47</ele>
        <time>2012-03-24T09:39:18Z</time>
      </trkpt>
      <trkpt lat="47.061425149440765" lon="6.858131345361471">
        <ele>1320.99</ele>
        <time>2012-03-24T09:39:19Z</time>
      </trkpt>
      <trkpt lat="47.061352394521236" lon="6.85804819688201">
        <ele>1320.99</ele>
        <time>2012-03-24T09:39:21Z</time>
      </trkpt>
      <trkpt lat="47.061314675956964" lon="6.858004527166486">
        <ele>1320.51</ele>
        <time>2012-03-24T09:39:22Z</time>
      </trkpt>
      <trkpt lat="47.061281064525247" lon="6.857971753925085">
        <ele>1320.51</ele>
        <time>2012-03-24T09:39:23Z</time>
      </trkpt>
      <trkpt lat="47.061254326254129" lon="6.857939399778843">
        <ele>1321.47</ele>
        <time>2012-03-24T09:39:24Z</time>
      </trkpt>
      <trkpt lat="47.061229096725583" lon="6.857903525233269">
        <ele>1320.99</ele>
        <time>2012-03-24T09:39:25Z</time>
      </trkpt>
      <trkpt lat="47.061203112825751" lon="6.857878128066659">
        <ele>1321.47</ele>
        <time>2012-03-24T09:39:26Z</time>
      </trkpt>
      <trkpt lat="47.061178972944617" lon="6.857852060347796">
        <ele>1321.47</ele>
        <time>2012-03-24T09:39:27Z</time>
      </trkpt>
      <trkpt lat="47.061156760901213" lon="6.857817023992539">
        <ele>1321.95</ele>
        <time>2012-03-24T09:39:28Z</time>
      </trkpt>
      <trkpt lat="47.06113412976265" lon="6.857785759493709">
        <ele>1321.47</ele>
        <time>2012-03-24T09:39:29Z</time>
      </trkpt>
      <trkpt lat="47.06110923551023" lon="6.857758434489369">
        <ele>1321.95</ele>
        <time>2012-03-24T09:39:30Z</time>
      </trkpt>
      <trkpt lat="47.061084089800715" lon="6.85772180557251">
        <ele>1322.4300000000001</ele>
        <time>2012-03-24T09:39:31Z</time>
      </trkpt>
      <trkpt lat="47.061057519167662" lon="6.85768710449338">
        <ele>1321.95</ele>
        <time>2012-03-24T09:39:32Z</time>
      </trkpt>
      <trkpt lat="47.061028853058815" lon="6.857656678184867">
        <ele>1321.47</ele>
        <time>2012-03-24T09:39:33Z</time>
      </trkpt>
      <trkpt lat="47.060847636312246" lon="6.857415363192558">
        <ele>1321.47</ele>
        <time>2012-03-24T09:39:40Z</time>
      </trkpt>
      <trkpt lat="47.060824250802398" lon="6.857380410656333">
        <ele>1321.95</ele>
        <time>2012-03-24T09:39:41Z</time>
      </trkpt>
      <trkpt lat="47.060800865292549" lon="6.857351325452328">
        <ele>1321.95</ele>
        <time>2012-03-24T09:39:42Z</time>
      </trkpt>
      <trkpt lat="47.060778737068176" lon="6.857311762869358">
        <ele>1321.47</ele>
        <time>2012-03-24T09:39:43Z</time>
      </trkpt>
      <trkpt lat="47.060753758996725" lon="6.85727521777153">
        <ele>1321.47</ele>
        <time>2012-03-24T09:39:44Z</time>
      </trkpt>
      <trkpt lat="47.06072760745883" lon="6.857239175587893">
        <ele>1322.4300000000001</ele>
        <time>2012-03-24T09:39:45Z</time>
      </trkpt>
      <trkpt lat="47.060700533911586" lon="6.857199529185891">
        <ele>1321.95</ele>
        <time>2012-03-24T09:39:46Z</time>
      </trkpt>
      <trkpt lat="47.060669520869851" lon="6.857170024886727">
        <ele>1321.47</ele>
        <time>2012-03-24T09:39:47Z</time>
      </trkpt>
      <trkpt lat="47.060638926923275" lon="6.857138173654676">
        <ele>1322.4300000000001</ele>
        <time>2012-03-24T09:39:48Z</time>
      </trkpt>
      <trkpt lat="47.060611601918936" lon="6.857104394584894">
        <ele>1321.47</ele>
        <time>2012-03-24T09:39:49Z</time>
      </trkpt>
      <trkpt lat="47.060584360733628" lon="6.857078578323126">
        <ele>1321.47</ele>
        <time>2012-03-24T09:39:50Z</time>
      </trkpt>
      <trkpt lat="47.060560304671526" lon="6.857044966891408">
        <ele>1322.4300000000001</ele>
        <time>2012-03-24T09:39:51Z</time>
      </trkpt>
      <trkpt lat="47.060535410419106" lon="6.857010601088405">
        <ele>1321.47</ele>
        <time>2012-03-24T09:39:52Z</time>
      </trkpt>
      <trkpt lat="47.060514455661178" lon="6.856975564733148">
        <ele>1322.4300000000001</ele>
        <time>2012-03-24T09:39:53Z</time>
      </trkpt>
      <trkpt lat="47.060494003817439" lon="6.856931811198592">
        <ele>1322.9100000000001</ele>
        <time>2012-03-24T09:39:54Z</time>
      </trkpt>
      <trkpt lat="47.06047204323113" lon="6.856891410425305">
        <ele>1322.4300000000001</ele>
        <time>2012-03-24T09:39:55Z</time>
      </trkpt>
      <trkpt lat="47.060449160635471" lon="6.856849165633321">
        <ele>1322.4300000000001</ele>
        <time>2012-03-24T09:39:56Z</time>
      </trkpt>
      <trkpt lat="47.060428205877542" lon="6.856802981346846">
        <ele>1322.9100000000001</ele>
        <time>2012-03-24T09:39:57Z</time>
      </trkpt>
      <trkpt lat="47.060319408774376" lon="6.856584465131164">
        <ele>1322.9100000000001</ele>
        <time>2012-03-24T09:40:02Z</time>
      </trkpt>
      <trkpt lat="47.060301387682557" lon="6.856529898941517">
        <ele>1322.4300000000001</ele>
        <time>2012-03-24T09:40:03Z</time>
      </trkpt>
      <trkpt lat="47.060278672724962" lon="6.856479858979583">
        <ele>1321.95</ele>
        <time>2012-03-24T09:40:04Z</time>
      </trkpt>
      <trkpt lat="47.060259142890573" lon="6.856419509276748">
        <ele>1321.95</ele>
        <time>2012-03-24T09:40:05Z</time>
      </trkpt>
      <trkpt lat="47.060239361599088" lon="6.856358405202627">
        <ele>1321.95</ele>
        <time>2012-03-24T09:40:06Z</time>
      </trkpt>
      <trkpt lat="47.060217987746" lon="6.856299983337522">
        <ele>1321.95</ele>
        <time>2012-03-24T09:40:07Z</time>
      </trkpt>
      <trkpt lat="47.060200972482562" lon="6.856236783787608">
        <ele>1322.4300000000001</ele>
        <time>2012-03-24T09:40:08Z</time>
      </trkpt>
      <trkpt lat="47.060183538123965" lon="6.856173919513822">
        <ele>1322.4300000000001</ele>
        <time>2012-03-24T09:40:09Z</time>
      </trkpt>
      <trkpt lat="47.060164846479893" lon="6.856117006391287">
        <ele>1322.9100000000001</ele>
        <time>2012-03-24T09:40:10Z</time>
      </trkpt>
      <trkpt lat="47.060151100158691" lon="6.856056489050388">
        <ele>1322.4300000000001</ele>
        <time>2012-03-24T09:40:11Z</time>
      </trkpt>
      <trkpt lat="47.060135342180729" lon="6.856000414118171">
        <ele>1321.95</ele>
        <time>2012-03-24T09:40:12Z</time>
      </trkpt>
      <trkpt lat="47.060118159279227" lon="6.855946686118841">
        <ele>1321.95</ele>
        <time>2012-03-24T09:40:13Z</time>
      </trkpt>
      <trkpt lat="47.060104161500931" lon="6.855891784653068">
        <ele>1321.47</ele>
        <time>2012-03-24T09:40:14Z</time>
      </trkpt>
      <trkpt lat="47.060068873688579" lon="6.855786172673106">
        <ele>1321.95</ele>
        <time>2012-03-24T09:40:16Z</time>
      </trkpt>
      <trkpt lat="47.060055881738663" lon="6.855729846283793">
        <ele>1322.9100000000001</ele>
        <time>2012-03-24T09:40:17Z</time>
      </trkpt>
      <trkpt lat="47.060041548684239" lon="6.855679051950574">
        <ele>1322.4300000000001</ele>
        <time>2012-03-24T09:40:18Z</time>
      </trkpt>
      <trkpt lat="47.060022689402103" lon="6.855632700026035">
        <ele>1321.95</ele>
        <time>2012-03-24T09:40:19Z</time>
      </trkpt>
      <trkpt lat="47.060008272528648" lon="6.855581486597657">
        <ele>1321.95</ele>
        <time>2012-03-24T09:40:20Z</time>
      </trkpt>
      <trkpt lat="47.0599917601794" lon="6.855539157986641">
        <ele>1321.95</ele>
        <time>2012-03-24T09:40:21Z</time>
      </trkpt>
      <trkpt lat="47.059971475973725" lon="6.855506636202335">
        <ele>1322.4300000000001</ele>
        <time>2012-03-24T09:40:22Z</time>
      </trkpt>
      <trkpt lat="47.059951107949018" lon="6.855467995628715">
        <ele>1322.4300000000001</ele>
        <time>2012-03-24T09:40:23Z</time>
      </trkpt>
      <trkpt lat="47.059929901733994" lon="6.855435306206346">
        <ele>1321.95</ele>
        <time>2012-03-24T09:40:24Z</time>
      </trkpt>
      <trkpt lat="47.059907773509622" lon="6.855410495772958">
        <ele>1322.4300000000001</ele>
        <time>2012-03-24T09:40:25Z</time>
      </trkpt>
      <trkpt lat="47.059669811278582" lon="6.85520195402205">
        <ele>1322.9100000000001</ele>
        <time>2012-03-24T09:40:33Z</time>
      </trkpt>
      <trkpt lat="47.059480212628841" lon="6.855082428082824">
        <ele>1324.3499999999999</ele>
        <time>2012-03-24T09:40:40Z</time>
      </trkpt>
      <trkpt lat="47.059408631175756" lon="6.8550128582865">
        <ele>1325.3099999999999</ele>
        <time>2012-03-24T09:40:45Z</time>
      </trkpt>
      <trkpt lat="47.059394717216492" lon="6.855003470554948">
        <ele>1325.3099999999999</ele>
        <time>2012-03-24T09:40:46Z</time>
      </trkpt>
      <trkpt lat="47.059285920113325" lon="6.854894254356623">
        <ele>1327.24</ele>
        <time>2012-03-24T09:40:55Z</time>
      </trkpt>
      <trkpt lat="47.059282818809152" lon="6.854859804734588">
        <ele>1328.2</ele>
        <time>2012-03-24T09:40:57Z</time>
      </trkpt>
      <trkpt lat="47.059246860444546" lon="6.854769447818399">
        <ele>1329.6400000000001</ele>
        <time>2012-03-24T09:41:04Z</time>
      </trkpt>
      <trkpt lat="47.059231773018837" lon="6.854728292673826">
        <ele>1330.1199999999999</ele>
        <time>2012-03-24T09:41:07Z</time>
      </trkpt>
      <trkpt lat="47.059229258447886" lon="6.854660734534264">
        <ele>1331.5599999999999</ele>
        <time>2012-03-24T09:41:12Z</time>
      </trkpt>
      <trkpt lat="47.059220708906651" lon="6.854633325710893">
        <ele>1331.0799999999999</ele>
        <time>2012-03-24T09:41:14Z</time>
      </trkpt>
      <trkpt lat="47.059232192113996" lon="6.854599798098207">
        <ele>1332.04</ele>
        <time>2012-03-24T09:41:17Z</time>
      </trkpt>
      <trkpt lat="47.05923973582685" lon="6.854532072320581">
        <ele>1332.52</ele>
        <time>2012-03-24T09:41:21Z</time>
      </trkpt>
      <trkpt lat="47.059265216812491" lon="6.854486558586359">
        <ele>1333.49</ele>
        <time>2012-03-24T09:41:25Z</time>
      </trkpt>
      <trkpt lat="47.059289943426847" lon="6.854352364316583">
        <ele>1332.52</ele>
        <time>2012-03-24T09:41:31Z</time>
      </trkpt>
      <trkpt lat="47.059371331706643" lon="6.85395447537303">
        <ele>1333.01</ele>
        <time>2012-03-24T09:41:41Z</time>
      </trkpt>
      <trkpt lat="47.059348113834858" lon="6.853720955550671">
        <ele>1333.97</ele>
        <time>2012-03-24T09:41:47Z</time>
      </trkpt>
      <trkpt lat="47.059300923720002" lon="6.85344192199409">
        <ele>1334.9300000000001</ele>
        <time>2012-03-24T09:41:54Z</time>
      </trkpt>
      <trkpt lat="47.059218445792794" lon="6.853096084669232">
        <ele>1335.8900000000001</ele>
        <time>2012-03-24T09:42:03Z</time>
      </trkpt>
      <trkpt lat="47.059146948158741" lon="6.852801712229848">
        <ele>1336.3699999999999</ele>
        <time>2012-03-24T09:42:10Z</time>
      </trkpt>
      <trkpt lat="47.059074444696307" lon="6.852533156052232">
        <ele>1336.3699999999999</ele>
        <time>2012-03-24T09:42:17Z</time>
      </trkpt>
      <trkpt lat="47.058996995911002" lon="6.852376665920019">
        <ele>1336.8499999999999</ele>
        <time>2012-03-24T09:42:22Z</time>
      </trkpt>
      <trkpt lat="47.059043515473604" lon="6.852374989539385">
        <ele>1337.8099999999999</ele>
        <time>2012-03-24T09:42:30Z</time>
      </trkpt>
      <trkpt lat="47.059154324233532" lon="6.852531731128693">
        <ele>1337.3299999999999</ele>
        <time>2012-03-24T09:42:34Z</time>
      </trkpt>
      <trkpt lat="47.059411313384771" lon="6.852969015017152">
        <ele>1334.9300000000001</ele>
        <time>2012-03-24T09:42:43Z</time>
      </trkpt>
      <trkpt lat="47.059625554829836" lon="6.853390708565712">
        <ele>1332.04</ele>
        <time>2012-03-24T09:42:50Z</time>
      </trkpt>
      <trkpt lat="47.059659501537681" lon="6.853462625294924">
        <ele>1331.5599999999999</ele>
        <time>2012-03-24T09:42:51Z</time>
      </trkpt>
      <trkpt lat="47.059765364974737" lon="6.853686505928636">
        <ele>1330.1199999999999</ele>
        <time>2012-03-24T09:42:54Z</time>
      </trkpt>
      <trkpt lat="47.059891680255532" lon="6.853984566405416">
        <ele>1330.1199999999999</ele>
        <time>2012-03-24T09:42:58Z</time>
      </trkpt>
      <trkpt lat="47.060014894232154" lon="6.854305090382695">
        <ele>1326.76</ele>
        <time>2012-03-24T09:43:03Z</time>
      </trkpt>
      <trkpt lat="47.060118326917291" lon="6.854674313217402">
        <ele>1324.8299999999999</ele>
        <time>2012-03-24T09:43:09Z</time>
      </trkpt>
      <trkpt lat="47.060159062966704" lon="6.85502752661705">
        <ele>1323.3900000000001</ele>
        <time>2012-03-24T09:43:15Z</time>
      </trkpt>
      <trkpt lat="47.060134084895253" lon="6.855084104463458">
        <ele>1322.9100000000001</ele>
        <time>2012-03-24T09:43:16Z</time>
      </trkpt>
      <trkpt lat="47.06011145375669" lon="6.855140095576644">
        <ele>1322.9100000000001</ele>
        <time>2012-03-24T09:43:17Z</time>
      </trkpt>
      <trkpt lat="47.060089996084571" lon="6.855195499956608">
        <ele>1322.9100000000001</ele>
        <time>2012-03-24T09:43:18Z</time>
      </trkpt>
      <trkpt lat="47.060063760727644" lon="6.855245623737574">
        <ele>1323.3900000000001</ele>
        <time>2012-03-24T09:43:19Z</time>
      </trkpt>
      <trkpt lat="47.060048673301935" lon="6.855297842994332">
        <ele>1322.9100000000001</ele>
        <time>2012-03-24T09:43:20Z</time>
      </trkpt>
      <trkpt lat="47.060023527592421" lon="6.855597831308842">
        <ele>1322.4300000000001</ele>
        <time>2012-03-24T09:43:25Z</time>
      </trkpt>
      <trkpt lat="47.060086559504271" lon="6.855837386101484">
        <ele>1321.95</ele>
        <time>2012-03-24T09:43:29Z</time>
      </trkpt>
      <trkpt lat="47.060106424614787" lon="6.855896394699812">
        <ele>1321.47</ele>
        <time>2012-03-24T09:43:30Z</time>
      </trkpt>
      <trkpt lat="47.060127211734653" lon="6.855955319479108">
        <ele>1322.4300000000001</ele>
        <time>2012-03-24T09:43:31Z</time>
      </trkpt>
      <trkpt lat="47.060143556445837" lon="6.856019357219338">
        <ele>1321.47</ele>
        <time>2012-03-24T09:43:32Z</time>
      </trkpt>
      <trkpt lat="47.060161074623466" lon="6.856078365817666">
        <ele>1321.47</ele>
        <time>2012-03-24T09:43:33Z</time>
      </trkpt>
      <trkpt lat="47.060178006067872" lon="6.856135614216328">
        <ele>1321.47</ele>
        <time>2012-03-24T09:43:34Z</time>
      </trkpt>
      <trkpt lat="47.060207761824131" lon="6.856250865384936">
        <ele>1322.9100000000001</ele>
        <time>2012-03-24T09:43:36Z</time>
      </trkpt>
      <trkpt lat="47.060239529237151" lon="6.856357818469405">
        <ele>1323.3900000000001</ele>
        <time>2012-03-24T09:43:38Z</time>
      </trkpt>
      <trkpt lat="47.060254281386733" lon="6.856408109888434">
        <ele>1322.4300000000001</ele>
        <time>2012-03-24T09:43:39Z</time>
      </trkpt>
      <trkpt lat="47.060269704088569" lon="6.856454629451037">
        <ele>1322.4300000000001</ele>
        <time>2012-03-24T09:43:40Z</time>
      </trkpt>
      <trkpt lat="47.060280935838819" lon="6.856503076851368">
        <ele>1323.3900000000001</ele>
        <time>2012-03-24T09:43:41Z</time>
      </trkpt>
      <trkpt lat="47.060297196730971" lon="6.856544567272067">
        <ele>1323.3900000000001</ele>
        <time>2012-03-24T09:43:42Z</time>
      </trkpt>
      <trkpt lat="47.060315469279885" lon="6.856581028550863">
        <ele>1323.3900000000001</ele>
        <time>2012-03-24T09:43:43Z</time>
      </trkpt>
      <trkpt lat="47.060331059619784" lon="6.856623943895102">
        <ele>1323.8699999999999</ele>
        <time>2012-03-24T09:43:44Z</time>
      </trkpt>
      <trkpt lat="47.060348074883223" lon="6.856664344668388">
        <ele>1323.3900000000001</ele>
        <time>2012-03-24T09:43:45Z</time>
      </trkpt>
      <trkpt lat="47.060369197279215" lon="6.856700554490089">
        <ele>1322.9100000000001</ele>
        <time>2012-03-24T09:43:46Z</time>
      </trkpt>
      <trkpt lat="47.060387134552002" lon="6.856745313853025">
        <ele>1322.9100000000001</ele>
        <time>2012-03-24T09:43:47Z</time>
      </trkpt>
      <trkpt lat="47.060407334938645" lon="6.856786552816629">
        <ele>1322.9100000000001</ele>
        <time>2012-03-24T09:43:48Z</time>
      </trkpt>
      <trkpt lat="47.060429630801082" lon="6.856825863942504">
        <ele>1322.4300000000001</ele>
        <time>2012-03-24T09:43:49Z</time>
      </trkpt>
      <trkpt lat="47.06044957973063" lon="6.856873137876391">
        <ele>1322.4300000000001</ele>
        <time>2012-03-24T09:43:50Z</time>
      </trkpt>
      <trkpt lat="47.060472629964352" lon="6.856915969401598">
        <ele>1322.9100000000001</ele>
        <time>2012-03-24T09:43:51Z</time>
      </trkpt>
      <trkpt lat="47.060499368235469" lon="6.856955196708441">
        <ele>1322.9100000000001</ele>
        <time>2012-03-24T09:43:52Z</time>
      </trkpt>
      <trkpt lat="47.06052484922111" lon="6.856999201700091">
        <ele>1322.9100000000001</ele>
        <time>2012-03-24T09:43:53Z</time>
      </trkpt>
      <trkpt lat="47.060551419854164" lon="6.85703725554049">
        <ele>1321.95</ele>
        <time>2012-03-24T09:43:54Z</time>
      </trkpt>
      <trkpt lat="47.060581678524613" lon="6.857073465362191">
        <ele>1321.95</ele>
        <time>2012-03-24T09:43:55Z</time>
      </trkpt>
      <trkpt lat="47.060612188652158" lon="6.857115793973208">
        <ele>1322.4300000000001</ele>
        <time>2012-03-24T09:43:56Z</time>
      </trkpt>
      <trkpt lat="47.060644961893559" lon="6.857155188918114">
        <ele>1321.95</ele>
        <time>2012-03-24T09:43:57Z</time>
      </trkpt>
      <trkpt lat="47.060677902773023" lon="6.857199193909764">
        <ele>1322.4300000000001</ele>
        <time>2012-03-24T09:43:58Z</time>
      </trkpt>
      <trkpt lat="47.06071101129055" lon="6.857247473672032">
        <ele>1321.47</ele>
        <time>2012-03-24T09:43:59Z</time>
      </trkpt>
      <trkpt lat="47.0607481431216" lon="6.857288964092732">
        <ele>1321.47</ele>
        <time>2012-03-24T09:44:00Z</time>
      </trkpt>
      <trkpt lat="47.060783766210079" lon="6.85733238235116">
        <ele>1321.95</ele>
        <time>2012-03-24T09:44:01Z</time>
      </trkpt>
      <trkpt lat="47.060818467289209" lon="6.85737730935216">
        <ele>1321.95</ele>
        <time>2012-03-24T09:44:02Z</time>
      </trkpt>
      <trkpt lat="47.06085367128253" lon="6.857416033744812">
        <ele>1322.4300000000001</ele>
        <time>2012-03-24T09:44:03Z</time>
      </trkpt>
      <trkpt lat="47.060886947438121" lon="6.857462218031287">
        <ele>1322.4300000000001</ele>
        <time>2012-03-24T09:44:04Z</time>
      </trkpt>
      <trkpt lat="47.060921648517251" lon="6.85751074925065">
        <ele>1322.4300000000001</ele>
        <time>2012-03-24T09:44:05Z</time>
      </trkpt>
      <trkpt lat="47.060990128666162" lon="6.857604375109077">
        <ele>1322.4300000000001</ele>
        <time>2012-03-24T09:44:07Z</time>
      </trkpt>
      <trkpt lat="47.061024913564324" lon="6.857651732861996">
        <ele>1321.47</ele>
        <time>2012-03-24T09:44:08Z</time>
      </trkpt>
      <trkpt lat="47.061060452833772" lon="6.857697078958154">
        <ele>1321.47</ele>
        <time>2012-03-24T09:44:09Z</time>
      </trkpt>
      <trkpt lat="47.061129854992032" lon="6.85778483748436">
        <ele>1321.47</ele>
        <time>2012-03-24T09:44:11Z</time>
      </trkpt>
      <trkpt lat="47.061161622405052" lon="6.857826411724091">
        <ele>1321.47</ele>
        <time>2012-03-24T09:44:12Z</time>
      </trkpt>
      <trkpt lat="47.061193892732263" lon="6.857870165258646">
        <ele>1321.47</ele>
        <time>2012-03-24T09:44:13Z</time>
      </trkpt>
      <trkpt lat="47.061228090897202" lon="6.857908386737108">
        <ele>1320.99</ele>
        <time>2012-03-24T09:44:14Z</time>
      </trkpt>
      <trkpt lat="47.061262708157301" lon="6.857951637357473">
        <ele>1320.99</ele>
        <time>2012-03-24T09:44:15Z</time>
      </trkpt>
      <trkpt lat="47.061302019283175" lon="6.857997737824917">
        <ele>1320.99</ele>
        <time>2012-03-24T09:44:16Z</time>
      </trkpt>
      <trkpt lat="47.061349041759968" lon="6.858038138598204">
        <ele>1320.03</ele>
        <time>2012-03-24T09:44:17Z</time>
      </trkpt>
      <trkpt lat="47.061396231874824" lon="6.858089519664645">
        <ele>1320.03</ele>
        <time>2012-03-24T09:44:18Z</time>
      </trkpt>
      <trkpt lat="47.06143805757165" lon="6.858134865760803">
        <ele>1320.03</ele>
        <time>2012-03-24T09:44:19Z</time>
      </trkpt>
      <trkpt lat="47.061474602669477" lon="6.858164118602872">
        <ele>1320.03</ele>
        <time>2012-03-24T09:44:20Z</time>
      </trkpt>
      <trkpt lat="47.061505867168307" lon="6.858198652043939">
        <ele>1320.51</ele>
        <time>2012-03-24T09:44:21Z</time>
      </trkpt>
      <trkpt lat="47.061536544933915" lon="6.858233101665974">
        <ele>1320.99</ele>
        <time>2012-03-24T09:44:22Z</time>
      </trkpt>
      <trkpt lat="47.061568982899189" lon="6.858256235718727">
        <ele>1320.51</ele>
        <time>2012-03-24T09:44:23Z</time>
      </trkpt>
      <trkpt lat="47.06160175614059" lon="6.858286326751113">
        <ele>1320.99</ele>
        <time>2012-03-24T09:44:24Z</time>
      </trkpt>
      <trkpt lat="47.061636876314878" lon="6.858317758888006">
        <ele>1320.99</ele>
        <time>2012-03-24T09:44:25Z</time>
      </trkpt>
      <trkpt lat="47.061672247946262" lon="6.858340138569474">
        <ele>1320.51</ele>
        <time>2012-03-24T09:44:26Z</time>
      </trkpt>
      <trkpt lat="47.061707032844424" lon="6.858367547392845">
        <ele>1320.99</ele>
        <time>2012-03-24T09:44:27Z</time>
      </trkpt>
      <trkpt lat="47.061746511608362" lon="6.858395375311375">
        <ele>1320.99</ele>
        <time>2012-03-24T09:44:28Z</time>
      </trkpt>
      <trkpt lat="47.061788085848093" lon="6.858414402231574">
        <ele>1320.99</ele>
        <time>2012-03-24T09:44:29Z</time>
      </trkpt>
      <trkpt lat="47.06183242611587" lon="6.858439380303025">
        <ele>1321.47</ele>
        <time>2012-03-24T09:44:30Z</time>
      </trkpt>
      <trkpt lat="47.061880957335234" lon="6.858461508527398">
        <ele>1320.99</ele>
        <time>2012-03-24T09:44:31Z</time>
      </trkpt>
      <trkpt lat="47.061929488554597" lon="6.85847039334476">
        <ele>1320.51</ele>
        <time>2012-03-24T09:44:32Z</time>
      </trkpt>
      <trkpt lat="47.061977181583643" lon="6.858480954542756">
        <ele>1320.99</ele>
        <time>2012-03-24T09:44:33Z</time>
      </trkpt>
      <trkpt lat="47.062018755823374" lon="6.858486067503691">
        <ele>1320.51</ele>
        <time>2012-03-24T09:44:34Z</time>
      </trkpt>
      <trkpt lat="47.06204884685576" lon="6.858477434143424">
        <ele>1320.99</ele>
        <time>2012-03-24T09:44:35Z</time>
      </trkpt>
      <trkpt lat="47.062071980908513" lon="6.858472488820553">
        <ele>1321.47</ele>
        <time>2012-03-24T09:44:36Z</time>
      </trkpt>
      <trkpt lat="47.062096456065774" lon="6.858474584296346">
        <ele>1321.47</ele>
        <time>2012-03-24T09:44:37Z</time>
      </trkpt>
      <trkpt lat="47.062116740271449" lon="6.858471315354109">
        <ele>1322.4300000000001</ele>
        <time>2012-03-24T09:44:38Z</time>
      </trkpt>
      <trkpt lat="47.062131408601999" lon="6.858456898480654">
        <ele>1321.47</ele>
        <time>2012-03-24T09:44:39Z</time>
      </trkpt>
      <trkpt lat="47.06216124817729" lon="6.858462430536747">
        <ele>1321.95</ele>
        <time>2012-03-24T09:44:44Z</time>
      </trkpt>
      <trkpt lat="47.062174491584301" lon="6.858463436365128">
        <ele>1322.4300000000001</ele>
        <time>2012-03-24T09:44:54Z</time>
      </trkpt>
      <trkpt lat="47.06217348575592" lon="6.858461424708366">
        <ele>1322.9100000000001</ele>
        <time>2012-03-24T09:44:56Z</time>
      </trkpt>
      <trkpt lat="47.06218178384006" lon="6.8584596645087">
        <ele>1321.47</ele>
        <time>2012-03-24T09:45:05Z</time>
      </trkpt>
      <trkpt lat="47.062181532382965" lon="6.858456060290337">
        <ele>1325.3099999999999</ele>
        <time>2012-03-24T09:45:23Z</time>
      </trkpt>
      <trkpt lat="47.062181700021029" lon="6.858456395566464">
        <ele>1322.9100000000001</ele>
        <time>2012-03-24T09:45:24Z</time>
      </trkpt>
      <trkpt lat="47.062180358916521" lon="6.858456898480654">
        <ele>1318.5899999999999</ele>
        <time>2012-03-24T09:45:38Z</time>
      </trkpt>
      <trkpt lat="47.062180442735553" lon="6.858460251241922">
        <ele>1323.3900000000001</ele>
        <time>2012-03-24T09:45:39Z</time>
      </trkpt>
      <trkpt lat="47.062182370573282" lon="6.858462262898684">
        <ele>1321.95</ele>
        <time>2012-03-24T09:45:43Z</time>
      </trkpt>
      <trkpt lat="47.062169630080462" lon="6.858468800783157">
        <ele>1323.8699999999999</ele>
        <time>2012-03-24T09:45:55Z</time>
      </trkpt>
      <trkpt lat="47.062158985063434" lon="6.858459245413542">
        <ele>1322.4300000000001</ele>
        <time>2012-03-24T09:46:03Z</time>
      </trkpt>
      <trkpt lat="47.0621417183429" lon="6.858466286212206">
        <ele>1322.4300000000001</ele>
        <time>2012-03-24T09:46:04Z</time>
      </trkpt>
      <trkpt lat="47.062085056677461" lon="6.85848749242723">
        <ele>1322.4300000000001</ele>
        <time>2012-03-24T09:46:06Z</time>
      </trkpt>
      <trkpt lat="47.062043063342571" lon="6.858490090817213">
        <ele>1322.9100000000001</ele>
        <time>2012-03-24T09:46:07Z</time>
      </trkpt>
      <trkpt lat="47.06199268810451" lon="6.858494281768799">
        <ele>1321.95</ele>
        <time>2012-03-24T09:46:08Z</time>
      </trkpt>
      <trkpt lat="47.061935774981976" lon="6.858490593731403">
        <ele>1321.47</ele>
        <time>2012-03-24T09:46:09Z</time>
      </trkpt>
      <trkpt lat="47.061787666752934" lon="6.858441475778818">
        <ele>1322.4300000000001</ele>
        <time>2012-03-24T09:46:12Z</time>
      </trkpt>
      <trkpt lat="47.061749445274472" lon="6.858422365039587">
        <ele>1321.95</ele>
        <time>2012-03-24T09:46:13Z</time>
      </trkpt>
      <trkpt lat="47.061715917661786" lon="6.858410462737083">
        <ele>1322.4300000000001</ele>
        <time>2012-03-24T09:46:14Z</time>
      </trkpt>
      <trkpt lat="47.061689263209701" lon="6.85838783159852">
        <ele>1322.4300000000001</ele>
        <time>2012-03-24T09:46:15Z</time>
      </trkpt>
      <trkpt lat="47.061662273481488" lon="6.858363943174481">
        <ele>1320.99</ele>
        <time>2012-03-24T09:46:16Z</time>
      </trkpt>
      <trkpt lat="47.0616305898875" lon="6.858348436653614">
        <ele>1320.51</ele>
        <time>2012-03-24T09:46:17Z</time>
      </trkpt>
      <trkpt lat="47.061598571017385" lon="6.85831499285996">
        <ele>1320.99</ele>
        <time>2012-03-24T09:46:18Z</time>
      </trkpt>
      <trkpt lat="47.061566971242428" lon="6.858278950676322">
        <ele>1321.47</ele>
        <time>2012-03-24T09:46:19Z</time>
      </trkpt>
      <trkpt lat="47.061533946543932" lon="6.858251793310046">
        <ele>1320.51</ele>
        <time>2012-03-24T09:46:20Z</time>
      </trkpt>
      <trkpt lat="47.061503352597356" lon="6.858217511326075">
        <ele>1320.51</ele>
        <time>2012-03-24T09:46:21Z</time>
      </trkpt>
      <trkpt lat="47.061472591012716" lon="6.858180882409215">
        <ele>1320.99</ele>
        <time>2012-03-24T09:46:22Z</time>
      </trkpt>
      <trkpt lat="47.061438225209713" lon="6.858148276805878">
        <ele>1320.51</ele>
        <time>2012-03-24T09:46:23Z</time>
      </trkpt>
      <trkpt lat="47.061402769759297" lon="6.858107959851623">
        <ele>1320.03</ele>
        <time>2012-03-24T09:46:24Z</time>
      </trkpt>
      <trkpt lat="47.061362368986011" lon="6.858065463602543">
        <ele>1320.03</ele>
        <time>2012-03-24T09:46:25Z</time>
      </trkpt>
      <trkpt lat="47.061323644593358" lon="6.858025817200542">
        <ele>1320.03</ele>
        <time>2012-03-24T09:46:26Z</time>
      </trkpt>
      <trkpt lat="47.061288859695196" lon="6.857984075322747">
        <ele>1320.03</ele>
        <time>2012-03-24T09:46:27Z</time>
      </trkpt>
      <trkpt lat="47.061258349567652" lon="6.85795146971941">
        <ele>1320.03</ele>
        <time>2012-03-24T09:46:28Z</time>
      </trkpt>
      <trkpt lat="47.061228761449456" lon="6.857925402000547">
        <ele>1321.47</ele>
        <time>2012-03-24T09:46:29Z</time>
      </trkpt>
      <trkpt lat="47.061202274635434" lon="6.857890617102385">
        <ele>1320.99</ele>
        <time>2012-03-24T09:46:30Z</time>
      </trkpt>
      <trkpt lat="47.061176123097539" lon="6.857855916023254">
        <ele>1320.51</ele>
        <time>2012-03-24T09:46:31Z</time>
      </trkpt>
      <trkpt lat="47.061149133369327" lon="6.857827752828598">
        <ele>1320.99</ele>
        <time>2012-03-24T09:46:32Z</time>
      </trkpt>
      <trkpt lat="47.061123484745622" lon="6.857789028435946">
        <ele>1321.95</ele>
        <time>2012-03-24T09:46:33Z</time>
      </trkpt>
      <trkpt lat="47.06109750084579" lon="6.857752483338118">
        <ele>1321.47</ele>
        <time>2012-03-24T09:46:34Z</time>
      </trkpt>
      <trkpt lat="47.061069337651134" lon="6.857722057029605">
        <ele>1321.95</ele>
        <time>2012-03-24T09:46:35Z</time>
      </trkpt>
      <trkpt lat="47.061042347922921" lon="6.85768174007535">
        <ele>1322.4300000000001</ele>
        <time>2012-03-24T09:46:36Z</time>
      </trkpt>
      <trkpt lat="47.061017956584692" lon="6.857642931863666">
        <ele>1321.95</ele>
        <time>2012-03-24T09:46:37Z</time>
      </trkpt>
      <trkpt lat="47.06099146977067" lon="6.857612924650312">
        <ele>1321.47</ele>
        <time>2012-03-24T09:46:38Z</time>
      </trkpt>
      <trkpt lat="47.060966910794377" lon="6.857575960457325">
        <ele>1321.47</ele>
        <time>2012-03-24T09:46:39Z</time>
      </trkpt>
      <trkpt lat="47.060937490314245" lon="6.857542097568512">
        <ele>1321.47</ele>
        <time>2012-03-24T09:46:40Z</time>
      </trkpt>
      <trkpt lat="47.060908656567335" lon="6.857513347640634">
        <ele>1320.99</ele>
        <time>2012-03-24T09:46:41Z</time>
      </trkpt>
      <trkpt lat="47.060882924124599" lon="6.857470516115427">
        <ele>1322.4300000000001</ele>
        <time>2012-03-24T09:46:42Z</time>
      </trkpt>
      <trkpt lat="47.060859203338623" lon="6.857435228303075">
        <ele>1321.95</ele>
        <time>2012-03-24T09:46:43Z</time>
      </trkpt>
      <trkpt lat="47.06083313561976" lon="6.857404466718435">
        <ele>1321.47</ele>
        <time>2012-03-24T09:46:44Z</time>
      </trkpt>
      <trkpt lat="47.060808576643467" lon="6.85736607760191">
        <ele>1322.4300000000001</ele>
        <time>2012-03-24T09:46:45Z</time>
      </trkpt>
      <trkpt lat="47.060782928019762" lon="6.857330286875367">
        <ele>1322.4300000000001</ele>
        <time>2012-03-24T09:46:46Z</time>
      </trkpt>
      <trkpt lat="47.060757111757994" lon="6.857297345995903">
        <ele>1321.95</ele>
        <time>2012-03-24T09:46:47Z</time>
      </trkpt>
      <trkpt lat="47.06073054112494" lon="6.857257699593902">
        <ele>1322.4300000000001</ele>
        <time>2012-03-24T09:46:48Z</time>
      </trkpt>
      <trkpt lat="47.060704054310918" lon="6.857226602733135">
        <ele>1322.9100000000001</ele>
        <time>2012-03-24T09:46:49Z</time>
      </trkpt>
      <trkpt lat="47.060676645487547" lon="6.857195757329464">
        <ele>1322.9100000000001</ele>
        <time>2012-03-24T09:46:50Z</time>
      </trkpt>
      <trkpt lat="47.060651248320937" lon="6.85715795494616">
        <ele>1321.95</ele>
        <time>2012-03-24T09:46:51Z</time>
      </trkpt>
      <trkpt lat="47.060624929144979" lon="6.857129372656345">
        <ele>1321.95</ele>
        <time>2012-03-24T09:46:52Z</time>
      </trkpt>
      <trkpt lat="47.060597687959671" lon="6.857096012681723">
        <ele>1322.4300000000001</ele>
        <time>2012-03-24T09:46:53Z</time>
      </trkpt>
      <trkpt lat="47.060573464259505" lon="6.857057372108102">
        <ele>1321.95</ele>
        <time>2012-03-24T09:46:54Z</time>
      </trkpt>
      <trkpt lat="47.060521831735969" lon="6.856990735977888">
        <ele>1322.4300000000001</ele>
        <time>2012-03-24T09:46:56Z</time>
      </trkpt>
      <trkpt lat="47.060500374063849" lon="6.856950502842665">
        <ele>1322.4300000000001</ele>
        <time>2012-03-24T09:46:57Z</time>
      </trkpt>
      <trkpt lat="47.060477072373033" lon="6.856915215030313">
        <ele>1321.95</ele>
        <time>2012-03-24T09:46:58Z</time>
      </trkpt>
      <trkpt lat="47.060454776510596" lon="6.856875903904438">
        <ele>1322.4300000000001</ele>
        <time>2012-03-24T09:46:59Z</time>
      </trkpt>
      <trkpt lat="47.06043298356235" lon="6.856832904741168">
        <ele>1321.95</ele>
        <time>2012-03-24T09:47:00Z</time>
      </trkpt>
      <trkpt lat="47.060411190614104" lon="6.856794767081738">
        <ele>1322.4300000000001</ele>
        <time>2012-03-24T09:47:01Z</time>
      </trkpt>
      <trkpt lat="47.06033474765718" lon="6.85661212541163">
        <ele>1322.4300000000001</ele>
        <time>2012-03-24T09:47:05Z</time>
      </trkpt>
      <trkpt lat="47.060315636917949" lon="6.856562336906791">
        <ele>1321.95</ele>
        <time>2012-03-24T09:47:06Z</time>
      </trkpt>
      <trkpt lat="47.060293927788734" lon="6.856513805687428">
        <ele>1321.47</ele>
        <time>2012-03-24T09:47:07Z</time>
      </trkpt>
      <trkpt lat="47.06027758307755" lon="6.856453875079751">
        <ele>1321.95</ele>
        <time>2012-03-24T09:47:08Z</time>
      </trkpt>
      <trkpt lat="47.060260567814112" lon="6.856393776834011">
        <ele>1321.95</ele>
        <time>2012-03-24T09:47:09Z</time>
      </trkpt>
      <trkpt lat="47.060241037979722" lon="6.856337618082762">
        <ele>1321.95</ele>
        <time>2012-03-24T09:47:10Z</time>
      </trkpt>
      <trkpt lat="47.06022578291595" lon="6.856275927275419">
        <ele>1321.47</ele>
        <time>2012-03-24T09:47:11Z</time>
      </trkpt>
      <trkpt lat="47.060209605842829" lon="6.856219517067075">
        <ele>1322.4300000000001</ele>
        <time>2012-03-24T09:47:12Z</time>
      </trkpt>
      <trkpt lat="47.060192925855517" lon="6.85616553761065">
        <ele>1321.47</ele>
        <time>2012-03-24T09:47:13Z</time>
      </trkpt>
      <trkpt lat="47.060177670791745" lon="6.856108540669084">
        <ele>1321.95</ele>
        <time>2012-03-24T09:47:14Z</time>
      </trkpt>
      <trkpt lat="47.0601593144238" lon="6.856057159602642">
        <ele>1322.4300000000001</ele>
        <time>2012-03-24T09:47:15Z</time>
      </trkpt>
      <trkpt lat="47.060141796246171" lon="6.85600477270782">
        <ele>1321.95</ele>
        <time>2012-03-24T09:47:16Z</time>
      </trkpt>
      <trkpt lat="47.060128720477223" lon="6.855948362499476">
        <ele>1321.95</ele>
        <time>2012-03-24T09:47:17Z</time>
      </trkpt>
      <trkpt lat="47.060112375766039" lon="6.855897987261415">
        <ele>1321.47</ele>
        <time>2012-03-24T09:47:18Z</time>
      </trkpt>
      <trkpt lat="47.060092678293586" lon="6.855849623680115">
        <ele>1321.95</ele>
        <time>2012-03-24T09:47:19Z</time>
      </trkpt>
      <trkpt lat="47.060076920315623" lon="6.855791537091136">
        <ele>1321.47</ele>
        <time>2012-03-24T09:47:20Z</time>
      </trkpt>
      <trkpt lat="47.059952113777399" lon="6.855499260127544">
        <ele>1321.95</ele>
        <time>2012-03-24T09:47:27Z</time>
      </trkpt>
      <trkpt lat="47.059932583943009" lon="6.855467408895493">
        <ele>1322.4300000000001</ele>
        <time>2012-03-24T09:47:28Z</time>
      </trkpt>
      <trkpt lat="47.059912383556366" lon="6.855433210730553">
        <ele>1322.9100000000001</ele>
        <time>2012-03-24T09:47:29Z</time>
      </trkpt>
      <trkpt lat="47.059889584779739" lon="6.855406388640404">
        <ele>1321.95</ele>
        <time>2012-03-24T09:47:30Z</time>
      </trkpt>
      <trkpt lat="47.059839712455869" lon="6.855348385870457">
        <ele>1322.9100000000001</ele>
        <time>2012-03-24T09:47:32Z</time>
      </trkpt>
      <trkpt lat="47.059780787676573" lon="6.85529868118465">
        <ele>1322.4300000000001</ele>
        <time>2012-03-24T09:47:34Z</time>
      </trkpt>
      <trkpt lat="47.059559924528003" lon="6.855145795270801">
        <ele>1322.9100000000001</ele>
        <time>2012-03-24T09:47:42Z</time>
      </trkpt>
      <trkpt lat="47.059550704434514" lon="6.85510128736496">
        <ele>1322.4300000000001</ele>
        <time>2012-03-24T09:47:44Z</time>
      </trkpt>
      <trkpt lat="47.059679701924324" lon="6.855219136923552">
        <ele>1322.9100000000001</ele>
        <time>2012-03-24T09:47:50Z</time>
      </trkpt>
      <trkpt lat="47.059713900089264" lon="6.855243276804686">
        <ele>1322.9100000000001</ele>
        <time>2012-03-24T09:47:51Z</time>
      </trkpt>
      <trkpt lat="47.059748768806458" lon="6.855262722820044">
        <ele>1322.4300000000001</ele>
        <time>2012-03-24T09:47:52Z</time>
      </trkpt>
      <trkpt lat="47.059782799333334" lon="6.855290969833732">
        <ele>1323.3900000000001</ele>
        <time>2012-03-24T09:47:53Z</time>
      </trkpt>
      <trkpt lat="47.059817668050528" lon="6.855318462476134">
        <ele>1323.3900000000001</ele>
        <time>2012-03-24T09:47:54Z</time>
      </trkpt>
      <trkpt lat="47.059853374958038" lon="6.855342602357268">
        <ele>1322.4300000000001</ele>
        <time>2012-03-24T09:47:55Z</time>
      </trkpt>
      <trkpt lat="47.060016235336661" lon="6.855616271495819">
        <ele>1321.47</ele>
        <time>2012-03-24T09:48:01Z</time>
      </trkpt>
      <trkpt lat="47.060101311653852" lon="6.85587233863771">
        <ele>1321.47</ele>
        <time>2012-03-24T09:48:05Z</time>
      </trkpt>
      <trkpt lat="47.060119668021798" lon="6.855939226225019">
        <ele>1320.99</ele>
        <time>2012-03-24T09:48:06Z</time>
      </trkpt>
      <trkpt lat="47.060140119865537" lon="6.855999827384949">
        <ele>1320.99</ele>
        <time>2012-03-24T09:48:07Z</time>
      </trkpt>
      <trkpt lat="47.06015738658607" lon="6.856062104925513">
        <ele>1321.47</ele>
        <time>2012-03-24T09:48:08Z</time>
      </trkpt>
      <trkpt lat="47.060176748782396" lon="6.856123711913824">
        <ele>1321.47</ele>
        <time>2012-03-24T09:48:09Z</time>
      </trkpt>
      <trkpt lat="47.060195356607437" lon="6.856188420206308">
        <ele>1321.95</ele>
        <time>2012-03-24T09:48:10Z</time>
      </trkpt>
      <trkpt lat="47.060216395184398" lon="6.856252793222666">
        <ele>1321.47</ele>
        <time>2012-03-24T09:48:11Z</time>
      </trkpt>
      <trkpt lat="47.060236511752009" lon="6.856312640011311">
        <ele>1320.99</ele>
        <time>2012-03-24T09:48:12Z</time>
      </trkpt>
      <trkpt lat="47.060250844806433" lon="6.856372822076082">
        <ele>1321.95</ele>
        <time>2012-03-24T09:48:13Z</time>
      </trkpt>
      <trkpt lat="47.060267189517617" lon="6.856429819017649">
        <ele>1321.95</ele>
        <time>2012-03-24T09:48:14Z</time>
      </trkpt>
      <trkpt lat="47.060287641361356" lon="6.856483295559883">
        <ele>1321.47</ele>
        <time>2012-03-24T09:48:15Z</time>
      </trkpt>
      <trkpt lat="47.060411106795073" lon="6.856765178963542">
        <ele>1321.95</ele>
        <time>2012-03-24T09:48:21Z</time>
      </trkpt>
      <trkpt lat="47.060432229191065" lon="6.856819409877062">
        <ele>1322.4300000000001</ele>
        <time>2012-03-24T09:48:22Z</time>
      </trkpt>
      <trkpt lat="47.060455782338977" lon="6.856867605820298">
        <ele>1322.4300000000001</ele>
        <time>2012-03-24T09:48:23Z</time>
      </trkpt>
      <trkpt lat="47.06048377789557" lon="6.856909012421966">
        <ele>1321.47</ele>
        <time>2012-03-24T09:48:24Z</time>
      </trkpt>
      <trkpt lat="47.060509761795402" lon="6.856959387660027">
        <ele>1321.95</ele>
        <time>2012-03-24T09:48:25Z</time>
      </trkpt>
      <trkpt lat="47.060537757351995" lon="6.857003476470709">
        <ele>1322.4300000000001</ele>
        <time>2012-03-24T09:48:26Z</time>
      </trkpt>
      <trkpt lat="47.060569189488888" lon="6.85704261995852">
        <ele>1321.95</ele>
        <time>2012-03-24T09:48:27Z</time>
      </trkpt>
      <trkpt lat="47.060597771778703" lon="6.857092408463359">
        <ele>1321.95</ele>
        <time>2012-03-24T09:48:28Z</time>
      </trkpt>
      <trkpt lat="47.060628449544311" lon="6.857135323807597">
        <ele>1321.95</ele>
        <time>2012-03-24T09:48:29Z</time>
      </trkpt>
      <trkpt lat="47.060663234442472" lon="6.857173545286059">
        <ele>1321.95</ele>
        <time>2012-03-24T09:48:30Z</time>
      </trkpt>
      <trkpt lat="47.060697767883539" lon="6.857220903038979">
        <ele>1321.95</ele>
        <time>2012-03-24T09:48:31Z</time>
      </trkpt>
      <trkpt lat="47.060733558610082" lon="6.857263566926122">
        <ele>1321.47</ele>
        <time>2012-03-24T09:48:32Z</time>
      </trkpt>
      <trkpt lat="47.060769600793719" lon="6.857303213328123">
        <ele>1321.95</ele>
        <time>2012-03-24T09:48:33Z</time>
      </trkpt>
      <trkpt lat="47.06080581061542" lon="6.857347302138805">
        <ele>1321.95</ele>
        <time>2012-03-24T09:48:34Z</time>
      </trkpt>
      <trkpt lat="47.060841685160995" lon="6.857387367635965">
        <ele>1320.51</ele>
        <time>2012-03-24T09:48:35Z</time>
      </trkpt>
      <trkpt lat="47.060874793678522" lon="6.857432629913092">
        <ele>1322.4300000000001</ele>
        <time>2012-03-24T09:48:36Z</time>
      </trkpt>
      <trkpt lat="47.060907315462828" lon="6.85748191550374">
        <ele>1321.47</ele>
        <time>2012-03-24T09:48:37Z</time>
      </trkpt>
      <trkpt lat="47.060942267999053" lon="6.85752633959055">
        <ele>1321.47</ele>
        <time>2012-03-24T09:48:38Z</time>
      </trkpt>
      <trkpt lat="47.060975208878517" lon="6.857575960457325">
        <ele>1321.95</ele>
        <time>2012-03-24T09:48:39Z</time>
      </trkpt>
      <trkpt lat="47.061008401215076" lon="6.857621893286705">
        <ele>1321.47</ele>
        <time>2012-03-24T09:48:40Z</time>
      </trkpt>
      <trkpt lat="47.061045952141285" lon="6.857665730640292">
        <ele>1321.47</ele>
        <time>2012-03-24T09:48:41Z</time>
      </trkpt>
      <trkpt lat="47.061082329601049" lon="6.857716273516417">
        <ele>1321.95</ele>
        <time>2012-03-24T09:48:42Z</time>
      </trkpt>
      <trkpt lat="47.061119377613068" lon="6.857759356498718">
        <ele>1321.47</ele>
        <time>2012-03-24T09:48:43Z</time>
      </trkpt>
      <trkpt lat="47.06115516833961" lon="6.857799589633942">
        <ele>1320.99</ele>
        <time>2012-03-24T09:48:44Z</time>
      </trkpt>
      <trkpt lat="47.061188360676169" lon="6.857843091711402">
        <ele>1321.47</ele>
        <time>2012-03-24T09:48:45Z</time>
      </trkpt>
      <trkpt lat="47.061225827783346" lon="6.857883743941784">
        <ele>1320.99</ele>
        <time>2012-03-24T09:48:46Z</time>
      </trkpt>
      <trkpt lat="47.061263797804713" lon="6.857928419485688">
        <ele>1320.51</ele>
        <time>2012-03-24T09:48:47Z</time>
      </trkpt>
      <trkpt lat="47.061304282397032" lon="6.857979129999876">
        <ele>1320.51</ele>
        <time>2012-03-24T09:48:48Z</time>
      </trkpt>
      <trkpt lat="47.061394136399031" lon="6.858081640675664">
        <ele>1320.51</ele>
        <time>2012-03-24T09:48:50Z</time>
      </trkpt>
      <trkpt lat="47.06143562681973" lon="6.858121203258634">
        <ele>1320.51</ele>
        <time>2012-03-24T09:48:51Z</time>
      </trkpt>
      <trkpt lat="47.061473596841097" lon="6.858155652880669">
        <ele>1320.03</ele>
        <time>2012-03-24T09:48:52Z</time>
      </trkpt>
      <trkpt lat="47.061505867168307" lon="6.858194880187511">
        <ele>1320.51</ele>
        <time>2012-03-24T09:48:53Z</time>
      </trkpt>
      <trkpt lat="47.061539143323898" lon="6.85822463594377">
        <ele>1320.51</ele>
        <time>2012-03-24T09:48:54Z</time>
      </trkpt>
      <trkpt lat="47.06157635897398" lon="6.858252547681332">
        <ele>1321.47</ele>
        <time>2012-03-24T09:48:55Z</time>
      </trkpt>
      <trkpt lat="47.06161349080503" lon="6.85828766785562">
        <ele>1320.51</ele>
        <time>2012-03-24T09:48:56Z</time>
      </trkpt>
      <trkpt lat="47.061650790274143" lon="6.858317842707038">
        <ele>1320.99</ele>
        <time>2012-03-24T09:48:57Z</time>
      </trkpt>
      <trkpt lat="47.061689430847764" lon="6.858343575149775">
        <ele>1320.99</ele>
        <time>2012-03-24T09:48:58Z</time>
      </trkpt>
      <trkpt lat="47.061727400869131" lon="6.858374001458287">
        <ele>1320.99</ele>
        <time>2012-03-24T09:48:59Z</time>
      </trkpt>
      <trkpt lat="47.061766544356942" lon="6.85839805752039">
        <ele>1320.99</ele>
        <time>2012-03-24T09:49:00Z</time>
      </trkpt>
      <trkpt lat="47.061808789148927" lon="6.858419179916382">
        <ele>1320.99</ele>
        <time>2012-03-24T09:49:01Z</time>
      </trkpt>
      <trkpt lat="47.061906103044748" lon="6.858461508527398">
        <ele>1320.03</ele>
        <time>2012-03-24T09:49:03Z</time>
      </trkpt>
      <trkpt lat="47.061954466626048" lon="6.858469387516379">
        <ele>1320.03</ele>
        <time>2012-03-24T09:49:04Z</time>
      </trkpt>
      <trkpt lat="47.062001656740904" lon="6.858478775247932">
        <ele>1320.03</ele>
        <time>2012-03-24T09:49:05Z</time>
      </trkpt>
      <trkpt lat="47.062038034200668" lon="6.85847332701087">
        <ele>1320.03</ele>
        <time>2012-03-24T09:49:06Z</time>
      </trkpt>
      <trkpt lat="47.062068544328213" lon="6.85846502892673">
        <ele>1320.99</ele>
        <time>2012-03-24T09:49:07Z</time>
      </trkpt>
      <trkpt lat="47.062097210437059" lon="6.85846745967865">
        <ele>1321.47</ele>
        <time>2012-03-24T09:49:08Z</time>
      </trkpt>
      <trkpt lat="47.062123445793986" lon="6.858468884602189">
        <ele>1321.47</ele>
        <time>2012-03-24T09:49:09Z</time>
      </trkpt>
      <trkpt lat="47.062144987285137" lon="6.858459077775478">
        <ele>1321.47</ele>
        <time>2012-03-24T09:49:10Z</time>
      </trkpt>
      <trkpt lat="47.062168959528208" lon="6.858452372252941">
        <ele>1321.95</ele>
        <time>2012-03-24T09:49:11Z</time>
      </trkpt>
      <trkpt lat="47.062195362523198" lon="6.858453629538417">
        <ele>1322.9100000000001</ele>
        <time>2012-03-24T09:49:12Z</time>
      </trkpt>
      <trkpt lat="47.062219586223364" lon="6.858449019491673">
        <ele>1322.4300000000001</ele>
        <time>2012-03-24T09:49:13Z</time>
      </trkpt>
      <trkpt lat="47.06223945133388" lon="6.858428651466966">
        <ele>1322.9100000000001</ele>
        <time>2012-03-24T09:49:14Z</time>
      </trkpt>
      <trkpt lat="47.062263423576951" lon="6.858411552384496">
        <ele>1323.3900000000001</ele>
        <time>2012-03-24T09:49:15Z</time>
      </trkpt>
      <trkpt lat="47.062291670590639" lon="6.858397470787168">
        <ele>1323.3900000000001</ele>
        <time>2012-03-24T09:49:16Z</time>
      </trkpt>
      <trkpt lat="47.062313044443727" lon="6.858372492715716">
        <ele>1323.3900000000001</ele>
        <time>2012-03-24T09:49:17Z</time>
      </trkpt>
      <trkpt lat="47.062331652268767" lon="6.858338797464967">
        <ele>1322.9100000000001</ele>
        <time>2012-03-24T09:49:18Z</time>
      </trkpt>
      <trkpt lat="47.062349505722523" lon="6.858301078900695">
        <ele>1323.8699999999999</ele>
        <time>2012-03-24T09:49:19Z</time>
      </trkpt>
      <trkpt lat="47.062358139082789" lon="6.858257576823235">
        <ele>1323.8699999999999</ele>
        <time>2012-03-24T09:49:20Z</time>
      </trkpt>
      <trkpt lat="47.062360402196646" lon="6.858209045603871">
        <ele>1323.8699999999999</ele>
        <time>2012-03-24T09:49:21Z</time>
      </trkpt>
      <trkpt lat="47.062350930646062" lon="6.858104942366481">
        <ele>1323.8699999999999</ele>
        <time>2012-03-24T09:49:23Z</time>
      </trkpt>
      <trkpt lat="47.062336346134543" lon="6.858056494966149">
        <ele>1323.3900000000001</ele>
        <time>2012-03-24T09:49:24Z</time>
      </trkpt>
      <trkpt lat="47.06232151016593" lon="6.858000587671995">
        <ele>1323.8699999999999</ele>
        <time>2012-03-24T09:49:25Z</time>
      </trkpt>
      <trkpt lat="47.062299465760589" lon="6.8579519726336">
        <ele>1323.3900000000001</ele>
        <time>2012-03-24T09:49:26Z</time>
      </trkpt>
      <trkpt lat="47.062269039452076" lon="6.857904782518745">
        <ele>1323.3900000000001</ele>
        <time>2012-03-24T09:49:27Z</time>
      </trkpt>
      <trkpt lat="47.062237858772278" lon="6.857851389795542">
        <ele>1322.9100000000001</ele>
        <time>2012-03-24T09:49:28Z</time>
      </trkpt>
      <trkpt lat="47.062203073874116" lon="6.857798080891371">
        <ele>1322.4300000000001</ele>
        <time>2012-03-24T09:49:29Z</time>
      </trkpt>
      <trkpt lat="47.062166193500161" lon="6.857745023444295">
        <ele>1321.95</ele>
        <time>2012-03-24T09:49:30Z</time>
      </trkpt>
      <trkpt lat="47.062091259285808" lon="6.857634298503399">
        <ele>1321.47</ele>
        <time>2012-03-24T09:49:32Z</time>
      </trkpt>
      <trkpt lat="47.062053121626377" lon="6.857585264369845">
        <ele>1320.99</ele>
        <time>2012-03-24T09:49:33Z</time>
      </trkpt>
      <trkpt lat="47.062022360041738" lon="6.857538660988212">
        <ele>1321.47</ele>
        <time>2012-03-24T09:49:34Z</time>
      </trkpt>
      <trkpt lat="47.06199461594224" lon="6.85750144533813">
        <ele>1321.47</ele>
        <time>2012-03-24T09:49:35Z</time>
      </trkpt>
      <trkpt lat="47.061974415555596" lon="6.85746967792511">
        <ele>1320.51</ele>
        <time>2012-03-24T09:49:36Z</time>
      </trkpt>
      <trkpt lat="47.061967374756932" lon="6.857431959360838">
        <ele>1320.99</ele>
        <time>2012-03-24T09:49:37Z</time>
      </trkpt>
      <trkpt lat="47.062112046405673" lon="6.857391390949488">
        <ele>1321.47</ele>
        <time>2012-03-24T09:49:43Z</time>
      </trkpt>
      <trkpt lat="47.062183544039726" lon="6.857397174462676">
        <ele>1320.99</ele>
        <time>2012-03-24T09:49:45Z</time>
      </trkpt>
      <trkpt lat="47.062256969511509" lon="6.857396503910422">
        <ele>1321.47</ele>
        <time>2012-03-24T09:49:47Z</time>
      </trkpt>
      <trkpt lat="47.062446316704154" lon="6.857391390949488">
        <ele>1320.99</ele>
        <time>2012-03-24T09:49:52Z</time>
      </trkpt>
      <trkpt lat="47.062487807124853" lon="6.857394827529788">
        <ele>1320.99</ele>
        <time>2012-03-24T09:49:53Z</time>
      </trkpt>
      <trkpt lat="47.062527453526855" lon="6.857392815873027">
        <ele>1320.03</ele>
        <time>2012-03-24T09:49:54Z</time>
      </trkpt>
      <trkpt lat="47.062567938119173" lon="6.857399186119437">
        <ele>1320.99</ele>
        <time>2012-03-24T09:49:55Z</time>
      </trkpt>
      <trkpt lat="47.062609093263745" lon="6.857406981289387">
        <ele>1320.03</ele>
        <time>2012-03-24T09:49:56Z</time>
      </trkpt>
      <trkpt lat="47.062649410218" lon="6.857423912733793">
        <ele>1320.51</ele>
        <time>2012-03-24T09:49:57Z</time>
      </trkpt>
      <trkpt lat="47.06268947571516" lon="6.857446040958166">
        <ele>1320.03</ele>
        <time>2012-03-24T09:49:58Z</time>
      </trkpt>
      <trkpt lat="47.062729373574257" lon="6.857465486973524">
        <ele>1320.03</ele>
        <time>2012-03-24T09:49:59Z</time>
      </trkpt>
      <trkpt lat="47.062769774347544" lon="6.857497757300735">
        <ele>1320.03</ele>
        <time>2012-03-24T09:50:00Z</time>
      </trkpt>
      <trkpt lat="47.06280916929245" lon="6.857529524713755">
        <ele>1320.51</ele>
        <time>2012-03-24T09:50:01Z</time>
      </trkpt>
      <trkpt lat="47.062847558408976" lon="6.857559448108077">
        <ele>1319.55</ele>
        <time>2012-03-24T09:50:02Z</time>
      </trkpt>
      <trkpt lat="47.062884103506804" lon="6.857595406472683">
        <ele>1320.03</ele>
        <time>2012-03-24T09:50:03Z</time>
      </trkpt>
      <trkpt lat="47.062921235337853" lon="6.857623485848308">
        <ele>1320.51</ele>
        <time>2012-03-24T09:50:04Z</time>
      </trkpt>
      <trkpt lat="47.062957948073745" lon="6.857658689841628">
        <ele>1319.55</ele>
        <time>2012-03-24T09:50:05Z</time>
      </trkpt>
      <trkpt lat="47.062996672466397" lon="6.85769347473979">
        <ele>1320.03</ele>
        <time>2012-03-24T09:50:06Z</time>
      </trkpt>
      <trkpt lat="47.063034810125828" lon="6.857725158333778">
        <ele>1319.55</ele>
        <time>2012-03-24T09:50:07Z</time>
      </trkpt>
      <trkpt lat="47.063072696328163" lon="6.857766816392541">
        <ele>1319.55</ele>
        <time>2012-03-24T09:50:08Z</time>
      </trkpt>
      <trkpt lat="47.063111923635006" lon="6.857803110033274">
        <ele>1319.0699999999999</ele>
        <time>2012-03-24T09:50:09Z</time>
      </trkpt>
      <trkpt lat="47.063149139285088" lon="6.85783714056015">
        <ele>1320.03</ele>
        <time>2012-03-24T09:50:10Z</time>
      </trkpt>
      <trkpt lat="47.063183421269059" lon="6.857877625152469">
        <ele>1319.55</ele>
        <time>2012-03-24T09:50:11Z</time>
      </trkpt>
      <trkpt lat="47.063218960538507" lon="6.857914086431265">
        <ele>1319.0699999999999</ele>
        <time>2012-03-24T09:50:12Z</time>
      </trkpt>
      <trkpt lat="47.063252991065383" lon="6.857950044795871">
        <ele>1319.55</ele>
        <time>2012-03-24T09:50:13Z</time>
      </trkpt>
      <trkpt lat="47.06328752450645" lon="6.857990026473999">
        <ele>1319.55</ele>
        <time>2012-03-24T09:50:14Z</time>
      </trkpt>
      <trkpt lat="47.063323734328151" lon="6.858021961525083">
        <ele>1319.0699999999999</ele>
        <time>2012-03-24T09:50:15Z</time>
      </trkpt>
      <trkpt lat="47.063360614702106" lon="6.85805750079453">
        <ele>1319.0699999999999</ele>
        <time>2012-03-24T09:50:16Z</time>
      </trkpt>
      <trkpt lat="47.063396070152521" lon="6.85809756629169">
        <ele>1318.5899999999999</ele>
        <time>2012-03-24T09:50:17Z</time>
      </trkpt>
      <trkpt lat="47.063435046002269" lon="6.858131680637598">
        <ele>1318.5899999999999</ele>
        <time>2012-03-24T09:50:18Z</time>
      </trkpt>
      <trkpt lat="47.063474608585238" lon="6.858168141916394">
        <ele>1318.5899999999999</ele>
        <time>2012-03-24T09:50:19Z</time>
      </trkpt>
      <trkpt lat="47.063515763729811" lon="6.858203848823905">
        <ele>1318.0999999999999</ele>
        <time>2012-03-24T09:50:20Z</time>
      </trkpt>
      <trkpt lat="47.063555410131812" lon="6.858238717541099">
        <ele>1317.6199999999999</ele>
        <time>2012-03-24T09:50:21Z</time>
      </trkpt>
      <trkpt lat="47.063592122867703" lon="6.858282890170813">
        <ele>1318.0999999999999</ele>
        <time>2012-03-24T09:50:22Z</time>
      </trkpt>
      <trkpt lat="47.063628751784563" lon="6.858327481895685">
        <ele>1317.6199999999999</ele>
        <time>2012-03-24T09:50:23Z</time>
      </trkpt>
      <trkpt lat="47.06387534737587" lon="6.858643060550094">
        <ele>1317.1400000000001</ele>
        <time>2012-03-24T09:50:30Z</time>
      </trkpt>
      <trkpt lat="47.06418170593679" lon="6.858987975865603">
        <ele>1316.1800000000001</ele>
        <time>2012-03-24T09:50:38Z</time>
      </trkpt>
      <trkpt lat="47.064472390338778" lon="6.85928544960916">
        <ele>1315.7</ele>
        <time>2012-03-24T09:50:47Z</time>
      </trkpt>
      <trkpt lat="47.064736587926745" lon="6.859497344121337">
        <ele>1314.74</ele>
        <time>2012-03-24T09:50:54Z</time>
      </trkpt>
      <trkpt lat="47.064885282889009" lon="6.859599268063903">
        <ele>1313.78</ele>
        <time>2012-03-24T09:50:57Z</time>
      </trkpt>
      <trkpt lat="47.065151911228895" lon="6.859821388497949">
        <ele>1311.8599999999999</ele>
        <time>2012-03-24T09:51:02Z</time>
      </trkpt>
      <trkpt lat="47.065369170159101" lon="6.860105032101274">
        <ele>1309.45</ele>
        <time>2012-03-24T09:51:07Z</time>
      </trkpt>
      <trkpt lat="47.06551275216043" lon="6.860260181128979">
        <ele>1308.01</ele>
        <time>2012-03-24T09:51:10Z</time>
      </trkpt>
      <trkpt lat="47.065649209544063" lon="6.860411642119288">
        <ele>1307.05</ele>
        <time>2012-03-24T09:51:13Z</time>
      </trkpt>
      <trkpt lat="47.065822882577777" lon="6.860629571601749">
        <ele>1305.6099999999999</ele>
        <time>2012-03-24T09:51:17Z</time>
      </trkpt>
      <trkpt lat="47.06602337770164" lon="6.860885806381702">
        <ele>1304.1700000000001</ele>
        <time>2012-03-24T09:51:22Z</time>
      </trkpt>
      <trkpt lat="47.066371813416481" lon="6.861397521570325">
        <ele>1301.28</ele>
        <time>2012-03-24T09:51:31Z</time>
      </trkpt>
      <trkpt lat="47.066593347117305" lon="6.861967155709863">
        <ele>1296.96</ele>
        <time>2012-03-24T09:51:37Z</time>
      </trkpt>
      <trkpt lat="47.066784454509616" lon="6.86228902079165">
        <ele>1293.5899999999999</ele>
        <time>2012-03-24T09:51:41Z</time>
      </trkpt>
      <trkpt lat="47.066905321553349" lon="6.862394465133548">
        <ele>1293.5899999999999</ele>
        <time>2012-03-24T09:51:43Z</time>
      </trkpt>
      <trkpt lat="47.066967515274882" lon="6.862443247810006">
        <ele>1293.1099999999999</ele>
        <time>2012-03-24T09:51:44Z</time>
      </trkpt>
      <trkpt lat="47.067089974880219" lon="6.862529665231705">
        <ele>1292.6300000000001</ele>
        <time>2012-03-24T09:51:46Z</time>
      </trkpt>
      <trkpt lat="47.067281417548656" lon="6.862609377130866">
        <ele>1291.6700000000001</ele>
        <time>2012-03-24T09:51:49Z</time>
      </trkpt>
      <trkpt lat="47.067345539107919" lon="6.862633097916842">
        <ele>1291.1900000000001</ele>
        <time>2012-03-24T09:51:50Z</time>
      </trkpt>
      <trkpt lat="47.067468585446477" lon="6.862685233354569">
        <ele>1291.1900000000001</ele>
        <time>2012-03-24T09:51:52Z</time>
      </trkpt>
      <trkpt lat="47.067528264597058" lon="6.862705433741212">
        <ele>1290.71</ele>
        <time>2012-03-24T09:51:53Z</time>
      </trkpt>
      <trkpt lat="47.06770814023912" lon="6.8627854809165">
        <ele>1290.23</ele>
        <time>2012-03-24T09:51:56Z</time>
      </trkpt>
      <trkpt lat="47.067764298990369" lon="6.862808698788285">
        <ele>1289.27</ele>
        <time>2012-03-24T09:51:57Z</time>
      </trkpt>
      <trkpt lat="47.06782054156065" lon="6.862826971337199">
        <ele>1289.27</ele>
        <time>2012-03-24T09:51:58Z</time>
      </trkpt>
      <trkpt lat="47.067926907911897" lon="6.862873071804643">
        <ele>1288.78</ele>
        <time>2012-03-24T09:52:00Z</time>
      </trkpt>
      <trkpt lat="47.067980132997036" lon="6.862891428172588">
        <ele>1289.27</ele>
        <time>2012-03-24T09:52:01Z</time>
      </trkpt>
      <trkpt lat="47.068031262606382" lon="6.862919423729181">
        <ele>1289.27</ele>
        <time>2012-03-24T09:52:02Z</time>
      </trkpt>
      <trkpt lat="47.068081805482507" lon="6.862940629944205">
        <ele>1288.78</ele>
        <time>2012-03-24T09:52:03Z</time>
      </trkpt>
      <trkpt lat="47.068133102729917" lon="6.862956807017326">
        <ele>1288.78</ele>
        <time>2012-03-24T09:52:04Z</time>
      </trkpt>
      <trkpt lat="47.068183645606041" lon="6.862976588308811">
        <ele>1288.78</ele>
        <time>2012-03-24T09:52:05Z</time>
      </trkpt>
      <trkpt lat="47.068232847377658" lon="6.862990418449044">
        <ele>1288.3</ele>
        <time>2012-03-24T09:52:06Z</time>
      </trkpt>
      <trkpt lat="47.068279031664133" lon="6.863006008788943">
        <ele>1287.8199999999999</ele>
        <time>2012-03-24T09:52:07Z</time>
      </trkpt>
      <trkpt lat="47.068323707208037" lon="6.863028556108475">
        <ele>1287.8199999999999</ele>
        <time>2012-03-24T09:52:08Z</time>
      </trkpt>
      <trkpt lat="47.068366957828403" lon="6.863048085942864">
        <ele>1288.3</ele>
        <time>2012-03-24T09:52:09Z</time>
      </trkpt>
      <trkpt lat="47.068409118801355" lon="6.863064765930176">
        <ele>1287.8199999999999</ele>
        <time>2012-03-24T09:52:10Z</time>
      </trkpt>
      <trkpt lat="47.068447507917881" lon="6.863083625212312">
        <ele>1288.3</ele>
        <time>2012-03-24T09:52:11Z</time>
      </trkpt>
      <trkpt lat="47.068522777408361" lon="6.863118493929505">
        <ele>1288.3</ele>
        <time>2012-03-24T09:52:13Z</time>
      </trkpt>
      <trkpt lat="47.068776665255427" lon="6.863231649622321">
        <ele>1287.8199999999999</ele>
        <time>2012-03-24T09:52:20Z</time>
      </trkpt>
      <trkpt lat="47.068810695782304" lon="6.863250676542521">
        <ele>1286.8599999999999</ele>
        <time>2012-03-24T09:52:21Z</time>
      </trkpt>
      <trkpt lat="47.068844139575958" lon="6.8632672727108">
        <ele>1287.8199999999999</ele>
        <time>2012-03-24T09:52:22Z</time>
      </trkpt>
      <trkpt lat="47.068876912817359" lon="6.863295352086425">
        <ele>1288.3</ele>
        <time>2012-03-24T09:52:23Z</time>
      </trkpt>
      <trkpt lat="47.068994091823697" lon="6.863358551636338">
        <ele>1287.8199999999999</ele>
        <time>2012-03-24T09:52:27Z</time>
      </trkpt>
      <trkpt lat="47.069123089313507" lon="6.863413536921144">
        <ele>1287.8199999999999</ele>
        <time>2012-03-24T09:52:31Z</time>
      </trkpt>
      <trkpt lat="47.069249404594302" lon="6.863468606024981">
        <ele>1287.8199999999999</ele>
        <time>2012-03-24T09:52:35Z</time>
      </trkpt>
      <trkpt lat="47.06934655085206" lon="6.863494673743844">
        <ele>1287.3399999999999</ele>
        <time>2012-03-24T09:52:38Z</time>
      </trkpt>
      <trkpt lat="47.069585267454386" lon="6.863638758659363">
        <ele>1287.3399999999999</ele>
        <time>2012-03-24T09:52:46Z</time>
      </trkpt>
      <trkpt lat="47.0697848405689" lon="6.863725259900093">
        <ele>1287.8199999999999</ele>
        <time>2012-03-24T09:52:53Z</time>
      </trkpt>
      <trkpt lat="47.069952478632331" lon="6.863826429471374">
        <ele>1289.75</ele>
        <time>2012-03-24T09:53:00Z</time>
      </trkpt>
      <trkpt lat="47.07016252912581" lon="6.863918965682387">
        <ele>1291.1900000000001</ele>
        <time>2012-03-24T09:53:09Z</time>
      </trkpt>
      <trkpt lat="47.070306865498424" lon="6.863957773894072">
        <ele>1292.1500000000001</ele>
        <time>2012-03-24T09:53:15Z</time>
      </trkpt>
      <trkpt lat="47.070498643442988" lon="6.86407838948071">
        <ele>1293.5899999999999</ele>
        <time>2012-03-24T09:53:23Z</time>
      </trkpt>
      <trkpt lat="47.070697713643312" lon="6.864228509366512">
        <ele>1293.5899999999999</ele>
        <time>2012-03-24T09:53:31Z</time>
      </trkpt>
      <trkpt lat="47.070965934544802" lon="6.864589853212237">
        <ele>1291.6700000000001</ele>
        <time>2012-03-24T09:53:39Z</time>
      </trkpt>
      <trkpt lat="47.071006335318089" lon="6.864652968943119">
        <ele>1291.6700000000001</ele>
        <time>2012-03-24T09:53:40Z</time>
      </trkpt>
      <trkpt lat="47.071046652272344" lon="6.864720862358809">
        <ele>1291.1900000000001</ele>
        <time>2012-03-24T09:53:41Z</time>
      </trkpt>
      <trkpt lat="47.071253769099712" lon="6.865052366629243">
        <ele>1289.27</ele>
        <time>2012-03-24T09:53:46Z</time>
      </trkpt>
      <trkpt lat="47.071526516228914" lon="6.86541480012238">
        <ele>1285.4200000000001</ele>
        <time>2012-03-24T09:53:52Z</time>
      </trkpt>
      <trkpt lat="47.071621902287006" lon="6.86553206294775">
        <ele>1284.46</ele>
        <time>2012-03-24T09:53:54Z</time>
      </trkpt>
      <trkpt lat="47.071831366047263" lon="6.865760302171111">
        <ele>1283.02</ele>
        <time>2012-03-24T09:53:59Z</time>
      </trkpt>
      <trkpt lat="47.071907809004188" lon="6.865824004635215">
        <ele>1282.54</ele>
        <time>2012-03-24T09:54:01Z</time>
      </trkpt>
      <trkpt lat="47.072055162861943" lon="6.865932131186128">
        <ele>1282.54</ele>
        <time>2012-03-24T09:54:05Z</time>
      </trkpt>
      <trkpt lat="47.072180556133389" lon="6.866005891934037">
        <ele>1282.0599999999999</ele>
        <time>2012-03-24T09:54:09Z</time>
      </trkpt>
      <trkpt lat="47.072314247488976" lon="6.866084849461913">
        <ele>1282.54</ele>
        <time>2012-03-24T09:54:13Z</time>
      </trkpt>
      <trkpt lat="47.072351630777121" lon="6.866111168637872">
        <ele>1282.0599999999999</ele>
        <time>2012-03-24T09:54:14Z</time>
      </trkpt>
      <trkpt lat="47.072426900267601" lon="6.866146959364414">
        <ele>1281.0899999999999</ele>
        <time>2012-03-24T09:54:16Z</time>
      </trkpt>
      <trkpt lat="47.072465792298317" lon="6.866175374016166">
        <ele>1282.0599999999999</ele>
        <time>2012-03-24T09:54:17Z</time>
      </trkpt>
      <trkpt lat="47.072544749826193" lon="6.866223067045212">
        <ele>1281.5699999999999</ele>
        <time>2012-03-24T09:54:19Z</time>
      </trkpt>
      <trkpt lat="47.072657654061913" lon="6.866293977946043">
        <ele>1281.0899999999999</ele>
        <time>2012-03-24T09:54:22Z</time>
      </trkpt>
      <trkpt lat="47.072694031521678" lon="6.866318369284272">
        <ele>1280.6099999999999</ele>
        <time>2012-03-24T09:54:23Z</time>
      </trkpt>
      <trkpt lat="47.072730911895633" lon="6.866335049271584">
        <ele>1280.6099999999999</ele>
        <time>2012-03-24T09:54:24Z</time>
      </trkpt>
      <trkpt lat="47.072766786441207" lon="6.866356339305639">
        <ele>1280.6099999999999</ele>
        <time>2012-03-24T09:54:25Z</time>
      </trkpt>
      <trkpt lat="47.072803750634193" lon="6.866382323205471">
        <ele>1280.6099999999999</ele>
        <time>2012-03-24T09:54:26Z</time>
      </trkpt>
      <trkpt lat="47.0728431455791" lon="6.866401769220829">
        <ele>1280.6099999999999</ele>
        <time>2012-03-24T09:54:27Z</time>
      </trkpt>
      <trkpt lat="47.072882540524006" lon="6.866430016234517">
        <ele>1280.6099999999999</ele>
        <time>2012-03-24T09:54:28Z</time>
      </trkpt>
      <trkpt lat="47.072922019287944" lon="6.866458849981427">
        <ele>1280.6099999999999</ele>
        <time>2012-03-24T09:54:29Z</time>
      </trkpt>
      <trkpt lat="47.072961330413818" lon="6.866481816396117">
        <ele>1280.6099999999999</ele>
        <time>2012-03-24T09:54:30Z</time>
      </trkpt>
      <trkpt lat="47.072998126968741" lon="6.866514421999455">
        <ele>1280.6099999999999</ele>
        <time>2012-03-24T09:54:31Z</time>
      </trkpt>
      <trkpt lat="47.073033917695284" lon="6.866541998460889">
        <ele>1280.6099999999999</ele>
        <time>2012-03-24T09:54:32Z</time>
      </trkpt>
      <trkpt lat="47.073071552440524" lon="6.866562450304627">
        <ele>1280.1300000000001</ele>
        <time>2012-03-24T09:54:33Z</time>
      </trkpt>
      <trkpt lat="47.073107929900289" lon="6.866589607670903">
        <ele>1279.6500000000001</ele>
        <time>2012-03-24T09:54:34Z</time>
      </trkpt>
      <trkpt lat="47.073145564645529" lon="6.86661290936172">
        <ele>1279.6500000000001</ele>
        <time>2012-03-24T09:54:35Z</time>
      </trkpt>
      <trkpt lat="47.073184289038181" lon="6.866636043414474">
        <ele>1279.6500000000001</ele>
        <time>2012-03-24T09:54:36Z</time>
      </trkpt>
      <trkpt lat="47.073223348706961" lon="6.866662194952369">
        <ele>1279.6500000000001</ele>
        <time>2012-03-24T09:54:37Z</time>
      </trkpt>
      <trkpt lat="47.073262492194772" lon="6.866683317348361">
        <ele>1279.1700000000001</ele>
        <time>2012-03-24T09:54:38Z</time>
      </trkpt>
      <trkpt lat="47.073301300406456" lon="6.866711145266891">
        <ele>1278.21</ele>
        <time>2012-03-24T09:54:39Z</time>
      </trkpt>
      <trkpt lat="47.073340779170394" lon="6.86673847027123">
        <ele>1278.21</ele>
        <time>2012-03-24T09:54:40Z</time>
      </trkpt>
      <trkpt lat="47.073379755020142" lon="6.866763448342681">
        <ele>1277.73</ele>
        <time>2012-03-24T09:54:41Z</time>
      </trkpt>
      <trkpt lat="47.073415797203779" lon="6.866795886307955">
        <ele>1278.21</ele>
        <time>2012-03-24T09:54:42Z</time>
      </trkpt>
      <trkpt lat="47.07345150411129" lon="6.866821032017469">
        <ele>1278.21</ele>
        <time>2012-03-24T09:54:43Z</time>
      </trkpt>
      <trkpt lat="47.07348813302815" lon="6.866841651499271">
        <ele>1277.73</ele>
        <time>2012-03-24T09:54:44Z</time>
      </trkpt>
      <trkpt lat="47.073639510199428" lon="6.866926308721304">
        <ele>1277.73</ele>
        <time>2012-03-24T09:54:48Z</time>
      </trkpt>
      <trkpt lat="47.073962213471532" lon="6.867100400850177">
        <ele>1275.3299999999999</ele>
        <time>2012-03-24T09:54:58Z</time>
      </trkpt>
      <trkpt lat="47.074002111330628" lon="6.867111045867205">
        <ele>1275.3299999999999</ele>
        <time>2012-03-24T09:55:00Z</time>
      </trkpt>
      <trkpt lat="47.074025413021445" lon="6.867097299546003">
        <ele>1275.8099999999999</ele>
        <time>2012-03-24T09:55:12Z</time>
      </trkpt>
      <trkpt lat="47.07403345964849" lon="6.867094030603766">
        <ele>1275.3299999999999</ele>
        <time>2012-03-24T09:55:31Z</time>
      </trkpt>
      <trkpt lat="47.074038069695234" lon="6.867096880450845">
        <ele>1274.8499999999999</ele>
        <time>2012-03-24T09:55:52Z</time>
      </trkpt>
      <trkpt lat="47.074038656428456" lon="6.867097551003099">
        <ele>1276.29</ele>
        <time>2012-03-24T09:55:58Z</time>
      </trkpt>
      <trkpt lat="47.07403589040041" lon="6.867093108594418">
        <ele>1274.8499999999999</ele>
        <time>2012-03-24T09:56:01Z</time>
      </trkpt>
      <trkpt lat="47.074034381657839" lon="6.86708833090961">
        <ele>1275.3299999999999</ele>
        <time>2012-03-24T09:56:06Z</time>
      </trkpt>
      <trkpt lat="47.07402222789824" lon="6.867085816338658">
        <ele>1275.3299999999999</ele>
        <time>2012-03-24T09:56:08Z</time>
      </trkpt>
      <trkpt lat="47.073905803263187" lon="6.867025550454855">
        <ele>1275.8099999999999</ele>
        <time>2012-03-24T09:56:14Z</time>
      </trkpt>
      <trkpt lat="47.073799436911941" lon="6.866991687566042">
        <ele>1275.8099999999999</ele>
        <time>2012-03-24T09:56:18Z</time>
      </trkpt>
      <trkpt lat="47.073557199910283" lon="6.866854643449187">
        <ele>1277.25</ele>
        <time>2012-03-24T09:56:27Z</time>
      </trkpt>
      <trkpt lat="47.073445469141006" lon="6.8667814694345">
        <ele>1277.73</ele>
        <time>2012-03-24T09:56:31Z</time>
      </trkpt>
      <trkpt lat="47.073357123881578" lon="6.866725143045187">
        <ele>1277.73</ele>
        <time>2012-03-24T09:56:34Z</time>
      </trkpt>
      <trkpt lat="47.073138859122992" lon="6.866579297930002">
        <ele>1279.6500000000001</ele>
        <time>2012-03-24T09:56:42Z</time>
      </trkpt>
      <trkpt lat="47.072971975430846" lon="6.866478212177753">
        <ele>1279.6500000000001</ele>
        <time>2012-03-24T09:56:49Z</time>
      </trkpt>
      <trkpt lat="47.072800565510988" lon="6.866354327648878">
        <ele>1280.6099999999999</ele>
        <time>2012-03-24T09:56:56Z</time>
      </trkpt>
      <trkpt lat="47.072617169469595" lon="6.866242680698633">
        <ele>1281.0899999999999</ele>
        <time>2012-03-24T09:57:03Z</time>
      </trkpt>
      <trkpt lat="47.072370741516352" lon="6.866103373467922">
        <ele>1280.6099999999999</ele>
        <time>2012-03-24T09:57:12Z</time>
      </trkpt>
      <trkpt lat="47.072208467870951" lon="6.86600505374372">
        <ele>1282.0599999999999</ele>
        <time>2012-03-24T09:57:18Z</time>
      </trkpt>
      <trkpt lat="47.072157924994826" lon="6.865967754274607">
        <ele>1281.5699999999999</ele>
        <time>2012-03-24T09:57:20Z</time>
      </trkpt>
      <trkpt lat="47.072026245296001" lon="6.865895753726363">
        <ele>1281.5699999999999</ele>
        <time>2012-03-24T09:57:24Z</time>
      </trkpt>
      <trkpt lat="47.071746625006199" lon="6.865647565573454">
        <ele>1282.0599999999999</ele>
        <time>2012-03-24T09:57:33Z</time>
      </trkpt>
      <trkpt lat="47.071718461811543" lon="6.865621246397495">
        <ele>1281.5699999999999</ele>
        <time>2012-03-24T09:57:34Z</time>
      </trkpt>
      <trkpt lat="47.071484941989183" lon="6.865348499268293">
        <ele>1283.98</ele>
        <time>2012-03-24T09:57:44Z</time>
      </trkpt>
      <trkpt lat="47.071360135450959" lon="6.865193601697683">
        <ele>1285.4200000000001</ele>
        <time>2012-03-24T09:57:51Z</time>
      </trkpt>
      <trkpt lat="47.071345970034599" lon="6.865164432674646">
        <ele>1285.4200000000001</ele>
        <time>2012-03-24T09:57:52Z</time>
      </trkpt>
      <trkpt lat="47.071242956444621" lon="6.865022778511047">
        <ele>1286.3800000000001</ele>
        <time>2012-03-24T09:57:59Z</time>
      </trkpt>
      <trkpt lat="47.07113734446466" lon="6.864867210388184">
        <ele>1287.8199999999999</ele>
        <time>2012-03-24T09:58:06Z</time>
      </trkpt>
      <trkpt lat="47.071040701121092" lon="6.864700997248292">
        <ele>1289.27</ele>
        <time>2012-03-24T09:58:13Z</time>
      </trkpt>
      <trkpt lat="47.070967108011246" lon="6.864558337256312">
        <ele>1290.71</ele>
        <time>2012-03-24T09:58:19Z</time>
      </trkpt>
      <trkpt lat="47.070929137989879" lon="6.864495975896716">
        <ele>1291.6700000000001</ele>
        <time>2012-03-24T09:58:22Z</time>
      </trkpt>
      <trkpt lat="47.070831656455994" lon="6.864363038912416">
        <ele>1292.6300000000001</ele>
        <time>2012-03-24T09:58:29Z</time>
      </trkpt>
      <trkpt lat="47.070675333961844" lon="6.864177044481039">
        <ele>1294.55</ele>
        <time>2012-03-24T09:58:38Z</time>
      </trkpt>
      <trkpt lat="47.070587072521448" lon="6.864102445542812">
        <ele>1294.55</ele>
        <time>2012-03-24T09:58:42Z</time>
      </trkpt>
      <trkpt lat="47.070440221577883" lon="6.864014603197575">
        <ele>1293.5899999999999</ele>
        <time>2012-03-24T09:58:47Z</time>
      </trkpt>
      <trkpt lat="47.070057336241007" lon="6.863856520503759">
        <ele>1293.1099999999999</ele>
        <time>2012-03-24T09:58:55Z</time>
      </trkpt>
      <trkpt lat="47.069896822795272" lon="6.863786028698087">
        <ele>1291.1900000000001</ele>
        <time>2012-03-24T09:58:58Z</time>
      </trkpt>
      <trkpt lat="47.069786516949534" lon="6.863731881603599">
        <ele>1289.27</ele>
        <time>2012-03-24T09:59:00Z</time>
      </trkpt>
      <trkpt lat="47.069623321294785" lon="6.863634819164872">
        <ele>1287.3399999999999</ele>
        <time>2012-03-24T09:59:03Z</time>
      </trkpt>
      <trkpt lat="47.069300701841712" lon="6.863483525812626">
        <ele>1286.3800000000001</ele>
        <time>2012-03-24T09:59:09Z</time>
      </trkpt>
      <trkpt lat="47.069103224202991" lon="6.863386714830995">
        <ele>1286.3800000000001</ele>
        <time>2012-03-24T09:59:13Z</time>
      </trkpt>
      <trkpt lat="47.068973053246737" lon="6.863310690969229">
        <ele>1286.3800000000001</ele>
        <time>2012-03-24T09:59:16Z</time>
      </trkpt>
      <trkpt lat="47.068842463195324" lon="6.863254280760884">
        <ele>1285.9000000000001</ele>
        <time>2012-03-24T09:59:19Z</time>
      </trkpt>
      <trkpt lat="47.068465864285827" lon="6.863081362098455">
        <ele>1285.9000000000001</ele>
        <time>2012-03-24T09:59:28Z</time>
      </trkpt>
      <trkpt lat="47.068206612020731" lon="6.862973487004638">
        <ele>1285.9000000000001</ele>
        <time>2012-03-24T09:59:35Z</time>
      </trkpt>
      <trkpt lat="47.067951718345284" lon="6.862873071804643">
        <ele>1286.8599999999999</ele>
        <time>2012-03-24T09:59:43Z</time>
      </trkpt>
      <trkpt lat="47.067713839933276" lon="6.862771986052394">
        <ele>1287.3399999999999</ele>
        <time>2012-03-24T09:59:51Z</time>
      </trkpt>
      <trkpt lat="47.06766027957201" lon="6.862756395712495">
        <ele>1287.8199999999999</ele>
        <time>2012-03-24T09:59:53Z</time>
      </trkpt>
      <trkpt lat="47.067550644278526" lon="6.8627043440938">
        <ele>1288.3</ele>
        <time>2012-03-24T09:59:57Z</time>
      </trkpt>
      <trkpt lat="47.067499682307243" lon="6.862691855058074">
        <ele>1288.78</ele>
        <time>2012-03-24T09:59:59Z</time>
      </trkpt>
      <trkpt lat="47.067275047302246" lon="6.862585656344891">
        <ele>1289.27</ele>
        <time>2012-03-24T10:00:07Z</time>
      </trkpt>
      <trkpt lat="47.067075558006763" lon="6.862499658018351">
        <ele>1291.1900000000001</ele>
        <time>2012-03-24T10:00:14Z</time>
      </trkpt>
      <trkpt lat="47.066907836124301" lon="6.862382814288139">
        <ele>1291.6700000000001</ele>
        <time>2012-03-24T10:00:21Z</time>
      </trkpt>
      <trkpt lat="47.066771714016795" lon="6.86221132054925">
        <ele>1292.6300000000001</ele>
        <time>2012-03-24T10:00:28Z</time>
      </trkpt>
      <trkpt lat="47.066654367372394" lon="6.862026248127222">
        <ele>1294.0699999999999</ele>
        <time>2012-03-24T10:00:35Z</time>
      </trkpt>
      <trkpt lat="47.066566022112966" lon="6.861833715811372">
        <ele>1295.51</ele>
        <time>2012-03-24T10:00:42Z</time>
      </trkpt>
      <trkpt lat="47.066500810906291" lon="6.861651409417391">
        <ele>1295.99</ele>
        <time>2012-03-24T10:00:49Z</time>
      </trkpt>
      <trkpt lat="47.066488489508629" lon="6.861604386940599">
        <ele>1296.96</ele>
        <time>2012-03-24T10:00:51Z</time>
      </trkpt>
      <trkpt lat="47.066431744024158" lon="6.86146080493927">
        <ele>1297.9200000000001</ele>
        <time>2012-03-24T10:00:58Z</time>
      </trkpt>
      <trkpt lat="47.06640450283885" lon="6.861373465508223">
        <ele>1298.8800000000001</ele>
        <time>2012-03-24T10:01:02Z</time>
      </trkpt>
      <trkpt lat="47.066331831738353" lon="6.861215382814407">
        <ele>1300.3199999999999</ele>
        <time>2012-03-24T10:01:11Z</time>
      </trkpt>
      <trkpt lat="47.066267961636186" lon="6.861125528812408">
        <ele>1300.8</ele>
        <time>2012-03-24T10:01:16Z</time>
      </trkpt>
      <trkpt lat="47.06610593944788" lon="6.860955795273185">
        <ele>1302.72</ele>
        <time>2012-03-24T10:01:25Z</time>
      </trkpt>
      <trkpt lat="47.066040392965078" lon="6.86089544557035">
        <ele>1303.2</ele>
        <time>2012-03-24T10:01:28Z</time>
      </trkpt>
      <trkpt lat="47.065886920318007" lon="6.860693609341979">
        <ele>1303.6900000000001</ele>
        <time>2012-03-24T10:01:37Z</time>
      </trkpt>
      <trkpt lat="47.065737303346395" lon="6.860513314604759">
        <ele>1304.6500000000001</ele>
        <time>2012-03-24T10:01:45Z</time>
      </trkpt>
      <trkpt lat="47.06557092256844" lon="6.860322374850512">
        <ele>1307.05</ele>
        <time>2012-03-24T10:01:55Z</time>
      </trkpt>
      <trkpt lat="47.065473692491651" lon="6.860180133953691">
        <ele>1307.53</ele>
        <time>2012-03-24T10:02:02Z</time>
      </trkpt>
      <trkpt lat="47.065421557053924" lon="6.860139900818467">
        <ele>1307.53</ele>
        <time>2012-03-24T10:02:05Z</time>
      </trkpt>
      <trkpt lat="47.06532072275877" lon="6.860011741518974">
        <ele>1308.97</ele>
        <time>2012-03-24T10:02:13Z</time>
      </trkpt>
      <trkpt lat="47.065206728875637" lon="6.859860699623823">
        <ele>1310.4100000000001</ele>
        <time>2012-03-24T10:02:20Z</time>
      </trkpt>
      <trkpt lat="47.065118718892336" lon="6.859771097078919">
        <ele>1310.4100000000001</ele>
        <time>2012-03-24T10:02:26Z</time>
      </trkpt>
      <trkpt lat="47.064997432753444" lon="6.859639249742031">
        <ele>1311.8599999999999</ele>
        <time>2012-03-24T10:02:34Z</time>
      </trkpt>
      <trkpt lat="47.06488779745996" lon="6.859562220051885">
        <ele>1312.8199999999999</ele>
        <time>2012-03-24T10:02:40Z</time>
      </trkpt>
      <trkpt lat="47.064834907650948" lon="6.859522992745042">
        <ele>1313.3</ele>
        <time>2012-03-24T10:02:43Z</time>
      </trkpt>
      <trkpt lat="47.064743880182505" lon="6.859465492889285">
        <ele>1314.26</ele>
        <time>2012-03-24T10:02:48Z</time>
      </trkpt>
      <trkpt lat="47.064578840509057" lon="6.859356611967087">
        <ele>1314.74</ele>
        <time>2012-03-24T10:02:56Z</time>
      </trkpt>
      <trkpt lat="47.064442718401551" lon="6.859236331656575">
        <ele>1315.22</ele>
        <time>2012-03-24T10:03:03Z</time>
      </trkpt>
      <trkpt lat="47.064280193299055" lon="6.859083864837885">
        <ele>1315.7</ele>
        <time>2012-03-24T10:03:10Z</time>
      </trkpt>
      <trkpt lat="47.064105598255992" lon="6.85890281572938">
        <ele>1315.7</ele>
        <time>2012-03-24T10:03:17Z</time>
      </trkpt>
      <trkpt lat="47.064083386212587" lon="6.858867444097996">
        <ele>1315.7</ele>
        <time>2012-03-24T10:03:18Z</time>
      </trkpt>
      <trkpt lat="47.063879789784551" lon="6.858632583171129">
        <ele>1316.1800000000001</ele>
        <time>2012-03-24T10:03:27Z</time>
      </trkpt>
      <trkpt lat="47.063736040145159" lon="6.858455808833242">
        <ele>1316.6600000000001</ele>
        <time>2012-03-24T10:03:34Z</time>
      </trkpt>
      <trkpt lat="47.063607042655349" lon="6.858299653977156">
        <ele>1317.1400000000001</ele>
        <time>2012-03-24T10:03:40Z</time>
      </trkpt>
      <trkpt lat="47.063463712111115" lon="6.85813813470304">
        <ele>1318.0999999999999</ele>
        <time>2012-03-24T10:03:46Z</time>
      </trkpt>
      <trkpt lat="47.063325075432658" lon="6.857997737824917">
        <ele>1318.5899999999999</ele>
        <time>2012-03-24T10:03:52Z</time>
      </trkpt>
      <trkpt lat="47.063161209225655" lon="6.85782783664763">
        <ele>1319.55</ele>
        <time>2012-03-24T10:03:59Z</time>
      </trkpt>
      <trkpt lat="47.063061129301786" lon="6.857716357335448">
        <ele>1319.0699999999999</ele>
        <time>2012-03-24T10:04:03Z</time>
      </trkpt>
      <trkpt lat="47.06296356394887" lon="6.857626251876354">
        <ele>1319.55</ele>
        <time>2012-03-24T10:04:07Z</time>
      </trkpt>
      <trkpt lat="47.062747981399298" lon="6.857470516115427">
        <ele>1320.03</ele>
        <time>2012-03-24T10:04:15Z</time>
      </trkpt>
      <trkpt lat="47.062550252303481" lon="6.85739004984498">
        <ele>1320.03</ele>
        <time>2012-03-24T10:04:22Z</time>
      </trkpt>
      <trkpt lat="47.062456710264087" lon="6.85738024301827">
        <ele>1320.99</ele>
        <time>2012-03-24T10:04:25Z</time>
      </trkpt>
      <trkpt lat="47.062208103016019" lon="6.857401365414262">
        <ele>1322.4300000000001</ele>
        <time>2012-03-24T10:04:34Z</time>
      </trkpt>
      <trkpt lat="47.061981037259102" lon="6.857408825308085">
        <ele>1321.47</ele>
        <time>2012-03-24T10:04:42Z</time>
      </trkpt>
      <trkpt lat="47.062013391405344" lon="6.85756741091609">
        <ele>1320.51</ele>
        <time>2012-03-24T10:04:48Z</time>
      </trkpt>
      <trkpt lat="47.062176838517189" lon="6.857780059799552">
        <ele>1320.51</ele>
        <time>2012-03-24T10:04:55Z</time>
      </trkpt>
      <trkpt lat="47.062289994210005" lon="6.857951134443283">
        <ele>1321.47</ele>
        <time>2012-03-24T10:05:02Z</time>
      </trkpt>
      <trkpt lat="47.062301728874445" lon="6.857977788895369">
        <ele>1321.47</ele>
        <time>2012-03-24T10:05:03Z</time>
      </trkpt>
      <trkpt lat="47.062344728037715" lon="6.858308957889676">
        <ele>1323.3900000000001</ele>
        <time>2012-03-24T10:05:13Z</time>
      </trkpt>
      <trkpt lat="47.062153955921531" lon="6.858479278162122">
        <ele>1323.3900000000001</ele>
        <time>2012-03-24T10:05:20Z</time>
      </trkpt>
      <trkpt lat="47.062108190730214" lon="6.85848749242723">
        <ele>1323.3900000000001</ele>
        <time>2012-03-24T10:05:21Z</time>
      </trkpt>
      <trkpt lat="47.062059827148914" lon="6.858485816046596">
        <ele>1322.9100000000001</ele>
        <time>2012-03-24T10:05:22Z</time>
      </trkpt>
      <trkpt lat="47.061820356175303" lon="6.858452456071973">
        <ele>1320.51</ele>
        <time>2012-03-24T10:05:26Z</time>
      </trkpt>
      <trkpt lat="47.061735028401017" lon="6.858401326462627">
        <ele>1320.99</ele>
        <time>2012-03-24T10:05:28Z</time>
      </trkpt>
      <trkpt lat="47.061699656769633" lon="6.858375761657953">
        <ele>1321.47</ele>
        <time>2012-03-24T10:05:29Z</time>
      </trkpt>
      <trkpt lat="47.061670068651438" lon="6.858340557664633">
        <ele>1320.99</ele>
        <time>2012-03-24T10:05:30Z</time>
      </trkpt>
      <trkpt lat="47.06163888797164" lon="6.858316082507372">
        <ele>1320.99</ele>
        <time>2012-03-24T10:05:31Z</time>
      </trkpt>
      <trkpt lat="47.061607958748937" lon="6.85829252935946">
        <ele>1320.99</ele>
        <time>2012-03-24T10:05:32Z</time>
      </trkpt>
      <trkpt lat="47.061578035354614" lon="6.858263025060296">
        <ele>1321.47</ele>
        <time>2012-03-24T10:05:33Z</time>
      </trkpt>
      <trkpt lat="47.061487846076488" lon="6.858174847438932">
        <ele>1321.47</ele>
        <time>2012-03-24T10:05:36Z</time>
      </trkpt>
      <trkpt lat="47.061457168310881" lon="6.858136458322406">
        <ele>1320.99</ele>
        <time>2012-03-24T10:05:37Z</time>
      </trkpt>
      <trkpt lat="47.061420539394021" lon="6.858108127489686">
        <ele>1321.47</ele>
        <time>2012-03-24T10:05:38Z</time>
      </trkpt>
      <trkpt lat="47.061383659020066" lon="6.858067894354463">
        <ele>1320.99</ele>
        <time>2012-03-24T10:05:39Z</time>
      </trkpt>
      <trkpt lat="47.061346778646111" lon="6.858026487752795">
        <ele>1320.99</ele>
        <time>2012-03-24T10:05:40Z</time>
      </trkpt>
      <trkpt lat="47.061311742290854" lon="6.857999414205551">
        <ele>1320.03</ele>
        <time>2012-03-24T10:05:41Z</time>
      </trkpt>
      <trkpt lat="47.061283243820071" lon="6.857969742268324">
        <ele>1321.47</ele>
        <time>2012-03-24T10:05:42Z</time>
      </trkpt>
      <trkpt lat="47.061262959614396" lon="6.857935125008225">
        <ele>1320.51</ele>
        <time>2012-03-24T10:05:43Z</time>
      </trkpt>
      <trkpt lat="47.061241418123245" lon="6.857909644022584">
        <ele>1320.51</ele>
        <time>2012-03-24T10:05:44Z</time>
      </trkpt>
      <trkpt lat="47.061217194423079" lon="6.857886174693704">
        <ele>1321.47</ele>
        <time>2012-03-24T10:05:45Z</time>
      </trkpt>
      <trkpt lat="47.061196910217404" lon="6.857851641252637">
        <ele>1321.47</ele>
        <time>2012-03-24T10:05:46Z</time>
      </trkpt>
      <trkpt lat="47.061174781993032" lon="6.857820376753807">
        <ele>1321.47</ele>
        <time>2012-03-24T10:05:47Z</time>
      </trkpt>
      <trkpt lat="47.061150306835771" lon="6.857792045921087">
        <ele>1321.47</ele>
        <time>2012-03-24T10:05:48Z</time>
      </trkpt>
      <trkpt lat="47.061126586049795" lon="6.857753824442625">
        <ele>1321.95</ele>
        <time>2012-03-24T10:05:49Z</time>
      </trkpt>
      <trkpt lat="47.061103954911232" lon="6.857714513316751">
        <ele>1321.95</ele>
        <time>2012-03-24T10:05:50Z</time>
      </trkpt>
      <trkpt lat="47.061077216640115" lon="6.857684506103396">
        <ele>1321.47</ele>
        <time>2012-03-24T10:05:51Z</time>
      </trkpt>
      <trkpt lat="47.061046790331602" lon="6.857653828337789">
        <ele>1320.99</ele>
        <time>2012-03-24T10:05:52Z</time>
      </trkpt>
      <trkpt lat="47.06101980060339" lon="6.857617786154151">
        <ele>1321.47</ele>
        <time>2012-03-24T10:05:53Z</time>
      </trkpt>
      <trkpt lat="47.060917122289538" lon="6.857473449781537">
        <ele>1321.95</ele>
        <time>2012-03-24T10:05:57Z</time>
      </trkpt>
      <trkpt lat="47.060860795900226" lon="6.857412178069353">
        <ele>1321.95</ele>
        <time>2012-03-24T10:05:59Z</time>
      </trkpt>
      <trkpt lat="47.060835231095552" lon="6.857378901913762">
        <ele>1321.95</ele>
        <time>2012-03-24T10:06:00Z</time>
      </trkpt>
      <trkpt lat="47.060783682391047" lon="6.857320982962847">
        <ele>1321.95</ele>
        <time>2012-03-24T10:06:02Z</time>
      </trkpt>
      <trkpt lat="47.060762392356992" lon="6.85728594660759">
        <ele>1321.95</ele>
        <time>2012-03-24T10:06:03Z</time>
      </trkpt>
      <trkpt lat="47.060738420113921" lon="6.857259124517441">
        <ele>1321.95</ele>
        <time>2012-03-24T10:06:04Z</time>
      </trkpt>
      <trkpt lat="47.060714112594724" lon="6.857230961322784">
        <ele>1322.4300000000001</ele>
        <time>2012-03-24T10:06:05Z</time>
      </trkpt>
      <trkpt lat="47.060691900551319" lon="6.857191314920783">
        <ele>1321.95</ele>
        <time>2012-03-24T10:06:06Z</time>
      </trkpt>
      <trkpt lat="47.060668095946312" lon="6.857160218060017">
        <ele>1321.95</ele>
        <time>2012-03-24T10:06:07Z</time>
      </trkpt>
      <trkpt lat="47.060643620789051" lon="6.857133898884058">
        <ele>1321.95</ele>
        <time>2012-03-24T10:06:08Z</time>
      </trkpt>
      <trkpt lat="47.060621995478868" lon="6.857097437605262">
        <ele>1322.4300000000001</ele>
        <time>2012-03-24T10:06:09Z</time>
      </trkpt>
      <trkpt lat="47.060600118711591" lon="6.85706558637321">
        <ele>1321.95</ele>
        <time>2012-03-24T10:06:10Z</time>
      </trkpt>
      <trkpt lat="47.060573631897569" lon="6.85703918337822">
        <ele>1321.95</ele>
        <time>2012-03-24T10:06:11Z</time>
      </trkpt>
      <trkpt lat="47.060551587492228" lon="6.857006158679724">
        <ele>1322.4300000000001</ele>
        <time>2012-03-24T10:06:12Z</time>
      </trkpt>
      <trkpt lat="47.06053214147687" lon="6.856975061818957">
        <ele>1322.4300000000001</ele>
        <time>2012-03-24T10:06:13Z</time>
      </trkpt>
      <trkpt lat="47.060429966077209" lon="6.856814045459032">
        <ele>1322.4300000000001</ele>
        <time>2012-03-24T10:06:18Z</time>
      </trkpt>
      <trkpt lat="47.06038068048656" lon="6.856708852574229">
        <ele>1322.9100000000001</ele>
        <time>2012-03-24T10:06:21Z</time>
      </trkpt>
      <trkpt lat="47.060346733778715" lon="6.856624949723482">
        <ele>1322.9100000000001</ele>
        <time>2012-03-24T10:06:23Z</time>
      </trkpt>
      <trkpt lat="47.060328461229801" lon="6.856587817892432">
        <ele>1322.9100000000001</ele>
        <time>2012-03-24T10:06:24Z</time>
      </trkpt>
      <trkpt lat="47.060313541442156" lon="6.856542136520147">
        <ele>1322.9100000000001</ele>
        <time>2012-03-24T10:06:25Z</time>
      </trkpt>
      <trkpt lat="47.060298202559352" lon="6.856499221175909">
        <ele>1322.9100000000001</ele>
        <time>2012-03-24T10:06:26Z</time>
      </trkpt>
      <trkpt lat="47.060281103476882" lon="6.856458317488432">
        <ele>1323.3900000000001</ele>
        <time>2012-03-24T10:06:27Z</time>
      </trkpt>
      <trkpt lat="47.060269201174378" lon="6.856407439336181">
        <ele>1322.4300000000001</ele>
        <time>2012-03-24T10:06:28Z</time>
      </trkpt>
      <trkpt lat="47.060254784300923" lon="6.856360333040357">
        <ele>1322.4300000000001</ele>
        <time>2012-03-24T10:06:29Z</time>
      </trkpt>
      <trkpt lat="47.060235757380724" lon="6.85631649568677">
        <ele>1322.4300000000001</ele>
        <time>2012-03-24T10:06:30Z</time>
      </trkpt>
      <trkpt lat="47.060221172869205" lon="6.856267713010311">
        <ele>1321.95</ele>
        <time>2012-03-24T10:06:31Z</time>
      </trkpt>
      <trkpt lat="47.060207761824131" lon="6.856222283095121">
        <ele>1321.47</ele>
        <time>2012-03-24T10:06:32Z</time>
      </trkpt>
      <trkpt lat="47.060193512588739" lon="6.856178613379598">
        <ele>1321.47</ele>
        <time>2012-03-24T10:06:33Z</time>
      </trkpt>
      <trkpt lat="47.060184543952346" lon="6.856127483770251">
        <ele>1320.99</ele>
        <time>2012-03-24T10:06:34Z</time>
      </trkpt>
      <trkpt lat="47.060172809287906" lon="6.856083562597632">
        <ele>1321.47</ele>
        <time>2012-03-24T10:06:35Z</time>
      </trkpt>
      <trkpt lat="47.060157218948007" lon="6.856042491272092">
        <ele>1320.99</ele>
        <time>2012-03-24T10:06:36Z</time>
      </trkpt>
      <trkpt lat="47.060146741569042" lon="6.855994882062078">
        <ele>1321.95</ele>
        <time>2012-03-24T10:06:37Z</time>
      </trkpt>
      <trkpt lat="47.060136012732983" lon="6.855950793251395">
        <ele>1320.99</ele>
        <time>2012-03-24T10:06:38Z</time>
      </trkpt>
      <trkpt lat="47.060120003297925" lon="6.855908967554569">
        <ele>1320.99</ele>
        <time>2012-03-24T10:06:39Z</time>
      </trkpt>
      <trkpt lat="47.060106676071882" lon="6.85586211271584">
        <ele>1321.47</ele>
        <time>2012-03-24T10:06:40Z</time>
      </trkpt>
      <trkpt lat="47.060093097388744" lon="6.85581617988646">
        <ele>1321.47</ele>
        <time>2012-03-24T10:06:41Z</time>
      </trkpt>
      <trkpt lat="47.060076501220465" lon="6.855775276198983">
        <ele>1321.95</ele>
        <time>2012-03-24T10:06:42Z</time>
      </trkpt>
      <trkpt lat="47.060064598917961" lon="6.855728253722191">
        <ele>1322.4300000000001</ele>
        <time>2012-03-24T10:06:43Z</time>
      </trkpt>
      <trkpt lat="47.060052026063204" lon="6.855688523501158">
        <ele>1322.4300000000001</ele>
        <time>2012-03-24T10:06:44Z</time>
      </trkpt>
      <trkpt lat="47.060038866475224" lon="6.855655247345567">
        <ele>1322.9100000000001</ele>
        <time>2012-03-24T10:06:45Z</time>
      </trkpt>
      <trkpt lat="47.060029478743672" lon="6.855618618428707">
        <ele>1322.9100000000001</ele>
        <time>2012-03-24T10:06:46Z</time>
      </trkpt>
      <trkpt lat="47.060022102668881" lon="6.855585593730211">
        <ele>1322.9100000000001</ele>
        <time>2012-03-24T10:06:47Z</time>
      </trkpt>
      <trkpt lat="47.060008104890585" lon="6.855558939278126">
        <ele>1321.95</ele>
        <time>2012-03-24T10:06:48Z</time>
      </trkpt>
      <trkpt lat="47.059996789321303" lon="6.855528932064772">
        <ele>1321.95</ele>
        <time>2012-03-24T10:06:49Z</time>
      </trkpt>
      <trkpt lat="47.059989748522639" lon="6.855494314804673">
        <ele>1321.95</ele>
        <time>2012-03-24T10:06:50Z</time>
      </trkpt>
      <trkpt lat="47.059985473752022" lon="6.855462966486812">
        <ele>1321.95</ele>
        <time>2012-03-24T10:06:51Z</time>
      </trkpt>
      <trkpt lat="47.059997627511621" lon="6.855395156890154">
        <ele>1321.95</ele>
        <time>2012-03-24T10:06:53Z</time>
      </trkpt>
      <trkpt lat="47.060007601976395" lon="6.855363808572292">
        <ele>1321.47</ele>
        <time>2012-03-24T10:06:54Z</time>
      </trkpt>
      <trkpt lat="47.060029311105609" lon="6.855270601809025">
        <ele>1321.95</ele>
        <time>2012-03-24T10:06:57Z</time>
      </trkpt>
      <trkpt lat="47.060032915323973" lon="6.855019815266132">
        <ele>1322.4300000000001</ele>
        <time>2012-03-24T10:07:04Z</time>
      </trkpt>
      <trkpt lat="47.059976002201438" lon="6.854733154177666">
        <ele>1323.3900000000001</ele>
        <time>2012-03-24T10:07:12Z</time>
      </trkpt>
      <trkpt lat="47.059924118220806" lon="6.854462083429098">
        <ele>1324.3499999999999</ele>
        <time>2012-03-24T10:07:20Z</time>
      </trkpt>
      <trkpt lat="47.059961250051856" lon="6.854231664910913">
        <ele>1324.8299999999999</ele>
        <time>2012-03-24T10:07:27Z</time>
      </trkpt>
      <trkpt lat="47.06000785343349" lon="6.853979704901576">
        <ele>1325.8</ele>
        <time>2012-03-24T10:07:35Z</time>
      </trkpt>
      <trkpt lat="47.059985473752022" lon="6.853789016604424">
        <ele>1325.8</ele>
        <time>2012-03-24T10:07:42Z</time>
      </trkpt>
      <trkpt lat="47.059917664155364" lon="6.853584246709943">
        <ele>1326.76</ele>
        <time>2012-03-24T10:07:49Z</time>
      </trkpt>
      <trkpt lat="47.05985396169126" lon="6.853368831798434">
        <ele>1327.24</ele>
        <time>2012-03-24T10:07:56Z</time>
      </trkpt>
      <trkpt lat="47.059843903407454" lon="6.85334075242281">
        <ele>1327.72</ele>
        <time>2012-03-24T10:07:57Z</time>
      </trkpt>
      <trkpt lat="47.059800736606121" lon="6.853177472949028">
        <ele>1328.6800000000001</ele>
        <time>2012-03-24T10:08:02Z</time>
      </trkpt>
      <trkpt lat="47.059729238972068" lon="6.852874299511313">
        <ele>1328.6800000000001</ele>
        <time>2012-03-24T10:08:11Z</time>
      </trkpt>
      <trkpt lat="47.059703003615141" lon="6.852744044736028">
        <ele>1328.6800000000001</ele>
        <time>2012-03-24T10:08:15Z</time>
      </trkpt>
      <trkpt lat="47.059634020552039" lon="6.852423688396812">
        <ele>1330.5999999999999</ele>
        <time>2012-03-24T10:08:25Z</time>
      </trkpt>
      <trkpt lat="47.059611054137349" lon="6.852359231561422">
        <ele>1330.5999999999999</ele>
        <time>2012-03-24T10:08:27Z</time>
      </trkpt>
      <trkpt lat="47.059547435492277" lon="6.852067206054926">
        <ele>1331.0799999999999</ele>
        <time>2012-03-24T10:08:36Z</time>
      </trkpt>
      <trkpt lat="47.059494964778423" lon="6.851874506101012">
        <ele>1332.04</ele>
        <time>2012-03-24T10:08:43Z</time>
      </trkpt>
      <trkpt lat="47.059403853490949" lon="6.851693289354444">
        <ele>1333.01</ele>
        <time>2012-03-24T10:08:50Z</time>
      </trkpt>
      <trkpt lat="47.05931793898344" lon="6.851533865556121">
        <ele>1333.97</ele>
        <time>2012-03-24T10:08:57Z</time>
      </trkpt>
      <trkpt lat="47.059219032526016" lon="6.85136279091239">
        <ele>1334.9300000000001</ele>
        <time>2012-03-24T10:09:04Z</time>
      </trkpt>
      <trkpt lat="47.059107888489962" lon="6.851184256374836">
        <ele>1335.4100000000001</ele>
        <time>2012-03-24T10:09:11Z</time>
      </trkpt>
      <trkpt lat="47.058992804959416" lon="6.85100119560957">
        <ele>1336.3699999999999</ele>
        <time>2012-03-24T10:09:18Z</time>
      </trkpt>
      <trkpt lat="47.05887520685792" lon="6.850807908922434">
        <ele>1336.8499999999999</ele>
        <time>2012-03-24T10:09:25Z</time>
      </trkpt>
      <trkpt lat="47.058859867975116" lon="6.850780583918095">
        <ele>1336.8499999999999</ele>
        <time>2012-03-24T10:09:26Z</time>
      </trkpt>
      <trkpt lat="47.058681165799499" lon="6.850559553131461">
        <ele>1337.3299999999999</ele>
        <time>2012-03-24T10:09:35Z</time>
      </trkpt>
      <trkpt lat="47.058467678725719" lon="6.850375318899751">
        <ele>1337.3299999999999</ele>
        <time>2012-03-24T10:09:44Z</time>
      </trkpt>
      <trkpt lat="47.058309763669968" lon="6.850288398563862">
        <ele>1337.8099999999999</ele>
        <time>2012-03-24T10:09:50Z</time>
      </trkpt>
      <trkpt lat="47.058083284646273" lon="6.850146912038326">
        <ele>1338.77</ele>
        <time>2012-03-24T10:09:59Z</time>
      </trkpt>
      <trkpt lat="47.058019666001201" lon="6.850102236494422">
        <ele>1339.25</ele>
        <time>2012-03-24T10:10:02Z</time>
      </trkpt>
      <trkpt lat="47.057826546952128" lon="6.849992014467716">
        <ele>1338.77</ele>
        <time>2012-03-24T10:10:11Z</time>
      </trkpt>
      <trkpt lat="47.057704506441951" lon="6.849902244284749">
        <ele>1340.22</ele>
        <time>2012-03-24T10:10:18Z</time>
      </trkpt>
      <trkpt lat="47.057597385719419" lon="6.849824879318476">
        <ele>1340.7</ele>
        <time>2012-03-24T10:10:24Z</time>
      </trkpt>
      <trkpt lat="47.057486409321427" lon="6.849738210439682">
        <ele>1341.6600000000001</ele>
        <time>2012-03-24T10:10:31Z</time>
      </trkpt>
      <trkpt lat="47.057350371032953" lon="6.849653972312808">
        <ele>1343.0999999999999</ele>
        <time>2012-03-24T10:10:38Z</time>
      </trkpt>
      <trkpt lat="47.057217182591558" lon="6.84958859346807">
        <ele>1343.5799999999999</ele>
        <time>2012-03-24T10:10:45Z</time>
      </trkpt>
      <trkpt lat="47.057125987485051" lon="6.849566549062729">
        <ele>1344.54</ele>
        <time>2012-03-24T10:10:51Z</time>
      </trkpt>
      <trkpt lat="47.057000426575541" lon="6.849636118859053">
        <ele>1345.98</ele>
        <time>2012-03-24T10:10:59Z</time>
      </trkpt>
      <trkpt lat="47.056902023032308" lon="6.849626563489437">
        <ele>1346.46</ele>
        <time>2012-03-24T10:11:06Z</time>
      </trkpt>
      <trkpt lat="47.056865561753511" lon="6.849659336730838">
        <ele>1347.4300000000001</ele>
        <time>2012-03-24T10:11:09Z</time>
      </trkpt>
      <trkpt lat="47.056833123788238" lon="6.849690768867731">
        <ele>1347.4300000000001</ele>
        <time>2012-03-24T10:11:12Z</time>
      </trkpt>
      <trkpt lat="47.056756010279059" lon="6.849817000329495">
        <ele>1348.8699999999999</ele>
        <time>2012-03-24T10:11:20Z</time>
      </trkpt>
      <trkpt lat="47.056693732738495" lon="6.849952200427651">
        <ele>1350.3099999999999</ele>
        <time>2012-03-24T10:11:27Z</time>
      </trkpt>
      <trkpt lat="47.056668838486075" lon="6.850055297836661">
        <ele>1351.27</ele>
        <time>2012-03-24T10:11:31Z</time>
      </trkpt>
      <trkpt lat="47.056657690554857" lon="6.850079270079732">
        <ele>1352.23</ele>
        <time>2012-03-24T10:11:32Z</time>
      </trkpt>
      <trkpt lat="47.05655719153583" lon="6.850240118801594">
        <ele>1354.1500000000001</ele>
        <time>2012-03-24T10:11:41Z</time>
      </trkpt>
      <trkpt lat="47.056543864309788" lon="6.850252943113446">
        <ele>1353.6700000000001</ele>
        <time>2012-03-24T10:11:42Z</time>
      </trkpt>
      <trkpt lat="47.056483263149858" lon="6.850297031924129">
        <ele>1355.1199999999999</ele>
        <time>2012-03-24T10:11:46Z</time>
      </trkpt>
      <trkpt lat="47.05641939304769" lon="6.850312706083059">
        <ele>1356.0799999999999</ele>
        <time>2012-03-24T10:11:50Z</time>
      </trkpt>
      <trkpt lat="47.056348146870732" lon="6.850377079099417">
        <ele>1356.0799999999999</ele>
        <time>2012-03-24T10:11:57Z</time>
      </trkpt>
      <trkpt lat="47.056336998939514" lon="6.85038261115551">
        <ele>1356.0799999999999</ele>
        <time>2012-03-24T10:12:08Z</time>
      </trkpt>
      <trkpt lat="47.056335406377912" lon="6.850375486537814">
        <ele>1354.1500000000001</ele>
        <time>2012-03-24T10:12:18Z</time>
      </trkpt>
      <trkpt lat="47.056340267881751" lon="6.850380850955844">
        <ele>1355.1199999999999</ele>
        <time>2012-03-24T10:12:35Z</time>
      </trkpt>
      <trkpt lat="47.056335154920816" lon="6.850404571741819">
        <ele>1356.5599999999999</ele>
        <time>2012-03-24T10:12:49Z</time>
      </trkpt>
      <trkpt lat="47.056341441348195" lon="6.850406667217612">
        <ele>1355.1199999999999</ele>
        <time>2012-03-24T10:12:59Z</time>
      </trkpt>
      <trkpt lat="47.056341022253036" lon="6.850405912846327">
        <ele>1355.5999999999999</ele>
        <time>2012-03-24T10:13:00Z</time>
      </trkpt>
      <trkpt lat="47.05638226121664" lon="6.850361572578549">
        <ele>1355.1199999999999</ele>
        <time>2012-03-24T10:13:04Z</time>
      </trkpt>
      <trkpt lat="47.056764895096421" lon="6.850255457684398">
        <ele>1352.23</ele>
        <time>2012-03-24T10:13:14Z</time>
      </trkpt>
      <trkpt lat="47.05681124702096" lon="6.850256714969873">
        <ele>1352.71</ele>
        <time>2012-03-24T10:13:15Z</time>
      </trkpt>
      <trkpt lat="47.056963546201587" lon="6.850312538444996">
        <ele>1351.27</ele>
        <time>2012-03-24T10:13:18Z</time>
      </trkpt>
      <trkpt lat="47.057306366041303" lon="6.850621830672026">
        <ele>1346.9400000000001</ele>
        <time>2012-03-24T10:13:24Z</time>
      </trkpt>
      <trkpt lat="47.057410888373852" lon="6.850732723250985">
        <ele>1346.46</ele>
        <time>2012-03-24T10:13:26Z</time>
      </trkpt>
      <trkpt lat="47.057730406522751" lon="6.8511135969311">
        <ele>1343.5799999999999</ele>
        <time>2012-03-24T10:13:33Z</time>
      </trkpt>
      <trkpt lat="47.057923274114728" lon="6.851346865296364">
        <ele>1342.6199999999999</ele>
        <time>2012-03-24T10:13:38Z</time>
      </trkpt>
      <trkpt lat="47.058080267161131" lon="6.851521879434586">
        <ele>1342.1400000000001</ele>
        <time>2012-03-24T10:13:42Z</time>
      </trkpt>
      <trkpt lat="47.058244552463293" lon="6.851674513891339">
        <ele>1341.6600000000001</ele>
        <time>2012-03-24T10:13:46Z</time>
      </trkpt>
      <trkpt lat="47.058324432000518" lon="6.851741652935743">
        <ele>1340.7</ele>
        <time>2012-03-24T10:13:48Z</time>
      </trkpt>
      <trkpt lat="47.058571027591825" lon="6.851938543841243">
        <ele>1340.22</ele>
        <time>2012-03-24T10:13:54Z</time>
      </trkpt>
      <trkpt lat="47.058771857991815" lon="6.852114144712687">
        <ele>1338.77</ele>
        <time>2012-03-24T10:13:59Z</time>
      </trkpt>
      <trkpt lat="47.058927593752742" lon="6.852255128324032">
        <ele>1338.29</ele>
        <time>2012-03-24T10:14:03Z</time>
      </trkpt>
      <trkpt lat="47.059171507135034" lon="6.85258093290031">
        <ele>1336.3699999999999</ele>
        <time>2012-03-24T10:14:10Z</time>
      </trkpt>
      <trkpt lat="47.059457749128342" lon="6.853088457137346">
        <ele>1333.97</ele>
        <time>2012-03-24T10:14:19Z</time>
      </trkpt>
      <trkpt lat="47.059579705819488" lon="6.85333832167089">
        <ele>1332.52</ele>
        <time>2012-03-24T10:14:23Z</time>
      </trkpt>
      <trkpt lat="47.059829905629158" lon="6.853851964697242">
        <ele>1329.6400000000001</ele>
        <time>2012-03-24T10:14:31Z</time>
      </trkpt>
      <trkpt lat="47.059855973348022" lon="6.853922372683883">
        <ele>1328.2</ele>
        <time>2012-03-24T10:14:32Z</time>
      </trkpt>
      <trkpt lat="47.059933757409453" lon="6.854206686839461">
        <ele>1325.8</ele>
        <time>2012-03-24T10:14:36Z</time>
      </trkpt>
      <trkpt lat="47.05994289368391" lon="6.854476416483522">
        <ele>1325.3099999999999</ele>
        <time>2012-03-24T10:14:40Z</time>
      </trkpt>
      <trkpt lat="47.059973068535328" lon="6.854719156399369">
        <ele>1324.8299999999999</ele>
        <time>2012-03-24T10:14:44Z</time>
      </trkpt>
      <trkpt lat="47.059989580884576" lon="6.854945886880159">
        <ele>1323.3900000000001</ele>
        <time>2012-03-24T10:14:48Z</time>
      </trkpt>
      <trkpt lat="47.059982540085912" lon="6.855000704526901">
        <ele>1322.9100000000001</ele>
        <time>2012-03-24T10:14:49Z</time>
      </trkpt>
      <trkpt lat="47.059971559792757" lon="6.855104556307197">
        <ele>1322.9100000000001</ele>
        <time>2012-03-24T10:14:51Z</time>
      </trkpt>
      <trkpt lat="47.059960914775729" lon="6.855155853554606">
        <ele>1322.4300000000001</ele>
        <time>2012-03-24T10:14:52Z</time>
      </trkpt>
      <trkpt lat="47.059961752966046" lon="6.855207150802016">
        <ele>1321.47</ele>
        <time>2012-03-24T10:14:53Z</time>
      </trkpt>
      <trkpt lat="47.059979941695929" lon="6.85549657791853">
        <ele>1321.95</ele>
        <time>2012-03-24T10:14:58Z</time>
      </trkpt>
      <trkpt lat="47.060097455978394" lon="6.855865465477109">
        <ele>1321.47</ele>
        <time>2012-03-24T10:15:05Z</time>
      </trkpt>
      <trkpt lat="47.060115477070212" lon="6.855917098000646">
        <ele>1321.47</ele>
        <time>2012-03-24T10:15:06Z</time>
      </trkpt>
      <trkpt lat="47.060132240876555" lon="6.85597007162869">
        <ele>1321.95</ele>
        <time>2012-03-24T10:15:07Z</time>
      </trkpt>
      <trkpt lat="47.060143556445837" lon="6.856027320027351">
        <ele>1321.95</ele>
        <time>2012-03-24T10:15:08Z</time>
      </trkpt>
      <trkpt lat="47.060157805681229" lon="6.856077443808317">
        <ele>1321.47</ele>
        <time>2012-03-24T10:15:09Z</time>
      </trkpt>
      <trkpt lat="47.060172474011779" lon="6.856126142665744">
        <ele>1321.47</ele>
        <time>2012-03-24T10:15:10Z</time>
      </trkpt>
      <trkpt lat="47.060184795409441" lon="6.856181966140866">
        <ele>1321.47</ele>
        <time>2012-03-24T10:15:11Z</time>
      </trkpt>
      <trkpt lat="47.060234248638153" lon="6.856334684416652">
        <ele>1320.99</ele>
        <time>2012-03-24T10:15:14Z</time>
      </trkpt>
      <trkpt lat="47.060248078778386" lon="6.856387993320823">
        <ele>1321.47</ele>
        <time>2012-03-24T10:15:15Z</time>
      </trkpt>
      <trkpt lat="47.060360228642821" lon="6.856692424044013">
        <ele>1322.9100000000001</ele>
        <time>2012-03-24T10:15:22Z</time>
      </trkpt>
      <trkpt lat="47.06038311123848" lon="6.856725700199604">
        <ele>1321.95</ele>
        <time>2012-03-24T10:15:23Z</time>
      </trkpt>
      <trkpt lat="47.060402976348996" lon="6.856769118458033">
        <ele>1323.3900000000001</ele>
        <time>2012-03-24T10:15:24Z</time>
      </trkpt>
      <trkpt lat="47.060424853116274" lon="6.856813710182905">
        <ele>1322.9100000000001</ele>
        <time>2012-03-24T10:15:25Z</time>
      </trkpt>
      <trkpt lat="47.060450837016106" lon="6.856852183118463">
        <ele>1322.4300000000001</ele>
        <time>2012-03-24T10:15:26Z</time>
      </trkpt>
      <trkpt lat="47.060475898906589" lon="6.856896104291081">
        <ele>1322.9100000000001</ele>
        <time>2012-03-24T10:15:27Z</time>
      </trkpt>
      <trkpt lat="47.060553347691894" lon="6.857021916657686">
        <ele>1321.95</ele>
        <time>2012-03-24T10:15:30Z</time>
      </trkpt>
      <trkpt lat="47.060640268027782" lon="6.85713985003531">
        <ele>1320.99</ele>
        <time>2012-03-24T10:15:33Z</time>
      </trkpt>
      <trkpt lat="47.060668515041471" lon="6.857188381254673">
        <ele>1320.99</ele>
        <time>2012-03-24T10:15:34Z</time>
      </trkpt>
      <trkpt lat="47.060695923864841" lon="6.857233140617609">
        <ele>1321.47</ele>
        <time>2012-03-24T10:15:35Z</time>
      </trkpt>
      <trkpt lat="47.060757363215089" lon="6.857314696535468">
        <ele>1320.99</ele>
        <time>2012-03-24T10:15:37Z</time>
      </trkpt>
      <trkpt lat="47.060789884999394" lon="6.857353588566184">
        <ele>1321.47</ele>
        <time>2012-03-24T10:15:38Z</time>
      </trkpt>
      <trkpt lat="47.06082483753562" lon="6.857388708740473">
        <ele>1320.99</ele>
        <time>2012-03-24T10:15:39Z</time>
      </trkpt>
      <trkpt lat="47.060855347663164" lon="6.85743547976017">
        <ele>1320.99</ele>
        <time>2012-03-24T10:15:40Z</time>
      </trkpt>
      <trkpt lat="47.060886360704899" lon="6.857477305456996">
        <ele>1321.47</ele>
        <time>2012-03-24T10:15:41Z</time>
      </trkpt>
      <trkpt lat="47.060919050127268" lon="6.857515946030617">
        <ele>1320.99</ele>
        <time>2012-03-24T10:15:42Z</time>
      </trkpt>
      <trkpt lat="47.060947297140956" lon="6.857560537755489">
        <ele>1320.99</ele>
        <time>2012-03-24T10:15:43Z</time>
      </trkpt>
      <trkpt lat="47.060976717621088" lon="6.857599932700396">
        <ele>1320.51</ele>
        <time>2012-03-24T10:15:44Z</time>
      </trkpt>
      <trkpt lat="47.061009909957647" lon="6.857635388150811">
        <ele>1320.99</ele>
        <time>2012-03-24T10:15:45Z</time>
      </trkpt>
      <trkpt lat="47.06104276701808" lon="6.857677465304732">
        <ele>1321.47</ele>
        <time>2012-03-24T10:15:46Z</time>
      </trkpt>
      <trkpt lat="47.061074366793036" lon="6.857717363163829">
        <ele>1320.99</ele>
        <time>2012-03-24T10:15:47Z</time>
      </trkpt>
      <trkpt lat="47.061106888577342" lon="6.857756087556481">
        <ele>1320.99</ele>
        <time>2012-03-24T10:15:48Z</time>
      </trkpt>
      <trkpt lat="47.061141086742282" lon="6.857798919081688">
        <ele>1320.99</ele>
        <time>2012-03-24T10:15:49Z</time>
      </trkpt>
      <trkpt lat="47.061174698174" lon="6.857835715636611">
        <ele>1320.99</ele>
        <time>2012-03-24T10:15:50Z</time>
      </trkpt>
      <trkpt lat="47.061209650710225" lon="6.857872679829598">
        <ele>1320.99</ele>
        <time>2012-03-24T10:15:51Z</time>
      </trkpt>
      <trkpt lat="47.061242423951626" lon="6.857919618487358">
        <ele>1320.51</ele>
        <time>2012-03-24T10:15:52Z</time>
      </trkpt>
      <trkpt lat="47.061276873573661" lon="6.857962869107723">
        <ele>1320.99</ele>
        <time>2012-03-24T10:15:53Z</time>
      </trkpt>
      <trkpt lat="47.061317190527916" lon="6.858002347871661">
        <ele>1320.51</ele>
        <time>2012-03-24T10:15:54Z</time>
      </trkpt>
      <trkpt lat="47.061406876891851" lon="6.858096392825246">
        <ele>1320.51</ele>
        <time>2012-03-24T10:15:56Z</time>
      </trkpt>
      <trkpt lat="47.061475524678826" lon="6.858162442222238">
        <ele>1320.51</ele>
        <time>2012-03-24T10:15:58Z</time>
      </trkpt>
      <trkpt lat="47.061504609882832" lon="6.858201334252954">
        <ele>1320.51</ele>
        <time>2012-03-24T10:15:59Z</time>
      </trkpt>
      <trkpt lat="47.061536125838757" lon="6.85822463594377">
        <ele>1320.51</ele>
        <time>2012-03-24T10:16:00Z</time>
      </trkpt>
      <trkpt lat="47.061570072546601" lon="6.858250368386507">
        <ele>1320.51</ele>
        <time>2012-03-24T10:16:01Z</time>
      </trkpt>
      <trkpt lat="47.061604270711541" lon="6.858286997303367">
        <ele>1320.51</ele>
        <time>2012-03-24T10:16:02Z</time>
      </trkpt>
      <trkpt lat="47.061638552695513" lon="6.858313903212547">
        <ele>1320.51</ele>
        <time>2012-03-24T10:16:03Z</time>
      </trkpt>
      <trkpt lat="47.061674511060119" lon="6.858335696160793">
        <ele>1320.51</ele>
        <time>2012-03-24T10:16:04Z</time>
      </trkpt>
      <trkpt lat="47.061707451939583" lon="6.858365200459957">
        <ele>1320.51</ele>
        <time>2012-03-24T10:16:05Z</time>
      </trkpt>
      <trkpt lat="47.061741901561618" lon="6.858391938731074">
        <ele>1320.03</ele>
        <time>2012-03-24T10:16:06Z</time>
      </trkpt>
      <trkpt lat="47.061781128868461" lon="6.858408618718386">
        <ele>1320.03</ele>
        <time>2012-03-24T10:16:07Z</time>
      </trkpt>
      <trkpt lat="47.061823792755604" lon="6.858430160209537">
        <ele>1320.03</ele>
        <time>2012-03-24T10:16:08Z</time>
      </trkpt>
      <trkpt lat="47.06186804920435" lon="6.858447846025229">
        <ele>1320.03</ele>
        <time>2012-03-24T10:16:09Z</time>
      </trkpt>
      <trkpt lat="47.061915239319205" lon="6.858456395566464">
        <ele>1319.0699999999999</ele>
        <time>2012-03-24T10:16:10Z</time>
      </trkpt>
      <trkpt lat="47.061964021995664" lon="6.858467040583491">
        <ele>1320.51</ele>
        <time>2012-03-24T10:16:11Z</time>
      </trkpt>
      <trkpt lat="47.062009619548917" lon="6.858479026705027">
        <ele>1319.55</ele>
        <time>2012-03-24T10:16:12Z</time>
      </trkpt>
      <trkpt lat="47.062042895704508" lon="6.858475422486663">
        <ele>1319.55</ele>
        <time>2012-03-24T10:16:13Z</time>
      </trkpt>
      <trkpt lat="47.062069801613688" lon="6.858469638973475">
        <ele>1320.51</ele>
        <time>2012-03-24T10:16:14Z</time>
      </trkpt>
      <trkpt lat="47.062098802998662" lon="6.858473410829902">
        <ele>1321.47</ele>
        <time>2012-03-24T10:16:15Z</time>
      </trkpt>
      <trkpt lat="47.062123026698828" lon="6.858481457456946">
        <ele>1320.99</ele>
        <time>2012-03-24T10:16:16Z</time>
      </trkpt>
      <trkpt lat="47.062143227085471" lon="6.85847626067698">
        <ele>1321.95</ele>
        <time>2012-03-24T10:16:17Z</time>
      </trkpt>
      <trkpt lat="47.062165103852749" lon="6.858463687822223">
        <ele>1321.95</ele>
        <time>2012-03-24T10:16:18Z</time>
      </trkpt>
      <trkpt lat="47.062190333381295" lon="6.858462765812874">
        <ele>1321.95</ele>
        <time>2012-03-24T10:16:19Z</time>
      </trkpt>
      <trkpt lat="47.062216233462095" lon="6.858461676165462">
        <ele>1322.4300000000001</ele>
        <time>2012-03-24T10:16:20Z</time>
      </trkpt>
      <trkpt lat="47.062235595658422" lon="6.858447007834911">
        <ele>1322.4300000000001</ele>
        <time>2012-03-24T10:16:21Z</time>
      </trkpt>
      <trkpt lat="47.062258394435048" lon="6.858427142724395">
        <ele>1322.4300000000001</ele>
        <time>2012-03-24T10:16:22Z</time>
      </trkpt>
      <trkpt lat="47.062283540144563" lon="6.858408618718386">
        <ele>1322.9100000000001</ele>
        <time>2012-03-24T10:16:23Z</time>
      </trkpt>
      <trkpt lat="47.062304746359587" lon="6.858384143561125">
        <ele>1322.9100000000001</ele>
        <time>2012-03-24T10:16:24Z</time>
      </trkpt>
      <trkpt lat="47.062341626733541" lon="6.858326559886336">
        <ele>1322.9100000000001</ele>
        <time>2012-03-24T10:16:26Z</time>
      </trkpt>
      <trkpt lat="47.062331652268767" lon="6.858052471652627">
        <ele>1323.3900000000001</ele>
        <time>2012-03-24T10:16:32Z</time>
      </trkpt>
      <trkpt lat="47.062248671427369" lon="6.857869913801551">
        <ele>1323.3900000000001</ele>
        <time>2012-03-24T10:16:36Z</time>
      </trkpt>
      <trkpt lat="47.062219753861427" lon="6.857822556048632">
        <ele>1322.4300000000001</ele>
        <time>2012-03-24T10:16:37Z</time>
      </trkpt>
      <trkpt lat="47.062185136601329" lon="6.85777947306633">
        <ele>1322.4300000000001</ele>
        <time>2012-03-24T10:16:38Z</time>
      </trkpt>
      <trkpt lat="47.062152363359928" lon="6.857728427276015">
        <ele>1321.95</ele>
        <time>2012-03-24T10:16:39Z</time>
      </trkpt>
      <trkpt lat="47.062117913737893" lon="6.857680566608906">
        <ele>1321.95</ele>
        <time>2012-03-24T10:16:40Z</time>
      </trkpt>
      <trkpt lat="47.062085643410683" lon="6.857635891065002">
        <ele>1322.4300000000001</ele>
        <time>2012-03-24T10:16:41Z</time>
      </trkpt>
      <trkpt lat="47.062059408053756" lon="6.857594316825271">
        <ele>1322.4300000000001</ele>
        <time>2012-03-24T10:16:42Z</time>
      </trkpt>
      <trkpt lat="47.062033340334892" lon="6.857563722878695">
        <ele>1321.95</ele>
        <time>2012-03-24T10:16:43Z</time>
      </trkpt>
      <trkpt lat="47.06200685352087" lon="6.857529943808913">
        <ele>1321.47</ele>
        <time>2012-03-24T10:16:44Z</time>
      </trkpt>
      <trkpt lat="47.061985982581973" lon="6.857496667653322">
        <ele>1321.47</ele>
        <time>2012-03-24T10:16:45Z</time>
      </trkpt>
      <trkpt lat="47.061969470232725" lon="6.857471438124776">
        <ele>1320.51</ele>
        <time>2012-03-24T10:16:46Z</time>
      </trkpt>
      <trkpt lat="47.061962513253093" lon="6.857442185282707">
        <ele>1320.51</ele>
        <time>2012-03-24T10:16:47Z</time>
      </trkpt>
      <trkpt lat="47.062091594561934" lon="6.857396671548486">
        <ele>1320.51</ele>
        <time>2012-03-24T10:16:53Z</time>
      </trkpt>
      <trkpt lat="47.062324276193976" lon="6.857389882206917">
        <ele>1320.99</ele>
        <time>2012-03-24T10:17:00Z</time>
      </trkpt>
      <trkpt lat="47.062360318377614" lon="6.857392396777868">
        <ele>1320.51</ele>
        <time>2012-03-24T10:17:01Z</time>
      </trkpt>
      <trkpt lat="47.062396025285125" lon="6.857391726225615">
        <ele>1320.03</ele>
        <time>2012-03-24T10:17:02Z</time>
      </trkpt>
      <trkpt lat="47.062433995306492" lon="6.857390552759171">
        <ele>1320.51</ele>
        <time>2012-03-24T10:17:03Z</time>
      </trkpt>
      <trkpt lat="47.062473557889462" lon="6.857396168634296">
        <ele>1320.51</ele>
        <time>2012-03-24T10:17:04Z</time>
      </trkpt>
      <trkpt lat="47.06251353956759" lon="6.857400108128786">
        <ele>1320.03</ele>
        <time>2012-03-24T10:17:05Z</time>
      </trkpt>
      <trkpt lat="47.06255167722702" lon="6.857401700690389">
        <ele>1320.03</ele>
        <time>2012-03-24T10:17:06Z</time>
      </trkpt>
      <trkpt lat="47.062589814886451" lon="6.857411423698068">
        <ele>1320.51</ele>
        <time>2012-03-24T10:17:07Z</time>
      </trkpt>
      <trkpt lat="47.062627030536532" lon="6.857420727610588">
        <ele>1319.55</ele>
        <time>2012-03-24T10:17:08Z</time>
      </trkpt>
      <trkpt lat="47.062664413824677" lon="6.857438078150153">
        <ele>1320.03</ele>
        <time>2012-03-24T10:17:09Z</time>
      </trkpt>
      <trkpt lat="47.062700539827347" lon="6.857457859441638">
        <ele>1320.51</ele>
        <time>2012-03-24T10:17:10Z</time>
      </trkpt>
      <trkpt lat="47.062737755477428" lon="6.857474707067013">
        <ele>1320.03</ele>
        <time>2012-03-24T10:17:11Z</time>
      </trkpt>
      <trkpt lat="47.062775222584605" lon="6.857502032071352">
        <ele>1320.03</ele>
        <time>2012-03-24T10:17:12Z</time>
      </trkpt>
      <trkpt lat="47.062811683863401" lon="6.857529440894723">
        <ele>1319.0699999999999</ele>
        <time>2012-03-24T10:17:13Z</time>
      </trkpt>
      <trkpt lat="47.06284680403769" lon="6.857557017356157">
        <ele>1320.03</ele>
        <time>2012-03-24T10:17:14Z</time>
      </trkpt>
      <trkpt lat="47.062879996374249" lon="6.857585767284036">
        <ele>1319.55</ele>
        <time>2012-03-24T10:17:15Z</time>
      </trkpt>
      <trkpt lat="47.062911344692111" lon="6.857611667364836">
        <ele>1319.0699999999999</ele>
        <time>2012-03-24T10:17:16Z</time>
      </trkpt>
      <trkpt lat="47.06294403411448" lon="6.85764511115849">
        <ele>1319.0699999999999</ele>
        <time>2012-03-24T10:17:17Z</time>
      </trkpt>
      <trkpt lat="47.062977813184261" lon="6.85767293907702">
        <ele>1319.0699999999999</ele>
        <time>2012-03-24T10:17:18Z</time>
      </trkpt>
      <trkpt lat="47.063010586425662" lon="6.85769883915782">
        <ele>1319.55</ele>
        <time>2012-03-24T10:17:19Z</time>
      </trkpt>
      <trkpt lat="47.063043192028999" lon="6.85773110948503">
        <ele>1319.0699999999999</ele>
        <time>2012-03-24T10:17:20Z</time>
      </trkpt>
      <trkpt lat="47.063076552003622" lon="6.857753824442625">
        <ele>1319.0699999999999</ele>
        <time>2012-03-24T10:17:21Z</time>
      </trkpt>
      <trkpt lat="47.063107565045357" lon="6.857777126133442">
        <ele>1319.55</ele>
        <time>2012-03-24T10:17:22Z</time>
      </trkpt>
      <trkpt lat="47.063137153163552" lon="6.857808055356145">
        <ele>1319.55</ele>
        <time>2012-03-24T10:17:23Z</time>
      </trkpt>
      <trkpt lat="47.063220972195268" lon="6.857908302918077">
        <ele>1319.0699999999999</ele>
        <time>2012-03-24T10:17:26Z</time>
      </trkpt>
      <trkpt lat="47.063284926116467" lon="6.85796806588769">
        <ele>1318.5899999999999</ele>
        <time>2012-03-24T10:17:28Z</time>
      </trkpt>
      <trkpt lat="47.06331686116755" lon="6.857997989282012">
        <ele>1318.5899999999999</ele>
        <time>2012-03-24T10:17:29Z</time>
      </trkpt>
      <trkpt lat="47.063349550589919" lon="6.858024727553129">
        <ele>1318.5899999999999</ele>
        <time>2012-03-24T10:17:30Z</time>
      </trkpt>
      <trkpt lat="47.063380815088749" lon="6.85806093737483">
        <ele>1318.0999999999999</ele>
        <time>2012-03-24T10:17:31Z</time>
      </trkpt>
      <trkpt lat="47.063414677977562" lon="6.858095386996865">
        <ele>1318.0999999999999</ele>
        <time>2012-03-24T10:17:32Z</time>
      </trkpt>
      <trkpt lat="47.063449211418629" lon="6.858129920437932">
        <ele>1318.0999999999999</ele>
        <time>2012-03-24T10:17:33Z</time>
      </trkpt>
      <trkpt lat="47.063483325764537" lon="6.858168477192521">
        <ele>1318.0999999999999</ele>
        <time>2012-03-24T10:17:34Z</time>
      </trkpt>
      <trkpt lat="47.063520373776555" lon="6.858203681185842">
        <ele>1318.0999999999999</ele>
        <time>2012-03-24T10:17:35Z</time>
      </trkpt>
      <trkpt lat="47.063555996865034" lon="6.858243076130748">
        <ele>1317.6199999999999</ele>
        <time>2012-03-24T10:17:36Z</time>
      </trkpt>
      <trkpt lat="47.063587512820959" lon="6.858283141627908">
        <ele>1318.0999999999999</ele>
        <time>2012-03-24T10:17:37Z</time>
      </trkpt>
      <trkpt lat="47.063833689317107" lon="6.858584554865956">
        <ele>1317.1400000000001</ele>
        <time>2012-03-24T10:17:45Z</time>
      </trkpt>
      <trkpt lat="47.064001578837633" lon="6.858780020847917">
        <ele>1315.7</ele>
        <time>2012-03-24T10:17:50Z</time>
      </trkpt>
      <trkpt lat="47.064208947122097" lon="6.859004907310009">
        <ele>1316.1800000000001</ele>
        <time>2012-03-24T10:17:56Z</time>
      </trkpt>
      <trkpt lat="47.064362084493041" lon="6.859160559251905">
        <ele>1315.7</ele>
        <time>2012-03-24T10:18:01Z</time>
      </trkpt>
      <trkpt lat="47.064449843019247" lon="6.859244797378779">
        <ele>1315.7</ele>
        <time>2012-03-24T10:18:04Z</time>
      </trkpt>
      <trkpt lat="47.064582612365484" lon="6.859357785433531">
        <ele>1315.7</ele>
        <time>2012-03-24T10:18:08Z</time>
      </trkpt>
      <trkpt lat="47.064860975369811" lon="6.85955903492868">
        <ele>1313.78</ele>
        <time>2012-03-24T10:18:15Z</time>
      </trkpt>
      <trkpt lat="47.065006317570806" lon="6.859661545604467">
        <ele>1312.8199999999999</ele>
        <time>2012-03-24T10:18:18Z</time>
      </trkpt>
      <trkpt lat="47.065097512677312" lon="6.859755674377084">
        <ele>1311.8599999999999</ele>
        <time>2012-03-24T10:18:20Z</time>
      </trkpt>
      <trkpt lat="47.065142607316375" lon="6.859802445396781">
        <ele>1311.3800000000001</ele>
        <time>2012-03-24T10:18:21Z</time>
      </trkpt>
      <trkpt lat="47.065271018072963" lon="6.859968826174736">
        <ele>1309.9300000000001</ele>
        <time>2012-03-24T10:18:24Z</time>
      </trkpt>
      <trkpt lat="47.065422562882304" lon="6.860184408724308">
        <ele>1308.49</ele>
        <time>2012-03-24T10:18:28Z</time>
      </trkpt>
      <trkpt lat="47.065683156251907" lon="6.86046545393765">
        <ele>1306.5699999999999</ele>
        <time>2012-03-24T10:18:34Z</time>
      </trkpt>
      <trkpt lat="47.065814081579447" lon="6.860615573823452">
        <ele>1305.6099999999999</ele>
        <time>2012-03-24T10:18:37Z</time>
      </trkpt>
      <trkpt lat="47.065959675237536" lon="6.860795700922608">
        <ele>1304.6500000000001</ele>
        <time>2012-03-24T10:18:41Z</time>
      </trkpt>
      <trkpt lat="47.066149357706308" lon="6.861026287078857">
        <ele>1303.6900000000001</ele>
        <time>2012-03-24T10:18:46Z</time>
      </trkpt>
      <trkpt lat="47.066249353811145" lon="6.861158888787031">
        <ele>1302.72</ele>
        <time>2012-03-24T10:18:49Z</time>
      </trkpt>
      <trkpt lat="47.066344488412142" lon="6.861320491880179">
        <ele>1301.28</ele>
        <time>2012-03-24T10:18:52Z</time>
      </trkpt>
      <trkpt lat="47.066375082358718" lon="6.861395593732595">
        <ele>1300.3199999999999</ele>
        <time>2012-03-24T10:18:53Z</time>
      </trkpt>
      <trkpt lat="47.066508773714304" lon="6.861755764111877">
        <ele>1297.9200000000001</ele>
        <time>2012-03-24T10:18:57Z</time>
      </trkpt>
      <trkpt lat="47.066632993519306" lon="6.862033037468791">
        <ele>1295.99</ele>
        <time>2012-03-24T10:19:00Z</time>
      </trkpt>
      <trkpt lat="47.066815467551351" lon="6.862320620566607">
        <ele>1294.55</ele>
        <time>2012-03-24T10:19:04Z</time>
      </trkpt>
      <trkpt lat="47.066866597160697" lon="6.86237158253789">
        <ele>1294.0699999999999</ele>
        <time>2012-03-24T10:19:05Z</time>
      </trkpt>
      <trkpt lat="47.066917642951012" lon="6.862413324415684">
        <ele>1293.5899999999999</ele>
        <time>2012-03-24T10:19:06Z</time>
      </trkpt>
      <trkpt lat="47.067021997645497" lon="6.862483061850071">
        <ele>1293.5899999999999</ele>
        <time>2012-03-24T10:19:08Z</time>
      </trkpt>
      <trkpt lat="47.067185360938311" lon="6.862562270835042">
        <ele>1292.1500000000001</ele>
        <time>2012-03-24T10:19:11Z</time>
      </trkpt>
      <trkpt lat="47.067729011178017" lon="6.862780032679439">
        <ele>1288.78</ele>
        <time>2012-03-24T10:19:21Z</time>
      </trkpt>
      <trkpt lat="47.067782403901219" lon="6.862792354077101">
        <ele>1288.78</ele>
        <time>2012-03-24T10:19:22Z</time>
      </trkpt>
      <trkpt lat="47.067834120243788" lon="6.862803250551224">
        <ele>1287.8199999999999</ele>
        <time>2012-03-24T10:19:23Z</time>
      </trkpt>
      <trkpt lat="47.067885668948293" lon="6.8628113809973">
        <ele>1287.3399999999999</ele>
        <time>2012-03-24T10:19:24Z</time>
      </trkpt>
      <trkpt lat="47.067936379462481" lon="6.862830743193626">
        <ele>1287.8199999999999</ele>
        <time>2012-03-24T10:19:25Z</time>
      </trkpt>
      <trkpt lat="47.067987844347954" lon="6.862852871417999">
        <ele>1286.8599999999999</ele>
        <time>2012-03-24T10:19:26Z</time>
      </trkpt>
      <trkpt lat="47.068037129938602" lon="6.862867958843708">
        <ele>1286.8599999999999</ele>
        <time>2012-03-24T10:19:27Z</time>
      </trkpt>
      <trkpt lat="47.068089433014393" lon="6.862889500334859">
        <ele>1287.3399999999999</ele>
        <time>2012-03-24T10:19:28Z</time>
      </trkpt>
      <trkpt lat="47.068140394985676" lon="6.862911880016327">
        <ele>1286.8599999999999</ele>
        <time>2012-03-24T10:19:29Z</time>
      </trkpt>
      <trkpt lat="47.068189093843102" lon="6.862927218899131">
        <ele>1286.8599999999999</ele>
        <time>2012-03-24T10:19:30Z</time>
      </trkpt>
      <trkpt lat="47.06823687069118" lon="6.862954376265407">
        <ele>1287.3399999999999</ele>
        <time>2012-03-24T10:19:31Z</time>
      </trkpt>
      <trkpt lat="47.068283306434751" lon="6.862979019060731">
        <ele>1286.3800000000001</ele>
        <time>2012-03-24T10:19:32Z</time>
      </trkpt>
      <trkpt lat="47.068325132131577" lon="6.862992681562901">
        <ele>1286.8599999999999</ele>
        <time>2012-03-24T10:19:33Z</time>
      </trkpt>
      <trkpt lat="47.068366454914212" lon="6.863016653805971">
        <ele>1287.8199999999999</ele>
        <time>2012-03-24T10:19:34Z</time>
      </trkpt>
      <trkpt lat="47.068407610058784" lon="6.863035261631012">
        <ele>1286.3800000000001</ele>
        <time>2012-03-24T10:19:35Z</time>
      </trkpt>
      <trkpt lat="47.068447843194008" lon="6.863046241924167">
        <ele>1286.3800000000001</ele>
        <time>2012-03-24T10:19:36Z</time>
      </trkpt>
      <trkpt lat="47.068488160148263" lon="6.863072225823999">
        <ele>1287.3399999999999</ele>
        <time>2012-03-24T10:19:37Z</time>
      </trkpt>
      <trkpt lat="47.068528812378645" lon="6.863096281886101">
        <ele>1286.3800000000001</ele>
        <time>2012-03-24T10:19:38Z</time>
      </trkpt>
      <trkpt lat="47.068568039685488" lon="6.863109525293112">
        <ele>1286.3800000000001</ele>
        <time>2012-03-24T10:19:39Z</time>
      </trkpt>
      <trkpt lat="47.068610033020377" lon="6.863128636032343">
        <ele>1286.3800000000001</ele>
        <time>2012-03-24T10:19:40Z</time>
      </trkpt>
      <trkpt lat="47.068651355803013" lon="6.863149255514145">
        <ele>1286.3800000000001</ele>
        <time>2012-03-24T10:19:41Z</time>
      </trkpt>
      <trkpt lat="47.068689661100507" lon="6.863164594396949">
        <ele>1286.8599999999999</ele>
        <time>2012-03-24T10:19:42Z</time>
      </trkpt>
      <trkpt lat="47.068728217855096" lon="6.863184459507465">
        <ele>1286.8599999999999</ele>
        <time>2012-03-24T10:19:43Z</time>
      </trkpt>
      <trkpt lat="47.068767109885812" lon="6.863210527226329">
        <ele>1286.8599999999999</ele>
        <time>2012-03-24T10:19:44Z</time>
      </trkpt>
      <trkpt lat="47.06880466081202" lon="6.863226369023323">
        <ele>1286.3800000000001</ele>
        <time>2012-03-24T10:19:45Z</time>
      </trkpt>
      <trkpt lat="47.06891018897295" lon="6.863275822252035">
        <ele>1286.8599999999999</ele>
        <time>2012-03-24T10:19:48Z</time>
      </trkpt>
      <trkpt lat="47.069211518391967" lon="6.863430552184582">
        <ele>1287.3399999999999</ele>
        <time>2012-03-24T10:19:57Z</time>
      </trkpt>
      <trkpt lat="47.069341856986284" lon="6.863499199971557">
        <ele>1286.3800000000001</ele>
        <time>2012-03-24T10:20:01Z</time>
      </trkpt>
      <trkpt lat="47.069533048197627" lon="6.863595927134156">
        <ele>1287.8199999999999</ele>
        <time>2012-03-24T10:20:07Z</time>
      </trkpt>
      <trkpt lat="47.069649724289775" lon="6.863650493323803">
        <ele>1288.3</ele>
        <time>2012-03-24T10:20:11Z</time>
      </trkpt>
      <trkpt lat="47.069861451163888" lon="6.863755350932479">
        <ele>1288.78</ele>
        <time>2012-03-24T10:20:20Z</time>
      </trkpt>
      <trkpt lat="47.070008050650358" lon="6.863829446956515">
        <ele>1290.71</ele>
        <time>2012-03-24T10:20:27Z</time>
      </trkpt>
      <trkpt lat="47.070169905200601" lon="6.863887449726462">
        <ele>1291.6700000000001</ele>
        <time>2012-03-24T10:20:34Z</time>
      </trkpt>
      <trkpt lat="47.070324383676052" lon="6.863966910168529">
        <ele>1292.6300000000001</ele>
        <time>2012-03-24T10:20:41Z</time>
      </trkpt>
      <trkpt lat="47.070511551573873" lon="6.864083670079708">
        <ele>1294.0699999999999</ele>
        <time>2012-03-24T10:20:49Z</time>
      </trkpt>
      <trkpt lat="47.070671143010259" lon="6.86421568505466">
        <ele>1293.5899999999999</ele>
        <time>2012-03-24T10:20:56Z</time>
      </trkpt>
      <trkpt lat="47.070856718346477" lon="6.864425903186202">
        <ele>1292.6300000000001</ele>
        <time>2012-03-24T10:21:03Z</time>
      </trkpt>
      <trkpt lat="47.071016728878021" lon="6.8646798748523">
        <ele>1290.23</ele>
        <time>2012-03-24T10:21:08Z</time>
      </trkpt>
      <trkpt lat="47.071119574829936" lon="6.864857822656632">
        <ele>1288.3</ele>
        <time>2012-03-24T10:21:11Z</time>
      </trkpt>
      <trkpt lat="47.071298444643617" lon="6.865144483745098">
        <ele>1288.3</ele>
        <time>2012-03-24T10:21:16Z</time>
      </trkpt>
      <trkpt lat="47.071379916742444" lon="6.865247748792172">
        <ele>1286.8599999999999</ele>
        <time>2012-03-24T10:21:18Z</time>
      </trkpt>
      <trkpt lat="47.071421658620238" lon="6.86530290171504">
        <ele>1286.3800000000001</ele>
        <time>2012-03-24T10:21:19Z</time>
      </trkpt>
      <trkpt lat="47.071621231734753" lon="6.865538600832224">
        <ele>1284.46</ele>
        <time>2012-03-24T10:21:24Z</time>
      </trkpt>
      <trkpt lat="47.071756180375814" lon="6.865692995488644">
        <ele>1283.5</ele>
        <time>2012-03-24T10:21:28Z</time>
      </trkpt>
      <trkpt lat="47.071860702708364" lon="6.865784609690309">
        <ele>1283.5</ele>
        <time>2012-03-24T10:21:31Z</time>
      </trkpt>
      <trkpt lat="47.071897583082318" lon="6.865813611075282">
        <ele>1283.02</ele>
        <time>2012-03-24T10:21:32Z</time>
      </trkpt>
      <trkpt lat="47.07217519171536" lon="6.865998934954405">
        <ele>1283.98</ele>
        <time>2012-03-24T10:21:41Z</time>
      </trkpt>
      <trkpt lat="47.072308044880629" lon="6.866054674610496">
        <ele>1283.5</ele>
        <time>2012-03-24T10:21:45Z</time>
      </trkpt>
      <trkpt lat="47.072415081784129" lon="6.866127429530025">
        <ele>1283.02</ele>
        <time>2012-03-24T10:21:48Z</time>
      </trkpt>
      <trkpt lat="47.072451123967767" lon="6.866152910515666">
        <ele>1283.02</ele>
        <time>2012-03-24T10:21:49Z</time>
      </trkpt>
      <trkpt lat="47.072487082332373" lon="6.866171769797802">
        <ele>1282.0599999999999</ele>
        <time>2012-03-24T10:21:50Z</time>
      </trkpt>
      <trkpt lat="47.072522034868598" lon="6.866198508068919">
        <ele>1282.0599999999999</ele>
        <time>2012-03-24T10:21:51Z</time>
      </trkpt>
      <trkpt lat="47.072556903585792" lon="6.866217451170087">
        <ele>1282.0599999999999</ele>
        <time>2012-03-24T10:21:52Z</time>
      </trkpt>
      <trkpt lat="47.072594119235873" lon="6.866233041509986">
        <ele>1282.0599999999999</ele>
        <time>2012-03-24T10:21:53Z</time>
      </trkpt>
      <trkpt lat="47.072630664333701" lon="6.866260785609484">
        <ele>1282.0599999999999</ele>
        <time>2012-03-24T10:21:54Z</time>
      </trkpt>
      <trkpt lat="47.072666455060244" lon="6.866284841671586">
        <ele>1282.0599999999999</ele>
        <time>2012-03-24T10:21:55Z</time>
      </trkpt>
      <trkpt lat="47.072701826691628" lon="6.866298168897629">
        <ele>1282.0599999999999</ele>
        <time>2012-03-24T10:21:56Z</time>
      </trkpt>
      <trkpt lat="47.072735354304314" lon="6.866322224959731">
        <ele>1281.5699999999999</ele>
        <time>2012-03-24T10:21:57Z</time>
      </trkpt>
      <trkpt lat="47.07276837900281" lon="6.866348963230848">
        <ele>1281.0899999999999</ele>
        <time>2012-03-24T10:21:58Z</time>
      </trkpt>
      <trkpt lat="47.072804672643542" lon="6.866366062313318">
        <ele>1281.0899999999999</ele>
        <time>2012-03-24T10:21:59Z</time>
      </trkpt>
      <trkpt lat="47.072839457541704" lon="6.866392381489277">
        <ele>1281.0899999999999</ele>
        <time>2012-03-24T10:22:00Z</time>
      </trkpt>
      <trkpt lat="47.072872063145041" lon="6.866418281570077">
        <ele>1280.6099999999999</ele>
        <time>2012-03-24T10:22:01Z</time>
      </trkpt>
      <trkpt lat="47.072906848043203" lon="6.866441247984767">
        <ele>1281.0899999999999</ele>
        <time>2012-03-24T10:22:02Z</time>
      </trkpt>
      <trkpt lat="47.07321647554636" lon="6.866646939888597">
        <ele>1279.1700000000001</ele>
        <time>2012-03-24T10:22:11Z</time>
      </trkpt>
      <trkpt lat="47.07328780554235" lon="6.866701086983085">
        <ele>1278.6900000000001</ele>
        <time>2012-03-24T10:22:13Z</time>
      </trkpt>
      <trkpt lat="47.073324099183083" lon="6.866725645959377">
        <ele>1278.6900000000001</ele>
        <time>2012-03-24T10:22:14Z</time>
      </trkpt>
      <trkpt lat="47.073362907394767" lon="6.866744505241513">
        <ele>1278.6900000000001</ele>
        <time>2012-03-24T10:22:15Z</time>
      </trkpt>
      <trkpt lat="47.0733992010355" lon="6.866768812760711">
        <ele>1278.21</ele>
        <time>2012-03-24T10:22:16Z</time>
      </trkpt>
      <trkpt lat="47.073433566838503" lon="6.866790521889925">
        <ele>1278.21</ele>
        <time>2012-03-24T10:22:17Z</time>
      </trkpt>
      <trkpt lat="47.073466842994094" lon="6.866810135543346">
        <ele>1278.21</ele>
        <time>2012-03-24T10:22:18Z</time>
      </trkpt>
      <trkpt lat="47.073497353121638" lon="6.86683276668191">
        <ele>1278.21</ele>
        <time>2012-03-24T10:22:19Z</time>
      </trkpt>
      <trkpt lat="47.073561055585742" lon="6.866883225739002">
        <ele>1277.73</ele>
        <time>2012-03-24T10:22:21Z</time>
      </trkpt>
      <trkpt lat="47.073781499639153" lon="6.866996800526977">
        <ele>1277.25</ele>
        <time>2012-03-24T10:22:28Z</time>
      </trkpt>
      <trkpt lat="47.073843777179718" lon="6.86703996732831">
        <ele>1276.77</ele>
        <time>2012-03-24T10:22:30Z</time>
      </trkpt>
    </trkseg>
  </trk>

</gpx>